<?xml version='1.0' encoding='UTF-8'?><gpx version="1.1" creator="JPX - https://github.com/jenetics/jpx" xmlns="http://www.topografix.com/GPX/1/1"><trk><trkseg><trkpt lat="42.5555828" lon="12.7169328"><ele>215.0</ele><time>2026-05-01T10:22:40.732Z</time></trkpt><trkpt lat="42.5556111" lon="12.7170099"><ele>215.0</ele><time>2026-05-01T10:22:45.739Z</time></trkpt><trkpt lat="42.5556853" lon="12.7172036"><ele>215.0</ele><time>2026-05-01T10:22:49.742Z</time></trkpt><trkpt lat="42.5557086" lon="12.7173271"><ele>215.0</ele><time>2026-05-01T10:23:13.732Z</time></trkpt><trkpt lat="42.5557363" lon="12.7176036"><ele>215.00000000000003</ele><time>2026-05-01T10:23:17.733Z</time></trkpt><trkpt lat="42.5557545" lon="12.7177192"><ele>215.0</ele><time>2026-05-01T10:23:18.732Z</time></trkpt><trkpt lat="42.5557748" lon="12.7178328"><ele>215.0</ele><time>2026-05-01T10:23:19.744Z</time></trkpt><trkpt lat="42.5557991" lon="12.7179444"><ele>215.0</ele><time>2026-05-01T10:23:20.74Z</time></trkpt><trkpt lat="42.5558239" lon="12.718048"><ele>215.00000000000003</ele><time>2026-05-01T10:23:21.746Z</time></trkpt><trkpt lat="42.5558474" lon="12.7181402"><ele>215.0</ele><time>2026-05-01T10:23:22.736Z</time></trkpt><trkpt lat="42.5558696" lon="12.7182292"><ele>214.85714285714286</ele><time>2026-05-01T10:23:23.735Z</time></trkpt><trkpt lat="42.5558992" lon="12.718316"><ele>214.71428571428572</ele><time>2026-05-01T10:23:24.741Z</time></trkpt><trkpt lat="42.5559351" lon="12.7183946"><ele>214.57142857142858</ele><time>2026-05-01T10:23:25.735Z</time></trkpt><trkpt lat="42.5559757" lon="12.718473"><ele>214.42857142857144</ele><time>2026-05-01T10:23:26.738Z</time></trkpt><trkpt lat="42.5560137" lon="12.7185537"><ele>214.28571428571428</ele><time>2026-05-01T10:23:27.734Z</time></trkpt><trkpt lat="42.5560549" lon="12.7186324"><ele>214.14285714285717</ele><time>2026-05-01T10:23:28.738Z</time></trkpt><trkpt lat="42.5560921" lon="12.7187069"><ele>214.0</ele><time>2026-05-01T10:23:29.734Z</time></trkpt><trkpt lat="42.5561462" lon="12.7188294"><ele>214.0</ele><time>2026-05-01T10:23:31.738Z</time></trkpt><trkpt lat="42.5561887" lon="12.7189196"><ele>213.99999999999997</ele><time>2026-05-01T10:23:33.73Z</time></trkpt><trkpt lat="42.556236" lon="12.7190019"><ele>213.99999999999997</ele><time>2026-05-01T10:23:35.732Z</time></trkpt><trkpt lat="42.55638" lon="12.7191279"><ele>214.0</ele><time>2026-05-01T10:23:39.745Z</time></trkpt><trkpt lat="42.5564557" lon="12.7191629"><ele>214.0</ele><time>2026-05-01T10:23:43.733Z</time></trkpt><trkpt lat="42.5565128" lon="12.7192166"><ele>214.6</ele><time>2026-05-01T10:23:52.738Z</time></trkpt><trkpt lat="42.556583" lon="12.719302"><ele>215.2</ele><time>2026-05-01T10:23:55.734Z</time></trkpt><trkpt lat="42.556639" lon="12.7193777"><ele>215.79999999999998</ele><time>2026-05-01T10:23:57.73Z</time></trkpt><trkpt lat="42.5567865" lon="12.7195088"><ele>216.39999999999998</ele><time>2026-05-01T10:24:01.742Z</time></trkpt><trkpt lat="42.5568435" lon="12.719602"><ele>217.0</ele><time>2026-05-01T10:24:03.736Z</time></trkpt><trkpt lat="42.5569006" lon="12.7197209"><ele>217.0</ele><time>2026-05-01T10:24:05.738Z</time></trkpt><trkpt lat="42.556935" lon="12.7198211"><ele>217.0</ele><time>2026-05-01T10:24:07.734Z</time></trkpt><trkpt lat="42.5569764" lon="12.7199174"><ele>217.0</ele><time>2026-05-01T10:24:19.73Z</time></trkpt><trkpt lat="42.557061" lon="12.7200853"><ele>217.0</ele><time>2026-05-01T10:24:24.733Z</time></trkpt><trkpt lat="42.5570961" lon="12.7201631"><ele>217.0</ele><time>2026-05-01T10:24:26.739Z</time></trkpt><trkpt lat="42.55715" lon="12.7202759"><ele>217.28571428571428</ele><time>2026-05-01T10:24:28.732Z</time></trkpt><trkpt lat="42.557185" lon="12.720347"><ele>217.57142857142856</ele><time>2026-05-01T10:24:29.742Z</time></trkpt><trkpt lat="42.5572249" lon="12.720424"><ele>217.85714285714286</ele><time>2026-05-01T10:24:30.733Z</time></trkpt><trkpt lat="42.5572631" lon="12.7205039"><ele>218.14285714285714</ele><time>2026-05-01T10:24:31.739Z</time></trkpt><trkpt lat="42.5573001" lon="12.7205892"><ele>218.42857142857142</ele><time>2026-05-01T10:24:32.73Z</time></trkpt><trkpt lat="42.5573363" lon="12.7206764"><ele>218.71428571428572</ele><time>2026-05-01T10:24:33.734Z</time></trkpt><trkpt lat="42.5573745" lon="12.7207677"><ele>219.0</ele><time>2026-05-01T10:24:34.735Z</time></trkpt><trkpt lat="42.5574186" lon="12.7208635"><ele>219.0</ele><time>2026-05-01T10:24:35.741Z</time></trkpt><trkpt lat="42.5574662" lon="12.7209641"><ele>218.99999999999997</ele><time>2026-05-01T10:24:36.733Z</time></trkpt><trkpt lat="42.557516" lon="12.7210713"><ele>218.99999999999997</ele><time>2026-05-01T10:24:37.737Z</time></trkpt><trkpt lat="42.5575644" lon="12.7211804"><ele>219.0</ele><time>2026-05-01T10:24:38.735Z</time></trkpt><trkpt lat="42.5576098" lon="12.7212884"><ele>219.0</ele><time>2026-05-01T10:24:39.734Z</time></trkpt><trkpt lat="42.5576509" lon="12.7213916"><ele>219.2</ele><time>2026-05-01T10:24:40.73Z</time></trkpt><trkpt lat="42.5577411" lon="12.7215698"><ele>219.39999999999998</ele><time>2026-05-01T10:24:42.727Z</time></trkpt><trkpt lat="42.5577916" lon="12.7216407"><ele>219.6</ele><time>2026-05-01T10:24:43.732Z</time></trkpt><trkpt lat="42.5578518" lon="12.7216867"><ele>219.8</ele><time>2026-05-01T10:24:44.731Z</time></trkpt><trkpt lat="42.5579152" lon="12.7217074"><ele>220.0</ele><time>2026-05-01T10:24:45.733Z</time></trkpt><trkpt lat="42.558034" lon="12.7217153"><ele>220.2</ele><time>2026-05-01T10:24:47.738Z</time></trkpt><trkpt lat="42.5581183" lon="12.7217338"><ele>220.4</ele><time>2026-05-01T10:24:49.735Z</time></trkpt><trkpt lat="42.5581939" lon="12.7217723"><ele>220.60000000000002</ele><time>2026-05-01T10:24:52.736Z</time></trkpt><trkpt lat="42.5582485" lon="12.7218488"><ele>220.8</ele><time>2026-05-01T10:24:55.732Z</time></trkpt><trkpt lat="42.5582758" lon="12.7219405"><ele>221.0</ele><time>2026-05-01T10:29:36.74Z</time></trkpt><trkpt lat="42.5583285" lon="12.7221142"><ele>221.00000000000003</ele><time>2026-05-01T10:29:50.738Z</time></trkpt><trkpt lat="42.5583809" lon="12.7221803"><ele>221.0</ele><time>2026-05-01T10:29:52.728Z</time></trkpt><trkpt lat="42.558427" lon="12.7222719"><ele>221.0</ele><time>2026-05-01T10:29:54.73Z</time></trkpt><trkpt lat="42.5584571" lon="12.7223478"><ele>221.0</ele><time>2026-05-01T10:29:55.737Z</time></trkpt><trkpt lat="42.5584932" lon="12.7224465"><ele>221.00000000000003</ele><time>2026-05-01T10:29:56.732Z</time></trkpt><trkpt lat="42.5585373" lon="12.7225657"><ele>221.0</ele><time>2026-05-01T10:29:57.732Z</time></trkpt><trkpt lat="42.5586503" lon="12.7228227"><ele>220.4</ele><time>2026-05-01T10:29:59.741Z</time></trkpt><trkpt lat="42.558711" lon="12.7229499"><ele>219.8</ele><time>2026-05-01T10:30:00.739Z</time></trkpt><trkpt lat="42.5587682" lon="12.7230552"><ele>219.20000000000002</ele><time>2026-05-01T10:30:01.736Z</time></trkpt><trkpt lat="42.5588117" lon="12.7231331"><ele>218.60000000000002</ele><time>2026-05-01T10:30:02.729Z</time></trkpt><trkpt lat="42.5588645" lon="12.7232094"><ele>218.0</ele><time>2026-05-01T10:30:03.742Z</time></trkpt><trkpt lat="42.5589418" lon="12.7232996"><ele>218.0</ele><time>2026-05-01T10:30:04.731Z</time></trkpt><trkpt lat="42.5590493" lon="12.7234155"><ele>218.0</ele><time>2026-05-01T10:30:05.734Z</time></trkpt><trkpt lat="42.5591782" lon="12.7235407"><ele>218.0</ele><time>2026-05-01T10:30:06.735Z</time></trkpt><trkpt lat="42.5593262" lon="12.7236721"><ele>218.66666666666669</ele><time>2026-05-01T10:30:07.738Z</time></trkpt><trkpt lat="42.5594831" lon="12.7238014"><ele>219.33333333333331</ele><time>2026-05-01T10:30:08.729Z</time></trkpt><trkpt lat="42.5596268" lon="12.7239264"><ele>220.0</ele><time>2026-05-01T10:30:09.735Z</time></trkpt><trkpt lat="42.5597552" lon="12.7240405"><ele>220.0</ele><time>2026-05-01T10:30:10.735Z</time></trkpt><trkpt lat="42.5598788" lon="12.7241505"><ele>220.0</ele><time>2026-05-01T10:30:11.741Z</time></trkpt><trkpt lat="42.5600003" lon="12.7242625"><ele>220.0</ele><time>2026-05-01T10:30:12.741Z</time></trkpt><trkpt lat="42.5601165" lon="12.7243683"><ele>220.0</ele><time>2026-05-01T10:30:13.732Z</time></trkpt><trkpt lat="42.5602432" lon="12.7244669"><ele>219.0</ele><time>2026-05-01T10:30:14.734Z</time></trkpt><trkpt lat="42.5603692" lon="12.7245669"><ele>218.0</ele><time>2026-05-01T10:30:15.733Z</time></trkpt><trkpt lat="42.5604968" lon="12.7246676"><ele>217.0</ele><time>2026-05-01T10:30:16.739Z</time></trkpt><trkpt lat="42.5606193" lon="12.7247656"><ele>216.0</ele><time>2026-05-01T10:30:17.734Z</time></trkpt><trkpt lat="42.5607393" lon="12.7248627"><ele>216.0</ele><time>2026-05-01T10:30:18.734Z</time></trkpt><trkpt lat="42.5609478" lon="12.7250648"><ele>216.0</ele><time>2026-05-01T10:30:20.741Z</time></trkpt><trkpt lat="42.5610467" lon="12.7251512"><ele>216.0</ele><time>2026-05-01T10:30:21.73Z</time></trkpt><trkpt lat="42.5611604" lon="12.7252331"><ele>217.25</ele><time>2026-05-01T10:30:22.731Z</time></trkpt><trkpt lat="42.5612692" lon="12.7253156"><ele>218.5</ele><time>2026-05-01T10:30:23.731Z</time></trkpt><trkpt lat="42.5613763" lon="12.7254038"><ele>219.75</ele><time>2026-05-01T10:30:24.732Z</time></trkpt><trkpt lat="42.5614743" lon="12.7254973"><ele>221.0</ele><time>2026-05-01T10:30:25.734Z</time></trkpt><trkpt lat="42.5615742" lon="12.7255938"><ele>221.0</ele><time>2026-05-01T10:30:26.733Z</time></trkpt><trkpt lat="42.5616731" lon="12.7256922"><ele>221.0</ele><time>2026-05-01T10:30:27.732Z</time></trkpt><trkpt lat="42.5617744" lon="12.7257883"><ele>221.0</ele><time>2026-05-01T10:30:28.742Z</time></trkpt><trkpt lat="42.5618729" lon="12.7258847"><ele>221.0</ele><time>2026-05-01T10:30:29.733Z</time></trkpt><trkpt lat="42.5619766" lon="12.7259818"><ele>221.0</ele><time>2026-05-01T10:30:30.734Z</time></trkpt><trkpt lat="42.562087" lon="12.7260791"><ele>221.0</ele><time>2026-05-01T10:30:31.737Z</time></trkpt><trkpt lat="42.5621982" lon="12.7261781"><ele>221.0</ele><time>2026-05-01T10:30:32.726Z</time></trkpt><trkpt lat="42.5623108" lon="12.726279"><ele>221.0</ele><time>2026-05-01T10:30:33.731Z</time></trkpt><trkpt lat="42.5624224" lon="12.7263788"><ele>221.0</ele><time>2026-05-01T10:30:34.732Z</time></trkpt><trkpt lat="42.5625291" lon="12.7264766"><ele>221.0</ele><time>2026-05-01T10:30:35.737Z</time></trkpt><trkpt lat="42.5626276" lon="12.7265663"><ele>221.0</ele><time>2026-05-01T10:30:36.733Z</time></trkpt><trkpt lat="42.5627216" lon="12.7266533"><ele>221.0</ele><time>2026-05-01T10:30:37.73Z</time></trkpt><trkpt lat="42.562813" lon="12.7267368"><ele>220.5</ele><time>2026-05-01T10:30:38.732Z</time></trkpt><trkpt lat="42.5629045" lon="12.7268104"><ele>220.0</ele><time>2026-05-01T10:30:39.732Z</time></trkpt><trkpt lat="42.5630667" lon="12.7269359"><ele>219.5</ele><time>2026-05-01T10:30:41.732Z</time></trkpt><trkpt lat="42.5631379" lon="12.7269981"><ele>219.0</ele><time>2026-05-01T10:30:42.728Z</time></trkpt><trkpt lat="42.5632112" lon="12.7270639"><ele>219.0</ele><time>2026-05-01T10:30:43.733Z</time></trkpt><trkpt lat="42.563277" lon="12.7271271"><ele>219.0</ele><time>2026-05-01T10:30:44.742Z</time></trkpt><trkpt lat="42.5633443" lon="12.7271907"><ele>219.0</ele><time>2026-05-01T10:30:45.731Z</time></trkpt><trkpt lat="42.563413" lon="12.7272576"><ele>219.0</ele><time>2026-05-01T10:30:46.73Z</time></trkpt><trkpt lat="42.5634931" lon="12.7273309"><ele>219.0</ele><time>2026-05-01T10:30:47.743Z</time></trkpt><trkpt lat="42.5635779" lon="12.7274011"><ele>219.0</ele><time>2026-05-01T10:30:48.73Z</time></trkpt><trkpt lat="42.5636561" lon="12.7274696"><ele>219.16666666666666</ele><time>2026-05-01T10:30:49.737Z</time></trkpt><trkpt lat="42.5637247" lon="12.7275306"><ele>219.33333333333331</ele><time>2026-05-01T10:30:50.732Z</time></trkpt><trkpt lat="42.5637838" lon="12.7275854"><ele>219.5</ele><time>2026-05-01T10:30:51.731Z</time></trkpt><trkpt lat="42.5638629" lon="12.7276729"><ele>219.66666666666666</ele><time>2026-05-01T10:30:53.731Z</time></trkpt><trkpt lat="42.5638287" lon="12.7277682"><ele>219.83333333333331</ele><time>2026-05-01T10:30:56.731Z</time></trkpt><trkpt lat="42.5637572" lon="12.7277999"><ele>220.0</ele><time>2026-05-01T10:30:57.731Z</time></trkpt><trkpt lat="42.5636636" lon="12.7278468"><ele>218.66666666666666</ele><time>2026-05-01T10:30:58.731Z</time></trkpt><trkpt lat="42.5635572" lon="12.7279072"><ele>217.33333333333331</ele><time>2026-05-01T10:30:59.733Z</time></trkpt><trkpt lat="42.56344" lon="12.7279789"><ele>216.0</ele><time>2026-05-01T10:31:00.737Z</time></trkpt><trkpt lat="42.5631962" lon="12.7281226"><ele>216.0</ele><time>2026-05-01T10:31:02.73Z</time></trkpt><trkpt lat="42.5630683" lon="12.7282005"><ele>216.0</ele><time>2026-05-01T10:31:03.731Z</time></trkpt><trkpt lat="42.5629423" lon="12.7282823"><ele>216.0</ele><time>2026-05-01T10:31:04.729Z</time></trkpt><trkpt lat="42.5628251" lon="12.7283658"><ele>216.0</ele><time>2026-05-01T10:31:05.732Z</time></trkpt><trkpt lat="42.5627171" lon="12.7284445"><ele>215.75</ele><time>2026-05-01T10:31:06.729Z</time></trkpt><trkpt lat="42.5626147" lon="12.7285206"><ele>215.5</ele><time>2026-05-01T10:31:07.732Z</time></trkpt><trkpt lat="42.5625138" lon="12.7285967"><ele>215.25</ele><time>2026-05-01T10:31:08.738Z</time></trkpt><trkpt lat="42.5624078" lon="12.7286726"><ele>215.0</ele><time>2026-05-01T10:31:09.733Z</time></trkpt><trkpt lat="42.562295" lon="12.7287403"><ele>214.75</ele><time>2026-05-01T10:31:10.726Z</time></trkpt><trkpt lat="42.5621746" lon="12.7288003"><ele>214.5</ele><time>2026-05-01T10:31:11.731Z</time></trkpt><trkpt lat="42.5620439" lon="12.728853"><ele>214.25</ele><time>2026-05-01T10:31:12.727Z</time></trkpt><trkpt lat="42.5619195" lon="12.7289143"><ele>214.0</ele><time>2026-05-01T10:31:13.73Z</time></trkpt><trkpt lat="42.5617991" lon="12.7289925"><ele>214.0</ele><time>2026-05-01T10:31:14.732Z</time></trkpt><trkpt lat="42.5616885" lon="12.7290967"><ele>214.0</ele><time>2026-05-01T10:31:15.733Z</time></trkpt><trkpt lat="42.5615808" lon="12.7292229"><ele>214.0</ele><time>2026-05-01T10:31:16.732Z</time></trkpt><trkpt lat="42.5614925" lon="12.72938"><ele>214.0</ele><time>2026-05-01T10:31:17.731Z</time></trkpt><trkpt lat="42.5614005" lon="12.7295329"><ele>215.0</ele><time>2026-05-01T10:31:18.741Z</time></trkpt><trkpt lat="42.5613186" lon="12.7296832"><ele>216.0</ele><time>2026-05-01T10:31:19.73Z</time></trkpt><trkpt lat="42.5612404" lon="12.7298125"><ele>217.0</ele><time>2026-05-01T10:31:20.731Z</time></trkpt><trkpt lat="42.5611741" lon="12.7299231"><ele>218.0</ele><time>2026-05-01T10:31:21.735Z</time></trkpt><trkpt lat="42.5611176" lon="12.7300991"><ele>221.2</ele><time>2026-05-01T10:31:24.729Z</time></trkpt><trkpt lat="42.5611579" lon="12.7301881"><ele>224.4</ele><time>2026-05-01T10:31:26.734Z</time></trkpt><trkpt lat="42.5612555" lon="12.730314"><ele>227.59999999999997</ele><time>2026-05-01T10:31:28.728Z</time></trkpt><trkpt lat="42.5613277" lon="12.7303981"><ele>230.79999999999998</ele><time>2026-05-01T10:31:29.735Z</time></trkpt><trkpt lat="42.5614165" lon="12.7304794"><ele>234.0</ele><time>2026-05-01T10:31:30.727Z</time></trkpt><trkpt lat="42.5615151" lon="12.7305498"><ele>234.2</ele><time>2026-05-01T10:31:31.725Z</time></trkpt><trkpt lat="42.5616218" lon="12.7306155"><ele>234.39999999999998</ele><time>2026-05-01T10:31:32.734Z</time></trkpt><trkpt lat="42.5617325" lon="12.7306731"><ele>234.6</ele><time>2026-05-01T10:31:33.732Z</time></trkpt><trkpt lat="42.5618411" lon="12.7307203"><ele>234.8</ele><time>2026-05-01T10:31:34.746Z</time></trkpt><trkpt lat="42.5619355" lon="12.7307599"><ele>235.0</ele><time>2026-05-01T10:31:35.732Z</time></trkpt><trkpt lat="42.5620161" lon="12.7308013"><ele>232.2</ele><time>2026-05-01T10:31:36.731Z</time></trkpt><trkpt lat="42.5620835" lon="12.7308424"><ele>229.4</ele><time>2026-05-01T10:31:37.729Z</time></trkpt><trkpt lat="42.5621397" lon="12.7308858"><ele>226.60000000000002</ele><time>2026-05-01T10:31:38.726Z</time></trkpt><trkpt lat="42.5622252" lon="12.7309527"><ele>223.8</ele><time>2026-05-01T10:31:40.735Z</time></trkpt><trkpt lat="42.562264" lon="12.7310374"><ele>221.0</ele><time>2026-05-01T10:31:42.733Z</time></trkpt><trkpt lat="42.5621904" lon="12.7312355"><ele>221.00000000000003</ele><time>2026-05-01T10:31:45.727Z</time></trkpt><trkpt lat="42.5621612" lon="12.7313342"><ele>221.0</ele><time>2026-05-01T10:31:46.736Z</time></trkpt><trkpt lat="42.5621412" lon="12.7314456"><ele>221.0</ele><time>2026-05-01T10:31:47.737Z</time></trkpt><trkpt lat="42.5621303" lon="12.7315596"><ele>221.0</ele><time>2026-05-01T10:31:48.731Z</time></trkpt><trkpt lat="42.5621213" lon="12.7316761"><ele>221.00000000000003</ele><time>2026-05-01T10:31:49.737Z</time></trkpt><trkpt lat="42.5621226" lon="12.7317934"><ele>221.0</ele><time>2026-05-01T10:31:50.729Z</time></trkpt><trkpt lat="42.5621403" lon="12.7318978"><ele>221.50000000000003</ele><time>2026-05-01T10:31:51.739Z</time></trkpt><trkpt lat="42.5621747" lon="12.7319807"><ele>222.0</ele><time>2026-05-01T10:31:52.74Z</time></trkpt><trkpt lat="42.562221" lon="12.7320437"><ele>222.5</ele><time>2026-05-01T10:31:53.731Z</time></trkpt><trkpt lat="42.5622915" lon="12.7320964"><ele>223.0</ele><time>2026-05-01T10:31:54.728Z</time></trkpt><trkpt lat="42.5623683" lon="12.732143"><ele>223.50000000000003</ele><time>2026-05-01T10:31:55.735Z</time></trkpt><trkpt lat="42.562454" lon="12.7321725"><ele>224.0</ele><time>2026-05-01T10:31:56.73Z</time></trkpt><trkpt lat="42.5625436" lon="12.7321802"><ele>224.0</ele><time>2026-05-01T10:31:57.729Z</time></trkpt><trkpt lat="42.562633" lon="12.7321758"><ele>223.99999999999997</ele><time>2026-05-01T10:31:58.736Z</time></trkpt><trkpt lat="42.562712" lon="12.7321737"><ele>223.99999999999997</ele><time>2026-05-01T10:31:59.73Z</time></trkpt><trkpt lat="42.5628137" lon="12.7321977"><ele>224.0</ele><time>2026-05-01T10:32:01.735Z</time></trkpt><trkpt lat="42.5628557" lon="12.7323442"><ele>224.0</ele><time>2026-05-01T10:32:03.729Z</time></trkpt><trkpt lat="42.5628829" lon="12.732623"><ele>222.83333333333334</ele><time>2026-05-01T10:32:05.734Z</time></trkpt><trkpt lat="42.5629105" lon="12.7327529"><ele>221.66666666666669</ele><time>2026-05-01T10:32:06.737Z</time></trkpt><trkpt lat="42.5629471" lon="12.7328613"><ele>220.5</ele><time>2026-05-01T10:32:07.735Z</time></trkpt><trkpt lat="42.5629842" lon="12.7329656"><ele>219.33333333333331</ele><time>2026-05-01T10:32:08.733Z</time></trkpt><trkpt lat="42.5630112" lon="12.733055"><ele>218.16666666666666</ele><time>2026-05-01T10:32:09.734Z</time></trkpt><trkpt lat="42.563019" lon="12.7331939"><ele>217.0</ele><time>2026-05-01T10:32:11.74Z</time></trkpt><trkpt lat="42.5629845" lon="12.7333208"><ele>216.99999999999997</ele><time>2026-05-01T10:32:13.736Z</time></trkpt><trkpt lat="42.5629224" lon="12.7334473"><ele>217.0</ele><time>2026-05-01T10:32:15.742Z</time></trkpt><trkpt lat="42.5628848" lon="12.7335267"><ele>217.0</ele><time>2026-05-01T10:32:16.728Z</time></trkpt><trkpt lat="42.5628635" lon="12.7336243"><ele>217.0</ele><time>2026-05-01T10:32:17.728Z</time></trkpt><trkpt lat="42.5628622" lon="12.7337431"><ele>216.99999999999997</ele><time>2026-05-01T10:32:18.734Z</time></trkpt><trkpt lat="42.5628756" lon="12.7338832"><ele>217.0</ele><time>2026-05-01T10:32:19.736Z</time></trkpt><trkpt lat="42.5628972" lon="12.7340315"><ele>217.0</ele><time>2026-05-01T10:32:20.745Z</time></trkpt><trkpt lat="42.5629286" lon="12.7341783"><ele>217.0</ele><time>2026-05-01T10:32:21.732Z</time></trkpt><trkpt lat="42.5629556" lon="12.7343211"><ele>217.0</ele><time>2026-05-01T10:32:22.726Z</time></trkpt><trkpt lat="42.5629829" lon="12.7344591"><ele>217.0</ele><time>2026-05-01T10:32:23.726Z</time></trkpt><trkpt lat="42.5630139" lon="12.7345905"><ele>217.0</ele><time>2026-05-01T10:32:24.73Z</time></trkpt><trkpt lat="42.5630991" lon="12.7348177"><ele>217.33333333333331</ele><time>2026-05-01T10:32:26.732Z</time></trkpt><trkpt lat="42.5631518" lon="12.734916"><ele>217.66666666666666</ele><time>2026-05-01T10:32:27.733Z</time></trkpt><trkpt lat="42.5632029" lon="12.734997"><ele>218.0</ele><time>2026-05-01T10:32:28.734Z</time></trkpt><trkpt lat="42.5632497" lon="12.7350669"><ele>218.33333333333331</ele><time>2026-05-01T10:32:29.742Z</time></trkpt><trkpt lat="42.5633091" lon="12.7351886"><ele>218.66666666666666</ele><time>2026-05-01T10:32:31.729Z</time></trkpt><trkpt lat="42.563324" lon="12.7353004"><ele>219.0</ele><time>2026-05-01T10:32:33.725Z</time></trkpt><trkpt lat="42.5632991" lon="12.7354054"><ele>219.0</ele><time>2026-05-01T10:32:35.729Z</time></trkpt><trkpt lat="42.5633536" lon="12.7354938"><ele>218.99999999999997</ele><time>2026-05-01T10:32:38.729Z</time></trkpt><trkpt lat="42.5634338" lon="12.7355194"><ele>218.99999999999997</ele><time>2026-05-01T10:32:39.743Z</time></trkpt><trkpt lat="42.5635263" lon="12.7355481"><ele>219.0</ele><time>2026-05-01T10:32:40.735Z</time></trkpt><trkpt lat="42.5636268" lon="12.7355881"><ele>219.0</ele><time>2026-05-01T10:32:41.736Z</time></trkpt><trkpt lat="42.5637312" lon="12.7356313"><ele>217.75</ele><time>2026-05-01T10:32:42.729Z</time></trkpt><trkpt lat="42.5638355" lon="12.7356712"><ele>216.5</ele><time>2026-05-01T10:32:43.732Z</time></trkpt><trkpt lat="42.5639345" lon="12.7357038"><ele>215.25</ele><time>2026-05-01T10:32:44.855Z</time></trkpt><trkpt lat="42.564105" lon="12.7357514"><ele>214.0</ele><time>2026-05-01T10:32:46.732Z</time></trkpt><trkpt lat="42.5642466" lon="12.7357962"><ele>214.0</ele><time>2026-05-01T10:32:48.73Z</time></trkpt><trkpt lat="42.564308" lon="12.7358417"><ele>213.99999999999997</ele><time>2026-05-01T10:32:54.727Z</time></trkpt><trkpt lat="42.5643361" lon="12.7359339"><ele>213.99999999999997</ele><time>2026-05-01T10:32:57.728Z</time></trkpt><trkpt lat="42.5643413" lon="12.7360574"><ele>214.0</ele><time>2026-05-01T10:32:59.744Z</time></trkpt><trkpt lat="42.5643485" lon="12.7362374"><ele>214.0</ele><time>2026-05-01T10:33:01.733Z</time></trkpt><trkpt lat="42.564359" lon="12.7363615"><ele>214.39999999999998</ele><time>2026-05-01T10:33:03.727Z</time></trkpt><trkpt lat="42.5643668" lon="12.7364885"><ele>214.79999999999998</ele><time>2026-05-01T10:33:06.734Z</time></trkpt><trkpt lat="42.5643709" lon="12.7366028"><ele>215.20000000000002</ele><time>2026-05-01T10:33:08.727Z</time></trkpt><trkpt lat="42.5644158" lon="12.7367877"><ele>215.60000000000002</ele><time>2026-05-01T10:33:15.734Z</time></trkpt><trkpt lat="42.5644328" lon="12.7368713"><ele>216.0</ele><time>2026-05-01T10:33:17.728Z</time></trkpt><trkpt lat="42.5644558" lon="12.7370021"><ele>216.0</ele><time>2026-05-01T10:33:19.734Z</time></trkpt><trkpt lat="42.5644783" lon="12.7371036"><ele>216.00000000000003</ele><time>2026-05-01T10:33:21.726Z</time></trkpt><trkpt lat="42.5645025" lon="12.7372214"><ele>216.00000000000003</ele><time>2026-05-01T10:33:24.737Z</time></trkpt><trkpt lat="42.5645312" lon="12.7373306"><ele>216.0</ele><time>2026-05-01T10:33:28.736Z</time></trkpt><trkpt lat="42.5645507" lon="12.7374154"><ele>216.0</ele><time>2026-05-01T10:33:30.741Z</time></trkpt><trkpt lat="42.5645186" lon="12.7375972"><ele>216.0</ele><time>2026-05-01T10:33:38.728Z</time></trkpt><trkpt lat="42.5645236" lon="12.7377139"><ele>216.00000000000003</ele><time>2026-05-01T10:33:48.736Z</time></trkpt><trkpt lat="42.5645448" lon="12.7378098"><ele>216.00000000000003</ele><time>2026-05-01T10:33:50.729Z</time></trkpt><trkpt lat="42.5645453" lon="12.7379607"><ele>216.0</ele><time>2026-05-01T10:33:52.736Z</time></trkpt><trkpt lat="42.5645216" lon="12.738149"><ele>216.0</ele><time>2026-05-01T10:33:54.726Z</time></trkpt><trkpt lat="42.5645052" lon="12.7382478"><ele>217.8</ele><time>2026-05-01T10:33:55.746Z</time></trkpt><trkpt lat="42.5644797" lon="12.7383329"><ele>219.60000000000002</ele><time>2026-05-01T10:33:56.728Z</time></trkpt><trkpt lat="42.5644197" lon="12.7384892"><ele>221.4</ele><time>2026-05-01T10:33:58.723Z</time></trkpt><trkpt lat="42.564374" lon="12.7386272"><ele>223.2</ele><time>2026-05-01T10:34:00.725Z</time></trkpt><trkpt lat="42.5644039" lon="12.738795"><ele>225.0</ele><time>2026-05-01T10:34:02.736Z</time></trkpt><trkpt lat="42.564435" lon="12.7389003"><ele>224.5</ele><time>2026-05-01T10:34:03.731Z</time></trkpt><trkpt lat="42.5644689" lon="12.7389989"><ele>224.0</ele><time>2026-05-01T10:34:04.734Z</time></trkpt><trkpt lat="42.5645008" lon="12.7390881"><ele>223.5</ele><time>2026-05-01T10:34:05.739Z</time></trkpt><trkpt lat="42.5645304" lon="12.739164"><ele>223.0</ele><time>2026-05-01T10:34:06.737Z</time></trkpt><trkpt lat="42.5645554" lon="12.7392992"><ele>222.5</ele><time>2026-05-01T10:34:08.725Z</time></trkpt><trkpt lat="42.5645363" lon="12.7393927"><ele>222.0</ele><time>2026-05-01T10:34:10.733Z</time></trkpt><trkpt lat="42.5645718" lon="12.7395093"><ele>222.0</ele><time>2026-05-01T10:34:12.735Z</time></trkpt><trkpt lat="42.5646343" lon="12.739653"><ele>222.0</ele><time>2026-05-01T10:34:14.729Z</time></trkpt><trkpt lat="42.5646946" lon="12.7398247"><ele>222.0</ele><time>2026-05-01T10:34:16.736Z</time></trkpt><trkpt lat="42.5647338" lon="12.7399172"><ele>222.0</ele><time>2026-05-01T10:34:17.728Z</time></trkpt><trkpt lat="42.5647778" lon="12.740004"><ele>222.0</ele><time>2026-05-01T10:34:18.732Z</time></trkpt><trkpt lat="42.5648195" lon="12.7400759"><ele>222.0</ele><time>2026-05-01T10:34:19.744Z</time></trkpt><trkpt lat="42.5648839" lon="12.7402047"><ele>222.0</ele><time>2026-05-01T10:34:21.736Z</time></trkpt><trkpt lat="42.5649305" lon="12.7403038"><ele>222.0</ele><time>2026-05-01T10:34:23.727Z</time></trkpt><trkpt lat="42.564973" lon="12.7404347"><ele>222.0</ele><time>2026-05-01T10:34:25.73Z</time></trkpt><trkpt lat="42.5650112" lon="12.7406028"><ele>222.0</ele><time>2026-05-01T10:34:27.74Z</time></trkpt><trkpt lat="42.5650371" lon="12.7407004"><ele>224.0</ele><time>2026-05-01T10:34:28.73Z</time></trkpt><trkpt lat="42.5650648" lon="12.740807"><ele>226.0</ele><time>2026-05-01T10:34:29.733Z</time></trkpt><trkpt lat="42.5650983" lon="12.7409009"><ele>228.0</ele><time>2026-05-01T10:34:30.738Z</time></trkpt><trkpt lat="42.5651425" lon="12.7409999"><ele>230.0</ele><time>2026-05-01T10:34:31.735Z</time></trkpt><trkpt lat="42.5651916" lon="12.7410929"><ele>232.0</ele><time>2026-05-01T10:34:32.73Z</time></trkpt><trkpt lat="42.5652392" lon="12.7411843"><ele>234.0</ele><time>2026-05-01T10:34:33.727Z</time></trkpt><trkpt lat="42.5652795" lon="12.7412696"><ele>231.66666666666666</ele><time>2026-05-01T10:34:34.731Z</time></trkpt><trkpt lat="42.565314" lon="12.7413518"><ele>229.33333333333331</ele><time>2026-05-01T10:34:35.739Z</time></trkpt><trkpt lat="42.565391" lon="12.7415097"><ele>227.0</ele><time>2026-05-01T10:34:37.743Z</time></trkpt><trkpt lat="42.5654274" lon="12.7415953"><ele>224.66666666666666</ele><time>2026-05-01T10:34:38.731Z</time></trkpt><trkpt lat="42.5654582" lon="12.7416864"><ele>222.33333333333331</ele><time>2026-05-01T10:34:39.731Z</time></trkpt><trkpt lat="42.5654887" lon="12.7417787"><ele>220.0</ele><time>2026-05-01T10:34:40.729Z</time></trkpt><trkpt lat="42.5655291" lon="12.7418685"><ele>222.42857142857142</ele><time>2026-05-01T10:34:41.727Z</time></trkpt><trkpt lat="42.5655757" lon="12.7419542"><ele>224.85714285714283</ele><time>2026-05-01T10:34:42.73Z</time></trkpt><trkpt lat="42.5656268" lon="12.7420363"><ele>227.28571428571428</ele><time>2026-05-01T10:34:43.737Z</time></trkpt><trkpt lat="42.5656745" lon="12.7421175"><ele>229.7142857142857</ele><time>2026-05-01T10:34:44.728Z</time></trkpt><trkpt lat="42.5657264" lon="12.7421881"><ele>232.14285714285714</ele><time>2026-05-01T10:34:45.735Z</time></trkpt><trkpt lat="42.5657758" lon="12.7422504"><ele>234.57142857142853</ele><time>2026-05-01T10:34:46.733Z</time></trkpt><trkpt lat="42.5658317" lon="12.742305"><ele>236.99999999999997</ele><time>2026-05-01T10:34:47.732Z</time></trkpt><trkpt lat="42.5658912" lon="12.7423694"><ele>237.0</ele><time>2026-05-01T10:34:48.729Z</time></trkpt><trkpt lat="42.5659496" lon="12.7424561"><ele>237.0</ele><time>2026-05-01T10:34:49.738Z</time></trkpt><trkpt lat="42.5660085" lon="12.7425469"><ele>237.0</ele><time>2026-05-01T10:34:50.74Z</time></trkpt><trkpt lat="42.5660715" lon="12.7426504"><ele>237.0</ele><time>2026-05-01T10:34:51.73Z</time></trkpt><trkpt lat="42.5661278" lon="12.7427601"><ele>237.0</ele><time>2026-05-01T10:34:52.728Z</time></trkpt><trkpt lat="42.5661763" lon="12.7428588"><ele>236.39999999999998</ele><time>2026-05-01T10:34:53.73Z</time></trkpt><trkpt lat="42.566216" lon="12.742929"><ele>235.79999999999998</ele><time>2026-05-01T10:34:54.725Z</time></trkpt><trkpt lat="42.5663057" lon="12.7430393"><ele>235.2</ele><time>2026-05-01T10:34:56.735Z</time></trkpt><trkpt lat="42.5664367" lon="12.7431612"><ele>234.6</ele><time>2026-05-01T10:34:58.731Z</time></trkpt><trkpt lat="42.5664933" lon="12.7432205"><ele>234.0</ele><time>2026-05-01T10:34:59.729Z</time></trkpt><trkpt lat="42.5665907" lon="12.7433292"><ele>234.0</ele><time>2026-05-01T10:35:01.736Z</time></trkpt><trkpt lat="42.5666494" lon="12.7433752"><ele>234.0</ele><time>2026-05-01T10:35:02.726Z</time></trkpt><trkpt lat="42.5667242" lon="12.7434158"><ele>234.0</ele><time>2026-05-01T10:35:03.728Z</time></trkpt><trkpt lat="42.5668147" lon="12.7434462"><ele>234.0</ele><time>2026-05-01T10:35:04.733Z</time></trkpt><trkpt lat="42.5669173" lon="12.7434743"><ele>234.0</ele><time>2026-05-01T10:35:05.737Z</time></trkpt><trkpt lat="42.5670161" lon="12.7434961"><ele>234.0</ele><time>2026-05-01T10:35:06.735Z</time></trkpt><trkpt lat="42.5671076" lon="12.7435128"><ele>231.83333333333334</ele><time>2026-05-01T10:35:07.737Z</time></trkpt><trkpt lat="42.5671918" lon="12.7435283"><ele>229.66666666666669</ele><time>2026-05-01T10:35:08.725Z</time></trkpt><trkpt lat="42.5672767" lon="12.7435361"><ele>227.5</ele><time>2026-05-01T10:35:09.729Z</time></trkpt><trkpt lat="42.5673597" lon="12.7435306"><ele>225.33333333333334</ele><time>2026-05-01T10:35:10.735Z</time></trkpt><trkpt lat="42.5674394" lon="12.7435246"><ele>223.16666666666669</ele><time>2026-05-01T10:35:11.737Z</time></trkpt><trkpt lat="42.5675185" lon="12.7435181"><ele>221.0</ele><time>2026-05-01T10:35:12.729Z</time></trkpt><trkpt lat="42.5675979" lon="12.7435139"><ele>221.0</ele><time>2026-05-01T10:35:13.729Z</time></trkpt><trkpt lat="42.567677" lon="12.7435168"><ele>221.00000000000003</ele><time>2026-05-01T10:35:14.729Z</time></trkpt><trkpt lat="42.5677611" lon="12.743534"><ele>221.00000000000003</ele><time>2026-05-01T10:35:15.734Z</time></trkpt><trkpt lat="42.5678477" lon="12.7435649"><ele>221.0</ele><time>2026-05-01T10:35:16.73Z</time></trkpt><trkpt lat="42.5679325" lon="12.7436092"><ele>221.0</ele><time>2026-05-01T10:35:17.728Z</time></trkpt><trkpt lat="42.5680743" lon="12.7437052"><ele>220.50000000000003</ele><time>2026-05-01T10:35:19.733Z</time></trkpt><trkpt lat="42.5681407" lon="12.743743"><ele>220.0</ele><time>2026-05-01T10:35:21.729Z</time></trkpt><trkpt lat="42.5681848" lon="12.7436775"><ele>219.5</ele><time>2026-05-01T10:35:23.738Z</time></trkpt><trkpt lat="42.5682253" lon="12.7435183"><ele>219.0</ele><time>2026-05-01T10:35:25.723Z</time></trkpt><trkpt lat="42.5682575" lon="12.7434267"><ele>218.50000000000003</ele><time>2026-05-01T10:35:26.737Z</time></trkpt><trkpt lat="42.5683002" lon="12.7433341"><ele>218.0</ele><time>2026-05-01T10:35:27.732Z</time></trkpt><trkpt lat="42.5683549" lon="12.7432457"><ele>217.50000000000003</ele><time>2026-05-01T10:35:28.729Z</time></trkpt><trkpt lat="42.5684129" lon="12.7431669"><ele>217.0</ele><time>2026-05-01T10:35:29.726Z</time></trkpt><trkpt lat="42.5684695" lon="12.7431007"><ele>216.5</ele><time>2026-05-01T10:35:30.724Z</time></trkpt><trkpt lat="42.5685169" lon="12.7430438"><ele>216.0</ele><time>2026-05-01T10:35:31.73Z</time></trkpt><trkpt lat="42.5685369" lon="12.7429089"><ele>215.50000000000003</ele><time>2026-05-01T10:35:33.73Z</time></trkpt><trkpt lat="42.5685202" lon="12.7427455"><ele>215.0</ele><time>2026-05-01T10:35:35.729Z</time></trkpt><trkpt lat="42.5685301" lon="12.7426581"><ele>215.0</ele><time>2026-05-01T10:35:36.733Z</time></trkpt><trkpt lat="42.568554" lon="12.7425706"><ele>215.0</ele><time>2026-05-01T10:35:37.733Z</time></trkpt><trkpt lat="42.5685834" lon="12.7424734"><ele>215.0</ele><time>2026-05-01T10:35:38.736Z</time></trkpt><trkpt lat="42.5686531" lon="12.7422627"><ele>215.0</ele><time>2026-05-01T10:35:40.724Z</time></trkpt><trkpt lat="42.5686862" lon="12.7421517"><ele>215.0</ele><time>2026-05-01T10:35:41.735Z</time></trkpt><trkpt lat="42.5687126" lon="12.742048"><ele>215.16666666666669</ele><time>2026-05-01T10:35:42.727Z</time></trkpt><trkpt lat="42.568744" lon="12.7419525"><ele>215.33333333333334</ele><time>2026-05-01T10:35:43.737Z</time></trkpt><trkpt lat="42.5687816" lon="12.7418606"><ele>215.5</ele><time>2026-05-01T10:35:44.733Z</time></trkpt><trkpt lat="42.5688255" lon="12.7417751"><ele>215.66666666666669</ele><time>2026-05-01T10:35:45.731Z</time></trkpt><trkpt lat="42.5688785" lon="12.741684"><ele>215.83333333333334</ele><time>2026-05-01T10:35:46.727Z</time></trkpt><trkpt lat="42.5689408" lon="12.7415948"><ele>216.0</ele><time>2026-05-01T10:35:47.743Z</time></trkpt><trkpt lat="42.5690126" lon="12.7415111"><ele>216.16666666666666</ele><time>2026-05-01T10:35:48.729Z</time></trkpt><trkpt lat="42.5690928" lon="12.7414331"><ele>216.33333333333331</ele><time>2026-05-01T10:35:49.732Z</time></trkpt><trkpt lat="42.5691655" lon="12.74136"><ele>216.5</ele><time>2026-05-01T10:35:50.731Z</time></trkpt><trkpt lat="42.5692322" lon="12.7412951"><ele>216.66666666666666</ele><time>2026-05-01T10:35:51.738Z</time></trkpt><trkpt lat="42.5692882" lon="12.7412419"><ele>216.83333333333331</ele><time>2026-05-01T10:35:52.726Z</time></trkpt><trkpt lat="42.5693602" lon="12.7411767"><ele>217.0</ele><time>2026-05-01T10:35:54.733Z</time></trkpt><trkpt lat="42.5694365" lon="12.7412018"><ele>217.0</ele><time>2026-05-01T10:35:57.742Z</time></trkpt><trkpt lat="42.5695131" lon="12.7413219"><ele>217.0</ele><time>2026-05-01T10:35:59.734Z</time></trkpt><trkpt lat="42.5696158" lon="12.7414801"><ele>217.0</ele><time>2026-05-01T10:36:01.726Z</time></trkpt><trkpt lat="42.5696687" lon="12.7415511"><ele>217.0</ele><time>2026-05-01T10:36:02.729Z</time></trkpt><trkpt lat="42.5697225" lon="12.7416159"><ele>217.0</ele><time>2026-05-01T10:36:03.732Z</time></trkpt><trkpt lat="42.5697811" lon="12.7416746"><ele>216.83333333333331</ele><time>2026-05-01T10:36:04.73Z</time></trkpt><trkpt lat="42.5698432" lon="12.7417334"><ele>216.66666666666666</ele><time>2026-05-01T10:36:05.727Z</time></trkpt><trkpt lat="42.5699041" lon="12.7417986"><ele>216.5</ele><time>2026-05-01T10:36:06.734Z</time></trkpt><trkpt lat="42.5699651" lon="12.7418659"><ele>216.33333333333331</ele><time>2026-05-01T10:36:07.745Z</time></trkpt><trkpt lat="42.5700287" lon="12.7419324"><ele>216.16666666666666</ele><time>2026-05-01T10:36:08.729Z</time></trkpt><trkpt lat="42.5700958" lon="12.7420026"><ele>216.0</ele><time>2026-05-01T10:36:09.737Z</time></trkpt><trkpt lat="42.5701622" lon="12.7420722"><ele>216.0</ele><time>2026-05-01T10:36:10.737Z</time></trkpt><trkpt lat="42.5702238" lon="12.7421436"><ele>216.0</ele><time>2026-05-01T10:36:11.737Z</time></trkpt><trkpt lat="42.5702834" lon="12.7422081"><ele>216.0</ele><time>2026-05-01T10:36:12.729Z</time></trkpt><trkpt lat="42.5703443" lon="12.7422743"><ele>216.0</ele><time>2026-05-01T10:36:13.738Z</time></trkpt><trkpt lat="42.5704032" lon="12.7423521"><ele>216.0</ele><time>2026-05-01T10:36:14.732Z</time></trkpt><trkpt lat="42.5704659" lon="12.7424425"><ele>216.0</ele><time>2026-05-01T10:36:15.73Z</time></trkpt><trkpt lat="42.5705291" lon="12.7425442"><ele>216.60000000000002</ele><time>2026-05-01T10:36:16.732Z</time></trkpt><trkpt lat="42.5705954" lon="12.7426439"><ele>217.20000000000002</ele><time>2026-05-01T10:36:17.734Z</time></trkpt><trkpt lat="42.5706625" lon="12.7427394"><ele>217.79999999999998</ele><time>2026-05-01T10:36:18.734Z</time></trkpt><trkpt lat="42.5707267" lon="12.7428295"><ele>218.39999999999998</ele><time>2026-05-01T10:36:19.727Z</time></trkpt><trkpt lat="42.5707848" lon="12.7429076"><ele>219.0</ele><time>2026-05-01T10:36:20.729Z</time></trkpt><trkpt lat="42.5708756" lon="12.7430672"><ele>219.0</ele><time>2026-05-01T10:36:22.729Z</time></trkpt><trkpt lat="42.5709055" lon="12.7431729"><ele>218.99999999999997</ele><time>2026-05-01T10:36:23.73Z</time></trkpt><trkpt lat="42.5709279" lon="12.7432928"><ele>218.99999999999997</ele><time>2026-05-01T10:36:24.725Z</time></trkpt><trkpt lat="42.5709422" lon="12.7434252"><ele>219.0</ele><time>2026-05-01T10:36:25.735Z</time></trkpt><trkpt lat="42.5709492" lon="12.7435577"><ele>219.0</ele><time>2026-05-01T10:36:26.731Z</time></trkpt><trkpt lat="42.5709583" lon="12.7436878"><ele>219.0</ele><time>2026-05-01T10:36:27.741Z</time></trkpt><trkpt lat="42.5709703" lon="12.7438067"><ele>219.0</ele><time>2026-05-01T10:36:28.727Z</time></trkpt><trkpt lat="42.5709767" lon="12.7439101"><ele>219.0</ele><time>2026-05-01T10:36:29.735Z</time></trkpt><trkpt lat="42.5709708" lon="12.7440058"><ele>219.0</ele><time>2026-05-01T10:36:30.738Z</time></trkpt><trkpt lat="42.5709639" lon="12.7440991"><ele>219.0</ele><time>2026-05-01T10:36:31.731Z</time></trkpt><trkpt lat="42.5709596" lon="12.7441849"><ele>219.0</ele><time>2026-05-01T10:36:32.728Z</time></trkpt><trkpt lat="42.5709608" lon="12.7443306"><ele>218.5</ele><time>2026-05-01T10:36:34.727Z</time></trkpt><trkpt lat="42.5709551" lon="12.744498"><ele>218.0</ele><time>2026-05-01T10:36:36.732Z</time></trkpt><trkpt lat="42.5709631" lon="12.7445859"><ele>217.5</ele><time>2026-05-01T10:36:37.74Z</time></trkpt><trkpt lat="42.5709782" lon="12.7446875"><ele>217.0</ele><time>2026-05-01T10:36:38.734Z</time></trkpt><trkpt lat="42.5709933" lon="12.744802"><ele>216.5</ele><time>2026-05-01T10:36:39.73Z</time></trkpt><trkpt lat="42.5710036" lon="12.7449125"><ele>216.0</ele><time>2026-05-01T10:36:40.734Z</time></trkpt><trkpt lat="42.5710102" lon="12.7450108"><ele>216.0</ele><time>2026-05-01T10:36:41.735Z</time></trkpt><trkpt lat="42.5710004" lon="12.7452002"><ele>216.00000000000003</ele><time>2026-05-01T10:36:43.733Z</time></trkpt><trkpt lat="42.5709944" lon="12.7453062"><ele>216.00000000000003</ele><time>2026-05-01T10:36:44.729Z</time></trkpt><trkpt lat="42.570992" lon="12.7454224"><ele>216.0</ele><time>2026-05-01T10:36:45.729Z</time></trkpt><trkpt lat="42.5709925" lon="12.7455479"><ele>216.0</ele><time>2026-05-01T10:36:46.732Z</time></trkpt><trkpt lat="42.5709938" lon="12.7456805"><ele>216.0</ele><time>2026-05-01T10:36:47.736Z</time></trkpt><trkpt lat="42.5709928" lon="12.7458147"><ele>216.0</ele><time>2026-05-01T10:36:48.729Z</time></trkpt><trkpt lat="42.5709895" lon="12.7459411"><ele>216.0</ele><time>2026-05-01T10:36:49.746Z</time></trkpt><trkpt lat="42.5709861" lon="12.7460559"><ele>216.0</ele><time>2026-05-01T10:36:50.728Z</time></trkpt><trkpt lat="42.5709809" lon="12.7461616"><ele>216.0</ele><time>2026-05-01T10:36:51.732Z</time></trkpt><trkpt lat="42.570985" lon="12.7462612"><ele>216.0</ele><time>2026-05-01T10:36:52.732Z</time></trkpt><trkpt lat="42.57099" lon="12.7463521"><ele>216.0</ele><time>2026-05-01T10:36:53.725Z</time></trkpt><trkpt lat="42.5709912" lon="12.7464384"><ele>216.0</ele><time>2026-05-01T10:36:54.736Z</time></trkpt><trkpt lat="42.570996" lon="12.7465266"><ele>216.0</ele><time>2026-05-01T10:36:55.736Z</time></trkpt><trkpt lat="42.5709985" lon="12.746621"><ele>216.0</ele><time>2026-05-01T10:36:56.727Z</time></trkpt><trkpt lat="42.5709991" lon="12.7467135"><ele>216.0</ele><time>2026-05-01T10:36:57.73Z</time></trkpt><trkpt lat="42.570999" lon="12.7468075"><ele>216.0</ele><time>2026-05-01T10:36:58.735Z</time></trkpt><trkpt lat="42.5709991" lon="12.746906"><ele>216.0</ele><time>2026-05-01T10:36:59.737Z</time></trkpt><trkpt lat="42.5710025" lon="12.7470021"><ele>216.0</ele><time>2026-05-01T10:37:00.727Z</time></trkpt><trkpt lat="42.5710006" lon="12.7470966"><ele>216.00000000000003</ele><time>2026-05-01T10:37:01.735Z</time></trkpt><trkpt lat="42.5709909" lon="12.7471877"><ele>216.00000000000003</ele><time>2026-05-01T10:37:02.728Z</time></trkpt><trkpt lat="42.5709295" lon="12.74743"><ele>216.0</ele><time>2026-05-01T10:37:07.728Z</time></trkpt><trkpt lat="42.5709994" lon="12.7474515"><ele>216.0</ele><time>2026-05-01T10:37:10.735Z</time></trkpt><trkpt lat="42.5710688" lon="12.747367"><ele>216.0</ele><time>2026-05-01T10:37:12.726Z</time></trkpt><trkpt lat="42.571135" lon="12.7472451"><ele>216.00000000000003</ele><time>2026-05-01T10:37:14.73Z</time></trkpt><trkpt lat="42.5711944" lon="12.7471794"><ele>216.00000000000003</ele><time>2026-05-01T10:37:15.734Z</time></trkpt><trkpt lat="42.571278" lon="12.7471113"><ele>216.0</ele><time>2026-05-01T10:37:16.729Z</time></trkpt><trkpt lat="42.5713814" lon="12.7470388"><ele>216.0</ele><time>2026-05-01T10:37:17.728Z</time></trkpt><trkpt lat="42.5714765" lon="12.7469729"><ele>216.20000000000002</ele><time>2026-05-01T10:37:18.736Z</time></trkpt><trkpt lat="42.5715439" lon="12.7469245"><ele>216.40000000000003</ele><time>2026-05-01T10:37:19.731Z</time></trkpt><trkpt lat="42.5716393" lon="12.7468788"><ele>216.6</ele><time>2026-05-01T10:37:21.735Z</time></trkpt><trkpt lat="42.5717053" lon="12.7469486"><ele>216.8</ele><time>2026-05-01T10:37:23.735Z</time></trkpt><trkpt lat="42.5717919" lon="12.7471405"><ele>217.0</ele><time>2026-05-01T10:37:25.734Z</time></trkpt><trkpt lat="42.5718404" lon="12.7472535"><ele>216.99999999999997</ele><time>2026-05-01T10:37:26.727Z</time></trkpt><trkpt lat="42.5718848" lon="12.7473672"><ele>217.0</ele><time>2026-05-01T10:37:27.722Z</time></trkpt><trkpt lat="42.5719274" lon="12.747469"><ele>217.0</ele><time>2026-05-01T10:37:28.741Z</time></trkpt><trkpt lat="42.5719646" lon="12.7475599"><ele>217.0</ele><time>2026-05-01T10:37:29.73Z</time></trkpt><trkpt lat="42.5719912" lon="12.747646"><ele>216.99999999999997</ele><time>2026-05-01T10:37:30.728Z</time></trkpt><trkpt lat="42.572034" lon="12.7477596"><ele>217.0</ele><time>2026-05-01T10:37:32.735Z</time></trkpt><trkpt lat="42.5721377" lon="12.7477166"><ele>217.0</ele><time>2026-05-01T10:37:35.729Z</time></trkpt><trkpt lat="42.5721994" lon="12.747653"><ele>217.0</ele><time>2026-05-01T10:37:36.726Z</time></trkpt><trkpt lat="42.5722736" lon="12.7475724"><ele>217.0</ele><time>2026-05-01T10:37:37.727Z</time></trkpt><trkpt lat="42.5723513" lon="12.7474888"><ele>217.0</ele><time>2026-05-01T10:37:38.731Z</time></trkpt><trkpt lat="42.5724267" lon="12.7474037"><ele>217.0</ele><time>2026-05-01T10:37:39.738Z</time></trkpt><trkpt lat="42.5724908" lon="12.7473194"><ele>217.0</ele><time>2026-05-01T10:37:40.733Z</time></trkpt><trkpt lat="42.5725399" lon="12.7472543"><ele>217.0</ele><time>2026-05-01T10:37:41.726Z</time></trkpt><trkpt lat="42.5726194" lon="12.7472161"><ele>217.0</ele><time>2026-05-01T10:37:43.73Z</time></trkpt><trkpt lat="42.5727313" lon="12.747314"><ele>217.0</ele><time>2026-05-01T10:37:45.729Z</time></trkpt><trkpt lat="42.5728812" lon="12.7474553"><ele>216.99999999999997</ele><time>2026-05-01T10:37:47.728Z</time></trkpt><trkpt lat="42.5729518" lon="12.747509"><ele>217.0</ele><time>2026-05-01T10:37:48.737Z</time></trkpt><trkpt lat="42.5730224" lon="12.747562"><ele>217.0</ele><time>2026-05-01T10:37:49.729Z</time></trkpt><trkpt lat="42.5730904" lon="12.7476217"><ele>217.0</ele><time>2026-05-01T10:37:50.728Z</time></trkpt><trkpt lat="42.5731572" lon="12.7476845"><ele>216.99999999999997</ele><time>2026-05-01T10:37:51.731Z</time></trkpt><trkpt lat="42.5732238" lon="12.7477497"><ele>217.0</ele><time>2026-05-01T10:37:52.733Z</time></trkpt><trkpt lat="42.5732921" lon="12.7478202"><ele>217.0</ele><time>2026-05-01T10:37:53.729Z</time></trkpt><trkpt lat="42.5733654" lon="12.7478991"><ele>217.0</ele><time>2026-05-01T10:37:54.735Z</time></trkpt><trkpt lat="42.5734368" lon="12.7479834"><ele>217.0</ele><time>2026-05-01T10:37:55.729Z</time></trkpt><trkpt lat="42.5735064" lon="12.7480669"><ele>217.0</ele><time>2026-05-01T10:37:56.738Z</time></trkpt><trkpt lat="42.573573" lon="12.7481519"><ele>217.0</ele><time>2026-05-01T10:37:57.728Z</time></trkpt><trkpt lat="42.573637" lon="12.7482406"><ele>217.0</ele><time>2026-05-01T10:37:58.726Z</time></trkpt><trkpt lat="42.5737043" lon="12.7483404"><ele>217.0</ele><time>2026-05-01T10:37:59.729Z</time></trkpt><trkpt lat="42.5737793" lon="12.748442"><ele>217.0</ele><time>2026-05-01T10:38:00.726Z</time></trkpt><trkpt lat="42.5738508" lon="12.7485398"><ele>217.0</ele><time>2026-05-01T10:38:01.744Z</time></trkpt><trkpt lat="42.573921" lon="12.7486284"><ele>217.0</ele><time>2026-05-01T10:38:02.726Z</time></trkpt><trkpt lat="42.5739934" lon="12.7487235"><ele>217.25</ele><time>2026-05-01T10:38:03.73Z</time></trkpt><trkpt lat="42.5740565" lon="12.7488268"><ele>217.5</ele><time>2026-05-01T10:38:04.738Z</time></trkpt><trkpt lat="42.574117" lon="12.7489305"><ele>217.75</ele><time>2026-05-01T10:38:05.729Z</time></trkpt><trkpt lat="42.5741774" lon="12.7490329"><ele>218.0</ele><time>2026-05-01T10:38:06.724Z</time></trkpt><trkpt lat="42.5743158" lon="12.7492335"><ele>218.0</ele><time>2026-05-01T10:38:08.726Z</time></trkpt><trkpt lat="42.5743923" lon="12.7493368"><ele>218.0</ele><time>2026-05-01T10:38:09.734Z</time></trkpt><trkpt lat="42.5744668" lon="12.7494381"><ele>218.0</ele><time>2026-05-01T10:38:10.738Z</time></trkpt><trkpt lat="42.5745411" lon="12.7495354"><ele>218.0</ele><time>2026-05-01T10:38:11.728Z</time></trkpt><trkpt lat="42.5746117" lon="12.749628"><ele>218.0</ele><time>2026-05-01T10:38:12.736Z</time></trkpt><trkpt lat="42.5746784" lon="12.7497181"><ele>218.0</ele><time>2026-05-01T10:38:13.732Z</time></trkpt><trkpt lat="42.5747403" lon="12.749814"><ele>218.0</ele><time>2026-05-01T10:38:14.724Z</time></trkpt><trkpt lat="42.5747986" lon="12.7499166"><ele>218.0</ele><time>2026-05-01T10:38:15.728Z</time></trkpt><trkpt lat="42.5748588" lon="12.750023"><ele>218.0</ele><time>2026-05-01T10:38:16.728Z</time></trkpt><trkpt lat="42.5749201" lon="12.7501326"><ele>218.0</ele><time>2026-05-01T10:38:17.738Z</time></trkpt><trkpt lat="42.5749765" lon="12.7502463"><ele>218.2</ele><time>2026-05-01T10:38:18.732Z</time></trkpt><trkpt lat="42.5750318" lon="12.7503578"><ele>218.4</ele><time>2026-05-01T10:38:19.724Z</time></trkpt><trkpt lat="42.5750848" lon="12.7504692"><ele>218.59999999999997</ele><time>2026-05-01T10:38:20.724Z</time></trkpt><trkpt lat="42.5751345" lon="12.7505928"><ele>218.79999999999998</ele><time>2026-05-01T10:38:21.724Z</time></trkpt><trkpt lat="42.5751818" lon="12.7507219"><ele>219.0</ele><time>2026-05-01T10:38:22.731Z</time></trkpt><trkpt lat="42.575227" lon="12.7508506"><ele>219.0</ele><time>2026-05-01T10:38:23.73Z</time></trkpt><trkpt lat="42.575275" lon="12.7509814"><ele>218.99999999999997</ele><time>2026-05-01T10:38:24.732Z</time></trkpt><trkpt lat="42.5753239" lon="12.751116"><ele>218.99999999999997</ele><time>2026-05-01T10:38:25.733Z</time></trkpt><trkpt lat="42.5753693" lon="12.7512506"><ele>219.0</ele><time>2026-05-01T10:38:26.733Z</time></trkpt><trkpt lat="42.57541" lon="12.7513754"><ele>219.0</ele><time>2026-05-01T10:38:27.727Z</time></trkpt><trkpt lat="42.5754901" lon="12.751612"><ele>219.0</ele><time>2026-05-01T10:38:29.734Z</time></trkpt><trkpt lat="42.5755212" lon="12.7517324"><ele>218.99999999999997</ele><time>2026-05-01T10:38:30.73Z</time></trkpt><trkpt lat="42.5755498" lon="12.7518633"><ele>218.99999999999997</ele><time>2026-05-01T10:38:31.735Z</time></trkpt><trkpt lat="42.5755828" lon="12.7519924"><ele>219.0</ele><time>2026-05-01T10:38:32.728Z</time></trkpt><trkpt lat="42.575623" lon="12.7521236"><ele>219.0</ele><time>2026-05-01T10:38:33.731Z</time></trkpt><trkpt lat="42.5756723" lon="12.7522569"><ele>220.0</ele><time>2026-05-01T10:38:34.735Z</time></trkpt><trkpt lat="42.5757251" lon="12.7523937"><ele>220.99999999999997</ele><time>2026-05-01T10:38:35.743Z</time></trkpt><trkpt lat="42.5757737" lon="12.7525219"><ele>221.99999999999997</ele><time>2026-05-01T10:38:36.726Z</time></trkpt><trkpt lat="42.5758205" lon="12.7526396"><ele>223.0</ele><time>2026-05-01T10:38:37.729Z</time></trkpt><trkpt lat="42.575859" lon="12.7527395"><ele>224.0</ele><time>2026-05-01T10:38:38.728Z</time></trkpt><trkpt lat="42.5758909" lon="12.7528264"><ele>225.0</ele><time>2026-05-01T10:38:39.73Z</time></trkpt><trkpt lat="42.5759396" lon="12.7529215"><ele>225.99999999999997</ele><time>2026-05-01T10:38:41.736Z</time></trkpt><trkpt lat="42.5760505" lon="12.753003"><ele>226.99999999999997</ele><time>2026-05-01T10:38:43.733Z</time></trkpt><trkpt lat="42.5761519" lon="12.7530518"><ele>228.0</ele><time>2026-05-01T10:38:44.725Z</time></trkpt><trkpt lat="42.5762634" lon="12.7531088"><ele>229.0</ele><time>2026-05-01T10:38:45.73Z</time></trkpt><trkpt lat="42.5763701" lon="12.7531512"><ele>229.0</ele><time>2026-05-01T10:38:46.732Z</time></trkpt><trkpt lat="42.5764679" lon="12.7531824"><ele>228.99999999999997</ele><time>2026-05-01T10:38:47.724Z</time></trkpt><trkpt lat="42.5765551" lon="12.7532091"><ele>228.99999999999997</ele><time>2026-05-01T10:38:48.73Z</time></trkpt><trkpt lat="42.5767147" lon="12.7532734"><ele>229.0</ele><time>2026-05-01T10:38:50.726Z</time></trkpt><trkpt lat="42.5767769" lon="12.7532999"><ele>229.0</ele><time>2026-05-01T10:38:51.732Z</time></trkpt><trkpt lat="42.5768371" lon="12.7533419"><ele>229.0</ele><time>2026-05-01T10:38:56.73Z</time></trkpt><trkpt lat="42.5767939" lon="12.7532652"><ele>229.0</ele><time>2026-05-01T10:39:11.732Z</time></trkpt><trkpt lat="42.5766215" lon="12.7532879"><ele>229.0</ele><time>2026-05-01T10:39:16.729Z</time></trkpt><trkpt lat="42.5764909" lon="12.753241"><ele>229.0</ele><time>2026-05-01T10:39:18.733Z</time></trkpt><trkpt lat="42.5764204" lon="12.7532055"><ele>229.0</ele><time>2026-05-01T10:39:19.726Z</time></trkpt><trkpt lat="42.5763408" lon="12.7531722"><ele>228.99999999999997</ele><time>2026-05-01T10:39:20.733Z</time></trkpt><trkpt lat="42.576244" lon="12.7531411"><ele>228.99999999999997</ele><time>2026-05-01T10:39:21.733Z</time></trkpt><trkpt lat="42.5761446" lon="12.7531182"><ele>229.0</ele><time>2026-05-01T10:39:22.729Z</time></trkpt><trkpt lat="42.5760412" lon="12.7531005"><ele>229.0</ele><time>2026-05-01T10:39:23.727Z</time></trkpt><trkpt lat="42.5759443" lon="12.7530802"><ele>232.16666666666666</ele><time>2026-05-01T10:39:24.729Z</time></trkpt><trkpt lat="42.5758539" lon="12.7530614"><ele>235.33333333333331</ele><time>2026-05-01T10:39:25.732Z</time></trkpt><trkpt lat="42.5757682" lon="12.7530439"><ele>238.5</ele><time>2026-05-01T10:39:26.735Z</time></trkpt><trkpt lat="42.5756888" lon="12.7530248"><ele>241.66666666666669</ele><time>2026-05-01T10:39:27.733Z</time></trkpt><trkpt lat="42.5756121" lon="12.7530174"><ele>244.83333333333334</ele><time>2026-05-01T10:39:28.741Z</time></trkpt><trkpt lat="42.5755384" lon="12.7530259"><ele>248.0</ele><time>2026-05-01T10:39:29.73Z</time></trkpt><trkpt lat="42.5754324" lon="12.7530545"><ele>248.0</ele><time>2026-05-01T10:39:31.731Z</time></trkpt><trkpt lat="42.5754187" lon="12.7531521"><ele>248.0</ele><time>2026-05-01T10:39:34.734Z</time></trkpt><trkpt lat="42.5755951" lon="12.7531879"><ele>248.0</ele><time>2026-05-01T10:39:38.723Z</time></trkpt><trkpt lat="42.575678" lon="12.7532234"><ele>248.0</ele><time>2026-05-01T10:39:40.733Z</time></trkpt><trkpt lat="42.5756908" lon="12.7533345"><ele>248.0</ele><time>2026-05-01T10:39:43.741Z</time></trkpt><trkpt lat="42.5756196" lon="12.7533509"><ele>248.0</ele><time>2026-05-01T10:39:45.729Z</time></trkpt><trkpt lat="42.5755568" lon="12.7533441"><ele>248.00000000000003</ele><time>2026-05-01T10:39:46.719Z</time></trkpt><trkpt lat="42.5754882" lon="12.7533416"><ele>248.0</ele><time>2026-05-01T10:39:47.735Z</time></trkpt><trkpt lat="42.5754228" lon="12.7533512"><ele>248.0</ele><time>2026-05-01T10:39:48.725Z</time></trkpt><trkpt lat="42.5753329" lon="12.7534031"><ele>248.00000000000003</ele><time>2026-05-01T10:39:50.733Z</time></trkpt><trkpt lat="42.5752827" lon="12.7534718"><ele>248.0</ele><time>2026-05-01T10:39:53.729Z</time></trkpt><trkpt lat="42.5752068" lon="12.7535174"><ele>248.0</ele><time>2026-05-01T10:40:02.729Z</time></trkpt><trkpt lat="42.5750348" lon="12.7536759"><ele>251.33333333333334</ele><time>2026-05-01T10:40:05.749Z</time></trkpt><trkpt lat="42.5749756" lon="12.7537412"><ele>254.66666666666669</ele><time>2026-05-01T10:40:06.734Z</time></trkpt><trkpt lat="42.5749199" lon="12.753806"><ele>258.0</ele><time>2026-05-01T10:40:07.729Z</time></trkpt><trkpt lat="42.574861" lon="12.7538805"><ele>261.3333333333333</ele><time>2026-05-01T10:40:08.73Z</time></trkpt><trkpt lat="42.5748005" lon="12.753964"><ele>264.66666666666663</ele><time>2026-05-01T10:40:09.726Z</time></trkpt><trkpt lat="42.5747416" lon="12.7540563"><ele>268.0</ele><time>2026-05-01T10:40:10.729Z</time></trkpt><trkpt lat="42.5746925" lon="12.7541478"><ele>268.0</ele><time>2026-05-01T10:40:11.729Z</time></trkpt><trkpt lat="42.5746444" lon="12.7542358"><ele>268.0</ele><time>2026-05-01T10:40:12.728Z</time></trkpt><trkpt lat="42.5745865" lon="12.7543177"><ele>268.0</ele><time>2026-05-01T10:40:13.735Z</time></trkpt><trkpt lat="42.5745191" lon="12.7543927"><ele>268.0</ele><time>2026-05-01T10:40:14.734Z</time></trkpt><trkpt lat="42.5744516" lon="12.7544553"><ele>268.0</ele><time>2026-05-01T10:40:15.73Z</time></trkpt><trkpt lat="42.5743789" lon="12.7545084"><ele>268.0</ele><time>2026-05-01T10:40:16.73Z</time></trkpt><trkpt lat="42.5743074" lon="12.754556"><ele>269.66666666666663</ele><time>2026-05-01T10:40:17.727Z</time></trkpt><trkpt lat="42.57424" lon="12.7546038"><ele>271.3333333333333</ele><time>2026-05-01T10:40:18.727Z</time></trkpt><trkpt lat="42.574178" lon="12.754658"><ele>273.0</ele><time>2026-05-01T10:40:19.729Z</time></trkpt><trkpt lat="42.5741192" lon="12.7547235"><ele>274.6666666666667</ele><time>2026-05-01T10:40:20.73Z</time></trkpt><trkpt lat="42.5740652" lon="12.7548016"><ele>276.33333333333337</ele><time>2026-05-01T10:40:21.729Z</time></trkpt><trkpt lat="42.5740128" lon="12.75489"><ele>278.0</ele><time>2026-05-01T10:40:22.732Z</time></trkpt><trkpt lat="42.5739582" lon="12.7549751"><ele>278.0</ele><time>2026-05-01T10:40:23.731Z</time></trkpt><trkpt lat="42.5738368" lon="12.7551353"><ele>278.0</ele><time>2026-05-01T10:40:25.729Z</time></trkpt><trkpt lat="42.5737745" lon="12.7552144"><ele>278.0</ele><time>2026-05-01T10:40:26.727Z</time></trkpt><trkpt lat="42.5737107" lon="12.7552903"><ele>278.0</ele><time>2026-05-01T10:40:27.725Z</time></trkpt><trkpt lat="42.5736468" lon="12.7553691"><ele>278.0</ele><time>2026-05-01T10:40:28.733Z</time></trkpt><trkpt lat="42.5735868" lon="12.7554511"><ele>279.4</ele><time>2026-05-01T10:40:29.73Z</time></trkpt><trkpt lat="42.5735218" lon="12.7555367"><ele>280.8</ele><time>2026-05-01T10:40:30.728Z</time></trkpt><trkpt lat="42.5734519" lon="12.7556224"><ele>282.2</ele><time>2026-05-01T10:40:31.735Z</time></trkpt><trkpt lat="42.5733828" lon="12.7557029"><ele>283.6</ele><time>2026-05-01T10:40:32.728Z</time></trkpt><trkpt lat="42.5733155" lon="12.7557872"><ele>285.0</ele><time>2026-05-01T10:40:33.728Z</time></trkpt><trkpt lat="42.5732485" lon="12.7558733"><ele>285.0</ele><time>2026-05-01T10:40:34.734Z</time></trkpt><trkpt lat="42.5731821" lon="12.7559579"><ele>285.0</ele><time>2026-05-01T10:40:35.724Z</time></trkpt><trkpt lat="42.5731209" lon="12.7560414"><ele>285.0</ele><time>2026-05-01T10:40:36.733Z</time></trkpt><trkpt lat="42.5730672" lon="12.7561205"><ele>285.0</ele><time>2026-05-01T10:40:37.735Z</time></trkpt><trkpt lat="42.5730175" lon="12.7561949"><ele>285.0</ele><time>2026-05-01T10:40:38.734Z</time></trkpt><trkpt lat="42.5729685" lon="12.7562672"><ele>285.0</ele><time>2026-05-01T10:40:39.734Z</time></trkpt><trkpt lat="42.5729315" lon="12.7563407"><ele>289.0</ele><time>2026-05-01T10:40:40.733Z</time></trkpt><trkpt lat="42.5729039" lon="12.7564905"><ele>293.0</ele><time>2026-05-01T10:40:42.738Z</time></trkpt><trkpt lat="42.5729208" lon="12.7566517"><ele>297.0</ele><time>2026-05-01T10:40:44.726Z</time></trkpt><trkpt lat="42.5729982" lon="12.7568465"><ele>301.0</ele><time>2026-05-01T10:40:46.732Z</time></trkpt><trkpt lat="42.5730363" lon="12.7569605"><ele>302.2</ele><time>2026-05-01T10:40:47.729Z</time></trkpt><trkpt lat="42.5730719" lon="12.757084"><ele>303.40000000000003</ele><time>2026-05-01T10:40:48.731Z</time></trkpt><trkpt lat="42.5731077" lon="12.7572241"><ele>304.6</ele><time>2026-05-01T10:40:49.733Z</time></trkpt><trkpt lat="42.5731329" lon="12.7573595"><ele>305.8</ele><time>2026-05-01T10:40:50.73Z</time></trkpt><trkpt lat="42.5731522" lon="12.7574871"><ele>307.0</ele><time>2026-05-01T10:40:51.729Z</time></trkpt><trkpt lat="42.5731675" lon="12.7575993"><ele>307.0</ele><time>2026-05-01T10:40:52.733Z</time></trkpt><trkpt lat="42.57318" lon="12.757685"><ele>307.0</ele><time>2026-05-01T10:40:53.731Z</time></trkpt><trkpt lat="42.5731601" lon="12.757801"><ele>307.0</ele><time>2026-05-01T10:40:55.73Z</time></trkpt><trkpt lat="42.5730916" lon="12.7578938"><ele>307.0</ele><time>2026-05-01T10:40:57.725Z</time></trkpt><trkpt lat="42.5729758" lon="12.7579695"><ele>307.0</ele><time>2026-05-01T10:40:59.727Z</time></trkpt><trkpt lat="42.572901" lon="12.7580001"><ele>309.0</ele><time>2026-05-01T10:41:00.733Z</time></trkpt><trkpt lat="42.5728227" lon="12.7580254"><ele>311.0</ele><time>2026-05-01T10:41:01.738Z</time></trkpt><trkpt lat="42.5727298" lon="12.7580593"><ele>313.0</ele><time>2026-05-01T10:41:02.725Z</time></trkpt><trkpt lat="42.5726305" lon="12.7581042"><ele>315.0</ele><time>2026-05-01T10:41:03.728Z</time></trkpt><trkpt lat="42.572536" lon="12.758149"><ele>317.0</ele><time>2026-05-01T10:41:04.725Z</time></trkpt><trkpt lat="42.5724443" lon="12.7581924"><ele>317.0</ele><time>2026-05-01T10:41:05.729Z</time></trkpt><trkpt lat="42.5722789" lon="12.7582543"><ele>317.0</ele><time>2026-05-01T10:41:07.731Z</time></trkpt><trkpt lat="42.5722053" lon="12.7582815"><ele>317.0</ele><time>2026-05-01T10:41:08.723Z</time></trkpt><trkpt lat="42.5721381" lon="12.7583137"><ele>317.0</ele><time>2026-05-01T10:41:09.726Z</time></trkpt><trkpt lat="42.5720771" lon="12.7583456"><ele>317.0</ele><time>2026-05-01T10:41:10.733Z</time></trkpt><trkpt lat="42.5720192" lon="12.7583884"><ele>317.33333333333337</ele><time>2026-05-01T10:41:11.734Z</time></trkpt><trkpt lat="42.5719591" lon="12.7584528"><ele>317.6666666666667</ele><time>2026-05-01T10:41:12.727Z</time></trkpt><trkpt lat="42.571897" lon="12.7585258"><ele>318.0</ele><time>2026-05-01T10:41:13.734Z</time></trkpt><trkpt lat="42.5718477" lon="12.758618"><ele>318.3333333333333</ele><time>2026-05-01T10:41:14.73Z</time></trkpt><trkpt lat="42.5718136" lon="12.7587257"><ele>318.66666666666663</ele><time>2026-05-01T10:41:15.738Z</time></trkpt><trkpt lat="42.571794" lon="12.7588535"><ele>319.0</ele><time>2026-05-01T10:41:16.722Z</time></trkpt><trkpt lat="42.5717893" lon="12.7589986"><ele>319.0</ele><time>2026-05-01T10:41:17.73Z</time></trkpt><trkpt lat="42.57178" lon="12.7591489"><ele>319.0</ele><time>2026-05-01T10:41:18.731Z</time></trkpt><trkpt lat="42.5717671" lon="12.7592889"><ele>319.0</ele><time>2026-05-01T10:41:19.732Z</time></trkpt><trkpt lat="42.5717457" lon="12.759411"><ele>319.0</ele><time>2026-05-01T10:41:20.722Z</time></trkpt><trkpt lat="42.5717253" lon="12.7595262"><ele>319.0</ele><time>2026-05-01T10:41:21.729Z</time></trkpt><trkpt lat="42.5716906" lon="12.759628"><ele>323.0</ele><time>2026-05-01T10:41:22.728Z</time></trkpt><trkpt lat="42.5716436" lon="12.7597241"><ele>327.0</ele><time>2026-05-01T10:41:23.736Z</time></trkpt><trkpt lat="42.5715942" lon="12.7598205"><ele>331.0</ele><time>2026-05-01T10:41:24.733Z</time></trkpt><trkpt lat="42.5715447" lon="12.7599199"><ele>335.0</ele><time>2026-05-01T10:41:25.734Z</time></trkpt><trkpt lat="42.5714986" lon="12.7600359"><ele>339.0</ele><time>2026-05-01T10:41:26.73Z</time></trkpt><trkpt lat="42.5713991" lon="12.760278"><ele>342.4</ele><time>2026-05-01T10:41:28.727Z</time></trkpt><trkpt lat="42.5713455" lon="12.7603988"><ele>345.79999999999995</ele><time>2026-05-01T10:41:29.727Z</time></trkpt><trkpt lat="42.5712891" lon="12.7605186"><ele>349.20000000000005</ele><time>2026-05-01T10:41:30.728Z</time></trkpt><trkpt lat="42.5712355" lon="12.7606472"><ele>352.6</ele><time>2026-05-01T10:41:31.727Z</time></trkpt><trkpt lat="42.5711804" lon="12.7607837"><ele>356.0</ele><time>2026-05-01T10:41:32.745Z</time></trkpt><trkpt lat="42.5711294" lon="12.7609136"><ele>356.1666666666667</ele><time>2026-05-01T10:41:33.721Z</time></trkpt><trkpt lat="42.5710887" lon="12.761032"><ele>356.33333333333337</ele><time>2026-05-01T10:41:34.725Z</time></trkpt><trkpt lat="42.5710577" lon="12.761129"><ele>356.5</ele><time>2026-05-01T10:41:35.729Z</time></trkpt><trkpt lat="42.5709986" lon="12.7612172"><ele>356.6666666666667</ele><time>2026-05-01T10:41:37.73Z</time></trkpt><trkpt lat="42.5709487" lon="12.761161"><ele>356.8333333333333</ele><time>2026-05-01T10:41:46.724Z</time></trkpt><trkpt lat="42.5709142" lon="12.7610481"><ele>357.0</ele><time>2026-05-01T10:41:49.74Z</time></trkpt><trkpt lat="42.5708711" lon="12.7608525"><ele>357.0</ele><time>2026-05-01T10:41:51.726Z</time></trkpt><trkpt lat="42.5708522" lon="12.7607335"><ele>357.0</ele><time>2026-05-01T10:41:52.727Z</time></trkpt><trkpt lat="42.5708221" lon="12.7606115"><ele>357.0</ele><time>2026-05-01T10:41:53.742Z</time></trkpt><trkpt lat="42.5707916" lon="12.7604869"><ele>357.0</ele><time>2026-05-01T10:41:54.732Z</time></trkpt><trkpt lat="42.5707612" lon="12.7603619"><ele>357.0</ele><time>2026-05-01T10:41:55.726Z</time></trkpt><trkpt lat="42.5707289" lon="12.7602318"><ele>353.40000000000003</ele><time>2026-05-01T10:41:56.733Z</time></trkpt><trkpt lat="42.5707086" lon="12.7601185"><ele>349.8</ele><time>2026-05-01T10:41:57.733Z</time></trkpt><trkpt lat="42.5706871" lon="12.7600236"><ele>346.2</ele><time>2026-05-01T10:41:58.733Z</time></trkpt><trkpt lat="42.5706325" lon="12.7598928"><ele>342.6</ele><time>2026-05-01T10:42:00.742Z</time></trkpt><trkpt lat="42.5705647" lon="12.75983"><ele>339.0</ele><time>2026-05-01T10:42:02.734Z</time></trkpt><trkpt lat="42.5704561" lon="12.7598179"><ele>339.0</ele><time>2026-05-01T10:42:04.724Z</time></trkpt><trkpt lat="42.5703839" lon="12.7598334"><ele>339.0</ele><time>2026-05-01T10:42:05.727Z</time></trkpt><trkpt lat="42.5703071" lon="12.75986"><ele>339.0</ele><time>2026-05-01T10:42:06.732Z</time></trkpt><trkpt lat="42.5702314" lon="12.7598896"><ele>339.0</ele><time>2026-05-01T10:42:07.729Z</time></trkpt><trkpt lat="42.5701569" lon="12.7599247"><ele>339.0</ele><time>2026-05-01T10:42:08.743Z</time></trkpt><trkpt lat="42.5700792" lon="12.7599567"><ele>339.0</ele><time>2026-05-01T10:42:09.729Z</time></trkpt><trkpt lat="42.5699989" lon="12.7599839"><ele>339.79999999999995</ele><time>2026-05-01T10:42:10.726Z</time></trkpt><trkpt lat="42.5698242" lon="12.7600288"><ele>340.59999999999997</ele><time>2026-05-01T10:42:12.73Z</time></trkpt><trkpt lat="42.5697349" lon="12.7600528"><ele>341.4</ele><time>2026-05-01T10:42:13.727Z</time></trkpt><trkpt lat="42.5696529" lon="12.7600887"><ele>342.2</ele><time>2026-05-01T10:42:14.73Z</time></trkpt><trkpt lat="42.5695745" lon="12.7601321"><ele>343.0</ele><time>2026-05-01T10:42:15.727Z</time></trkpt><trkpt lat="42.5694958" lon="12.7601698"><ele>346.4</ele><time>2026-05-01T10:42:16.731Z</time></trkpt><trkpt lat="42.5694086" lon="12.7602001"><ele>349.79999999999995</ele><time>2026-05-01T10:42:17.733Z</time></trkpt><trkpt lat="42.5693129" lon="12.7602293"><ele>353.2</ele><time>2026-05-01T10:42:18.728Z</time></trkpt><trkpt lat="42.5692081" lon="12.7602646"><ele>356.6</ele><time>2026-05-01T10:42:19.744Z</time></trkpt><trkpt lat="42.5691023" lon="12.7602987"><ele>360.0</ele><time>2026-05-01T10:42:20.726Z</time></trkpt><trkpt lat="42.5689945" lon="12.7603314"><ele>360.0</ele><time>2026-05-01T10:42:21.731Z</time></trkpt><trkpt lat="42.5688954" lon="12.7603605"><ele>360.0</ele><time>2026-05-01T10:42:22.732Z</time></trkpt><trkpt lat="42.5688029" lon="12.7603889"><ele>360.0</ele><time>2026-05-01T10:42:23.725Z</time></trkpt><trkpt lat="42.568719" lon="12.7604109"><ele>360.0</ele><time>2026-05-01T10:42:24.73Z</time></trkpt><trkpt lat="42.5686304" lon="12.7604264"><ele>360.0</ele><time>2026-05-01T10:42:25.737Z</time></trkpt><trkpt lat="42.5685403" lon="12.7604347"><ele>358.0</ele><time>2026-05-01T10:42:26.729Z</time></trkpt><trkpt lat="42.5684467" lon="12.7604405"><ele>356.0</ele><time>2026-05-01T10:42:27.739Z</time></trkpt><trkpt lat="42.5683588" lon="12.7604496"><ele>354.0</ele><time>2026-05-01T10:42:28.73Z</time></trkpt><trkpt lat="42.5682773" lon="12.7604561"><ele>352.0</ele><time>2026-05-01T10:42:29.726Z</time></trkpt><trkpt lat="42.5682073" lon="12.7604702"><ele>350.0</ele><time>2026-05-01T10:42:30.727Z</time></trkpt><trkpt lat="42.5681078" lon="12.7605118"><ele>348.0</ele><time>2026-05-01T10:42:32.73Z</time></trkpt><trkpt lat="42.5680188" lon="12.7607181"><ele>348.0</ele><time>2026-05-01T10:42:36.72Z</time></trkpt><trkpt lat="42.5680087" lon="12.7608063"><ele>348.0</ele><time>2026-05-01T10:42:37.728Z</time></trkpt><trkpt lat="42.5679963" lon="12.7609109"><ele>348.0</ele><time>2026-05-01T10:42:38.725Z</time></trkpt><trkpt lat="42.5679797" lon="12.7610198"><ele>348.0</ele><time>2026-05-01T10:42:39.723Z</time></trkpt><trkpt lat="42.5679541" lon="12.7611331"><ele>348.0</ele><time>2026-05-01T10:42:40.728Z</time></trkpt><trkpt lat="42.5679243" lon="12.7612501"><ele>348.0</ele><time>2026-05-01T10:42:41.725Z</time></trkpt><trkpt lat="42.5678933" lon="12.761371"><ele>347.8333333333333</ele><time>2026-05-01T10:42:42.724Z</time></trkpt><trkpt lat="42.5678658" lon="12.7614903"><ele>347.6666666666667</ele><time>2026-05-01T10:42:43.73Z</time></trkpt><trkpt lat="42.567834" lon="12.7615987"><ele>347.5</ele><time>2026-05-01T10:42:44.73Z</time></trkpt><trkpt lat="42.5677917" lon="12.7616998"><ele>347.33333333333337</ele><time>2026-05-01T10:42:45.734Z</time></trkpt><trkpt lat="42.5677364" lon="12.7617923"><ele>347.1666666666667</ele><time>2026-05-01T10:42:46.727Z</time></trkpt><trkpt lat="42.5676771" lon="12.7618838"><ele>347.0</ele><time>2026-05-01T10:42:47.728Z</time></trkpt><trkpt lat="42.5676191" lon="12.7619677"><ele>349.83333333333337</ele><time>2026-05-01T10:42:48.727Z</time></trkpt><trkpt lat="42.5675643" lon="12.7620374"><ele>352.6666666666667</ele><time>2026-05-01T10:42:49.725Z</time></trkpt><trkpt lat="42.567508" lon="12.7620905"><ele>355.5</ele><time>2026-05-01T10:42:50.727Z</time></trkpt><trkpt lat="42.5674406" lon="12.7621317"><ele>358.3333333333333</ele><time>2026-05-01T10:42:51.721Z</time></trkpt><trkpt lat="42.5673632" lon="12.7621638"><ele>361.16666666666663</ele><time>2026-05-01T10:42:52.726Z</time></trkpt><trkpt lat="42.5672758" lon="12.7621919"><ele>364.0</ele><time>2026-05-01T10:42:53.737Z</time></trkpt><trkpt lat="42.5670759" lon="12.7622659"><ele>363.5</ele><time>2026-05-01T10:42:55.731Z</time></trkpt><trkpt lat="42.5669883" lon="12.7623053"><ele>363.0</ele><time>2026-05-01T10:42:56.73Z</time></trkpt><trkpt lat="42.5669034" lon="12.7623443"><ele>362.5</ele><time>2026-05-01T10:42:57.724Z</time></trkpt><trkpt lat="42.5668277" lon="12.7623753"><ele>362.0</ele><time>2026-05-01T10:42:58.735Z</time></trkpt><trkpt lat="42.5667626" lon="12.7624107"><ele>361.5</ele><time>2026-05-01T10:42:59.728Z</time></trkpt><trkpt lat="42.5666745" lon="12.7625022"><ele>361.0</ele><time>2026-05-01T10:43:01.735Z</time></trkpt><trkpt lat="42.5665926" lon="12.7626416"><ele>365.6</ele><time>2026-05-01T10:43:03.735Z</time></trkpt><trkpt lat="42.5665279" lon="12.7627082"><ele>370.20000000000005</ele><time>2026-05-01T10:43:04.734Z</time></trkpt><trkpt lat="42.5664516" lon="12.7627682"><ele>374.79999999999995</ele><time>2026-05-01T10:43:05.725Z</time></trkpt><trkpt lat="42.5663689" lon="12.7628302"><ele>379.4</ele><time>2026-05-01T10:43:06.731Z</time></trkpt><trkpt lat="42.5662871" lon="12.7628927"><ele>384.0</ele><time>2026-05-01T10:43:07.724Z</time></trkpt><trkpt lat="42.5662077" lon="12.7629588"><ele>383.0</ele><time>2026-05-01T10:43:08.726Z</time></trkpt><trkpt lat="42.5661294" lon="12.7630384"><ele>382.0</ele><time>2026-05-01T10:43:09.724Z</time></trkpt><trkpt lat="42.56605" lon="12.7631203"><ele>381.0</ele><time>2026-05-01T10:43:10.724Z</time></trkpt><trkpt lat="42.565971" lon="12.763199"><ele>380.0</ele><time>2026-05-01T10:43:11.736Z</time></trkpt><trkpt lat="42.5659057" lon="12.7632505"><ele>379.0</ele><time>2026-05-01T10:43:12.736Z</time></trkpt><trkpt lat="42.565827" lon="12.763284"><ele>379.0</ele><time>2026-05-01T10:43:14.727Z</time></trkpt><trkpt lat="42.5656699" lon="12.763356"><ele>379.0</ele><time>2026-05-01T10:43:18.733Z</time></trkpt><trkpt lat="42.5656214" lon="12.7634175"><ele>379.0</ele><time>2026-05-01T10:43:19.727Z</time></trkpt><trkpt lat="42.5655739" lon="12.7634971"><ele>379.0</ele><time>2026-05-01T10:43:20.729Z</time></trkpt><trkpt lat="42.5655418" lon="12.7635873"><ele>379.0</ele><time>2026-05-01T10:43:21.727Z</time></trkpt><trkpt lat="42.5654927" lon="12.7636974"><ele>380.0</ele><time>2026-05-01T10:43:23.729Z</time></trkpt><trkpt lat="42.5653814" lon="12.7636061"><ele>381.0</ele><time>2026-05-01T10:43:26.722Z</time></trkpt><trkpt lat="42.5653164" lon="12.7635317"><ele>382.0</ele><time>2026-05-01T10:43:27.726Z</time></trkpt><trkpt lat="42.5652515" lon="12.7634521"><ele>383.0</ele><time>2026-05-01T10:43:28.724Z</time></trkpt><trkpt lat="42.5651763" lon="12.7633775"><ele>384.0</ele><time>2026-05-01T10:43:29.738Z</time></trkpt><trkpt lat="42.5651101" lon="12.7633324"><ele>384.0</ele><time>2026-05-01T10:43:30.73Z</time></trkpt><trkpt lat="42.5649994" lon="12.7633002"><ele>384.0</ele><time>2026-05-01T10:43:32.73Z</time></trkpt><trkpt lat="42.5648927" lon="12.7633164"><ele>384.0</ele><time>2026-05-01T10:43:34.725Z</time></trkpt><trkpt lat="42.564831" lon="12.7633452"><ele>384.0</ele><time>2026-05-01T10:43:35.731Z</time></trkpt><trkpt lat="42.5646977" lon="12.7634236"><ele>384.0</ele><time>2026-05-01T10:43:37.725Z</time></trkpt><trkpt lat="42.564632" lon="12.7634723"><ele>384.0</ele><time>2026-05-01T10:43:38.723Z</time></trkpt><trkpt lat="42.5645583" lon="12.7635295"><ele>384.0</ele><time>2026-05-01T10:43:39.737Z</time></trkpt><trkpt lat="42.5644878" lon="12.7635937"><ele>384.0</ele><time>2026-05-01T10:43:40.725Z</time></trkpt><trkpt lat="42.5644226" lon="12.7636693"><ele>384.0</ele><time>2026-05-01T10:43:41.727Z</time></trkpt><trkpt lat="42.5643651" lon="12.7637526"><ele>384.0</ele><time>2026-05-01T10:43:42.722Z</time></trkpt><trkpt lat="42.5643186" lon="12.7638408"><ele>384.0</ele><time>2026-05-01T10:43:43.737Z</time></trkpt><trkpt lat="42.5642856" lon="12.7639304"><ele>386.0</ele><time>2026-05-01T10:43:44.729Z</time></trkpt><trkpt lat="42.5642548" lon="12.7640262"><ele>388.0</ele><time>2026-05-01T10:43:45.73Z</time></trkpt><trkpt lat="42.5642229" lon="12.7641421"><ele>390.0</ele><time>2026-05-01T10:43:46.733Z</time></trkpt><trkpt lat="42.5641918" lon="12.7642695"><ele>392.0</ele><time>2026-05-01T10:43:47.73Z</time></trkpt><trkpt lat="42.5641607" lon="12.7643938"><ele>394.0</ele><time>2026-05-01T10:43:48.728Z</time></trkpt><trkpt lat="42.5641339" lon="12.7645085"><ele>399.79999999999995</ele><time>2026-05-01T10:43:49.734Z</time></trkpt><trkpt lat="42.5640994" lon="12.7646154"><ele>405.59999999999997</ele><time>2026-05-01T10:43:50.73Z</time></trkpt><trkpt lat="42.5640504" lon="12.7647225"><ele>411.4</ele><time>2026-05-01T10:43:51.729Z</time></trkpt><trkpt lat="42.5639964" lon="12.764826"><ele>417.2</ele><time>2026-05-01T10:43:52.727Z</time></trkpt><trkpt lat="42.5639295" lon="12.7649285"><ele>423.0</ele><time>2026-05-01T10:43:53.729Z</time></trkpt><trkpt lat="42.5638586" lon="12.7650205"><ele>423.0</ele><time>2026-05-01T10:43:54.726Z</time></trkpt><trkpt lat="42.5637886" lon="12.7651098"><ele>423.0</ele><time>2026-05-01T10:43:55.726Z</time></trkpt><trkpt lat="42.5637228" lon="12.7652074"><ele>423.0</ele><time>2026-05-01T10:43:56.737Z</time></trkpt><trkpt lat="42.5636029" lon="12.7653916"><ele>423.0</ele><time>2026-05-01T10:43:58.729Z</time></trkpt><trkpt lat="42.5635368" lon="12.7654666"><ele>423.4285714285714</ele><time>2026-05-01T10:43:59.73Z</time></trkpt><trkpt lat="42.5634794" lon="12.7655361"><ele>423.8571428571429</ele><time>2026-05-01T10:44:00.729Z</time></trkpt><trkpt lat="42.563437" lon="12.7656055"><ele>424.2857142857143</ele><time>2026-05-01T10:44:01.738Z</time></trkpt><trkpt lat="42.5633983" lon="12.7656833"><ele>424.71428571428567</ele><time>2026-05-01T10:44:02.726Z</time></trkpt><trkpt lat="42.5633537" lon="12.7657696"><ele>425.1428571428571</ele><time>2026-05-01T10:44:03.731Z</time></trkpt><trkpt lat="42.5633036" lon="12.7658601"><ele>425.57142857142856</ele><time>2026-05-01T10:44:04.729Z</time></trkpt><trkpt lat="42.5632594" lon="12.765936"><ele>426.0</ele><time>2026-05-01T10:44:05.72Z</time></trkpt><trkpt lat="42.5631909" lon="12.7660292"><ele>426.0</ele><time>2026-05-01T10:44:07.725Z</time></trkpt><trkpt lat="42.5631195" lon="12.7660023"><ele>426.0</ele><time>2026-05-01T10:44:09.726Z</time></trkpt><trkpt lat="42.5630789" lon="12.7659309"><ele>426.0</ele><time>2026-05-01T10:44:10.726Z</time></trkpt><trkpt lat="42.563032" lon="12.7658103"><ele>426.0</ele><time>2026-05-01T10:44:11.724Z</time></trkpt><trkpt lat="42.5629908" lon="12.7656826"><ele>426.0</ele><time>2026-05-01T10:44:12.725Z</time></trkpt><trkpt lat="42.5629551" lon="12.7655635"><ele>426.0</ele><time>2026-05-01T10:44:13.727Z</time></trkpt><trkpt lat="42.5629402" lon="12.7654517"><ele>426.0</ele><time>2026-05-01T10:44:14.727Z</time></trkpt><trkpt lat="42.5629339" lon="12.7653547"><ele>426.0</ele><time>2026-05-01T10:44:15.728Z</time></trkpt><trkpt lat="42.5629044" lon="12.7652265"><ele>426.0</ele><time>2026-05-01T10:44:17.739Z</time></trkpt><trkpt lat="42.5627092" lon="12.7651925"><ele>426.0</ele><time>2026-05-01T10:44:20.729Z</time></trkpt><trkpt lat="42.562628" lon="12.7652056"><ele>426.0</ele><time>2026-05-01T10:44:21.727Z</time></trkpt><trkpt lat="42.562548" lon="12.7652084"><ele>430.4</ele><time>2026-05-01T10:44:22.73Z</time></trkpt><trkpt lat="42.5624701" lon="12.765202"><ele>434.8</ele><time>2026-05-01T10:44:23.728Z</time></trkpt><trkpt lat="42.5623882" lon="12.7651999"><ele>439.19999999999993</ele><time>2026-05-01T10:44:24.726Z</time></trkpt><trkpt lat="42.5622993" lon="12.7652048"><ele>443.59999999999997</ele><time>2026-05-01T10:44:25.734Z</time></trkpt><trkpt lat="42.5622016" lon="12.7652233"><ele>448.0</ele><time>2026-05-01T10:44:26.73Z</time></trkpt><trkpt lat="42.5621005" lon="12.765256"><ele>449.0</ele><time>2026-05-01T10:44:27.727Z</time></trkpt><trkpt lat="42.5620084" lon="12.7653008"><ele>449.99999999999994</ele><time>2026-05-01T10:44:28.721Z</time></trkpt><trkpt lat="42.5619266" lon="12.7653512"><ele>450.99999999999994</ele><time>2026-05-01T10:44:29.727Z</time></trkpt><trkpt lat="42.5618475" lon="12.7653872"><ele>452.0</ele><time>2026-05-01T10:44:30.726Z</time></trkpt><trkpt lat="42.5617721" lon="12.7654042"><ele>453.0</ele><time>2026-05-01T10:44:31.732Z</time></trkpt><trkpt lat="42.5616622" lon="12.7654118"><ele>453.0</ele><time>2026-05-01T10:44:33.723Z</time></trkpt><trkpt lat="42.5615849" lon="12.7653912"><ele>452.99999999999994</ele><time>2026-05-01T10:44:35.727Z</time></trkpt><trkpt lat="42.5616568" lon="12.765467"><ele>452.99999999999994</ele><time>2026-05-01T10:44:40.732Z</time></trkpt><trkpt lat="42.5618326" lon="12.7655813"><ele>453.0</ele><time>2026-05-01T10:44:43.724Z</time></trkpt><trkpt lat="42.561893" lon="12.7656213"><ele>453.0</ele><time>2026-05-01T10:44:44.732Z</time></trkpt><trkpt lat="42.5620245" lon="12.7656426"><ele>452.1666666666667</ele><time>2026-05-01T10:44:46.723Z</time></trkpt><trkpt lat="42.5621083" lon="12.765641"><ele>451.33333333333337</ele><time>2026-05-01T10:44:47.739Z</time></trkpt><trkpt lat="42.5621984" lon="12.765645"><ele>450.5</ele><time>2026-05-01T10:44:48.729Z</time></trkpt><trkpt lat="42.562292" lon="12.7656469"><ele>449.6666666666667</ele><time>2026-05-01T10:44:49.734Z</time></trkpt><trkpt lat="42.5623776" lon="12.7656377"><ele>448.83333333333337</ele><time>2026-05-01T10:44:50.724Z</time></trkpt><trkpt lat="42.5624516" lon="12.7656299"><ele>448.0</ele><time>2026-05-01T10:44:51.724Z</time></trkpt><trkpt lat="42.5625566" lon="12.7656282"><ele>448.00000000000006</ele><time>2026-05-01T10:44:53.73Z</time></trkpt><trkpt lat="42.5626265" lon="12.765671"><ele>448.0</ele><time>2026-05-01T10:44:55.726Z</time></trkpt><trkpt lat="42.5626938" lon="12.7657388"><ele>448.0</ele><time>2026-05-01T10:44:57.736Z</time></trkpt><trkpt lat="42.5627415" lon="12.7658535"><ele>448.0</ele><time>2026-05-01T10:44:59.729Z</time></trkpt><trkpt lat="42.5627704" lon="12.7659495"><ele>448.00000000000006</ele><time>2026-05-01T10:45:00.723Z</time></trkpt><trkpt lat="42.5628027" lon="12.7660585"><ele>448.0</ele><time>2026-05-01T10:45:01.722Z</time></trkpt><trkpt lat="42.5628835" lon="12.7663113"><ele>449.1666666666667</ele><time>2026-05-01T10:45:03.722Z</time></trkpt><trkpt lat="42.5629219" lon="12.7664313"><ele>450.33333333333337</ele><time>2026-05-01T10:45:04.73Z</time></trkpt><trkpt lat="42.5629491" lon="12.7665366"><ele>451.5</ele><time>2026-05-01T10:45:05.736Z</time></trkpt><trkpt lat="42.5629596" lon="12.7666343"><ele>452.66666666666663</ele><time>2026-05-01T10:45:06.738Z</time></trkpt><trkpt lat="42.5629538" lon="12.7667331"><ele>453.8333333333333</ele><time>2026-05-01T10:45:07.724Z</time></trkpt><trkpt lat="42.5629364" lon="12.7668334"><ele>455.0</ele><time>2026-05-01T10:45:08.733Z</time></trkpt><trkpt lat="42.5629127" lon="12.7669273"><ele>461.2</ele><time>2026-05-01T10:45:09.729Z</time></trkpt><trkpt lat="42.5628861" lon="12.767018"><ele>467.4</ele><time>2026-05-01T10:45:10.723Z</time></trkpt><trkpt lat="42.5628592" lon="12.7671562"><ele>473.6</ele><time>2026-05-01T10:45:12.728Z</time></trkpt><trkpt lat="42.5628659" lon="12.767267"><ele>479.8</ele><time>2026-05-01T10:45:24.722Z</time></trkpt><trkpt lat="42.5629957" lon="12.7673417"><ele>486.0</ele><time>2026-05-01T10:45:28.728Z</time></trkpt><trkpt lat="42.5630549" lon="12.7672792"><ele>486.0</ele><time>2026-05-01T10:45:29.729Z</time></trkpt><trkpt lat="42.5631347" lon="12.7672099"><ele>486.0</ele><time>2026-05-01T10:45:30.732Z</time></trkpt><trkpt lat="42.5632187" lon="12.7671378"><ele>486.0</ele><time>2026-05-01T10:45:31.738Z</time></trkpt><trkpt lat="42.5633005" lon="12.76706"><ele>486.0</ele><time>2026-05-01T10:45:32.734Z</time></trkpt><trkpt lat="42.5633813" lon="12.7669813"><ele>486.0</ele><time>2026-05-01T10:45:33.725Z</time></trkpt><trkpt lat="42.5634607" lon="12.7668942"><ele>484.8333333333333</ele><time>2026-05-01T10:45:34.722Z</time></trkpt><trkpt lat="42.5635272" lon="12.7668171"><ele>483.66666666666663</ele><time>2026-05-01T10:45:35.734Z</time></trkpt><trkpt lat="42.5635824" lon="12.7667538"><ele>482.5</ele><time>2026-05-01T10:45:36.732Z</time></trkpt><trkpt lat="42.5636402" lon="12.7666944"><ele>481.3333333333333</ele><time>2026-05-01T10:45:37.725Z</time></trkpt><trkpt lat="42.5636939" lon="12.7666353"><ele>480.16666666666663</ele><time>2026-05-01T10:45:38.737Z</time></trkpt><trkpt lat="42.5637467" lon="12.7665887"><ele>479.0</ele><time>2026-05-01T10:45:39.733Z</time></trkpt><trkpt lat="42.5638452" lon="12.7665265"><ele>479.0</ele><time>2026-05-01T10:45:41.727Z</time></trkpt><trkpt lat="42.5639486" lon="12.7664842"><ele>479.0</ele><time>2026-05-01T10:45:43.733Z</time></trkpt><trkpt lat="42.5640225" lon="12.766463"><ele>479.0</ele><time>2026-05-01T10:45:44.734Z</time></trkpt><trkpt lat="42.5641124" lon="12.7664204"><ele>479.0</ele><time>2026-05-01T10:45:45.731Z</time></trkpt><trkpt lat="42.5643127" lon="12.7663147"><ele>479.0</ele><time>2026-05-01T10:45:47.733Z</time></trkpt><trkpt lat="42.5644085" lon="12.7662497"><ele>479.0</ele><time>2026-05-01T10:45:48.72Z</time></trkpt><trkpt lat="42.5644987" lon="12.7661751"><ele>479.0</ele><time>2026-05-01T10:45:49.723Z</time></trkpt><trkpt lat="42.5645678" lon="12.7660987"><ele>479.0</ele><time>2026-05-01T10:45:50.723Z</time></trkpt><trkpt lat="42.5646195" lon="12.7660342"><ele>479.0</ele><time>2026-05-01T10:45:51.729Z</time></trkpt><trkpt lat="42.5646745" lon="12.7659144"><ele>477.99999999999994</ele><time>2026-05-01T10:45:53.731Z</time></trkpt><trkpt lat="42.5647376" lon="12.7657834"><ele>477.0</ele><time>2026-05-01T10:45:55.73Z</time></trkpt><trkpt lat="42.5647853" lon="12.7657101"><ele>476.0</ele><time>2026-05-01T10:45:56.727Z</time></trkpt><trkpt lat="42.5648417" lon="12.7656421"><ele>475.0</ele><time>2026-05-01T10:45:57.733Z</time></trkpt><trkpt lat="42.5648968" lon="12.765587"><ele>473.99999999999994</ele><time>2026-05-01T10:45:58.731Z</time></trkpt><trkpt lat="42.5649598" lon="12.7655422"><ele>473.0</ele><time>2026-05-01T10:45:59.726Z</time></trkpt><trkpt lat="42.5650228" lon="12.7655059"><ele>473.0</ele><time>2026-05-01T10:46:00.728Z</time></trkpt><trkpt lat="42.5651353" lon="12.7654782"><ele>472.99999999999994</ele><time>2026-05-01T10:46:02.734Z</time></trkpt><trkpt lat="42.5652356" lon="12.7655035"><ele>472.99999999999994</ele><time>2026-05-01T10:46:04.726Z</time></trkpt><trkpt lat="42.5652947" lon="12.7655371"><ele>473.0</ele><time>2026-05-01T10:46:05.73Z</time></trkpt><trkpt lat="42.5653591" lon="12.7655773"><ele>473.0</ele><time>2026-05-01T10:46:06.73Z</time></trkpt><trkpt lat="42.5654867" lon="12.765664"><ele>472.57142857142856</ele><time>2026-05-01T10:46:08.731Z</time></trkpt><trkpt lat="42.565552" lon="12.7657082"><ele>472.1428571428571</ele><time>2026-05-01T10:46:09.731Z</time></trkpt><trkpt lat="42.5656133" lon="12.7657491"><ele>471.71428571428567</ele><time>2026-05-01T10:46:10.724Z</time></trkpt><trkpt lat="42.5656793" lon="12.7657825"><ele>471.2857142857143</ele><time>2026-05-01T10:46:11.727Z</time></trkpt><trkpt lat="42.5657512" lon="12.765819"><ele>470.8571428571428</ele><time>2026-05-01T10:46:12.73Z</time></trkpt><trkpt lat="42.5658232" lon="12.7658562"><ele>470.4285714285714</ele><time>2026-05-01T10:46:13.735Z</time></trkpt><trkpt lat="42.5658923" lon="12.7658936"><ele>470.0</ele><time>2026-05-01T10:46:14.73Z</time></trkpt><trkpt lat="42.5659591" lon="12.765929"><ele>469.99999999999994</ele><time>2026-05-01T10:46:15.726Z</time></trkpt><trkpt lat="42.5660247" lon="12.7659501"><ele>470.0</ele><time>2026-05-01T10:46:16.73Z</time></trkpt><trkpt lat="42.5661448" lon="12.7659209"><ele>470.0</ele><time>2026-05-01T10:46:18.724Z</time></trkpt><trkpt lat="42.5662033" lon="12.765879"><ele>470.0</ele><time>2026-05-01T10:46:19.737Z</time></trkpt><trkpt lat="42.5662542" lon="12.7658163"><ele>469.99999999999994</ele><time>2026-05-01T10:46:20.732Z</time></trkpt><trkpt lat="42.5663032" lon="12.7657394"><ele>470.0</ele><time>2026-05-01T10:46:21.732Z</time></trkpt><trkpt lat="42.5663505" lon="12.7656443"><ele>467.99999999999994</ele><time>2026-05-01T10:46:22.718Z</time></trkpt><trkpt lat="42.5663818" lon="12.7655375"><ele>466.0</ele><time>2026-05-01T10:46:23.729Z</time></trkpt><trkpt lat="42.5664112" lon="12.7654343"><ele>464.0</ele><time>2026-05-01T10:46:24.733Z</time></trkpt><trkpt lat="42.5664449" lon="12.7653395"><ele>462.0</ele><time>2026-05-01T10:46:25.725Z</time></trkpt><trkpt lat="42.5664883" lon="12.7652607"><ele>459.99999999999994</ele><time>2026-05-01T10:46:26.725Z</time></trkpt><trkpt lat="42.56657" lon="12.7651574"><ele>458.0</ele><time>2026-05-01T10:46:28.721Z</time></trkpt><trkpt lat="42.566612" lon="12.7652728"><ele>463.2</ele><time>2026-05-01T10:46:33.735Z</time></trkpt><trkpt lat="42.5665481" lon="12.7654094"><ele>468.4</ele><time>2026-05-01T10:46:35.732Z</time></trkpt><trkpt lat="42.5665214" lon="12.7655104"><ele>473.59999999999997</ele><time>2026-05-01T10:46:36.725Z</time></trkpt><trkpt lat="42.5665028" lon="12.7656024"><ele>478.79999999999995</ele><time>2026-05-01T10:46:37.737Z</time></trkpt><trkpt lat="42.5664855" lon="12.7657443"><ele>484.0</ele><time>2026-05-01T10:46:39.73Z</time></trkpt><trkpt lat="42.5664387" lon="12.7659168"><ele>484.00000000000006</ele><time>2026-05-01T10:46:41.732Z</time></trkpt><trkpt lat="42.5664059" lon="12.76601"><ele>484.0</ele><time>2026-05-01T10:46:42.732Z</time></trkpt><trkpt lat="42.5663678" lon="12.7660978"><ele>484.0</ele><time>2026-05-01T10:46:43.734Z</time></trkpt><trkpt lat="42.566328" lon="12.7661804"><ele>484.0</ele><time>2026-05-01T10:46:44.727Z</time></trkpt><trkpt lat="42.5662616" lon="12.7662943"><ele>484.00000000000006</ele><time>2026-05-01T10:46:46.722Z</time></trkpt><trkpt lat="42.5662139" lon="12.7663637"><ele>484.0</ele><time>2026-05-01T10:46:48.723Z</time></trkpt><trkpt lat="42.5662735" lon="12.7664022"><ele>484.0</ele><time>2026-05-01T10:46:53.735Z</time></trkpt><trkpt lat="42.566429" lon="12.7661887"><ele>484.0</ele><time>2026-05-01T10:46:57.726Z</time></trkpt><trkpt lat="42.5665006" lon="12.7660716"><ele>484.0</ele><time>2026-05-01T10:46:59.732Z</time></trkpt><trkpt lat="42.5665526" lon="12.7659791"><ele>484.0</ele><time>2026-05-01T10:47:01.734Z</time></trkpt><trkpt lat="42.5666104" lon="12.76593"><ele>484.00000000000006</ele><time>2026-05-01T10:47:03.722Z</time></trkpt><trkpt lat="42.5666721" lon="12.7658862"><ele>484.0</ele><time>2026-05-01T10:47:05.744Z</time></trkpt><trkpt lat="42.5667585" lon="12.765828"><ele>484.0</ele><time>2026-05-01T10:47:07.729Z</time></trkpt><trkpt lat="42.5668386" lon="12.7657677"><ele>484.0</ele><time>2026-05-01T10:47:09.726Z</time></trkpt><trkpt lat="42.5669246" lon="12.7657033"><ele>484.00000000000006</ele><time>2026-05-01T10:47:11.733Z</time></trkpt><trkpt lat="42.5669932" lon="12.7656547"><ele>484.0</ele><time>2026-05-01T10:47:13.728Z</time></trkpt><trkpt lat="42.5670108" lon="12.7657399"><ele>484.0</ele><time>2026-05-01T10:47:18.733Z</time></trkpt><trkpt lat="42.5668611" lon="12.7659059"><ele>484.0</ele><time>2026-05-01T10:47:22.733Z</time></trkpt><trkpt lat="42.566805" lon="12.7660405"><ele>484.0</ele><time>2026-05-01T10:47:24.723Z</time></trkpt><trkpt lat="42.5667791" lon="12.7661249"><ele>484.0</ele><time>2026-05-01T10:47:25.729Z</time></trkpt><trkpt lat="42.5667463" lon="12.7662148"><ele>484.0</ele><time>2026-05-01T10:47:26.735Z</time></trkpt><trkpt lat="42.5667034" lon="12.7662964"><ele>488.00000000000006</ele><time>2026-05-01T10:47:27.724Z</time></trkpt><trkpt lat="42.5666603" lon="12.7663673"><ele>492.0</ele><time>2026-05-01T10:47:28.723Z</time></trkpt><trkpt lat="42.5666206" lon="12.7664386"><ele>496.0</ele><time>2026-05-01T10:47:29.727Z</time></trkpt><trkpt lat="42.5665847" lon="12.7665097"><ele>500.0</ele><time>2026-05-01T10:47:30.742Z</time></trkpt><trkpt lat="42.5665124" lon="12.7666504"><ele>504.00000000000006</ele><time>2026-05-01T10:47:32.731Z</time></trkpt><trkpt lat="42.5664682" lon="12.7667269"><ele>508.0</ele><time>2026-05-01T10:47:33.724Z</time></trkpt><trkpt lat="42.5664161" lon="12.7668085"><ele>511.50000000000006</ele><time>2026-05-01T10:47:34.725Z</time></trkpt><trkpt lat="42.5663583" lon="12.7668924"><ele>515.0</ele><time>2026-05-01T10:47:35.725Z</time></trkpt><trkpt lat="42.566299" lon="12.7669694"><ele>518.5</ele><time>2026-05-01T10:47:36.723Z</time></trkpt><trkpt lat="42.5662333" lon="12.767031"><ele>522.0</ele><time>2026-05-01T10:47:37.73Z</time></trkpt><trkpt lat="42.5661622" lon="12.7670814"><ele>525.5</ele><time>2026-05-01T10:47:38.724Z</time></trkpt><trkpt lat="42.5660954" lon="12.7671255"><ele>529.0</ele><time>2026-05-01T10:47:39.732Z</time></trkpt><trkpt lat="42.5659635" lon="12.7671821"><ele>529.0</ele><time>2026-05-01T10:47:41.725Z</time></trkpt><trkpt lat="42.5658885" lon="12.7671886"><ele>529.0</ele><time>2026-05-01T10:47:42.723Z</time></trkpt><trkpt lat="42.5658081" lon="12.7671826"><ele>529.0</ele><time>2026-05-01T10:47:43.74Z</time></trkpt><trkpt lat="42.5657344" lon="12.767165"><ele>529.0</ele><time>2026-05-01T10:47:44.724Z</time></trkpt><trkpt lat="42.5656675" lon="12.7671225"><ele>529.0</ele><time>2026-05-01T10:47:45.724Z</time></trkpt><trkpt lat="42.5656046" lon="12.7670609"><ele>529.0</ele><time>2026-05-01T10:47:46.721Z</time></trkpt><trkpt lat="42.5655434" lon="12.766988"><ele>529.0</ele><time>2026-05-01T10:47:47.725Z</time></trkpt><trkpt lat="42.5654873" lon="12.7669259"><ele>529.0</ele><time>2026-05-01T10:47:48.731Z</time></trkpt><trkpt lat="42.5653812" lon="12.7668485"><ele>529.0</ele><time>2026-05-01T10:47:50.726Z</time></trkpt><trkpt lat="42.5653121" lon="12.7668357"><ele>529.0</ele><time>2026-05-01T10:47:51.723Z</time></trkpt><trkpt lat="42.5652387" lon="12.7668428"><ele>529.0</ele><time>2026-05-01T10:47:52.722Z</time></trkpt><trkpt lat="42.5651612" lon="12.7668701"><ele>529.0</ele><time>2026-05-01T10:47:53.733Z</time></trkpt><trkpt lat="42.5650935" lon="12.7669038"><ele>528.6666666666667</ele><time>2026-05-01T10:47:54.728Z</time></trkpt><trkpt lat="42.5650313" lon="12.7669518"><ele>528.3333333333334</ele><time>2026-05-01T10:47:55.731Z</time></trkpt><trkpt lat="42.5649709" lon="12.7670145"><ele>528.0</ele><time>2026-05-01T10:47:56.719Z</time></trkpt><trkpt lat="42.5649136" lon="12.7670917"><ele>527.6666666666666</ele><time>2026-05-01T10:47:57.741Z</time></trkpt><trkpt lat="42.5648539" lon="12.7671742"><ele>527.3333333333333</ele><time>2026-05-01T10:47:58.731Z</time></trkpt><trkpt lat="42.564792" lon="12.767265"><ele>527.0</ele><time>2026-05-01T10:47:59.719Z</time></trkpt><trkpt lat="42.5647338" lon="12.7673648"><ele>527.0</ele><time>2026-05-01T10:48:00.726Z</time></trkpt><trkpt lat="42.564587" lon="12.7674934"><ele>527.0</ele><time>2026-05-01T10:48:02.73Z</time></trkpt><trkpt lat="42.5645109" lon="12.7675098"><ele>527.0</ele><time>2026-05-01T10:48:03.719Z</time></trkpt><trkpt lat="42.5644247" lon="12.7675215"><ele>527.0</ele><time>2026-05-01T10:48:04.726Z</time></trkpt><trkpt lat="42.5643363" lon="12.7675376"><ele>527.0</ele><time>2026-05-01T10:48:05.728Z</time></trkpt><trkpt lat="42.5642536" lon="12.7675594"><ele>525.0000000000001</ele><time>2026-05-01T10:48:06.726Z</time></trkpt><trkpt lat="42.5641764" lon="12.7675921"><ele>523.0</ele><time>2026-05-01T10:48:07.737Z</time></trkpt><trkpt lat="42.56411" lon="12.7676375"><ele>521.0</ele><time>2026-05-01T10:48:08.721Z</time></trkpt><trkpt lat="42.5640458" lon="12.7676855"><ele>519.0</ele><time>2026-05-01T10:48:09.726Z</time></trkpt><trkpt lat="42.5639886" lon="12.7677527"><ele>517.0</ele><time>2026-05-01T10:48:10.726Z</time></trkpt><trkpt lat="42.5639412" lon="12.7678284"><ele>515.0000000000001</ele><time>2026-05-01T10:48:11.737Z</time></trkpt><trkpt lat="42.5639014" lon="12.7679101"><ele>513.0</ele><time>2026-05-01T10:48:12.727Z</time></trkpt><trkpt lat="42.5638681" lon="12.7679889"><ele>512.8333333333334</ele><time>2026-05-01T10:48:13.723Z</time></trkpt><trkpt lat="42.5638409" lon="12.7680797"><ele>512.6666666666666</ele><time>2026-05-01T10:48:14.726Z</time></trkpt><trkpt lat="42.5638141" lon="12.7681685"><ele>512.5</ele><time>2026-05-01T10:48:15.734Z</time></trkpt><trkpt lat="42.5637795" lon="12.7682533"><ele>512.3333333333333</ele><time>2026-05-01T10:48:16.734Z</time></trkpt><trkpt lat="42.56373" lon="12.7683393"><ele>512.1666666666666</ele><time>2026-05-01T10:48:17.733Z</time></trkpt><trkpt lat="42.5636727" lon="12.7684208"><ele>512.0</ele><time>2026-05-01T10:48:18.726Z</time></trkpt><trkpt lat="42.5636037" lon="12.7684948"><ele>519.4</ele><time>2026-05-01T10:48:19.74Z</time></trkpt><trkpt lat="42.5635257" lon="12.7685627"><ele>526.8000000000001</ele><time>2026-05-01T10:48:20.727Z</time></trkpt><trkpt lat="42.563441" lon="12.7686229"><ele>534.2</ele><time>2026-05-01T10:48:21.722Z</time></trkpt><trkpt lat="42.5632825" lon="12.7687302"><ele>541.6</ele><time>2026-05-01T10:48:23.723Z</time></trkpt><trkpt lat="42.5632046" lon="12.7687729"><ele>549.0</ele><time>2026-05-01T10:48:24.728Z</time></trkpt><trkpt lat="42.5631194" lon="12.7688136"><ele>549.0</ele><time>2026-05-01T10:48:25.728Z</time></trkpt><trkpt lat="42.5630306" lon="12.7688512"><ele>549.0</ele><time>2026-05-01T10:48:26.723Z</time></trkpt><trkpt lat="42.562938" lon="12.7688876"><ele>549.0</ele><time>2026-05-01T10:48:27.724Z</time></trkpt><trkpt lat="42.5628457" lon="12.768917"><ele>549.0</ele><time>2026-05-01T10:48:28.733Z</time></trkpt><trkpt lat="42.5627588" lon="12.7689426"><ele>549.0</ele><time>2026-05-01T10:48:29.731Z</time></trkpt><trkpt lat="42.5626742" lon="12.7689672"><ele>546.8</ele><time>2026-05-01T10:48:30.731Z</time></trkpt><trkpt lat="42.5625807" lon="12.7689863"><ele>544.5999999999999</ele><time>2026-05-01T10:48:31.735Z</time></trkpt><trkpt lat="42.5624806" lon="12.7690026"><ele>542.4</ele><time>2026-05-01T10:48:32.716Z</time></trkpt><trkpt lat="42.5623797" lon="12.7690173"><ele>540.1999999999999</ele><time>2026-05-01T10:48:33.72Z</time></trkpt><trkpt lat="42.5622767" lon="12.7690288"><ele>538.0</ele><time>2026-05-01T10:48:34.725Z</time></trkpt><trkpt lat="42.5621786" lon="12.769036"><ele>538.0</ele><time>2026-05-01T10:48:35.724Z</time></trkpt><trkpt lat="42.5620922" lon="12.7690381"><ele>538.0</ele><time>2026-05-01T10:48:36.733Z</time></trkpt><trkpt lat="42.5620247" lon="12.7690441"><ele>538.0</ele><time>2026-05-01T10:48:37.733Z</time></trkpt><trkpt lat="42.5619612" lon="12.7690085"><ele>538.0</ele><time>2026-05-01T10:48:39.726Z</time></trkpt><trkpt lat="42.5619637" lon="12.7688696"><ele>538.0</ele><time>2026-05-01T10:48:41.723Z</time></trkpt><trkpt lat="42.5619831" lon="12.7687727"><ele>538.0</ele><time>2026-05-01T10:48:42.725Z</time></trkpt><trkpt lat="42.5620251" lon="12.768536"><ele>541.0</ele><time>2026-05-01T10:48:44.732Z</time></trkpt><trkpt lat="42.5620325" lon="12.7683999"><ele>544.0</ele><time>2026-05-01T10:48:45.727Z</time></trkpt><trkpt lat="42.5620361" lon="12.7682613"><ele>547.0</ele><time>2026-05-01T10:48:46.724Z</time></trkpt><trkpt lat="42.5620379" lon="12.7681213"><ele>550.0</ele><time>2026-05-01T10:48:47.727Z</time></trkpt><trkpt lat="42.5620327" lon="12.7679908"><ele>553.0</ele><time>2026-05-01T10:48:48.726Z</time></trkpt><trkpt lat="42.5620138" lon="12.7678717"><ele>553.0</ele><time>2026-05-01T10:48:49.737Z</time></trkpt><trkpt lat="42.5619872" lon="12.7677682"><ele>553.0</ele><time>2026-05-01T10:48:50.73Z</time></trkpt><trkpt lat="42.5619601" lon="12.7676769"><ele>553.0</ele><time>2026-05-01T10:48:51.731Z</time></trkpt><trkpt lat="42.5618976" lon="12.7675623"><ele>553.0</ele><time>2026-05-01T10:48:53.725Z</time></trkpt><trkpt lat="42.5618093" lon="12.7675086"><ele>553.0</ele><time>2026-05-01T10:48:55.728Z</time></trkpt><trkpt lat="42.5617435" lon="12.767493"><ele>553.0</ele><time>2026-05-01T10:48:56.721Z</time></trkpt><trkpt lat="42.5616654" lon="12.7674739"><ele>548.0</ele><time>2026-05-01T10:48:57.726Z</time></trkpt><trkpt lat="42.5615777" lon="12.7674513"><ele>543.0</ele><time>2026-05-01T10:48:58.725Z</time></trkpt><trkpt lat="42.5614937" lon="12.7674292"><ele>538.0</ele><time>2026-05-01T10:48:59.737Z</time></trkpt><trkpt lat="42.5614072" lon="12.767408"><ele>533.0</ele><time>2026-05-01T10:49:00.732Z</time></trkpt><trkpt lat="42.5613151" lon="12.7673912"><ele>528.0</ele><time>2026-05-01T10:49:01.724Z</time></trkpt><trkpt lat="42.5612148" lon="12.7673829"><ele>531.0</ele><time>2026-05-01T10:49:02.721Z</time></trkpt><trkpt lat="42.5611094" lon="12.7673848"><ele>534.0</ele><time>2026-05-01T10:49:03.722Z</time></trkpt><trkpt lat="42.5609029" lon="12.767406"><ele>537.0</ele><time>2026-05-01T10:49:05.724Z</time></trkpt><trkpt lat="42.5607994" lon="12.7674164"><ele>540.0</ele><time>2026-05-01T10:49:06.723Z</time></trkpt><trkpt lat="42.560705" lon="12.7674245"><ele>540.0</ele><time>2026-05-01T10:49:07.726Z</time></trkpt><trkpt lat="42.5606229" lon="12.7674323"><ele>540.0</ele><time>2026-05-01T10:49:08.723Z</time></trkpt><trkpt lat="42.5605487" lon="12.7674287"><ele>540.0</ele><time>2026-05-01T10:49:09.731Z</time></trkpt><trkpt lat="42.5604726" lon="12.7674076"><ele>540.0</ele><time>2026-05-01T10:49:10.716Z</time></trkpt><trkpt lat="42.5603922" lon="12.7673681"><ele>540.0</ele><time>2026-05-01T10:49:11.727Z</time></trkpt><trkpt lat="42.5603047" lon="12.7673151"><ele>540.0</ele><time>2026-05-01T10:49:12.722Z</time></trkpt><trkpt lat="42.5602156" lon="12.767251"><ele>539.8</ele><time>2026-05-01T10:49:13.73Z</time></trkpt><trkpt lat="42.5601312" lon="12.7671849"><ele>539.6</ele><time>2026-05-01T10:49:14.727Z</time></trkpt><trkpt lat="42.5600542" lon="12.767109"><ele>539.4</ele><time>2026-05-01T10:49:15.727Z</time></trkpt><trkpt lat="42.559986" lon="12.7670235"><ele>539.2</ele><time>2026-05-01T10:49:16.727Z</time></trkpt><trkpt lat="42.5599306" lon="12.7669172"><ele>539.0</ele><time>2026-05-01T10:49:17.724Z</time></trkpt><trkpt lat="42.5598828" lon="12.7668004"><ele>539.0</ele><time>2026-05-01T10:49:18.726Z</time></trkpt><trkpt lat="42.5598447" lon="12.7666866"><ele>539.0</ele><time>2026-05-01T10:49:19.722Z</time></trkpt><trkpt lat="42.5598096" lon="12.7665794"><ele>539.0</ele><time>2026-05-01T10:49:20.732Z</time></trkpt><trkpt lat="42.5597674" lon="12.7664769"><ele>539.0</ele><time>2026-05-01T10:49:21.724Z</time></trkpt><trkpt lat="42.5597169" lon="12.7663781"><ele>539.0</ele><time>2026-05-01T10:49:22.727Z</time></trkpt><trkpt lat="42.5596545" lon="12.7662794"><ele>539.0</ele><time>2026-05-01T10:49:23.726Z</time></trkpt><trkpt lat="42.5595858" lon="12.7661822"><ele>539.25</ele><time>2026-05-01T10:49:24.725Z</time></trkpt><trkpt lat="42.5594748" lon="12.7660167"><ele>539.5</ele><time>2026-05-01T10:49:26.723Z</time></trkpt><trkpt lat="42.5593765" lon="12.7659349"><ele>539.75</ele><time>2026-05-01T10:49:28.725Z</time></trkpt><trkpt lat="42.5592772" lon="12.765909"><ele>540.0</ele><time>2026-05-01T10:49:30.716Z</time></trkpt><trkpt lat="42.5591435" lon="12.7659189"><ele>540.0</ele><time>2026-05-01T10:49:32.729Z</time></trkpt><trkpt lat="42.5590662" lon="12.7659348"><ele>540.0</ele><time>2026-05-01T10:49:33.738Z</time></trkpt><trkpt lat="42.5589851" lon="12.76595"><ele>540.0</ele><time>2026-05-01T10:49:34.726Z</time></trkpt><trkpt lat="42.5589046" lon="12.7659607"><ele>540.0</ele><time>2026-05-01T10:49:35.717Z</time></trkpt><trkpt lat="42.5588234" lon="12.765968"><ele>540.0</ele><time>2026-05-01T10:49:36.729Z</time></trkpt><trkpt lat="42.5587376" lon="12.7659743"><ele>540.0</ele><time>2026-05-01T10:49:37.724Z</time></trkpt><trkpt lat="42.5586509" lon="12.7659782"><ele>540.2</ele><time>2026-05-01T10:49:38.727Z</time></trkpt><trkpt lat="42.5585609" lon="12.765977"><ele>540.4</ele><time>2026-05-01T10:49:39.729Z</time></trkpt><trkpt lat="42.558466" lon="12.7659641"><ele>540.6</ele><time>2026-05-01T10:49:40.718Z</time></trkpt><trkpt lat="42.5583629" lon="12.765953"><ele>540.8</ele><time>2026-05-01T10:49:41.726Z</time></trkpt><trkpt lat="42.5582631" lon="12.7659397"><ele>541.0</ele><time>2026-05-01T10:49:42.732Z</time></trkpt><trkpt lat="42.558161" lon="12.7659237"><ele>541.0</ele><time>2026-05-01T10:49:43.734Z</time></trkpt><trkpt lat="42.5580675" lon="12.7659023"><ele>541.0</ele><time>2026-05-01T10:49:44.734Z</time></trkpt><trkpt lat="42.5579824" lon="12.7658784"><ele>541.0</ele><time>2026-05-01T10:49:45.724Z</time></trkpt><trkpt lat="42.5578299" lon="12.7658101"><ele>541.0</ele><time>2026-05-01T10:49:47.725Z</time></trkpt><trkpt lat="42.5577557" lon="12.7657718"><ele>541.0</ele><time>2026-05-01T10:49:48.72Z</time></trkpt><trkpt lat="42.557675" lon="12.7657394"><ele>542.1666666666667</ele><time>2026-05-01T10:49:49.729Z</time></trkpt><trkpt lat="42.5575989" lon="12.7657135"><ele>543.3333333333334</ele><time>2026-05-01T10:49:50.721Z</time></trkpt><trkpt lat="42.557522" lon="12.7656872"><ele>544.5</ele><time>2026-05-01T10:49:51.725Z</time></trkpt><trkpt lat="42.5574461" lon="12.7656672"><ele>545.6666666666666</ele><time>2026-05-01T10:49:52.726Z</time></trkpt><trkpt lat="42.5573662" lon="12.7656498"><ele>546.8333333333333</ele><time>2026-05-01T10:49:53.733Z</time></trkpt><trkpt lat="42.5572856" lon="12.7656384"><ele>548.0</ele><time>2026-05-01T10:49:54.724Z</time></trkpt><trkpt lat="42.557206" lon="12.7656335"><ele>548.0</ele><time>2026-05-01T10:49:55.73Z</time></trkpt><trkpt lat="42.5571309" lon="12.7656413"><ele>548.0</ele><time>2026-05-01T10:49:56.728Z</time></trkpt><trkpt lat="42.5570637" lon="12.7656566"><ele>548.0</ele><time>2026-05-01T10:49:57.733Z</time></trkpt><trkpt lat="42.5569622" lon="12.7656964"><ele>548.0</ele><time>2026-05-01T10:49:59.722Z</time></trkpt><trkpt lat="42.5568922" lon="12.7657327"><ele>548.0</ele><time>2026-05-01T10:50:02.723Z</time></trkpt><trkpt lat="42.5568453" lon="12.7657997"><ele>548.0</ele><time>2026-05-01T10:50:05.718Z</time></trkpt><trkpt lat="42.556852" lon="12.7658982"><ele>549.4</ele><time>2026-05-01T10:50:09.727Z</time></trkpt><trkpt lat="42.5569614" lon="12.7661038"><ele>550.8</ele><time>2026-05-01T10:50:17.721Z</time></trkpt><trkpt lat="42.5569741" lon="12.7661959"><ele>552.2</ele><time>2026-05-01T10:50:18.723Z</time></trkpt><trkpt lat="42.5569937" lon="12.7663035"><ele>553.6</ele><time>2026-05-01T10:50:19.716Z</time></trkpt><trkpt lat="42.5570266" lon="12.7664194"><ele>555.0</ele><time>2026-05-01T10:50:20.725Z</time></trkpt><trkpt lat="42.5570686" lon="12.7665262"><ele>555.0</ele><time>2026-05-01T10:50:21.729Z</time></trkpt><trkpt lat="42.5571045" lon="12.7666285"><ele>555.0</ele><time>2026-05-01T10:50:22.724Z</time></trkpt><trkpt lat="42.5571282" lon="12.7667264"><ele>555.0</ele><time>2026-05-01T10:50:23.735Z</time></trkpt><trkpt lat="42.5571441" lon="12.7668253"><ele>555.0</ele><time>2026-05-01T10:50:24.722Z</time></trkpt><trkpt lat="42.5571607" lon="12.766936"><ele>555.0</ele><time>2026-05-01T10:50:25.722Z</time></trkpt><trkpt lat="42.5571835" lon="12.7670505"><ele>555.0</ele><time>2026-05-01T10:50:26.726Z</time></trkpt><trkpt lat="42.5572145" lon="12.7671611"><ele>553.0</ele><time>2026-05-01T10:50:27.728Z</time></trkpt><trkpt lat="42.5572468" lon="12.76727"><ele>551.0</ele><time>2026-05-01T10:50:28.725Z</time></trkpt><trkpt lat="42.5572774" lon="12.7673806"><ele>549.0</ele><time>2026-05-01T10:50:29.731Z</time></trkpt><trkpt lat="42.557307" lon="12.7674883"><ele>547.0</ele><time>2026-05-01T10:50:30.722Z</time></trkpt><trkpt lat="42.557377" lon="12.7676887"><ele>545.0</ele><time>2026-05-01T10:50:32.729Z</time></trkpt><trkpt lat="42.5574222" lon="12.7677912"><ele>541.8333333333333</ele><time>2026-05-01T10:50:33.723Z</time></trkpt><trkpt lat="42.5574729" lon="12.7678936"><ele>538.6666666666666</ele><time>2026-05-01T10:50:34.732Z</time></trkpt><trkpt lat="42.5575296" lon="12.767989"><ele>535.5</ele><time>2026-05-01T10:50:35.723Z</time></trkpt><trkpt lat="42.5575912" lon="12.768085"><ele>532.3333333333334</ele><time>2026-05-01T10:50:36.726Z</time></trkpt><trkpt lat="42.5576497" lon="12.7681798"><ele>529.1666666666667</ele><time>2026-05-01T10:50:37.727Z</time></trkpt><trkpt lat="42.5577048" lon="12.7682637"><ele>526.0</ele><time>2026-05-01T10:50:38.721Z</time></trkpt><trkpt lat="42.5577601" lon="12.7683419"><ele>526.0</ele><time>2026-05-01T10:50:39.727Z</time></trkpt><trkpt lat="42.5578116" lon="12.7684162"><ele>526.0</ele><time>2026-05-01T10:50:40.729Z</time></trkpt><trkpt lat="42.5578657" lon="12.7684919"><ele>526.0</ele><time>2026-05-01T10:50:41.719Z</time></trkpt><trkpt lat="42.5579141" lon="12.768562"><ele>526.0</ele><time>2026-05-01T10:50:42.722Z</time></trkpt><trkpt lat="42.5579491" lon="12.7686353"><ele>526.0</ele><time>2026-05-01T10:50:43.718Z</time></trkpt><trkpt lat="42.5579971" lon="12.7687752"><ele>526.0</ele><time>2026-05-01T10:50:45.723Z</time></trkpt><trkpt lat="42.5580052" lon="12.7688928"><ele>524.8</ele><time>2026-05-01T10:50:47.731Z</time></trkpt><trkpt lat="42.5579452" lon="12.7689995"><ele>523.6</ele><time>2026-05-01T10:50:49.733Z</time></trkpt><trkpt lat="42.5578889" lon="12.7690522"><ele>522.4</ele><time>2026-05-01T10:50:50.727Z</time></trkpt><trkpt lat="42.5578203" lon="12.7691095"><ele>521.2</ele><time>2026-05-01T10:50:51.722Z</time></trkpt><trkpt lat="42.5576812" lon="12.7692483"><ele>520.0</ele><time>2026-05-01T10:50:53.727Z</time></trkpt><trkpt lat="42.5576129" lon="12.769333"><ele>520.0</ele><time>2026-05-01T10:50:54.734Z</time></trkpt><trkpt lat="42.5575534" lon="12.7694197"><ele>520.0</ele><time>2026-05-01T10:50:55.735Z</time></trkpt><trkpt lat="42.5575048" lon="12.7695082"><ele>520.0</ele><time>2026-05-01T10:50:56.729Z</time></trkpt><trkpt lat="42.5574722" lon="12.7695862"><ele>520.0</ele><time>2026-05-01T10:50:57.725Z</time></trkpt><trkpt lat="42.5574441" lon="12.769738"><ele>520.0</ele><time>2026-05-01T10:50:59.72Z</time></trkpt><trkpt lat="42.5574384" lon="12.769826"><ele>520.0</ele><time>2026-05-01T10:51:00.722Z</time></trkpt><trkpt lat="42.5574377" lon="12.7699297"><ele>520.0</ele><time>2026-05-01T10:51:01.725Z</time></trkpt><trkpt lat="42.5574435" lon="12.7700319"><ele>520.0</ele><time>2026-05-01T10:51:02.72Z</time></trkpt><trkpt lat="42.5574596" lon="12.7701334"><ele>520.0</ele><time>2026-05-01T10:51:03.729Z</time></trkpt><trkpt lat="42.5574878" lon="12.7702407"><ele>520.0</ele><time>2026-05-01T10:51:04.727Z</time></trkpt><trkpt lat="42.5575181" lon="12.7703446"><ele>520.0</ele><time>2026-05-01T10:51:05.731Z</time></trkpt><trkpt lat="42.5575486" lon="12.7704433"><ele>520.0</ele><time>2026-05-01T10:51:06.729Z</time></trkpt><trkpt lat="42.5575894" lon="12.7705248"><ele>517.6666666666667</ele><time>2026-05-01T10:51:07.734Z</time></trkpt><trkpt lat="42.5576343" lon="12.7705887"><ele>515.3333333333334</ele><time>2026-05-01T10:51:08.724Z</time></trkpt><trkpt lat="42.5576869" lon="12.7706407"><ele>513.0</ele><time>2026-05-01T10:51:09.724Z</time></trkpt><trkpt lat="42.5577532" lon="12.7706916"><ele>510.66666666666663</ele><time>2026-05-01T10:51:10.729Z</time></trkpt><trkpt lat="42.5578271" lon="12.7707571"><ele>508.3333333333333</ele><time>2026-05-01T10:51:11.733Z</time></trkpt><trkpt lat="42.5579089" lon="12.7708263"><ele>506.0</ele><time>2026-05-01T10:51:12.73Z</time></trkpt><trkpt lat="42.5580801" lon="12.7709841"><ele>509.20000000000005</ele><time>2026-05-01T10:51:14.728Z</time></trkpt><trkpt lat="42.5581684" lon="12.7710614"><ele>512.4000000000001</ele><time>2026-05-01T10:51:15.725Z</time></trkpt><trkpt lat="42.5582509" lon="12.7711392"><ele>515.6</ele><time>2026-05-01T10:51:16.725Z</time></trkpt><trkpt lat="42.5583224" lon="12.7712196"><ele>518.8000000000001</ele><time>2026-05-01T10:51:17.724Z</time></trkpt><trkpt lat="42.5583851" lon="12.7713031"><ele>522.0</ele><time>2026-05-01T10:51:18.73Z</time></trkpt><trkpt lat="42.5584382" lon="12.7713895"><ele>522.0</ele><time>2026-05-01T10:51:19.724Z</time></trkpt><trkpt lat="42.55848" lon="12.7714847"><ele>522.0</ele><time>2026-05-01T10:51:20.718Z</time></trkpt><trkpt lat="42.5585178" lon="12.7715878"><ele>522.0</ele><time>2026-05-01T10:51:21.723Z</time></trkpt><trkpt lat="42.5585557" lon="12.7717006"><ele>522.0</ele><time>2026-05-01T10:51:22.726Z</time></trkpt><trkpt lat="42.5585952" lon="12.771821"><ele>522.0</ele><time>2026-05-01T10:51:23.722Z</time></trkpt><trkpt lat="42.5586341" lon="12.7719338"><ele>522.0</ele><time>2026-05-01T10:51:24.721Z</time></trkpt><trkpt lat="42.5586771" lon="12.7720458"><ele>525.6666666666666</ele><time>2026-05-01T10:51:25.718Z</time></trkpt><trkpt lat="42.5587227" lon="12.7721527"><ele>529.3333333333334</ele><time>2026-05-01T10:51:26.722Z</time></trkpt><trkpt lat="42.5587737" lon="12.7722581"><ele>533.0</ele><time>2026-05-01T10:51:27.719Z</time></trkpt><trkpt lat="42.5588278" lon="12.7723605"><ele>536.6666666666667</ele><time>2026-05-01T10:51:28.723Z</time></trkpt><trkpt lat="42.5588794" lon="12.7724512"><ele>540.3333333333334</ele><time>2026-05-01T10:51:29.729Z</time></trkpt><trkpt lat="42.5589299" lon="12.7725376"><ele>544.0</ele><time>2026-05-01T10:51:30.722Z</time></trkpt><trkpt lat="42.5589778" lon="12.7726304"><ele>540.0</ele><time>2026-05-01T10:51:31.723Z</time></trkpt><trkpt lat="42.5590247" lon="12.7727307"><ele>536.0</ele><time>2026-05-01T10:51:32.713Z</time></trkpt><trkpt lat="42.5590811" lon="12.7728199"><ele>532.0</ele><time>2026-05-01T10:51:33.727Z</time></trkpt><trkpt lat="42.5591953" lon="12.7729739"><ele>528.0</ele><time>2026-05-01T10:51:35.723Z</time></trkpt><trkpt lat="42.5592537" lon="12.7730419"><ele>524.0</ele><time>2026-05-01T10:51:36.722Z</time></trkpt><trkpt lat="42.5593177" lon="12.7731012"><ele>524.0</ele><time>2026-05-01T10:51:37.723Z</time></trkpt><trkpt lat="42.5593844" lon="12.7731561"><ele>524.0</ele><time>2026-05-01T10:51:38.725Z</time></trkpt><trkpt lat="42.5594492" lon="12.7732146"><ele>524.0</ele><time>2026-05-01T10:51:39.723Z</time></trkpt><trkpt lat="42.559511" lon="12.7732831"><ele>524.0</ele><time>2026-05-01T10:51:40.726Z</time></trkpt><trkpt lat="42.5595782" lon="12.773358"><ele>524.0</ele><time>2026-05-01T10:51:41.718Z</time></trkpt><trkpt lat="42.559645" lon="12.7734557"><ele>524.0</ele><time>2026-05-01T10:51:42.725Z</time></trkpt><trkpt lat="42.5597112" lon="12.7735607"><ele>527.0</ele><time>2026-05-01T10:51:43.729Z</time></trkpt><trkpt lat="42.5597726" lon="12.7736741"><ele>530.0</ele><time>2026-05-01T10:51:44.719Z</time></trkpt><trkpt lat="42.5598367" lon="12.7737841"><ele>533.0</ele><time>2026-05-01T10:51:45.731Z</time></trkpt><trkpt lat="42.5598942" lon="12.7738946"><ele>536.0</ele><time>2026-05-01T10:51:46.727Z</time></trkpt><trkpt lat="42.559947" lon="12.7739984"><ele>539.0</ele><time>2026-05-01T10:51:47.722Z</time></trkpt><trkpt lat="42.5600037" lon="12.7741043"><ele>539.0</ele><time>2026-05-01T10:51:48.724Z</time></trkpt><trkpt lat="42.5600649" lon="12.7742098"><ele>539.0</ele><time>2026-05-01T10:51:49.722Z</time></trkpt><trkpt lat="42.5601321" lon="12.7743125"><ele>539.0</ele><time>2026-05-01T10:51:50.726Z</time></trkpt><trkpt lat="42.5602024" lon="12.7744135"><ele>539.0</ele><time>2026-05-01T10:51:51.717Z</time></trkpt><trkpt lat="42.5602734" lon="12.77451"><ele>539.0</ele><time>2026-05-01T10:51:52.717Z</time></trkpt><trkpt lat="42.5603377" lon="12.774593"><ele>538.0</ele><time>2026-05-01T10:51:53.722Z</time></trkpt><trkpt lat="42.5603986" lon="12.774658"><ele>537.0</ele><time>2026-05-01T10:51:54.723Z</time></trkpt><trkpt lat="42.5605413" lon="12.774811"><ele>536.0</ele><time>2026-05-01T10:51:57.723Z</time></trkpt><trkpt lat="42.5606173" lon="12.7748923"><ele>535.0</ele><time>2026-05-01T10:51:59.736Z</time></trkpt><trkpt lat="42.5606895" lon="12.7749452"><ele>534.0</ele><time>2026-05-01T10:52:01.727Z</time></trkpt><trkpt lat="42.5607362" lon="12.7750196"><ele>534.0000000000001</ele><time>2026-05-01T10:52:03.72Z</time></trkpt><trkpt lat="42.5606838" lon="12.7750926"><ele>534.0</ele><time>2026-05-01T10:52:05.722Z</time></trkpt><trkpt lat="42.5606155" lon="12.7751178"><ele>534.0</ele><time>2026-05-01T10:52:06.73Z</time></trkpt><trkpt lat="42.5605468" lon="12.7751429"><ele>534.0</ele><time>2026-05-01T10:52:07.73Z</time></trkpt><trkpt lat="42.5604775" lon="12.7751742"><ele>534.0</ele><time>2026-05-01T10:52:08.719Z</time></trkpt><trkpt lat="42.5604157" lon="12.7752272"><ele>534.0000000000001</ele><time>2026-05-01T10:52:09.721Z</time></trkpt><trkpt lat="42.5603659" lon="12.7752981"><ele>534.0</ele><time>2026-05-01T10:52:10.731Z</time></trkpt><trkpt lat="42.5603274" lon="12.775388"><ele>530.4</ele><time>2026-05-01T10:52:11.723Z</time></trkpt><trkpt lat="42.5603071" lon="12.775496"><ele>526.8</ele><time>2026-05-01T10:52:12.729Z</time></trkpt><trkpt lat="42.560296" lon="12.7756124"><ele>523.2</ele><time>2026-05-01T10:52:13.723Z</time></trkpt><trkpt lat="42.5602844" lon="12.7757269"><ele>519.6</ele><time>2026-05-01T10:52:14.726Z</time></trkpt><trkpt lat="42.5602673" lon="12.775838"><ele>516.0</ele><time>2026-05-01T10:52:15.73Z</time></trkpt><trkpt lat="42.5602239" lon="12.776022"><ele>516.0</ele><time>2026-05-01T10:52:17.718Z</time></trkpt><trkpt lat="42.560182" lon="12.7761383"><ele>516.0</ele><time>2026-05-01T10:52:19.722Z</time></trkpt><trkpt lat="42.5601305" lon="12.7761948"><ele>516.0</ele><time>2026-05-01T10:52:21.73Z</time></trkpt><trkpt lat="42.5600565" lon="12.7762081"><ele>516.0</ele><time>2026-05-01T10:52:23.726Z</time></trkpt><trkpt lat="42.5599639" lon="12.7761909"><ele>516.0</ele><time>2026-05-01T10:52:56.725Z</time></trkpt><trkpt lat="42.5597838" lon="12.7760695"><ele>516.0</ele><time>2026-05-01T10:53:00.721Z</time></trkpt><trkpt lat="42.5597207" lon="12.7760652"><ele>516.0</ele><time>2026-05-01T10:53:02.719Z</time></trkpt><trkpt lat="42.5597366" lon="12.7761535"><ele>516.0</ele><time>2026-05-01T10:53:06.721Z</time></trkpt><trkpt lat="42.5598025" lon="12.7761858"><ele>516.0</ele><time>2026-05-01T10:53:08.724Z</time></trkpt><trkpt lat="42.5599079" lon="12.7762767"><ele>516.0</ele><time>2026-05-01T10:53:10.72Z</time></trkpt><trkpt lat="42.5599559" lon="12.7763444"><ele>516.0</ele><time>2026-05-01T10:53:11.724Z</time></trkpt><trkpt lat="42.5599985" lon="12.7764235"><ele>516.0</ele><time>2026-05-01T10:53:12.715Z</time></trkpt><trkpt lat="42.5600304" lon="12.7765166"><ele>516.0</ele><time>2026-05-01T10:53:13.723Z</time></trkpt><trkpt lat="42.5600414" lon="12.7766229"><ele>516.0</ele><time>2026-05-01T10:53:14.72Z</time></trkpt><trkpt lat="42.5600245" lon="12.7767344"><ele>516.0</ele><time>2026-05-01T10:53:15.721Z</time></trkpt><trkpt lat="42.5599982" lon="12.776837"><ele>516.0</ele><time>2026-05-01T10:53:16.732Z</time></trkpt><trkpt lat="42.5599686" lon="12.776945"><ele>516.0</ele><time>2026-05-01T10:53:17.726Z</time></trkpt><trkpt lat="42.5599132" lon="12.7771638"><ele>517.5714285714286</ele><time>2026-05-01T10:53:19.727Z</time></trkpt><trkpt lat="42.5598857" lon="12.7772586"><ele>519.1428571428571</ele><time>2026-05-01T10:53:20.725Z</time></trkpt><trkpt lat="42.5598477" lon="12.7773359"><ele>520.7142857142858</ele><time>2026-05-01T10:53:21.724Z</time></trkpt><trkpt lat="42.5597917" lon="12.7773854"><ele>522.2857142857142</ele><time>2026-05-01T10:53:22.723Z</time></trkpt><trkpt lat="42.5597316" lon="12.7774271"><ele>523.8571428571429</ele><time>2026-05-01T10:53:23.732Z</time></trkpt><trkpt lat="42.5596607" lon="12.7774543"><ele>525.4285714285714</ele><time>2026-05-01T10:53:24.723Z</time></trkpt><trkpt lat="42.5595863" lon="12.7774657"><ele>527.0</ele><time>2026-05-01T10:53:25.723Z</time></trkpt><trkpt lat="42.5594994" lon="12.7774684"><ele>527.8333333333333</ele><time>2026-05-01T10:53:26.727Z</time></trkpt><trkpt lat="42.559407" lon="12.7774713"><ele>528.6666666666666</ele><time>2026-05-01T10:53:27.727Z</time></trkpt><trkpt lat="42.559321" lon="12.7774743"><ele>529.5</ele><time>2026-05-01T10:53:28.723Z</time></trkpt><trkpt lat="42.5592411" lon="12.7774782"><ele>530.3333333333334</ele><time>2026-05-01T10:53:29.721Z</time></trkpt><trkpt lat="42.5591599" lon="12.7774933"><ele>531.1666666666667</ele><time>2026-05-01T10:53:30.726Z</time></trkpt><trkpt lat="42.5590933" lon="12.7775356"><ele>532.0</ele><time>2026-05-01T10:53:31.724Z</time></trkpt><trkpt lat="42.5590439" lon="12.7776051"><ele>534.5</ele><time>2026-05-01T10:53:32.729Z</time></trkpt><trkpt lat="42.5590158" lon="12.7776949"><ele>537.0</ele><time>2026-05-01T10:53:33.73Z</time></trkpt><trkpt lat="42.5589981" lon="12.7777986"><ele>539.5</ele><time>2026-05-01T10:53:34.726Z</time></trkpt><trkpt lat="42.5589918" lon="12.7779112"><ele>542.0</ele><time>2026-05-01T10:53:35.727Z</time></trkpt><trkpt lat="42.5589878" lon="12.7780345"><ele>544.5</ele><time>2026-05-01T10:53:36.729Z</time></trkpt><trkpt lat="42.5589828" lon="12.7781597"><ele>547.0</ele><time>2026-05-01T10:53:37.73Z</time></trkpt><trkpt lat="42.5589749" lon="12.778285"><ele>549.8000000000001</ele><time>2026-05-01T10:53:38.721Z</time></trkpt><trkpt lat="42.5589581" lon="12.778527"><ele>552.6</ele><time>2026-05-01T10:53:40.724Z</time></trkpt><trkpt lat="42.5589497" lon="12.778646"><ele>555.4000000000001</ele><time>2026-05-01T10:53:41.72Z</time></trkpt><trkpt lat="42.5589375" lon="12.7787581"><ele>558.2</ele><time>2026-05-01T10:53:42.726Z</time></trkpt><trkpt lat="42.5589097" lon="12.7788554"><ele>561.0</ele><time>2026-05-01T10:53:43.725Z</time></trkpt><trkpt lat="42.558872" lon="12.7789405"><ele>561.0</ele><time>2026-05-01T10:53:44.73Z</time></trkpt><trkpt lat="42.5588242" lon="12.7790085"><ele>561.0</ele><time>2026-05-01T10:53:45.725Z</time></trkpt><trkpt lat="42.5587644" lon="12.7790531"><ele>561.0</ele><time>2026-05-01T10:53:46.724Z</time></trkpt><trkpt lat="42.5586906" lon="12.7790681"><ele>561.0</ele><time>2026-05-01T10:53:47.726Z</time></trkpt><trkpt lat="42.5586097" lon="12.7790627"><ele>561.0</ele><time>2026-05-01T10:53:48.723Z</time></trkpt><trkpt lat="42.5585166" lon="12.7790538"><ele>561.0</ele><time>2026-05-01T10:53:49.734Z</time></trkpt><trkpt lat="42.558425" lon="12.7790402"><ele>559.2</ele><time>2026-05-01T10:53:50.719Z</time></trkpt><trkpt lat="42.5583256" lon="12.7790332"><ele>557.4000000000001</ele><time>2026-05-01T10:53:51.721Z</time></trkpt><trkpt lat="42.5582192" lon="12.779039"><ele>555.6</ele><time>2026-05-01T10:53:52.718Z</time></trkpt><trkpt lat="42.5581141" lon="12.7790519"><ele>553.8000000000001</ele><time>2026-05-01T10:53:53.728Z</time></trkpt><trkpt lat="42.5580233" lon="12.7790715"><ele>552.0</ele><time>2026-05-01T10:53:54.717Z</time></trkpt><trkpt lat="42.5579429" lon="12.7791081"><ele>551.8000000000001</ele><time>2026-05-01T10:53:55.722Z</time></trkpt><trkpt lat="42.5578677" lon="12.7791639"><ele>551.6</ele><time>2026-05-01T10:53:56.727Z</time></trkpt><trkpt lat="42.5577919" lon="12.7792184"><ele>551.4000000000001</ele><time>2026-05-01T10:53:57.717Z</time></trkpt><trkpt lat="42.5577211" lon="12.7792618"><ele>551.2</ele><time>2026-05-01T10:53:58.726Z</time></trkpt><trkpt lat="42.5576462" lon="12.7792854"><ele>551.0</ele><time>2026-05-01T10:53:59.726Z</time></trkpt><trkpt lat="42.5574808" lon="12.7793237"><ele>555.6</ele><time>2026-05-01T10:54:01.724Z</time></trkpt><trkpt lat="42.5573865" lon="12.7793555"><ele>560.2</ele><time>2026-05-01T10:54:02.722Z</time></trkpt><trkpt lat="42.5572896" lon="12.7793974"><ele>564.8</ele><time>2026-05-01T10:54:03.722Z</time></trkpt><trkpt lat="42.5571924" lon="12.7794432"><ele>569.4</ele><time>2026-05-01T10:54:04.723Z</time></trkpt><trkpt lat="42.5570949" lon="12.7794851"><ele>574.0</ele><time>2026-05-01T10:54:05.732Z</time></trkpt><trkpt lat="42.5570022" lon="12.7795238"><ele>574.0</ele><time>2026-05-01T10:54:06.721Z</time></trkpt><trkpt lat="42.556911" lon="12.7795468"><ele>574.0</ele><time>2026-05-01T10:54:07.715Z</time></trkpt><trkpt lat="42.5568314" lon="12.7795622"><ele>574.0</ele><time>2026-05-01T10:54:08.725Z</time></trkpt><trkpt lat="42.5567629" lon="12.779582"><ele>574.0</ele><time>2026-05-01T10:54:09.725Z</time></trkpt><trkpt lat="42.5566708" lon="12.779646"><ele>574.0</ele><time>2026-05-01T10:54:11.73Z</time></trkpt><trkpt lat="42.5566054" lon="12.7797744"><ele>574.0</ele><time>2026-05-01T10:54:13.722Z</time></trkpt><trkpt lat="42.5565524" lon="12.7798811"><ele>574.0</ele><time>2026-05-01T10:54:15.721Z</time></trkpt><trkpt lat="42.5565749" lon="12.7799885"><ele>574.0</ele><time>2026-05-01T10:54:18.724Z</time></trkpt><trkpt lat="42.5566413" lon="12.7800065"><ele>574.0</ele><time>2026-05-01T10:54:20.725Z</time></trkpt><trkpt lat="42.5568171" lon="12.7799697"><ele>574.0</ele><time>2026-05-01T10:54:23.728Z</time></trkpt><trkpt lat="42.5568883" lon="12.7799595"><ele>574.0</ele><time>2026-05-01T10:54:24.72Z</time></trkpt><trkpt lat="42.5569604" lon="12.7799611"><ele>574.0</ele><time>2026-05-01T10:54:25.718Z</time></trkpt><trkpt lat="42.5570337" lon="12.7799693"><ele>574.0</ele><time>2026-05-01T10:54:26.714Z</time></trkpt><trkpt lat="42.5571152" lon="12.7799842"><ele>574.0</ele><time>2026-05-01T10:54:27.728Z</time></trkpt><trkpt lat="42.5572027" lon="12.7800024"><ele>574.0</ele><time>2026-05-01T10:54:28.72Z</time></trkpt><trkpt lat="42.5572913" lon="12.7800263"><ele>574.0</ele><time>2026-05-01T10:54:29.727Z</time></trkpt><trkpt lat="42.5573762" lon="12.7800467"><ele>574.3333333333334</ele><time>2026-05-01T10:54:30.723Z</time></trkpt><trkpt lat="42.5574592" lon="12.7800665"><ele>574.6666666666667</ele><time>2026-05-01T10:54:31.722Z</time></trkpt><trkpt lat="42.5575457" lon="12.7800854"><ele>575.0</ele><time>2026-05-01T10:54:32.723Z</time></trkpt><trkpt lat="42.557628" lon="12.7801066"><ele>575.3333333333334</ele><time>2026-05-01T10:54:33.728Z</time></trkpt><trkpt lat="42.5577046" lon="12.7801309"><ele>575.6666666666666</ele><time>2026-05-01T10:54:34.721Z</time></trkpt><trkpt lat="42.5577808" lon="12.7801555"><ele>576.0</ele><time>2026-05-01T10:54:35.735Z</time></trkpt><trkpt lat="42.5578472" lon="12.7801807"><ele>580.0</ele><time>2026-05-01T10:54:36.727Z</time></trkpt><trkpt lat="42.5579115" lon="12.7802132"><ele>584.0</ele><time>2026-05-01T10:54:37.728Z</time></trkpt><trkpt lat="42.5579717" lon="12.7802514"><ele>588.0</ele><time>2026-05-01T10:54:38.726Z</time></trkpt><trkpt lat="42.5580319" lon="12.7802888"><ele>592.0</ele><time>2026-05-01T10:54:39.723Z</time></trkpt><trkpt lat="42.5581208" lon="12.7803489"><ele>596.0</ele><time>2026-05-01T10:54:41.723Z</time></trkpt><trkpt lat="42.558121" lon="12.7805278"><ele>600.0</ele><time>2026-05-01T10:54:46.719Z</time></trkpt><trkpt lat="42.5580323" lon="12.7805709"><ele>600.0</ele><time>2026-05-01T10:54:48.725Z</time></trkpt><trkpt lat="42.5579151" lon="12.7805634"><ele>600.0</ele><time>2026-05-01T10:54:50.718Z</time></trkpt><trkpt lat="42.5578495" lon="12.7805592"><ele>600.0</ele><time>2026-05-01T10:54:51.72Z</time></trkpt><trkpt lat="42.5577832" lon="12.7805744"><ele>600.0</ele><time>2026-05-01T10:54:52.727Z</time></trkpt><trkpt lat="42.5577192" lon="12.7806076"><ele>600.0</ele><time>2026-05-01T10:54:53.735Z</time></trkpt><trkpt lat="42.5576504" lon="12.7806452"><ele>600.0</ele><time>2026-05-01T10:54:54.724Z</time></trkpt><trkpt lat="42.5575862" lon="12.7806876"><ele>600.8</ele><time>2026-05-01T10:54:55.733Z</time></trkpt><trkpt lat="42.5575257" lon="12.7807289"><ele>601.6</ele><time>2026-05-01T10:54:56.723Z</time></trkpt><trkpt lat="42.5574302" lon="12.7807918"><ele>602.4</ele><time>2026-05-01T10:54:58.726Z</time></trkpt><trkpt lat="42.5574272" lon="12.7809109"><ele>603.2</ele><time>2026-05-01T10:55:01.732Z</time></trkpt><trkpt lat="42.5575008" lon="12.7809867"><ele>604.0</ele><time>2026-05-01T10:55:03.728Z</time></trkpt><trkpt lat="42.557684" lon="12.7810599"><ele>607.2857142857143</ele><time>2026-05-01T10:55:06.721Z</time></trkpt><trkpt lat="42.5577541" lon="12.781085"><ele>610.5714285714286</ele><time>2026-05-01T10:55:07.725Z</time></trkpt><trkpt lat="42.5578213" lon="12.7811122"><ele>613.8571428571429</ele><time>2026-05-01T10:55:08.721Z</time></trkpt><trkpt lat="42.5578863" lon="12.7811428"><ele>617.1428571428571</ele><time>2026-05-01T10:55:09.721Z</time></trkpt><trkpt lat="42.5579484" lon="12.7811635"><ele>620.4285714285714</ele><time>2026-05-01T10:55:10.718Z</time></trkpt><trkpt lat="42.5580138" lon="12.7811767"><ele>623.7142857142858</ele><time>2026-05-01T10:55:11.726Z</time></trkpt><trkpt lat="42.5580793" lon="12.781195"><ele>627.0</ele><time>2026-05-01T10:55:12.73Z</time></trkpt><trkpt lat="42.558148" lon="12.7812093"><ele>627.0</ele><time>2026-05-01T10:55:13.729Z</time></trkpt><trkpt lat="42.5582151" lon="12.7812118"><ele>627.0</ele><time>2026-05-01T10:55:14.718Z</time></trkpt><trkpt lat="42.5582839" lon="12.7812021"><ele>627.0</ele><time>2026-05-01T10:55:15.717Z</time></trkpt><trkpt lat="42.558347" lon="12.7811968"><ele>627.0</ele><time>2026-05-01T10:55:16.725Z</time></trkpt><trkpt lat="42.5584657" lon="12.7812328"><ele>627.0</ele><time>2026-05-01T10:55:18.721Z</time></trkpt><trkpt lat="42.5585702" lon="12.7813164"><ele>627.0</ele><time>2026-05-01T10:55:20.718Z</time></trkpt><trkpt lat="42.5586253" lon="12.7813654"><ele>627.0</ele><time>2026-05-01T10:55:21.722Z</time></trkpt><trkpt lat="42.5586835" lon="12.7814239"><ele>627.0</ele><time>2026-05-01T10:55:22.721Z</time></trkpt><trkpt lat="42.5587385" lon="12.781486"><ele>627.0</ele><time>2026-05-01T10:55:23.728Z</time></trkpt><trkpt lat="42.5587876" lon="12.7815519"><ele>627.0</ele><time>2026-05-01T10:55:24.731Z</time></trkpt><trkpt lat="42.5588464" lon="12.7817128"><ele>627.0</ele><time>2026-05-01T10:55:26.724Z</time></trkpt><trkpt lat="42.5588495" lon="12.7818009"><ele>627.0</ele><time>2026-05-01T10:55:27.728Z</time></trkpt><trkpt lat="42.5588485" lon="12.7818942"><ele>626.7142857142858</ele><time>2026-05-01T10:55:28.721Z</time></trkpt><trkpt lat="42.5588467" lon="12.7819911"><ele>626.4285714285714</ele><time>2026-05-01T10:55:29.729Z</time></trkpt><trkpt lat="42.5588501" lon="12.7820843"><ele>626.1428571428571</ele><time>2026-05-01T10:55:30.731Z</time></trkpt><trkpt lat="42.5588522" lon="12.782174"><ele>625.8571428571429</ele><time>2026-05-01T10:55:31.727Z</time></trkpt><trkpt lat="42.5588539" lon="12.7822643"><ele>625.5714285714286</ele><time>2026-05-01T10:55:32.716Z</time></trkpt><trkpt lat="42.5588611" lon="12.7823611"><ele>625.2857142857143</ele><time>2026-05-01T10:55:33.73Z</time></trkpt><trkpt lat="42.5588745" lon="12.7824585"><ele>625.0</ele><time>2026-05-01T10:55:34.73Z</time></trkpt><trkpt lat="42.5588967" lon="12.7825524"><ele>625.0</ele><time>2026-05-01T10:55:35.727Z</time></trkpt><trkpt lat="42.5589261" lon="12.7826376"><ele>625.0</ele><time>2026-05-01T10:55:36.714Z</time></trkpt><trkpt lat="42.5589588" lon="12.7827141"><ele>625.0</ele><time>2026-05-01T10:55:37.729Z</time></trkpt><trkpt lat="42.5590379" lon="12.7828515"><ele>625.0</ele><time>2026-05-01T10:55:39.727Z</time></trkpt><trkpt lat="42.5590804" lon="12.7829179"><ele>625.0</ele><time>2026-05-01T10:55:40.723Z</time></trkpt><trkpt lat="42.5591554" lon="12.7830548"><ele>626.8</ele><time>2026-05-01T10:55:42.723Z</time></trkpt><trkpt lat="42.5591798" lon="12.7831345"><ele>628.6</ele><time>2026-05-01T10:55:43.728Z</time></trkpt><trkpt lat="42.5591928" lon="12.7832821"><ele>630.4</ele><time>2026-05-01T10:55:45.732Z</time></trkpt><trkpt lat="42.5591036" lon="12.783358"><ele>632.2</ele><time>2026-05-01T10:56:05.721Z</time></trkpt><trkpt lat="42.5590536" lon="12.7832229"><ele>634.0</ele><time>2026-05-01T10:56:07.725Z</time></trkpt><trkpt lat="42.5589467" lon="12.7830162"><ele>634.0</ele><time>2026-05-01T10:56:10.727Z</time></trkpt><trkpt lat="42.5589106" lon="12.7829429"><ele>634.0</ele><time>2026-05-01T10:56:11.731Z</time></trkpt><trkpt lat="42.5588482" lon="12.7828046"><ele>634.0</ele><time>2026-05-01T10:56:13.724Z</time></trkpt><trkpt lat="42.5587749" lon="12.7826728"><ele>634.0</ele><time>2026-05-01T10:56:15.719Z</time></trkpt><trkpt lat="42.5587134" lon="12.7825674"><ele>634.0</ele><time>2026-05-01T10:56:17.73Z</time></trkpt><trkpt lat="42.5586488" lon="12.7825575"><ele>634.0</ele><time>2026-05-01T10:56:19.725Z</time></trkpt><trkpt lat="42.5586084" lon="12.782633"><ele>634.0</ele><time>2026-05-01T10:56:21.725Z</time></trkpt><trkpt lat="42.5586132" lon="12.7827278"><ele>634.0</ele><time>2026-05-01T10:56:23.721Z</time></trkpt><trkpt lat="42.5586719" lon="12.7828817"><ele>634.0</ele><time>2026-05-01T10:56:25.738Z</time></trkpt><trkpt lat="42.5587192" lon="12.7829829"><ele>634.0</ele><time>2026-05-01T10:56:26.725Z</time></trkpt><trkpt lat="42.5587657" lon="12.7830781"><ele>634.0</ele><time>2026-05-01T10:56:27.723Z</time></trkpt><trkpt lat="42.5588025" lon="12.7831659"><ele>634.0</ele><time>2026-05-01T10:56:28.719Z</time></trkpt><trkpt lat="42.5588064" lon="12.7833806"><ele>634.0</ele><time>2026-05-01T10:56:31.719Z</time></trkpt><trkpt lat="42.558714" lon="12.7834644"><ele>634.0</ele><time>2026-05-01T10:56:33.719Z</time></trkpt><trkpt lat="42.5586486" lon="12.7834878"><ele>634.0</ele><time>2026-05-01T10:56:34.72Z</time></trkpt><trkpt lat="42.5585701" lon="12.7834943"><ele>634.0</ele><time>2026-05-01T10:56:35.723Z</time></trkpt><trkpt lat="42.5584853" lon="12.7834955"><ele>635.5</ele><time>2026-05-01T10:56:36.722Z</time></trkpt><trkpt lat="42.5584028" lon="12.7835048"><ele>637.0</ele><time>2026-05-01T10:56:37.724Z</time></trkpt><trkpt lat="42.5583194" lon="12.7835264"><ele>638.5</ele><time>2026-05-01T10:56:38.728Z</time></trkpt><trkpt lat="42.5582386" lon="12.7835625"><ele>640.0</ele><time>2026-05-01T10:56:39.721Z</time></trkpt><trkpt lat="42.5581647" lon="12.7836154"><ele>641.5</ele><time>2026-05-01T10:56:40.722Z</time></trkpt><trkpt lat="42.5581015" lon="12.7836869"><ele>643.0</ele><time>2026-05-01T10:56:41.731Z</time></trkpt><trkpt lat="42.5580524" lon="12.7837736"><ele>643.0</ele><time>2026-05-01T10:56:42.723Z</time></trkpt><trkpt lat="42.5580108" lon="12.7838648"><ele>643.0</ele><time>2026-05-01T10:56:43.72Z</time></trkpt><trkpt lat="42.5579848" lon="12.7839634"><ele>643.0</ele><time>2026-05-01T10:56:44.72Z</time></trkpt><trkpt lat="42.5579696" lon="12.7840751"><ele>643.0</ele><time>2026-05-01T10:56:45.723Z</time></trkpt><trkpt lat="42.5579605" lon="12.7841826"><ele>643.0</ele><time>2026-05-01T10:56:46.718Z</time></trkpt><trkpt lat="42.5579405" lon="12.7842774"><ele>643.0</ele><time>2026-05-01T10:56:47.721Z</time></trkpt><trkpt lat="42.5578599" lon="12.7843932"><ele>642.0</ele><time>2026-05-01T10:56:49.72Z</time></trkpt><trkpt lat="42.5576654" lon="12.7844707"><ele>641.0</ele><time>2026-05-01T10:56:53.719Z</time></trkpt><trkpt lat="42.5575822" lon="12.7844764"><ele>640.0</ele><time>2026-05-01T10:56:55.721Z</time></trkpt><trkpt lat="42.5574895" lon="12.7844645"><ele>639.0</ele><time>2026-05-01T10:56:57.718Z</time></trkpt><trkpt lat="42.5573722" lon="12.784425"><ele>639.0</ele><time>2026-05-01T10:56:59.717Z</time></trkpt><trkpt lat="42.5573066" lon="12.7843982"><ele>639.0</ele><time>2026-05-01T10:57:00.725Z</time></trkpt><trkpt lat="42.5572341" lon="12.7843587"><ele>639.0</ele><time>2026-05-01T10:57:01.723Z</time></trkpt><trkpt lat="42.5571606" lon="12.784309"><ele>639.0</ele><time>2026-05-01T10:57:02.726Z</time></trkpt><trkpt lat="42.5570903" lon="12.7842548"><ele>639.0</ele><time>2026-05-01T10:57:03.726Z</time></trkpt><trkpt lat="42.5570204" lon="12.7842037"><ele>639.0</ele><time>2026-05-01T10:57:04.716Z</time></trkpt><trkpt lat="42.5569489" lon="12.7841488"><ele>642.0</ele><time>2026-05-01T10:57:05.721Z</time></trkpt><trkpt lat="42.5568739" lon="12.7840983"><ele>645.0</ele><time>2026-05-01T10:57:06.725Z</time></trkpt><trkpt lat="42.5567995" lon="12.7840605"><ele>648.0</ele><time>2026-05-01T10:57:07.718Z</time></trkpt><trkpt lat="42.556722" lon="12.7840345"><ele>651.0</ele><time>2026-05-01T10:57:08.727Z</time></trkpt><trkpt lat="42.5566409" lon="12.784022"><ele>654.0</ele><time>2026-05-01T10:57:09.726Z</time></trkpt><trkpt lat="42.5565534" lon="12.7840221"><ele>657.0</ele><time>2026-05-01T10:57:10.723Z</time></trkpt><trkpt lat="42.5563938" lon="12.7840515"><ele>657.0</ele><time>2026-05-01T10:57:12.722Z</time></trkpt><trkpt lat="42.556323" lon="12.7840687"><ele>657.0</ele><time>2026-05-01T10:57:13.723Z</time></trkpt><trkpt lat="42.5562579" lon="12.784083"><ele>657.0</ele><time>2026-05-01T10:57:14.724Z</time></trkpt><trkpt lat="42.5561355" lon="12.784129"><ele>657.0</ele><time>2026-05-01T10:57:16.723Z</time></trkpt><trkpt lat="42.556074" lon="12.7841628"><ele>657.0</ele><time>2026-05-01T10:57:17.723Z</time></trkpt><trkpt lat="42.5559675" lon="12.7842391"><ele>657.8</ele><time>2026-05-01T10:57:19.722Z</time></trkpt><trkpt lat="42.5558716" lon="12.7843014"><ele>658.6</ele><time>2026-05-01T10:57:21.722Z</time></trkpt><trkpt lat="42.5557813" lon="12.7843475"><ele>659.4</ele><time>2026-05-01T10:57:23.717Z</time></trkpt><trkpt lat="42.5556894" lon="12.7843794"><ele>660.1999999999999</ele><time>2026-05-01T10:57:25.719Z</time></trkpt><trkpt lat="42.5555897" lon="12.7843695"><ele>661.0</ele><time>2026-05-01T10:57:27.721Z</time></trkpt><trkpt lat="42.5554841" lon="12.7843444"><ele>663.0</ele><time>2026-05-01T10:57:29.729Z</time></trkpt><trkpt lat="42.5553701" lon="12.7842884"><ele>665.0</ele><time>2026-05-01T10:57:31.725Z</time></trkpt><trkpt lat="42.5551926" lon="12.7842197"><ele>667.0</ele><time>2026-05-01T10:57:34.725Z</time></trkpt><trkpt lat="42.5551274" lon="12.7842073"><ele>669.0</ele><time>2026-05-01T10:57:35.725Z</time></trkpt><trkpt lat="42.5550612" lon="12.7842038"><ele>671.0</ele><time>2026-05-01T10:57:36.723Z</time></trkpt><trkpt lat="42.5549961" lon="12.7842088"><ele>671.0</ele><time>2026-05-01T10:57:37.721Z</time></trkpt><trkpt lat="42.5549306" lon="12.7842257"><ele>671.0</ele><time>2026-05-01T10:57:38.721Z</time></trkpt><trkpt lat="42.5548645" lon="12.7842415"><ele>671.0</ele><time>2026-05-01T10:57:39.731Z</time></trkpt><trkpt lat="42.5547513" lon="12.7842693"><ele>671.0</ele><time>2026-05-01T10:57:41.718Z</time></trkpt><trkpt lat="42.554678" lon="12.7842927"><ele>671.0</ele><time>2026-05-01T10:57:43.72Z</time></trkpt><trkpt lat="42.5546948" lon="12.7843947"><ele>671.0</ele><time>2026-05-01T10:57:46.726Z</time></trkpt><trkpt lat="42.5547635" lon="12.7844461"><ele>671.8</ele><time>2026-05-01T10:57:48.716Z</time></trkpt><trkpt lat="42.5548521" lon="12.7844631"><ele>672.5999999999999</ele><time>2026-05-01T10:57:50.718Z</time></trkpt><trkpt lat="42.5549197" lon="12.7844625"><ele>673.4</ele><time>2026-05-01T10:59:18.72Z</time></trkpt><trkpt lat="42.5550843" lon="12.7845912"><ele>674.2</ele><time>2026-05-01T10:59:23.713Z</time></trkpt><trkpt lat="42.5551025" lon="12.7847136"><ele>675.0</ele><time>2026-05-01T10:59:25.73Z</time></trkpt><trkpt lat="42.5550611" lon="12.7848008"><ele>675.0</ele><time>2026-05-01T10:59:29.722Z</time></trkpt><trkpt lat="42.5549811" lon="12.7848411"><ele>675.0</ele><time>2026-05-01T10:59:33.722Z</time></trkpt><trkpt lat="42.5549086" lon="12.7848409"><ele>675.0</ele><time>2026-05-01T10:59:35.723Z</time></trkpt><trkpt lat="42.5547996" lon="12.7848386"><ele>675.0</ele><time>2026-05-01T10:59:37.716Z</time></trkpt><trkpt lat="42.5546859" lon="12.7848356"><ele>675.0</ele><time>2026-05-01T10:59:39.73Z</time></trkpt><trkpt lat="42.5545021" lon="12.7847981"><ele>677.0</ele><time>2026-05-01T10:59:42.717Z</time></trkpt><trkpt lat="42.5544374" lon="12.7847662"><ele>679.0</ele><time>2026-05-01T10:59:43.723Z</time></trkpt><trkpt lat="42.5543209" lon="12.7847173"><ele>681.0</ele><time>2026-05-01T10:59:45.716Z</time></trkpt><trkpt lat="42.5542556" lon="12.7847132"><ele>683.0</ele><time>2026-05-01T10:59:46.722Z</time></trkpt><trkpt lat="42.5541859" lon="12.7847257"><ele>685.0</ele><time>2026-05-01T10:59:47.722Z</time></trkpt><trkpt lat="42.5541029" lon="12.7847555"><ele>687.0</ele><time>2026-05-01T10:59:48.725Z</time></trkpt><trkpt lat="42.5540187" lon="12.7847974"><ele>687.0</ele><time>2026-05-01T10:59:49.723Z</time></trkpt><trkpt lat="42.5539313" lon="12.7848423"><ele>687.0</ele><time>2026-05-01T10:59:50.723Z</time></trkpt><trkpt lat="42.5538439" lon="12.7848857"><ele>687.0</ele><time>2026-05-01T10:59:51.724Z</time></trkpt><trkpt lat="42.5537584" lon="12.7849284"><ele>687.0</ele><time>2026-05-01T10:59:52.724Z</time></trkpt><trkpt lat="42.5536755" lon="12.7849739"><ele>687.0</ele><time>2026-05-01T10:59:53.723Z</time></trkpt><trkpt lat="42.5536" lon="12.7850092"><ele>687.0</ele><time>2026-05-01T10:59:54.724Z</time></trkpt><trkpt lat="42.553527" lon="12.7850431"><ele>688.6666666666666</ele><time>2026-05-01T10:59:55.719Z</time></trkpt><trkpt lat="42.5534616" lon="12.7850762"><ele>690.3333333333334</ele><time>2026-05-01T10:59:56.727Z</time></trkpt><trkpt lat="42.5533946" lon="12.7851119"><ele>692.0</ele><time>2026-05-01T10:59:57.729Z</time></trkpt><trkpt lat="42.5533267" lon="12.7851517"><ele>693.6666666666667</ele><time>2026-05-01T10:59:58.724Z</time></trkpt><trkpt lat="42.5532559" lon="12.7851858"><ele>695.3333333333334</ele><time>2026-05-01T10:59:59.718Z</time></trkpt><trkpt lat="42.553181" lon="12.7852237"><ele>697.0</ele><time>2026-05-01T11:00:00.718Z</time></trkpt><trkpt lat="42.553037" lon="12.7853235"><ele>697.0</ele><time>2026-05-01T11:00:02.72Z</time></trkpt><trkpt lat="42.5529602" lon="12.7853756"><ele>697.0</ele><time>2026-05-01T11:00:03.721Z</time></trkpt><trkpt lat="42.5528866" lon="12.7854275"><ele>697.0</ele><time>2026-05-01T11:00:04.722Z</time></trkpt><trkpt lat="42.552811" lon="12.7854855"><ele>697.0</ele><time>2026-05-01T11:00:05.721Z</time></trkpt><trkpt lat="42.5527368" lon="12.7855506"><ele>697.0</ele><time>2026-05-01T11:00:06.725Z</time></trkpt><trkpt lat="42.5526657" lon="12.7856273"><ele>697.0</ele><time>2026-05-01T11:00:07.735Z</time></trkpt><trkpt lat="42.5526005" lon="12.7857182"><ele>701.4000000000001</ele><time>2026-05-01T11:00:08.717Z</time></trkpt><trkpt lat="42.5525316" lon="12.7858187"><ele>705.8000000000001</ele><time>2026-05-01T11:00:09.718Z</time></trkpt><trkpt lat="42.5524652" lon="12.7859205"><ele>710.2</ele><time>2026-05-01T11:00:10.719Z</time></trkpt><trkpt lat="42.5524047" lon="12.7860122"><ele>714.6</ele><time>2026-05-01T11:00:11.729Z</time></trkpt><trkpt lat="42.5523514" lon="12.7860963"><ele>719.0</ele><time>2026-05-01T11:00:12.74Z</time></trkpt><trkpt lat="42.5522998" lon="12.7861757"><ele>719.0</ele><time>2026-05-01T11:00:13.719Z</time></trkpt><trkpt lat="42.5522514" lon="12.7862664"><ele>719.0</ele><time>2026-05-01T11:00:14.72Z</time></trkpt><trkpt lat="42.5522125" lon="12.7863645"><ele>719.0</ele><time>2026-05-01T11:00:15.718Z</time></trkpt><trkpt lat="42.5521718" lon="12.7864535"><ele>719.0</ele><time>2026-05-01T11:00:16.719Z</time></trkpt><trkpt lat="42.552129" lon="12.7865401"><ele>719.0</ele><time>2026-05-01T11:00:17.719Z</time></trkpt><trkpt lat="42.5520848" lon="12.7866347"><ele>719.0</ele><time>2026-05-01T11:00:18.722Z</time></trkpt><trkpt lat="42.5520459" lon="12.7867345"><ele>725.8000000000001</ele><time>2026-05-01T11:00:19.723Z</time></trkpt><trkpt lat="42.5520059" lon="12.786834"><ele>732.6</ele><time>2026-05-01T11:00:20.728Z</time></trkpt><trkpt lat="42.551968" lon="12.7869304"><ele>739.4</ele><time>2026-05-01T11:00:21.723Z</time></trkpt><trkpt lat="42.551921" lon="12.7871333"><ele>746.2</ele><time>2026-05-01T11:00:23.726Z</time></trkpt><trkpt lat="42.5519137" lon="12.7872205"><ele>753.0</ele><time>2026-05-01T11:00:24.724Z</time></trkpt><trkpt lat="42.5519526" lon="12.7873675"><ele>749.6666666666666</ele><time>2026-05-01T11:00:26.719Z</time></trkpt><trkpt lat="42.5520423" lon="12.7874079"><ele>746.3333333333334</ele><time>2026-05-01T11:00:28.722Z</time></trkpt><trkpt lat="42.5521535" lon="12.787379"><ele>743.0</ele><time>2026-05-01T11:00:30.716Z</time></trkpt><trkpt lat="42.5522174" lon="12.7873694"><ele>739.6666666666667</ele><time>2026-05-01T11:00:31.719Z</time></trkpt><trkpt lat="42.552286" lon="12.7873659"><ele>736.3333333333334</ele><time>2026-05-01T11:00:32.726Z</time></trkpt><trkpt lat="42.5523541" lon="12.7873715"><ele>733.0</ele><time>2026-05-01T11:00:33.726Z</time></trkpt><trkpt lat="42.5524294" lon="12.7873822"><ele>733.0</ele><time>2026-05-01T11:00:34.726Z</time></trkpt><trkpt lat="42.5525062" lon="12.7873999"><ele>733.0</ele><time>2026-05-01T11:00:35.725Z</time></trkpt><trkpt lat="42.5525863" lon="12.7874166"><ele>733.0</ele><time>2026-05-01T11:00:36.726Z</time></trkpt><trkpt lat="42.5526677" lon="12.7874401"><ele>733.0</ele><time>2026-05-01T11:00:37.72Z</time></trkpt><trkpt lat="42.5527409" lon="12.7874664"><ele>733.0</ele><time>2026-05-01T11:00:38.72Z</time></trkpt><trkpt lat="42.5528092" lon="12.7874896"><ele>733.0</ele><time>2026-05-01T11:00:39.73Z</time></trkpt><trkpt lat="42.5529204" lon="12.7875574"><ele>732.2</ele><time>2026-05-01T11:00:41.726Z</time></trkpt><trkpt lat="42.5530224" lon="12.7876297"><ele>731.4</ele><time>2026-05-01T11:00:43.721Z</time></trkpt><trkpt lat="42.5531412" lon="12.7877224"><ele>730.6</ele><time>2026-05-01T11:00:45.722Z</time></trkpt><trkpt lat="42.5532023" lon="12.7877794"><ele>729.8000000000001</ele><time>2026-05-01T11:00:46.722Z</time></trkpt><trkpt lat="42.5532644" lon="12.7878473"><ele>729.0</ele><time>2026-05-01T11:00:47.727Z</time></trkpt><trkpt lat="42.5533268" lon="12.7879192"><ele>732.1666666666666</ele><time>2026-05-01T11:00:48.734Z</time></trkpt><trkpt lat="42.5533896" lon="12.7879878"><ele>735.3333333333334</ele><time>2026-05-01T11:00:49.728Z</time></trkpt><trkpt lat="42.5534518" lon="12.7880571"><ele>738.5</ele><time>2026-05-01T11:00:50.729Z</time></trkpt><trkpt lat="42.5535137" lon="12.7881251"><ele>741.6666666666667</ele><time>2026-05-01T11:00:51.723Z</time></trkpt><trkpt lat="42.5535746" lon="12.7881952"><ele>744.8333333333334</ele><time>2026-05-01T11:00:52.722Z</time></trkpt><trkpt lat="42.5536313" lon="12.7882692"><ele>748.0</ele><time>2026-05-01T11:00:53.719Z</time></trkpt><trkpt lat="42.553684" lon="12.7883565"><ele>748.8571428571428</ele><time>2026-05-01T11:00:54.715Z</time></trkpt><trkpt lat="42.5537235" lon="12.7884464"><ele>749.7142857142858</ele><time>2026-05-01T11:00:55.732Z</time></trkpt><trkpt lat="42.5537422" lon="12.7885373"><ele>750.5714285714286</ele><time>2026-05-01T11:00:56.724Z</time></trkpt><trkpt lat="42.5537484" lon="12.7886384"><ele>751.4285714285713</ele><time>2026-05-01T11:00:57.719Z</time></trkpt><trkpt lat="42.5537373" lon="12.7887343"><ele>752.2857142857142</ele><time>2026-05-01T11:00:58.714Z</time></trkpt><trkpt lat="42.5537147" lon="12.7888279"><ele>753.1428571428571</ele><time>2026-05-01T11:00:59.725Z</time></trkpt><trkpt lat="42.5536871" lon="12.7889161"><ele>754.0</ele><time>2026-05-01T11:01:00.722Z</time></trkpt><trkpt lat="42.5536552" lon="12.7889944"><ele>754.0</ele><time>2026-05-01T11:01:01.719Z</time></trkpt><trkpt lat="42.5535781" lon="12.7890572"><ele>754.0</ele><time>2026-05-01T11:01:03.721Z</time></trkpt><trkpt lat="42.5535173" lon="12.7889878"><ele>754.0</ele><time>2026-05-01T11:01:05.718Z</time></trkpt><trkpt lat="42.5534777" lon="12.7887317"><ele>754.0</ele><time>2026-05-01T11:01:08.723Z</time></trkpt><trkpt lat="42.5534198" lon="12.7885942"><ele>752.8000000000001</ele><time>2026-05-01T11:01:10.724Z</time></trkpt><trkpt lat="42.5533071" lon="12.7885069"><ele>751.6</ele><time>2026-05-01T11:01:12.726Z</time></trkpt><trkpt lat="42.5532333" lon="12.7884811"><ele>750.4</ele><time>2026-05-01T11:01:13.73Z</time></trkpt><trkpt lat="42.55315" lon="12.7884669"><ele>749.2</ele><time>2026-05-01T11:01:14.72Z</time></trkpt><trkpt lat="42.5530598" lon="12.7884606"><ele>748.0</ele><time>2026-05-01T11:01:15.723Z</time></trkpt><trkpt lat="42.5529679" lon="12.7884617"><ele>748.0</ele><time>2026-05-01T11:01:16.72Z</time></trkpt><trkpt lat="42.5528811" lon="12.7884858"><ele>748.0</ele><time>2026-05-01T11:01:17.716Z</time></trkpt><trkpt lat="42.5528134" lon="12.7885233"><ele>748.0</ele><time>2026-05-01T11:01:18.714Z</time></trkpt><trkpt lat="42.5527305" lon="12.7885933"><ele>748.0</ele><time>2026-05-01T11:01:20.723Z</time></trkpt><trkpt lat="42.5527108" lon="12.788702"><ele>748.0</ele><time>2026-05-01T11:01:22.718Z</time></trkpt><trkpt lat="42.5527032" lon="12.7888804"><ele>751.2</ele><time>2026-05-01T11:01:24.716Z</time></trkpt><trkpt lat="42.5527035" lon="12.7889979"><ele>754.4</ele><time>2026-05-01T11:01:25.721Z</time></trkpt><trkpt lat="42.5527079" lon="12.7891144"><ele>757.6</ele><time>2026-05-01T11:01:26.724Z</time></trkpt><trkpt lat="42.5527325" lon="12.7893374"><ele>760.8000000000001</ele><time>2026-05-01T11:01:28.719Z</time></trkpt><trkpt lat="42.5527421" lon="12.7894478"><ele>764.0</ele><time>2026-05-01T11:01:29.728Z</time></trkpt><trkpt lat="42.5527477" lon="12.7895563"><ele>766.3333333333333</ele><time>2026-05-01T11:01:30.725Z</time></trkpt><trkpt lat="42.5527516" lon="12.7896661"><ele>768.6666666666666</ele><time>2026-05-01T11:01:31.719Z</time></trkpt><trkpt lat="42.5527477" lon="12.7897669"><ele>771.0</ele><time>2026-05-01T11:01:32.717Z</time></trkpt><trkpt lat="42.5527421" lon="12.7898644"><ele>773.3333333333333</ele><time>2026-05-01T11:01:33.732Z</time></trkpt><trkpt lat="42.5527353" lon="12.789956"><ele>775.6666666666666</ele><time>2026-05-01T11:01:34.718Z</time></trkpt><trkpt lat="42.5527418" lon="12.7901062"><ele>778.0</ele><time>2026-05-01T11:01:36.723Z</time></trkpt><trkpt lat="42.5527624" lon="12.790219"><ele>781.25</ele><time>2026-05-01T11:01:38.721Z</time></trkpt><trkpt lat="42.5527861" lon="12.7903161"><ele>784.5</ele><time>2026-05-01T11:02:45.728Z</time></trkpt><trkpt lat="42.5528789" lon="12.7906009"><ele>787.75</ele><time>2026-05-01T11:02:49.723Z</time></trkpt><trkpt lat="42.5529172" lon="12.7907086"><ele>791.0</ele><time>2026-05-01T11:02:50.721Z</time></trkpt><trkpt lat="42.5529487" lon="12.7908086"><ele>789.3333333333334</ele><time>2026-05-01T11:02:51.716Z</time></trkpt><trkpt lat="42.5529714" lon="12.7909201"><ele>787.6666666666667</ele><time>2026-05-01T11:02:52.725Z</time></trkpt><trkpt lat="42.5529682" lon="12.7910267"><ele>786.0</ele><time>2026-05-01T11:02:53.725Z</time></trkpt><trkpt lat="42.5529643" lon="12.7911275"><ele>784.3333333333333</ele><time>2026-05-01T11:02:54.726Z</time></trkpt><trkpt lat="42.5529577" lon="12.7912264"><ele>782.6666666666666</ele><time>2026-05-01T11:02:55.722Z</time></trkpt><trkpt lat="42.5529854" lon="12.7913724"><ele>781.0</ele><time>2026-05-01T11:02:57.722Z</time></trkpt><trkpt lat="42.5530429" lon="12.791422"><ele>781.0</ele><time>2026-05-01T11:02:58.722Z</time></trkpt><trkpt lat="42.5531288" lon="12.7914519"><ele>781.0</ele><time>2026-05-01T11:02:59.721Z</time></trkpt><trkpt lat="42.5532241" lon="12.7914733"><ele>781.0</ele><time>2026-05-01T11:03:00.717Z</time></trkpt><trkpt lat="42.553315" lon="12.7914975"><ele>781.0</ele><time>2026-05-01T11:03:01.718Z</time></trkpt><trkpt lat="42.5534013" lon="12.7915241"><ele>781.0</ele><time>2026-05-01T11:03:02.72Z</time></trkpt><trkpt lat="42.5534806" lon="12.7915606"><ele>781.0</ele><time>2026-05-01T11:03:03.719Z</time></trkpt><trkpt lat="42.5535514" lon="12.7916001"><ele>781.0</ele><time>2026-05-01T11:03:04.715Z</time></trkpt><trkpt lat="42.5536092" lon="12.7916447"><ele>781.0</ele><time>2026-05-01T11:03:05.732Z</time></trkpt><trkpt lat="42.5536995" lon="12.7917563"><ele>781.0</ele><time>2026-05-01T11:03:07.723Z</time></trkpt><trkpt lat="42.5538549" lon="12.7920015"><ele>780.0</ele><time>2026-05-01T11:03:11.721Z</time></trkpt><trkpt lat="42.5538816" lon="12.7920818"><ele>779.0</ele><time>2026-05-01T11:03:12.715Z</time></trkpt><trkpt lat="42.5538961" lon="12.792235"><ele>778.0</ele><time>2026-05-01T11:03:14.716Z</time></trkpt><trkpt lat="42.553843" lon="12.7923885"><ele>777.0</ele><time>2026-05-01T11:03:16.723Z</time></trkpt><trkpt lat="42.5538013" lon="12.7924722"><ele>776.0</ele><time>2026-05-01T11:03:17.723Z</time></trkpt><trkpt lat="42.5537588" lon="12.7925603"><ele>776.0</ele><time>2026-05-01T11:03:18.722Z</time></trkpt><trkpt lat="42.5537155" lon="12.7926555"><ele>776.0</ele><time>2026-05-01T11:03:19.719Z</time></trkpt><trkpt lat="42.553686" lon="12.7927545"><ele>776.0</ele><time>2026-05-01T11:03:20.727Z</time></trkpt><trkpt lat="42.5536862" lon="12.792844"><ele>776.0</ele><time>2026-05-01T11:03:21.717Z</time></trkpt><trkpt lat="42.5537236" lon="12.7929219"><ele>776.0</ele><time>2026-05-01T11:03:22.717Z</time></trkpt><trkpt lat="42.5537746" lon="12.7929839"><ele>776.0</ele><time>2026-05-01T11:03:23.732Z</time></trkpt><trkpt lat="42.5538319" lon="12.793042"><ele>776.0</ele><time>2026-05-01T11:03:24.733Z</time></trkpt><trkpt lat="42.5539039" lon="12.7931133"><ele>778.0</ele><time>2026-05-01T11:03:25.725Z</time></trkpt><trkpt lat="42.5539931" lon="12.793184"><ele>780.0</ele><time>2026-05-01T11:03:26.72Z</time></trkpt><trkpt lat="42.5540798" lon="12.7932498"><ele>782.0</ele><time>2026-05-01T11:03:27.726Z</time></trkpt><trkpt lat="42.5541533" lon="12.7933122"><ele>784.0</ele><time>2026-05-01T11:03:28.723Z</time></trkpt><trkpt lat="42.5542586" lon="12.7934446"><ele>786.0</ele><time>2026-05-01T11:03:30.71Z</time></trkpt><trkpt lat="42.5542856" lon="12.7935796"><ele>786.0</ele><time>2026-05-01T11:03:32.718Z</time></trkpt><trkpt lat="42.5542646" lon="12.793714"><ele>786.0</ele><time>2026-05-01T11:03:34.721Z</time></trkpt><trkpt lat="42.5542047" lon="12.7938183"><ele>786.0</ele><time>2026-05-01T11:03:36.722Z</time></trkpt><trkpt lat="42.5541401" lon="12.793857"><ele>786.0</ele><time>2026-05-01T11:03:38.727Z</time></trkpt><trkpt lat="42.5540714" lon="12.7938935"><ele>786.0</ele><time>2026-05-01T11:03:40.72Z</time></trkpt><trkpt lat="42.5540021" lon="12.7939659"><ele>786.0</ele><time>2026-05-01T11:03:43.719Z</time></trkpt><trkpt lat="42.5539238" lon="12.7940359"><ele>786.0</ele><time>2026-05-01T11:03:45.726Z</time></trkpt><trkpt lat="42.5538745" lon="12.7940973"><ele>786.0</ele><time>2026-05-01T11:03:46.725Z</time></trkpt><trkpt lat="42.5538227" lon="12.7941687"><ele>786.0</ele><time>2026-05-01T11:03:47.725Z</time></trkpt><trkpt lat="42.5537649" lon="12.7942433"><ele>786.0</ele><time>2026-05-01T11:03:48.717Z</time></trkpt><trkpt lat="42.5537117" lon="12.7943174"><ele>786.0</ele><time>2026-05-01T11:03:49.72Z</time></trkpt><trkpt lat="42.5536066" lon="12.7944755"><ele>788.8571428571429</ele><time>2026-05-01T11:03:51.72Z</time></trkpt><trkpt lat="42.5535538" lon="12.7945493"><ele>791.7142857142858</ele><time>2026-05-01T11:03:52.715Z</time></trkpt><trkpt lat="42.5534953" lon="12.7946179"><ele>794.5714285714287</ele><time>2026-05-01T11:03:53.717Z</time></trkpt><trkpt lat="42.5534375" lon="12.794684"><ele>797.4285714285714</ele><time>2026-05-01T11:03:54.721Z</time></trkpt><trkpt lat="42.5533785" lon="12.7947483"><ele>800.2857142857142</ele><time>2026-05-01T11:03:55.725Z</time></trkpt><trkpt lat="42.5533179" lon="12.7947994"><ele>803.1428571428572</ele><time>2026-05-01T11:03:56.725Z</time></trkpt><trkpt lat="42.5532586" lon="12.7948466"><ele>806.0</ele><time>2026-05-01T11:03:57.719Z</time></trkpt><trkpt lat="42.5531995" lon="12.7948874"><ele>806.0000000000001</ele><time>2026-05-01T11:03:58.726Z</time></trkpt><trkpt lat="42.5530849" lon="12.7949542"><ele>806.0</ele><time>2026-05-01T11:04:00.722Z</time></trkpt><trkpt lat="42.5530222" lon="12.7949855"><ele>806.0</ele><time>2026-05-01T11:04:01.716Z</time></trkpt><trkpt lat="42.5529668" lon="12.79503"><ele>806.0</ele><time>2026-05-01T11:04:02.723Z</time></trkpt><trkpt lat="42.5529171" lon="12.7950826"><ele>806.0000000000001</ele><time>2026-05-01T11:04:03.721Z</time></trkpt><trkpt lat="42.5528405" lon="12.7952046"><ele>806.0</ele><time>2026-05-01T11:04:05.729Z</time></trkpt><trkpt lat="42.5528054" lon="12.7952842"><ele>811.0000000000001</ele><time>2026-05-01T11:04:06.715Z</time></trkpt><trkpt lat="42.552776" lon="12.7953742"><ele>816.0</ele><time>2026-05-01T11:04:07.718Z</time></trkpt><trkpt lat="42.552754" lon="12.795468"><ele>821.0</ele><time>2026-05-01T11:04:08.73Z</time></trkpt><trkpt lat="42.5527364" lon="12.7955555"><ele>826.0</ele><time>2026-05-01T11:04:09.722Z</time></trkpt><trkpt lat="42.55272" lon="12.7956487"><ele>831.0000000000001</ele><time>2026-05-01T11:04:10.717Z</time></trkpt><trkpt lat="42.5527102" lon="12.7958285"><ele>836.0</ele><time>2026-05-01T11:04:12.718Z</time></trkpt><trkpt lat="42.5527232" lon="12.7959253"><ele>835.3333333333334</ele><time>2026-05-01T11:04:13.721Z</time></trkpt><trkpt lat="42.5527516" lon="12.7960152"><ele>834.6666666666667</ele><time>2026-05-01T11:04:14.72Z</time></trkpt><trkpt lat="42.5528006" lon="12.796097"><ele>834.0</ele><time>2026-05-01T11:04:15.718Z</time></trkpt><trkpt lat="42.5528646" lon="12.7961596"><ele>833.3333333333333</ele><time>2026-05-01T11:04:16.73Z</time></trkpt><trkpt lat="42.5529323" lon="12.7962071"><ele>832.6666666666666</ele><time>2026-05-01T11:04:17.712Z</time></trkpt><trkpt lat="42.5530063" lon="12.7962197"><ele>832.0</ele><time>2026-05-01T11:04:18.715Z</time></trkpt><trkpt lat="42.553086" lon="12.7962271"><ele>831.9999999999999</ele><time>2026-05-01T11:04:19.727Z</time></trkpt><trkpt lat="42.5531701" lon="12.7962346"><ele>832.0</ele><time>2026-05-01T11:04:20.722Z</time></trkpt><trkpt lat="42.5532552" lon="12.7962438"><ele>832.0</ele><time>2026-05-01T11:04:21.72Z</time></trkpt><trkpt lat="42.5533384" lon="12.7962543"><ele>832.0</ele><time>2026-05-01T11:04:22.714Z</time></trkpt><trkpt lat="42.5534195" lon="12.7962798"><ele>831.9999999999999</ele><time>2026-05-01T11:04:23.719Z</time></trkpt><trkpt lat="42.5534952" lon="12.7963144"><ele>832.0</ele><time>2026-05-01T11:04:24.718Z</time></trkpt><trkpt lat="42.5535666" lon="12.79635"><ele>832.0</ele><time>2026-05-01T11:04:25.728Z</time></trkpt><trkpt lat="42.5536346" lon="12.7963902"><ele>832.0</ele><time>2026-05-01T11:04:26.718Z</time></trkpt><trkpt lat="42.5536938" lon="12.796432"><ele>832.0</ele><time>2026-05-01T11:04:27.721Z</time></trkpt><trkpt lat="42.5537786" lon="12.7965219"><ele>832.0</ele><time>2026-05-01T11:04:29.72Z</time></trkpt><trkpt lat="42.5538345" lon="12.7966323"><ele>832.0</ele><time>2026-05-01T11:04:31.727Z</time></trkpt><trkpt lat="42.553952" lon="12.7968071"><ele>831.6666666666666</ele><time>2026-05-01T11:04:34.72Z</time></trkpt><trkpt lat="42.5540174" lon="12.7968428"><ele>831.3333333333333</ele><time>2026-05-01T11:04:35.722Z</time></trkpt><trkpt lat="42.5540974" lon="12.7968639"><ele>831.0</ele><time>2026-05-01T11:04:36.726Z</time></trkpt><trkpt lat="42.5541771" lon="12.7968783"><ele>830.6666666666667</ele><time>2026-05-01T11:04:37.719Z</time></trkpt><trkpt lat="42.5542448" lon="12.7969002"><ele>830.3333333333334</ele><time>2026-05-01T11:04:38.717Z</time></trkpt><trkpt lat="42.5543012" lon="12.7969416"><ele>830.0</ele><time>2026-05-01T11:04:39.725Z</time></trkpt><trkpt lat="42.5543861" lon="12.7970431"><ele>830.0000000000001</ele><time>2026-05-01T11:04:41.719Z</time></trkpt><trkpt lat="42.5544098" lon="12.7971559"><ele>830.0</ele><time>2026-05-01T11:04:43.718Z</time></trkpt><trkpt lat="42.5543863" lon="12.7973086"><ele>830.0</ele><time>2026-05-01T11:04:45.717Z</time></trkpt><trkpt lat="42.5543522" lon="12.7973969"><ele>830.0</ele><time>2026-05-01T11:04:46.719Z</time></trkpt><trkpt lat="42.5543095" lon="12.7974865"><ele>830.0000000000001</ele><time>2026-05-01T11:04:47.723Z</time></trkpt><trkpt lat="42.5542641" lon="12.7975783"><ele>830.0</ele><time>2026-05-01T11:04:48.723Z</time></trkpt><trkpt lat="42.554219" lon="12.797673"><ele>831.5000000000001</ele><time>2026-05-01T11:04:49.716Z</time></trkpt><trkpt lat="42.5541768" lon="12.7977695"><ele>833.0</ele><time>2026-05-01T11:04:50.718Z</time></trkpt><trkpt lat="42.55414" lon="12.7978593"><ele>834.5</ele><time>2026-05-01T11:04:51.712Z</time></trkpt><trkpt lat="42.5541074" lon="12.7979526"><ele>836.0</ele><time>2026-05-01T11:04:52.717Z</time></trkpt><trkpt lat="42.5540841" lon="12.7981376"><ele>837.5000000000001</ele><time>2026-05-01T11:04:54.714Z</time></trkpt><trkpt lat="42.554101" lon="12.7982255"><ele>839.0</ele><time>2026-05-01T11:04:55.719Z</time></trkpt><trkpt lat="42.5541563" lon="12.7983159"><ele>839.0</ele><time>2026-05-01T11:04:56.72Z</time></trkpt><trkpt lat="42.5542224" lon="12.7984087"><ele>839.0</ele><time>2026-05-01T11:04:57.725Z</time></trkpt><trkpt lat="42.5542945" lon="12.7985022"><ele>839.0</ele><time>2026-05-01T11:04:58.721Z</time></trkpt><trkpt lat="42.5543641" lon="12.7985917"><ele>839.0</ele><time>2026-05-01T11:04:59.721Z</time></trkpt><trkpt lat="42.5544178" lon="12.798676"><ele>839.0</ele><time>2026-05-01T11:05:00.724Z</time></trkpt><trkpt lat="42.5544404" lon="12.7988359"><ele>839.2</ele><time>2026-05-01T11:05:02.719Z</time></trkpt><trkpt lat="42.5543909" lon="12.7989789"><ele>839.4000000000001</ele><time>2026-05-01T11:05:04.722Z</time></trkpt><trkpt lat="42.5543211" lon="12.7990857"><ele>839.6</ele><time>2026-05-01T11:05:06.711Z</time></trkpt><trkpt lat="42.5542578" lon="12.7991867"><ele>839.8</ele><time>2026-05-01T11:05:08.726Z</time></trkpt><trkpt lat="42.5541687" lon="12.7992848"><ele>840.0</ele><time>2026-05-01T11:05:10.718Z</time></trkpt><trkpt lat="42.5540797" lon="12.7993827"><ele>841.0</ele><time>2026-05-01T11:05:12.73Z</time></trkpt><trkpt lat="42.5539965" lon="12.7994855"><ele>842.0</ele><time>2026-05-01T11:05:14.718Z</time></trkpt><trkpt lat="42.5540077" lon="12.7997235"><ele>843.0</ele><time>2026-05-01T11:05:18.725Z</time></trkpt><trkpt lat="42.5540563" lon="12.7997789"><ele>844.0</ele><time>2026-05-01T11:05:19.714Z</time></trkpt><trkpt lat="42.5541228" lon="12.799824"><ele>845.0</ele><time>2026-05-01T11:05:20.728Z</time></trkpt><trkpt lat="42.5541962" lon="12.7998509"><ele>845.0000000000001</ele><time>2026-05-01T11:05:21.717Z</time></trkpt><trkpt lat="42.5542766" lon="12.7998776"><ele>845.0</ele><time>2026-05-01T11:05:22.717Z</time></trkpt><trkpt lat="42.5543565" lon="12.799909"><ele>845.0</ele><time>2026-05-01T11:05:23.715Z</time></trkpt><trkpt lat="42.5544401" lon="12.7999514"><ele>845.0</ele><time>2026-05-01T11:05:24.721Z</time></trkpt><trkpt lat="42.5545186" lon="12.7999968"><ele>845.0000000000001</ele><time>2026-05-01T11:05:25.723Z</time></trkpt><trkpt lat="42.5545839" lon="12.8000416"><ele>845.0</ele><time>2026-05-01T11:05:26.718Z</time></trkpt><trkpt lat="42.5546426" lon="12.8000884"><ele>843.0000000000001</ele><time>2026-05-01T11:05:27.727Z</time></trkpt><trkpt lat="42.5546955" lon="12.8001405"><ele>841.0</ele><time>2026-05-01T11:05:28.724Z</time></trkpt><trkpt lat="42.5547855" lon="12.8002587"><ele>839.0</ele><time>2026-05-01T11:05:30.715Z</time></trkpt><trkpt lat="42.5548358" lon="12.8003262"><ele>837.0</ele><time>2026-05-01T11:05:31.723Z</time></trkpt><trkpt lat="42.5548826" lon="12.8004047"><ele>835.0000000000001</ele><time>2026-05-01T11:05:32.718Z</time></trkpt><trkpt lat="42.5549278" lon="12.8004887"><ele>833.0</ele><time>2026-05-01T11:05:33.717Z</time></trkpt><trkpt lat="42.5549685" lon="12.8005785"><ele>833.0000000000001</ele><time>2026-05-01T11:05:34.722Z</time></trkpt><trkpt lat="42.5550015" lon="12.8006715"><ele>833.0</ele><time>2026-05-01T11:05:35.731Z</time></trkpt><trkpt lat="42.555009" lon="12.8008683"><ele>833.0</ele><time>2026-05-01T11:05:37.717Z</time></trkpt><trkpt lat="42.5549855" lon="12.8009551"><ele>833.0</ele><time>2026-05-01T11:05:38.72Z</time></trkpt><trkpt lat="42.554954" lon="12.8010431"><ele>833.0000000000001</ele><time>2026-05-01T11:05:39.716Z</time></trkpt><trkpt lat="42.5549222" lon="12.8011467"><ele>833.0</ele><time>2026-05-01T11:05:40.727Z</time></trkpt><trkpt lat="42.5548973" lon="12.8012606"><ele>832.8</ele><time>2026-05-01T11:05:41.716Z</time></trkpt><trkpt lat="42.5548776" lon="12.8013888"><ele>832.5999999999999</ele><time>2026-05-01T11:05:42.718Z</time></trkpt><trkpt lat="42.5548594" lon="12.8015367"><ele>832.4000000000001</ele><time>2026-05-01T11:05:43.72Z</time></trkpt><trkpt lat="42.5548406" lon="12.8016908"><ele>832.2</ele><time>2026-05-01T11:05:44.715Z</time></trkpt><trkpt lat="42.5548153" lon="12.8018405"><ele>832.0</ele><time>2026-05-01T11:05:45.72Z</time></trkpt><trkpt lat="42.5547835" lon="12.8019783"><ele>830.2</ele><time>2026-05-01T11:05:46.713Z</time></trkpt><trkpt lat="42.5547457" lon="12.8021024"><ele>828.4000000000001</ele><time>2026-05-01T11:05:47.717Z</time></trkpt><trkpt lat="42.5547075" lon="12.8022209"><ele>826.5999999999999</ele><time>2026-05-01T11:05:48.719Z</time></trkpt><trkpt lat="42.5546673" lon="12.802342"><ele>824.8</ele><time>2026-05-01T11:05:49.723Z</time></trkpt><trkpt lat="42.5546362" lon="12.8024668"><ele>823.0</ele><time>2026-05-01T11:05:50.723Z</time></trkpt><trkpt lat="42.5546064" lon="12.8025923"><ele>823.3333333333333</ele><time>2026-05-01T11:05:51.717Z</time></trkpt><trkpt lat="42.5545875" lon="12.8027191"><ele>823.6666666666666</ele><time>2026-05-01T11:05:52.72Z</time></trkpt><trkpt lat="42.5545731" lon="12.8028438"><ele>824.0</ele><time>2026-05-01T11:05:53.728Z</time></trkpt><trkpt lat="42.5545638" lon="12.8029668"><ele>824.3333333333333</ele><time>2026-05-01T11:05:54.727Z</time></trkpt><trkpt lat="42.5545682" lon="12.8030763"><ele>824.6666666666666</ele><time>2026-05-01T11:05:55.725Z</time></trkpt><trkpt lat="42.5546045" lon="12.8031764"><ele>825.0</ele><time>2026-05-01T11:05:56.714Z</time></trkpt><trkpt lat="42.5547338" lon="12.8033327"><ele>825.0</ele><time>2026-05-01T11:05:58.714Z</time></trkpt><trkpt lat="42.5547958" lon="12.8033876"><ele>825.0</ele><time>2026-05-01T11:05:59.717Z</time></trkpt><trkpt lat="42.5548614" lon="12.803506"><ele>825.0</ele><time>2026-05-01T11:06:01.723Z</time></trkpt><trkpt lat="42.5548552" lon="12.8036641"><ele>825.0</ele><time>2026-05-01T11:06:03.727Z</time></trkpt><trkpt lat="42.5548349" lon="12.8037453"><ele>825.0</ele><time>2026-05-01T11:06:04.714Z</time></trkpt><trkpt lat="42.5548114" lon="12.8038366"><ele>825.0</ele><time>2026-05-01T11:06:05.715Z</time></trkpt><trkpt lat="42.5547857" lon="12.8039341"><ele>825.6666666666666</ele><time>2026-05-01T11:06:06.714Z</time></trkpt><trkpt lat="42.5547558" lon="12.8040372"><ele>826.3333333333333</ele><time>2026-05-01T11:06:07.723Z</time></trkpt><trkpt lat="42.5547235" lon="12.8041406"><ele>827.0</ele><time>2026-05-01T11:06:08.725Z</time></trkpt><trkpt lat="42.5546818" lon="12.8042468"><ele>827.6666666666666</ele><time>2026-05-01T11:06:09.722Z</time></trkpt><trkpt lat="42.5546418" lon="12.8043544"><ele>828.3333333333333</ele><time>2026-05-01T11:06:10.723Z</time></trkpt><trkpt lat="42.5546015" lon="12.8044628"><ele>829.0</ele><time>2026-05-01T11:06:11.726Z</time></trkpt><trkpt lat="42.5545555" lon="12.8045641"><ele>830.4000000000001</ele><time>2026-05-01T11:06:12.726Z</time></trkpt><trkpt lat="42.5545056" lon="12.8046513"><ele>831.8</ele><time>2026-05-01T11:06:13.719Z</time></trkpt><trkpt lat="42.5544574" lon="12.8047354"><ele>833.2</ele><time>2026-05-01T11:06:14.717Z</time></trkpt><trkpt lat="42.55442" lon="12.8048093"><ele>834.5999999999999</ele><time>2026-05-01T11:06:15.718Z</time></trkpt><trkpt lat="42.5543641" lon="12.8049351"><ele>836.0</ele><time>2026-05-01T11:06:17.721Z</time></trkpt><trkpt lat="42.5542725" lon="12.805172"><ele>837.8</ele><time>2026-05-01T11:07:19.709Z</time></trkpt><trkpt lat="42.5542348" lon="12.8053894"><ele>839.5999999999999</ele><time>2026-05-01T11:07:21.721Z</time></trkpt><trkpt lat="42.5542337" lon="12.8054925"><ele>841.4</ele><time>2026-05-01T11:07:22.72Z</time></trkpt><trkpt lat="42.5542425" lon="12.8055829"><ele>843.2</ele><time>2026-05-01T11:07:23.717Z</time></trkpt><trkpt lat="42.5542562" lon="12.8056802"><ele>845.0</ele><time>2026-05-01T11:07:24.716Z</time></trkpt><trkpt lat="42.5542651" lon="12.8057807"><ele>845.0000000000001</ele><time>2026-05-01T11:07:25.727Z</time></trkpt><trkpt lat="42.5542559" lon="12.8058736"><ele>845.0</ele><time>2026-05-01T11:07:26.718Z</time></trkpt><trkpt lat="42.5542494" lon="12.8059701"><ele>845.0</ele><time>2026-05-01T11:07:27.719Z</time></trkpt><trkpt lat="42.5542532" lon="12.8060569"><ele>845.0</ele><time>2026-05-01T11:07:28.723Z</time></trkpt><trkpt lat="42.5543295" lon="12.806205"><ele>845.0000000000001</ele><time>2026-05-01T11:07:30.717Z</time></trkpt><trkpt lat="42.5543877" lon="12.8062786"><ele>845.0</ele><time>2026-05-01T11:07:31.719Z</time></trkpt><trkpt lat="42.5544449" lon="12.806362"><ele>844.6666666666667</ele><time>2026-05-01T11:07:32.724Z</time></trkpt><trkpt lat="42.5544959" lon="12.8064479"><ele>844.3333333333334</ele><time>2026-05-01T11:07:33.715Z</time></trkpt><trkpt lat="42.5545377" lon="12.806535"><ele>844.0</ele><time>2026-05-01T11:07:34.721Z</time></trkpt><trkpt lat="42.5545789" lon="12.806616"><ele>843.6666666666667</ele><time>2026-05-01T11:07:35.726Z</time></trkpt><trkpt lat="42.5546216" lon="12.8066889"><ele>843.3333333333334</ele><time>2026-05-01T11:07:36.724Z</time></trkpt><trkpt lat="42.5547083" lon="12.806794"><ele>843.0</ele><time>2026-05-01T11:07:38.719Z</time></trkpt><trkpt lat="42.5548187" lon="12.8068553"><ele>848.2</ele><time>2026-05-01T11:07:40.717Z</time></trkpt><trkpt lat="42.5549892" lon="12.8069058"><ele>853.4</ele><time>2026-05-01T11:07:43.723Z</time></trkpt><trkpt lat="42.5550557" lon="12.806971"><ele>858.6000000000001</ele><time>2026-05-01T11:07:45.723Z</time></trkpt><trkpt lat="42.5551256" lon="12.807031"><ele>863.8000000000001</ele><time>2026-05-01T11:07:47.718Z</time></trkpt><trkpt lat="42.5551877" lon="12.807085"><ele>869.0</ele><time>2026-05-01T11:07:49.725Z</time></trkpt><trkpt lat="42.5552346" lon="12.8071602"><ele>869.0</ele><time>2026-05-01T11:07:51.722Z</time></trkpt><trkpt lat="42.555307" lon="12.8072329"><ele>869.0000000000001</ele><time>2026-05-01T11:07:53.717Z</time></trkpt><trkpt lat="42.555388" lon="12.8073212"><ele>869.0000000000001</ele><time>2026-05-01T11:07:55.717Z</time></trkpt><trkpt lat="42.5554714" lon="12.8074114"><ele>869.0</ele><time>2026-05-01T11:07:57.721Z</time></trkpt><trkpt lat="42.5555471" lon="12.8074796"><ele>869.0</ele><time>2026-05-01T11:07:59.722Z</time></trkpt><trkpt lat="42.5555972" lon="12.8075663"><ele>873.8000000000001</ele><time>2026-05-01T11:08:01.724Z</time></trkpt><trkpt lat="42.5555842" lon="12.8077674"><ele>878.6000000000001</ele><time>2026-05-01T11:08:06.715Z</time></trkpt><trkpt lat="42.5555848" lon="12.8078672"><ele>883.4</ele><time>2026-05-01T11:08:08.712Z</time></trkpt><trkpt lat="42.555579" lon="12.8079846"><ele>888.2</ele><time>2026-05-01T11:08:10.714Z</time></trkpt><trkpt lat="42.5555962" lon="12.8081005"><ele>893.0</ele><time>2026-05-01T11:08:12.712Z</time></trkpt><trkpt lat="42.5556366" lon="12.8082237"><ele>893.0</ele><time>2026-05-01T11:08:14.718Z</time></trkpt><trkpt lat="42.5556952" lon="12.8083621"><ele>893.0</ele><time>2026-05-01T11:08:16.728Z</time></trkpt><trkpt lat="42.5557463" lon="12.8084663"><ele>893.0</ele><time>2026-05-01T11:08:18.713Z</time></trkpt><trkpt lat="42.5557858" lon="12.8085446"><ele>893.0</ele><time>2026-05-01T11:09:41.723Z</time></trkpt><trkpt lat="42.5559023" lon="12.8087561"><ele>893.2</ele><time>2026-05-01T11:09:44.717Z</time></trkpt><trkpt lat="42.5559629" lon="12.8088581"><ele>893.4</ele><time>2026-05-01T11:09:45.714Z</time></trkpt><trkpt lat="42.5560411" lon="12.8089586"><ele>893.6000000000001</ele><time>2026-05-01T11:09:46.715Z</time></trkpt><trkpt lat="42.5561323" lon="12.8090445"><ele>893.8000000000001</ele><time>2026-05-01T11:09:47.711Z</time></trkpt><trkpt lat="42.5562078" lon="12.8091157"><ele>894.0</ele><time>2026-05-01T11:09:48.722Z</time></trkpt><trkpt lat="42.556275" lon="12.8091625"><ele>895.1666666666666</ele><time>2026-05-01T11:09:49.712Z</time></trkpt><trkpt lat="42.5563503" lon="12.8092069"><ele>896.3333333333333</ele><time>2026-05-01T11:09:50.718Z</time></trkpt><trkpt lat="42.55643" lon="12.8092547"><ele>897.5</ele><time>2026-05-01T11:09:51.718Z</time></trkpt><trkpt lat="42.5565081" lon="12.8093016"><ele>898.6666666666666</ele><time>2026-05-01T11:09:52.716Z</time></trkpt><trkpt lat="42.5565895" lon="12.8093409"><ele>899.8333333333333</ele><time>2026-05-01T11:09:53.713Z</time></trkpt><trkpt lat="42.5566718" lon="12.8093849"><ele>901.0</ele><time>2026-05-01T11:09:54.724Z</time></trkpt><trkpt lat="42.5567604" lon="12.8094322"><ele>900.9999999999999</ele><time>2026-05-01T11:09:55.714Z</time></trkpt><trkpt lat="42.5568518" lon="12.8094806"><ele>901.0</ele><time>2026-05-01T11:09:56.712Z</time></trkpt><trkpt lat="42.5569425" lon="12.8095228"><ele>901.0</ele><time>2026-05-01T11:09:57.715Z</time></trkpt><trkpt lat="42.5570271" lon="12.8095613"><ele>901.0</ele><time>2026-05-01T11:09:58.716Z</time></trkpt><trkpt lat="42.5571023" lon="12.8096147"><ele>900.9999999999999</ele><time>2026-05-01T11:09:59.716Z</time></trkpt><trkpt lat="42.5571569" lon="12.8096699"><ele>901.0</ele><time>2026-05-01T11:10:00.715Z</time></trkpt><trkpt lat="42.5572509" lon="12.8097709"><ele>903.1999999999999</ele><time>2026-05-01T11:10:02.716Z</time></trkpt><trkpt lat="42.5573718" lon="12.8098899"><ele>905.3999999999999</ele><time>2026-05-01T11:10:04.713Z</time></trkpt><trkpt lat="42.5574163" lon="12.8099791"><ele>907.6</ele><time>2026-05-01T11:10:05.717Z</time></trkpt><trkpt lat="42.5574541" lon="12.810081"><ele>909.8</ele><time>2026-05-01T11:10:06.713Z</time></trkpt><trkpt lat="42.5574961" lon="12.8101818"><ele>912.0</ele><time>2026-05-01T11:10:07.718Z</time></trkpt><trkpt lat="42.5575371" lon="12.8102794"><ele>912.0</ele><time>2026-05-01T11:10:08.717Z</time></trkpt><trkpt lat="42.5575796" lon="12.8103692"><ele>911.9999999999999</ele><time>2026-05-01T11:10:09.73Z</time></trkpt><trkpt lat="42.5576217" lon="12.8104533"><ele>912.0</ele><time>2026-05-01T11:10:10.713Z</time></trkpt><trkpt lat="42.5576641" lon="12.8105269"><ele>912.0</ele><time>2026-05-01T11:10:11.726Z</time></trkpt><trkpt lat="42.5577172" lon="12.8105848"><ele>911.9999999999999</ele><time>2026-05-01T11:10:12.715Z</time></trkpt><trkpt lat="42.5577715" lon="12.8106415"><ele>912.0</ele><time>2026-05-01T11:10:13.716Z</time></trkpt><trkpt lat="42.5578183" lon="12.8107063"><ele>912.0</ele><time>2026-05-01T11:10:14.721Z</time></trkpt><trkpt lat="42.5578604" lon="12.8107769"><ele>913.3333333333334</ele><time>2026-05-01T11:10:15.721Z</time></trkpt><trkpt lat="42.5579009" lon="12.810855"><ele>914.6666666666667</ele><time>2026-05-01T11:10:16.713Z</time></trkpt><trkpt lat="42.5579372" lon="12.8109419"><ele>916.0</ele><time>2026-05-01T11:10:17.719Z</time></trkpt><trkpt lat="42.557966" lon="12.8110352"><ele>917.3333333333334</ele><time>2026-05-01T11:10:18.724Z</time></trkpt><trkpt lat="42.5579862" lon="12.8111354"><ele>918.6666666666667</ele><time>2026-05-01T11:10:19.717Z</time></trkpt><trkpt lat="42.5580118" lon="12.8112421"><ele>920.0</ele><time>2026-05-01T11:10:20.716Z</time></trkpt><trkpt lat="42.5580455" lon="12.8113527"><ele>920.2</ele><time>2026-05-01T11:10:21.72Z</time></trkpt><trkpt lat="42.5580795" lon="12.8114611"><ele>920.4</ele><time>2026-05-01T11:10:22.721Z</time></trkpt><trkpt lat="42.5581005" lon="12.8115568"><ele>920.5999999999999</ele><time>2026-05-01T11:10:23.721Z</time></trkpt><trkpt lat="42.5581341" lon="12.8117269"><ele>920.8</ele><time>2026-05-01T11:10:25.711Z</time></trkpt><trkpt lat="42.5581752" lon="12.8118657"><ele>921.0</ele><time>2026-05-01T11:10:27.722Z</time></trkpt><trkpt lat="42.5581932" lon="12.8120012"><ele>921.0</ele><time>2026-05-01T11:10:29.711Z</time></trkpt><trkpt lat="42.5582168" lon="12.8121488"><ele>920.9999999999999</ele><time>2026-05-01T11:10:31.713Z</time></trkpt><trkpt lat="42.5582374" lon="12.8122927"><ele>920.9999999999999</ele><time>2026-05-01T11:10:33.725Z</time></trkpt><trkpt lat="42.5582145" lon="12.8124113"><ele>921.0</ele><time>2026-05-01T11:10:35.722Z</time></trkpt><trkpt lat="42.5581978" lon="12.8125293"><ele>921.0</ele><time>2026-05-01T11:10:37.722Z</time></trkpt><trkpt lat="42.5581932" lon="12.8126576"><ele>919.0</ele><time>2026-05-01T11:10:39.723Z</time></trkpt><trkpt lat="42.558177" lon="12.8127861"><ele>916.9999999999999</ele><time>2026-05-01T11:10:41.716Z</time></trkpt><trkpt lat="42.5581643" lon="12.8128971"><ele>914.9999999999999</ele><time>2026-05-01T11:10:43.719Z</time></trkpt><trkpt lat="42.5581482" lon="12.8130012"><ele>913.0</ele><time>2026-05-01T11:10:55.725Z</time></trkpt><trkpt lat="42.5581259" lon="12.8132257"><ele>911.0</ele><time>2026-05-01T11:10:57.715Z</time></trkpt><trkpt lat="42.5581049" lon="12.8133557"><ele>911.0000000000001</ele><time>2026-05-01T11:10:58.711Z</time></trkpt><trkpt lat="42.5580804" lon="12.8134614"><ele>911.0</ele><time>2026-05-01T11:10:59.725Z</time></trkpt><trkpt lat="42.5580637" lon="12.8135513"><ele>911.0</ele><time>2026-05-01T11:11:00.725Z</time></trkpt><trkpt lat="42.5580404" lon="12.8136657"><ele>911.0</ele><time>2026-05-01T11:11:02.721Z</time></trkpt><trkpt lat="42.5579823" lon="12.8137426"><ele>911.0000000000001</ele><time>2026-05-01T11:11:05.716Z</time></trkpt><trkpt lat="42.5579207" lon="12.8138068"><ele>911.0</ele><time>2026-05-01T11:11:07.718Z</time></trkpt><trkpt lat="42.5578887" lon="12.8138832"><ele>909.3333333333334</ele><time>2026-05-01T11:11:09.721Z</time></trkpt><trkpt lat="42.5578897" lon="12.8140252"><ele>907.6666666666667</ele><time>2026-05-01T11:11:11.732Z</time></trkpt><trkpt lat="42.5579114" lon="12.8141197"><ele>906.0</ele><time>2026-05-01T11:11:12.716Z</time></trkpt><trkpt lat="42.5579444" lon="12.8142149"><ele>904.3333333333333</ele><time>2026-05-01T11:11:13.713Z</time></trkpt><trkpt lat="42.5579726" lon="12.8143045"><ele>902.6666666666666</ele><time>2026-05-01T11:11:14.711Z</time></trkpt><trkpt lat="42.5580015" lon="12.8143878"><ele>901.0</ele><time>2026-05-01T11:11:15.717Z</time></trkpt><trkpt lat="42.55802" lon="12.8144711"><ele>898.25</ele><time>2026-05-01T11:11:16.717Z</time></trkpt><trkpt lat="42.5580165" lon="12.8147279"><ele>895.5</ele><time>2026-05-01T11:11:20.709Z</time></trkpt><trkpt lat="42.5579928" lon="12.8148441"><ele>892.75</ele><time>2026-05-01T11:11:22.72Z</time></trkpt><trkpt lat="42.5579745" lon="12.8149769"><ele>890.0</ele><time>2026-05-01T11:11:24.71Z</time></trkpt><trkpt lat="42.5579825" lon="12.815129"><ele>889.4</ele><time>2026-05-01T11:11:26.719Z</time></trkpt><trkpt lat="42.5579821" lon="12.8152826"><ele>888.8</ele><time>2026-05-01T11:11:28.721Z</time></trkpt><trkpt lat="42.5579476" lon="12.8154351"><ele>888.2</ele><time>2026-05-01T11:11:30.711Z</time></trkpt><trkpt lat="42.5579101" lon="12.8155199"><ele>887.6</ele><time>2026-05-01T11:11:31.713Z</time></trkpt><trkpt lat="42.5578752" lon="12.8156177"><ele>887.0</ele><time>2026-05-01T11:11:32.716Z</time></trkpt><trkpt lat="42.5578374" lon="12.8157288"><ele>886.8</ele><time>2026-05-01T11:11:33.716Z</time></trkpt><trkpt lat="42.5577973" lon="12.815857"><ele>886.6</ele><time>2026-05-01T11:11:34.714Z</time></trkpt><trkpt lat="42.5577662" lon="12.8159858"><ele>886.3999999999999</ele><time>2026-05-01T11:11:35.723Z</time></trkpt><trkpt lat="42.5577548" lon="12.8161088"><ele>886.1999999999999</ele><time>2026-05-01T11:11:36.713Z</time></trkpt><trkpt lat="42.5577547" lon="12.8162278"><ele>886.0</ele><time>2026-05-01T11:11:37.722Z</time></trkpt><trkpt lat="42.5577997" lon="12.8164269"><ele>887.75</ele><time>2026-05-01T11:12:02.719Z</time></trkpt><trkpt lat="42.5578867" lon="12.8166772"><ele>889.5</ele><time>2026-05-01T11:12:05.716Z</time></trkpt><trkpt lat="42.5579514" lon="12.8167783"><ele>891.25</ele><time>2026-05-01T11:12:06.714Z</time></trkpt><trkpt lat="42.5580286" lon="12.8168747"><ele>893.0</ele><time>2026-05-01T11:12:07.724Z</time></trkpt><trkpt lat="42.5580844" lon="12.8169615"><ele>893.8333333333334</ele><time>2026-05-01T11:12:08.712Z</time></trkpt><trkpt lat="42.5581291" lon="12.817059"><ele>894.6666666666667</ele><time>2026-05-01T11:12:09.709Z</time></trkpt><trkpt lat="42.5581643" lon="12.8171497"><ele>895.5</ele><time>2026-05-01T11:12:10.712Z</time></trkpt><trkpt lat="42.5581889" lon="12.8172309"><ele>896.3333333333333</ele><time>2026-05-01T11:12:11.727Z</time></trkpt><trkpt lat="42.5582249" lon="12.8173595"><ele>897.1666666666666</ele><time>2026-05-01T11:12:13.721Z</time></trkpt><trkpt lat="42.5582625" lon="12.8174364"><ele>898.0</ele><time>2026-05-01T11:12:14.717Z</time></trkpt><trkpt lat="42.5583086" lon="12.8175398"><ele>900.0</ele><time>2026-05-01T11:12:15.717Z</time></trkpt><trkpt lat="42.5583584" lon="12.8176613"><ele>902.0</ele><time>2026-05-01T11:12:16.719Z</time></trkpt><trkpt lat="42.5583958" lon="12.817782"><ele>904.0</ele><time>2026-05-01T11:12:17.717Z</time></trkpt><trkpt lat="42.5584258" lon="12.8179004"><ele>906.0</ele><time>2026-05-01T11:12:18.717Z</time></trkpt><trkpt lat="42.5584547" lon="12.8180117"><ele>908.0</ele><time>2026-05-01T11:12:19.72Z</time></trkpt><trkpt lat="42.5584815" lon="12.818126"><ele>908.0</ele><time>2026-05-01T11:12:20.715Z</time></trkpt><trkpt lat="42.558502" lon="12.8182405"><ele>908.0</ele><time>2026-05-01T11:12:21.717Z</time></trkpt><trkpt lat="42.5585163" lon="12.8183532"><ele>908.0</ele><time>2026-05-01T11:12:22.72Z</time></trkpt><trkpt lat="42.5585253" lon="12.8184616"><ele>908.0</ele><time>2026-05-01T11:12:23.718Z</time></trkpt><trkpt lat="42.5585227" lon="12.8186594"><ele>908.0</ele><time>2026-05-01T11:12:25.716Z</time></trkpt><trkpt lat="42.5585167" lon="12.8187529"><ele>909.0000000000001</ele><time>2026-05-01T11:12:26.713Z</time></trkpt><trkpt lat="42.558519" lon="12.8188418"><ele>910.0</ele><time>2026-05-01T11:12:27.723Z</time></trkpt><trkpt lat="42.5585231" lon="12.8189331"><ele>911.0</ele><time>2026-05-01T11:12:28.718Z</time></trkpt><trkpt lat="42.5585284" lon="12.8190791"><ele>912.0</ele><time>2026-05-01T11:12:30.724Z</time></trkpt><trkpt lat="42.558553" lon="12.8191761"><ele>913.0000000000001</ele><time>2026-05-01T11:12:32.719Z</time></trkpt><trkpt lat="42.5586156" lon="12.8192345"><ele>914.0</ele><time>2026-05-01T11:12:34.716Z</time></trkpt><trkpt lat="42.5586871" lon="12.8192524"><ele>920.0</ele><time>2026-05-01T11:12:37.715Z</time></trkpt><trkpt lat="42.5587403" lon="12.8193445"><ele>926.0000000000001</ele><time>2026-05-01T11:12:40.719Z</time></trkpt><trkpt lat="42.5588127" lon="12.8194531"><ele>932.0000000000001</ele><time>2026-05-01T11:12:42.712Z</time></trkpt><trkpt lat="42.5588596" lon="12.8195135"><ele>938.0</ele><time>2026-05-01T11:12:43.714Z</time></trkpt><trkpt lat="42.5589413" lon="12.819604"><ele>944.0</ele><time>2026-05-01T11:12:45.725Z</time></trkpt><trkpt lat="42.5591027" lon="12.8197488"><ele>944.0000000000001</ele><time>2026-05-01T11:12:49.724Z</time></trkpt><trkpt lat="42.5591939" lon="12.8198124"><ele>944.0</ele><time>2026-05-01T11:12:51.715Z</time></trkpt><trkpt lat="42.5593092" lon="12.8198933"><ele>944.0</ele><time>2026-05-01T11:12:53.716Z</time></trkpt><trkpt lat="42.5593632" lon="12.8199517"><ele>944.0</ele><time>2026-05-01T11:12:54.721Z</time></trkpt><trkpt lat="42.5594047" lon="12.8200198"><ele>944.0000000000001</ele><time>2026-05-01T11:12:55.715Z</time></trkpt><trkpt lat="42.5594356" lon="12.8200954"><ele>944.0</ele><time>2026-05-01T11:12:56.708Z</time></trkpt><trkpt lat="42.559491" lon="12.8202368"><ele>943.5000000000001</ele><time>2026-05-01T11:12:58.723Z</time></trkpt><trkpt lat="42.5595286" lon="12.8203542"><ele>943.0</ele><time>2026-05-01T11:13:00.716Z</time></trkpt><trkpt lat="42.5595975" lon="12.8204882"><ele>942.5</ele><time>2026-05-01T11:13:02.715Z</time></trkpt><trkpt lat="42.5596296" lon="12.8205773"><ele>942.0</ele><time>2026-05-01T11:13:03.71Z</time></trkpt><trkpt lat="42.5596563" lon="12.8206791"><ele>941.5000000000001</ele><time>2026-05-01T11:13:04.716Z</time></trkpt><trkpt lat="42.5596822" lon="12.8207735"><ele>941.0</ele><time>2026-05-01T11:13:05.718Z</time></trkpt><trkpt lat="42.5597104" lon="12.8208652"><ele>944.4</ele><time>2026-05-01T11:13:06.721Z</time></trkpt><trkpt lat="42.5597959" lon="12.8210556"><ele>947.8</ele><time>2026-05-01T11:13:09.728Z</time></trkpt><trkpt lat="42.5598424" lon="12.8211562"><ele>951.1999999999999</ele><time>2026-05-01T11:13:11.726Z</time></trkpt><trkpt lat="42.5598632" lon="12.8212679"><ele>954.5999999999999</ele><time>2026-05-01T11:13:13.712Z</time></trkpt><trkpt lat="42.5599016" lon="12.8213765"><ele>958.0</ele><time>2026-05-01T11:13:15.717Z</time></trkpt><trkpt lat="42.5599533" lon="12.821461"><ele>957.9999999999999</ele><time>2026-05-01T11:13:17.719Z</time></trkpt><trkpt lat="42.5600125" lon="12.8215514"><ele>958.0</ele><time>2026-05-01T11:13:19.713Z</time></trkpt><trkpt lat="42.5600756" lon="12.8216274"><ele>958.0</ele><time>2026-05-01T11:13:21.721Z</time></trkpt><trkpt lat="42.5601249" lon="12.821718"><ele>958.0</ele><time>2026-05-01T11:13:23.722Z</time></trkpt><trkpt lat="42.5601589" lon="12.8217989"><ele>957.9999999999999</ele><time>2026-05-01T11:13:25.714Z</time></trkpt><trkpt lat="42.560199" lon="12.8218695"><ele>958.0</ele><time>2026-05-01T11:13:27.719Z</time></trkpt><trkpt lat="42.5602702" lon="12.8220456"><ele>958.9999999999999</ele><time>2026-05-01T11:13:31.713Z</time></trkpt><trkpt lat="42.5603043" lon="12.8221213"><ele>960.0</ele><time>2026-05-01T11:13:33.713Z</time></trkpt><trkpt lat="42.5603406" lon="12.8222072"><ele>961.0</ele><time>2026-05-01T11:13:35.715Z</time></trkpt><trkpt lat="42.5603758" lon="12.8223152"><ele>962.0</ele><time>2026-05-01T11:13:37.718Z</time></trkpt><trkpt lat="42.5604043" lon="12.8224371"><ele>962.9999999999999</ele><time>2026-05-01T11:13:39.714Z</time></trkpt><trkpt lat="42.5604289" lon="12.8225327"><ele>964.0</ele><time>2026-05-01T11:13:41.71Z</time></trkpt><trkpt lat="42.5604581" lon="12.8226569"><ele>966.75</ele><time>2026-05-01T11:13:54.715Z</time></trkpt><trkpt lat="42.5605059" lon="12.8229539"><ele>969.5</ele><time>2026-05-01T11:13:57.712Z</time></trkpt><trkpt lat="42.5605072" lon="12.8230529"><ele>972.25</ele><time>2026-05-01T11:13:58.717Z</time></trkpt><trkpt lat="42.5604458" lon="12.8231966"><ele>975.0</ele><time>2026-05-01T11:14:00.714Z</time></trkpt><trkpt lat="42.5603866" lon="12.8232639"><ele>974.6666666666666</ele><time>2026-05-01T11:14:01.712Z</time></trkpt><trkpt lat="42.5603191" lon="12.8233341"><ele>974.3333333333333</ele><time>2026-05-01T11:14:02.719Z</time></trkpt><trkpt lat="42.5602467" lon="12.8234102"><ele>974.0</ele><time>2026-05-01T11:14:03.716Z</time></trkpt><trkpt lat="42.5601708" lon="12.8234818"><ele>973.6666666666666</ele><time>2026-05-01T11:14:04.714Z</time></trkpt><trkpt lat="42.5600998" lon="12.8235357"><ele>973.3333333333333</ele><time>2026-05-01T11:14:05.715Z</time></trkpt><trkpt lat="42.5600109" lon="12.8235853"><ele>973.0</ele><time>2026-05-01T11:14:07.712Z</time></trkpt><trkpt lat="42.5599955" lon="12.8236939"><ele>974.3333333333333</ele><time>2026-05-01T11:14:09.721Z</time></trkpt><trkpt lat="42.56007" lon="12.8238366"><ele>975.6666666666666</ele><time>2026-05-01T11:14:11.712Z</time></trkpt><trkpt lat="42.560117" lon="12.8238937"><ele>977.0</ele><time>2026-05-01T11:14:12.723Z</time></trkpt><trkpt lat="42.560168" lon="12.8239517"><ele>978.3333333333333</ele><time>2026-05-01T11:14:13.714Z</time></trkpt><trkpt lat="42.5602205" lon="12.8240196"><ele>979.6666666666666</ele><time>2026-05-01T11:14:14.713Z</time></trkpt><trkpt lat="42.5602784" lon="12.8240933"><ele>981.0</ele><time>2026-05-01T11:14:15.714Z</time></trkpt><trkpt lat="42.560408" lon="12.8242374"><ele>982.0</ele><time>2026-05-01T11:14:17.712Z</time></trkpt><trkpt lat="42.5604691" lon="12.8243118"><ele>983.0</ele><time>2026-05-01T11:14:18.713Z</time></trkpt><trkpt lat="42.5605178" lon="12.8243898"><ele>984.0</ele><time>2026-05-01T11:14:19.708Z</time></trkpt><trkpt lat="42.5605499" lon="12.8244803"><ele>985.0</ele><time>2026-05-01T11:14:20.716Z</time></trkpt><trkpt lat="42.5605671" lon="12.8245822"><ele>986.0</ele><time>2026-05-01T11:14:21.718Z</time></trkpt><trkpt lat="42.5605806" lon="12.8246872"><ele>987.0</ele><time>2026-05-01T11:14:22.711Z</time></trkpt><trkpt lat="42.5605926" lon="12.8247964"><ele>988.2</ele><time>2026-05-01T11:14:23.715Z</time></trkpt><trkpt lat="42.5606055" lon="12.8249167"><ele>989.4000000000001</ele><time>2026-05-01T11:14:24.712Z</time></trkpt><trkpt lat="42.5606119" lon="12.8250475"><ele>990.5999999999999</ele><time>2026-05-01T11:14:25.718Z</time></trkpt><trkpt lat="42.5606063" lon="12.825174"><ele>991.8</ele><time>2026-05-01T11:14:26.718Z</time></trkpt><trkpt lat="42.5605842" lon="12.8252966"><ele>993.0</ele><time>2026-05-01T11:14:27.711Z</time></trkpt><trkpt lat="42.5605599" lon="12.8254108"><ele>994.6666666666666</ele><time>2026-05-01T11:14:28.712Z</time></trkpt><trkpt lat="42.5605423" lon="12.8255198"><ele>996.3333333333333</ele><time>2026-05-01T11:14:29.715Z</time></trkpt><trkpt lat="42.560534" lon="12.8256263"><ele>998.0</ele><time>2026-05-01T11:14:30.71Z</time></trkpt><trkpt lat="42.5605303" lon="12.8257387"><ele>999.6666666666666</ele><time>2026-05-01T11:14:31.713Z</time></trkpt><trkpt lat="42.5605235" lon="12.825864"><ele>1001.3333333333333</ele><time>2026-05-01T11:14:32.723Z</time></trkpt><trkpt lat="42.5605167" lon="12.8259852"><ele>1003.0</ele><time>2026-05-01T11:14:33.716Z</time></trkpt><trkpt lat="42.5605172" lon="12.8260787"><ele>1003.0</ele><time>2026-05-01T11:14:34.715Z</time></trkpt><trkpt lat="42.5604563" lon="12.8261506"><ele>1003.0</ele><time>2026-05-01T11:14:36.716Z</time></trkpt><trkpt lat="42.560325" lon="12.8261708"><ele>1003.0</ele><time>2026-05-01T11:14:38.709Z</time></trkpt><trkpt lat="42.5602132" lon="12.8262165"><ele>1003.0</ele><time>2026-05-01T11:14:40.71Z</time></trkpt><trkpt lat="42.5601321" lon="12.8262985"><ele>1003.0</ele><time>2026-05-01T11:14:42.715Z</time></trkpt><trkpt lat="42.5600483" lon="12.8264387"><ele>1003.0</ele><time>2026-05-01T11:14:44.717Z</time></trkpt><trkpt lat="42.5600041" lon="12.8265362"><ele>1003.0</ele><time>2026-05-01T11:14:45.714Z</time></trkpt><trkpt lat="42.5599691" lon="12.8266377"><ele>1003.0</ele><time>2026-05-01T11:14:46.709Z</time></trkpt><trkpt lat="42.5599331" lon="12.8267202"><ele>1003.0</ele><time>2026-05-01T11:14:47.711Z</time></trkpt><trkpt lat="42.5598448" lon="12.8268135"><ele>1003.0</ele><time>2026-05-01T11:14:49.718Z</time></trkpt><trkpt lat="42.5597339" lon="12.8267922"><ele>1002.9999999999999</ele><time>2026-05-01T11:14:51.717Z</time></trkpt><trkpt lat="42.5596546" lon="12.8266757"><ele>1003.0</ele><time>2026-05-01T11:14:53.72Z</time></trkpt><trkpt lat="42.5596273" lon="12.8265861"><ele>1003.0</ele><time>2026-05-01T11:14:54.725Z</time></trkpt><trkpt lat="42.559593" lon="12.8264849"><ele>1003.0</ele><time>2026-05-01T11:14:55.714Z</time></trkpt><trkpt lat="42.5595446" lon="12.8263904"><ele>1002.9999999999999</ele><time>2026-05-01T11:14:56.712Z</time></trkpt><trkpt lat="42.5594991" lon="12.8263126"><ele>1003.0</ele><time>2026-05-01T11:14:57.723Z</time></trkpt><trkpt lat="42.559357" lon="12.8261869"><ele>1000.9999999999999</ele><time>2026-05-01T11:15:00.718Z</time></trkpt><trkpt lat="42.5592673" lon="12.8262207"><ele>999.0</ele><time>2026-05-01T11:15:02.706Z</time></trkpt><trkpt lat="42.5592087" lon="12.8262631"><ele>997.0</ele><time>2026-05-01T11:15:03.715Z</time></trkpt><trkpt lat="42.5591504" lon="12.8263166"><ele>995.0</ele><time>2026-05-01T11:15:04.712Z</time></trkpt><trkpt lat="42.5590932" lon="12.8263601"><ele>992.9999999999999</ele><time>2026-05-01T11:15:05.711Z</time></trkpt><trkpt lat="42.5589723" lon="12.826376"><ele>991.0</ele><time>2026-05-01T11:15:07.721Z</time></trkpt><trkpt lat="42.5589125" lon="12.8263429"><ele>990.9999999999999</ele><time>2026-05-01T11:15:08.718Z</time></trkpt><trkpt lat="42.5588461" lon="12.826318"><ele>991.0</ele><time>2026-05-01T11:15:09.72Z</time></trkpt><trkpt lat="42.5587804" lon="12.8263008"><ele>991.0</ele><time>2026-05-01T11:15:10.717Z</time></trkpt><trkpt lat="42.5587164" lon="12.8262804"><ele>991.0</ele><time>2026-05-01T11:15:11.714Z</time></trkpt><trkpt lat="42.5586529" lon="12.826261"><ele>990.9999999999999</ele><time>2026-05-01T11:15:12.719Z</time></trkpt><trkpt lat="42.5585429" lon="12.8262228"><ele>991.0</ele><time>2026-05-01T11:15:14.714Z</time></trkpt><trkpt lat="42.5584342" lon="12.8261641"><ele>991.0</ele><time>2026-05-01T11:15:16.711Z</time></trkpt><trkpt lat="42.5583329" lon="12.8261205"><ele>991.0</ele><time>2026-05-01T11:15:18.709Z</time></trkpt><trkpt lat="42.5581538" lon="12.8260928"><ele>991.0</ele><time>2026-05-01T11:15:22.712Z</time></trkpt><trkpt lat="42.558061" lon="12.8261164"><ele>991.0</ele><time>2026-05-01T11:15:24.713Z</time></trkpt><trkpt lat="42.5579819" lon="12.8261773"><ele>991.0</ele><time>2026-05-01T11:15:26.715Z</time></trkpt><trkpt lat="42.5579368" lon="12.8262941"><ele>990.9999999999999</ele><time>2026-05-01T11:15:28.716Z</time></trkpt><trkpt lat="42.5579107" lon="12.8264529"><ele>990.9999999999999</ele><time>2026-05-01T11:15:30.719Z</time></trkpt><trkpt lat="42.5579037" lon="12.8265932"><ele>991.0</ele><time>2026-05-01T11:15:32.716Z</time></trkpt><trkpt lat="42.5578964" lon="12.8267183"><ele>991.0</ele><time>2026-05-01T11:15:34.72Z</time></trkpt><trkpt lat="42.5578883" lon="12.8268309"><ele>990.75</ele><time>2026-05-01T11:15:36.71Z</time></trkpt><trkpt lat="42.5578678" lon="12.8269545"><ele>990.5</ele><time>2026-05-01T11:15:38.714Z</time></trkpt><trkpt lat="42.5578541" lon="12.8270796"><ele>990.25</ele><time>2026-05-01T11:15:40.709Z</time></trkpt><trkpt lat="42.5578423" lon="12.8273685"><ele>990.0</ele><time>2026-05-01T11:15:44.709Z</time></trkpt><trkpt lat="42.5578469" lon="12.82754"><ele>990.0</ele><time>2026-05-01T11:15:46.717Z</time></trkpt><trkpt lat="42.5578581" lon="12.8276264"><ele>990.0</ele><time>2026-05-01T11:15:47.713Z</time></trkpt><trkpt lat="42.5578748" lon="12.827713"><ele>990.0</ele><time>2026-05-01T11:15:48.71Z</time></trkpt><trkpt lat="42.5578976" lon="12.8278091"><ele>990.0</ele><time>2026-05-01T11:15:49.716Z</time></trkpt><trkpt lat="42.5579223" lon="12.8279193"><ele>990.0</ele><time>2026-05-01T11:15:50.712Z</time></trkpt><trkpt lat="42.5579463" lon="12.8280404"><ele>990.0</ele><time>2026-05-01T11:15:51.718Z</time></trkpt><trkpt lat="42.5579762" lon="12.8281688"><ele>993.1666666666666</ele><time>2026-05-01T11:15:52.719Z</time></trkpt><trkpt lat="42.5580141" lon="12.8282993"><ele>996.3333333333333</ele><time>2026-05-01T11:15:53.718Z</time></trkpt><trkpt lat="42.5580462" lon="12.8284262"><ele>999.5</ele><time>2026-05-01T11:15:54.714Z</time></trkpt><trkpt lat="42.5580747" lon="12.8285488"><ele>1002.6666666666666</ele><time>2026-05-01T11:15:55.712Z</time></trkpt><trkpt lat="42.5580914" lon="12.8286409"><ele>1005.8333333333333</ele><time>2026-05-01T11:15:56.711Z</time></trkpt><trkpt lat="42.5580569" lon="12.8287326"><ele>1009.0</ele><time>2026-05-01T11:15:58.712Z</time></trkpt><trkpt lat="42.5580002" lon="12.828689"><ele>1008.5</ele><time>2026-05-01T11:16:27.715Z</time></trkpt><trkpt lat="42.5577878" lon="12.8285066"><ele>1008.0</ele><time>2026-05-01T11:16:31.712Z</time></trkpt><trkpt lat="42.5576902" lon="12.8284568"><ele>1007.5</ele><time>2026-05-01T11:16:32.713Z</time></trkpt><trkpt lat="42.5576187" lon="12.8284542"><ele>1007.0</ele><time>2026-05-01T11:16:33.708Z</time></trkpt><trkpt lat="42.5575352" lon="12.8285428"><ele>1007.0</ele><time>2026-05-01T11:16:35.711Z</time></trkpt><trkpt lat="42.5575321" lon="12.8287208"><ele>1007.0</ele><time>2026-05-01T11:16:37.721Z</time></trkpt><trkpt lat="42.5575531" lon="12.8288388"><ele>1007.0</ele><time>2026-05-01T11:16:38.715Z</time></trkpt><trkpt lat="42.5575884" lon="12.8289598"><ele>1007.0</ele><time>2026-05-01T11:16:39.712Z</time></trkpt><trkpt lat="42.5576323" lon="12.8290764"><ele>1007.0</ele><time>2026-05-01T11:16:40.709Z</time></trkpt><trkpt lat="42.55768" lon="12.829193"><ele>1008.0</ele><time>2026-05-01T11:16:41.713Z</time></trkpt><trkpt lat="42.5577305" lon="12.8293114"><ele>1009.0</ele><time>2026-05-01T11:16:42.709Z</time></trkpt><trkpt lat="42.5577814" lon="12.8294274"><ele>1010.0</ele><time>2026-05-01T11:16:43.723Z</time></trkpt><trkpt lat="42.5578232" lon="12.829548"><ele>1011.0</ele><time>2026-05-01T11:16:44.722Z</time></trkpt><trkpt lat="42.5578551" lon="12.8296802"><ele>1012.0</ele><time>2026-05-01T11:16:45.714Z</time></trkpt><trkpt lat="42.5578833" lon="12.8298182"><ele>1014.0</ele><time>2026-05-01T11:16:46.714Z</time></trkpt><trkpt lat="42.5579091" lon="12.8299422"><ele>1016.0</ele><time>2026-05-01T11:16:47.72Z</time></trkpt><trkpt lat="42.5579381" lon="12.8300604"><ele>1018.0</ele><time>2026-05-01T11:16:48.713Z</time></trkpt><trkpt lat="42.558017" lon="12.8302919"><ele>1020.0</ele><time>2026-05-01T11:16:50.713Z</time></trkpt><trkpt lat="42.5580598" lon="12.830406"><ele>1022.2</ele><time>2026-05-01T11:16:51.709Z</time></trkpt><trkpt lat="42.5580942" lon="12.8305331"><ele>1024.4</ele><time>2026-05-01T11:16:52.722Z</time></trkpt><trkpt lat="42.5581271" lon="12.8306628"><ele>1026.6</ele><time>2026-05-01T11:16:53.711Z</time></trkpt><trkpt lat="42.5581571" lon="12.8307943"><ele>1028.8</ele><time>2026-05-01T11:16:54.71Z</time></trkpt><trkpt lat="42.5581873" lon="12.8309238"><ele>1031.0</ele><time>2026-05-01T11:16:55.721Z</time></trkpt><trkpt lat="42.558214" lon="12.8310261"><ele>1032.25</ele><time>2026-05-01T11:16:56.714Z</time></trkpt><trkpt lat="42.5582615" lon="12.831097"><ele>1033.5</ele><time>2026-05-01T11:16:59.713Z</time></trkpt><trkpt lat="42.5583475" lon="12.8310693"><ele>1034.75</ele><time>2026-05-01T11:17:02.715Z</time></trkpt><trkpt lat="42.5584207" lon="12.8310726"><ele>1036.0</ele><time>2026-05-01T11:23:49.717Z</time></trkpt><trkpt lat="42.5586053" lon="12.8312844"><ele>1036.0</ele><time>2026-05-01T11:23:53.716Z</time></trkpt><trkpt lat="42.5586795" lon="12.8313518"><ele>1036.0</ele><time>2026-05-01T11:23:54.706Z</time></trkpt><trkpt lat="42.558768" lon="12.8314296"><ele>1036.0</ele><time>2026-05-01T11:23:55.719Z</time></trkpt><trkpt lat="42.5588479" lon="12.831511"><ele>1036.0</ele><time>2026-05-01T11:23:56.71Z</time></trkpt><trkpt lat="42.5589128" lon="12.8315809"><ele>1036.0</ele><time>2026-05-01T11:23:57.719Z</time></trkpt><trkpt lat="42.5589991" lon="12.8316744"><ele>1038.5</ele><time>2026-05-01T11:23:59.719Z</time></trkpt><trkpt lat="42.5590759" lon="12.8317221"><ele>1041.0</ele><time>2026-05-01T11:24:31.715Z</time></trkpt><trkpt lat="42.5592623" lon="12.8318625"><ele>1043.5</ele><time>2026-05-01T11:24:34.703Z</time></trkpt><trkpt lat="42.5593374" lon="12.8319141"><ele>1046.0</ele><time>2026-05-01T11:24:35.71Z</time></trkpt><trkpt lat="42.55942" lon="12.8319621"><ele>1046.3999999999999</ele><time>2026-05-01T11:24:36.712Z</time></trkpt><trkpt lat="42.5594923" lon="12.8319896"><ele>1046.8</ele><time>2026-05-01T11:24:37.715Z</time></trkpt><trkpt lat="42.5595581" lon="12.8320072"><ele>1047.1999999999998</ele><time>2026-05-01T11:24:38.709Z</time></trkpt><trkpt lat="42.5596673" lon="12.8320077"><ele>1047.6</ele><time>2026-05-01T11:24:40.708Z</time></trkpt><trkpt lat="42.5597487" lon="12.8318874"><ele>1048.0</ele><time>2026-05-01T11:24:42.704Z</time></trkpt><trkpt lat="42.5597766" lon="12.8317809"><ele>1051.25</ele><time>2026-05-01T11:24:43.717Z</time></trkpt><trkpt lat="42.5597984" lon="12.8316463"><ele>1054.5</ele><time>2026-05-01T11:24:44.71Z</time></trkpt><trkpt lat="42.5598114" lon="12.8314843"><ele>1057.75</ele><time>2026-05-01T11:24:45.707Z</time></trkpt><trkpt lat="42.5598133" lon="12.8313136"><ele>1061.0</ele><time>2026-05-01T11:24:46.716Z</time></trkpt><trkpt lat="42.5598038" lon="12.8311518"><ele>1061.0</ele><time>2026-05-01T11:24:47.708Z</time></trkpt><trkpt lat="42.559787" lon="12.8310104"><ele>1061.0</ele><time>2026-05-01T11:24:48.707Z</time></trkpt><trkpt lat="42.5597668" lon="12.8308801"><ele>1061.0</ele><time>2026-05-01T11:24:49.707Z</time></trkpt><trkpt lat="42.5597534" lon="12.8307595"><ele>1061.0</ele><time>2026-05-01T11:24:50.716Z</time></trkpt><trkpt lat="42.5597535" lon="12.8306675"><ele>1061.0</ele><time>2026-05-01T11:24:51.716Z</time></trkpt><trkpt lat="42.5598192" lon="12.8305723"><ele>1061.0</ele><time>2026-05-01T11:24:53.721Z</time></trkpt><trkpt lat="42.5599473" lon="12.8307886"><ele>1061.0</ele><time>2026-05-01T11:24:57.73Z</time></trkpt><trkpt lat="42.5599566" lon="12.8309011"><ele>1061.0</ele><time>2026-05-01T11:24:58.709Z</time></trkpt><trkpt lat="42.5599779" lon="12.8310317"><ele>1061.0</ele><time>2026-05-01T11:24:59.706Z</time></trkpt><trkpt lat="42.5600112" lon="12.8311706"><ele>1061.0</ele><time>2026-05-01T11:25:00.718Z</time></trkpt><trkpt lat="42.5600546" lon="12.8313158"><ele>1061.0</ele><time>2026-05-01T11:25:01.719Z</time></trkpt><trkpt lat="42.5601106" lon="12.8314736"><ele>1061.0</ele><time>2026-05-01T11:25:02.711Z</time></trkpt><trkpt lat="42.5601664" lon="12.8316391"><ele>1061.0</ele><time>2026-05-01T11:25:03.715Z</time></trkpt><trkpt lat="42.5602252" lon="12.8318072"><ele>1061.25</ele><time>2026-05-01T11:25:04.71Z</time></trkpt><trkpt lat="42.5602912" lon="12.8319778"><ele>1061.5</ele><time>2026-05-01T11:25:05.711Z</time></trkpt><trkpt lat="42.5603586" lon="12.8321471"><ele>1061.75</ele><time>2026-05-01T11:25:06.71Z</time></trkpt><trkpt lat="42.5604278" lon="12.8323109"><ele>1062.0</ele><time>2026-05-01T11:25:07.717Z</time></trkpt><trkpt lat="42.560499" lon="12.8324684"><ele>1065.25</ele><time>2026-05-01T11:25:08.71Z</time></trkpt><trkpt lat="42.5605738" lon="12.8326215"><ele>1068.5</ele><time>2026-05-01T11:25:09.711Z</time></trkpt><trkpt lat="42.5606553" lon="12.8327758"><ele>1071.75</ele><time>2026-05-01T11:25:10.718Z</time></trkpt><trkpt lat="42.5607392" lon="12.832927"><ele>1075.0</ele><time>2026-05-01T11:25:11.714Z</time></trkpt><trkpt lat="42.5608268" lon="12.8330682"><ele>1075.0</ele><time>2026-05-01T11:25:12.704Z</time></trkpt><trkpt lat="42.5609134" lon="12.8331985"><ele>1075.0</ele><time>2026-05-01T11:25:13.706Z</time></trkpt><trkpt lat="42.5609935" lon="12.8333188"><ele>1075.0</ele><time>2026-05-01T11:25:14.711Z</time></trkpt><trkpt lat="42.561142" lon="12.8335476"><ele>1078.5</ele><time>2026-05-01T11:25:16.708Z</time></trkpt><trkpt lat="42.5612193" lon="12.8336722"><ele>1082.0</ele><time>2026-05-01T11:25:17.708Z</time></trkpt><trkpt lat="42.5612961" lon="12.8337992"><ele>1085.5</ele><time>2026-05-01T11:25:18.72Z</time></trkpt><trkpt lat="42.5613696" lon="12.8339176"><ele>1089.0</ele><time>2026-05-01T11:25:19.706Z</time></trkpt><trkpt lat="42.5614394" lon="12.8340269"><ele>1089.0</ele><time>2026-05-01T11:25:20.709Z</time></trkpt><trkpt lat="42.5615052" lon="12.8341302"><ele>1089.0</ele><time>2026-05-01T11:25:21.709Z</time></trkpt><trkpt lat="42.5615615" lon="12.8342266"><ele>1089.0</ele><time>2026-05-01T11:25:22.709Z</time></trkpt><trkpt lat="42.5616067" lon="12.8343171"><ele>1089.0</ele><time>2026-05-01T11:25:23.721Z</time></trkpt><trkpt lat="42.5616439" lon="12.8343955"><ele>1089.0</ele><time>2026-05-01T11:25:24.711Z</time></trkpt><trkpt lat="42.5616771" lon="12.8344742"><ele>1089.0</ele><time>2026-05-01T11:25:25.704Z</time></trkpt><trkpt lat="42.5617098" lon="12.8345476"><ele>1089.1666666666667</ele><time>2026-05-01T11:25:26.71Z</time></trkpt><trkpt lat="42.5617797" lon="12.8346758"><ele>1089.3333333333333</ele><time>2026-05-01T11:25:28.715Z</time></trkpt><trkpt lat="42.5618181" lon="12.8347484"><ele>1089.5</ele><time>2026-05-01T11:25:29.708Z</time></trkpt><trkpt lat="42.5618563" lon="12.834826"><ele>1089.6666666666665</ele><time>2026-05-01T11:25:30.718Z</time></trkpt><trkpt lat="42.5618896" lon="12.8349074"><ele>1089.8333333333333</ele><time>2026-05-01T11:25:31.716Z</time></trkpt><trkpt lat="42.5619474" lon="12.8350594"><ele>1090.0</ele><time>2026-05-01T11:25:33.712Z</time></trkpt><trkpt lat="42.5619736" lon="12.8351405"><ele>1090.8333333333333</ele><time>2026-05-01T11:25:34.709Z</time></trkpt><trkpt lat="42.5619977" lon="12.8352237"><ele>1091.6666666666665</ele><time>2026-05-01T11:25:35.708Z</time></trkpt><trkpt lat="42.5620297" lon="12.8353946"><ele>1092.5</ele><time>2026-05-01T11:25:37.711Z</time></trkpt><trkpt lat="42.5620414" lon="12.8354816"><ele>1093.3333333333333</ele><time>2026-05-01T11:25:38.703Z</time></trkpt><trkpt lat="42.5620503" lon="12.8355707"><ele>1094.1666666666667</ele><time>2026-05-01T11:25:39.716Z</time></trkpt><trkpt lat="42.5620574" lon="12.8356576"><ele>1095.0</ele><time>2026-05-01T11:25:40.717Z</time></trkpt><trkpt lat="42.562067" lon="12.8358121"><ele>1095.0</ele><time>2026-05-01T11:25:42.71Z</time></trkpt><trkpt lat="42.5620693" lon="12.8359685"><ele>1095.0</ele><time>2026-05-01T11:25:44.715Z</time></trkpt><trkpt lat="42.5620872" lon="12.8361257"><ele>1095.0</ele><time>2026-05-01T11:25:46.715Z</time></trkpt><trkpt lat="42.562124" lon="12.8362772"><ele>1095.0</ele><time>2026-05-01T11:25:48.713Z</time></trkpt><trkpt lat="42.5621716" lon="12.8364048"><ele>1095.0</ele><time>2026-05-01T11:25:50.705Z</time></trkpt><trkpt lat="42.5622493" lon="12.8365321"><ele>1095.0</ele><time>2026-05-01T11:25:52.717Z</time></trkpt><trkpt lat="42.5623105" lon="12.8365889"><ele>1095.0</ele><time>2026-05-01T11:25:53.708Z</time></trkpt><trkpt lat="42.5623844" lon="12.8366377"><ele>1095.0</ele><time>2026-05-01T11:25:54.717Z</time></trkpt><trkpt lat="42.5624653" lon="12.8366743"><ele>1095.0</ele><time>2026-05-01T11:25:55.706Z</time></trkpt><trkpt lat="42.5625523" lon="12.8367085"><ele>1095.0</ele><time>2026-05-01T11:25:56.713Z</time></trkpt><trkpt lat="42.5627241" lon="12.8367585"><ele>1095.0</ele><time>2026-05-01T11:25:58.713Z</time></trkpt><trkpt lat="42.5628026" lon="12.836795"><ele>1095.0</ele><time>2026-05-01T11:25:59.713Z</time></trkpt><trkpt lat="42.5628788" lon="12.8368419"><ele>1095.0</ele><time>2026-05-01T11:26:00.714Z</time></trkpt><trkpt lat="42.56295" lon="12.8369077"><ele>1095.0</ele><time>2026-05-01T11:26:01.708Z</time></trkpt><trkpt lat="42.5630119" lon="12.8369877"><ele>1095.0</ele><time>2026-05-01T11:26:02.709Z</time></trkpt><trkpt lat="42.5630651" lon="12.8370758"><ele>1095.0</ele><time>2026-05-01T11:26:03.709Z</time></trkpt><trkpt lat="42.5631074" lon="12.8371743"><ele>1095.0</ele><time>2026-05-01T11:26:04.706Z</time></trkpt><trkpt lat="42.563146" lon="12.8372781"><ele>1095.0</ele><time>2026-05-01T11:26:05.714Z</time></trkpt><trkpt lat="42.5631838" lon="12.8373784"><ele>1095.0</ele><time>2026-05-01T11:26:06.72Z</time></trkpt><trkpt lat="42.5632275" lon="12.8374694"><ele>1095.0</ele><time>2026-05-01T11:26:07.713Z</time></trkpt><trkpt lat="42.5632802" lon="12.837555"><ele>1095.0</ele><time>2026-05-01T11:26:08.72Z</time></trkpt><trkpt lat="42.5633391" lon="12.8376317"><ele>1095.0</ele><time>2026-05-01T11:26:09.709Z</time></trkpt><trkpt lat="42.5634006" lon="12.837692"><ele>1095.0</ele><time>2026-05-01T11:26:10.709Z</time></trkpt><trkpt lat="42.5634691" lon="12.8377478"><ele>1095.0</ele><time>2026-05-01T11:26:11.714Z</time></trkpt><trkpt lat="42.5635368" lon="12.8378024"><ele>1095.0</ele><time>2026-05-01T11:26:12.713Z</time></trkpt><trkpt lat="42.5636053" lon="12.8378643"><ele>1095.0</ele><time>2026-05-01T11:26:13.711Z</time></trkpt><trkpt lat="42.5636703" lon="12.8379273"><ele>1093.0</ele><time>2026-05-01T11:26:14.708Z</time></trkpt><trkpt lat="42.5637396" lon="12.837983"><ele>1091.0</ele><time>2026-05-01T11:26:15.712Z</time></trkpt><trkpt lat="42.5638095" lon="12.8380338"><ele>1089.0</ele><time>2026-05-01T11:26:16.711Z</time></trkpt><trkpt lat="42.5638813" lon="12.8380877"><ele>1087.0</ele><time>2026-05-01T11:26:17.718Z</time></trkpt><trkpt lat="42.5640351" lon="12.8381976"><ele>1085.0</ele><time>2026-05-01T11:26:19.712Z</time></trkpt><trkpt lat="42.5641109" lon="12.8382542"><ele>1085.0</ele><time>2026-05-01T11:26:20.705Z</time></trkpt><trkpt lat="42.5641816" lon="12.8383214"><ele>1085.0</ele><time>2026-05-01T11:26:21.705Z</time></trkpt><trkpt lat="42.5642437" lon="12.8384023"><ele>1085.0</ele><time>2026-05-01T11:26:22.714Z</time></trkpt><trkpt lat="42.5642971" lon="12.8384872"><ele>1085.0</ele><time>2026-05-01T11:26:23.707Z</time></trkpt><trkpt lat="42.5643481" lon="12.8385692"><ele>1085.0</ele><time>2026-05-01T11:26:24.715Z</time></trkpt><trkpt lat="42.5644086" lon="12.838641"><ele>1085.0</ele><time>2026-05-01T11:26:25.719Z</time></trkpt><trkpt lat="42.56447" lon="12.8387059"><ele>1084.8333333333335</ele><time>2026-05-01T11:26:26.706Z</time></trkpt><trkpt lat="42.5645337" lon="12.8387623"><ele>1084.6666666666667</ele><time>2026-05-01T11:26:27.708Z</time></trkpt><trkpt lat="42.5646016" lon="12.8388151"><ele>1084.5</ele><time>2026-05-01T11:26:28.703Z</time></trkpt><trkpt lat="42.5646664" lon="12.8388617"><ele>1084.3333333333333</ele><time>2026-05-01T11:26:29.712Z</time></trkpt><trkpt lat="42.5647273" lon="12.8389055"><ele>1084.1666666666665</ele><time>2026-05-01T11:26:30.72Z</time></trkpt><trkpt lat="42.5648354" lon="12.8389936"><ele>1084.0</ele><time>2026-05-01T11:26:32.718Z</time></trkpt><trkpt lat="42.5648921" lon="12.8390538"><ele>1084.0</ele><time>2026-05-01T11:26:33.715Z</time></trkpt><trkpt lat="42.5649516" lon="12.8391313"><ele>1084.0</ele><time>2026-05-01T11:26:34.713Z</time></trkpt><trkpt lat="42.5650189" lon="12.8392237"><ele>1084.0</ele><time>2026-05-01T11:26:35.716Z</time></trkpt><trkpt lat="42.5650938" lon="12.8393256"><ele>1084.0</ele><time>2026-05-01T11:26:36.713Z</time></trkpt><trkpt lat="42.5651692" lon="12.8394435"><ele>1084.0</ele><time>2026-05-01T11:26:37.71Z</time></trkpt><trkpt lat="42.56524" lon="12.8395735"><ele>1081.3333333333333</ele><time>2026-05-01T11:26:38.715Z</time></trkpt><trkpt lat="42.5653641" lon="12.8398505"><ele>1078.6666666666667</ele><time>2026-05-01T11:26:40.7Z</time></trkpt><trkpt lat="42.5654229" lon="12.840003"><ele>1076.0</ele><time>2026-05-01T11:26:41.709Z</time></trkpt><trkpt lat="42.5654803" lon="12.8401539"><ele>1080.2</ele><time>2026-05-01T11:26:42.705Z</time></trkpt><trkpt lat="42.5655343" lon="12.8402972"><ele>1084.3999999999999</ele><time>2026-05-01T11:26:43.708Z</time></trkpt><trkpt lat="42.5655864" lon="12.8404267"><ele>1088.6</ele><time>2026-05-01T11:26:44.711Z</time></trkpt><trkpt lat="42.5656581" lon="12.8405365"><ele>1092.8</ele><time>2026-05-01T11:26:45.708Z</time></trkpt><trkpt lat="42.5657426" lon="12.8406357"><ele>1097.0</ele><time>2026-05-01T11:26:46.713Z</time></trkpt><trkpt lat="42.5658325" lon="12.8407308"><ele>1097.0</ele><time>2026-05-01T11:26:47.719Z</time></trkpt><trkpt lat="42.5659239" lon="12.8408198"><ele>1097.0</ele><time>2026-05-01T11:26:48.709Z</time></trkpt><trkpt lat="42.5660165" lon="12.8409017"><ele>1097.0</ele><time>2026-05-01T11:26:49.71Z</time></trkpt><trkpt lat="42.5661049" lon="12.840979"><ele>1097.0</ele><time>2026-05-01T11:26:50.716Z</time></trkpt><trkpt lat="42.5661892" lon="12.8410573"><ele>1097.0</ele><time>2026-05-01T11:26:51.714Z</time></trkpt><trkpt lat="42.5662684" lon="12.8411365"><ele>1097.0</ele><time>2026-05-01T11:26:52.705Z</time></trkpt><trkpt lat="42.5663491" lon="12.8412184"><ele>1097.0</ele><time>2026-05-01T11:26:53.713Z</time></trkpt><trkpt lat="42.5664228" lon="12.8413034"><ele>1097.0</ele><time>2026-05-01T11:26:54.715Z</time></trkpt><trkpt lat="42.566491" lon="12.8414001"><ele>1097.0</ele><time>2026-05-01T11:26:55.709Z</time></trkpt><trkpt lat="42.5665535" lon="12.8415081"><ele>1097.0</ele><time>2026-05-01T11:26:56.708Z</time></trkpt><trkpt lat="42.566607" lon="12.8416159"><ele>1097.0</ele><time>2026-05-01T11:26:57.716Z</time></trkpt><trkpt lat="42.5666553" lon="12.8417186"><ele>1097.0</ele><time>2026-05-01T11:26:58.709Z</time></trkpt><trkpt lat="42.5667077" lon="12.8418146"><ele>1097.0</ele><time>2026-05-01T11:26:59.71Z</time></trkpt><trkpt lat="42.566843" lon="12.8419724"><ele>1097.0</ele><time>2026-05-01T11:27:01.712Z</time></trkpt><trkpt lat="42.5669317" lon="12.8420369"><ele>1099.25</ele><time>2026-05-01T11:27:02.715Z</time></trkpt><trkpt lat="42.5670221" lon="12.8421006"><ele>1101.5</ele><time>2026-05-01T11:27:03.707Z</time></trkpt><trkpt lat="42.5672004" lon="12.8422332"><ele>1103.75</ele><time>2026-05-01T11:27:05.715Z</time></trkpt><trkpt lat="42.5672796" lon="12.8422966"><ele>1106.0</ele><time>2026-05-01T11:27:06.714Z</time></trkpt><trkpt lat="42.567357" lon="12.8423648"><ele>1106.0</ele><time>2026-05-01T11:27:07.715Z</time></trkpt><trkpt lat="42.5674358" lon="12.8424374"><ele>1106.0</ele><time>2026-05-01T11:27:08.709Z</time></trkpt><trkpt lat="42.5675163" lon="12.8425178"><ele>1106.0</ele><time>2026-05-01T11:27:09.706Z</time></trkpt><trkpt lat="42.5676036" lon="12.8426034"><ele>1106.0</ele><time>2026-05-01T11:27:10.706Z</time></trkpt><trkpt lat="42.5676858" lon="12.8426925"><ele>1106.0</ele><time>2026-05-01T11:27:11.709Z</time></trkpt><trkpt lat="42.5677615" lon="12.8427916"><ele>1106.8</ele><time>2026-05-01T11:27:12.708Z</time></trkpt><trkpt lat="42.5678276" lon="12.8428949"><ele>1107.6</ele><time>2026-05-01T11:27:13.714Z</time></trkpt><trkpt lat="42.5678853" lon="12.8429979"><ele>1108.4</ele><time>2026-05-01T11:27:14.707Z</time></trkpt><trkpt lat="42.5679516" lon="12.8430945"><ele>1109.2</ele><time>2026-05-01T11:27:15.708Z</time></trkpt><trkpt lat="42.568032" lon="12.8431747"><ele>1110.0</ele><time>2026-05-01T11:27:16.701Z</time></trkpt><trkpt lat="42.5681234" lon="12.8432394"><ele>1110.0</ele><time>2026-05-01T11:27:17.719Z</time></trkpt><trkpt lat="42.5682165" lon="12.8433093"><ele>1110.0</ele><time>2026-05-01T11:27:18.716Z</time></trkpt><trkpt lat="42.568308" lon="12.843385"><ele>1110.0</ele><time>2026-05-01T11:27:19.714Z</time></trkpt><trkpt lat="42.5683917" lon="12.843462"><ele>1110.0</ele><time>2026-05-01T11:27:20.713Z</time></trkpt><trkpt lat="42.5685453" lon="12.843635"><ele>1110.8</ele><time>2026-05-01T11:27:22.707Z</time></trkpt><trkpt lat="42.5686102" lon="12.8437369"><ele>1111.6</ele><time>2026-05-01T11:27:23.711Z</time></trkpt><trkpt lat="42.5686608" lon="12.8438394"><ele>1112.4</ele><time>2026-05-01T11:27:24.707Z</time></trkpt><trkpt lat="42.5687131" lon="12.8439369"><ele>1113.2</ele><time>2026-05-01T11:27:25.715Z</time></trkpt><trkpt lat="42.5687768" lon="12.8440142"><ele>1114.0</ele><time>2026-05-01T11:27:26.713Z</time></trkpt><trkpt lat="42.5688612" lon="12.844072"><ele>1114.0</ele><time>2026-05-01T11:27:27.712Z</time></trkpt><trkpt lat="42.5689566" lon="12.8441235"><ele>1114.0</ele><time>2026-05-01T11:27:28.708Z</time></trkpt><trkpt lat="42.5690563" lon="12.8441818"><ele>1114.0</ele><time>2026-05-01T11:27:29.71Z</time></trkpt><trkpt lat="42.5691532" lon="12.8442539"><ele>1114.0</ele><time>2026-05-01T11:27:30.705Z</time></trkpt><trkpt lat="42.5692401" lon="12.844334"><ele>1114.0</ele><time>2026-05-01T11:27:31.724Z</time></trkpt><trkpt lat="42.569318" lon="12.8444242"><ele>1115.0</ele><time>2026-05-01T11:27:32.707Z</time></trkpt><trkpt lat="42.5693924" lon="12.8445173"><ele>1116.0</ele><time>2026-05-01T11:27:33.708Z</time></trkpt><trkpt lat="42.5694602" lon="12.8446109"><ele>1117.0</ele><time>2026-05-01T11:27:34.705Z</time></trkpt><trkpt lat="42.5695256" lon="12.8447082"><ele>1118.0</ele><time>2026-05-01T11:27:35.713Z</time></trkpt><trkpt lat="42.5695857" lon="12.8448142"><ele>1119.0</ele><time>2026-05-01T11:27:36.706Z</time></trkpt><trkpt lat="42.5696421" lon="12.8449236"><ele>1119.0</ele><time>2026-05-01T11:27:37.708Z</time></trkpt><trkpt lat="42.5697037" lon="12.8450338"><ele>1119.0</ele><time>2026-05-01T11:27:38.714Z</time></trkpt><trkpt lat="42.5697675" lon="12.8451376"><ele>1119.0</ele><time>2026-05-01T11:27:39.709Z</time></trkpt><trkpt lat="42.5698448" lon="12.8452303"><ele>1119.0</ele><time>2026-05-01T11:27:40.705Z</time></trkpt><trkpt lat="42.5699391" lon="12.8453194"><ele>1119.0</ele><time>2026-05-01T11:27:41.706Z</time></trkpt><trkpt lat="42.5701625" lon="12.8454879"><ele>1118.5</ele><time>2026-05-01T11:27:43.717Z</time></trkpt><trkpt lat="42.5702724" lon="12.8455846"><ele>1118.0</ele><time>2026-05-01T11:27:44.707Z</time></trkpt><trkpt lat="42.5703752" lon="12.8456952"><ele>1117.5</ele><time>2026-05-01T11:27:45.707Z</time></trkpt><trkpt lat="42.5704731" lon="12.8458182"><ele>1117.0</ele><time>2026-05-01T11:27:46.71Z</time></trkpt><trkpt lat="42.5705602" lon="12.8459523"><ele>1121.25</ele><time>2026-05-01T11:27:47.708Z</time></trkpt><trkpt lat="42.5706353" lon="12.8460875"><ele>1125.5</ele><time>2026-05-01T11:27:48.711Z</time></trkpt><trkpt lat="42.5707015" lon="12.8462122"><ele>1129.75</ele><time>2026-05-01T11:27:49.716Z</time></trkpt><trkpt lat="42.5707659" lon="12.8463325"><ele>1134.0</ele><time>2026-05-01T11:27:50.707Z</time></trkpt><trkpt lat="42.5708313" lon="12.8464625"><ele>1134.0</ele><time>2026-05-01T11:27:51.709Z</time></trkpt><trkpt lat="42.5709012" lon="12.8465952"><ele>1134.0</ele><time>2026-05-01T11:27:52.709Z</time></trkpt><trkpt lat="42.5709745" lon="12.8467322"><ele>1134.0</ele><time>2026-05-01T11:27:53.711Z</time></trkpt><trkpt lat="42.5710467" lon="12.8468723"><ele>1134.0</ele><time>2026-05-01T11:27:54.714Z</time></trkpt><trkpt lat="42.5711126" lon="12.8470097"><ele>1132.2</ele><time>2026-05-01T11:27:55.709Z</time></trkpt><trkpt lat="42.571171" lon="12.8471379"><ele>1130.4</ele><time>2026-05-01T11:27:56.719Z</time></trkpt><trkpt lat="42.5712233" lon="12.8472529"><ele>1128.6</ele><time>2026-05-01T11:27:57.707Z</time></trkpt><trkpt lat="42.5712699" lon="12.8473595"><ele>1126.8</ele><time>2026-05-01T11:27:58.712Z</time></trkpt><trkpt lat="42.5713122" lon="12.8474639"><ele>1125.0</ele><time>2026-05-01T11:27:59.707Z</time></trkpt><trkpt lat="42.5713526" lon="12.8475686"><ele>1129.75</ele><time>2026-05-01T11:28:00.715Z</time></trkpt><trkpt lat="42.5713982" lon="12.8476798"><ele>1134.5</ele><time>2026-05-01T11:28:01.713Z</time></trkpt><trkpt lat="42.5714488" lon="12.8477953"><ele>1139.25</ele><time>2026-05-01T11:28:02.71Z</time></trkpt><trkpt lat="42.5715651" lon="12.8480237"><ele>1144.0</ele><time>2026-05-01T11:28:04.702Z</time></trkpt><trkpt lat="42.5716271" lon="12.8481296"><ele>1144.0</ele><time>2026-05-01T11:28:05.707Z</time></trkpt><trkpt lat="42.5716938" lon="12.8482286"><ele>1144.0</ele><time>2026-05-01T11:28:06.711Z</time></trkpt><trkpt lat="42.5717669" lon="12.8483185"><ele>1144.0</ele><time>2026-05-01T11:28:07.71Z</time></trkpt><trkpt lat="42.5718417" lon="12.8484142"><ele>1144.0</ele><time>2026-05-01T11:28:08.718Z</time></trkpt><trkpt lat="42.5719107" lon="12.8485184"><ele>1144.0</ele><time>2026-05-01T11:28:09.708Z</time></trkpt><trkpt lat="42.5719663" lon="12.8486424"><ele>1145.6000000000001</ele><time>2026-05-01T11:28:10.705Z</time></trkpt><trkpt lat="42.5719972" lon="12.8487764"><ele>1147.2</ele><time>2026-05-01T11:28:11.713Z</time></trkpt><trkpt lat="42.5719978" lon="12.8489211"><ele>1148.8000000000002</ele><time>2026-05-01T11:28:12.703Z</time></trkpt><trkpt lat="42.571982" lon="12.8490717"><ele>1150.4</ele><time>2026-05-01T11:28:13.716Z</time></trkpt><trkpt lat="42.5719595" lon="12.8492212"><ele>1152.0</ele><time>2026-05-01T11:28:14.717Z</time></trkpt><trkpt lat="42.5719429" lon="12.8493698"><ele>1152.0</ele><time>2026-05-01T11:28:15.705Z</time></trkpt><trkpt lat="42.5719195" lon="12.8495168"><ele>1152.0</ele><time>2026-05-01T11:28:16.717Z</time></trkpt><trkpt lat="42.571897" lon="12.8496608"><ele>1152.0</ele><time>2026-05-01T11:28:17.705Z</time></trkpt><trkpt lat="42.5718815" lon="12.8498031"><ele>1152.0</ele><time>2026-05-01T11:28:18.707Z</time></trkpt><trkpt lat="42.5718674" lon="12.8499457"><ele>1152.0</ele><time>2026-05-01T11:28:19.707Z</time></trkpt><trkpt lat="42.571851" lon="12.8500903"><ele>1151.25</ele><time>2026-05-01T11:28:20.711Z</time></trkpt><trkpt lat="42.5718397" lon="12.850233"><ele>1150.5</ele><time>2026-05-01T11:28:21.714Z</time></trkpt><trkpt lat="42.571823" lon="12.8503738"><ele>1149.75</ele><time>2026-05-01T11:28:22.71Z</time></trkpt><trkpt lat="42.5718053" lon="12.850516"><ele>1149.0</ele><time>2026-05-01T11:28:23.709Z</time></trkpt><trkpt lat="42.5717755" lon="12.8507922"><ele>1149.0</ele><time>2026-05-01T11:28:25.706Z</time></trkpt><trkpt lat="42.571759" lon="12.8509188"><ele>1149.0</ele><time>2026-05-01T11:28:26.703Z</time></trkpt><trkpt lat="42.5717458" lon="12.8510418"><ele>1149.0</ele><time>2026-05-01T11:28:27.707Z</time></trkpt><trkpt lat="42.5717312" lon="12.85117"><ele>1149.0</ele><time>2026-05-01T11:28:28.703Z</time></trkpt><trkpt lat="42.5717084" lon="12.8512904"><ele>1149.0</ele><time>2026-05-01T11:28:29.708Z</time></trkpt><trkpt lat="42.5716915" lon="12.8514034"><ele>1151.0</ele><time>2026-05-01T11:28:30.714Z</time></trkpt><trkpt lat="42.5716841" lon="12.8515058"><ele>1153.0</ele><time>2026-05-01T11:28:31.715Z</time></trkpt><trkpt lat="42.5716862" lon="12.8516035"><ele>1155.0</ele><time>2026-05-01T11:28:32.707Z</time></trkpt><trkpt lat="42.5717061" lon="12.8516962"><ele>1157.0</ele><time>2026-05-01T11:28:33.714Z</time></trkpt><trkpt lat="42.5718008" lon="12.8517735"><ele>1159.0</ele><time>2026-05-01T11:28:34.71Z</time></trkpt><trkpt lat="42.5719147" lon="12.8518418"><ele>1154.0</ele><time>2026-05-01T11:28:35.705Z</time></trkpt><trkpt lat="42.5720226" lon="12.8519147"><ele>1149.0</ele><time>2026-05-01T11:28:36.704Z</time></trkpt><trkpt lat="42.5721204" lon="12.8520023"><ele>1144.0</ele><time>2026-05-01T11:28:37.716Z</time></trkpt><trkpt lat="42.5722036" lon="12.8521153"><ele>1139.0</ele><time>2026-05-01T11:28:38.705Z</time></trkpt><trkpt lat="42.5722762" lon="12.8522322"><ele>1139.0</ele><time>2026-05-01T11:28:39.707Z</time></trkpt><trkpt lat="42.572348" lon="12.8523488"><ele>1139.0</ele><time>2026-05-01T11:28:40.707Z</time></trkpt><trkpt lat="42.5724165" lon="12.852459"><ele>1139.0</ele><time>2026-05-01T11:28:41.71Z</time></trkpt><trkpt lat="42.5724795" lon="12.8525632"><ele>1139.0</ele><time>2026-05-01T11:28:42.708Z</time></trkpt><trkpt lat="42.5725436" lon="12.8526507"><ele>1139.0</ele><time>2026-05-01T11:28:43.708Z</time></trkpt><trkpt lat="42.5726176" lon="12.8527057"><ele>1141.0</ele><time>2026-05-01T11:28:44.71Z</time></trkpt><trkpt lat="42.5727964" lon="12.8527218"><ele>1143.0</ele><time>2026-05-01T11:28:46.706Z</time></trkpt><trkpt lat="42.5728959" lon="12.852713"><ele>1145.0</ele><time>2026-05-01T11:28:47.708Z</time></trkpt><trkpt lat="42.573" lon="12.8527013"><ele>1147.0</ele><time>2026-05-01T11:28:48.713Z</time></trkpt><trkpt lat="42.5731035" lon="12.8526776"><ele>1147.0</ele><time>2026-05-01T11:28:49.705Z</time></trkpt><trkpt lat="42.5732019" lon="12.8526296"><ele>1147.0</ele><time>2026-05-01T11:28:50.706Z</time></trkpt><trkpt lat="42.5732847" lon="12.852548"><ele>1147.0</ele><time>2026-05-01T11:28:51.707Z</time></trkpt><trkpt lat="42.5733512" lon="12.8524317"><ele>1147.0</ele><time>2026-05-01T11:28:52.704Z</time></trkpt><trkpt lat="42.5734176" lon="12.8522993"><ele>1147.0</ele><time>2026-05-01T11:28:53.707Z</time></trkpt><trkpt lat="42.5734895" lon="12.8521676"><ele>1144.8</ele><time>2026-05-01T11:28:54.71Z</time></trkpt><trkpt lat="42.5735561" lon="12.8520442"><ele>1142.6</ele><time>2026-05-01T11:28:55.712Z</time></trkpt><trkpt lat="42.5736203" lon="12.8519371"><ele>1140.3999999999999</ele><time>2026-05-01T11:28:56.704Z</time></trkpt><trkpt lat="42.5736877" lon="12.8518439"><ele>1138.2</ele><time>2026-05-01T11:28:57.716Z</time></trkpt><trkpt lat="42.57376" lon="12.8517636"><ele>1136.0</ele><time>2026-05-01T11:28:58.71Z</time></trkpt><trkpt lat="42.5738348" lon="12.8517141"><ele>1136.6</ele><time>2026-05-01T11:28:59.711Z</time></trkpt><trkpt lat="42.5739225" lon="12.8517044"><ele>1137.1999999999998</ele><time>2026-05-01T11:29:00.703Z</time></trkpt><trkpt lat="42.57401" lon="12.8517275"><ele>1137.8000000000002</ele><time>2026-05-01T11:29:01.707Z</time></trkpt><trkpt lat="42.5740999" lon="12.8517735"><ele>1138.4</ele><time>2026-05-01T11:29:02.702Z</time></trkpt><trkpt lat="42.5741853" lon="12.8518371"><ele>1139.0</ele><time>2026-05-01T11:29:03.713Z</time></trkpt><trkpt lat="42.5742634" lon="12.8519107"><ele>1139.0</ele><time>2026-05-01T11:29:04.703Z</time></trkpt><trkpt lat="42.574331" lon="12.8519872"><ele>1139.0</ele><time>2026-05-01T11:29:05.706Z</time></trkpt><trkpt lat="42.5744478" lon="12.8521526"><ele>1139.0</ele><time>2026-05-01T11:29:07.708Z</time></trkpt><trkpt lat="42.5745016" lon="12.8522426"><ele>1139.0</ele><time>2026-05-01T11:29:08.708Z</time></trkpt><trkpt lat="42.5745555" lon="12.8523294"><ele>1139.0</ele><time>2026-05-01T11:29:09.707Z</time></trkpt><trkpt lat="42.5746096" lon="12.8524201"><ele>1135.8333333333335</ele><time>2026-05-01T11:29:10.706Z</time></trkpt><trkpt lat="42.5746653" lon="12.852513"><ele>1132.6666666666667</ele><time>2026-05-01T11:29:11.713Z</time></trkpt><trkpt lat="42.5747205" lon="12.8525994"><ele>1129.5</ele><time>2026-05-01T11:29:12.713Z</time></trkpt><trkpt lat="42.5747761" lon="12.852678"><ele>1126.3333333333333</ele><time>2026-05-01T11:29:13.71Z</time></trkpt><trkpt lat="42.574826" lon="12.8527346"><ele>1123.1666666666665</ele><time>2026-05-01T11:29:14.705Z</time></trkpt><trkpt lat="42.5749324" lon="12.8527813"><ele>1120.0</ele><time>2026-05-01T11:29:16.705Z</time></trkpt><trkpt lat="42.5749967" lon="12.8527913"><ele>1120.0</ele><time>2026-05-01T11:29:17.711Z</time></trkpt><trkpt lat="42.5750732" lon="12.8528021"><ele>1120.0</ele><time>2026-05-01T11:29:18.707Z</time></trkpt><trkpt lat="42.5751553" lon="12.8528152"><ele>1120.0</ele><time>2026-05-01T11:29:19.706Z</time></trkpt><trkpt lat="42.5752434" lon="12.8528346"><ele>1120.0</ele><time>2026-05-01T11:29:20.706Z</time></trkpt><trkpt lat="42.5753314" lon="12.8528512"><ele>1120.0</ele><time>2026-05-01T11:29:21.705Z</time></trkpt><trkpt lat="42.5754173" lon="12.8528669"><ele>1120.0</ele><time>2026-05-01T11:29:22.713Z</time></trkpt><trkpt lat="42.5755029" lon="12.8528783"><ele>1118.0</ele><time>2026-05-01T11:29:23.705Z</time></trkpt><trkpt lat="42.5755867" lon="12.8528805"><ele>1116.0</ele><time>2026-05-01T11:29:24.702Z</time></trkpt><trkpt lat="42.5756615" lon="12.852873"><ele>1114.0</ele><time>2026-05-01T11:29:25.708Z</time></trkpt><trkpt lat="42.5757335" lon="12.8528626"><ele>1112.0</ele><time>2026-05-01T11:29:26.717Z</time></trkpt><trkpt lat="42.5758732" lon="12.8528534"><ele>1110.0</ele><time>2026-05-01T11:29:28.707Z</time></trkpt><trkpt lat="42.5759836" lon="12.8528035"><ele>1110.0</ele><time>2026-05-01T11:29:30.713Z</time></trkpt><trkpt lat="42.5760378" lon="12.852759"><ele>1110.0</ele><time>2026-05-01T11:29:31.707Z</time></trkpt><trkpt lat="42.5760977" lon="12.8526887"><ele>1110.0</ele><time>2026-05-01T11:29:32.708Z</time></trkpt><trkpt lat="42.5761661" lon="12.8525903"><ele>1110.0</ele><time>2026-05-01T11:29:33.716Z</time></trkpt><trkpt lat="42.5762349" lon="12.8524684"><ele>1110.0</ele><time>2026-05-01T11:29:34.714Z</time></trkpt><trkpt lat="42.5762993" lon="12.8523256"><ele>1111.25</ele><time>2026-05-01T11:29:35.714Z</time></trkpt><trkpt lat="42.5763546" lon="12.8521654"><ele>1112.5</ele><time>2026-05-01T11:29:36.713Z</time></trkpt><trkpt lat="42.5763985" lon="12.8520112"><ele>1113.75</ele><time>2026-05-01T11:29:37.705Z</time></trkpt><trkpt lat="42.5764295" lon="12.8518585"><ele>1115.0</ele><time>2026-05-01T11:29:38.704Z</time></trkpt><trkpt lat="42.576454" lon="12.8517059"><ele>1115.0</ele><time>2026-05-01T11:29:39.708Z</time></trkpt><trkpt lat="42.5764735" lon="12.8515571"><ele>1115.0</ele><time>2026-05-01T11:29:40.708Z</time></trkpt><trkpt lat="42.5764908" lon="12.8514158"><ele>1115.0</ele><time>2026-05-01T11:29:41.706Z</time></trkpt><trkpt lat="42.5765064" lon="12.8512765"><ele>1115.0</ele><time>2026-05-01T11:29:42.704Z</time></trkpt><trkpt lat="42.5765243" lon="12.8511424"><ele>1115.0</ele><time>2026-05-01T11:29:43.718Z</time></trkpt><trkpt lat="42.5765459" lon="12.8510124"><ele>1115.0</ele><time>2026-05-01T11:29:44.713Z</time></trkpt><trkpt lat="42.5765691" lon="12.850886"><ele>1110.0</ele><time>2026-05-01T11:29:45.716Z</time></trkpt><trkpt lat="42.5765928" lon="12.8507545"><ele>1110.0</ele><time>2026-05-01T11:29:46.715Z</time></trkpt><trkpt lat="42.576625" lon="12.8506328"><ele>1110.0</ele><time>2026-05-01T11:29:47.709Z</time></trkpt></trkseg><trkseg><trkpt lat="42.5772717" lon="12.8496268"><ele>1113.0</ele><time>2026-05-01T12:41:19.53Z</time></trkpt><trkpt lat="42.5772045" lon="12.8496353"><ele>1113.0</ele><time>2026-05-01T12:41:54.521Z</time></trkpt><trkpt lat="42.5771355" lon="12.8497164"><ele>1113.0</ele><time>2026-05-01T12:41:57.521Z</time></trkpt><trkpt lat="42.5770985" lon="12.8497926"><ele>1113.0</ele><time>2026-05-01T12:41:59.522Z</time></trkpt><trkpt lat="42.57706" lon="12.8498812"><ele>1113.0</ele><time>2026-05-01T12:42:01.529Z</time></trkpt><trkpt lat="42.5769995" lon="12.8499791"><ele>1113.0</ele><time>2026-05-01T12:42:04.525Z</time></trkpt><trkpt lat="42.5769443" lon="12.8500305"><ele>1112.5</ele><time>2026-05-01T12:42:06.526Z</time></trkpt><trkpt lat="42.5768907" lon="12.8500847"><ele>1112.0</ele><time>2026-05-01T12:42:08.522Z</time></trkpt><trkpt lat="42.5768271" lon="12.8501806"><ele>1111.5</ele><time>2026-05-01T12:42:11.539Z</time></trkpt><trkpt lat="42.5767665" lon="12.8502489"><ele>1111.0</ele><time>2026-05-01T12:42:13.524Z</time></trkpt><trkpt lat="42.5766939" lon="12.8503209"><ele>1110.5</ele><time>2026-05-01T12:42:15.521Z</time></trkpt><trkpt lat="42.5766313" lon="12.8503804"><ele>1110.0</ele><time>2026-05-01T12:42:17.517Z</time></trkpt><trkpt lat="42.5766514" lon="12.8502964"><ele>1110.0000000000002</ele><time>2026-05-01T12:42:21.525Z</time></trkpt><trkpt lat="42.5766966" lon="12.8502174"><ele>1110.0</ele><time>2026-05-01T12:42:22.531Z</time></trkpt><trkpt lat="42.5767334" lon="12.850127"><ele>1110.0</ele><time>2026-05-01T12:42:23.53Z</time></trkpt><trkpt lat="42.5767671" lon="12.8500447"><ele>1110.0</ele><time>2026-05-01T12:42:24.53Z</time></trkpt><trkpt lat="42.5767926" lon="12.8499585"><ele>1110.0</ele><time>2026-05-01T12:42:25.516Z</time></trkpt><trkpt lat="42.5768192" lon="12.8498702"><ele>1110.0000000000002</ele><time>2026-05-01T12:42:26.522Z</time></trkpt><trkpt lat="42.5768455" lon="12.8497787"><ele>1110.0</ele><time>2026-05-01T12:42:27.529Z</time></trkpt><trkpt lat="42.5768767" lon="12.8496863"><ele>1108.0</ele><time>2026-05-01T12:42:28.531Z</time></trkpt><trkpt lat="42.5769033" lon="12.8495844"><ele>1106.0</ele><time>2026-05-01T12:42:29.525Z</time></trkpt><trkpt lat="42.5769261" lon="12.84947"><ele>1104.0</ele><time>2026-05-01T12:42:30.522Z</time></trkpt><trkpt lat="42.5769456" lon="12.8493489"><ele>1102.0</ele><time>2026-05-01T12:42:31.525Z</time></trkpt><trkpt lat="42.5769628" lon="12.8492301"><ele>1100.0</ele><time>2026-05-01T12:42:32.514Z</time></trkpt><trkpt lat="42.5769794" lon="12.8491149"><ele>1098.0</ele><time>2026-05-01T12:42:33.524Z</time></trkpt><trkpt lat="42.5769978" lon="12.8490064"><ele>1097.5</ele><time>2026-05-01T12:42:34.525Z</time></trkpt><trkpt lat="42.5770275" lon="12.8489078"><ele>1097.0</ele><time>2026-05-01T12:42:35.519Z</time></trkpt><trkpt lat="42.5770712" lon="12.8488185"><ele>1096.5</ele><time>2026-05-01T12:42:36.526Z</time></trkpt><trkpt lat="42.5771357" lon="12.8487473"><ele>1096.0</ele><time>2026-05-01T12:42:37.526Z</time></trkpt><trkpt lat="42.5772103" lon="12.8487107"><ele>1095.5</ele><time>2026-05-01T12:42:38.522Z</time></trkpt><trkpt lat="42.5773001" lon="12.8487351"><ele>1095.0</ele><time>2026-05-01T12:42:39.524Z</time></trkpt><trkpt lat="42.5773912" lon="12.8487904"><ele>1095.0</ele><time>2026-05-01T12:42:40.524Z</time></trkpt><trkpt lat="42.5774845" lon="12.8488496"><ele>1095.0</ele><time>2026-05-01T12:42:41.523Z</time></trkpt><trkpt lat="42.5775782" lon="12.8489073"><ele>1095.0</ele><time>2026-05-01T12:42:42.527Z</time></trkpt><trkpt lat="42.5776747" lon="12.8489611"><ele>1095.0</ele><time>2026-05-01T12:42:43.529Z</time></trkpt><trkpt lat="42.5777741" lon="12.8490125"><ele>1095.0</ele><time>2026-05-01T12:42:44.524Z</time></trkpt><trkpt lat="42.5778708" lon="12.8490692"><ele>1097.1666666666667</ele><time>2026-05-01T12:42:45.523Z</time></trkpt><trkpt lat="42.5779625" lon="12.8491182"><ele>1099.3333333333333</ele><time>2026-05-01T12:42:46.529Z</time></trkpt><trkpt lat="42.5780484" lon="12.8491617"><ele>1101.5</ele><time>2026-05-01T12:42:47.524Z</time></trkpt><trkpt lat="42.5781341" lon="12.8492026"><ele>1103.6666666666665</ele><time>2026-05-01T12:42:48.522Z</time></trkpt><trkpt lat="42.5782139" lon="12.8492421"><ele>1105.8333333333333</ele><time>2026-05-01T12:42:49.529Z</time></trkpt><trkpt lat="42.5782877" lon="12.8492798"><ele>1108.0</ele><time>2026-05-01T12:42:50.518Z</time></trkpt><trkpt lat="42.5783556" lon="12.8493155"><ele>1108.0</ele><time>2026-05-01T12:42:51.53Z</time></trkpt><trkpt lat="42.5784239" lon="12.8493475"><ele>1108.0</ele><time>2026-05-01T12:42:52.521Z</time></trkpt><trkpt lat="42.5785339" lon="12.8494173"><ele>1108.0</ele><time>2026-05-01T12:42:54.526Z</time></trkpt><trkpt lat="42.5786387" lon="12.8494856"><ele>1108.0</ele><time>2026-05-01T12:42:56.53Z</time></trkpt><trkpt lat="42.5787365" lon="12.8495479"><ele>1108.0</ele><time>2026-05-01T12:42:58.527Z</time></trkpt><trkpt lat="42.5788453" lon="12.8496206"><ele>1103.4</ele><time>2026-05-01T12:43:00.528Z</time></trkpt><trkpt lat="42.5789178" lon="12.8496596"><ele>1098.8</ele><time>2026-05-01T12:43:01.526Z</time></trkpt><trkpt lat="42.5790066" lon="12.8496962"><ele>1094.2</ele><time>2026-05-01T12:43:02.521Z</time></trkpt><trkpt lat="42.5791102" lon="12.8497318"><ele>1089.6</ele><time>2026-05-01T12:43:03.533Z</time></trkpt><trkpt lat="42.579208" lon="12.8497725"><ele>1085.0</ele><time>2026-05-01T12:43:04.52Z</time></trkpt><trkpt lat="42.5793074" lon="12.8498261"><ele>1085.0</ele><time>2026-05-01T12:43:05.518Z</time></trkpt><trkpt lat="42.5794043" lon="12.8498886"><ele>1085.0</ele><time>2026-05-01T12:43:06.517Z</time></trkpt><trkpt lat="42.5794943" lon="12.8499627"><ele>1085.0</ele><time>2026-05-01T12:43:07.532Z</time></trkpt><trkpt lat="42.5795653" lon="12.8500422"><ele>1085.0</ele><time>2026-05-01T12:43:08.525Z</time></trkpt><trkpt lat="42.5796301" lon="12.8501111"><ele>1085.0</ele><time>2026-05-01T12:43:09.525Z</time></trkpt><trkpt lat="42.5796916" lon="12.8501499"><ele>1085.0</ele><time>2026-05-01T12:43:10.526Z</time></trkpt><trkpt lat="42.5797461" lon="12.850063"><ele>1085.0</ele><time>2026-05-01T12:43:12.516Z</time></trkpt><trkpt lat="42.5797112" lon="12.8499665"><ele>1085.0</ele><time>2026-05-01T12:43:13.527Z</time></trkpt><trkpt lat="42.5796339" lon="12.8498668"><ele>1085.0</ele><time>2026-05-01T12:43:14.52Z</time></trkpt><trkpt lat="42.5795246" lon="12.8497722"><ele>1085.0</ele><time>2026-05-01T12:43:15.525Z</time></trkpt><trkpt lat="42.5794004" lon="12.8496736"><ele>1085.0</ele><time>2026-05-01T12:43:16.521Z</time></trkpt><trkpt lat="42.5792669" lon="12.8495717"><ele>1085.0</ele><time>2026-05-01T12:43:17.536Z</time></trkpt><trkpt lat="42.5791257" lon="12.8494648"><ele>1085.0</ele><time>2026-05-01T12:43:18.521Z</time></trkpt><trkpt lat="42.5789754" lon="12.8493506"><ele>1082.0</ele><time>2026-05-01T12:43:19.518Z</time></trkpt><trkpt lat="42.5788266" lon="12.8492194"><ele>1079.0</ele><time>2026-05-01T12:43:20.528Z</time></trkpt><trkpt lat="42.5786965" lon="12.8490814"><ele>1076.0</ele><time>2026-05-01T12:43:21.521Z</time></trkpt><trkpt lat="42.5785816" lon="12.8489386"><ele>1076.0</ele><time>2026-05-01T12:43:22.522Z</time></trkpt><trkpt lat="42.5784682" lon="12.8487998"><ele>1076.0</ele><time>2026-05-01T12:43:23.517Z</time></trkpt><trkpt lat="42.5783578" lon="12.8486605"><ele>1076.0</ele><time>2026-05-01T12:43:24.516Z</time></trkpt><trkpt lat="42.578252" lon="12.8485316"><ele>1076.0</ele><time>2026-05-01T12:43:25.52Z</time></trkpt><trkpt lat="42.5781567" lon="12.8484111"><ele>1069.5</ele><time>2026-05-01T12:43:26.53Z</time></trkpt><trkpt lat="42.5780603" lon="12.8483032"><ele>1063.0</ele><time>2026-05-01T12:43:27.529Z</time></trkpt><trkpt lat="42.5779766" lon="12.8481842"><ele>1056.5</ele><time>2026-05-01T12:43:28.526Z</time></trkpt><trkpt lat="42.5779177" lon="12.8480518"><ele>1050.0</ele><time>2026-05-01T12:43:29.525Z</time></trkpt><trkpt lat="42.5778775" lon="12.847904"><ele>1046.0</ele><time>2026-05-01T12:43:30.521Z</time></trkpt><trkpt lat="42.5778512" lon="12.8477472"><ele>1042.0</ele><time>2026-05-01T12:43:31.524Z</time></trkpt><trkpt lat="42.5778538" lon="12.8475862"><ele>1038.0</ele><time>2026-05-01T12:43:32.522Z</time></trkpt><trkpt lat="42.5778816" lon="12.847429"><ele>1034.0</ele><time>2026-05-01T12:43:33.522Z</time></trkpt><trkpt lat="42.5779105" lon="12.8472775"><ele>1034.0</ele><time>2026-05-01T12:43:34.527Z</time></trkpt><trkpt lat="42.5779255" lon="12.8471284"><ele>1034.0</ele><time>2026-05-01T12:43:35.534Z</time></trkpt><trkpt lat="42.5779347" lon="12.8469777"><ele>1034.0</ele><time>2026-05-01T12:43:36.527Z</time></trkpt><trkpt lat="42.577916" lon="12.8468368"><ele>1034.0</ele><time>2026-05-01T12:43:37.519Z</time></trkpt><trkpt lat="42.577869" lon="12.8467123"><ele>1034.0</ele><time>2026-05-01T12:43:38.524Z</time></trkpt><trkpt lat="42.577795" lon="12.8466112"><ele>1036.25</ele><time>2026-05-01T12:43:39.527Z</time></trkpt><trkpt lat="42.5776916" lon="12.8465439"><ele>1038.5</ele><time>2026-05-01T12:43:40.526Z</time></trkpt><trkpt lat="42.5775773" lon="12.8465094"><ele>1040.75</ele><time>2026-05-01T12:43:41.529Z</time></trkpt><trkpt lat="42.5774433" lon="12.8465252"><ele>1043.0</ele><time>2026-05-01T12:43:42.52Z</time></trkpt><trkpt lat="42.5773007" lon="12.8465687"><ele>1043.0</ele><time>2026-05-01T12:43:43.525Z</time></trkpt><trkpt lat="42.5771615" lon="12.8466289"><ele>1043.0</ele><time>2026-05-01T12:43:44.532Z</time></trkpt><trkpt lat="42.5770388" lon="12.8467005"><ele>1043.0</ele><time>2026-05-01T12:43:45.533Z</time></trkpt><trkpt lat="42.5769243" lon="12.8467811"><ele>1043.0</ele><time>2026-05-01T12:43:46.524Z</time></trkpt><trkpt lat="42.5768143" lon="12.8468661"><ele>1043.5</ele><time>2026-05-01T12:43:47.537Z</time></trkpt><trkpt lat="42.5767178" lon="12.8469802"><ele>1044.0</ele><time>2026-05-01T12:43:48.518Z</time></trkpt><trkpt lat="42.576627" lon="12.8471386"><ele>1044.5</ele><time>2026-05-01T12:43:49.517Z</time></trkpt><trkpt lat="42.5765384" lon="12.8472987"><ele>1045.0</ele><time>2026-05-01T12:43:50.518Z</time></trkpt><trkpt lat="42.5764524" lon="12.8474522"><ele>1045.0</ele><time>2026-05-01T12:43:51.522Z</time></trkpt><trkpt lat="42.5763677" lon="12.8475826"><ele>1045.0</ele><time>2026-05-01T12:43:52.524Z</time></trkpt><trkpt lat="42.5762894" lon="12.8476665"><ele>1045.0</ele><time>2026-05-01T12:43:53.529Z</time></trkpt><trkpt lat="42.5762157" lon="12.8477158"><ele>1045.0</ele><time>2026-05-01T12:43:54.519Z</time></trkpt><trkpt lat="42.5761103" lon="12.8477271"><ele>1045.0</ele><time>2026-05-01T12:43:56.531Z</time></trkpt><trkpt lat="42.576104" lon="12.8475942"><ele>1045.0</ele><time>2026-05-01T12:43:58.522Z</time></trkpt><trkpt lat="42.5761597" lon="12.8475155"><ele>1045.0</ele><time>2026-05-01T12:43:59.517Z</time></trkpt><trkpt lat="42.57624" lon="12.8474551"><ele>1045.0</ele><time>2026-05-01T12:44:00.515Z</time></trkpt><trkpt lat="42.5763378" lon="12.8474012"><ele>1045.0</ele><time>2026-05-01T12:44:01.524Z</time></trkpt><trkpt lat="42.5764294" lon="12.8473346"><ele>1045.0</ele><time>2026-05-01T12:44:02.534Z</time></trkpt><trkpt lat="42.5765074" lon="12.8472421"><ele>1045.0</ele><time>2026-05-01T12:44:03.525Z</time></trkpt><trkpt lat="42.576567" lon="12.8471044"><ele>1045.0</ele><time>2026-05-01T12:44:04.524Z</time></trkpt><trkpt lat="42.5766032" lon="12.8469399"><ele>1045.0</ele><time>2026-05-01T12:44:05.526Z</time></trkpt><trkpt lat="42.5766267" lon="12.8467707"><ele>1045.0</ele><time>2026-05-01T12:44:06.522Z</time></trkpt><trkpt lat="42.5766544" lon="12.8466086"><ele>1039.5</ele><time>2026-05-01T12:44:07.527Z</time></trkpt><trkpt lat="42.5766953" lon="12.8464691"><ele>1034.0</ele><time>2026-05-01T12:44:08.523Z</time></trkpt><trkpt lat="42.5767558" lon="12.8463469"><ele>1028.5</ele><time>2026-05-01T12:44:09.531Z</time></trkpt><trkpt lat="42.5768312" lon="12.8462231"><ele>1023.0</ele><time>2026-05-01T12:44:10.525Z</time></trkpt><trkpt lat="42.5769209" lon="12.8460972"><ele>1023.0</ele><time>2026-05-01T12:44:11.532Z</time></trkpt><trkpt lat="42.5770133" lon="12.8459715"><ele>1023.0</ele><time>2026-05-01T12:44:12.518Z</time></trkpt><trkpt lat="42.5771037" lon="12.8458586"><ele>1023.0</ele><time>2026-05-01T12:44:13.518Z</time></trkpt><trkpt lat="42.5771918" lon="12.8457629"><ele>1023.0</ele><time>2026-05-01T12:44:14.524Z</time></trkpt><trkpt lat="42.5772851" lon="12.845676"><ele>1020.0</ele><time>2026-05-01T12:44:15.522Z</time></trkpt><trkpt lat="42.577381" lon="12.8455957"><ele>1017.0</ele><time>2026-05-01T12:44:16.522Z</time></trkpt><trkpt lat="42.5774835" lon="12.8455259"><ele>1014.0</ele><time>2026-05-01T12:44:17.53Z</time></trkpt><trkpt lat="42.5776056" lon="12.8454818"><ele>1011.0</ele><time>2026-05-01T12:44:18.515Z</time></trkpt><trkpt lat="42.5777331" lon="12.8454888"><ele>1006.25</ele><time>2026-05-01T12:44:19.531Z</time></trkpt><trkpt lat="42.5778619" lon="12.8455327"><ele>1001.5</ele><time>2026-05-01T12:44:20.527Z</time></trkpt><trkpt lat="42.5779886" lon="12.8456165"><ele>996.75</ele><time>2026-05-01T12:44:21.52Z</time></trkpt><trkpt lat="42.5781127" lon="12.8457325"><ele>992.0</ele><time>2026-05-01T12:44:22.521Z</time></trkpt><trkpt lat="42.5782219" lon="12.8458747"><ele>1001.0</ele><time>2026-05-01T12:44:23.523Z</time></trkpt><trkpt lat="42.5783195" lon="12.8460378"><ele>1010.0</ele><time>2026-05-01T12:44:24.52Z</time></trkpt><trkpt lat="42.5784059" lon="12.8462097"><ele>1019.0</ele><time>2026-05-01T12:44:25.524Z</time></trkpt><trkpt lat="42.578476" lon="12.8463802"><ele>1019.0</ele><time>2026-05-01T12:44:26.527Z</time></trkpt><trkpt lat="42.5785449" lon="12.8465403"><ele>1019.0</ele><time>2026-05-01T12:44:27.521Z</time></trkpt><trkpt lat="42.5786092" lon="12.8466933"><ele>1019.0</ele><time>2026-05-01T12:44:28.518Z</time></trkpt><trkpt lat="42.5786708" lon="12.8468428"><ele>1019.0</ele><time>2026-05-01T12:44:29.519Z</time></trkpt><trkpt lat="42.5787323" lon="12.8469925"><ele>1012.0</ele><time>2026-05-01T12:44:30.522Z</time></trkpt><trkpt lat="42.5787922" lon="12.8471428"><ele>1005.0</ele><time>2026-05-01T12:44:31.532Z</time></trkpt><trkpt lat="42.5788621" lon="12.8472826"><ele>998.0</ele><time>2026-05-01T12:44:32.521Z</time></trkpt><trkpt lat="42.5789494" lon="12.8474062"><ele>991.0</ele><time>2026-05-01T12:44:33.52Z</time></trkpt><trkpt lat="42.5790477" lon="12.8475079"><ele>991.0</ele><time>2026-05-01T12:44:34.52Z</time></trkpt><trkpt lat="42.5791721" lon="12.8475819"><ele>991.0</ele><time>2026-05-01T12:44:35.531Z</time></trkpt><trkpt lat="42.579319" lon="12.8476359"><ele>991.0</ele><time>2026-05-01T12:44:36.522Z</time></trkpt><trkpt lat="42.5795028" lon="12.8476708"><ele>995.3333333333333</ele><time>2026-05-01T12:44:37.516Z</time></trkpt><trkpt lat="42.5796924" lon="12.8477067"><ele>999.6666666666667</ele><time>2026-05-01T12:44:38.522Z</time></trkpt><trkpt lat="42.5798727" lon="12.847748"><ele>1004.0</ele><time>2026-05-01T12:44:39.521Z</time></trkpt><trkpt lat="42.580034" lon="12.8477924"><ele>1004.0</ele><time>2026-05-01T12:44:40.525Z</time></trkpt><trkpt lat="42.5801787" lon="12.8478355"><ele>1004.0</ele><time>2026-05-01T12:44:41.519Z</time></trkpt><trkpt lat="42.5803239" lon="12.8478749"><ele>1004.0</ele><time>2026-05-01T12:44:42.522Z</time></trkpt><trkpt lat="42.5804679" lon="12.8479226"><ele>1004.0</ele><time>2026-05-01T12:44:43.525Z</time></trkpt><trkpt lat="42.5805983" lon="12.8479781"><ele>998.0</ele><time>2026-05-01T12:44:44.525Z</time></trkpt><trkpt lat="42.5807166" lon="12.8480394"><ele>992.0000000000001</ele><time>2026-05-01T12:44:45.522Z</time></trkpt><trkpt lat="42.5807945" lon="12.8481087"><ele>986.0000000000001</ele><time>2026-05-01T12:44:46.521Z</time></trkpt><trkpt lat="42.5808508" lon="12.8481959"><ele>980.0</ele><time>2026-05-01T12:44:47.522Z</time></trkpt><trkpt lat="42.5808872" lon="12.8482891"><ele>974.0</ele><time>2026-05-01T12:44:48.517Z</time></trkpt><trkpt lat="42.580897" lon="12.8483841"><ele>974.6</ele><time>2026-05-01T12:44:49.517Z</time></trkpt><trkpt lat="42.5808807" lon="12.84848"><ele>975.2</ele><time>2026-05-01T12:44:50.539Z</time></trkpt><trkpt lat="42.5808362" lon="12.8485789"><ele>975.8000000000001</ele><time>2026-05-01T12:44:51.532Z</time></trkpt><trkpt lat="42.5807818" lon="12.8486861"><ele>976.4000000000001</ele><time>2026-05-01T12:44:52.521Z</time></trkpt><trkpt lat="42.5807275" lon="12.8488079"><ele>977.0</ele><time>2026-05-01T12:44:53.518Z</time></trkpt><trkpt lat="42.5806775" lon="12.8489507"><ele>977.0</ele><time>2026-05-01T12:44:54.537Z</time></trkpt><trkpt lat="42.5806339" lon="12.8491107"><ele>977.0</ele><time>2026-05-01T12:44:55.522Z</time></trkpt><trkpt lat="42.5806065" lon="12.8492812"><ele>977.0</ele><time>2026-05-01T12:44:56.524Z</time></trkpt><trkpt lat="42.5805808" lon="12.8494511"><ele>977.0</ele><time>2026-05-01T12:44:57.524Z</time></trkpt><trkpt lat="42.5805574" lon="12.8496146"><ele>977.6</ele><time>2026-05-01T12:44:58.526Z</time></trkpt><trkpt lat="42.5805409" lon="12.8497677"><ele>978.2</ele><time>2026-05-01T12:44:59.523Z</time></trkpt><trkpt lat="42.580527" lon="12.8499113"><ele>978.8</ele><time>2026-05-01T12:45:00.531Z</time></trkpt><trkpt lat="42.5805155" lon="12.8500491"><ele>979.4</ele><time>2026-05-01T12:45:01.516Z</time></trkpt><trkpt lat="42.5805104" lon="12.8501823"><ele>980.0</ele><time>2026-05-01T12:45:02.518Z</time></trkpt><trkpt lat="42.5805065" lon="12.8503053"><ele>980.0000000000001</ele><time>2026-05-01T12:45:03.515Z</time></trkpt><trkpt lat="42.5805066" lon="12.8504233"><ele>980.0</ele><time>2026-05-01T12:45:04.522Z</time></trkpt><trkpt lat="42.5804949" lon="12.8505381"><ele>980.0</ele><time>2026-05-01T12:45:05.522Z</time></trkpt><trkpt lat="42.5804783" lon="12.8506522"><ele>980.0</ele><time>2026-05-01T12:45:06.52Z</time></trkpt><trkpt lat="42.5804546" lon="12.850773"><ele>980.0000000000001</ele><time>2026-05-01T12:45:07.525Z</time></trkpt><trkpt lat="42.5804319" lon="12.8509009"><ele>980.0</ele><time>2026-05-01T12:45:08.518Z</time></trkpt><trkpt lat="42.5804231" lon="12.8510314"><ele>981.6</ele><time>2026-05-01T12:45:09.519Z</time></trkpt><trkpt lat="42.5804229" lon="12.8511539"><ele>983.2</ele><time>2026-05-01T12:45:10.517Z</time></trkpt><trkpt lat="42.5804257" lon="12.8512668"><ele>984.8</ele><time>2026-05-01T12:45:11.512Z</time></trkpt><trkpt lat="42.5804357" lon="12.8513915"><ele>986.4</ele><time>2026-05-01T12:45:12.521Z</time></trkpt><trkpt lat="42.5804547" lon="12.8515282"><ele>988.0</ele><time>2026-05-01T12:45:13.535Z</time></trkpt><trkpt lat="42.5804781" lon="12.8516868"><ele>991.0</ele><time>2026-05-01T12:45:14.517Z</time></trkpt><trkpt lat="42.5805048" lon="12.8518742"><ele>994.0</ele><time>2026-05-01T12:45:15.518Z</time></trkpt><trkpt lat="42.5805308" lon="12.8520718"><ele>997.0</ele><time>2026-05-01T12:45:16.525Z</time></trkpt><trkpt lat="42.5805807" lon="12.8522556"><ele>1000.0</ele><time>2026-05-01T12:45:17.517Z</time></trkpt><trkpt lat="42.5806137" lon="12.8524004"><ele>1000.0</ele><time>2026-05-01T12:45:18.52Z</time></trkpt><trkpt lat="42.5806369" lon="12.8525221"><ele>1000.0</ele><time>2026-05-01T12:45:19.521Z</time></trkpt><trkpt lat="42.580655" lon="12.8526507"><ele>1000.0</ele><time>2026-05-01T12:45:20.521Z</time></trkpt><trkpt lat="42.580671" lon="12.8527885"><ele>1000.0</ele><time>2026-05-01T12:45:21.521Z</time></trkpt><trkpt lat="42.5806712" lon="12.8529375"><ele>1000.0</ele><time>2026-05-01T12:45:22.524Z</time></trkpt><trkpt lat="42.5806777" lon="12.8530943"><ele>1001.4</ele><time>2026-05-01T12:45:23.52Z</time></trkpt><trkpt lat="42.5806833" lon="12.8532508"><ele>1002.8</ele><time>2026-05-01T12:45:24.521Z</time></trkpt><trkpt lat="42.5806946" lon="12.853401"><ele>1004.2</ele><time>2026-05-01T12:45:25.521Z</time></trkpt><trkpt lat="42.580714" lon="12.8535235"><ele>1005.6</ele><time>2026-05-01T12:45:26.521Z</time></trkpt><trkpt lat="42.5807455" lon="12.8536118"><ele>1007.0</ele><time>2026-05-01T12:45:27.535Z</time></trkpt><trkpt lat="42.58079" lon="12.8536774"><ele>1007.0000000000001</ele><time>2026-05-01T12:45:28.515Z</time></trkpt><trkpt lat="42.580852" lon="12.8537134"><ele>1007.0</ele><time>2026-05-01T12:45:29.524Z</time></trkpt><trkpt lat="42.5809183" lon="12.8537154"><ele>1007.0</ele><time>2026-05-01T12:45:30.52Z</time></trkpt><trkpt lat="42.5809784" lon="12.8536822"><ele>1007.0</ele><time>2026-05-01T12:45:32.517Z</time></trkpt><trkpt lat="42.5810403" lon="12.853585"><ele>1007.0000000000001</ele><time>2026-05-01T12:46:30.525Z</time></trkpt><trkpt lat="42.5810761" lon="12.8534915"><ele>1007.0</ele><time>2026-05-01T12:46:31.516Z</time></trkpt><trkpt lat="42.5811034" lon="12.8533633"><ele>1007.0</ele><time>2026-05-01T12:46:32.517Z</time></trkpt><trkpt lat="42.5811324" lon="12.8532088"><ele>1007.0</ele><time>2026-05-01T12:46:33.525Z</time></trkpt><trkpt lat="42.5811622" lon="12.8530448"><ele>1007.0</ele><time>2026-05-01T12:46:34.528Z</time></trkpt><trkpt lat="42.5812034" lon="12.8528774"><ele>1007.0</ele><time>2026-05-01T12:46:35.531Z</time></trkpt><trkpt lat="42.5812675" lon="12.8527226"><ele>1007.75</ele><time>2026-05-01T12:46:36.518Z</time></trkpt><trkpt lat="42.5813509" lon="12.8525765"><ele>1008.5</ele><time>2026-05-01T12:46:37.529Z</time></trkpt><trkpt lat="42.5814416" lon="12.8524499"><ele>1009.25</ele><time>2026-05-01T12:46:38.514Z</time></trkpt><trkpt lat="42.5815255" lon="12.8523321"><ele>1010.0</ele><time>2026-05-01T12:46:39.539Z</time></trkpt><trkpt lat="42.5816082" lon="12.8522188"><ele>1010.0</ele><time>2026-05-01T12:46:40.526Z</time></trkpt><trkpt lat="42.5816938" lon="12.8521023"><ele>1010.0</ele><time>2026-05-01T12:46:41.531Z</time></trkpt><trkpt lat="42.5817799" lon="12.8519826"><ele>1010.0</ele><time>2026-05-01T12:46:42.526Z</time></trkpt><trkpt lat="42.5818512" lon="12.8518563"><ele>1010.0</ele><time>2026-05-01T12:46:43.522Z</time></trkpt><trkpt lat="42.5818975" lon="12.8517246"><ele>1006.2</ele><time>2026-05-01T12:46:44.514Z</time></trkpt><trkpt lat="42.5819117" lon="12.8515726"><ele>1002.4</ele><time>2026-05-01T12:46:45.519Z</time></trkpt><trkpt lat="42.5819141" lon="12.8514207"><ele>998.5999999999999</ele><time>2026-05-01T12:46:46.528Z</time></trkpt><trkpt lat="42.5819217" lon="12.8512734"><ele>994.8</ele><time>2026-05-01T12:46:47.524Z</time></trkpt><trkpt lat="42.581941" lon="12.8511243"><ele>991.0</ele><time>2026-05-01T12:46:48.519Z</time></trkpt><trkpt lat="42.5819775" lon="12.8509749"><ele>999.25</ele><time>2026-05-01T12:46:49.526Z</time></trkpt><trkpt lat="42.5820304" lon="12.8508349"><ele>1007.5</ele><time>2026-05-01T12:46:50.518Z</time></trkpt><trkpt lat="42.5821016" lon="12.8506984"><ele>1015.75</ele><time>2026-05-01T12:46:51.523Z</time></trkpt><trkpt lat="42.5821926" lon="12.8505619"><ele>1024.0</ele><time>2026-05-01T12:46:52.517Z</time></trkpt><trkpt lat="42.5822945" lon="12.8504148"><ele>1024.0</ele><time>2026-05-01T12:46:53.528Z</time></trkpt><trkpt lat="42.582383" lon="12.8502558"><ele>1024.0</ele><time>2026-05-01T12:46:54.514Z</time></trkpt><trkpt lat="42.5824637" lon="12.8500906"><ele>1024.0</ele><time>2026-05-01T12:46:55.519Z</time></trkpt><trkpt lat="42.5825341" lon="12.8499335"><ele>1024.0</ele><time>2026-05-01T12:46:56.521Z</time></trkpt><trkpt lat="42.5826144" lon="12.8497957"><ele>1027.75</ele><time>2026-05-01T12:46:57.524Z</time></trkpt><trkpt lat="42.5827077" lon="12.8496806"><ele>1031.5</ele><time>2026-05-01T12:46:58.524Z</time></trkpt><trkpt lat="42.5828113" lon="12.8495711"><ele>1035.25</ele><time>2026-05-01T12:46:59.521Z</time></trkpt><trkpt lat="42.582931" lon="12.8494713"><ele>1039.0</ele><time>2026-05-01T12:47:00.514Z</time></trkpt><trkpt lat="42.5830442" lon="12.8493995"><ele>1039.0</ele><time>2026-05-01T12:47:01.514Z</time></trkpt><trkpt lat="42.5831439" lon="12.8493304"><ele>1039.0</ele><time>2026-05-01T12:47:02.524Z</time></trkpt><trkpt lat="42.583241" lon="12.8492564"><ele>1039.0</ele><time>2026-05-01T12:47:03.52Z</time></trkpt><trkpt lat="42.5833371" lon="12.8491729"><ele>1039.0</ele><time>2026-05-01T12:47:04.52Z</time></trkpt><trkpt lat="42.5834357" lon="12.8490909"><ele>1034.5</ele><time>2026-05-01T12:47:05.523Z</time></trkpt><trkpt lat="42.5835448" lon="12.8490131"><ele>1030.0</ele><time>2026-05-01T12:47:06.528Z</time></trkpt><trkpt lat="42.583655" lon="12.8489369"><ele>1025.5</ele><time>2026-05-01T12:47:07.519Z</time></trkpt><trkpt lat="42.5837744" lon="12.8488526"><ele>1021.0</ele><time>2026-05-01T12:47:08.52Z</time></trkpt><trkpt lat="42.5839021" lon="12.8487715"><ele>1021.0</ele><time>2026-05-01T12:47:09.519Z</time></trkpt><trkpt lat="42.5840341" lon="12.8486925"><ele>1021.0</ele><time>2026-05-01T12:47:10.527Z</time></trkpt><trkpt lat="42.5841581" lon="12.8486195"><ele>1021.0</ele><time>2026-05-01T12:47:11.52Z</time></trkpt><trkpt lat="42.584272" lon="12.8485676"><ele>1021.0</ele><time>2026-05-01T12:47:12.527Z</time></trkpt><trkpt lat="42.5843819" lon="12.8485521"><ele>1021.0</ele><time>2026-05-01T12:47:13.521Z</time></trkpt><trkpt lat="42.5844999" lon="12.8485821"><ele>1021.0</ele><time>2026-05-01T12:47:14.531Z</time></trkpt><trkpt lat="42.5846355" lon="12.8486337"><ele>1021.0</ele><time>2026-05-01T12:47:15.529Z</time></trkpt><trkpt lat="42.5847899" lon="12.8486727"><ele>1021.0</ele><time>2026-05-01T12:47:16.517Z</time></trkpt><trkpt lat="42.5849539" lon="12.8487075"><ele>1021.3333333333333</ele><time>2026-05-01T12:47:17.519Z</time></trkpt><trkpt lat="42.5851164" lon="12.8487402"><ele>1021.6666666666667</ele><time>2026-05-01T12:47:18.528Z</time></trkpt><trkpt lat="42.5852721" lon="12.8487694"><ele>1022.0</ele><time>2026-05-01T12:47:19.525Z</time></trkpt><trkpt lat="42.5854192" lon="12.8488102"><ele>1022.0</ele><time>2026-05-01T12:47:20.522Z</time></trkpt><trkpt lat="42.5855458" lon="12.8488575"><ele>1022.0</ele><time>2026-05-01T12:47:21.528Z</time></trkpt><trkpt lat="42.5856665" lon="12.8489134"><ele>1022.0</ele><time>2026-05-01T12:47:22.524Z</time></trkpt><trkpt lat="42.5857781" lon="12.8489879"><ele>1022.0</ele><time>2026-05-01T12:47:23.522Z</time></trkpt><trkpt lat="42.5858695" lon="12.8490687"><ele>1022.0</ele><time>2026-05-01T12:47:24.522Z</time></trkpt><trkpt lat="42.5859585" lon="12.8491248"><ele>1022.0</ele><time>2026-05-01T12:47:25.518Z</time></trkpt><trkpt lat="42.5860675" lon="12.8491472"><ele>1022.0</ele><time>2026-05-01T12:47:26.528Z</time></trkpt><trkpt lat="42.5861782" lon="12.8491148"><ele>1022.0</ele><time>2026-05-01T12:47:27.517Z</time></trkpt><trkpt lat="42.5862858" lon="12.8490548"><ele>1022.0</ele><time>2026-05-01T12:47:28.518Z</time></trkpt><trkpt lat="42.5863933" lon="12.8489631"><ele>1025.5</ele><time>2026-05-01T12:47:29.515Z</time></trkpt><trkpt lat="42.5865005" lon="12.848856"><ele>1029.0</ele><time>2026-05-01T12:47:30.526Z</time></trkpt><trkpt lat="42.5866038" lon="12.8487518"><ele>1032.5</ele><time>2026-05-01T12:47:31.523Z</time></trkpt><trkpt lat="42.5867184" lon="12.8486568"><ele>1036.0</ele><time>2026-05-01T12:47:32.517Z</time></trkpt><trkpt lat="42.5868389" lon="12.8485682"><ele>1036.0</ele><time>2026-05-01T12:47:33.518Z</time></trkpt><trkpt lat="42.5869677" lon="12.8484777"><ele>1036.0</ele><time>2026-05-01T12:47:34.532Z</time></trkpt><trkpt lat="42.5870914" lon="12.8484009"><ele>1036.0</ele><time>2026-05-01T12:47:35.522Z</time></trkpt><trkpt lat="42.5872097" lon="12.8483038"><ele>1036.0</ele><time>2026-05-01T12:47:36.516Z</time></trkpt><trkpt lat="42.5873161" lon="12.8481825"><ele>1036.0</ele><time>2026-05-01T12:47:37.523Z</time></trkpt><trkpt lat="42.5874131" lon="12.8480273"><ele>1036.0</ele><time>2026-05-01T12:47:38.52Z</time></trkpt><trkpt lat="42.5875018" lon="12.8478528"><ele>1036.0</ele><time>2026-05-01T12:47:39.52Z</time></trkpt><trkpt lat="42.5875999" lon="12.8476901"><ele>1037.0</ele><time>2026-05-01T12:47:40.522Z</time></trkpt><trkpt lat="42.5877001" lon="12.8475401"><ele>1038.0</ele><time>2026-05-01T12:47:41.526Z</time></trkpt><trkpt lat="42.5877926" lon="12.8473905"><ele>1039.0</ele><time>2026-05-01T12:47:42.529Z</time></trkpt><trkpt lat="42.5878857" lon="12.8472522"><ele>1040.0</ele><time>2026-05-01T12:47:43.531Z</time></trkpt><trkpt lat="42.5879756" lon="12.8471167"><ele>1040.0</ele><time>2026-05-01T12:47:44.521Z</time></trkpt><trkpt lat="42.5880659" lon="12.8469914"><ele>1040.0</ele><time>2026-05-01T12:47:45.524Z</time></trkpt><trkpt lat="42.5881454" lon="12.8468833"><ele>1040.0</ele><time>2026-05-01T12:47:46.519Z</time></trkpt><trkpt lat="42.5882252" lon="12.8468009"><ele>1040.0</ele><time>2026-05-01T12:47:47.522Z</time></trkpt><trkpt lat="42.5883171" lon="12.8467544"><ele>1040.0</ele><time>2026-05-01T12:47:48.516Z</time></trkpt><trkpt lat="42.5884068" lon="12.8467501"><ele>1040.0</ele><time>2026-05-01T12:47:49.53Z</time></trkpt><trkpt lat="42.5884889" lon="12.8467712"><ele>1040.0</ele><time>2026-05-01T12:47:50.517Z</time></trkpt><trkpt lat="42.5885745" lon="12.8468278"><ele>1040.0</ele><time>2026-05-01T12:47:51.525Z</time></trkpt><trkpt lat="42.5886668" lon="12.8469148"><ele>1040.0</ele><time>2026-05-01T12:47:52.519Z</time></trkpt><trkpt lat="42.5887642" lon="12.8470112"><ele>1040.0</ele><time>2026-05-01T12:47:53.522Z</time></trkpt><trkpt lat="42.588868" lon="12.8471148"><ele>1037.3333333333335</ele><time>2026-05-01T12:47:54.522Z</time></trkpt><trkpt lat="42.5889772" lon="12.8472246"><ele>1034.6666666666667</ele><time>2026-05-01T12:47:55.515Z</time></trkpt><trkpt lat="42.5890964" lon="12.847357"><ele>1032.0</ele><time>2026-05-01T12:47:56.525Z</time></trkpt><trkpt lat="42.5892182" lon="12.8475266"><ele>1028.6666666666667</ele><time>2026-05-01T12:47:57.521Z</time></trkpt><trkpt lat="42.5893246" lon="12.8477205"><ele>1025.3333333333335</ele><time>2026-05-01T12:47:58.52Z</time></trkpt><trkpt lat="42.5894233" lon="12.8479112"><ele>1022.0</ele><time>2026-05-01T12:47:59.526Z</time></trkpt><trkpt lat="42.5895114" lon="12.8480993"><ele>1022.0</ele><time>2026-05-01T12:48:00.519Z</time></trkpt><trkpt lat="42.589587" lon="12.8482836"><ele>1022.0</ele><time>2026-05-01T12:48:01.52Z</time></trkpt><trkpt lat="42.5896545" lon="12.8484567"><ele>1022.0</ele><time>2026-05-01T12:48:02.517Z</time></trkpt><trkpt lat="42.5897002" lon="12.848611"><ele>1022.0</ele><time>2026-05-01T12:48:03.519Z</time></trkpt><trkpt lat="42.5897242" lon="12.8487493"><ele>1024.0</ele><time>2026-05-01T12:48:04.522Z</time></trkpt><trkpt lat="42.589731" lon="12.8488952"><ele>1026.0</ele><time>2026-05-01T12:48:05.528Z</time></trkpt><trkpt lat="42.5897202" lon="12.8490718"><ele>1028.0</ele><time>2026-05-01T12:48:06.527Z</time></trkpt><trkpt lat="42.5896901" lon="12.849253"><ele>1030.0</ele><time>2026-05-01T12:48:07.528Z</time></trkpt><trkpt lat="42.5896492" lon="12.8494422"><ele>1031.6666666666665</ele><time>2026-05-01T12:48:08.53Z</time></trkpt><trkpt lat="42.5896132" lon="12.8496546"><ele>1033.3333333333333</ele><time>2026-05-01T12:48:09.521Z</time></trkpt><trkpt lat="42.5895692" lon="12.8498759"><ele>1035.0</ele><time>2026-05-01T12:48:10.521Z</time></trkpt><trkpt lat="42.589513" lon="12.8500911"><ele>1043.25</ele><time>2026-05-01T12:48:11.519Z</time></trkpt><trkpt lat="42.5894533" lon="12.8502972"><ele>1051.5</ele><time>2026-05-01T12:48:12.521Z</time></trkpt><trkpt lat="42.589402" lon="12.8504846"><ele>1059.75</ele><time>2026-05-01T12:48:13.523Z</time></trkpt><trkpt lat="42.5893658" lon="12.8506636"><ele>1068.0</ele><time>2026-05-01T12:48:14.521Z</time></trkpt><trkpt lat="42.5893633" lon="12.8508309"><ele>1067.8</ele><time>2026-05-01T12:48:15.53Z</time></trkpt><trkpt lat="42.5893786" lon="12.8509718"><ele>1067.6</ele><time>2026-05-01T12:48:16.53Z</time></trkpt><trkpt lat="42.5894069" lon="12.8510853"><ele>1067.4</ele><time>2026-05-01T12:48:17.514Z</time></trkpt><trkpt lat="42.5894532" lon="12.8511662"><ele>1067.2</ele><time>2026-05-01T12:48:18.518Z</time></trkpt><trkpt lat="42.5895358" lon="12.8511938"><ele>1067.0</ele><time>2026-05-01T12:48:19.523Z</time></trkpt><trkpt lat="42.589634" lon="12.8511643"><ele>1067.0</ele><time>2026-05-01T12:48:20.52Z</time></trkpt><trkpt lat="42.5897286" lon="12.8511007"><ele>1067.0</ele><time>2026-05-01T12:48:21.522Z</time></trkpt><trkpt lat="42.5898135" lon="12.850995"><ele>1067.0</ele><time>2026-05-01T12:48:22.52Z</time></trkpt><trkpt lat="42.5898992" lon="12.8508639"><ele>1067.0</ele><time>2026-05-01T12:48:23.52Z</time></trkpt><trkpt lat="42.5899955" lon="12.8507288"><ele>1062.75</ele><time>2026-05-01T12:48:24.516Z</time></trkpt><trkpt lat="42.5900953" lon="12.8506007"><ele>1058.5</ele><time>2026-05-01T12:48:25.517Z</time></trkpt><trkpt lat="42.5902096" lon="12.8504823"><ele>1054.25</ele><time>2026-05-01T12:48:26.515Z</time></trkpt><trkpt lat="42.5903242" lon="12.8503771"><ele>1050.0</ele><time>2026-05-01T12:48:27.521Z</time></trkpt><trkpt lat="42.5904233" lon="12.8502976"><ele>1049.2</ele><time>2026-05-01T12:48:28.518Z</time></trkpt><trkpt lat="42.5905139" lon="12.8502612"><ele>1048.4</ele><time>2026-05-01T12:48:29.521Z</time></trkpt><trkpt lat="42.5906021" lon="12.8502849"><ele>1047.6</ele><time>2026-05-01T12:48:30.523Z</time></trkpt><trkpt lat="42.5906788" lon="12.850368"><ele>1046.8</ele><time>2026-05-01T12:48:31.517Z</time></trkpt><trkpt lat="42.5907456" lon="12.8504996"><ele>1046.0</ele><time>2026-05-01T12:48:32.529Z</time></trkpt><trkpt lat="42.590809" lon="12.8506732"><ele>1046.0</ele><time>2026-05-01T12:48:33.522Z</time></trkpt><trkpt lat="42.590877" lon="12.850862"><ele>1046.0</ele><time>2026-05-01T12:48:34.518Z</time></trkpt><trkpt lat="42.590946" lon="12.8510578"><ele>1046.0</ele><time>2026-05-01T12:48:35.534Z</time></trkpt><trkpt lat="42.5910211" lon="12.8512335"><ele>1047.0</ele><time>2026-05-01T12:48:36.52Z</time></trkpt><trkpt lat="42.5910947" lon="12.8513899"><ele>1048.0</ele><time>2026-05-01T12:48:37.52Z</time></trkpt><trkpt lat="42.5911662" lon="12.8515111"><ele>1049.0</ele><time>2026-05-01T12:48:38.516Z</time></trkpt><trkpt lat="42.591244" lon="12.8515743"><ele>1050.0</ele><time>2026-05-01T12:48:39.523Z</time></trkpt><trkpt lat="42.5913323" lon="12.8516075"><ele>1051.0</ele><time>2026-05-01T12:48:41.522Z</time></trkpt><trkpt lat="42.5914347" lon="12.8515816"><ele>1051.0</ele><time>2026-05-01T12:49:22.516Z</time></trkpt><trkpt lat="42.5914955" lon="12.8515457"><ele>1051.0</ele><time>2026-05-01T12:49:23.515Z</time></trkpt><trkpt lat="42.591562" lon="12.8514917"><ele>1051.0</ele><time>2026-05-01T12:49:24.52Z</time></trkpt><trkpt lat="42.5916263" lon="12.8513967"><ele>1051.0</ele><time>2026-05-01T12:49:25.519Z</time></trkpt><trkpt lat="42.5916791" lon="12.8512566"><ele>1051.0</ele><time>2026-05-01T12:49:26.515Z</time></trkpt><trkpt lat="42.5917219" lon="12.8510937"><ele>1048.5</ele><time>2026-05-01T12:49:27.525Z</time></trkpt><trkpt lat="42.5917552" lon="12.8509171"><ele>1046.0</ele><time>2026-05-01T12:49:28.529Z</time></trkpt><trkpt lat="42.5917864" lon="12.8507613"><ele>1043.5</ele><time>2026-05-01T12:49:29.518Z</time></trkpt><trkpt lat="42.5918344" lon="12.8506338"><ele>1041.0</ele><time>2026-05-01T12:49:30.519Z</time></trkpt><trkpt lat="42.5919001" lon="12.850535"><ele>1041.0</ele><time>2026-05-01T12:49:31.523Z</time></trkpt><trkpt lat="42.5919867" lon="12.8504674"><ele>1041.0</ele><time>2026-05-01T12:49:32.522Z</time></trkpt><trkpt lat="42.5920906" lon="12.8504058"><ele>1041.0</ele><time>2026-05-01T12:49:33.532Z</time></trkpt><trkpt lat="42.5922063" lon="12.8503428"><ele>1041.0</ele><time>2026-05-01T12:49:34.519Z</time></trkpt><trkpt lat="42.592334" lon="12.8502673"><ele>1039.0</ele><time>2026-05-01T12:49:35.518Z</time></trkpt><trkpt lat="42.5924588" lon="12.8501802"><ele>1037.0</ele><time>2026-05-01T12:49:36.521Z</time></trkpt><trkpt lat="42.5925802" lon="12.8500953"><ele>1035.0</ele><time>2026-05-01T12:49:37.53Z</time></trkpt><trkpt lat="42.592694" lon="12.8500111"><ele>1033.0</ele><time>2026-05-01T12:49:38.518Z</time></trkpt><trkpt lat="42.592805" lon="12.8499251"><ele>1033.6</ele><time>2026-05-01T12:49:39.522Z</time></trkpt><trkpt lat="42.5929031" lon="12.8498231"><ele>1034.1999999999998</ele><time>2026-05-01T12:49:40.529Z</time></trkpt><trkpt lat="42.5929761" lon="12.8497035"><ele>1034.8</ele><time>2026-05-01T12:49:41.527Z</time></trkpt><trkpt lat="42.5930295" lon="12.84959"><ele>1035.3999999999999</ele><time>2026-05-01T12:49:42.518Z</time></trkpt><trkpt lat="42.5930785" lon="12.8494974"><ele>1036.0</ele><time>2026-05-01T12:49:43.517Z</time></trkpt><trkpt lat="42.5931292" lon="12.8494273"><ele>1036.0</ele><time>2026-05-01T12:49:44.516Z</time></trkpt><trkpt lat="42.5931911" lon="12.8494072"><ele>1036.0</ele><time>2026-05-01T12:49:45.517Z</time></trkpt><trkpt lat="42.5932637" lon="12.849458"><ele>1036.0</ele><time>2026-05-01T12:49:46.526Z</time></trkpt><trkpt lat="42.5933427" lon="12.8495741"><ele>1036.0</ele><time>2026-05-01T12:49:47.52Z</time></trkpt><trkpt lat="42.5934277" lon="12.8497246"><ele>1036.0</ele><time>2026-05-01T12:49:48.533Z</time></trkpt><trkpt lat="42.5935168" lon="12.8498766"><ele>1036.0</ele><time>2026-05-01T12:49:49.529Z</time></trkpt><trkpt lat="42.5936113" lon="12.8500315"><ele>1036.0</ele><time>2026-05-01T12:49:50.522Z</time></trkpt><trkpt lat="42.5937091" lon="12.8501857"><ele>1036.0</ele><time>2026-05-01T12:49:51.52Z</time></trkpt><trkpt lat="42.5938064" lon="12.8503511"><ele>1035.25</ele><time>2026-05-01T12:49:52.521Z</time></trkpt><trkpt lat="42.5939019" lon="12.8505107"><ele>1034.5</ele><time>2026-05-01T12:49:53.516Z</time></trkpt><trkpt lat="42.5939902" lon="12.8506644"><ele>1033.75</ele><time>2026-05-01T12:49:54.525Z</time></trkpt><trkpt lat="42.5940703" lon="12.8508167"><ele>1033.0</ele><time>2026-05-01T12:49:55.522Z</time></trkpt><trkpt lat="42.5941558" lon="12.8509746"><ele>1038.25</ele><time>2026-05-01T12:49:56.522Z</time></trkpt><trkpt lat="42.5942448" lon="12.8511304"><ele>1043.5</ele><time>2026-05-01T12:49:57.517Z</time></trkpt><trkpt lat="42.5943309" lon="12.851274"><ele>1048.75</ele><time>2026-05-01T12:49:58.527Z</time></trkpt><trkpt lat="42.5944101" lon="12.8514077"><ele>1054.0</ele><time>2026-05-01T12:49:59.515Z</time></trkpt><trkpt lat="42.5944893" lon="12.8515399"><ele>1049.0</ele><time>2026-05-01T12:50:00.523Z</time></trkpt><trkpt lat="42.5945714" lon="12.8516713"><ele>1044.0</ele><time>2026-05-01T12:50:01.519Z</time></trkpt><trkpt lat="42.5946453" lon="12.851798"><ele>1039.0</ele><time>2026-05-01T12:50:02.519Z</time></trkpt><trkpt lat="42.5947125" lon="12.8519246"><ele>1034.0</ele><time>2026-05-01T12:50:03.52Z</time></trkpt><trkpt lat="42.5947809" lon="12.8520613"><ele>1034.0</ele><time>2026-05-01T12:50:04.533Z</time></trkpt><trkpt lat="42.5948473" lon="12.8522175"><ele>1034.0</ele><time>2026-05-01T12:50:05.523Z</time></trkpt><trkpt lat="42.5949057" lon="12.8523898"><ele>1034.0</ele><time>2026-05-01T12:50:06.518Z</time></trkpt><trkpt lat="42.5949532" lon="12.8525765"><ele>1034.0</ele><time>2026-05-01T12:50:07.526Z</time></trkpt><trkpt lat="42.5949879" lon="12.8527615"><ele>1035.75</ele><time>2026-05-01T12:50:08.525Z</time></trkpt><trkpt lat="42.5950232" lon="12.852937"><ele>1037.5</ele><time>2026-05-01T12:50:09.519Z</time></trkpt><trkpt lat="42.5950499" lon="12.8530948"><ele>1039.25</ele><time>2026-05-01T12:50:10.52Z</time></trkpt><trkpt lat="42.5950617" lon="12.8532497"><ele>1041.0</ele><time>2026-05-01T12:50:11.525Z</time></trkpt><trkpt lat="42.5950488" lon="12.8534"><ele>1039.0</ele><time>2026-05-01T12:50:12.516Z</time></trkpt><trkpt lat="42.595042" lon="12.853529"><ele>1037.0</ele><time>2026-05-01T12:50:13.524Z</time></trkpt><trkpt lat="42.5950773" lon="12.853627"><ele>1035.0</ele><time>2026-05-01T12:50:14.523Z</time></trkpt><trkpt lat="42.595145" lon="12.8537035"><ele>1033.0</ele><time>2026-05-01T12:50:15.517Z</time></trkpt><trkpt lat="42.5952405" lon="12.85376"><ele>1031.0</ele><time>2026-05-01T12:50:16.523Z</time></trkpt><trkpt lat="42.5953599" lon="12.8538033"><ele>1031.0</ele><time>2026-05-01T12:50:17.517Z</time></trkpt><trkpt lat="42.5954894" lon="12.8538567"><ele>1031.0</ele><time>2026-05-01T12:50:18.521Z</time></trkpt><trkpt lat="42.595607" lon="12.8539351"><ele>1031.0</ele><time>2026-05-01T12:50:19.524Z</time></trkpt><trkpt lat="42.5957086" lon="12.8540557"><ele>1031.0</ele><time>2026-05-01T12:50:20.522Z</time></trkpt><trkpt lat="42.5957868" lon="12.8542253"><ele>1036.0</ele><time>2026-05-01T12:50:21.519Z</time></trkpt><trkpt lat="42.5958632" lon="12.8544411"><ele>1041.0</ele><time>2026-05-01T12:50:22.52Z</time></trkpt><trkpt lat="42.5959549" lon="12.854648"><ele>1046.0</ele><time>2026-05-01T12:50:23.522Z</time></trkpt><trkpt lat="42.5960334" lon="12.8548535"><ele>1046.0</ele><time>2026-05-01T12:50:24.53Z</time></trkpt><trkpt lat="42.5961042" lon="12.8550717"><ele>1046.0</ele><time>2026-05-01T12:50:25.528Z</time></trkpt><trkpt lat="42.5961642" lon="12.8552986"><ele>1046.0</ele><time>2026-05-01T12:50:26.523Z</time></trkpt><trkpt lat="42.5962064" lon="12.8554949"><ele>1045.75</ele><time>2026-05-01T12:50:27.524Z</time></trkpt><trkpt lat="42.5962345" lon="12.8556816"><ele>1045.5</ele><time>2026-05-01T12:50:28.522Z</time></trkpt><trkpt lat="42.5962653" lon="12.8558618"><ele>1045.25</ele><time>2026-05-01T12:50:29.528Z</time></trkpt><trkpt lat="42.5963214" lon="12.856021"><ele>1045.0</ele><time>2026-05-01T12:50:30.522Z</time></trkpt><trkpt lat="42.5964081" lon="12.8561446"><ele>1045.0</ele><time>2026-05-01T12:50:31.52Z</time></trkpt><trkpt lat="42.596509" lon="12.8562094"><ele>1045.0</ele><time>2026-05-01T12:50:32.533Z</time></trkpt><trkpt lat="42.5966193" lon="12.8562325"><ele>1045.0</ele><time>2026-05-01T12:50:33.519Z</time></trkpt><trkpt lat="42.5967352" lon="12.8562537"><ele>1045.0</ele><time>2026-05-01T12:50:34.527Z</time></trkpt><trkpt lat="42.5968434" lon="12.8563215"><ele>1045.0</ele><time>2026-05-01T12:50:35.521Z</time></trkpt><trkpt lat="42.5969304" lon="12.8564185"><ele>1045.0</ele><time>2026-05-01T12:50:36.526Z</time></trkpt><trkpt lat="42.5970068" lon="12.8565482"><ele>1045.0</ele><time>2026-05-01T12:50:37.525Z</time></trkpt><trkpt lat="42.5970697" lon="12.8567005"><ele>1045.0</ele><time>2026-05-01T12:50:38.522Z</time></trkpt><trkpt lat="42.5971267" lon="12.8568636"><ele>1042.0</ele><time>2026-05-01T12:50:39.528Z</time></trkpt><trkpt lat="42.5971695" lon="12.8570252"><ele>1039.0</ele><time>2026-05-01T12:50:40.518Z</time></trkpt><trkpt lat="42.5972078" lon="12.8571835"><ele>1036.0</ele><time>2026-05-01T12:50:41.516Z</time></trkpt><trkpt lat="42.5972422" lon="12.8573297"><ele>1033.0</ele><time>2026-05-01T12:50:42.519Z</time></trkpt><trkpt lat="42.5972749" lon="12.8574457"><ele>1033.0</ele><time>2026-05-01T12:50:43.525Z</time></trkpt><trkpt lat="42.5972955" lon="12.8575267"><ele>1033.0</ele><time>2026-05-01T12:50:44.518Z</time></trkpt><trkpt lat="42.5973185" lon="12.8576073"><ele>1033.0</ele><time>2026-05-01T12:50:46.519Z</time></trkpt><trkpt lat="42.5973729" lon="12.8576778"><ele>1033.0</ele><time>2026-05-01T12:50:59.541Z</time></trkpt><trkpt lat="42.5974776" lon="12.8578035"><ele>1033.0</ele><time>2026-05-01T12:51:01.519Z</time></trkpt><trkpt lat="42.5975559" lon="12.857897"><ele>1033.0</ele><time>2026-05-01T12:51:02.518Z</time></trkpt><trkpt lat="42.5976602" lon="12.8579958"><ele>1031.0</ele><time>2026-05-01T12:51:03.519Z</time></trkpt><trkpt lat="42.5977751" lon="12.8580937"><ele>1029.0</ele><time>2026-05-01T12:51:04.523Z</time></trkpt><trkpt lat="42.5978817" lon="12.8581864"><ele>1027.0</ele><time>2026-05-01T12:51:05.518Z</time></trkpt><trkpt lat="42.5979747" lon="12.8582849"><ele>1025.0</ele><time>2026-05-01T12:51:06.523Z</time></trkpt><trkpt lat="42.5980648" lon="12.8583968"><ele>1028.25</ele><time>2026-05-01T12:51:07.515Z</time></trkpt><trkpt lat="42.5981549" lon="12.85852"><ele>1031.5</ele><time>2026-05-01T12:51:08.515Z</time></trkpt><trkpt lat="42.598234" lon="12.8586487"><ele>1034.75</ele><time>2026-05-01T12:51:09.528Z</time></trkpt><trkpt lat="42.5982981" lon="12.8587725"><ele>1038.0</ele><time>2026-05-01T12:51:10.514Z</time></trkpt><trkpt lat="42.598371" lon="12.8588858"><ele>1038.0</ele><time>2026-05-01T12:51:11.518Z</time></trkpt><trkpt lat="42.5984652" lon="12.8589769"><ele>1038.0</ele><time>2026-05-01T12:51:12.521Z</time></trkpt><trkpt lat="42.5985863" lon="12.8590383"><ele>1038.0</ele><time>2026-05-01T12:51:13.519Z</time></trkpt><trkpt lat="42.5987184" lon="12.8590901"><ele>1038.0</ele><time>2026-05-01T12:51:14.526Z</time></trkpt><trkpt lat="42.598857" lon="12.8591401"><ele>1033.75</ele><time>2026-05-01T12:51:15.526Z</time></trkpt><trkpt lat="42.5989819" lon="12.8592033"><ele>1029.5</ele><time>2026-05-01T12:51:16.519Z</time></trkpt><trkpt lat="42.5991044" lon="12.85928"><ele>1025.25</ele><time>2026-05-01T12:51:17.521Z</time></trkpt><trkpt lat="42.5991974" lon="12.8593487"><ele>1021.0</ele><time>2026-05-01T12:51:18.527Z</time></trkpt><trkpt lat="42.5992599" lon="12.8594329"><ele>1021.0</ele><time>2026-05-01T12:51:19.524Z</time></trkpt><trkpt lat="42.5992763" lon="12.859564"><ele>1021.0</ele><time>2026-05-01T12:51:20.518Z</time></trkpt><trkpt lat="42.5992907" lon="12.8597232"><ele>1021.0</ele><time>2026-05-01T12:51:21.516Z</time></trkpt><trkpt lat="42.5993026" lon="12.859909"><ele>1021.0</ele><time>2026-05-01T12:51:22.511Z</time></trkpt><trkpt lat="42.599312" lon="12.8601017"><ele>1021.75</ele><time>2026-05-01T12:51:23.517Z</time></trkpt><trkpt lat="42.5993181" lon="12.8603005"><ele>1022.5</ele><time>2026-05-01T12:51:24.525Z</time></trkpt><trkpt lat="42.5993241" lon="12.860497"><ele>1023.25</ele><time>2026-05-01T12:51:25.531Z</time></trkpt><trkpt lat="42.5993401" lon="12.8606767"><ele>1024.0</ele><time>2026-05-01T12:51:26.527Z</time></trkpt><trkpt lat="42.5993681" lon="12.8608158"><ele>1024.0</ele><time>2026-05-01T12:51:27.521Z</time></trkpt><trkpt lat="42.5994328" lon="12.8609315"><ele>1024.0</ele><time>2026-05-01T12:51:28.519Z</time></trkpt><trkpt lat="42.5995429" lon="12.861035"><ele>1024.0</ele><time>2026-05-01T12:51:29.527Z</time></trkpt><trkpt lat="42.5996701" lon="12.8611291"><ele>1024.0</ele><time>2026-05-01T12:51:30.519Z</time></trkpt><trkpt lat="42.5998068" lon="12.8612133"><ele>1021.75</ele><time>2026-05-01T12:51:31.527Z</time></trkpt><trkpt lat="42.5999413" lon="12.8613163"><ele>1019.5</ele><time>2026-05-01T12:51:32.523Z</time></trkpt><trkpt lat="42.6000598" lon="12.8614377"><ele>1017.25</ele><time>2026-05-01T12:51:33.518Z</time></trkpt><trkpt lat="42.6001654" lon="12.8615561"><ele>1015.0</ele><time>2026-05-01T12:51:34.519Z</time></trkpt><trkpt lat="42.60026" lon="12.8616502"><ele>1014.0</ele><time>2026-05-01T12:51:35.527Z</time></trkpt><trkpt lat="42.6003642" lon="12.861715"><ele>1013.0</ele><time>2026-05-01T12:51:36.524Z</time></trkpt><trkpt lat="42.6004941" lon="12.8617583"><ele>1012.0</ele><time>2026-05-01T12:51:37.517Z</time></trkpt><trkpt lat="42.6006274" lon="12.8617978"><ele>1011.0</ele><time>2026-05-01T12:51:38.514Z</time></trkpt><trkpt lat="42.6007587" lon="12.8618423"><ele>1011.0</ele><time>2026-05-01T12:51:39.528Z</time></trkpt><trkpt lat="42.6008738" lon="12.8619052"><ele>1011.0</ele><time>2026-05-01T12:51:40.52Z</time></trkpt><trkpt lat="42.6009892" lon="12.8619941"><ele>1011.0</ele><time>2026-05-01T12:51:41.519Z</time></trkpt><trkpt lat="42.6010957" lon="12.8621041"><ele>1011.0</ele><time>2026-05-01T12:51:42.519Z</time></trkpt><trkpt lat="42.6011983" lon="12.8622325"><ele>1006.0</ele><time>2026-05-01T12:51:43.521Z</time></trkpt><trkpt lat="42.6012988" lon="12.8623825"><ele>1001.0</ele><time>2026-05-01T12:51:44.519Z</time></trkpt><trkpt lat="42.6013801" lon="12.862543"><ele>996.0</ele><time>2026-05-01T12:51:45.518Z</time></trkpt><trkpt lat="42.6014598" lon="12.8627101"><ele>991.0</ele><time>2026-05-01T12:51:46.522Z</time></trkpt><trkpt lat="42.6015303" lon="12.8628854"><ele>991.0</ele><time>2026-05-01T12:51:47.53Z</time></trkpt><trkpt lat="42.6015853" lon="12.8630413"><ele>991.0</ele><time>2026-05-01T12:51:48.521Z</time></trkpt><trkpt lat="42.601622" lon="12.8631949"><ele>991.0</ele><time>2026-05-01T12:51:49.525Z</time></trkpt><trkpt lat="42.6016502" lon="12.8633678"><ele>991.0</ele><time>2026-05-01T12:51:50.517Z</time></trkpt><trkpt lat="42.6016628" lon="12.8635532"><ele>990.5</ele><time>2026-05-01T12:51:51.532Z</time></trkpt><trkpt lat="42.6016486" lon="12.8637382"><ele>990.0</ele><time>2026-05-01T12:51:52.512Z</time></trkpt><trkpt lat="42.6016215" lon="12.8639222"><ele>989.5</ele><time>2026-05-01T12:51:53.526Z</time></trkpt><trkpt lat="42.6015967" lon="12.864096"><ele>989.0</ele><time>2026-05-01T12:51:54.515Z</time></trkpt><trkpt lat="42.6015658" lon="12.8642711"><ele>988.0</ele><time>2026-05-01T12:51:55.527Z</time></trkpt><trkpt lat="42.6015372" lon="12.8644481"><ele>987.0</ele><time>2026-05-01T12:51:56.521Z</time></trkpt><trkpt lat="42.6014999" lon="12.8646192"><ele>986.0</ele><time>2026-05-01T12:51:57.527Z</time></trkpt><trkpt lat="42.6014547" lon="12.864786"><ele>985.0</ele><time>2026-05-01T12:51:58.518Z</time></trkpt><trkpt lat="42.6014123" lon="12.8649476"><ele>985.0</ele><time>2026-05-01T12:51:59.517Z</time></trkpt><trkpt lat="42.6013777" lon="12.8651024"><ele>985.0</ele><time>2026-05-01T12:52:00.531Z</time></trkpt><trkpt lat="42.6013547" lon="12.8652338"><ele>985.0</ele><time>2026-05-01T12:52:01.526Z</time></trkpt><trkpt lat="42.6013523" lon="12.8653566"><ele>985.0</ele><time>2026-05-01T12:52:02.528Z</time></trkpt><trkpt lat="42.6013595" lon="12.8654703"><ele>985.0</ele><time>2026-05-01T12:52:03.521Z</time></trkpt><trkpt lat="42.6013794" lon="12.865575"><ele>988.75</ele><time>2026-05-01T12:52:04.53Z</time></trkpt><trkpt lat="42.6014273" lon="12.8656529"><ele>992.5</ele><time>2026-05-01T12:52:05.516Z</time></trkpt><trkpt lat="42.6015269" lon="12.8656959"><ele>996.25</ele><time>2026-05-01T12:52:06.52Z</time></trkpt><trkpt lat="42.6016544" lon="12.8656913"><ele>1000.0</ele><time>2026-05-01T12:52:07.519Z</time></trkpt><trkpt lat="42.6018024" lon="12.8656486"><ele>1000.0</ele><time>2026-05-01T12:52:08.517Z</time></trkpt><trkpt lat="42.6019444" lon="12.8655957"><ele>1000.0</ele><time>2026-05-01T12:52:09.513Z</time></trkpt><trkpt lat="42.6020802" lon="12.865549"><ele>1000.0</ele><time>2026-05-01T12:52:10.526Z</time></trkpt><trkpt lat="42.6022237" lon="12.8655347"><ele>1000.0</ele><time>2026-05-01T12:52:11.525Z</time></trkpt><trkpt lat="42.6023649" lon="12.8655316"><ele>998.0</ele><time>2026-05-01T12:52:12.522Z</time></trkpt><trkpt lat="42.6025003" lon="12.8655182"><ele>996.0</ele><time>2026-05-01T12:52:13.525Z</time></trkpt><trkpt lat="42.6026297" lon="12.8654792"><ele>994.0</ele><time>2026-05-01T12:52:14.524Z</time></trkpt><trkpt lat="42.6027553" lon="12.8654437"><ele>992.0</ele><time>2026-05-01T12:52:15.521Z</time></trkpt><trkpt lat="42.6028799" lon="12.8654388"><ele>989.6</ele><time>2026-05-01T12:52:16.525Z</time></trkpt><trkpt lat="42.6029977" lon="12.8654708"><ele>987.2</ele><time>2026-05-01T12:52:17.52Z</time></trkpt><trkpt lat="42.6030997" lon="12.8655223"><ele>984.8</ele><time>2026-05-01T12:52:18.532Z</time></trkpt><trkpt lat="42.6031871" lon="12.8655794"><ele>982.4</ele><time>2026-05-01T12:52:19.524Z</time></trkpt><trkpt lat="42.6032689" lon="12.8656286"><ele>980.0</ele><time>2026-05-01T12:52:20.515Z</time></trkpt><trkpt lat="42.6033424" lon="12.8656627"><ele>980.0</ele><time>2026-05-01T12:52:21.518Z</time></trkpt><trkpt lat="42.6034305" lon="12.865626"><ele>980.0</ele><time>2026-05-01T12:52:23.516Z</time></trkpt><trkpt lat="42.6034823" lon="12.8655163"><ele>980.0</ele><time>2026-05-01T12:52:25.537Z</time></trkpt><trkpt lat="42.603518" lon="12.8653949"><ele>980.0</ele><time>2026-05-01T12:52:27.516Z</time></trkpt><trkpt lat="42.6035091" lon="12.8652493"><ele>980.0</ele><time>2026-05-01T12:52:29.518Z</time></trkpt><trkpt lat="42.6034777" lon="12.8651593"><ele>978.2</ele><time>2026-05-01T12:52:30.525Z</time></trkpt><trkpt lat="42.60343" lon="12.8650577"><ele>976.4</ele><time>2026-05-01T12:52:31.525Z</time></trkpt><trkpt lat="42.6033697" lon="12.8649402"><ele>974.5999999999999</ele><time>2026-05-01T12:52:32.518Z</time></trkpt><trkpt lat="42.6033052" lon="12.8648124"><ele>972.8</ele><time>2026-05-01T12:52:33.523Z</time></trkpt><trkpt lat="42.6032455" lon="12.8646844"><ele>971.0</ele><time>2026-05-01T12:52:34.517Z</time></trkpt><trkpt lat="42.6032007" lon="12.8645601"><ele>971.0</ele><time>2026-05-01T12:52:35.528Z</time></trkpt><trkpt lat="42.603165" lon="12.8644387"><ele>970.9999999999999</ele><time>2026-05-01T12:52:36.534Z</time></trkpt><trkpt lat="42.6031436" lon="12.8643119"><ele>970.9999999999999</ele><time>2026-05-01T12:52:37.52Z</time></trkpt><trkpt lat="42.6031411" lon="12.8641851"><ele>971.0</ele><time>2026-05-01T12:52:38.516Z</time></trkpt><trkpt lat="42.6031378" lon="12.8640589"><ele>971.0</ele><time>2026-05-01T12:52:39.511Z</time></trkpt><trkpt lat="42.6031221" lon="12.8639434"><ele>970.3333333333334</ele><time>2026-05-01T12:52:40.523Z</time></trkpt><trkpt lat="42.6030912" lon="12.8638381"><ele>969.6666666666667</ele><time>2026-05-01T12:52:41.525Z</time></trkpt><trkpt lat="42.6030434" lon="12.8637476"><ele>969.0</ele><time>2026-05-01T12:52:42.528Z</time></trkpt><trkpt lat="42.6029789" lon="12.8636592"><ele>968.3333333333333</ele><time>2026-05-01T12:52:43.511Z</time></trkpt><trkpt lat="42.6029077" lon="12.8635714"><ele>967.6666666666666</ele><time>2026-05-01T12:52:44.518Z</time></trkpt><trkpt lat="42.602842" lon="12.8634824"><ele>967.0</ele><time>2026-05-01T12:52:45.534Z</time></trkpt><trkpt lat="42.6027971" lon="12.863391"><ele>968.6</ele><time>2026-05-01T12:52:46.519Z</time></trkpt><trkpt lat="42.6027576" lon="12.8632745"><ele>970.2</ele><time>2026-05-01T12:52:47.522Z</time></trkpt><trkpt lat="42.6027297" lon="12.8631488"><ele>971.8</ele><time>2026-05-01T12:52:48.519Z</time></trkpt><trkpt lat="42.6027036" lon="12.8630244"><ele>973.4</ele><time>2026-05-01T12:52:49.519Z</time></trkpt><trkpt lat="42.6026715" lon="12.862929"><ele>975.0</ele><time>2026-05-01T12:52:50.527Z</time></trkpt><trkpt lat="42.6026111" lon="12.8628346"><ele>975.0</ele><time>2026-05-01T12:52:52.52Z</time></trkpt><trkpt lat="42.6025917" lon="12.8627481"><ele>975.0</ele><time>2026-05-01T12:52:57.537Z</time></trkpt><trkpt lat="42.6026669" lon="12.8628431"><ele>975.0</ele><time>2026-05-01T12:53:19.53Z</time></trkpt><trkpt lat="42.6027402" lon="12.8629815"><ele>975.0</ele><time>2026-05-01T12:53:21.524Z</time></trkpt><trkpt lat="42.6027781" lon="12.8630665"><ele>975.0</ele><time>2026-05-01T12:53:22.515Z</time></trkpt><trkpt lat="42.6028209" lon="12.863164"><ele>973.6666666666666</ele><time>2026-05-01T12:53:23.523Z</time></trkpt><trkpt lat="42.6028638" lon="12.8632634"><ele>972.3333333333333</ele><time>2026-05-01T12:53:24.524Z</time></trkpt><trkpt lat="42.6029045" lon="12.8633428"><ele>971.0</ele><time>2026-05-01T12:53:25.519Z</time></trkpt><trkpt lat="42.6030053" lon="12.8634512"><ele>969.6666666666666</ele><time>2026-05-01T12:53:27.514Z</time></trkpt><trkpt lat="42.6030727" lon="12.8634946"><ele>968.3333333333333</ele><time>2026-05-01T12:53:28.52Z</time></trkpt><trkpt lat="42.6031471" lon="12.8635392"><ele>967.0</ele><time>2026-05-01T12:53:29.527Z</time></trkpt><trkpt lat="42.6032245" lon="12.8635923"><ele>966.9999999999999</ele><time>2026-05-01T12:53:30.517Z</time></trkpt><trkpt lat="42.6033053" lon="12.863659"><ele>967.0</ele><time>2026-05-01T12:53:31.518Z</time></trkpt><trkpt lat="42.6033791" lon="12.8637352"><ele>967.0</ele><time>2026-05-01T12:53:32.522Z</time></trkpt><trkpt lat="42.6034514" lon="12.8638065"><ele>967.0</ele><time>2026-05-01T12:53:33.517Z</time></trkpt><trkpt lat="42.603521" lon="12.8638723"><ele>966.9999999999999</ele><time>2026-05-01T12:53:34.525Z</time></trkpt><trkpt lat="42.6035914" lon="12.8639287"><ele>967.0</ele><time>2026-05-01T12:53:35.519Z</time></trkpt><trkpt lat="42.6036577" lon="12.8639707"><ele>966.8333333333333</ele><time>2026-05-01T12:53:36.518Z</time></trkpt><trkpt lat="42.6037252" lon="12.8640064"><ele>966.6666666666666</ele><time>2026-05-01T12:53:37.522Z</time></trkpt><trkpt lat="42.6037973" lon="12.8640463"><ele>966.5</ele><time>2026-05-01T12:53:38.517Z</time></trkpt><trkpt lat="42.6038699" lon="12.8641082"><ele>966.3333333333333</ele><time>2026-05-01T12:53:39.518Z</time></trkpt><trkpt lat="42.6039464" lon="12.8641822"><ele>966.1666666666666</ele><time>2026-05-01T12:53:40.524Z</time></trkpt><trkpt lat="42.6040272" lon="12.864244"><ele>966.0</ele><time>2026-05-01T12:53:41.52Z</time></trkpt><trkpt lat="42.6041083" lon="12.8642936"><ele>966.0</ele><time>2026-05-01T12:53:42.517Z</time></trkpt><trkpt lat="42.6041952" lon="12.8643423"><ele>965.9999999999999</ele><time>2026-05-01T12:53:43.521Z</time></trkpt><trkpt lat="42.6042848" lon="12.8643996"><ele>965.9999999999999</ele><time>2026-05-01T12:53:44.52Z</time></trkpt><trkpt lat="42.6043803" lon="12.8644603"><ele>966.0</ele><time>2026-05-01T12:53:45.513Z</time></trkpt><trkpt lat="42.6044758" lon="12.8645159"><ele>966.0</ele><time>2026-05-01T12:53:46.516Z</time></trkpt><trkpt lat="42.6045652" lon="12.8645682"><ele>964.4</ele><time>2026-05-01T12:53:47.524Z</time></trkpt><trkpt lat="42.6046479" lon="12.8646322"><ele>962.8</ele><time>2026-05-01T12:53:48.527Z</time></trkpt><trkpt lat="42.6047291" lon="12.8647086"><ele>961.1999999999999</ele><time>2026-05-01T12:53:49.523Z</time></trkpt><trkpt lat="42.6048154" lon="12.8647895"><ele>959.5999999999999</ele><time>2026-05-01T12:53:50.516Z</time></trkpt><trkpt lat="42.604906" lon="12.8648829"><ele>958.0</ele><time>2026-05-01T12:53:51.518Z</time></trkpt><trkpt lat="42.6049963" lon="12.8649748"><ele>958.0</ele><time>2026-05-01T12:53:52.512Z</time></trkpt><trkpt lat="42.6050878" lon="12.8650599"><ele>958.0</ele><time>2026-05-01T12:53:53.521Z</time></trkpt><trkpt lat="42.6051723" lon="12.8651338"><ele>958.0</ele><time>2026-05-01T12:53:54.52Z</time></trkpt><trkpt lat="42.6052399" lon="12.8652075"><ele>958.0</ele><time>2026-05-01T12:53:55.519Z</time></trkpt><trkpt lat="42.6052982" lon="12.8652892"><ele>958.0</ele><time>2026-05-01T12:53:56.516Z</time></trkpt><trkpt lat="42.6053539" lon="12.8653823"><ele>958.6666666666666</ele><time>2026-05-01T12:53:57.519Z</time></trkpt><trkpt lat="42.6054041" lon="12.8654822"><ele>959.3333333333333</ele><time>2026-05-01T12:53:58.515Z</time></trkpt><trkpt lat="42.6054465" lon="12.8655819"><ele>960.0</ele><time>2026-05-01T12:53:59.528Z</time></trkpt><trkpt lat="42.6054832" lon="12.8656734"><ele>960.6666666666667</ele><time>2026-05-01T12:54:00.519Z</time></trkpt><trkpt lat="42.6055346" lon="12.8657627"><ele>961.3333333333334</ele><time>2026-05-01T12:54:01.516Z</time></trkpt><trkpt lat="42.6055983" lon="12.8658474"><ele>962.0</ele><time>2026-05-01T12:54:02.519Z</time></trkpt><trkpt lat="42.6056719" lon="12.8659166"><ele>963.5000000000001</ele><time>2026-05-01T12:54:03.52Z</time></trkpt><trkpt lat="42.6057475" lon="12.8659564"><ele>965.0</ele><time>2026-05-01T12:54:04.525Z</time></trkpt><trkpt lat="42.6058247" lon="12.8659675"><ele>966.5</ele><time>2026-05-01T12:54:05.515Z</time></trkpt><trkpt lat="42.6059069" lon="12.8659686"><ele>968.0</ele><time>2026-05-01T12:54:06.517Z</time></trkpt><trkpt lat="42.6059905" lon="12.8659878"><ele>969.5000000000001</ele><time>2026-05-01T12:54:07.529Z</time></trkpt><trkpt lat="42.6060683" lon="12.8660249"><ele>971.0</ele><time>2026-05-01T12:54:08.525Z</time></trkpt><trkpt lat="42.6061406" lon="12.8660739"><ele>970.1999999999999</ele><time>2026-05-01T12:54:09.516Z</time></trkpt><trkpt lat="42.6062157" lon="12.8661414"><ele>969.3999999999999</ele><time>2026-05-01T12:54:10.519Z</time></trkpt><trkpt lat="42.6062855" lon="12.8662305"><ele>968.6</ele><time>2026-05-01T12:54:11.524Z</time></trkpt><trkpt lat="42.6063426" lon="12.8663284"><ele>967.8</ele><time>2026-05-01T12:54:12.524Z</time></trkpt><trkpt lat="42.606381" lon="12.8664376"><ele>967.0</ele><time>2026-05-01T12:54:13.522Z</time></trkpt><trkpt lat="42.6064101" lon="12.8665559"><ele>966.9999999999999</ele><time>2026-05-01T12:54:14.518Z</time></trkpt><trkpt lat="42.6064461" lon="12.8666721"><ele>967.0</ele><time>2026-05-01T12:54:15.521Z</time></trkpt><trkpt lat="42.6064931" lon="12.8667809"><ele>967.0</ele><time>2026-05-01T12:54:16.524Z</time></trkpt><trkpt lat="42.6065456" lon="12.8668794"><ele>967.0</ele><time>2026-05-01T12:54:17.527Z</time></trkpt><trkpt lat="42.6066014" lon="12.8669677"><ele>966.9999999999999</ele><time>2026-05-01T12:54:18.523Z</time></trkpt><trkpt lat="42.6066555" lon="12.8670524"><ele>967.0</ele><time>2026-05-01T12:54:19.531Z</time></trkpt><trkpt lat="42.6067076" lon="12.8671351"><ele>967.2</ele><time>2026-05-01T12:54:20.522Z</time></trkpt><trkpt lat="42.606749" lon="12.8672145"><ele>967.4000000000001</ele><time>2026-05-01T12:54:21.52Z</time></trkpt><trkpt lat="42.6067886" lon="12.8673094"><ele>967.5999999999999</ele><time>2026-05-01T12:54:22.533Z</time></trkpt><trkpt lat="42.6068284" lon="12.867426"><ele>967.8</ele><time>2026-05-01T12:54:23.517Z</time></trkpt><trkpt lat="42.6068689" lon="12.8675569"><ele>968.0</ele><time>2026-05-01T12:54:24.525Z</time></trkpt><trkpt lat="42.6069038" lon="12.867695"><ele>968.8</ele><time>2026-05-01T12:54:25.519Z</time></trkpt><trkpt lat="42.6069322" lon="12.8678271"><ele>969.5999999999999</ele><time>2026-05-01T12:54:26.515Z</time></trkpt><trkpt lat="42.6069642" lon="12.8679494"><ele>970.4000000000001</ele><time>2026-05-01T12:54:27.519Z</time></trkpt><trkpt lat="42.6070049" lon="12.8680476"><ele>971.2</ele><time>2026-05-01T12:54:28.516Z</time></trkpt><trkpt lat="42.6070945" lon="12.8681423"><ele>972.0</ele><time>2026-05-01T12:54:30.516Z</time></trkpt><trkpt lat="42.6071628" lon="12.8681586"><ele>972.8333333333334</ele><time>2026-05-01T12:54:31.524Z</time></trkpt><trkpt lat="42.6072492" lon="12.8681718"><ele>973.6666666666667</ele><time>2026-05-01T12:54:32.515Z</time></trkpt><trkpt lat="42.6073415" lon="12.8681923"><ele>974.5</ele><time>2026-05-01T12:54:33.526Z</time></trkpt><trkpt lat="42.6074206" lon="12.8682177"><ele>975.3333333333334</ele><time>2026-05-01T12:54:34.526Z</time></trkpt><trkpt lat="42.6074899" lon="12.8682492"><ele>976.1666666666667</ele><time>2026-05-01T12:54:35.523Z</time></trkpt><trkpt lat="42.6075859" lon="12.8683066"><ele>977.0</ele><time>2026-05-01T12:54:37.523Z</time></trkpt><trkpt lat="42.6076199" lon="12.8683951"><ele>977.5714285714287</ele><time>2026-05-01T12:54:41.519Z</time></trkpt><trkpt lat="42.6076367" lon="12.8685304"><ele>978.1428571428571</ele><time>2026-05-01T12:54:43.517Z</time></trkpt><trkpt lat="42.6076458" lon="12.8686175"><ele>978.7142857142858</ele><time>2026-05-01T12:54:44.517Z</time></trkpt><trkpt lat="42.6076605" lon="12.8687064"><ele>979.2857142857143</ele><time>2026-05-01T12:54:45.523Z</time></trkpt><trkpt lat="42.6076864" lon="12.8687851"><ele>979.8571428571429</ele><time>2026-05-01T12:54:46.519Z</time></trkpt><trkpt lat="42.6077263" lon="12.868864"><ele>980.4285714285714</ele><time>2026-05-01T12:54:47.518Z</time></trkpt><trkpt lat="42.6077672" lon="12.8689409"><ele>981.0</ele><time>2026-05-01T12:54:48.525Z</time></trkpt><trkpt lat="42.6078136" lon="12.869022"><ele>980.8</ele><time>2026-05-01T12:54:49.518Z</time></trkpt><trkpt lat="42.607863" lon="12.8691121"><ele>980.5999999999999</ele><time>2026-05-01T12:54:50.526Z</time></trkpt><trkpt lat="42.6079124" lon="12.8692117"><ele>980.4</ele><time>2026-05-01T12:54:51.521Z</time></trkpt><trkpt lat="42.6079653" lon="12.8693177"><ele>980.2</ele><time>2026-05-01T12:54:52.515Z</time></trkpt><trkpt lat="42.6080168" lon="12.8694298"><ele>980.0</ele><time>2026-05-01T12:54:53.516Z</time></trkpt><trkpt lat="42.6080743" lon="12.8695448"><ele>981.2</ele><time>2026-05-01T12:54:54.514Z</time></trkpt><trkpt lat="42.6081287" lon="12.8696667"><ele>982.4</ele><time>2026-05-01T12:54:55.513Z</time></trkpt><trkpt lat="42.6081882" lon="12.8697894"><ele>983.5999999999999</ele><time>2026-05-01T12:54:56.526Z</time></trkpt><trkpt lat="42.6082517" lon="12.8699057"><ele>984.8</ele><time>2026-05-01T12:54:57.516Z</time></trkpt><trkpt lat="42.6083148" lon="12.8700173"><ele>986.0</ele><time>2026-05-01T12:54:58.519Z</time></trkpt><trkpt lat="42.6083759" lon="12.870126"><ele>986.5000000000001</ele><time>2026-05-01T12:54:59.515Z</time></trkpt><trkpt lat="42.6084434" lon="12.870206"><ele>987.0</ele><time>2026-05-01T12:55:00.517Z</time></trkpt><trkpt lat="42.6085225" lon="12.8702564"><ele>987.5</ele><time>2026-05-01T12:55:01.521Z</time></trkpt><trkpt lat="42.6086064" lon="12.8702803"><ele>988.0</ele><time>2026-05-01T12:55:02.521Z</time></trkpt><trkpt lat="42.6086823" lon="12.8702917"><ele>988.5000000000001</ele><time>2026-05-01T12:55:03.518Z</time></trkpt><trkpt lat="42.6087599" lon="12.8703202"><ele>989.0</ele><time>2026-05-01T12:55:04.516Z</time></trkpt><trkpt lat="42.6088234" lon="12.8703866"><ele>989.0000000000001</ele><time>2026-05-01T12:55:05.513Z</time></trkpt><trkpt lat="42.6088674" lon="12.8704755"><ele>989.0</ele><time>2026-05-01T12:55:06.523Z</time></trkpt><trkpt lat="42.6088964" lon="12.8705701"><ele>989.0</ele><time>2026-05-01T12:55:07.519Z</time></trkpt><trkpt lat="42.6089167" lon="12.8706577"><ele>989.0</ele><time>2026-05-01T12:55:08.522Z</time></trkpt><trkpt lat="42.6089724" lon="12.8708136"><ele>989.0000000000001</ele><time>2026-05-01T12:55:10.521Z</time></trkpt><trkpt lat="42.6090039" lon="12.8708892"><ele>989.0</ele><time>2026-05-01T12:55:11.518Z</time></trkpt><trkpt lat="42.6090257" lon="12.8709698"><ele>989.5000000000001</ele><time>2026-05-01T12:55:12.516Z</time></trkpt><trkpt lat="42.609031" lon="12.8710629"><ele>990.0</ele><time>2026-05-01T12:55:13.526Z</time></trkpt><trkpt lat="42.609028" lon="12.8711632"><ele>990.5</ele><time>2026-05-01T12:55:14.515Z</time></trkpt><trkpt lat="42.6090375" lon="12.8712711"><ele>991.0</ele><time>2026-05-01T12:55:15.523Z</time></trkpt><trkpt lat="42.6090483" lon="12.8713741"><ele>991.5000000000001</ele><time>2026-05-01T12:55:16.519Z</time></trkpt><trkpt lat="42.6090763" lon="12.8714807"><ele>992.0</ele><time>2026-05-01T12:55:17.525Z</time></trkpt><trkpt lat="42.6091086" lon="12.8715892"><ele>992.0000000000001</ele><time>2026-05-01T12:55:18.525Z</time></trkpt><trkpt lat="42.6091448" lon="12.8716978"><ele>992.0</ele><time>2026-05-01T12:55:19.522Z</time></trkpt><trkpt lat="42.6091795" lon="12.8718057"><ele>992.0</ele><time>2026-05-01T12:55:20.517Z</time></trkpt><trkpt lat="42.6092101" lon="12.8719172"><ele>992.0</ele><time>2026-05-01T12:55:21.515Z</time></trkpt><trkpt lat="42.6092477" lon="12.8720315"><ele>992.0000000000001</ele><time>2026-05-01T12:55:22.521Z</time></trkpt><trkpt lat="42.6092899" lon="12.8721465"><ele>992.0</ele><time>2026-05-01T12:55:23.517Z</time></trkpt><trkpt lat="42.60933" lon="12.8722605"><ele>992.0</ele><time>2026-05-01T12:55:24.52Z</time></trkpt><trkpt lat="42.6093746" lon="12.872383"><ele>992.0</ele><time>2026-05-01T12:55:25.52Z</time></trkpt><trkpt lat="42.6094217" lon="12.872508"><ele>992.0</ele><time>2026-05-01T12:55:26.531Z</time></trkpt><trkpt lat="42.6094714" lon="12.8726327"><ele>992.0</ele><time>2026-05-01T12:55:27.514Z</time></trkpt><trkpt lat="42.6095272" lon="12.8727359"><ele>992.0</ele><time>2026-05-01T12:55:28.511Z</time></trkpt><trkpt lat="42.6095919" lon="12.8728201"><ele>992.8</ele><time>2026-05-01T12:55:29.518Z</time></trkpt><trkpt lat="42.6096554" lon="12.8729032"><ele>993.6</ele><time>2026-05-01T12:55:30.517Z</time></trkpt><trkpt lat="42.6097146" lon="12.8730024"><ele>994.3999999999999</ele><time>2026-05-01T12:55:31.515Z</time></trkpt><trkpt lat="42.6097682" lon="12.8731077"><ele>995.1999999999999</ele><time>2026-05-01T12:55:32.537Z</time></trkpt><trkpt lat="42.6098224" lon="12.873218"><ele>996.0</ele><time>2026-05-01T12:55:33.532Z</time></trkpt><trkpt lat="42.6098782" lon="12.8733239"><ele>996.0</ele><time>2026-05-01T12:55:34.522Z</time></trkpt><trkpt lat="42.6099372" lon="12.8734262"><ele>995.9999999999999</ele><time>2026-05-01T12:55:35.517Z</time></trkpt><trkpt lat="42.6099958" lon="12.8735317"><ele>995.9999999999999</ele><time>2026-05-01T12:55:36.535Z</time></trkpt><trkpt lat="42.6100552" lon="12.8736256"><ele>996.0</ele><time>2026-05-01T12:55:37.526Z</time></trkpt><trkpt lat="42.6101192" lon="12.873713"><ele>996.0</ele><time>2026-05-01T12:55:38.518Z</time></trkpt><trkpt lat="42.610194" lon="12.8737909"><ele>996.8</ele><time>2026-05-01T12:55:39.519Z</time></trkpt><trkpt lat="42.6102725" lon="12.8738637"><ele>997.5999999999999</ele><time>2026-05-01T12:55:40.519Z</time></trkpt><trkpt lat="42.61034" lon="12.8739397"><ele>998.4</ele><time>2026-05-01T12:55:41.517Z</time></trkpt><trkpt lat="42.6104071" lon="12.874026"><ele>999.2</ele><time>2026-05-01T12:55:42.514Z</time></trkpt><trkpt lat="42.6104748" lon="12.8741205"><ele>1000.0</ele><time>2026-05-01T12:55:43.528Z</time></trkpt><trkpt lat="42.6105442" lon="12.8742202"><ele>1001.0</ele><time>2026-05-01T12:55:44.522Z</time></trkpt><trkpt lat="42.610605" lon="12.874327"><ele>1002.0</ele><time>2026-05-01T12:55:45.516Z</time></trkpt><trkpt lat="42.6106605" lon="12.874439"><ele>1003.0</ele><time>2026-05-01T12:55:46.523Z</time></trkpt><trkpt lat="42.6107157" lon="12.8745491"><ele>1004.0</ele><time>2026-05-01T12:55:47.522Z</time></trkpt><trkpt lat="42.6107694" lon="12.8746504"><ele>1005.0</ele><time>2026-05-01T12:55:48.53Z</time></trkpt><trkpt lat="42.6108224" lon="12.874744"><ele>1005.0</ele><time>2026-05-01T12:55:49.514Z</time></trkpt><trkpt lat="42.6108705" lon="12.8748408"><ele>1005.0</ele><time>2026-05-01T12:55:50.51Z</time></trkpt><trkpt lat="42.6109178" lon="12.8749467"><ele>1005.0</ele><time>2026-05-01T12:55:51.528Z</time></trkpt><trkpt lat="42.6109632" lon="12.8750512"><ele>1005.0</ele><time>2026-05-01T12:55:52.525Z</time></trkpt><trkpt lat="42.6110001" lon="12.8751583"><ele>1005.0</ele><time>2026-05-01T12:55:53.521Z</time></trkpt><trkpt lat="42.6110371" lon="12.875266"><ele>1005.0</ele><time>2026-05-01T12:55:54.52Z</time></trkpt><trkpt lat="42.6110736" lon="12.8753772"><ele>1004.6</ele><time>2026-05-01T12:55:55.528Z</time></trkpt><trkpt lat="42.6111081" lon="12.8754899"><ele>1004.2</ele><time>2026-05-01T12:55:56.534Z</time></trkpt><trkpt lat="42.6111554" lon="12.8755984"><ele>1003.8</ele><time>2026-05-01T12:55:57.52Z</time></trkpt><trkpt lat="42.6112227" lon="12.875698"><ele>1003.4</ele><time>2026-05-01T12:55:58.514Z</time></trkpt><trkpt lat="42.6113022" lon="12.8758056"><ele>1003.0</ele><time>2026-05-01T12:55:59.52Z</time></trkpt><trkpt lat="42.6113826" lon="12.8759203"><ele>1004.25</ele><time>2026-05-01T12:56:00.521Z</time></trkpt><trkpt lat="42.6114605" lon="12.8760384"><ele>1005.5</ele><time>2026-05-01T12:56:01.521Z</time></trkpt><trkpt lat="42.6115424" lon="12.8761459"><ele>1006.75</ele><time>2026-05-01T12:56:02.52Z</time></trkpt><trkpt lat="42.6116264" lon="12.8762434"><ele>1008.0</ele><time>2026-05-01T12:56:03.516Z</time></trkpt><trkpt lat="42.611712" lon="12.8763423"><ele>1008.0</ele><time>2026-05-01T12:56:04.515Z</time></trkpt><trkpt lat="42.6117866" lon="12.8764406"><ele>1008.0</ele><time>2026-05-01T12:56:05.523Z</time></trkpt><trkpt lat="42.6118555" lon="12.8765448"><ele>1008.0</ele><time>2026-05-01T12:56:06.526Z</time></trkpt><trkpt lat="42.6119254" lon="12.8766468"><ele>1008.0</ele><time>2026-05-01T12:56:07.526Z</time></trkpt><trkpt lat="42.6120002" lon="12.8767494"><ele>1008.0</ele><time>2026-05-01T12:56:08.52Z</time></trkpt><trkpt lat="42.612083" lon="12.8768543"><ele>1007.2</ele><time>2026-05-01T12:56:09.517Z</time></trkpt><trkpt lat="42.6121642" lon="12.8769606"><ele>1006.4</ele><time>2026-05-01T12:56:10.521Z</time></trkpt><trkpt lat="42.6122356" lon="12.8770589"><ele>1005.6000000000001</ele><time>2026-05-01T12:56:11.513Z</time></trkpt><trkpt lat="42.6123047" lon="12.8771531"><ele>1004.8000000000001</ele><time>2026-05-01T12:56:12.519Z</time></trkpt><trkpt lat="42.6123779" lon="12.8772344"><ele>1004.0</ele><time>2026-05-01T12:56:13.523Z</time></trkpt><trkpt lat="42.6124579" lon="12.8773003"><ele>1004.0</ele><time>2026-05-01T12:56:14.519Z</time></trkpt><trkpt lat="42.6125463" lon="12.8773586"><ele>1004.0000000000001</ele><time>2026-05-01T12:56:15.515Z</time></trkpt><trkpt lat="42.6126396" lon="12.8774143"><ele>1004.0000000000001</ele><time>2026-05-01T12:56:16.518Z</time></trkpt><trkpt lat="42.6127335" lon="12.8774734"><ele>1004.0</ele><time>2026-05-01T12:56:17.515Z</time></trkpt><trkpt lat="42.6128268" lon="12.8775317"><ele>1004.0</ele><time>2026-05-01T12:56:18.518Z</time></trkpt><trkpt lat="42.6129194" lon="12.8775909"><ele>1004.4000000000001</ele><time>2026-05-01T12:56:19.533Z</time></trkpt><trkpt lat="42.6130075" lon="12.8776542"><ele>1004.8000000000001</ele><time>2026-05-01T12:56:20.518Z</time></trkpt><trkpt lat="42.6130994" lon="12.8777333"><ele>1005.1999999999999</ele><time>2026-05-01T12:56:21.517Z</time></trkpt><trkpt lat="42.6131908" lon="12.8778214"><ele>1005.5999999999999</ele><time>2026-05-01T12:56:22.524Z</time></trkpt><trkpt lat="42.613279" lon="12.8779027"><ele>1006.0</ele><time>2026-05-01T12:56:23.524Z</time></trkpt><trkpt lat="42.6133637" lon="12.8779791"><ele>1006.0</ele><time>2026-05-01T12:56:24.525Z</time></trkpt><trkpt lat="42.6134448" lon="12.8780563"><ele>1005.9999999999999</ele><time>2026-05-01T12:56:25.519Z</time></trkpt><trkpt lat="42.6135232" lon="12.8781314"><ele>1005.9999999999999</ele><time>2026-05-01T12:56:26.517Z</time></trkpt><trkpt lat="42.613607" lon="12.8781933"><ele>1006.0</ele><time>2026-05-01T12:56:27.524Z</time></trkpt><trkpt lat="42.6136869" lon="12.8782445"><ele>1006.0</ele><time>2026-05-01T12:56:28.516Z</time></trkpt><trkpt lat="42.6137688" lon="12.8783003"><ele>1007.1999999999999</ele><time>2026-05-01T12:56:29.523Z</time></trkpt><trkpt lat="42.6138552" lon="12.8783681"><ele>1008.3999999999999</ele><time>2026-05-01T12:56:30.523Z</time></trkpt><trkpt lat="42.6139414" lon="12.8784575"><ele>1009.6</ele><time>2026-05-01T12:56:31.516Z</time></trkpt><trkpt lat="42.6140196" lon="12.8785627"><ele>1010.8</ele><time>2026-05-01T12:56:32.516Z</time></trkpt><trkpt lat="42.6140899" lon="12.8786674"><ele>1012.0</ele><time>2026-05-01T12:56:33.524Z</time></trkpt><trkpt lat="42.6141612" lon="12.8787649"><ele>1012.4999999999999</ele><time>2026-05-01T12:56:34.511Z</time></trkpt><trkpt lat="42.6142306" lon="12.8788525"><ele>1013.0</ele><time>2026-05-01T12:56:35.525Z</time></trkpt><trkpt lat="42.6142987" lon="12.8789221"><ele>1013.5</ele><time>2026-05-01T12:56:36.517Z</time></trkpt><trkpt lat="42.6143673" lon="12.8789707"><ele>1014.0</ele><time>2026-05-01T12:56:37.516Z</time></trkpt><trkpt lat="42.6144461" lon="12.8790002"><ele>1014.4999999999999</ele><time>2026-05-01T12:56:38.521Z</time></trkpt><trkpt lat="42.6145263" lon="12.8790187"><ele>1015.0</ele><time>2026-05-01T12:56:39.519Z</time></trkpt><trkpt lat="42.6146032" lon="12.8790484"><ele>1016.3333333333333</ele><time>2026-05-01T12:56:40.517Z</time></trkpt><trkpt lat="42.6146763" lon="12.8790923"><ele>1017.6666666666666</ele><time>2026-05-01T12:56:41.523Z</time></trkpt><trkpt lat="42.6147373" lon="12.879146"><ele>1019.0</ele><time>2026-05-01T12:56:42.528Z</time></trkpt><trkpt lat="42.6148206" lon="12.8792253"><ele>1020.3333333333333</ele><time>2026-05-01T12:56:44.513Z</time></trkpt><trkpt lat="42.6147388" lon="12.879203"><ele>1021.6666666666666</ele><time>2026-05-01T12:56:54.516Z</time></trkpt><trkpt lat="42.6146785" lon="12.8791468"><ele>1023.0</ele><time>2026-05-01T12:56:57.517Z</time></trkpt><trkpt lat="42.614727" lon="12.8792228"><ele>1023.8</ele><time>2026-05-01T12:57:13.518Z</time></trkpt><trkpt lat="42.6148021" lon="12.8793038"><ele>1024.6</ele><time>2026-05-01T12:57:35.514Z</time></trkpt><trkpt lat="42.6148976" lon="12.8793851"><ele>1025.4</ele><time>2026-05-01T12:57:37.514Z</time></trkpt><trkpt lat="42.6149953" lon="12.8794628"><ele>1026.2</ele><time>2026-05-01T12:57:39.516Z</time></trkpt><trkpt lat="42.6150574" lon="12.8795429"><ele>1027.0</ele><time>2026-05-01T12:57:41.519Z</time></trkpt><trkpt lat="42.6150779" lon="12.8796901"><ele>1027.0</ele><time>2026-05-01T12:57:43.519Z</time></trkpt><trkpt lat="42.6150551" lon="12.879833"><ele>1027.0</ele><time>2026-05-01T12:57:45.518Z</time></trkpt><trkpt lat="42.6150294" lon="12.8799946"><ele>1027.0</ele><time>2026-05-01T12:57:47.515Z</time></trkpt><trkpt lat="42.6150187" lon="12.8800798"><ele>1027.0</ele><time>2026-05-01T12:57:48.533Z</time></trkpt><trkpt lat="42.6150038" lon="12.8801667"><ele>1027.0</ele><time>2026-05-01T12:57:49.517Z</time></trkpt><trkpt lat="42.6149792" lon="12.8803304"><ele>1027.6666666666665</ele><time>2026-05-01T12:57:51.512Z</time></trkpt><trkpt lat="42.6149751" lon="12.8804806"><ele>1028.3333333333333</ele><time>2026-05-01T12:57:53.517Z</time></trkpt><trkpt lat="42.6150009" lon="12.8805618"><ele>1029.0</ele><time>2026-05-01T12:57:54.521Z</time></trkpt><trkpt lat="42.6150407" lon="12.8806435"><ele>1029.6666666666667</ele><time>2026-05-01T12:57:55.519Z</time></trkpt><trkpt lat="42.6150867" lon="12.8807238"><ele>1030.3333333333335</ele><time>2026-05-01T12:57:56.514Z</time></trkpt><trkpt lat="42.615122" lon="12.8808029"><ele>1031.0</ele><time>2026-05-01T12:57:57.516Z</time></trkpt><trkpt lat="42.6151493" lon="12.88089"><ele>1031.1666666666667</ele><time>2026-05-01T12:57:58.527Z</time></trkpt><trkpt lat="42.6151753" lon="12.8809845"><ele>1031.3333333333335</ele><time>2026-05-01T12:57:59.523Z</time></trkpt><trkpt lat="42.6152088" lon="12.8810783"><ele>1031.5</ele><time>2026-05-01T12:58:00.515Z</time></trkpt><trkpt lat="42.6152482" lon="12.8811618"><ele>1031.6666666666667</ele><time>2026-05-01T12:58:01.524Z</time></trkpt><trkpt lat="42.6152928" lon="12.8812969"><ele>1031.8333333333333</ele><time>2026-05-01T12:58:03.515Z</time></trkpt><trkpt lat="42.6153294" lon="12.8813937"><ele>1032.0</ele><time>2026-05-01T12:58:05.52Z</time></trkpt><trkpt lat="42.6153675" lon="12.8814757"><ele>1035.0</ele><time>2026-05-01T12:58:07.517Z</time></trkpt><trkpt lat="42.6154355" lon="12.8815559"><ele>1038.0</ele><time>2026-05-01T12:58:09.514Z</time></trkpt><trkpt lat="42.6155086" lon="12.8816376"><ele>1041.0</ele><time>2026-05-01T12:58:11.517Z</time></trkpt><trkpt lat="42.6155904" lon="12.8817254"><ele>1044.0</ele><time>2026-05-01T12:58:13.51Z</time></trkpt><trkpt lat="42.6156584" lon="12.8818153"><ele>1047.0</ele><time>2026-05-01T12:58:15.518Z</time></trkpt><trkpt lat="42.6157633" lon="12.8819044"><ele>1049.0</ele><time>2026-05-01T12:58:17.52Z</time></trkpt><trkpt lat="42.6158194" lon="12.8819434"><ele>1051.0</ele><time>2026-05-01T12:58:18.515Z</time></trkpt><trkpt lat="42.6159309" lon="12.8820144"><ele>1053.0</ele><time>2026-05-01T12:58:20.523Z</time></trkpt><trkpt lat="42.6159906" lon="12.8820594"><ele>1055.0</ele><time>2026-05-01T12:58:21.522Z</time></trkpt><trkpt lat="42.6160476" lon="12.8821069"><ele>1057.0</ele><time>2026-05-01T12:58:22.519Z</time></trkpt><trkpt lat="42.6161491" lon="12.8822164"><ele>1058.0</ele><time>2026-05-01T12:58:24.525Z</time></trkpt><trkpt lat="42.6162064" lon="12.8822741"><ele>1059.0</ele><time>2026-05-01T12:58:25.511Z</time></trkpt><trkpt lat="42.6162635" lon="12.8823189"><ele>1060.0</ele><time>2026-05-01T12:58:26.529Z</time></trkpt><trkpt lat="42.6163848" lon="12.8823278"><ele>1061.0</ele><time>2026-05-01T12:58:28.511Z</time></trkpt><trkpt lat="42.616498" lon="12.8822794"><ele>1062.0</ele><time>2026-05-01T12:58:30.525Z</time></trkpt><trkpt lat="42.616588" lon="12.8823045"><ele>1062.0</ele><time>2026-05-01T12:58:32.515Z</time></trkpt><trkpt lat="42.6166789" lon="12.8824172"><ele>1062.0</ele><time>2026-05-01T12:58:34.518Z</time></trkpt><trkpt lat="42.6167608" lon="12.8825518"><ele>1062.0</ele><time>2026-05-01T12:58:36.518Z</time></trkpt><trkpt lat="42.6167932" lon="12.8826383"><ele>1062.0</ele><time>2026-05-01T12:58:37.516Z</time></trkpt><trkpt lat="42.6168288" lon="12.8827923"><ele>1062.0</ele><time>2026-05-01T12:58:39.511Z</time></trkpt><trkpt lat="42.6168397" lon="12.8829589"><ele>1065.2</ele><time>2026-05-01T12:58:41.511Z</time></trkpt><trkpt lat="42.616864" lon="12.8830417"><ele>1068.4</ele><time>2026-05-01T12:58:42.521Z</time></trkpt><trkpt lat="42.6169437" lon="12.8831442"><ele>1071.6</ele><time>2026-05-01T12:58:44.533Z</time></trkpt><trkpt lat="42.6170463" lon="12.8832107"><ele>1074.8</ele><time>2026-05-01T12:58:46.511Z</time></trkpt><trkpt lat="42.6171455" lon="12.8832865"><ele>1078.0</ele><time>2026-05-01T12:58:48.519Z</time></trkpt><trkpt lat="42.617253" lon="12.8833763"><ele>1081.6666666666665</ele><time>2026-05-01T12:58:50.512Z</time></trkpt><trkpt lat="42.6173437" lon="12.8834629"><ele>1085.3333333333333</ele><time>2026-05-01T12:58:52.518Z</time></trkpt><trkpt lat="42.6173506" lon="12.8835498"><ele>1089.0</ele><time>2026-05-01T13:02:31.512Z</time></trkpt><trkpt lat="42.6174086" lon="12.8835944"><ele>1092.6666666666667</ele><time>2026-05-01T13:02:34.516Z</time></trkpt><trkpt lat="42.6175043" lon="12.8836555"><ele>1096.3333333333335</ele><time>2026-05-01T13:02:36.513Z</time></trkpt><trkpt lat="42.6175674" lon="12.8837039"><ele>1100.0</ele><time>2026-05-01T13:02:37.514Z</time></trkpt><trkpt lat="42.6176406" lon="12.8837498"><ele>1100.0</ele><time>2026-05-01T13:02:38.518Z</time></trkpt><trkpt lat="42.6177103" lon="12.8837949"><ele>1100.0</ele><time>2026-05-01T13:02:39.518Z</time></trkpt><trkpt lat="42.6177909" lon="12.8838481"><ele>1100.0</ele><time>2026-05-01T13:02:40.52Z</time></trkpt><trkpt lat="42.6178705" lon="12.8839106"><ele>1100.0</ele><time>2026-05-01T13:02:41.512Z</time></trkpt><trkpt lat="42.6179532" lon="12.8839754"><ele>1100.0</ele><time>2026-05-01T13:02:42.516Z</time></trkpt><trkpt lat="42.6180292" lon="12.8840404"><ele>1100.0</ele><time>2026-05-01T13:02:43.523Z</time></trkpt><trkpt lat="42.6180979" lon="12.8841215"><ele>1099.2</ele><time>2026-05-01T13:02:44.514Z</time></trkpt><trkpt lat="42.6181639" lon="12.8842063"><ele>1098.4</ele><time>2026-05-01T13:02:45.51Z</time></trkpt><trkpt lat="42.6182303" lon="12.8842895"><ele>1097.6</ele><time>2026-05-01T13:02:46.529Z</time></trkpt><trkpt lat="42.6183016" lon="12.8843687"><ele>1096.8</ele><time>2026-05-01T13:02:47.514Z</time></trkpt><trkpt lat="42.6183789" lon="12.8844502"><ele>1096.0</ele><time>2026-05-01T13:02:48.517Z</time></trkpt><trkpt lat="42.6184619" lon="12.884522"><ele>1099.8</ele><time>2026-05-01T13:02:49.51Z</time></trkpt><trkpt lat="42.6185425" lon="12.8845969"><ele>1103.6</ele><time>2026-05-01T13:02:50.519Z</time></trkpt><trkpt lat="42.6186231" lon="12.8846726"><ele>1107.4</ele><time>2026-05-01T13:02:51.513Z</time></trkpt><trkpt lat="42.6187001" lon="12.884752"><ele>1111.2</ele><time>2026-05-01T13:02:52.515Z</time></trkpt><trkpt lat="42.6187726" lon="12.8848289"><ele>1115.0</ele><time>2026-05-01T13:02:53.511Z</time></trkpt><trkpt lat="42.6188429" lon="12.8848987"><ele>1115.0</ele><time>2026-05-01T13:02:54.517Z</time></trkpt><trkpt lat="42.6189015" lon="12.8849603"><ele>1115.0</ele><time>2026-05-01T13:02:55.521Z</time></trkpt><trkpt lat="42.6189545" lon="12.8850233"><ele>1115.0</ele><time>2026-05-01T13:02:56.523Z</time></trkpt><trkpt lat="42.6190088" lon="12.8850983"><ele>1115.0</ele><time>2026-05-01T13:02:57.514Z</time></trkpt><trkpt lat="42.619066" lon="12.8851876"><ele>1115.0</ele><time>2026-05-01T13:02:58.51Z</time></trkpt><trkpt lat="42.619124" lon="12.8852818"><ele>1115.0</ele><time>2026-05-01T13:02:59.528Z</time></trkpt><trkpt lat="42.6191803" lon="12.8853783"><ele>1117.0</ele><time>2026-05-01T13:03:00.509Z</time></trkpt><trkpt lat="42.6192384" lon="12.885473"><ele>1119.0</ele><time>2026-05-01T13:03:01.522Z</time></trkpt><trkpt lat="42.6192923" lon="12.8855711"><ele>1121.0</ele><time>2026-05-01T13:03:02.516Z</time></trkpt><trkpt lat="42.6193351" lon="12.885674"><ele>1123.0</ele><time>2026-05-01T13:03:03.515Z</time></trkpt><trkpt lat="42.619378" lon="12.8857737"><ele>1125.0</ele><time>2026-05-01T13:03:04.508Z</time></trkpt><trkpt lat="42.6194187" lon="12.8858669"><ele>1127.0</ele><time>2026-05-01T13:03:05.513Z</time></trkpt><trkpt lat="42.6194686" lon="12.885941"><ele>1127.6</ele><time>2026-05-01T13:03:06.511Z</time></trkpt><trkpt lat="42.619547" lon="12.886058"><ele>1128.2</ele><time>2026-05-01T13:03:08.519Z</time></trkpt><trkpt lat="42.6196023" lon="12.8862245"><ele>1128.8</ele><time>2026-05-01T13:03:10.524Z</time></trkpt><trkpt lat="42.6196301" lon="12.8863288"><ele>1129.4</ele><time>2026-05-01T13:03:11.508Z</time></trkpt><trkpt lat="42.6196532" lon="12.8864306"><ele>1130.0</ele><time>2026-05-01T13:03:12.519Z</time></trkpt><trkpt lat="42.619668" lon="12.8865262"><ele>1130.0</ele><time>2026-05-01T13:03:13.513Z</time></trkpt><trkpt lat="42.6196932" lon="12.8866167"><ele>1130.0</ele><time>2026-05-01T13:03:14.517Z</time></trkpt><trkpt lat="42.6197238" lon="12.8867081"><ele>1130.0</ele><time>2026-05-01T13:03:15.519Z</time></trkpt><trkpt lat="42.6197672" lon="12.8867948"><ele>1130.0</ele><time>2026-05-01T13:03:16.517Z</time></trkpt><trkpt lat="42.6198156" lon="12.8868879"><ele>1130.0</ele><time>2026-05-01T13:03:17.52Z</time></trkpt><trkpt lat="42.6198697" lon="12.8869707"><ele>1130.0</ele><time>2026-05-01T13:03:18.513Z</time></trkpt><trkpt lat="42.6199288" lon="12.8870411"><ele>1132.2</ele><time>2026-05-01T13:03:19.513Z</time></trkpt><trkpt lat="42.6199915" lon="12.8870939"><ele>1134.4</ele><time>2026-05-01T13:03:20.516Z</time></trkpt><trkpt lat="42.6200524" lon="12.8871331"><ele>1136.6</ele><time>2026-05-01T13:03:21.528Z</time></trkpt><trkpt lat="42.6201667" lon="12.8871661"><ele>1138.8</ele><time>2026-05-01T13:03:23.512Z</time></trkpt><trkpt lat="42.6202785" lon="12.8872053"><ele>1141.0</ele><time>2026-05-01T13:03:25.518Z</time></trkpt><trkpt lat="42.6203771" lon="12.8872436"><ele>1142.3999999999999</ele><time>2026-05-01T13:03:27.512Z</time></trkpt><trkpt lat="42.6204662" lon="12.8872999"><ele>1143.8</ele><time>2026-05-01T13:03:29.52Z</time></trkpt><trkpt lat="42.6205635" lon="12.8873558"><ele>1145.1999999999998</ele><time>2026-05-01T13:03:31.514Z</time></trkpt><trkpt lat="42.6206378" lon="12.8874323"><ele>1146.6</ele><time>2026-05-01T13:03:33.514Z</time></trkpt><trkpt lat="42.6207144" lon="12.8875483"><ele>1148.0</ele><time>2026-05-01T13:03:35.52Z</time></trkpt><trkpt lat="42.6207522" lon="12.88762"><ele>1149.5</ele><time>2026-05-01T13:03:36.523Z</time></trkpt><trkpt lat="42.6207864" lon="12.8876959"><ele>1151.0</ele><time>2026-05-01T13:03:37.516Z</time></trkpt><trkpt lat="42.6208244" lon="12.8877687"><ele>1152.5</ele><time>2026-05-01T13:03:38.512Z</time></trkpt><trkpt lat="42.6208718" lon="12.8878327"><ele>1154.0</ele><time>2026-05-01T13:03:39.513Z</time></trkpt><trkpt lat="42.6209677" lon="12.8879153"><ele>1155.5</ele><time>2026-05-01T13:03:41.522Z</time></trkpt><trkpt lat="42.6210549" lon="12.8879658"><ele>1157.0</ele><time>2026-05-01T13:03:43.516Z</time></trkpt><trkpt lat="42.6211279" lon="12.8880407"><ele>1158.1666666666667</ele><time>2026-05-01T13:03:45.507Z</time></trkpt><trkpt lat="42.6211965" lon="12.888108"><ele>1159.3333333333335</ele><time>2026-05-01T13:03:47.519Z</time></trkpt><trkpt lat="42.6212671" lon="12.8881453"><ele>1160.5</ele><time>2026-05-01T13:05:16.51Z</time></trkpt><trkpt lat="42.6213236" lon="12.8882095"><ele>1161.6666666666667</ele><time>2026-05-01T13:05:50.516Z</time></trkpt><trkpt lat="42.6213718" lon="12.88829"><ele>1162.8333333333333</ele><time>2026-05-01T13:05:52.511Z</time></trkpt><trkpt lat="42.6214324" lon="12.888387"><ele>1164.0</ele><time>2026-05-01T13:05:54.522Z</time></trkpt><trkpt lat="42.6214973" lon="12.8884739"><ele>1164.5</ele><time>2026-05-01T13:05:56.514Z</time></trkpt><trkpt lat="42.6215551" lon="12.8886012"><ele>1165.0</ele><time>2026-05-01T13:05:58.515Z</time></trkpt><trkpt lat="42.6215774" lon="12.8886826"><ele>1165.5</ele><time>2026-05-01T13:05:59.511Z</time></trkpt><trkpt lat="42.6215991" lon="12.8887665"><ele>1166.0</ele><time>2026-05-01T13:06:00.523Z</time></trkpt><trkpt lat="42.6216304" lon="12.8888455"><ele>1166.5</ele><time>2026-05-01T13:06:01.514Z</time></trkpt><trkpt lat="42.6216771" lon="12.8889261"><ele>1167.0</ele><time>2026-05-01T13:06:02.52Z</time></trkpt><trkpt lat="42.6217327" lon="12.8890025"><ele>1167.0</ele><time>2026-05-01T13:06:03.509Z</time></trkpt><trkpt lat="42.6217847" lon="12.8890763"><ele>1167.0</ele><time>2026-05-01T13:06:04.524Z</time></trkpt><trkpt lat="42.6218314" lon="12.8891491"><ele>1167.0</ele><time>2026-05-01T13:06:05.517Z</time></trkpt><trkpt lat="42.621907" lon="12.8892525"><ele>1167.0</ele><time>2026-05-01T13:06:07.526Z</time></trkpt><trkpt lat="42.6219847" lon="12.8893614"><ele>1167.0</ele><time>2026-05-01T13:06:09.518Z</time></trkpt><trkpt lat="42.6220373" lon="12.8894978"><ele>1169.8333333333333</ele><time>2026-05-01T13:06:11.514Z</time></trkpt><trkpt lat="42.6220646" lon="12.8896644"><ele>1172.6666666666667</ele><time>2026-05-01T13:06:13.514Z</time></trkpt><trkpt lat="42.6220737" lon="12.889758"><ele>1175.5</ele><time>2026-05-01T13:06:14.513Z</time></trkpt><trkpt lat="42.6220843" lon="12.8898536"><ele>1178.3333333333335</ele><time>2026-05-01T13:06:15.525Z</time></trkpt><trkpt lat="42.6220965" lon="12.889939"><ele>1181.1666666666667</ele><time>2026-05-01T13:06:16.515Z</time></trkpt><trkpt lat="42.6221124" lon="12.8900946"><ele>1184.0</ele><time>2026-05-01T13:06:18.511Z</time></trkpt><trkpt lat="42.6221464" lon="12.8902352"><ele>1185.0</ele><time>2026-05-01T13:06:20.522Z</time></trkpt><trkpt lat="42.6221956" lon="12.8903647"><ele>1186.0</ele><time>2026-05-01T13:06:22.509Z</time></trkpt><trkpt lat="42.6222188" lon="12.8904921"><ele>1187.0</ele><time>2026-05-01T13:06:24.514Z</time></trkpt><trkpt lat="42.622225" lon="12.8906209"><ele>1188.0</ele><time>2026-05-01T13:06:26.518Z</time></trkpt><trkpt lat="42.6222417" lon="12.8907577"><ele>1189.0</ele><time>2026-05-01T13:06:28.512Z</time></trkpt><trkpt lat="42.6222851" lon="12.8909224"><ele>1190.1666666666665</ele><time>2026-05-01T13:06:30.511Z</time></trkpt><trkpt lat="42.622295" lon="12.8910098"><ele>1191.3333333333333</ele><time>2026-05-01T13:06:31.506Z</time></trkpt><trkpt lat="42.62227" lon="12.8911738"><ele>1192.5</ele><time>2026-05-01T13:06:33.513Z</time></trkpt><trkpt lat="42.62225" lon="12.8912603"><ele>1193.6666666666667</ele><time>2026-05-01T13:06:34.522Z</time></trkpt><trkpt lat="42.6222251" lon="12.8913512"><ele>1194.8333333333335</ele><time>2026-05-01T13:06:35.519Z</time></trkpt><trkpt lat="42.6222033" lon="12.8914418"><ele>1196.0</ele><time>2026-05-01T13:06:36.511Z</time></trkpt><trkpt lat="42.6221845" lon="12.8915333"><ele>1196.0</ele><time>2026-05-01T13:06:37.517Z</time></trkpt><trkpt lat="42.6221701" lon="12.8916229"><ele>1196.0</ele><time>2026-05-01T13:06:38.514Z</time></trkpt><trkpt lat="42.622152" lon="12.891713"><ele>1196.0</ele><time>2026-05-01T13:06:39.518Z</time></trkpt><trkpt lat="42.6221188" lon="12.8918692"><ele>1196.0</ele><time>2026-05-01T13:06:41.52Z</time></trkpt><trkpt lat="42.6220581" lon="12.8920191"><ele>1196.0</ele><time>2026-05-01T13:06:43.523Z</time></trkpt><trkpt lat="42.6220207" lon="12.8920895"><ele>1196.0</ele><time>2026-05-01T13:06:44.509Z</time></trkpt><trkpt lat="42.6219428" lon="12.8922231"><ele>1199.1666666666667</ele><time>2026-05-01T13:06:46.515Z</time></trkpt><trkpt lat="42.6219018" lon="12.8922909"><ele>1202.3333333333335</ele><time>2026-05-01T13:06:47.51Z</time></trkpt><trkpt lat="42.6218388" lon="12.8924052"><ele>1205.5</ele><time>2026-05-01T13:06:49.509Z</time></trkpt><trkpt lat="42.6218057" lon="12.8925071"><ele>1208.6666666666667</ele><time>2026-05-01T13:06:51.512Z</time></trkpt><trkpt lat="42.6218519" lon="12.8925929"><ele>1211.8333333333333</ele><time>2026-05-01T13:06:53.517Z</time></trkpt><trkpt lat="42.6219455" lon="12.892647"><ele>1215.0</ele><time>2026-05-01T13:06:55.51Z</time></trkpt><trkpt lat="42.6220713" lon="12.8926473"><ele>1214.1666666666667</ele><time>2026-05-01T13:06:57.513Z</time></trkpt><trkpt lat="42.6221348" lon="12.8926428"><ele>1213.3333333333333</ele><time>2026-05-01T13:06:58.52Z</time></trkpt><trkpt lat="42.6221989" lon="12.8926427"><ele>1212.5</ele><time>2026-05-01T13:06:59.522Z</time></trkpt><trkpt lat="42.6223203" lon="12.8926311"><ele>1211.6666666666665</ele><time>2026-05-01T13:07:01.516Z</time></trkpt><trkpt lat="42.6223869" lon="12.8926137"><ele>1210.8333333333333</ele><time>2026-05-01T13:07:02.523Z</time></trkpt><trkpt lat="42.6224535" lon="12.8925973"><ele>1210.0</ele><time>2026-05-01T13:07:03.517Z</time></trkpt><trkpt lat="42.6225196" lon="12.8925868"><ele>1212.6666666666665</ele><time>2026-05-01T13:07:04.512Z</time></trkpt><trkpt lat="42.6226327" lon="12.8925928"><ele>1215.3333333333333</ele><time>2026-05-01T13:07:06.517Z</time></trkpt><trkpt lat="42.6227175" lon="12.8926755"><ele>1218.0</ele><time>2026-05-01T13:07:08.513Z</time></trkpt><trkpt lat="42.6227581" lon="12.8927421"><ele>1220.6666666666667</ele><time>2026-05-01T13:07:09.512Z</time></trkpt><trkpt lat="42.6227977" lon="12.8928165"><ele>1223.3333333333335</ele><time>2026-05-01T13:07:10.517Z</time></trkpt><trkpt lat="42.6228344" lon="12.8928912"><ele>1226.0</ele><time>2026-05-01T13:07:11.515Z</time></trkpt><trkpt lat="42.6228769" lon="12.8929644"><ele>1226.4285714285716</ele><time>2026-05-01T13:07:12.519Z</time></trkpt><trkpt lat="42.622927" lon="12.893035"><ele>1226.857142857143</ele><time>2026-05-01T13:07:13.524Z</time></trkpt><trkpt lat="42.6229814" lon="12.8930898"><ele>1227.2857142857142</ele><time>2026-05-01T13:07:14.521Z</time></trkpt><trkpt lat="42.6230408" lon="12.8931267"><ele>1227.7142857142858</ele><time>2026-05-01T13:07:15.513Z</time></trkpt><trkpt lat="42.6231078" lon="12.8931512"><ele>1228.142857142857</ele><time>2026-05-01T13:07:16.515Z</time></trkpt><trkpt lat="42.6231803" lon="12.8931641"><ele>1228.5714285714287</ele><time>2026-05-01T13:07:17.517Z</time></trkpt><trkpt lat="42.623254" lon="12.8931719"><ele>1229.0</ele><time>2026-05-01T13:07:18.519Z</time></trkpt><trkpt lat="42.623332" lon="12.8931839"><ele>1229.0000000000002</ele><time>2026-05-01T13:07:19.513Z</time></trkpt><trkpt lat="42.6234003" lon="12.8932094"><ele>1229.0</ele><time>2026-05-01T13:07:20.513Z</time></trkpt><trkpt lat="42.6234603" lon="12.8932561"><ele>1229.0</ele><time>2026-05-01T13:07:21.512Z</time></trkpt><trkpt lat="42.6235181" lon="12.893313"><ele>1229.0</ele><time>2026-05-01T13:07:22.514Z</time></trkpt><trkpt lat="42.62357" lon="12.8933675"><ele>1229.0</ele><time>2026-05-01T13:07:23.521Z</time></trkpt><trkpt lat="42.6236229" lon="12.8934196"><ele>1229.0000000000002</ele><time>2026-05-01T13:07:24.513Z</time></trkpt><trkpt lat="42.6236762" lon="12.893471"><ele>1229.0</ele><time>2026-05-01T13:07:25.507Z</time></trkpt><trkpt lat="42.6237276" lon="12.8935266"><ele>1230.0</ele><time>2026-05-01T13:07:26.513Z</time></trkpt><trkpt lat="42.623779" lon="12.8935849"><ele>1231.0</ele><time>2026-05-01T13:07:27.525Z</time></trkpt><trkpt lat="42.6238326" lon="12.893649"><ele>1232.0</ele><time>2026-05-01T13:07:28.514Z</time></trkpt><trkpt lat="42.6238802" lon="12.8937231"><ele>1233.0</ele><time>2026-05-01T13:07:29.511Z</time></trkpt><trkpt lat="42.6239315" lon="12.8938038"><ele>1234.0</ele><time>2026-05-01T13:07:30.516Z</time></trkpt><trkpt lat="42.6239742" lon="12.8938691"><ele>1235.0</ele><time>2026-05-01T13:07:31.519Z</time></trkpt><trkpt lat="42.6240478" lon="12.8939649"><ele>1235.0</ele><time>2026-05-01T13:07:33.515Z</time></trkpt><trkpt lat="42.6241151" lon="12.8940477"><ele>1235.0</ele><time>2026-05-01T13:07:35.514Z</time></trkpt><trkpt lat="42.6241759" lon="12.8941058"><ele>1235.0</ele><time>2026-05-01T13:07:37.51Z</time></trkpt><trkpt lat="42.6242318" lon="12.8941629"><ele>1235.0</ele><time>2026-05-01T13:07:43.512Z</time></trkpt><trkpt lat="42.6243013" lon="12.8941943"><ele>1235.0</ele><time>2026-05-01T13:08:56.521Z</time></trkpt><trkpt lat="42.62438" lon="12.8942516"><ele>1235.0</ele><time>2026-05-01T13:08:59.51Z</time></trkpt><trkpt lat="42.6244375" lon="12.8942894"><ele>1235.1666666666667</ele><time>2026-05-01T13:09:00.512Z</time></trkpt><trkpt lat="42.6244986" lon="12.8943284"><ele>1235.3333333333335</ele><time>2026-05-01T13:09:01.514Z</time></trkpt><trkpt lat="42.6245615" lon="12.8943793"><ele>1235.5</ele><time>2026-05-01T13:09:02.509Z</time></trkpt><trkpt lat="42.6246291" lon="12.8944383"><ele>1235.6666666666667</ele><time>2026-05-01T13:09:03.513Z</time></trkpt><trkpt lat="42.6246835" lon="12.8945048"><ele>1235.8333333333333</ele><time>2026-05-01T13:09:04.514Z</time></trkpt><trkpt lat="42.6247525" lon="12.8946195"><ele>1236.0</ele><time>2026-05-01T13:09:06.524Z</time></trkpt><trkpt lat="42.6248377" lon="12.894714"><ele>1236.0</ele><time>2026-05-01T13:09:08.518Z</time></trkpt><trkpt lat="42.6249038" lon="12.8947569"><ele>1236.0</ele><time>2026-05-01T13:09:09.51Z</time></trkpt><trkpt lat="42.624978" lon="12.8947997"><ele>1236.0</ele><time>2026-05-01T13:09:10.512Z</time></trkpt><trkpt lat="42.6250382" lon="12.8948458"><ele>1236.0</ele><time>2026-05-01T13:09:11.513Z</time></trkpt><trkpt lat="42.6251305" lon="12.8949341"><ele>1236.0</ele><time>2026-05-01T13:09:13.506Z</time></trkpt><trkpt lat="42.6251455" lon="12.8950584"><ele>1236.0</ele><time>2026-05-01T13:09:15.52Z</time></trkpt><trkpt lat="42.6251627" lon="12.8951472"><ele>1234.1666666666667</ele><time>2026-05-01T13:09:16.515Z</time></trkpt><trkpt lat="42.6251843" lon="12.8952478"><ele>1232.3333333333333</ele><time>2026-05-01T13:09:17.51Z</time></trkpt><trkpt lat="42.6252112" lon="12.8953484"><ele>1230.5</ele><time>2026-05-01T13:09:18.51Z</time></trkpt><trkpt lat="42.6252406" lon="12.895442"><ele>1228.6666666666665</ele><time>2026-05-01T13:09:19.509Z</time></trkpt><trkpt lat="42.6252712" lon="12.8955188"><ele>1226.8333333333333</ele><time>2026-05-01T13:09:20.516Z</time></trkpt><trkpt lat="42.6253316" lon="12.8956147"><ele>1225.0</ele><time>2026-05-01T13:09:22.518Z</time></trkpt><trkpt lat="42.625387" lon="12.8956721"><ele>1225.0</ele><time>2026-05-01T13:09:32.51Z</time></trkpt><trkpt lat="42.6253685" lon="12.8958046"><ele>1225.0</ele><time>2026-05-01T13:09:37.52Z</time></trkpt><trkpt lat="42.6253032" lon="12.8959168"><ele>1225.0</ele><time>2026-05-01T13:09:39.517Z</time></trkpt><trkpt lat="42.62525" lon="12.896024"><ele>1225.0</ele><time>2026-05-01T13:09:41.511Z</time></trkpt><trkpt lat="42.6252228" lon="12.8961396"><ele>1225.0</ele><time>2026-05-01T13:09:43.516Z</time></trkpt><trkpt lat="42.6251997" lon="12.8962454"><ele>1224.2857142857142</ele><time>2026-05-01T13:09:45.509Z</time></trkpt><trkpt lat="42.6251769" lon="12.8963447"><ele>1223.5714285714284</ele><time>2026-05-01T13:10:00.517Z</time></trkpt><trkpt lat="42.6251709" lon="12.8964371"><ele>1222.857142857143</ele><time>2026-05-01T13:10:04.516Z</time></trkpt><trkpt lat="42.6251525" lon="12.8965351"><ele>1222.142857142857</ele><time>2026-05-01T13:10:14.517Z</time></trkpt><trkpt lat="42.6251683" lon="12.8966295"><ele>1221.4285714285713</ele><time>2026-05-01T13:10:17.51Z</time></trkpt><trkpt lat="42.6251895" lon="12.8967549"><ele>1220.7142857142858</ele><time>2026-05-01T13:10:20.516Z</time></trkpt><trkpt lat="42.6252215" lon="12.8968305"><ele>1220.0</ele><time>2026-05-01T13:10:26.516Z</time></trkpt><trkpt lat="42.6252503" lon="12.8969093"><ele>1218.6666666666667</ele><time>2026-05-01T13:10:30.512Z</time></trkpt><trkpt lat="42.6252807" lon="12.8969915"><ele>1217.3333333333335</ele><time>2026-05-01T13:10:33.523Z</time></trkpt><trkpt lat="42.6253192" lon="12.8971107"><ele>1216.0</ele><time>2026-05-01T13:10:36.511Z</time></trkpt><trkpt lat="42.6253467" lon="12.8972387"><ele>1214.6666666666667</ele><time>2026-05-01T13:10:38.511Z</time></trkpt><trkpt lat="42.6253575" lon="12.8973449"><ele>1213.3333333333333</ele><time>2026-05-01T13:10:40.507Z</time></trkpt><trkpt lat="42.625374" lon="12.8974865"><ele>1212.0</ele><time>2026-05-01T13:10:42.519Z</time></trkpt><trkpt lat="42.6254052" lon="12.8976311"><ele>1217.2857142857142</ele><time>2026-05-01T13:10:44.509Z</time></trkpt><trkpt lat="42.6254196" lon="12.8977148"><ele>1222.5714285714284</ele><time>2026-05-01T13:10:45.52Z</time></trkpt><trkpt lat="42.6254359" lon="12.8978079"><ele>1227.8571428571427</ele><time>2026-05-01T13:10:46.524Z</time></trkpt><trkpt lat="42.6254413" lon="12.8978949"><ele>1233.142857142857</ele><time>2026-05-01T13:10:47.514Z</time></trkpt><trkpt lat="42.6254551" lon="12.8980571"><ele>1238.4285714285713</ele><time>2026-05-01T13:10:49.511Z</time></trkpt><trkpt lat="42.6254673" lon="12.8981443"><ele>1243.7142857142856</ele><time>2026-05-01T13:10:50.513Z</time></trkpt><trkpt lat="42.6254844" lon="12.8982274"><ele>1249.0</ele><time>2026-05-01T13:10:51.508Z</time></trkpt><trkpt lat="42.6255013" lon="12.8983897"><ele>1248.8</ele><time>2026-05-01T13:10:53.513Z</time></trkpt><trkpt lat="42.6255137" lon="12.8985444"><ele>1248.6000000000001</ele><time>2026-05-01T13:10:55.513Z</time></trkpt><trkpt lat="42.6255142" lon="12.8986805"><ele>1248.4</ele><time>2026-05-01T13:10:57.513Z</time></trkpt><trkpt lat="42.6255199" lon="12.8988153"><ele>1248.2</ele><time>2026-05-01T13:10:59.515Z</time></trkpt><trkpt lat="42.6255451" lon="12.8989297"><ele>1248.0</ele><time>2026-05-01T13:11:01.511Z</time></trkpt><trkpt lat="42.6255592" lon="12.899066"><ele>1248.0</ele><time>2026-05-01T13:11:03.508Z</time></trkpt><trkpt lat="42.6255462" lon="12.8992045"><ele>1248.0</ele><time>2026-05-01T13:11:05.507Z</time></trkpt><trkpt lat="42.6255471" lon="12.8993575"><ele>1248.0</ele><time>2026-05-01T13:11:07.51Z</time></trkpt><trkpt lat="42.6255569" lon="12.8995204"><ele>1248.0</ele><time>2026-05-01T13:11:09.519Z</time></trkpt><trkpt lat="42.6255683" lon="12.8996819"><ele>1248.0</ele><time>2026-05-01T13:11:11.509Z</time></trkpt><trkpt lat="42.6255701" lon="12.8998157"><ele>1248.0</ele><time>2026-05-01T13:11:13.508Z</time></trkpt><trkpt lat="42.6255591" lon="12.8999351"><ele>1248.0</ele><time>2026-05-01T13:11:15.512Z</time></trkpt><trkpt lat="42.6255636" lon="12.9000859"><ele>1248.0</ele><time>2026-05-01T13:11:17.51Z</time></trkpt><trkpt lat="42.6255661" lon="12.9002538"><ele>1248.0</ele><time>2026-05-01T13:11:19.514Z</time></trkpt><trkpt lat="42.625569" lon="12.9003456"><ele>1247.2</ele><time>2026-05-01T13:11:20.517Z</time></trkpt><trkpt lat="42.6255705" lon="12.9005056"><ele>1246.4</ele><time>2026-05-01T13:11:22.511Z</time></trkpt><trkpt lat="42.6255778" lon="12.9006504"><ele>1245.6000000000001</ele><time>2026-05-01T13:11:24.52Z</time></trkpt><trkpt lat="42.6256069" lon="12.9007933"><ele>1244.8</ele><time>2026-05-01T13:11:26.517Z</time></trkpt><trkpt lat="42.6256193" lon="12.9009403"><ele>1244.0</ele><time>2026-05-01T13:11:28.506Z</time></trkpt><trkpt lat="42.6256271" lon="12.9010935"><ele>1242.2</ele><time>2026-05-01T13:11:30.514Z</time></trkpt><trkpt lat="42.6256357" lon="12.901249"><ele>1240.4</ele><time>2026-05-01T13:11:32.511Z</time></trkpt><trkpt lat="42.6256509" lon="12.9014027"><ele>1238.6</ele><time>2026-05-01T13:11:34.516Z</time></trkpt><trkpt lat="42.6256709" lon="12.901569"><ele>1236.8</ele><time>2026-05-01T13:11:36.521Z</time></trkpt><trkpt lat="42.6256843" lon="12.9016564"><ele>1235.0</ele><time>2026-05-01T13:11:37.513Z</time></trkpt><trkpt lat="42.6257047" lon="12.9018082"><ele>1232.3333333333335</ele><time>2026-05-01T13:11:39.508Z</time></trkpt><trkpt lat="42.6257175" lon="12.901939"><ele>1229.6666666666667</ele><time>2026-05-01T13:11:41.51Z</time></trkpt><trkpt lat="42.6257495" lon="12.9020557"><ele>1227.0</ele><time>2026-05-01T13:11:43.514Z</time></trkpt><trkpt lat="42.625776" lon="12.9021694"><ele>1224.3333333333333</ele><time>2026-05-01T13:11:45.507Z</time></trkpt><trkpt lat="42.6257767" lon="12.9022679"><ele>1221.6666666666665</ele><time>2026-05-01T13:11:47.518Z</time></trkpt><trkpt lat="42.6257807" lon="12.9023716"><ele>1219.0</ele><time>2026-05-01T13:11:50.513Z</time></trkpt><trkpt lat="42.6258053" lon="12.9024935"><ele>1215.5</ele><time>2026-05-01T13:11:53.513Z</time></trkpt><trkpt lat="42.6258121" lon="12.9025887"><ele>1212.0</ele><time>2026-05-01T13:11:55.51Z</time></trkpt><trkpt lat="42.6258094" lon="12.9027173"><ele>1208.5</ele><time>2026-05-01T13:11:58.518Z</time></trkpt><trkpt lat="42.6258188" lon="12.9028046"><ele>1205.0</ele><time>2026-05-01T13:12:00.509Z</time></trkpt><trkpt lat="42.6258302" lon="12.9029062"><ele>1201.5</ele><time>2026-05-01T13:12:02.521Z</time></trkpt><trkpt lat="42.6258403" lon="12.903019"><ele>1198.0</ele><time>2026-05-01T13:12:04.514Z</time></trkpt><trkpt lat="42.6258564" lon="12.903104"><ele>1198.0</ele><time>2026-05-01T13:12:10.52Z</time></trkpt><trkpt lat="42.6258611" lon="12.9032045"><ele>1198.0</ele><time>2026-05-01T13:12:23.511Z</time></trkpt><trkpt lat="42.6259092" lon="12.9033018"><ele>1198.0</ele><time>2026-05-01T13:12:26.514Z</time></trkpt><trkpt lat="42.6259356" lon="12.9034026"><ele>1198.0</ele><time>2026-05-01T13:12:28.512Z</time></trkpt><trkpt lat="42.6259557" lon="12.9034859"><ele>1198.0</ele><time>2026-05-01T13:12:30.506Z</time></trkpt><trkpt lat="42.6260077" lon="12.9036008"><ele>1198.0</ele><time>2026-05-01T13:12:37.517Z</time></trkpt><trkpt lat="42.6260539" lon="12.9037032"><ele>1201.2</ele><time>2026-05-01T13:12:39.509Z</time></trkpt><trkpt lat="42.626137" lon="12.9038125"><ele>1204.4</ele><time>2026-05-01T13:12:41.512Z</time></trkpt><trkpt lat="42.6262216" lon="12.9039316"><ele>1207.6000000000001</ele><time>2026-05-01T13:12:43.512Z</time></trkpt><trkpt lat="42.6262635" lon="12.9040032"><ele>1210.8</ele><time>2026-05-01T13:12:44.514Z</time></trkpt><trkpt lat="42.6262996" lon="12.9040833"><ele>1214.0</ele><time>2026-05-01T13:12:45.515Z</time></trkpt><trkpt lat="42.6263678" lon="12.9042133"><ele>1210.6000000000001</ele><time>2026-05-01T13:12:47.51Z</time></trkpt><trkpt lat="42.6264405" lon="12.9043502"><ele>1207.2</ele><time>2026-05-01T13:12:49.512Z</time></trkpt><trkpt lat="42.6265006" lon="12.9044779"><ele>1203.8000000000002</ele><time>2026-05-01T13:12:51.512Z</time></trkpt><trkpt lat="42.6265644" lon="12.9045905"><ele>1200.4</ele><time>2026-05-01T13:12:53.514Z</time></trkpt><trkpt lat="42.6266163" lon="12.904691"><ele>1197.0</ele><time>2026-05-01T13:12:55.514Z</time></trkpt><trkpt lat="42.626663" lon="12.904793"><ele>1197.0</ele><time>2026-05-01T13:12:57.505Z</time></trkpt><trkpt lat="42.6267133" lon="12.9048842"><ele>1197.0</ele><time>2026-05-01T13:12:59.507Z</time></trkpt><trkpt lat="42.626757" lon="12.9049604"><ele>1197.0</ele><time>2026-05-01T13:13:01.512Z</time></trkpt><trkpt lat="42.6268346" lon="12.9050005"><ele>1197.0</ele><time>2026-05-01T13:13:04.524Z</time></trkpt><trkpt lat="42.6268448" lon="12.9050857"><ele>1197.0</ele><time>2026-05-01T13:13:09.512Z</time></trkpt><trkpt lat="42.6268179" lon="12.9051835"><ele>1197.0</ele><time>2026-05-01T13:13:12.528Z</time></trkpt><trkpt lat="42.6268195" lon="12.9052896"><ele>1195.0</ele><time>2026-05-01T13:13:14.509Z</time></trkpt><trkpt lat="42.6268486" lon="12.9054269"><ele>1193.0</ele><time>2026-05-01T13:13:16.511Z</time></trkpt><trkpt lat="42.6268731" lon="12.9055722"><ele>1191.0</ele><time>2026-05-01T13:13:18.519Z</time></trkpt><trkpt lat="42.626891" lon="12.9057121"><ele>1189.0</ele><time>2026-05-01T13:13:20.513Z</time></trkpt><trkpt lat="42.6268978" lon="12.9058505"><ele>1187.0</ele><time>2026-05-01T13:13:22.503Z</time></trkpt><trkpt lat="42.6269138" lon="12.9059941"><ele>1184.3333333333335</ele><time>2026-05-01T13:13:24.518Z</time></trkpt><trkpt lat="42.6269344" lon="12.9061323"><ele>1181.6666666666667</ele><time>2026-05-01T13:13:26.505Z</time></trkpt><trkpt lat="42.6269491" lon="12.9062447"><ele>1179.0</ele><time>2026-05-01T13:13:28.517Z</time></trkpt><trkpt lat="42.6269495" lon="12.9063463"><ele>1176.3333333333333</ele><time>2026-05-01T13:13:31.511Z</time></trkpt><trkpt lat="42.6269707" lon="12.9064577"><ele>1173.6666666666665</ele><time>2026-05-01T13:13:35.509Z</time></trkpt><trkpt lat="42.6269741" lon="12.9065598"><ele>1171.0</ele><time>2026-05-01T13:13:40.516Z</time></trkpt><trkpt lat="42.6269744" lon="12.9066578"><ele>1167.1666666666665</ele><time>2026-05-01T13:13:49.506Z</time></trkpt><trkpt lat="42.6269834" lon="12.9067801"><ele>1163.3333333333333</ele><time>2026-05-01T13:13:53.505Z</time></trkpt><trkpt lat="42.6269751" lon="12.9068738"><ele>1159.5</ele><time>2026-05-01T13:14:03.523Z</time></trkpt><trkpt lat="42.626988" lon="12.9069634"><ele>1155.6666666666667</ele><time>2026-05-01T13:14:15.514Z</time></trkpt><trkpt lat="42.6269842" lon="12.9070606"><ele>1151.8333333333335</ele><time>2026-05-01T13:14:38.508Z</time></trkpt><trkpt lat="42.6270131" lon="12.9071368"><ele>1148.0</ele><time>2026-05-01T13:14:41.511Z</time></trkpt><trkpt lat="42.6270553" lon="12.9072452"><ele>1151.6666666666667</ele><time>2026-05-01T13:14:44.516Z</time></trkpt><trkpt lat="42.6270633" lon="12.9073593"><ele>1155.3333333333335</ele><time>2026-05-01T13:14:47.512Z</time></trkpt><trkpt lat="42.6271125" lon="12.9074685"><ele>1159.0</ele><time>2026-05-01T13:14:50.523Z</time></trkpt><trkpt lat="42.6271465" lon="12.907575"><ele>1162.6666666666667</ele><time>2026-05-01T13:14:52.518Z</time></trkpt><trkpt lat="42.6271732" lon="12.9076592"><ele>1166.3333333333333</ele><time>2026-05-01T13:15:55.51Z</time></trkpt><trkpt lat="42.6272001" lon="12.9077452"><ele>1170.0</ele><time>2026-05-01T13:16:50.506Z</time></trkpt><trkpt lat="42.6272068" lon="12.9078352"><ele>1170.0</ele><time>2026-05-01T13:17:09.511Z</time></trkpt><trkpt lat="42.6272461" lon="12.9079276"><ele>1170.0</ele><time>2026-05-01T13:17:14.515Z</time></trkpt><trkpt lat="42.6272587" lon="12.9080116"><ele>1170.0</ele><time>2026-05-01T13:17:22.512Z</time></trkpt><trkpt lat="42.6272814" lon="12.908104"><ele>1170.0</ele><time>2026-05-01T13:17:28.513Z</time></trkpt><trkpt lat="42.6273352" lon="12.9081585"><ele>1170.0</ele><time>2026-05-01T13:17:32.503Z</time></trkpt><trkpt lat="42.6273755" lon="12.908261"><ele>1170.0</ele><time>2026-05-01T13:17:36.502Z</time></trkpt><trkpt lat="42.6274361" lon="12.9083237"><ele>1170.0</ele><time>2026-05-01T13:17:39.502Z</time></trkpt><trkpt lat="42.6274803" lon="12.908406"><ele>1165.6666666666667</ele><time>2026-05-01T13:17:42.505Z</time></trkpt><trkpt lat="42.6275172" lon="12.9084926"><ele>1161.3333333333333</ele><time>2026-05-01T13:17:45.505Z</time></trkpt><trkpt lat="42.6275825" lon="12.9085694"><ele>1157.0</ele><time>2026-05-01T13:17:48.509Z</time></trkpt><trkpt lat="42.6276161" lon="12.9086813"><ele>1152.6666666666665</ele><time>2026-05-01T13:17:50.505Z</time></trkpt><trkpt lat="42.6276578" lon="12.9087558"><ele>1148.3333333333333</ele><time>2026-05-01T13:17:56.507Z</time></trkpt><trkpt lat="42.6277158" lon="12.908846"><ele>1144.0</ele><time>2026-05-01T13:18:00.508Z</time></trkpt><trkpt lat="42.6277775" lon="12.9089176"><ele>1144.7142857142856</ele><time>2026-05-01T13:18:02.511Z</time></trkpt><trkpt lat="42.6278558" lon="12.9089903"><ele>1145.4285714285713</ele><time>2026-05-01T13:18:04.51Z</time></trkpt><trkpt lat="42.627901" lon="12.9090575"><ele>1146.142857142857</ele><time>2026-05-01T13:18:06.511Z</time></trkpt><trkpt lat="42.6279268" lon="12.9091413"><ele>1146.8571428571427</ele><time>2026-05-01T13:18:08.514Z</time></trkpt><trkpt lat="42.6279682" lon="12.9092235"><ele>1147.5714285714284</ele><time>2026-05-01T13:18:10.511Z</time></trkpt><trkpt lat="42.6280277" lon="12.9092929"><ele>1148.2857142857142</ele><time>2026-05-01T13:18:12.517Z</time></trkpt><trkpt lat="42.6280819" lon="12.9093475"><ele>1149.0</ele><time>2026-05-01T13:18:14.513Z</time></trkpt><trkpt lat="42.6281412" lon="12.909427"><ele>1149.0</ele><time>2026-05-01T13:18:17.508Z</time></trkpt><trkpt lat="42.6282026" lon="12.9094816"><ele>1149.0</ele><time>2026-05-01T13:18:20.506Z</time></trkpt><trkpt lat="42.628259" lon="12.9095204"><ele>1149.0</ele><time>2026-05-01T13:19:59.508Z</time></trkpt><trkpt lat="42.6283248" lon="12.9095562"><ele>1149.0</ele><time>2026-05-01T13:20:25.504Z</time></trkpt><trkpt lat="42.6283915" lon="12.9095689"><ele>1149.0</ele><time>2026-05-01T13:20:29.515Z</time></trkpt><trkpt lat="42.628462" lon="12.9096139"><ele>1149.0</ele><time>2026-05-01T13:20:44.509Z</time></trkpt><trkpt lat="42.6285218" lon="12.9096475"><ele>1149.0</ele><time>2026-05-01T13:20:46.507Z</time></trkpt><trkpt lat="42.6285773" lon="12.9097141"><ele>1149.0</ele><time>2026-05-01T13:20:48.508Z</time></trkpt><trkpt lat="42.6286195" lon="12.9097782"><ele>1149.0</ele><time>2026-05-01T13:20:50.503Z</time></trkpt><trkpt lat="42.6286838" lon="12.9098493"><ele>1149.0</ele><time>2026-05-01T13:20:53.506Z</time></trkpt><trkpt lat="42.6287418" lon="12.9099211"><ele>1149.0</ele><time>2026-05-01T13:20:55.504Z</time></trkpt><trkpt lat="42.6288046" lon="12.9100253"><ele>1149.0</ele><time>2026-05-01T13:20:57.509Z</time></trkpt><trkpt lat="42.6288473" lon="12.9101077"><ele>1149.0</ele><time>2026-05-01T13:20:59.512Z</time></trkpt><trkpt lat="42.6289312" lon="12.9101678"><ele>1148.3333333333333</ele><time>2026-05-01T13:21:02.506Z</time></trkpt><trkpt lat="42.6289957" lon="12.9102012"><ele>1147.6666666666667</ele><time>2026-05-01T13:21:04.507Z</time></trkpt><trkpt lat="42.6290584" lon="12.9102519"><ele>1147.0</ele><time>2026-05-01T13:21:06.51Z</time></trkpt><trkpt lat="42.6291259" lon="12.9103049"><ele>1146.3333333333335</ele><time>2026-05-01T13:21:08.504Z</time></trkpt><trkpt lat="42.6292182" lon="12.9103375"><ele>1145.6666666666667</ele><time>2026-05-01T13:21:10.505Z</time></trkpt><trkpt lat="42.6293122" lon="12.9103767"><ele>1145.0</ele><time>2026-05-01T13:21:12.508Z</time></trkpt><trkpt lat="42.6293758" lon="12.910448"><ele>1145.0</ele><time>2026-05-01T13:21:14.512Z</time></trkpt><trkpt lat="42.6294184" lon="12.9105251"><ele>1145.0</ele><time>2026-05-01T13:21:16.503Z</time></trkpt><trkpt lat="42.6294757" lon="12.9106099"><ele>1145.0</ele><time>2026-05-01T13:21:18.514Z</time></trkpt><trkpt lat="42.6295305" lon="12.9106584"><ele>1145.0</ele><time>2026-05-01T13:21:21.518Z</time></trkpt><trkpt lat="42.6295864" lon="12.9107346"><ele>1145.0</ele><time>2026-05-01T13:21:24.511Z</time></trkpt><trkpt lat="42.6296378" lon="12.9108095"><ele>1145.0</ele><time>2026-05-01T13:21:31.51Z</time></trkpt><trkpt lat="42.6296918" lon="12.9108989"><ele>1149.3333333333335</ele><time>2026-05-01T13:21:34.511Z</time></trkpt><trkpt lat="42.6297549" lon="12.9109545"><ele>1153.6666666666667</ele><time>2026-05-01T13:21:36.506Z</time></trkpt><trkpt lat="42.6298191" lon="12.9110146"><ele>1158.0</ele><time>2026-05-01T13:21:38.504Z</time></trkpt><trkpt lat="42.6298412" lon="12.9111024"><ele>1162.3333333333333</ele><time>2026-05-01T13:21:41.499Z</time></trkpt><trkpt lat="42.6298208" lon="12.9112122"><ele>1166.6666666666665</ele><time>2026-05-01T13:21:43.513Z</time></trkpt><trkpt lat="42.6298099" lon="12.9113154"><ele>1171.0</ele><time>2026-05-01T13:21:45.503Z</time></trkpt><trkpt lat="42.6298145" lon="12.9114773"><ele>1171.0</ele><time>2026-05-01T13:21:47.505Z</time></trkpt><trkpt lat="42.6298147" lon="12.9115632"><ele>1171.0</ele><time>2026-05-01T13:21:48.505Z</time></trkpt><trkpt lat="42.6297958" lon="12.9117266"><ele>1171.0</ele><time>2026-05-01T13:21:50.513Z</time></trkpt><trkpt lat="42.6297797" lon="12.9118888"><ele>1171.0</ele><time>2026-05-01T13:21:52.503Z</time></trkpt><trkpt lat="42.6297519" lon="12.9120388"><ele>1171.0</ele><time>2026-05-01T13:21:54.514Z</time></trkpt><trkpt lat="42.6297194" lon="12.9121883"><ele>1172.8</ele><time>2026-05-01T13:21:56.51Z</time></trkpt><trkpt lat="42.6296701" lon="12.9123314"><ele>1174.6</ele><time>2026-05-01T13:21:58.507Z</time></trkpt><trkpt lat="42.6296181" lon="12.9124708"><ele>1176.4</ele><time>2026-05-01T13:22:00.509Z</time></trkpt><trkpt lat="42.62958" lon="12.9125844"><ele>1178.2</ele><time>2026-05-01T13:22:02.505Z</time></trkpt><trkpt lat="42.6295392" lon="12.9127046"><ele>1180.0</ele><time>2026-05-01T13:22:04.509Z</time></trkpt><trkpt lat="42.6294856" lon="12.9128308"><ele>1173.6666666666665</ele><time>2026-05-01T13:22:06.517Z</time></trkpt><trkpt lat="42.6294286" lon="12.9129527"><ele>1167.3333333333333</ele><time>2026-05-01T13:22:08.504Z</time></trkpt><trkpt lat="42.6293819" lon="12.9130852"><ele>1161.0</ele><time>2026-05-01T13:22:10.503Z</time></trkpt><trkpt lat="42.6293614" lon="12.9131697"><ele>1154.6666666666667</ele><time>2026-05-01T13:22:11.506Z</time></trkpt><trkpt lat="42.6293468" lon="12.9132642"><ele>1148.3333333333335</ele><time>2026-05-01T13:22:12.512Z</time></trkpt><trkpt lat="42.6293375" lon="12.9133592"><ele>1142.0</ele><time>2026-05-01T13:22:13.504Z</time></trkpt><trkpt lat="42.6293268" lon="12.9134509"><ele>1142.0</ele><time>2026-05-01T13:22:14.514Z</time></trkpt><trkpt lat="42.6293212" lon="12.9135454"><ele>1142.0</ele><time>2026-05-01T13:22:15.507Z</time></trkpt><trkpt lat="42.6293202" lon="12.9136436"><ele>1142.0</ele><time>2026-05-01T13:22:16.507Z</time></trkpt><trkpt lat="42.6293253" lon="12.9137356"><ele>1142.0</ele><time>2026-05-01T13:22:17.504Z</time></trkpt><trkpt lat="42.6293319" lon="12.9138234"><ele>1142.0</ele><time>2026-05-01T13:22:18.505Z</time></trkpt><trkpt lat="42.6293423" lon="12.9139915"><ele>1142.0</ele><time>2026-05-01T13:22:20.505Z</time></trkpt><trkpt lat="42.6293614" lon="12.9141593"><ele>1142.6</ele><time>2026-05-01T13:22:22.511Z</time></trkpt><trkpt lat="42.6293791" lon="12.9143215"><ele>1143.2</ele><time>2026-05-01T13:22:24.505Z</time></trkpt><trkpt lat="42.6293919" lon="12.9144062"><ele>1143.8</ele><time>2026-05-01T13:22:25.514Z</time></trkpt><trkpt lat="42.629432" lon="12.9145554"><ele>1144.4</ele><time>2026-05-01T13:22:27.508Z</time></trkpt><trkpt lat="42.6294685" lon="12.9146826"><ele>1145.0</ele><time>2026-05-01T13:22:29.5Z</time></trkpt><trkpt lat="42.629499" lon="12.9148026"><ele>1144.6666666666667</ele><time>2026-05-01T13:22:31.507Z</time></trkpt><trkpt lat="42.6295059" lon="12.9149056"><ele>1144.3333333333335</ele><time>2026-05-01T13:22:33.504Z</time></trkpt><trkpt lat="42.6295395" lon="12.9150037"><ele>1144.0</ele><time>2026-05-01T13:22:36.514Z</time></trkpt><trkpt lat="42.6295021" lon="12.9150886"><ele>1143.6666666666667</ele><time>2026-05-01T13:22:49.505Z</time></trkpt><trkpt lat="42.6294221" lon="12.9151318"><ele>1143.3333333333333</ele><time>2026-05-01T13:22:52.501Z</time></trkpt><trkpt lat="42.6293498" lon="12.9151801"><ele>1143.0</ele><time>2026-05-01T13:22:54.504Z</time></trkpt><trkpt lat="42.6292926" lon="12.9152318"><ele>1143.0</ele><time>2026-05-01T13:23:29.507Z</time></trkpt><trkpt lat="42.629237" lon="12.915324"><ele>1143.0</ele><time>2026-05-01T13:23:33.507Z</time></trkpt><trkpt lat="42.6291949" lon="12.9154203"><ele>1143.0</ele><time>2026-05-01T13:23:35.503Z</time></trkpt><trkpt lat="42.6291686" lon="12.9155017"><ele>1143.0</ele><time>2026-05-01T13:23:36.512Z</time></trkpt><trkpt lat="42.6291422" lon="12.9156022"><ele>1143.0</ele><time>2026-05-01T13:23:37.504Z</time></trkpt><trkpt lat="42.629107" lon="12.9157221"><ele>1143.0</ele><time>2026-05-01T13:23:38.512Z</time></trkpt><trkpt lat="42.6290688" lon="12.9158368"><ele>1142.1666666666667</ele><time>2026-05-01T13:23:39.502Z</time></trkpt><trkpt lat="42.6290312" lon="12.9159489"><ele>1141.3333333333333</ele><time>2026-05-01T13:23:40.501Z</time></trkpt><trkpt lat="42.6290014" lon="12.9160639"><ele>1140.5</ele><time>2026-05-01T13:23:41.506Z</time></trkpt><trkpt lat="42.6289858" lon="12.9161665"><ele>1139.6666666666665</ele><time>2026-05-01T13:23:42.507Z</time></trkpt><trkpt lat="42.6289741" lon="12.9162592"><ele>1138.8333333333333</ele><time>2026-05-01T13:23:43.502Z</time></trkpt><trkpt lat="42.6289627" lon="12.9163491"><ele>1138.0</ele><time>2026-05-01T13:23:44.508Z</time></trkpt><trkpt lat="42.6289422" lon="12.9164416"><ele>1138.0000000000002</ele><time>2026-05-01T13:23:45.513Z</time></trkpt><trkpt lat="42.6289168" lon="12.9165327"><ele>1138.0</ele><time>2026-05-01T13:23:46.509Z</time></trkpt><trkpt lat="42.6288969" lon="12.9166259"><ele>1138.0</ele><time>2026-05-01T13:23:47.506Z</time></trkpt><trkpt lat="42.628883" lon="12.9167202"><ele>1138.0</ele><time>2026-05-01T13:23:48.513Z</time></trkpt><trkpt lat="42.6288753" lon="12.9168213"><ele>1138.0</ele><time>2026-05-01T13:23:49.504Z</time></trkpt><trkpt lat="42.6288817" lon="12.9169241"><ele>1138.0000000000002</ele><time>2026-05-01T13:23:50.511Z</time></trkpt><trkpt lat="42.6289045" lon="12.9170206"><ele>1138.0</ele><time>2026-05-01T13:23:51.507Z</time></trkpt><trkpt lat="42.6289369" lon="12.9171051"><ele>1136.0</ele><time>2026-05-01T13:23:52.505Z</time></trkpt><trkpt lat="42.6289783" lon="12.9171886"><ele>1134.0</ele><time>2026-05-01T13:23:53.518Z</time></trkpt><trkpt lat="42.6290291" lon="12.917272"><ele>1132.0</ele><time>2026-05-01T13:23:54.512Z</time></trkpt><trkpt lat="42.6290863" lon="12.9173535"><ele>1130.0</ele><time>2026-05-01T13:23:55.507Z</time></trkpt><trkpt lat="42.6291424" lon="12.9174225"><ele>1128.0</ele><time>2026-05-01T13:23:56.508Z</time></trkpt><trkpt lat="42.6292506" lon="12.9174928"><ele>1126.0</ele><time>2026-05-01T13:23:58.5Z</time></trkpt><trkpt lat="42.6293196" lon="12.9174978"><ele>1126.0</ele><time>2026-05-01T13:23:59.505Z</time></trkpt><trkpt lat="42.6294015" lon="12.9174774"><ele>1126.0</ele><time>2026-05-01T13:24:00.505Z</time></trkpt><trkpt lat="42.6294892" lon="12.91744"><ele>1126.0</ele><time>2026-05-01T13:24:01.512Z</time></trkpt><trkpt lat="42.6295736" lon="12.9174238"><ele>1126.0</ele><time>2026-05-01T13:24:02.516Z</time></trkpt><trkpt lat="42.6296411" lon="12.9174276"><ele>1126.0</ele><time>2026-05-01T13:24:03.508Z</time></trkpt><trkpt lat="42.6297165" lon="12.9174909"><ele>1126.0</ele><time>2026-05-01T13:24:05.511Z</time></trkpt><trkpt lat="42.6297397" lon="12.9176656"><ele>1125.1666666666665</ele><time>2026-05-01T13:24:07.509Z</time></trkpt><trkpt lat="42.6297458" lon="12.9177676"><ele>1124.3333333333333</ele><time>2026-05-01T13:24:08.515Z</time></trkpt><trkpt lat="42.629758" lon="12.9178619"><ele>1123.5</ele><time>2026-05-01T13:24:09.507Z</time></trkpt><trkpt lat="42.629775" lon="12.917961"><ele>1122.6666666666667</ele><time>2026-05-01T13:24:10.503Z</time></trkpt><trkpt lat="42.6297936" lon="12.9180642"><ele>1121.8333333333335</ele><time>2026-05-01T13:24:11.516Z</time></trkpt><trkpt lat="42.629812" lon="12.9181705"><ele>1121.0</ele><time>2026-05-01T13:24:12.505Z</time></trkpt><trkpt lat="42.6298347" lon="12.9182758"><ele>1121.0</ele><time>2026-05-01T13:24:13.502Z</time></trkpt><trkpt lat="42.6298611" lon="12.9183775"><ele>1121.0</ele><time>2026-05-01T13:24:14.504Z</time></trkpt><trkpt lat="42.6298896" lon="12.918475"><ele>1121.0</ele><time>2026-05-01T13:24:15.499Z</time></trkpt><trkpt lat="42.6299286" lon="12.9185654"><ele>1121.0</ele><time>2026-05-01T13:24:16.506Z</time></trkpt><trkpt lat="42.6299704" lon="12.9186555"><ele>1121.0</ele><time>2026-05-01T13:24:17.506Z</time></trkpt><trkpt lat="42.6300092" lon="12.9187516"><ele>1121.0</ele><time>2026-05-01T13:24:18.504Z</time></trkpt><trkpt lat="42.6300462" lon="12.9188573"><ele>1117.8</ele><time>2026-05-01T13:24:19.509Z</time></trkpt><trkpt lat="42.630085" lon="12.9189674"><ele>1114.6</ele><time>2026-05-01T13:24:20.503Z</time></trkpt><trkpt lat="42.6301216" lon="12.9190834"><ele>1111.4</ele><time>2026-05-01T13:24:21.509Z</time></trkpt><trkpt lat="42.6301528" lon="12.9192008"><ele>1108.2</ele><time>2026-05-01T13:24:22.514Z</time></trkpt><trkpt lat="42.6301844" lon="12.9193186"><ele>1105.0</ele><time>2026-05-01T13:24:23.515Z</time></trkpt><trkpt lat="42.6302239" lon="12.9194265"><ele>1104.4</ele><time>2026-05-01T13:24:24.506Z</time></trkpt><trkpt lat="42.6302595" lon="12.9195356"><ele>1103.8</ele><time>2026-05-01T13:24:25.508Z</time></trkpt><trkpt lat="42.6302783" lon="12.9196395"><ele>1103.2</ele><time>2026-05-01T13:24:26.51Z</time></trkpt><trkpt lat="42.6302731" lon="12.9197254"><ele>1102.6</ele><time>2026-05-01T13:24:27.506Z</time></trkpt><trkpt lat="42.6301716" lon="12.9198504"><ele>1102.0</ele><time>2026-05-01T13:24:29.501Z</time></trkpt><trkpt lat="42.630093" lon="12.9198929"><ele>1102.0</ele><time>2026-05-01T13:24:30.507Z</time></trkpt><trkpt lat="42.6300105" lon="12.9199329"><ele>1102.0</ele><time>2026-05-01T13:24:31.506Z</time></trkpt><trkpt lat="42.6299363" lon="12.9199766"><ele>1102.0</ele><time>2026-05-01T13:24:32.504Z</time></trkpt><trkpt lat="42.6298679" lon="12.9200207"><ele>1102.0</ele><time>2026-05-01T13:24:33.516Z</time></trkpt><trkpt lat="42.6298032" lon="12.9200685"><ele>1102.0</ele><time>2026-05-01T13:24:34.502Z</time></trkpt><trkpt lat="42.6297497" lon="12.9201322"><ele>1102.0</ele><time>2026-05-01T13:24:35.518Z</time></trkpt><trkpt lat="42.6296896" lon="12.920266"><ele>1102.2</ele><time>2026-05-01T13:24:37.506Z</time></trkpt><trkpt lat="42.6296756" lon="12.9203727"><ele>1102.4</ele><time>2026-05-01T13:25:00.51Z</time></trkpt><trkpt lat="42.6296749" lon="12.9204765"><ele>1102.6</ele><time>2026-05-01T13:25:02.505Z</time></trkpt><trkpt lat="42.6296881" lon="12.9206274"><ele>1102.8</ele><time>2026-05-01T13:25:04.498Z</time></trkpt><trkpt lat="42.629724" lon="12.9207704"><ele>1103.0</ele><time>2026-05-01T13:25:06.502Z</time></trkpt><trkpt lat="42.6297821" lon="12.9208628"><ele>1101.8333333333335</ele><time>2026-05-01T13:25:08.509Z</time></trkpt><trkpt lat="42.6298029" lon="12.9209944"><ele>1100.6666666666667</ele><time>2026-05-01T13:25:10.505Z</time></trkpt><trkpt lat="42.6298036" lon="12.9210802"><ele>1099.5</ele><time>2026-05-01T13:25:11.506Z</time></trkpt><trkpt lat="42.6297989" lon="12.9211795"><ele>1098.3333333333333</ele><time>2026-05-01T13:25:12.515Z</time></trkpt><trkpt lat="42.6297851" lon="12.9212886"><ele>1097.1666666666665</ele><time>2026-05-01T13:25:13.512Z</time></trkpt><trkpt lat="42.629768" lon="12.9214083"><ele>1096.0</ele><time>2026-05-01T13:25:14.503Z</time></trkpt><trkpt lat="42.6297506" lon="12.9215308"><ele>1096.0</ele><time>2026-05-01T13:25:15.51Z</time></trkpt><trkpt lat="42.6297327" lon="12.921655"><ele>1096.0</ele><time>2026-05-01T13:25:16.505Z</time></trkpt><trkpt lat="42.6297203" lon="12.9217753"><ele>1096.0</ele><time>2026-05-01T13:25:17.506Z</time></trkpt><trkpt lat="42.6297052" lon="12.9218939"><ele>1096.0</ele><time>2026-05-01T13:25:18.51Z</time></trkpt><trkpt lat="42.6296841" lon="12.9220146"><ele>1096.0</ele><time>2026-05-01T13:25:19.503Z</time></trkpt><trkpt lat="42.629667" lon="12.9221364"><ele>1094.8</ele><time>2026-05-01T13:25:20.505Z</time></trkpt><trkpt lat="42.6296539" lon="12.9222629"><ele>1093.6</ele><time>2026-05-01T13:25:21.505Z</time></trkpt><trkpt lat="42.6296409" lon="12.9223956"><ele>1092.4</ele><time>2026-05-01T13:25:22.503Z</time></trkpt><trkpt lat="42.629634" lon="12.9225293"><ele>1091.2</ele><time>2026-05-01T13:25:23.514Z</time></trkpt><trkpt lat="42.62964" lon="12.9226543"><ele>1090.0</ele><time>2026-05-01T13:25:24.509Z</time></trkpt><trkpt lat="42.6296507" lon="12.9227734"><ele>1089.4285714285716</ele><time>2026-05-01T13:25:25.504Z</time></trkpt><trkpt lat="42.6296623" lon="12.9228805"><ele>1088.857142857143</ele><time>2026-05-01T13:25:26.501Z</time></trkpt><trkpt lat="42.6296722" lon="12.9229818"><ele>1088.2857142857142</ele><time>2026-05-01T13:25:27.507Z</time></trkpt><trkpt lat="42.6296773" lon="12.9230805"><ele>1087.7142857142858</ele><time>2026-05-01T13:25:28.505Z</time></trkpt><trkpt lat="42.6296803" lon="12.923182"><ele>1087.142857142857</ele><time>2026-05-01T13:25:29.509Z</time></trkpt><trkpt lat="42.6296796" lon="12.9232786"><ele>1086.5714285714287</ele><time>2026-05-01T13:25:30.498Z</time></trkpt><trkpt lat="42.6296763" lon="12.9233709"><ele>1086.0</ele><time>2026-05-01T13:25:31.52Z</time></trkpt><trkpt lat="42.6296679" lon="12.923497"><ele>1085.8333333333333</ele><time>2026-05-01T13:25:33.506Z</time></trkpt><trkpt lat="42.629621" lon="12.9235866"><ele>1085.6666666666667</ele><time>2026-05-01T13:25:52.506Z</time></trkpt><trkpt lat="42.6295868" lon="12.9236662"><ele>1085.5</ele><time>2026-05-01T13:25:54.508Z</time></trkpt><trkpt lat="42.6294903" lon="12.923729"><ele>1085.3333333333335</ele><time>2026-05-01T13:25:56.512Z</time></trkpt><trkpt lat="42.629407" lon="12.9237986"><ele>1085.1666666666667</ele><time>2026-05-01T13:25:58.503Z</time></trkpt><trkpt lat="42.6293551" lon="12.9238501"><ele>1085.0</ele><time>2026-05-01T13:26:01.51Z</time></trkpt><trkpt lat="42.6292893" lon="12.9238806"><ele>1085.0</ele><time>2026-05-01T13:28:45.504Z</time></trkpt><trkpt lat="42.6292748" lon="12.9237796"><ele>1085.0</ele><time>2026-05-01T13:28:48.507Z</time></trkpt><trkpt lat="42.6293298" lon="12.9237083"><ele>1085.0</ele><time>2026-05-01T13:28:50.505Z</time></trkpt><trkpt lat="42.6294131" lon="12.9237"><ele>1085.0</ele><time>2026-05-01T13:28:52.498Z</time></trkpt><trkpt lat="42.6294967" lon="12.9236402"><ele>1085.0</ele><time>2026-05-01T13:28:55.5Z</time></trkpt><trkpt lat="42.6295548" lon="12.9235554"><ele>1085.0</ele><time>2026-05-01T13:28:57.508Z</time></trkpt><trkpt lat="42.6295853" lon="12.9234712"><ele>1085.2</ele><time>2026-05-01T13:29:11.51Z</time></trkpt><trkpt lat="42.6296213" lon="12.9233688"><ele>1085.4</ele><time>2026-05-01T13:29:21.498Z</time></trkpt><trkpt lat="42.6296775" lon="12.9234903"><ele>1085.6</ele><time>2026-05-01T13:29:27.517Z</time></trkpt><trkpt lat="42.6297062" lon="12.9236384"><ele>1085.8</ele><time>2026-05-01T13:29:29.502Z</time></trkpt><trkpt lat="42.6298102" lon="12.9237513"><ele>1086.0</ele><time>2026-05-01T13:29:31.503Z</time></trkpt><trkpt lat="42.6298751" lon="12.9237951"><ele>1083.6</ele><time>2026-05-01T13:29:32.498Z</time></trkpt><trkpt lat="42.6299375" lon="12.9238329"><ele>1081.1999999999998</ele><time>2026-05-01T13:29:33.508Z</time></trkpt><trkpt lat="42.6299942" lon="12.9238858"><ele>1078.8000000000002</ele><time>2026-05-01T13:29:34.506Z</time></trkpt><trkpt lat="42.6300919" lon="12.9239601"><ele>1076.4</ele><time>2026-05-01T13:29:36.502Z</time></trkpt><trkpt lat="42.630186" lon="12.923973"><ele>1074.0</ele><time>2026-05-01T13:29:38.501Z</time></trkpt><trkpt lat="42.6302871" lon="12.9239274"><ele>1073.5714285714284</ele><time>2026-05-01T13:29:40.502Z</time></trkpt><trkpt lat="42.6303458" lon="12.9238823"><ele>1073.142857142857</ele><time>2026-05-01T13:29:41.505Z</time></trkpt><trkpt lat="42.6304113" lon="12.923836"><ele>1072.7142857142858</ele><time>2026-05-01T13:29:42.51Z</time></trkpt><trkpt lat="42.6304777" lon="12.9237952"><ele>1072.2857142857142</ele><time>2026-05-01T13:29:43.499Z</time></trkpt><trkpt lat="42.6305446" lon="12.9237535"><ele>1071.857142857143</ele><time>2026-05-01T13:29:44.505Z</time></trkpt><trkpt lat="42.6306124" lon="12.923709"><ele>1071.4285714285713</ele><time>2026-05-01T13:29:45.513Z</time></trkpt><trkpt lat="42.6306753" lon="12.9236675"><ele>1071.0</ele><time>2026-05-01T13:29:46.503Z</time></trkpt><trkpt lat="42.6307666" lon="12.9236311"><ele>1071.0</ele><time>2026-05-01T13:29:48.503Z</time></trkpt><trkpt lat="42.630793" lon="12.9237361"><ele>1071.0</ele><time>2026-05-01T13:29:54.499Z</time></trkpt><trkpt lat="42.6307721" lon="12.9238287"><ele>1071.0</ele><time>2026-05-01T13:29:56.506Z</time></trkpt><trkpt lat="42.6307751" lon="12.9239636"><ele>1071.0</ele><time>2026-05-01T13:29:58.501Z</time></trkpt><trkpt lat="42.6307936" lon="12.9240591"><ele>1071.0</ele><time>2026-05-01T13:29:59.495Z</time></trkpt><trkpt lat="42.6308207" lon="12.9241669"><ele>1071.0</ele><time>2026-05-01T13:30:00.5Z</time></trkpt><trkpt lat="42.6308456" lon="12.9242744"><ele>1068.5</ele><time>2026-05-01T13:30:01.511Z</time></trkpt><trkpt lat="42.6308669" lon="12.9243843"><ele>1066.0</ele><time>2026-05-01T13:30:02.511Z</time></trkpt><trkpt lat="42.6308878" lon="12.9244933"><ele>1063.5</ele><time>2026-05-01T13:30:03.504Z</time></trkpt><trkpt lat="42.6309186" lon="12.9246028"><ele>1061.0</ele><time>2026-05-01T13:30:04.502Z</time></trkpt><trkpt lat="42.6309592" lon="12.9247092"><ele>1058.5</ele><time>2026-05-01T13:30:05.511Z</time></trkpt><trkpt lat="42.631001" lon="12.9248066"><ele>1056.0</ele><time>2026-05-01T13:30:06.503Z</time></trkpt><trkpt lat="42.6310487" lon="12.9248917"><ele>1056.0</ele><time>2026-05-01T13:30:07.502Z</time></trkpt><trkpt lat="42.6310977" lon="12.9249551"><ele>1056.0</ele><time>2026-05-01T13:30:08.502Z</time></trkpt><trkpt lat="42.6311966" lon="12.9250279"><ele>1056.0</ele><time>2026-05-01T13:30:10.505Z</time></trkpt><trkpt lat="42.6312956" lon="12.9250084"><ele>1056.0</ele><time>2026-05-01T13:30:12.502Z</time></trkpt><trkpt lat="42.6314075" lon="12.9249467"><ele>1056.0</ele><time>2026-05-01T13:30:14.502Z</time></trkpt><trkpt lat="42.6314731" lon="12.9249158"><ele>1055.0</ele><time>2026-05-01T13:30:15.509Z</time></trkpt><trkpt lat="42.6315397" lon="12.9249008"><ele>1054.0</ele><time>2026-05-01T13:30:16.501Z</time></trkpt><trkpt lat="42.6316413" lon="12.9249397"><ele>1053.0</ele><time>2026-05-01T13:30:18.521Z</time></trkpt><trkpt lat="42.6316723" lon="12.9250842"><ele>1052.0</ele><time>2026-05-01T13:30:20.507Z</time></trkpt><trkpt lat="42.6316864" lon="12.9251812"><ele>1051.0</ele><time>2026-05-01T13:30:21.512Z</time></trkpt><trkpt lat="42.631698" lon="12.9252924"><ele>1050.0</ele><time>2026-05-01T13:30:22.512Z</time></trkpt><trkpt lat="42.6317013" lon="12.9254067"><ele>1050.0</ele><time>2026-05-01T13:30:23.51Z</time></trkpt><trkpt lat="42.6316936" lon="12.9255229"><ele>1050.0</ele><time>2026-05-01T13:30:24.505Z</time></trkpt><trkpt lat="42.6316806" lon="12.9256377"><ele>1050.0</ele><time>2026-05-01T13:30:25.51Z</time></trkpt><trkpt lat="42.6316719" lon="12.925748"><ele>1050.0</ele><time>2026-05-01T13:30:26.502Z</time></trkpt><trkpt lat="42.6316628" lon="12.9258527"><ele>1050.0</ele><time>2026-05-01T13:30:27.502Z</time></trkpt><trkpt lat="42.6316506" lon="12.9259483"><ele>1050.0</ele><time>2026-05-01T13:30:28.496Z</time></trkpt><trkpt lat="42.6316416" lon="12.926039"><ele>1047.8</ele><time>2026-05-01T13:30:29.502Z</time></trkpt><trkpt lat="42.6316591" lon="12.9261907"><ele>1045.6</ele><time>2026-05-01T13:30:31.51Z</time></trkpt><trkpt lat="42.6317188" lon="12.9262835"><ele>1043.4</ele><time>2026-05-01T13:30:33.505Z</time></trkpt><trkpt lat="42.6318018" lon="12.9263132"><ele>1041.2</ele><time>2026-05-01T13:30:35.504Z</time></trkpt><trkpt lat="42.6319063" lon="12.9262571"><ele>1039.0</ele><time>2026-05-01T13:30:37.507Z</time></trkpt><trkpt lat="42.6319666" lon="12.9262096"><ele>1038.8571428571427</ele><time>2026-05-01T13:30:38.506Z</time></trkpt><trkpt lat="42.6320303" lon="12.9261559"><ele>1038.7142857142858</ele><time>2026-05-01T13:30:39.51Z</time></trkpt><trkpt lat="42.6320998" lon="12.9261011"><ele>1038.5714285714284</ele><time>2026-05-01T13:30:40.503Z</time></trkpt><trkpt lat="42.6321675" lon="12.926066"><ele>1038.4285714285713</ele><time>2026-05-01T13:30:41.502Z</time></trkpt><trkpt lat="42.632228" lon="12.926035"><ele>1038.2857142857142</ele><time>2026-05-01T13:30:42.506Z</time></trkpt><trkpt lat="42.6322896" lon="12.9259962"><ele>1038.142857142857</ele><time>2026-05-01T13:30:43.5Z</time></trkpt><trkpt lat="42.6323436" lon="12.9259477"><ele>1038.0</ele><time>2026-05-01T13:30:44.505Z</time></trkpt><trkpt lat="42.6323949" lon="12.9258929"><ele>1038.0</ele><time>2026-05-01T13:30:45.503Z</time></trkpt><trkpt lat="42.6324466" lon="12.9258369"><ele>1038.0</ele><time>2026-05-01T13:30:46.502Z</time></trkpt><trkpt lat="42.6324963" lon="12.9257837"><ele>1038.0</ele><time>2026-05-01T13:30:47.511Z</time></trkpt><trkpt lat="42.6325484" lon="12.925735"><ele>1038.0</ele><time>2026-05-01T13:30:48.502Z</time></trkpt><trkpt lat="42.6326031" lon="12.9256919"><ele>1038.0</ele><time>2026-05-01T13:30:49.506Z</time></trkpt><trkpt lat="42.6326622" lon="12.925647"><ele>1038.0</ele><time>2026-05-01T13:30:50.499Z</time></trkpt><trkpt lat="42.6327233" lon="12.9255956"><ele>1038.0</ele><time>2026-05-01T13:30:51.5Z</time></trkpt><trkpt lat="42.6327939" lon="12.9255307"><ele>1033.1666666666667</ele><time>2026-05-01T13:30:52.515Z</time></trkpt><trkpt lat="42.6328644" lon="12.925459"><ele>1028.3333333333333</ele><time>2026-05-01T13:30:53.508Z</time></trkpt><trkpt lat="42.6329438" lon="12.9253845"><ele>1023.5</ele><time>2026-05-01T13:30:54.501Z</time></trkpt><trkpt lat="42.6330193" lon="12.9253141"><ele>1018.6666666666666</ele><time>2026-05-01T13:30:55.507Z</time></trkpt><trkpt lat="42.6331003" lon="12.9252681"><ele>1013.8333333333333</ele><time>2026-05-01T13:30:56.508Z</time></trkpt><trkpt lat="42.6331763" lon="12.9252207"><ele>1009.0</ele><time>2026-05-01T13:30:57.504Z</time></trkpt><trkpt lat="42.6332775" lon="12.9251742"><ele>1009.0</ele><time>2026-05-01T13:30:59.505Z</time></trkpt><trkpt lat="42.6333488" lon="12.9250892"><ele>1009.0000000000001</ele><time>2026-05-01T13:31:01.504Z</time></trkpt><trkpt lat="42.6334254" lon="12.9249739"><ele>1009.0000000000001</ele><time>2026-05-01T13:31:03.507Z</time></trkpt><trkpt lat="42.6335236" lon="12.9248703"><ele>1009.0</ele><time>2026-05-01T13:31:05.503Z</time></trkpt><trkpt lat="42.6335765" lon="12.9248163"><ele>1009.0</ele><time>2026-05-01T13:31:06.501Z</time></trkpt><trkpt lat="42.6336855" lon="12.9247511"><ele>1010.3333333333333</ele><time>2026-05-01T13:31:08.496Z</time></trkpt><trkpt lat="42.6337978" lon="12.9247616"><ele>1011.6666666666666</ele><time>2026-05-01T13:31:10.51Z</time></trkpt><trkpt lat="42.633862" lon="12.9247988"><ele>1013.0</ele><time>2026-05-01T13:31:11.505Z</time></trkpt><trkpt lat="42.6339264" lon="12.9248506"><ele>1014.3333333333333</ele><time>2026-05-01T13:31:12.512Z</time></trkpt><trkpt lat="42.63399" lon="12.9249026"><ele>1015.6666666666666</ele><time>2026-05-01T13:31:13.51Z</time></trkpt><trkpt lat="42.6340899" lon="12.9249767"><ele>1017.0</ele><time>2026-05-01T13:31:15.503Z</time></trkpt><trkpt lat="42.6341669" lon="12.9249877"><ele>1017.0</ele><time>2026-05-01T13:31:17.508Z</time></trkpt><trkpt lat="42.6342316" lon="12.9249182"><ele>1017.0</ele><time>2026-05-01T13:31:19.506Z</time></trkpt><trkpt lat="42.6342705" lon="12.924809"><ele>1017.0</ele><time>2026-05-01T13:31:21.503Z</time></trkpt><trkpt lat="42.6343087" lon="12.9247049"><ele>1017.0</ele><time>2026-05-01T13:31:23.514Z</time></trkpt><trkpt lat="42.6343587" lon="12.924623"><ele>1017.0</ele><time>2026-05-01T13:31:25.509Z</time></trkpt><trkpt lat="42.6344351" lon="12.9245398"><ele>1017.0</ele><time>2026-05-01T13:31:27.505Z</time></trkpt><trkpt lat="42.6344991" lon="12.9245252"><ele>1016.0</ele><time>2026-05-01T13:31:28.497Z</time></trkpt><trkpt lat="42.634563" lon="12.9245194"><ele>1014.9999999999999</ele><time>2026-05-01T13:31:29.503Z</time></trkpt><trkpt lat="42.63463" lon="12.9245223"><ele>1014.0</ele><time>2026-05-01T13:31:30.512Z</time></trkpt><trkpt lat="42.6346971" lon="12.9245313"><ele>1013.0</ele><time>2026-05-01T13:31:31.501Z</time></trkpt><trkpt lat="42.6347701" lon="12.9245599"><ele>1011.9999999999999</ele><time>2026-05-01T13:31:32.5Z</time></trkpt><trkpt lat="42.6348429" lon="12.9245964"><ele>1011.0</ele><time>2026-05-01T13:31:33.51Z</time></trkpt><trkpt lat="42.6349119" lon="12.9246482"><ele>1010.0</ele><time>2026-05-01T13:31:34.51Z</time></trkpt><trkpt lat="42.6349742" lon="12.9247037"><ele>1010.0000000000001</ele><time>2026-05-01T13:31:35.502Z</time></trkpt><trkpt lat="42.6350345" lon="12.9247782"><ele>1010.0</ele><time>2026-05-01T13:31:36.506Z</time></trkpt><trkpt lat="42.6350928" lon="12.9248644"><ele>1010.0</ele><time>2026-05-01T13:31:37.5Z</time></trkpt><trkpt lat="42.6351403" lon="12.9249532"><ele>1010.0</ele><time>2026-05-01T13:31:38.496Z</time></trkpt><trkpt lat="42.6351844" lon="12.9250405"><ele>1010.0000000000001</ele><time>2026-05-01T13:31:39.501Z</time></trkpt><trkpt lat="42.6352248" lon="12.9251339"><ele>1010.0</ele><time>2026-05-01T13:31:40.501Z</time></trkpt><trkpt lat="42.6352609" lon="12.9252284"><ele>1007.0000000000001</ele><time>2026-05-01T13:31:41.493Z</time></trkpt><trkpt lat="42.6352933" lon="12.9253201"><ele>1004.0</ele><time>2026-05-01T13:31:42.504Z</time></trkpt><trkpt lat="42.6353218" lon="12.9254213"><ele>1001.0</ele><time>2026-05-01T13:31:43.506Z</time></trkpt><trkpt lat="42.6353381" lon="12.9255226"><ele>998.0</ele><time>2026-05-01T13:31:44.51Z</time></trkpt><trkpt lat="42.6353632" lon="12.9256208"><ele>995.0000000000001</ele><time>2026-05-01T13:31:45.502Z</time></trkpt><trkpt lat="42.6354063" lon="12.9257117"><ele>992.0</ele><time>2026-05-01T13:31:46.503Z</time></trkpt><trkpt lat="42.6354554" lon="12.9257907"><ele>992.0</ele><time>2026-05-01T13:31:47.503Z</time></trkpt><trkpt lat="42.6355024" lon="12.9258607"><ele>992.0</ele><time>2026-05-01T13:31:48.508Z</time></trkpt><trkpt lat="42.6355742" lon="12.9259922"><ele>992.0</ele><time>2026-05-01T13:31:50.504Z</time></trkpt><trkpt lat="42.635614" lon="12.9261197"><ele>992.0</ele><time>2026-05-01T13:31:52.501Z</time></trkpt><trkpt lat="42.6356359" lon="12.9262808"><ele>992.0</ele><time>2026-05-01T13:31:54.503Z</time></trkpt><trkpt lat="42.6356577" lon="12.9263654"><ele>990.8</ele><time>2026-05-01T13:31:55.502Z</time></trkpt><trkpt lat="42.6357183" lon="12.9265211"><ele>989.6</ele><time>2026-05-01T13:31:57.506Z</time></trkpt><trkpt lat="42.6357914" lon="12.9266359"><ele>988.3999999999999</ele><time>2026-05-01T13:31:59.506Z</time></trkpt><trkpt lat="42.6358613" lon="12.926678"><ele>987.1999999999999</ele><time>2026-05-01T13:32:01.511Z</time></trkpt><trkpt lat="42.6359474" lon="12.9266789"><ele>986.0</ele><time>2026-05-01T13:32:04.501Z</time></trkpt><trkpt lat="42.6360323" lon="12.9266408"><ele>986.0</ele><time>2026-05-01T13:32:06.517Z</time></trkpt><trkpt lat="42.6361279" lon="12.9265508"><ele>985.9999999999999</ele><time>2026-05-01T13:32:08.503Z</time></trkpt><trkpt lat="42.6362252" lon="12.9264439"><ele>985.9999999999999</ele><time>2026-05-01T13:32:10.5Z</time></trkpt><trkpt lat="42.636282" lon="12.9263803"><ele>986.0</ele><time>2026-05-01T13:32:11.511Z</time></trkpt><trkpt lat="42.6363387" lon="12.9263127"><ele>986.0</ele><time>2026-05-01T13:32:12.507Z</time></trkpt><trkpt lat="42.636398" lon="12.9262486"><ele>986.7142857142857</ele><time>2026-05-01T13:32:13.504Z</time></trkpt><trkpt lat="42.6364589" lon="12.9261932"><ele>987.4285714285716</ele><time>2026-05-01T13:32:14.496Z</time></trkpt><trkpt lat="42.6365231" lon="12.9261362"><ele>988.1428571428572</ele><time>2026-05-01T13:32:15.5Z</time></trkpt><trkpt lat="42.6365814" lon="12.9260738"><ele>988.8571428571429</ele><time>2026-05-01T13:32:16.501Z</time></trkpt><trkpt lat="42.6366391" lon="12.9260132"><ele>989.5714285714287</ele><time>2026-05-01T13:32:17.512Z</time></trkpt><trkpt lat="42.6366979" lon="12.9259584"><ele>990.2857142857144</ele><time>2026-05-01T13:32:18.495Z</time></trkpt><trkpt lat="42.6367681" lon="12.925927"><ele>991.0000000000001</ele><time>2026-05-01T13:32:19.504Z</time></trkpt><trkpt lat="42.6368369" lon="12.9259179"><ele>990.9999999999999</ele><time>2026-05-01T13:32:20.501Z</time></trkpt><trkpt lat="42.6369023" lon="12.9259117"><ele>991.0</ele><time>2026-05-01T13:32:21.508Z</time></trkpt><trkpt lat="42.6369671" lon="12.9259056"><ele>991.0</ele><time>2026-05-01T13:32:22.497Z</time></trkpt><trkpt lat="42.6370299" lon="12.9258903"><ele>991.0</ele><time>2026-05-01T13:32:23.502Z</time></trkpt><trkpt lat="42.6371335" lon="12.9258406"><ele>990.9999999999999</ele><time>2026-05-01T13:32:25.505Z</time></trkpt><trkpt lat="42.6372214" lon="12.9257608"><ele>991.0</ele><time>2026-05-01T13:32:27.5Z</time></trkpt><trkpt lat="42.6373352" lon="12.9257263"><ele>987.3333333333333</ele><time>2026-05-01T13:32:29.498Z</time></trkpt><trkpt lat="42.6374629" lon="12.9257492"><ele>983.6666666666666</ele><time>2026-05-01T13:32:31.511Z</time></trkpt><trkpt lat="42.6375373" lon="12.9257639"><ele>980.0</ele><time>2026-05-01T13:32:32.51Z</time></trkpt><trkpt lat="42.6376104" lon="12.925773"><ele>976.3333333333333</ele><time>2026-05-01T13:32:33.509Z</time></trkpt><trkpt lat="42.6376861" lon="12.9257882"><ele>972.6666666666666</ele><time>2026-05-01T13:32:34.503Z</time></trkpt><trkpt lat="42.637764" lon="12.925809"><ele>969.0</ele><time>2026-05-01T13:32:35.502Z</time></trkpt><trkpt lat="42.6378458" lon="12.925839"><ele>967.0</ele><time>2026-05-01T13:32:36.501Z</time></trkpt><trkpt lat="42.6379221" lon="12.9258754"><ele>965.0</ele><time>2026-05-01T13:32:37.5Z</time></trkpt><trkpt lat="42.6379999" lon="12.925919"><ele>963.0</ele><time>2026-05-01T13:32:38.506Z</time></trkpt><trkpt lat="42.638074" lon="12.9259703"><ele>961.0</ele><time>2026-05-01T13:32:39.5Z</time></trkpt><trkpt lat="42.6381441" lon="12.9260161"><ele>959.0</ele><time>2026-05-01T13:32:40.506Z</time></trkpt><trkpt lat="42.6382056" lon="12.9260689"><ele>957.0</ele><time>2026-05-01T13:32:41.508Z</time></trkpt><trkpt lat="42.6382616" lon="12.9261227"><ele>957.0</ele><time>2026-05-01T13:32:42.507Z</time></trkpt><trkpt lat="42.6383062" lon="12.9261916"><ele>957.0000000000001</ele><time>2026-05-01T13:32:43.505Z</time></trkpt><trkpt lat="42.6383427" lon="12.9262681"><ele>957.0</ele><time>2026-05-01T13:32:44.507Z</time></trkpt><trkpt lat="42.6383776" lon="12.9263578"><ele>957.0</ele><time>2026-05-01T13:32:45.507Z</time></trkpt><trkpt lat="42.6384087" lon="12.9264518"><ele>957.0000000000001</ele><time>2026-05-01T13:32:46.503Z</time></trkpt><trkpt lat="42.6384399" lon="12.92655"><ele>957.0</ele><time>2026-05-01T13:32:47.508Z</time></trkpt><trkpt lat="42.6384801" lon="12.926642"><ele>957.0</ele><time>2026-05-01T13:32:48.501Z</time></trkpt><trkpt lat="42.6385359" lon="12.9267165"><ele>957.7142857142858</ele><time>2026-05-01T13:32:49.504Z</time></trkpt><trkpt lat="42.6385886" lon="12.9267806"><ele>958.4285714285716</ele><time>2026-05-01T13:32:50.502Z</time></trkpt><trkpt lat="42.6386425" lon="12.9268418"><ele>959.1428571428571</ele><time>2026-05-01T13:32:51.507Z</time></trkpt><trkpt lat="42.6386911" lon="12.9268972"><ele>959.8571428571429</ele><time>2026-05-01T13:32:52.502Z</time></trkpt><trkpt lat="42.6387369" lon="12.926966"><ele>960.5714285714286</ele><time>2026-05-01T13:32:53.503Z</time></trkpt><trkpt lat="42.6387804" lon="12.9270518"><ele>961.2857142857142</ele><time>2026-05-01T13:32:54.504Z</time></trkpt><trkpt lat="42.6388305" lon="12.927141"><ele>961.9999999999999</ele><time>2026-05-01T13:32:55.506Z</time></trkpt><trkpt lat="42.6388885" lon="12.9272243"><ele>958.3333333333334</ele><time>2026-05-01T13:32:56.504Z</time></trkpt><trkpt lat="42.6389558" lon="12.927298"><ele>954.6666666666667</ele><time>2026-05-01T13:32:57.503Z</time></trkpt><trkpt lat="42.6390173" lon="12.9273579"><ele>951.0</ele><time>2026-05-01T13:32:58.505Z</time></trkpt><trkpt lat="42.6390679" lon="12.9274166"><ele>947.3333333333333</ele><time>2026-05-01T13:32:59.521Z</time></trkpt><trkpt lat="42.6391247" lon="12.9275006"><ele>943.6666666666666</ele><time>2026-05-01T13:33:00.499Z</time></trkpt><trkpt lat="42.6391764" lon="12.9275937"><ele>940.0</ele><time>2026-05-01T13:33:01.501Z</time></trkpt><trkpt lat="42.6392395" lon="12.9276935"><ele>938.9999999999999</ele><time>2026-05-01T13:33:02.512Z</time></trkpt><trkpt lat="42.6393015" lon="12.9277954"><ele>938.0</ele><time>2026-05-01T13:33:03.504Z</time></trkpt><trkpt lat="42.6393659" lon="12.9278964"><ele>937.0</ele><time>2026-05-01T13:33:04.51Z</time></trkpt><trkpt lat="42.6394275" lon="12.9279885"><ele>936.0</ele><time>2026-05-01T13:33:05.507Z</time></trkpt><trkpt lat="42.6394778" lon="12.9280655"><ele>934.9999999999999</ele><time>2026-05-01T13:33:06.506Z</time></trkpt><trkpt lat="42.6395169" lon="12.928133"><ele>934.0</ele><time>2026-05-01T13:33:07.502Z</time></trkpt><trkpt lat="42.6395746" lon="12.9282608"><ele>930.0</ele><time>2026-05-01T13:33:09.512Z</time></trkpt><trkpt lat="42.6396284" lon="12.9284209"><ele>926.0</ele><time>2026-05-01T13:33:11.512Z</time></trkpt><trkpt lat="42.6396581" lon="12.9285839"><ele>922.0</ele><time>2026-05-01T13:33:13.502Z</time></trkpt><trkpt lat="42.6396579" lon="12.9287367"><ele>918.0</ele><time>2026-05-01T13:33:15.494Z</time></trkpt><trkpt lat="42.6396211" lon="12.9288574"><ele>918.0</ele><time>2026-05-01T13:33:17.515Z</time></trkpt><trkpt lat="42.6396229" lon="12.9289944"><ele>918.0</ele><time>2026-05-01T13:33:19.499Z</time></trkpt><trkpt lat="42.6396522" lon="12.9290761"><ele>918.0</ele><time>2026-05-01T13:33:20.503Z</time></trkpt><trkpt lat="42.6396947" lon="12.9291594"><ele>918.0</ele><time>2026-05-01T13:33:21.504Z</time></trkpt><trkpt lat="42.6397357" lon="12.9292404"><ele>918.0</ele><time>2026-05-01T13:33:22.502Z</time></trkpt><trkpt lat="42.6397665" lon="12.9293206"><ele>918.0</ele><time>2026-05-01T13:33:23.508Z</time></trkpt><trkpt lat="42.6397937" lon="12.9294032"><ele>918.0</ele><time>2026-05-01T13:33:24.506Z</time></trkpt><trkpt lat="42.6398131" lon="12.9295017"><ele>917.3333333333334</ele><time>2026-05-01T13:33:25.503Z</time></trkpt><trkpt lat="42.6398237" lon="12.9296086"><ele>916.6666666666667</ele><time>2026-05-01T13:33:26.503Z</time></trkpt><trkpt lat="42.6398268" lon="12.9297246"><ele>916.0</ele><time>2026-05-01T13:33:27.501Z</time></trkpt><trkpt lat="42.6398312" lon="12.9298468"><ele>915.3333333333334</ele><time>2026-05-01T13:33:28.499Z</time></trkpt><trkpt lat="42.6398377" lon="12.929976"><ele>914.6666666666667</ele><time>2026-05-01T13:33:29.508Z</time></trkpt><trkpt lat="42.639838" lon="12.9301063"><ele>914.0</ele><time>2026-05-01T13:33:30.502Z</time></trkpt><trkpt lat="42.6398379" lon="12.9302372"><ele>913.8000000000001</ele><time>2026-05-01T13:33:31.503Z</time></trkpt><trkpt lat="42.6398301" lon="12.930368"><ele>913.6000000000001</ele><time>2026-05-01T13:33:32.504Z</time></trkpt><trkpt lat="42.6398169" lon="12.9304915"><ele>913.4</ele><time>2026-05-01T13:33:33.508Z</time></trkpt><trkpt lat="42.6398085" lon="12.9306259"><ele>913.2</ele><time>2026-05-01T13:33:34.503Z</time></trkpt><trkpt lat="42.6398059" lon="12.9307629"><ele>913.0</ele><time>2026-05-01T13:33:35.503Z</time></trkpt><trkpt lat="42.6398165" lon="12.9309066"><ele>913.4</ele><time>2026-05-01T13:33:36.502Z</time></trkpt><trkpt lat="42.6398289" lon="12.9310527"><ele>913.8</ele><time>2026-05-01T13:33:37.51Z</time></trkpt><trkpt lat="42.6398356" lon="12.9311961"><ele>914.2</ele><time>2026-05-01T13:33:38.501Z</time></trkpt><trkpt lat="42.639838" lon="12.9313322"><ele>914.6</ele><time>2026-05-01T13:33:39.509Z</time></trkpt><trkpt lat="42.6398354" lon="12.9314535"><ele>915.0</ele><time>2026-05-01T13:33:40.501Z</time></trkpt><trkpt lat="42.6398251" lon="12.931564"><ele>915.0</ele><time>2026-05-01T13:33:41.499Z</time></trkpt><trkpt lat="42.6398167" lon="12.9316627"><ele>915.0000000000001</ele><time>2026-05-01T13:33:42.516Z</time></trkpt><trkpt lat="42.6398046" lon="12.9317578"><ele>915.0</ele><time>2026-05-01T13:33:43.498Z</time></trkpt><trkpt lat="42.6398019" lon="12.9318538"><ele>915.0</ele><time>2026-05-01T13:33:44.503Z</time></trkpt><trkpt lat="42.6398049" lon="12.9319518"><ele>915.0000000000001</ele><time>2026-05-01T13:33:45.509Z</time></trkpt><trkpt lat="42.6398045" lon="12.9320564"><ele>915.0</ele><time>2026-05-01T13:33:46.503Z</time></trkpt><trkpt lat="42.6398019" lon="12.9321556"><ele>915.0</ele><time>2026-05-01T13:33:47.5Z</time></trkpt><trkpt lat="42.6397926" lon="12.9322503"><ele>915.2</ele><time>2026-05-01T13:33:48.499Z</time></trkpt><trkpt lat="42.6397767" lon="12.9323424"><ele>915.4</ele><time>2026-05-01T13:33:49.506Z</time></trkpt><trkpt lat="42.6397542" lon="12.9324237"><ele>915.5999999999999</ele><time>2026-05-01T13:33:50.496Z</time></trkpt><trkpt lat="42.6397144" lon="12.932566"><ele>915.8</ele><time>2026-05-01T13:33:52.502Z</time></trkpt><trkpt lat="42.6396977" lon="12.932721"><ele>916.0</ele><time>2026-05-01T13:33:54.503Z</time></trkpt><trkpt lat="42.639685" lon="12.9328832"><ele>915.9999999999999</ele><time>2026-05-01T13:33:56.498Z</time></trkpt><trkpt lat="42.6396981" lon="12.9330069"><ele>916.0</ele><time>2026-05-01T13:33:58.525Z</time></trkpt><trkpt lat="42.6397249" lon="12.9330994"><ele>916.0</ele><time>2026-05-01T13:34:01.501Z</time></trkpt><trkpt lat="42.6396971" lon="12.9329752"><ele>916.0</ele><time>2026-05-01T13:34:26.506Z</time></trkpt><trkpt lat="42.6397291" lon="12.9329003"><ele>915.9999999999999</ele><time>2026-05-01T13:34:29.511Z</time></trkpt><trkpt lat="42.6397014" lon="12.9330169"><ele>916.0</ele><time>2026-05-01T13:36:27.503Z</time></trkpt><trkpt lat="42.639689" lon="12.9331757"><ele>915.9999999999999</ele><time>2026-05-01T13:36:29.503Z</time></trkpt><trkpt lat="42.6396821" lon="12.9332968"><ele>916.0</ele><time>2026-05-01T13:36:30.501Z</time></trkpt><trkpt lat="42.6396685" lon="12.9334184"><ele>916.0</ele><time>2026-05-01T13:36:31.512Z</time></trkpt><trkpt lat="42.6396568" lon="12.9335385"><ele>916.0</ele><time>2026-05-01T13:36:32.501Z</time></trkpt><trkpt lat="42.6396516" lon="12.9336532"><ele>915.9999999999999</ele><time>2026-05-01T13:36:33.5Z</time></trkpt><trkpt lat="42.6396597" lon="12.9337664"><ele>916.0</ele><time>2026-05-01T13:36:34.499Z</time></trkpt><trkpt lat="42.6396667" lon="12.9338859"><ele>915.9999999999999</ele><time>2026-05-01T13:36:35.504Z</time></trkpt><trkpt lat="42.6396726" lon="12.9340016"><ele>916.0</ele><time>2026-05-01T13:36:36.505Z</time></trkpt><trkpt lat="42.6396734" lon="12.9341083"><ele>916.0</ele><time>2026-05-01T13:36:37.497Z</time></trkpt><trkpt lat="42.6396793" lon="12.9342033"><ele>916.0</ele><time>2026-05-01T13:36:38.513Z</time></trkpt><trkpt lat="42.6396746" lon="12.9343213"><ele>915.9999999999999</ele><time>2026-05-01T13:36:40.504Z</time></trkpt><trkpt lat="42.6395806" lon="12.9343475"><ele>916.0</ele><time>2026-05-01T13:36:52.5Z</time></trkpt><trkpt lat="42.6394523" lon="12.9343555"><ele>915.3333333333333</ele><time>2026-05-01T13:36:54.5Z</time></trkpt><trkpt lat="42.6393707" lon="12.9343489"><ele>914.6666666666666</ele><time>2026-05-01T13:36:55.507Z</time></trkpt><trkpt lat="42.639282" lon="12.9343378"><ele>914.0</ele><time>2026-05-01T13:36:56.511Z</time></trkpt><trkpt lat="42.6391939" lon="12.9343129"><ele>913.3333333333333</ele><time>2026-05-01T13:36:57.506Z</time></trkpt><trkpt lat="42.6391097" lon="12.9342932"><ele>912.6666666666666</ele><time>2026-05-01T13:36:58.504Z</time></trkpt><trkpt lat="42.6390233" lon="12.9342835"><ele>912.0</ele><time>2026-05-01T13:36:59.504Z</time></trkpt><trkpt lat="42.6389364" lon="12.934314"><ele>912.0</ele><time>2026-05-01T13:37:00.501Z</time></trkpt><trkpt lat="42.6388532" lon="12.9343427"><ele>912.0</ele><time>2026-05-01T13:37:01.506Z</time></trkpt><trkpt lat="42.6387695" lon="12.934365"><ele>912.0</ele><time>2026-05-01T13:37:02.501Z</time></trkpt><trkpt lat="42.6386899" lon="12.934384"><ele>912.0</ele><time>2026-05-01T13:37:03.498Z</time></trkpt><trkpt lat="42.6386195" lon="12.934402"><ele>912.0</ele><time>2026-05-01T13:37:04.502Z</time></trkpt><trkpt lat="42.6385515" lon="12.9344137"><ele>912.0</ele><time>2026-05-01T13:37:05.501Z</time></trkpt><trkpt lat="42.6384883" lon="12.9344215"><ele>910.6666666666666</ele><time>2026-05-01T13:37:06.508Z</time></trkpt><trkpt lat="42.6383735" lon="12.9344418"><ele>909.3333333333333</ele><time>2026-05-01T13:37:08.501Z</time></trkpt><trkpt lat="42.6383111" lon="12.9344651"><ele>908.0</ele><time>2026-05-01T13:37:09.502Z</time></trkpt><trkpt lat="42.6382442" lon="12.9344964"><ele>906.6666666666666</ele><time>2026-05-01T13:37:10.503Z</time></trkpt><trkpt lat="42.6381743" lon="12.9345281"><ele>905.3333333333333</ele><time>2026-05-01T13:37:11.506Z</time></trkpt><trkpt lat="42.6380976" lon="12.9345545"><ele>904.0</ele><time>2026-05-01T13:37:12.506Z</time></trkpt><trkpt lat="42.6380162" lon="12.9345756"><ele>904.0</ele><time>2026-05-01T13:37:13.504Z</time></trkpt><trkpt lat="42.637941" lon="12.9345871"><ele>904.0000000000001</ele><time>2026-05-01T13:37:14.5Z</time></trkpt><trkpt lat="42.6378384" lon="12.9345597"><ele>904.0000000000001</ele><time>2026-05-01T13:37:16.495Z</time></trkpt><trkpt lat="42.6377614" lon="12.9345033"><ele>904.0</ele><time>2026-05-01T13:37:18.501Z</time></trkpt><trkpt lat="42.6376647" lon="12.9344729"><ele>904.0</ele><time>2026-05-01T13:37:20.504Z</time></trkpt><trkpt lat="42.6375472" lon="12.9344373"><ele>901.4000000000001</ele><time>2026-05-01T13:37:22.507Z</time></trkpt><trkpt lat="42.6374311" lon="12.9343732"><ele>898.8000000000001</ele><time>2026-05-01T13:37:24.5Z</time></trkpt><trkpt lat="42.6373391" lon="12.9343182"><ele>896.1999999999999</ele><time>2026-05-01T13:37:26.498Z</time></trkpt><trkpt lat="42.6372718" lon="12.9343218"><ele>893.5999999999999</ele><time>2026-05-01T13:37:28.5Z</time></trkpt><trkpt lat="42.6371785" lon="12.9343889"><ele>891.0</ele><time>2026-05-01T13:37:30.504Z</time></trkpt><trkpt lat="42.6370741" lon="12.9344939"><ele>891.0</ele><time>2026-05-01T13:37:32.499Z</time></trkpt><trkpt lat="42.6370287" lon="12.9345739"><ele>891.0</ele><time>2026-05-01T13:37:33.502Z</time></trkpt><trkpt lat="42.6369897" lon="12.9346618"><ele>891.0</ele><time>2026-05-01T13:37:34.502Z</time></trkpt><trkpt lat="42.6369417" lon="12.9347538"><ele>891.0</ele><time>2026-05-01T13:37:35.507Z</time></trkpt><trkpt lat="42.6368831" lon="12.9348484"><ele>891.0</ele><time>2026-05-01T13:37:36.504Z</time></trkpt><trkpt lat="42.6368203" lon="12.9349393"><ele>891.0</ele><time>2026-05-01T13:37:37.504Z</time></trkpt><trkpt lat="42.6367479" lon="12.9350257"><ele>889.5</ele><time>2026-05-01T13:37:38.493Z</time></trkpt><trkpt lat="42.6366682" lon="12.9350927"><ele>888.0</ele><time>2026-05-01T13:37:39.506Z</time></trkpt><trkpt lat="42.6365818" lon="12.9351416"><ele>886.5</ele><time>2026-05-01T13:37:40.501Z</time></trkpt><trkpt lat="42.6365018" lon="12.9351898"><ele>885.0</ele><time>2026-05-01T13:37:41.501Z</time></trkpt><trkpt lat="42.6364292" lon="12.9352258"><ele>883.5</ele><time>2026-05-01T13:37:42.505Z</time></trkpt><trkpt lat="42.6363523" lon="12.9352605"><ele>882.0</ele><time>2026-05-01T13:37:43.512Z</time></trkpt><trkpt lat="42.6362748" lon="12.9352939"><ele>882.0</ele><time>2026-05-01T13:37:44.505Z</time></trkpt><trkpt lat="42.6361952" lon="12.9353166"><ele>882.0</ele><time>2026-05-01T13:37:45.506Z</time></trkpt><trkpt lat="42.6361164" lon="12.9353166"><ele>882.0</ele><time>2026-05-01T13:37:46.502Z</time></trkpt><trkpt lat="42.6360367" lon="12.9353045"><ele>882.0</ele><time>2026-05-01T13:37:47.508Z</time></trkpt><trkpt lat="42.6359599" lon="12.9352851"><ele>882.0</ele><time>2026-05-01T13:37:48.498Z</time></trkpt><trkpt lat="42.6358935" lon="12.9352749"><ele>882.0</ele><time>2026-05-01T13:37:49.499Z</time></trkpt><trkpt lat="42.6358362" lon="12.9353236"><ele>882.4000000000001</ele><time>2026-05-01T13:37:50.5Z</time></trkpt><trkpt lat="42.6357807" lon="12.9354234"><ele>882.8000000000001</ele><time>2026-05-01T13:37:51.502Z</time></trkpt><trkpt lat="42.6357209" lon="12.935538"><ele>883.2</ele><time>2026-05-01T13:37:52.5Z</time></trkpt><trkpt lat="42.635653" lon="12.9356455"><ele>883.6</ele><time>2026-05-01T13:37:53.502Z</time></trkpt><trkpt lat="42.6355921" lon="12.9357383"><ele>884.0</ele><time>2026-05-01T13:37:54.503Z</time></trkpt><trkpt lat="42.6355389" lon="12.9358168"><ele>884.0</ele><time>2026-05-01T13:37:55.505Z</time></trkpt><trkpt lat="42.635486" lon="12.9358678"><ele>884.0000000000001</ele><time>2026-05-01T13:37:56.498Z</time></trkpt><trkpt lat="42.6353922" lon="12.9359276"><ele>884.0000000000001</ele><time>2026-05-01T13:37:58.502Z</time></trkpt><trkpt lat="42.6352691" lon="12.9359717"><ele>884.0</ele><time>2026-05-01T13:38:00.502Z</time></trkpt><trkpt lat="42.6351927" lon="12.9359916"><ele>884.0</ele><time>2026-05-01T13:38:01.495Z</time></trkpt><trkpt lat="42.6351119" lon="12.936012"><ele>883.5000000000001</ele><time>2026-05-01T13:38:02.505Z</time></trkpt><trkpt lat="42.6350346" lon="12.9360285"><ele>883.0</ele><time>2026-05-01T13:38:03.507Z</time></trkpt><trkpt lat="42.6349543" lon="12.9360401"><ele>882.5</ele><time>2026-05-01T13:38:04.51Z</time></trkpt><trkpt lat="42.6348696" lon="12.9360395"><ele>882.0</ele><time>2026-05-01T13:38:05.503Z</time></trkpt><trkpt lat="42.6347804" lon="12.9360272"><ele>881.5000000000001</ele><time>2026-05-01T13:38:06.5Z</time></trkpt><trkpt lat="42.6346853" lon="12.9360073"><ele>881.0</ele><time>2026-05-01T13:38:07.506Z</time></trkpt><trkpt lat="42.6345872" lon="12.9359836"><ele>881.0</ele><time>2026-05-01T13:38:08.509Z</time></trkpt><trkpt lat="42.6344874" lon="12.9359544"><ele>880.9999999999999</ele><time>2026-05-01T13:38:09.512Z</time></trkpt><trkpt lat="42.6343895" lon="12.9359307"><ele>880.9999999999999</ele><time>2026-05-01T13:38:10.508Z</time></trkpt><trkpt lat="42.6342945" lon="12.935917"><ele>881.0</ele><time>2026-05-01T13:38:11.503Z</time></trkpt><trkpt lat="42.6341974" lon="12.935919"><ele>881.0</ele><time>2026-05-01T13:38:12.5Z</time></trkpt><trkpt lat="42.6340995" lon="12.9359184"><ele>881.0000000000001</ele><time>2026-05-01T13:38:13.504Z</time></trkpt><trkpt lat="42.6340078" lon="12.9359054"><ele>881.0</ele><time>2026-05-01T13:38:14.501Z</time></trkpt><trkpt lat="42.633931" lon="12.9358799"><ele>881.0</ele><time>2026-05-01T13:38:15.518Z</time></trkpt><trkpt lat="42.6338626" lon="12.9358488"><ele>881.0</ele><time>2026-05-01T13:38:16.499Z</time></trkpt><trkpt lat="42.6337819" lon="12.9358098"><ele>881.0000000000001</ele><time>2026-05-01T13:38:17.498Z</time></trkpt><trkpt lat="42.6336974" lon="12.9357625"><ele>881.0</ele><time>2026-05-01T13:38:18.499Z</time></trkpt><trkpt lat="42.633609" lon="12.9357192"><ele>881.0</ele><time>2026-05-01T13:38:19.498Z</time></trkpt><trkpt lat="42.6335194" lon="12.9356717"><ele>880.9999999999999</ele><time>2026-05-01T13:38:20.5Z</time></trkpt><trkpt lat="42.6334312" lon="12.9356157"><ele>880.9999999999999</ele><time>2026-05-01T13:38:21.507Z</time></trkpt><trkpt lat="42.63334" lon="12.9355459"><ele>881.0</ele><time>2026-05-01T13:38:22.506Z</time></trkpt><trkpt lat="42.6332557" lon="12.935465"><ele>881.0</ele><time>2026-05-01T13:38:23.511Z</time></trkpt><trkpt lat="42.6331836" lon="12.9353747"><ele>881.0</ele><time>2026-05-01T13:38:24.501Z</time></trkpt><trkpt lat="42.6331191" lon="12.9352736"><ele>880.9999999999999</ele><time>2026-05-01T13:38:25.494Z</time></trkpt><trkpt lat="42.6330529" lon="12.9351655"><ele>880.9999999999999</ele><time>2026-05-01T13:38:26.515Z</time></trkpt><trkpt lat="42.6329855" lon="12.9350632"><ele>881.0</ele><time>2026-05-01T13:38:27.498Z</time></trkpt><trkpt lat="42.6329132" lon="12.9349736"><ele>881.0</ele><time>2026-05-01T13:38:28.51Z</time></trkpt><trkpt lat="42.632833" lon="12.9348959"><ele>882.8</ele><time>2026-05-01T13:38:29.511Z</time></trkpt><trkpt lat="42.6327368" lon="12.9348185"><ele>884.5999999999999</ele><time>2026-05-01T13:38:30.495Z</time></trkpt><trkpt lat="42.6326436" lon="12.9347465"><ele>886.4</ele><time>2026-05-01T13:38:31.502Z</time></trkpt><trkpt lat="42.632561" lon="12.9346882"><ele>888.2</ele><time>2026-05-01T13:38:32.501Z</time></trkpt><trkpt lat="42.6324868" lon="12.9346273"><ele>890.0</ele><time>2026-05-01T13:38:33.495Z</time></trkpt><trkpt lat="42.6324206" lon="12.934553"><ele>890.0</ele><time>2026-05-01T13:38:34.506Z</time></trkpt><trkpt lat="42.6323516" lon="12.9344547"><ele>890.0</ele><time>2026-05-01T13:38:35.498Z</time></trkpt><trkpt lat="42.6322827" lon="12.9343466"><ele>890.0</ele><time>2026-05-01T13:38:36.506Z</time></trkpt><trkpt lat="42.6322195" lon="12.9342236"><ele>890.0</ele><time>2026-05-01T13:38:37.5Z</time></trkpt><trkpt lat="42.6321532" lon="12.9341"><ele>890.0</ele><time>2026-05-01T13:38:38.505Z</time></trkpt><trkpt lat="42.6320811" lon="12.933978"><ele>892.2</ele><time>2026-05-01T13:38:39.503Z</time></trkpt><trkpt lat="42.6320255" lon="12.933858"><ele>894.4</ele><time>2026-05-01T13:38:40.504Z</time></trkpt><trkpt lat="42.6319669" lon="12.9337832"><ele>896.5999999999999</ele><time>2026-05-01T13:38:42.502Z</time></trkpt><trkpt lat="42.6318973" lon="12.9338491"><ele>898.8</ele><time>2026-05-01T13:38:46.504Z</time></trkpt><trkpt lat="42.631846" lon="12.9339892"><ele>901.0</ele><time>2026-05-01T13:38:48.497Z</time></trkpt><trkpt lat="42.6318168" lon="12.9340882"><ele>901.0</ele><time>2026-05-01T13:38:49.511Z</time></trkpt><trkpt lat="42.6317793" lon="12.9341846"><ele>901.0000000000001</ele><time>2026-05-01T13:38:50.506Z</time></trkpt><trkpt lat="42.6317462" lon="12.9342762"><ele>901.0</ele><time>2026-05-01T13:38:51.51Z</time></trkpt><trkpt lat="42.6317128" lon="12.9343635"><ele>901.0</ele><time>2026-05-01T13:38:52.502Z</time></trkpt><trkpt lat="42.631669" lon="12.9344454"><ele>901.0000000000001</ele><time>2026-05-01T13:38:53.496Z</time></trkpt><trkpt lat="42.6316193" lon="12.9345179"><ele>901.0</ele><time>2026-05-01T13:38:54.5Z</time></trkpt><trkpt lat="42.6315608" lon="12.9345757"><ele>901.0</ele><time>2026-05-01T13:38:55.495Z</time></trkpt><trkpt lat="42.6314892" lon="12.9346071"><ele>900.4</ele><time>2026-05-01T13:38:56.494Z</time></trkpt><trkpt lat="42.6314044" lon="12.9346189"><ele>899.8</ele><time>2026-05-01T13:38:57.496Z</time></trkpt><trkpt lat="42.6313041" lon="12.9346078"><ele>899.1999999999999</ele><time>2026-05-01T13:38:58.51Z</time></trkpt><trkpt lat="42.6311919" lon="12.9345902"><ele>898.5999999999999</ele><time>2026-05-01T13:38:59.501Z</time></trkpt><trkpt lat="42.6310719" lon="12.9345758"><ele>898.0</ele><time>2026-05-01T13:39:00.499Z</time></trkpt><trkpt lat="42.6309507" lon="12.9345738"><ele>898.0</ele><time>2026-05-01T13:39:01.497Z</time></trkpt><trkpt lat="42.6308285" lon="12.9345904"><ele>898.0</ele><time>2026-05-01T13:39:02.506Z</time></trkpt><trkpt lat="42.6307099" lon="12.9346075"><ele>898.0</ele><time>2026-05-01T13:39:03.512Z</time></trkpt><trkpt lat="42.6305891" lon="12.9346107"><ele>898.0</ele><time>2026-05-01T13:39:04.501Z</time></trkpt><trkpt lat="42.6304735" lon="12.934601"><ele>898.0</ele><time>2026-05-01T13:39:05.508Z</time></trkpt><trkpt lat="42.6303544" lon="12.9345874"><ele>898.0</ele><time>2026-05-01T13:39:06.504Z</time></trkpt><trkpt lat="42.6302352" lon="12.9345704"><ele>898.0</ele><time>2026-05-01T13:39:07.507Z</time></trkpt><trkpt lat="42.6301217" lon="12.9345542"><ele>898.0</ele><time>2026-05-01T13:39:08.498Z</time></trkpt><trkpt lat="42.6300189" lon="12.9345421"><ele>898.4</ele><time>2026-05-01T13:39:09.497Z</time></trkpt><trkpt lat="42.6299165" lon="12.9345369"><ele>898.8</ele><time>2026-05-01T13:39:10.495Z</time></trkpt><trkpt lat="42.6298135" lon="12.9345301"><ele>899.2</ele><time>2026-05-01T13:39:11.506Z</time></trkpt><trkpt lat="42.6297063" lon="12.9345152"><ele>899.6</ele><time>2026-05-01T13:39:12.499Z</time></trkpt><trkpt lat="42.6295951" lon="12.9344846"><ele>900.0</ele><time>2026-05-01T13:39:13.503Z</time></trkpt><trkpt lat="42.6294828" lon="12.9344497"><ele>902.2</ele><time>2026-05-01T13:39:14.503Z</time></trkpt><trkpt lat="42.6293774" lon="12.9344106"><ele>904.4</ele><time>2026-05-01T13:39:15.498Z</time></trkpt><trkpt lat="42.6292808" lon="12.9343621"><ele>906.5999999999999</ele><time>2026-05-01T13:39:16.508Z</time></trkpt><trkpt lat="42.629195" lon="12.9343223"><ele>908.8</ele><time>2026-05-01T13:39:17.497Z</time></trkpt><trkpt lat="42.6291135" lon="12.9343012"><ele>911.0</ele><time>2026-05-01T13:39:18.501Z</time></trkpt><trkpt lat="42.6290378" lon="12.9342874"><ele>911.0000000000001</ele><time>2026-05-01T13:39:19.509Z</time></trkpt><trkpt lat="42.628922" lon="12.9342724"><ele>911.0</ele><time>2026-05-01T13:39:21.501Z</time></trkpt><trkpt lat="42.6288484" lon="12.934238"><ele>911.0</ele><time>2026-05-01T13:39:22.497Z</time></trkpt><trkpt lat="42.6287689" lon="12.9342022"><ele>911.0</ele><time>2026-05-01T13:39:23.502Z</time></trkpt><trkpt lat="42.6286865" lon="12.9341846"><ele>911.0000000000001</ele><time>2026-05-01T13:39:24.497Z</time></trkpt><trkpt lat="42.628603" lon="12.9341688"><ele>911.0</ele><time>2026-05-01T13:39:25.502Z</time></trkpt><trkpt lat="42.6285217" lon="12.9341623"><ele>911.1666666666667</ele><time>2026-05-01T13:39:26.517Z</time></trkpt><trkpt lat="42.6284393" lon="12.9341602"><ele>911.3333333333334</ele><time>2026-05-01T13:39:27.499Z</time></trkpt><trkpt lat="42.6283617" lon="12.9341676"><ele>911.5</ele><time>2026-05-01T13:39:28.501Z</time></trkpt><trkpt lat="42.6282862" lon="12.93417"><ele>911.6666666666667</ele><time>2026-05-01T13:39:29.491Z</time></trkpt><trkpt lat="42.6282119" lon="12.9341583"><ele>911.8333333333334</ele><time>2026-05-01T13:39:30.503Z</time></trkpt><trkpt lat="42.6281496" lon="12.9341403"><ele>912.0</ele><time>2026-05-01T13:39:31.515Z</time></trkpt><trkpt lat="42.6280573" lon="12.9341129"><ele>912.0</ele><time>2026-05-01T13:39:33.494Z</time></trkpt><trkpt lat="42.6279978" lon="12.9340747"><ele>912.0</ele><time>2026-05-01T13:39:35.499Z</time></trkpt><trkpt lat="42.6279359" lon="12.9339657"><ele>912.0</ele><time>2026-05-01T13:39:37.497Z</time></trkpt><trkpt lat="42.627889" lon="12.9338922"><ele>912.0</ele><time>2026-05-01T13:39:38.506Z</time></trkpt><trkpt lat="42.6278305" lon="12.9338134"><ele>912.0</ele><time>2026-05-01T13:39:39.501Z</time></trkpt><trkpt lat="42.6277585" lon="12.9337378"><ele>912.0</ele><time>2026-05-01T13:39:40.498Z</time></trkpt><trkpt lat="42.6276761" lon="12.9336689"><ele>909.6666666666666</ele><time>2026-05-01T13:39:41.513Z</time></trkpt><trkpt lat="42.6275965" lon="12.9336095"><ele>907.3333333333333</ele><time>2026-05-01T13:39:42.501Z</time></trkpt><trkpt lat="42.6275155" lon="12.9335573"><ele>905.0</ele><time>2026-05-01T13:39:43.499Z</time></trkpt><trkpt lat="42.6274363" lon="12.9335169"><ele>902.6666666666666</ele><time>2026-05-01T13:39:44.505Z</time></trkpt><trkpt lat="42.6273569" lon="12.9334799"><ele>900.3333333333333</ele><time>2026-05-01T13:39:45.495Z</time></trkpt><trkpt lat="42.6272779" lon="12.9334412"><ele>898.0</ele><time>2026-05-01T13:39:46.516Z</time></trkpt><trkpt lat="42.6272024" lon="12.933402"><ele>897.1666666666666</ele><time>2026-05-01T13:39:47.505Z</time></trkpt><trkpt lat="42.6271266" lon="12.9333677"><ele>896.3333333333333</ele><time>2026-05-01T13:39:48.494Z</time></trkpt><trkpt lat="42.6270502" lon="12.9333364"><ele>895.5</ele><time>2026-05-01T13:39:49.506Z</time></trkpt><trkpt lat="42.626971" lon="12.9333028"><ele>894.6666666666667</ele><time>2026-05-01T13:39:50.505Z</time></trkpt><trkpt lat="42.6268883" lon="12.9332822"><ele>893.8333333333334</ele><time>2026-05-01T13:39:51.497Z</time></trkpt><trkpt lat="42.6268117" lon="12.9332715"><ele>893.0</ele><time>2026-05-01T13:39:52.513Z</time></trkpt><trkpt lat="42.6267401" lon="12.9332647"><ele>893.0000000000001</ele><time>2026-05-01T13:39:53.517Z</time></trkpt><trkpt lat="42.6266662" lon="12.9332718"><ele>893.0</ele><time>2026-05-01T13:39:54.508Z</time></trkpt><trkpt lat="42.6265929" lon="12.9332704"><ele>893.0</ele><time>2026-05-01T13:39:55.5Z</time></trkpt><trkpt lat="42.6265223" lon="12.9332521"><ele>893.0</ele><time>2026-05-01T13:39:56.496Z</time></trkpt><trkpt lat="42.6264472" lon="12.9332082"><ele>893.0000000000001</ele><time>2026-05-01T13:39:57.506Z</time></trkpt><trkpt lat="42.6263636" lon="12.9331703"><ele>893.0</ele><time>2026-05-01T13:39:58.495Z</time></trkpt><trkpt lat="42.6262838" lon="12.9331375"><ele>893.0</ele><time>2026-05-01T13:39:59.503Z</time></trkpt><trkpt lat="42.6262068" lon="12.933109"><ele>893.0</ele><time>2026-05-01T13:40:00.498Z</time></trkpt><trkpt lat="42.6261203" lon="12.9330792"><ele>893.0</ele><time>2026-05-01T13:40:01.495Z</time></trkpt><trkpt lat="42.6260296" lon="12.9330434"><ele>893.0</ele><time>2026-05-01T13:40:02.5Z</time></trkpt><trkpt lat="42.6259334" lon="12.932999"><ele>893.0</ele><time>2026-05-01T13:40:03.505Z</time></trkpt><trkpt lat="42.6258351" lon="12.9329473"><ele>891.5000000000001</ele><time>2026-05-01T13:40:04.51Z</time></trkpt><trkpt lat="42.6257427" lon="12.9328997"><ele>890.0</ele><time>2026-05-01T13:40:05.503Z</time></trkpt><trkpt lat="42.6256504" lon="12.9328718"><ele>888.5</ele><time>2026-05-01T13:40:06.501Z</time></trkpt><trkpt lat="42.625564" lon="12.932867"><ele>887.0</ele><time>2026-05-01T13:40:07.498Z</time></trkpt><trkpt lat="42.6254892" lon="12.9328727"><ele>885.5000000000001</ele><time>2026-05-01T13:40:08.505Z</time></trkpt><trkpt lat="42.6254201" lon="12.9328753"><ele>884.0</ele><time>2026-05-01T13:40:09.503Z</time></trkpt><trkpt lat="42.6253564" lon="12.9328634"><ele>884.8000000000001</ele><time>2026-05-01T13:40:10.509Z</time></trkpt><trkpt lat="42.6252565" lon="12.9328092"><ele>885.6000000000001</ele><time>2026-05-01T13:40:12.502Z</time></trkpt><trkpt lat="42.6252017" lon="12.9327287"><ele>886.4</ele><time>2026-05-01T13:40:14.507Z</time></trkpt><trkpt lat="42.6251481" lon="12.9326742"><ele>887.2</ele><time>2026-05-01T13:40:23.495Z</time></trkpt><trkpt lat="42.6250815" lon="12.9326195"><ele>888.0</ele><time>2026-05-01T13:40:25.502Z</time></trkpt><trkpt lat="42.6249718" lon="12.9325507"><ele>888.0</ele><time>2026-05-01T13:40:27.503Z</time></trkpt><trkpt lat="42.6249097" lon="12.9325082"><ele>888.0</ele><time>2026-05-01T13:40:28.502Z</time></trkpt><trkpt lat="42.6248406" lon="12.9324576"><ele>888.0</ele><time>2026-05-01T13:40:29.501Z</time></trkpt><trkpt lat="42.6247693" lon="12.9324053"><ele>888.0</ele><time>2026-05-01T13:40:30.5Z</time></trkpt><trkpt lat="42.6247016" lon="12.932341"><ele>888.0</ele><time>2026-05-01T13:40:31.495Z</time></trkpt><trkpt lat="42.6246249" lon="12.9322784"><ele>888.0</ele><time>2026-05-01T13:40:32.505Z</time></trkpt><trkpt lat="42.6245504" lon="12.9322117"><ele>888.0</ele><time>2026-05-01T13:40:33.502Z</time></trkpt><trkpt lat="42.6244877" lon="12.9321427"><ele>888.0</ele><time>2026-05-01T13:40:34.497Z</time></trkpt><trkpt lat="42.624433" lon="12.9320774"><ele>888.0</ele><time>2026-05-01T13:40:35.508Z</time></trkpt><trkpt lat="42.6243851" lon="12.9320214"><ele>888.0</ele><time>2026-05-01T13:40:36.497Z</time></trkpt><trkpt lat="42.6242784" lon="12.9319303"><ele>888.0</ele><time>2026-05-01T13:40:38.512Z</time></trkpt><trkpt lat="42.6242064" lon="12.9318831"><ele>888.0</ele><time>2026-05-01T13:40:39.5Z</time></trkpt><trkpt lat="42.6241282" lon="12.9318381"><ele>887.1666666666666</ele><time>2026-05-01T13:40:40.506Z</time></trkpt><trkpt lat="42.6240475" lon="12.9317961"><ele>886.3333333333333</ele><time>2026-05-01T13:40:41.503Z</time></trkpt><trkpt lat="42.6239718" lon="12.9317555"><ele>885.5</ele><time>2026-05-01T13:40:42.504Z</time></trkpt><trkpt lat="42.623901" lon="12.9317104"><ele>884.6666666666666</ele><time>2026-05-01T13:40:43.501Z</time></trkpt><trkpt lat="42.623831" lon="12.931658"><ele>883.8333333333333</ele><time>2026-05-01T13:40:44.502Z</time></trkpt><trkpt lat="42.6237709" lon="12.9315985"><ele>883.0</ele><time>2026-05-01T13:40:45.508Z</time></trkpt><trkpt lat="42.623722" lon="12.931521"><ele>883.0</ele><time>2026-05-01T13:40:46.5Z</time></trkpt><trkpt lat="42.6236848" lon="12.931432"><ele>883.0</ele><time>2026-05-01T13:40:47.496Z</time></trkpt><trkpt lat="42.623658" lon="12.931336"><ele>883.0</ele><time>2026-05-01T13:40:48.499Z</time></trkpt><trkpt lat="42.6236399" lon="12.9312376"><ele>883.0</ele><time>2026-05-01T13:40:49.507Z</time></trkpt><trkpt lat="42.623627" lon="12.9311404"><ele>883.0</ele><time>2026-05-01T13:40:50.503Z</time></trkpt><trkpt lat="42.6236127" lon="12.9310498"><ele>883.0</ele><time>2026-05-01T13:40:51.5Z</time></trkpt><trkpt lat="42.6235837" lon="12.9309682"><ele>883.0</ele><time>2026-05-01T13:40:52.509Z</time></trkpt><trkpt lat="42.6235405" lon="12.9308997"><ele>882.2</ele><time>2026-05-01T13:40:53.499Z</time></trkpt><trkpt lat="42.6234815" lon="12.9308423"><ele>881.4</ele><time>2026-05-01T13:40:54.496Z</time></trkpt><trkpt lat="42.6234084" lon="12.9307875"><ele>880.6000000000001</ele><time>2026-05-01T13:40:55.495Z</time></trkpt><trkpt lat="42.6233167" lon="12.9307311"><ele>879.8000000000001</ele><time>2026-05-01T13:40:56.5Z</time></trkpt><trkpt lat="42.6232185" lon="12.9306734"><ele>879.0</ele><time>2026-05-01T13:40:57.505Z</time></trkpt><trkpt lat="42.6231171" lon="12.9306167"><ele>879.0</ele><time>2026-05-01T13:40:58.508Z</time></trkpt><trkpt lat="42.6230151" lon="12.9305583"><ele>879.0000000000001</ele><time>2026-05-01T13:40:59.496Z</time></trkpt><trkpt lat="42.6229173" lon="12.9304931"><ele>879.0000000000001</ele><time>2026-05-01T13:41:00.499Z</time></trkpt><trkpt lat="42.622831" lon="12.9304281"><ele>879.0</ele><time>2026-05-01T13:41:01.505Z</time></trkpt><trkpt lat="42.6227547" lon="12.9303636"><ele>879.0</ele><time>2026-05-01T13:41:02.499Z</time></trkpt><trkpt lat="42.6226782" lon="12.9302917"><ele>880.0</ele><time>2026-05-01T13:41:03.494Z</time></trkpt><trkpt lat="42.6225985" lon="12.9302164"><ele>881.0000000000001</ele><time>2026-05-01T13:41:04.505Z</time></trkpt><trkpt lat="42.622516" lon="12.9301396"><ele>882.0000000000001</ele><time>2026-05-01T13:41:05.498Z</time></trkpt><trkpt lat="42.6224282" lon="12.9300613"><ele>883.0</ele><time>2026-05-01T13:41:06.505Z</time></trkpt><trkpt lat="42.6223413" lon="12.929986"><ele>884.0</ele><time>2026-05-01T13:41:07.497Z</time></trkpt><trkpt lat="42.6222551" lon="12.9299151"><ele>884.0</ele><time>2026-05-01T13:41:08.495Z</time></trkpt><trkpt lat="42.62217" lon="12.9298447"><ele>884.0000000000001</ele><time>2026-05-01T13:41:09.506Z</time></trkpt><trkpt lat="42.6220862" lon="12.9297726"><ele>884.0000000000001</ele><time>2026-05-01T13:41:10.498Z</time></trkpt><trkpt lat="42.6219999" lon="12.9296963"><ele>884.0</ele><time>2026-05-01T13:41:11.496Z</time></trkpt><trkpt lat="42.6219191" lon="12.9296183"><ele>884.0</ele><time>2026-05-01T13:41:12.497Z</time></trkpt><trkpt lat="42.6218412" lon="12.9295411"><ele>882.0000000000001</ele><time>2026-05-01T13:41:13.501Z</time></trkpt><trkpt lat="42.6217725" lon="12.9294742"><ele>880.0</ele><time>2026-05-01T13:41:14.508Z</time></trkpt><trkpt lat="42.6217129" lon="12.9294186"><ele>878.0</ele><time>2026-05-01T13:41:15.5Z</time></trkpt><trkpt lat="42.6216504" lon="12.9293757"><ele>876.0</ele><time>2026-05-01T13:41:17.501Z</time></trkpt><trkpt lat="42.6216033" lon="12.9294567"><ele>874.0000000000001</ele><time>2026-05-01T13:41:20.499Z</time></trkpt><trkpt lat="42.6215832" lon="12.9295864"><ele>872.0</ele><time>2026-05-01T13:41:22.497Z</time></trkpt><trkpt lat="42.6215769" lon="12.9297568"><ele>872.0</ele><time>2026-05-01T13:41:24.506Z</time></trkpt><trkpt lat="42.6215829" lon="12.9298514"><ele>872.0</ele><time>2026-05-01T13:41:25.492Z</time></trkpt><trkpt lat="42.6215903" lon="12.9299492"><ele>872.0</ele><time>2026-05-01T13:41:26.492Z</time></trkpt><trkpt lat="42.6215986" lon="12.9300467"><ele>872.0</ele><time>2026-05-01T13:41:27.506Z</time></trkpt><trkpt lat="42.6216042" lon="12.930146"><ele>872.0</ele><time>2026-05-01T13:41:28.509Z</time></trkpt><trkpt lat="42.6216107" lon="12.9302413"><ele>872.0</ele><time>2026-05-01T13:41:29.502Z</time></trkpt><trkpt lat="42.6216115" lon="12.9303381"><ele>872.0</ele><time>2026-05-01T13:41:30.499Z</time></trkpt><trkpt lat="42.6216099" lon="12.9304438"><ele>871.3333333333334</ele><time>2026-05-01T13:41:31.495Z</time></trkpt><trkpt lat="42.6216058" lon="12.9305573"><ele>870.6666666666667</ele><time>2026-05-01T13:41:32.499Z</time></trkpt><trkpt lat="42.6216015" lon="12.9306657"><ele>870.0</ele><time>2026-05-01T13:41:33.51Z</time></trkpt><trkpt lat="42.6216036" lon="12.9307719"><ele>869.3333333333333</ele><time>2026-05-01T13:41:34.495Z</time></trkpt><trkpt lat="42.6216177" lon="12.9308759"><ele>868.6666666666666</ele><time>2026-05-01T13:41:35.501Z</time></trkpt><trkpt lat="42.6216474" lon="12.9309717"><ele>868.0</ele><time>2026-05-01T13:41:36.508Z</time></trkpt><trkpt lat="42.6216844" lon="12.9310563"><ele>866.3333333333333</ele><time>2026-05-01T13:41:37.494Z</time></trkpt><trkpt lat="42.6217198" lon="12.9311533"><ele>864.6666666666666</ele><time>2026-05-01T13:41:38.501Z</time></trkpt><trkpt lat="42.6217515" lon="12.931258"><ele>863.0</ele><time>2026-05-01T13:41:39.497Z</time></trkpt><trkpt lat="42.6217898" lon="12.9313666"><ele>861.3333333333333</ele><time>2026-05-01T13:41:40.496Z</time></trkpt><trkpt lat="42.6218366" lon="12.9314818"><ele>859.6666666666666</ele><time>2026-05-01T13:41:41.508Z</time></trkpt><trkpt lat="42.6218838" lon="12.9316006"><ele>858.0</ele><time>2026-05-01T13:41:42.503Z</time></trkpt><trkpt lat="42.6219298" lon="12.9317232"><ele>858.8</ele><time>2026-05-01T13:41:43.5Z</time></trkpt><trkpt lat="42.6219726" lon="12.9318464"><ele>859.5999999999999</ele><time>2026-05-01T13:41:44.495Z</time></trkpt><trkpt lat="42.6220125" lon="12.9319646"><ele>860.4000000000001</ele><time>2026-05-01T13:41:45.494Z</time></trkpt><trkpt lat="42.6220496" lon="12.9320747"><ele>861.2</ele><time>2026-05-01T13:41:46.499Z</time></trkpt><trkpt lat="42.6220832" lon="12.9321818"><ele>862.0</ele><time>2026-05-01T13:41:47.492Z</time></trkpt><trkpt lat="42.6221133" lon="12.9322962"><ele>861.9999999999999</ele><time>2026-05-01T13:41:48.5Z</time></trkpt><trkpt lat="42.6221395" lon="12.9324109"><ele>862.0</ele><time>2026-05-01T13:41:49.5Z</time></trkpt><trkpt lat="42.6221635" lon="12.9325255"><ele>862.0</ele><time>2026-05-01T13:41:50.498Z</time></trkpt><trkpt lat="42.6221809" lon="12.9326421"><ele>862.0</ele><time>2026-05-01T13:41:51.508Z</time></trkpt><trkpt lat="42.6222018" lon="12.9327583"><ele>861.9999999999999</ele><time>2026-05-01T13:41:52.493Z</time></trkpt><trkpt lat="42.6222366" lon="12.9328752"><ele>862.0</ele><time>2026-05-01T13:41:53.501Z</time></trkpt><trkpt lat="42.622278" lon="12.9329798"><ele>861.3333333333333</ele><time>2026-05-01T13:41:54.505Z</time></trkpt><trkpt lat="42.6223253" lon="12.933078"><ele>860.6666666666666</ele><time>2026-05-01T13:41:55.503Z</time></trkpt><trkpt lat="42.6223784" lon="12.933156"><ele>860.0</ele><time>2026-05-01T13:41:56.497Z</time></trkpt><trkpt lat="42.6224271" lon="12.9332232"><ele>859.3333333333333</ele><time>2026-05-01T13:41:57.496Z</time></trkpt><trkpt lat="42.6224651" lon="12.9333266"><ele>858.6666666666666</ele><time>2026-05-01T13:41:59.497Z</time></trkpt><trkpt lat="42.6224225" lon="12.9334271"><ele>858.0</ele><time>2026-05-01T13:42:01.504Z</time></trkpt><trkpt lat="42.6223727" lon="12.933601"><ele>857.4</ele><time>2026-05-01T13:42:03.494Z</time></trkpt><trkpt lat="42.6223669" lon="12.9337359"><ele>856.8</ele><time>2026-05-01T13:42:04.507Z</time></trkpt><trkpt lat="42.6223667" lon="12.9338876"><ele>856.2</ele><time>2026-05-01T13:42:05.498Z</time></trkpt><trkpt lat="42.6223692" lon="12.934046"><ele>855.6</ele><time>2026-05-01T13:42:06.504Z</time></trkpt><trkpt lat="42.6223662" lon="12.9341922"><ele>855.0</ele><time>2026-05-01T13:42:07.496Z</time></trkpt><trkpt lat="42.6223544" lon="12.934323"><ele>854.6666666666666</ele><time>2026-05-01T13:42:08.498Z</time></trkpt><trkpt lat="42.6223259" lon="12.9344433"><ele>854.3333333333333</ele><time>2026-05-01T13:42:09.513Z</time></trkpt><trkpt lat="42.6222919" lon="12.9345579"><ele>854.0</ele><time>2026-05-01T13:42:10.511Z</time></trkpt><trkpt lat="42.6222482" lon="12.9346524"><ele>853.6666666666666</ele><time>2026-05-01T13:42:11.503Z</time></trkpt><trkpt lat="42.6221991" lon="12.9347403"><ele>853.3333333333333</ele><time>2026-05-01T13:42:12.506Z</time></trkpt><trkpt lat="42.6221502" lon="12.9348253"><ele>853.0</ele><time>2026-05-01T13:42:13.498Z</time></trkpt><trkpt lat="42.6220958" lon="12.9349056"><ele>852.9999999999999</ele><time>2026-05-01T13:42:14.494Z</time></trkpt><trkpt lat="42.6220326" lon="12.9349818"><ele>853.0</ele><time>2026-05-01T13:42:15.499Z</time></trkpt><trkpt lat="42.6219607" lon="12.9350527"><ele>853.0</ele><time>2026-05-01T13:42:16.495Z</time></trkpt><trkpt lat="42.621885" lon="12.935121"><ele>853.0</ele><time>2026-05-01T13:42:17.496Z</time></trkpt><trkpt lat="42.6218096" lon="12.9351832"><ele>852.9999999999999</ele><time>2026-05-01T13:42:18.505Z</time></trkpt><trkpt lat="42.6217366" lon="12.9352315"><ele>853.0</ele><time>2026-05-01T13:42:19.496Z</time></trkpt><trkpt lat="42.6216707" lon="12.9352665"><ele>851.8</ele><time>2026-05-01T13:42:20.499Z</time></trkpt><trkpt lat="42.6215613" lon="12.9353005"><ele>850.5999999999999</ele><time>2026-05-01T13:42:22.505Z</time></trkpt><trkpt lat="42.6214766" lon="12.9353729"><ele>849.4000000000001</ele><time>2026-05-01T13:42:24.507Z</time></trkpt><trkpt lat="42.6214428" lon="12.9354462"><ele>848.2</ele><time>2026-05-01T13:42:25.5Z</time></trkpt><trkpt lat="42.6214214" lon="12.9355534"><ele>847.0</ele><time>2026-05-01T13:42:26.504Z</time></trkpt><trkpt lat="42.6214102" lon="12.9356873"><ele>847.0</ele><time>2026-05-01T13:42:27.499Z</time></trkpt><trkpt lat="42.6214082" lon="12.9358282"><ele>847.0</ele><time>2026-05-01T13:42:28.504Z</time></trkpt><trkpt lat="42.6214142" lon="12.9359801"><ele>847.0</ele><time>2026-05-01T13:42:29.492Z</time></trkpt><trkpt lat="42.6214304" lon="12.9361377"><ele>847.0</ele><time>2026-05-01T13:42:30.503Z</time></trkpt><trkpt lat="42.6214546" lon="12.9362926"><ele>847.0</ele><time>2026-05-01T13:42:31.505Z</time></trkpt><trkpt lat="42.6214784" lon="12.9364403"><ele>845.8</ele><time>2026-05-01T13:42:32.495Z</time></trkpt><trkpt lat="42.6214951" lon="12.9365792"><ele>844.6</ele><time>2026-05-01T13:42:33.504Z</time></trkpt><trkpt lat="42.621504" lon="12.9367058"><ele>843.4</ele><time>2026-05-01T13:42:34.506Z</time></trkpt><trkpt lat="42.6215022" lon="12.9368121"><ele>842.1999999999999</ele><time>2026-05-01T13:42:35.504Z</time></trkpt><trkpt lat="42.621472" lon="12.9369551"><ele>841.0</ele><time>2026-05-01T13:42:37.506Z</time></trkpt><trkpt lat="42.6214386" lon="12.9370675"><ele>840.3333333333333</ele><time>2026-05-01T13:42:39.493Z</time></trkpt><trkpt lat="42.6214157" lon="12.9372034"><ele>839.6666666666666</ele><time>2026-05-01T13:42:41.506Z</time></trkpt><trkpt lat="42.6214072" lon="12.9373769"><ele>839.0</ele><time>2026-05-01T13:42:43.502Z</time></trkpt><trkpt lat="42.6213989" lon="12.9374684"><ele>838.3333333333333</ele><time>2026-05-01T13:42:44.504Z</time></trkpt><trkpt lat="42.621386" lon="12.9375554"><ele>837.6666666666666</ele><time>2026-05-01T13:42:45.502Z</time></trkpt><trkpt lat="42.621364" lon="12.9376488"><ele>837.0</ele><time>2026-05-01T13:42:46.497Z</time></trkpt><trkpt lat="42.6213357" lon="12.9377422"><ele>836.5</ele><time>2026-05-01T13:42:47.505Z</time></trkpt><trkpt lat="42.6213098" lon="12.937842"><ele>836.0</ele><time>2026-05-01T13:42:48.5Z</time></trkpt><trkpt lat="42.6212899" lon="12.9379487"><ele>835.5</ele><time>2026-05-01T13:42:49.505Z</time></trkpt><trkpt lat="42.6212703" lon="12.9380602"><ele>835.0</ele><time>2026-05-01T13:42:50.494Z</time></trkpt><trkpt lat="42.621246" lon="12.9381674"><ele>834.5</ele><time>2026-05-01T13:42:51.494Z</time></trkpt><trkpt lat="42.6212188" lon="12.938264"><ele>834.0</ele><time>2026-05-01T13:42:52.498Z</time></trkpt><trkpt lat="42.6211891" lon="12.9383406"><ele>831.0</ele><time>2026-05-01T13:42:53.5Z</time></trkpt><trkpt lat="42.6210991" lon="12.9384417"><ele>828.0</ele><time>2026-05-01T13:42:55.498Z</time></trkpt><trkpt lat="42.6209968" lon="12.9384704"><ele>825.0</ele><time>2026-05-01T13:42:57.499Z</time></trkpt><trkpt lat="42.6209274" lon="12.9383778"><ele>822.0</ele><time>2026-05-01T13:42:59.496Z</time></trkpt><trkpt lat="42.6208914" lon="12.9382348"><ele>819.0</ele><time>2026-05-01T13:43:01.497Z</time></trkpt><trkpt lat="42.6208379" lon="12.9380692"><ele>819.0</ele><time>2026-05-01T13:43:03.5Z</time></trkpt><trkpt lat="42.6208018" lon="12.9379684"><ele>819.0</ele><time>2026-05-01T13:43:04.497Z</time></trkpt><trkpt lat="42.6207624" lon="12.9378627"><ele>819.0</ele><time>2026-05-01T13:43:05.498Z</time></trkpt><trkpt lat="42.6207267" lon="12.9377603"><ele>819.0</ele><time>2026-05-01T13:43:06.497Z</time></trkpt><trkpt lat="42.6206986" lon="12.9376753"><ele>819.0</ele><time>2026-05-01T13:43:07.501Z</time></trkpt><trkpt lat="42.6206572" lon="12.9375638"><ele>819.0</ele><time>2026-05-01T13:43:09.506Z</time></trkpt><trkpt lat="42.620579" lon="12.937492"><ele>819.0</ele><time>2026-05-01T13:43:12.499Z</time></trkpt><trkpt lat="42.6204977" lon="12.9375357"><ele>819.0</ele><time>2026-05-01T13:43:14.509Z</time></trkpt><trkpt lat="42.6204565" lon="12.9376022"><ele>819.0</ele><time>2026-05-01T13:43:15.499Z</time></trkpt><trkpt lat="42.6204144" lon="12.9376789"><ele>819.0</ele><time>2026-05-01T13:43:16.508Z</time></trkpt><trkpt lat="42.6203679" lon="12.937761"><ele>819.0</ele><time>2026-05-01T13:43:17.498Z</time></trkpt><trkpt lat="42.6203206" lon="12.9378471"><ele>819.0</ele><time>2026-05-01T13:43:18.497Z</time></trkpt><trkpt lat="42.620279" lon="12.9379254"><ele>819.0</ele><time>2026-05-01T13:43:19.495Z</time></trkpt><trkpt lat="42.6202399" lon="12.9380082"><ele>816.1666666666666</ele><time>2026-05-01T13:43:20.505Z</time></trkpt><trkpt lat="42.6202074" lon="12.938103"><ele>813.3333333333333</ele><time>2026-05-01T13:43:21.496Z</time></trkpt><trkpt lat="42.6201799" lon="12.9382072"><ele>810.5</ele><time>2026-05-01T13:43:22.496Z</time></trkpt><trkpt lat="42.6201519" lon="12.9383157"><ele>807.6666666666666</ele><time>2026-05-01T13:43:23.502Z</time></trkpt><trkpt lat="42.6201253" lon="12.9384259"><ele>804.8333333333333</ele><time>2026-05-01T13:43:24.496Z</time></trkpt><trkpt lat="42.6200981" lon="12.9385396"><ele>802.0</ele><time>2026-05-01T13:43:25.499Z</time></trkpt><trkpt lat="42.6200744" lon="12.9386421"><ele>801.6</ele><time>2026-05-01T13:43:26.498Z</time></trkpt><trkpt lat="42.6200474" lon="12.9387738"><ele>801.2</ele><time>2026-05-01T13:43:28.504Z</time></trkpt><trkpt lat="42.6200264" lon="12.9388734"><ele>800.8</ele><time>2026-05-01T13:43:48.507Z</time></trkpt><trkpt lat="42.6200757" lon="12.9389776"><ele>800.4</ele><time>2026-05-01T13:43:50.507Z</time></trkpt><trkpt lat="42.6201432" lon="12.9390556"><ele>800.0</ele><time>2026-05-01T13:43:51.496Z</time></trkpt><trkpt lat="42.6202287" lon="12.9391545"><ele>800.5</ele><time>2026-05-01T13:43:52.504Z</time></trkpt><trkpt lat="42.6203176" lon="12.9392678"><ele>801.0</ele><time>2026-05-01T13:43:53.498Z</time></trkpt><trkpt lat="42.620396" lon="12.9393799"><ele>801.5</ele><time>2026-05-01T13:43:54.509Z</time></trkpt><trkpt lat="42.6204654" lon="12.9395041"><ele>802.0</ele><time>2026-05-01T13:43:55.499Z</time></trkpt><trkpt lat="42.6205184" lon="12.9396329"><ele>802.0</ele><time>2026-05-01T13:43:56.505Z</time></trkpt><trkpt lat="42.6205804" lon="12.9397719"><ele>802.0</ele><time>2026-05-01T13:43:57.502Z</time></trkpt><trkpt lat="42.6206412" lon="12.9399078"><ele>802.0</ele><time>2026-05-01T13:43:58.498Z</time></trkpt><trkpt lat="42.6206939" lon="12.9400396"><ele>802.0</ele><time>2026-05-01T13:43:59.495Z</time></trkpt><trkpt lat="42.6207497" lon="12.9401669"><ele>801.2</ele><time>2026-05-01T13:44:00.492Z</time></trkpt><trkpt lat="42.6208184" lon="12.9402761"><ele>800.4000000000001</ele><time>2026-05-01T13:44:01.502Z</time></trkpt><trkpt lat="42.6208878" lon="12.9403718"><ele>799.5999999999999</ele><time>2026-05-01T13:44:02.496Z</time></trkpt><trkpt lat="42.6209547" lon="12.9404589"><ele>798.8</ele><time>2026-05-01T13:44:03.498Z</time></trkpt><trkpt lat="42.621021" lon="12.9405362"><ele>798.0</ele><time>2026-05-01T13:44:04.495Z</time></trkpt><trkpt lat="42.6210871" lon="12.9406192"><ele>798.4</ele><time>2026-05-01T13:44:05.497Z</time></trkpt><trkpt lat="42.6211513" lon="12.9407099"><ele>798.8</ele><time>2026-05-01T13:44:06.499Z</time></trkpt><trkpt lat="42.621222" lon="12.9408078"><ele>799.2</ele><time>2026-05-01T13:44:07.495Z</time></trkpt><trkpt lat="42.6212988" lon="12.9409118"><ele>799.6</ele><time>2026-05-01T13:44:08.496Z</time></trkpt><trkpt lat="42.6213804" lon="12.9410103"><ele>800.0</ele><time>2026-05-01T13:44:09.51Z</time></trkpt><trkpt lat="42.6214659" lon="12.9410955"><ele>798.75</ele><time>2026-05-01T13:44:10.499Z</time></trkpt><trkpt lat="42.6215567" lon="12.9411728"><ele>797.5</ele><time>2026-05-01T13:44:11.496Z</time></trkpt><trkpt lat="42.6216573" lon="12.9412387"><ele>796.25</ele><time>2026-05-01T13:44:12.502Z</time></trkpt><trkpt lat="42.621768" lon="12.9413037"><ele>795.0</ele><time>2026-05-01T13:44:13.498Z</time></trkpt><trkpt lat="42.6218799" lon="12.9413696"><ele>795.6</ele><time>2026-05-01T13:44:14.501Z</time></trkpt><trkpt lat="42.621992" lon="12.9414321"><ele>796.2</ele><time>2026-05-01T13:44:15.499Z</time></trkpt><trkpt lat="42.6220962" lon="12.941483"><ele>796.8</ele><time>2026-05-01T13:44:16.5Z</time></trkpt><trkpt lat="42.6221993" lon="12.9415302"><ele>797.4</ele><time>2026-05-01T13:44:17.508Z</time></trkpt><trkpt lat="42.6222944" lon="12.9415709"><ele>798.0</ele><time>2026-05-01T13:44:18.509Z</time></trkpt><trkpt lat="42.6223836" lon="12.94161"><ele>798.0</ele><time>2026-05-01T13:44:19.497Z</time></trkpt><trkpt lat="42.6224575" lon="12.9416557"><ele>798.0</ele><time>2026-05-01T13:44:20.499Z</time></trkpt><trkpt lat="42.6225262" lon="12.9417202"><ele>798.0</ele><time>2026-05-01T13:44:21.503Z</time></trkpt><trkpt lat="42.6226023" lon="12.941825"><ele>798.0</ele><time>2026-05-01T13:44:22.504Z</time></trkpt><trkpt lat="42.6226772" lon="12.9419623"><ele>798.0</ele><time>2026-05-01T13:44:23.502Z</time></trkpt><trkpt lat="42.6227451" lon="12.9421199"><ele>797.25</ele><time>2026-05-01T13:44:24.5Z</time></trkpt><trkpt lat="42.622809" lon="12.9422816"><ele>796.5</ele><time>2026-05-01T13:44:25.496Z</time></trkpt><trkpt lat="42.6228699" lon="12.9424325"><ele>795.75</ele><time>2026-05-01T13:44:26.503Z</time></trkpt><trkpt lat="42.6229364" lon="12.942556"><ele>795.0</ele><time>2026-05-01T13:44:27.499Z</time></trkpt><trkpt lat="42.6230126" lon="12.9426551"><ele>794.4</ele><time>2026-05-01T13:44:28.499Z</time></trkpt><trkpt lat="42.6231005" lon="12.9427219"><ele>793.8</ele><time>2026-05-01T13:44:29.497Z</time></trkpt><trkpt lat="42.6232107" lon="12.94275"><ele>793.2</ele><time>2026-05-01T13:44:30.5Z</time></trkpt><trkpt lat="42.6233288" lon="12.9427599"><ele>792.6</ele><time>2026-05-01T13:44:31.498Z</time></trkpt><trkpt lat="42.6234378" lon="12.9427672"><ele>792.0</ele><time>2026-05-01T13:44:32.5Z</time></trkpt><trkpt lat="42.6235474" lon="12.9427691"><ele>791.6</ele><time>2026-05-01T13:44:33.5Z</time></trkpt><trkpt lat="42.6236533" lon="12.9427609"><ele>791.2</ele><time>2026-05-01T13:44:34.505Z</time></trkpt><trkpt lat="42.6237588" lon="12.9427335"><ele>790.8</ele><time>2026-05-01T13:44:35.495Z</time></trkpt><trkpt lat="42.6238683" lon="12.9426979"><ele>790.4</ele><time>2026-05-01T13:44:36.497Z</time></trkpt><trkpt lat="42.6239792" lon="12.9426663"><ele>790.0</ele><time>2026-05-01T13:44:37.503Z</time></trkpt><trkpt lat="42.6240947" lon="12.9426404"><ele>790.0</ele><time>2026-05-01T13:44:38.497Z</time></trkpt><trkpt lat="42.6241988" lon="12.9426451"><ele>790.0</ele><time>2026-05-01T13:44:39.5Z</time></trkpt><trkpt lat="42.6243099" lon="12.9426814"><ele>790.0</ele><time>2026-05-01T13:44:40.502Z</time></trkpt><trkpt lat="42.6244119" lon="12.9427308"><ele>790.0</ele><time>2026-05-01T13:44:41.5Z</time></trkpt><trkpt lat="42.6245094" lon="12.9427973"><ele>790.0</ele><time>2026-05-01T13:44:42.503Z</time></trkpt><trkpt lat="42.6246099" lon="12.942865"><ele>789.8</ele><time>2026-05-01T13:44:43.504Z</time></trkpt><trkpt lat="42.6247133" lon="12.9429292"><ele>789.6</ele><time>2026-05-01T13:44:44.493Z</time></trkpt><trkpt lat="42.6248222" lon="12.9429933"><ele>789.4000000000001</ele><time>2026-05-01T13:44:45.497Z</time></trkpt><trkpt lat="42.6249207" lon="12.9430545"><ele>789.2</ele><time>2026-05-01T13:44:46.506Z</time></trkpt><trkpt lat="42.6250151" lon="12.943119"><ele>789.0</ele><time>2026-05-01T13:44:47.499Z</time></trkpt><trkpt lat="42.6251054" lon="12.9431819"><ele>789.0</ele><time>2026-05-01T13:44:48.501Z</time></trkpt><trkpt lat="42.625197" lon="12.9432402"><ele>789.0</ele><time>2026-05-01T13:44:49.496Z</time></trkpt><trkpt lat="42.6252914" lon="12.9432884"><ele>789.0</ele><time>2026-05-01T13:44:50.508Z</time></trkpt><trkpt lat="42.625389" lon="12.9433228"><ele>789.0</ele><time>2026-05-01T13:44:51.504Z</time></trkpt><trkpt lat="42.6254935" lon="12.9433495"><ele>789.0</ele><time>2026-05-01T13:44:52.503Z</time></trkpt><trkpt lat="42.6256024" lon="12.9433815"><ele>788.0</ele><time>2026-05-01T13:44:53.501Z</time></trkpt><trkpt lat="42.625716" lon="12.9434433"><ele>787.0</ele><time>2026-05-01T13:44:54.496Z</time></trkpt><trkpt lat="42.6258379" lon="12.9435532"><ele>786.0</ele><time>2026-05-01T13:44:55.499Z</time></trkpt><trkpt lat="42.6259592" lon="12.9436924"><ele>785.0</ele><time>2026-05-01T13:44:56.499Z</time></trkpt><trkpt lat="42.626063" lon="12.9438284"><ele>785.5</ele><time>2026-05-01T13:44:57.501Z</time></trkpt><trkpt lat="42.6261503" lon="12.9439708"><ele>786.0</ele><time>2026-05-01T13:44:58.496Z</time></trkpt><trkpt lat="42.6262145" lon="12.9441432"><ele>786.5</ele><time>2026-05-01T13:44:59.497Z</time></trkpt><trkpt lat="42.626275" lon="12.9443043"><ele>787.0</ele><time>2026-05-01T13:45:00.498Z</time></trkpt><trkpt lat="42.6263545" lon="12.9444342"><ele>787.0</ele><time>2026-05-01T13:45:01.499Z</time></trkpt><trkpt lat="42.6264599" lon="12.9445646"><ele>787.0</ele><time>2026-05-01T13:45:02.498Z</time></trkpt><trkpt lat="42.6265502" lon="12.9446662"><ele>787.0</ele><time>2026-05-01T13:45:03.491Z</time></trkpt><trkpt lat="42.6266416" lon="12.9447683"><ele>787.0</ele><time>2026-05-01T13:45:04.497Z</time></trkpt><trkpt lat="42.6267419" lon="12.9448885"><ele>787.0</ele><time>2026-05-01T13:45:05.501Z</time></trkpt><trkpt lat="42.6268514" lon="12.9449971"><ele>787.0</ele><time>2026-05-01T13:45:06.506Z</time></trkpt><trkpt lat="42.6269596" lon="12.9450854"><ele>787.0</ele><time>2026-05-01T13:45:07.498Z</time></trkpt><trkpt lat="42.6270631" lon="12.9451706"><ele>787.0</ele><time>2026-05-01T13:45:08.509Z</time></trkpt><trkpt lat="42.6271662" lon="12.945261"><ele>787.0</ele><time>2026-05-01T13:45:09.499Z</time></trkpt><trkpt lat="42.6272503" lon="12.945381"><ele>787.0</ele><time>2026-05-01T13:45:10.493Z</time></trkpt><trkpt lat="42.6273237" lon="12.9455365"><ele>787.0</ele><time>2026-05-01T13:45:11.495Z</time></trkpt><trkpt lat="42.6273877" lon="12.9456917"><ele>787.0</ele><time>2026-05-01T13:45:12.496Z</time></trkpt><trkpt lat="42.6274596" lon="12.9458301"><ele>787.5</ele><time>2026-05-01T13:45:13.504Z</time></trkpt><trkpt lat="42.6275566" lon="12.9459656"><ele>788.0</ele><time>2026-05-01T13:45:14.504Z</time></trkpt><trkpt lat="42.6276535" lon="12.9460589"><ele>788.5</ele><time>2026-05-01T13:45:15.508Z</time></trkpt><trkpt lat="42.6277704" lon="12.9461351"><ele>789.0</ele><time>2026-05-01T13:45:16.499Z</time></trkpt><trkpt lat="42.6279165" lon="12.9461912"><ele>788.0</ele><time>2026-05-01T13:45:17.5Z</time></trkpt><trkpt lat="42.6280769" lon="12.9462322"><ele>787.0</ele><time>2026-05-01T13:45:18.492Z</time></trkpt><trkpt lat="42.6282128" lon="12.9462991"><ele>786.0</ele><time>2026-05-01T13:45:19.497Z</time></trkpt><trkpt lat="42.6283235" lon="12.9463722"><ele>785.0</ele><time>2026-05-01T13:45:20.501Z</time></trkpt><trkpt lat="42.6284216" lon="12.9464307"><ele>785.0</ele><time>2026-05-01T13:45:21.499Z</time></trkpt><trkpt lat="42.6285176" lon="12.9464955"><ele>785.0</ele><time>2026-05-01T13:45:22.5Z</time></trkpt><trkpt lat="42.6286311" lon="12.9465661"><ele>785.0</ele><time>2026-05-01T13:45:23.497Z</time></trkpt><trkpt lat="42.628741" lon="12.9466316"><ele>785.0</ele><time>2026-05-01T13:45:24.501Z</time></trkpt><trkpt lat="42.6288647" lon="12.946696"><ele>787.25</ele><time>2026-05-01T13:45:25.506Z</time></trkpt><trkpt lat="42.6289926" lon="12.946722"><ele>789.5</ele><time>2026-05-01T13:45:26.5Z</time></trkpt><trkpt lat="42.6291086" lon="12.9467558"><ele>791.75</ele><time>2026-05-01T13:45:27.494Z</time></trkpt><trkpt lat="42.6292277" lon="12.946803"><ele>794.0</ele><time>2026-05-01T13:45:28.503Z</time></trkpt><trkpt lat="42.6293471" lon="12.9468555"><ele>794.0</ele><time>2026-05-01T13:45:29.499Z</time></trkpt><trkpt lat="42.6294649" lon="12.9469223"><ele>794.0</ele><time>2026-05-01T13:45:30.496Z</time></trkpt><trkpt lat="42.6295813" lon="12.9470011"><ele>794.0</ele><time>2026-05-01T13:45:31.494Z</time></trkpt><trkpt lat="42.6296917" lon="12.9470904"><ele>794.0</ele><time>2026-05-01T13:45:32.494Z</time></trkpt><trkpt lat="42.6297936" lon="12.9471811"><ele>792.0</ele><time>2026-05-01T13:45:33.503Z</time></trkpt><trkpt lat="42.6298967" lon="12.9472661"><ele>790.0</ele><time>2026-05-01T13:45:34.5Z</time></trkpt><trkpt lat="42.6300063" lon="12.9473415"><ele>788.0</ele><time>2026-05-01T13:45:35.5Z</time></trkpt><trkpt lat="42.6301171" lon="12.9474159"><ele>786.0</ele><time>2026-05-01T13:45:36.499Z</time></trkpt><trkpt lat="42.6302258" lon="12.9474841"><ele>785.5</ele><time>2026-05-01T13:45:37.501Z</time></trkpt><trkpt lat="42.6303347" lon="12.9475468"><ele>785.0</ele><time>2026-05-01T13:45:38.5Z</time></trkpt><trkpt lat="42.6304426" lon="12.9476086"><ele>784.5</ele><time>2026-05-01T13:45:39.5Z</time></trkpt><trkpt lat="42.6305504" lon="12.9476703"><ele>784.0</ele><time>2026-05-01T13:45:40.499Z</time></trkpt><trkpt lat="42.6306592" lon="12.9477324"><ele>784.0</ele><time>2026-05-01T13:45:41.504Z</time></trkpt><trkpt lat="42.6307694" lon="12.9477872"><ele>784.0</ele><time>2026-05-01T13:45:42.5Z</time></trkpt><trkpt lat="42.6308879" lon="12.9478347"><ele>784.0</ele><time>2026-05-01T13:45:43.496Z</time></trkpt><trkpt lat="42.6310034" lon="12.947884"><ele>784.0</ele><time>2026-05-01T13:45:44.5Z</time></trkpt><trkpt lat="42.6311195" lon="12.9479408"><ele>783.75</ele><time>2026-05-01T13:45:45.497Z</time></trkpt><trkpt lat="42.6312312" lon="12.9480088"><ele>783.5</ele><time>2026-05-01T13:45:46.501Z</time></trkpt><trkpt lat="42.6313428" lon="12.948079"><ele>783.25</ele><time>2026-05-01T13:45:47.502Z</time></trkpt><trkpt lat="42.6314559" lon="12.9481443"><ele>783.0</ele><time>2026-05-01T13:45:48.505Z</time></trkpt><trkpt lat="42.6315669" lon="12.9482042"><ele>783.0</ele><time>2026-05-01T13:45:49.495Z</time></trkpt><trkpt lat="42.6316743" lon="12.9482582"><ele>783.0</ele><time>2026-05-01T13:45:50.497Z</time></trkpt><trkpt lat="42.6317739" lon="12.9482997"><ele>783.0</ele><time>2026-05-01T13:45:51.49Z</time></trkpt><trkpt lat="42.6318766" lon="12.948342"><ele>783.0</ele><time>2026-05-01T13:45:52.502Z</time></trkpt><trkpt lat="42.6319752" lon="12.9483916"><ele>783.0</ele><time>2026-05-01T13:45:53.505Z</time></trkpt><trkpt lat="42.6320713" lon="12.94845"><ele>783.0</ele><time>2026-05-01T13:45:54.5Z</time></trkpt><trkpt lat="42.6321647" lon="12.9485337"><ele>783.0</ele><time>2026-05-01T13:45:55.496Z</time></trkpt><trkpt lat="42.6322589" lon="12.9486337"><ele>783.0</ele><time>2026-05-01T13:45:56.497Z</time></trkpt><trkpt lat="42.6323487" lon="12.9487461"><ele>783.0</ele><time>2026-05-01T13:45:57.499Z</time></trkpt><trkpt lat="42.6324344" lon="12.9488591"><ele>783.0</ele><time>2026-05-01T13:45:58.505Z</time></trkpt><trkpt lat="42.6325137" lon="12.9489692"><ele>783.0</ele><time>2026-05-01T13:45:59.497Z</time></trkpt><trkpt lat="42.6325942" lon="12.9490705"><ele>783.0</ele><time>2026-05-01T13:46:00.497Z</time></trkpt><trkpt lat="42.6326747" lon="12.9491704"><ele>783.0</ele><time>2026-05-01T13:46:01.499Z</time></trkpt><trkpt lat="42.6327529" lon="12.9492668"><ele>783.0</ele><time>2026-05-01T13:46:02.489Z</time></trkpt><trkpt lat="42.6328302" lon="12.9493673"><ele>783.0</ele><time>2026-05-01T13:46:03.495Z</time></trkpt><trkpt lat="42.6329097" lon="12.9494711"><ele>783.0</ele><time>2026-05-01T13:46:04.502Z</time></trkpt><trkpt lat="42.6329955" lon="12.9495749"><ele>783.0</ele><time>2026-05-01T13:46:05.504Z</time></trkpt><trkpt lat="42.6330805" lon="12.9496818"><ele>783.0</ele><time>2026-05-01T13:46:06.502Z</time></trkpt><trkpt lat="42.6331615" lon="12.9497926"><ele>783.0</ele><time>2026-05-01T13:46:07.505Z</time></trkpt><trkpt lat="42.6332435" lon="12.9498941"><ele>783.0</ele><time>2026-05-01T13:46:08.5Z</time></trkpt><trkpt lat="42.6333337" lon="12.949989"><ele>783.0</ele><time>2026-05-01T13:46:09.495Z</time></trkpt><trkpt lat="42.6334359" lon="12.950071"><ele>783.0</ele><time>2026-05-01T13:46:10.502Z</time></trkpt><trkpt lat="42.6335409" lon="12.9501422"><ele>783.2</ele><time>2026-05-01T13:46:11.495Z</time></trkpt><trkpt lat="42.6336422" lon="12.950198"><ele>783.4</ele><time>2026-05-01T13:46:12.503Z</time></trkpt><trkpt lat="42.6337414" lon="12.950255"><ele>783.6</ele><time>2026-05-01T13:46:13.499Z</time></trkpt><trkpt lat="42.6338419" lon="12.9503173"><ele>783.8000000000001</ele><time>2026-05-01T13:46:14.497Z</time></trkpt><trkpt lat="42.6339437" lon="12.9503798"><ele>784.0</ele><time>2026-05-01T13:46:15.501Z</time></trkpt><trkpt lat="42.6340446" lon="12.9504401"><ele>784.0</ele><time>2026-05-01T13:46:16.499Z</time></trkpt><trkpt lat="42.6341534" lon="12.9504945"><ele>784.0</ele><time>2026-05-01T13:46:17.504Z</time></trkpt><trkpt lat="42.6342645" lon="12.9505444"><ele>784.0</ele><time>2026-05-01T13:46:18.502Z</time></trkpt><trkpt lat="42.6343711" lon="12.9505936"><ele>784.0</ele><time>2026-05-01T13:46:19.503Z</time></trkpt><trkpt lat="42.6344745" lon="12.95064"><ele>783.4000000000001</ele><time>2026-05-01T13:46:20.5Z</time></trkpt><trkpt lat="42.6345762" lon="12.9506877"><ele>782.8</ele><time>2026-05-01T13:46:21.495Z</time></trkpt><trkpt lat="42.634681" lon="12.9507326"><ele>782.2</ele><time>2026-05-01T13:46:22.5Z</time></trkpt><trkpt lat="42.6347788" lon="12.9507804"><ele>781.5999999999999</ele><time>2026-05-01T13:46:23.5Z</time></trkpt><trkpt lat="42.6348806" lon="12.9508227"><ele>781.0</ele><time>2026-05-01T13:46:24.491Z</time></trkpt><trkpt lat="42.6349927" lon="12.9508344"><ele>781.0</ele><time>2026-05-01T13:46:25.494Z</time></trkpt><trkpt lat="42.6351184" lon="12.9508325"><ele>781.0</ele><time>2026-05-01T13:46:26.503Z</time></trkpt><trkpt lat="42.6352577" lon="12.9508253"><ele>781.0</ele><time>2026-05-01T13:46:27.505Z</time></trkpt><trkpt lat="42.6354013" lon="12.9508155"><ele>781.0</ele><time>2026-05-01T13:46:28.508Z</time></trkpt><trkpt lat="42.635528" lon="12.9507987"><ele>781.75</ele><time>2026-05-01T13:46:29.504Z</time></trkpt><trkpt lat="42.6356421" lon="12.9508042"><ele>782.5</ele><time>2026-05-01T13:46:30.5Z</time></trkpt><trkpt lat="42.635753" lon="12.9508252"><ele>783.25</ele><time>2026-05-01T13:46:31.501Z</time></trkpt><trkpt lat="42.6358666" lon="12.9508722"><ele>784.0</ele><time>2026-05-01T13:46:32.494Z</time></trkpt><trkpt lat="42.6359721" lon="12.9509255"><ele>782.25</ele><time>2026-05-01T13:46:33.493Z</time></trkpt><trkpt lat="42.6360871" lon="12.9509629"><ele>780.5</ele><time>2026-05-01T13:46:34.504Z</time></trkpt><trkpt lat="42.6361955" lon="12.9509811"><ele>778.75</ele><time>2026-05-01T13:46:35.502Z</time></trkpt><trkpt lat="42.6363116" lon="12.9509859"><ele>777.0</ele><time>2026-05-01T13:46:36.498Z</time></trkpt><trkpt lat="42.6364209" lon="12.9509807"><ele>777.0</ele><time>2026-05-01T13:46:37.505Z</time></trkpt><trkpt lat="42.6365294" lon="12.9509735"><ele>777.0</ele><time>2026-05-01T13:46:38.494Z</time></trkpt><trkpt lat="42.6366344" lon="12.9509738"><ele>777.0</ele><time>2026-05-01T13:46:39.498Z</time></trkpt><trkpt lat="42.6367323" lon="12.950978"><ele>777.0</ele><time>2026-05-01T13:46:40.504Z</time></trkpt><trkpt lat="42.6368338" lon="12.9509936"><ele>777.0</ele><time>2026-05-01T13:46:41.501Z</time></trkpt><trkpt lat="42.6369355" lon="12.951017"><ele>776.8</ele><time>2026-05-01T13:46:42.501Z</time></trkpt><trkpt lat="42.6370363" lon="12.9510558"><ele>776.6</ele><time>2026-05-01T13:46:43.491Z</time></trkpt><trkpt lat="42.6371348" lon="12.9511103"><ele>776.4</ele><time>2026-05-01T13:46:44.499Z</time></trkpt><trkpt lat="42.6372345" lon="12.9511617"><ele>776.1999999999999</ele><time>2026-05-01T13:46:45.497Z</time></trkpt><trkpt lat="42.6373454" lon="12.9511968"><ele>776.0</ele><time>2026-05-01T13:46:46.499Z</time></trkpt><trkpt lat="42.6374481" lon="12.9512244"><ele>776.0</ele><time>2026-05-01T13:46:47.507Z</time></trkpt><trkpt lat="42.6375479" lon="12.9512492"><ele>776.0</ele><time>2026-05-01T13:46:48.497Z</time></trkpt><trkpt lat="42.6376409" lon="12.9512934"><ele>776.0</ele><time>2026-05-01T13:46:49.503Z</time></trkpt><trkpt lat="42.6377243" lon="12.9513529"><ele>776.0</ele><time>2026-05-01T13:46:50.497Z</time></trkpt><trkpt lat="42.6377995" lon="12.9514338"><ele>776.0</ele><time>2026-05-01T13:46:51.498Z</time></trkpt><trkpt lat="42.6378728" lon="12.951541"><ele>776.5999999999999</ele><time>2026-05-01T13:46:52.499Z</time></trkpt><trkpt lat="42.6379461" lon="12.9516489"><ele>777.2</ele><time>2026-05-01T13:46:53.49Z</time></trkpt><trkpt lat="42.6380162" lon="12.9517548"><ele>777.8</ele><time>2026-05-01T13:46:54.505Z</time></trkpt><trkpt lat="42.6380861" lon="12.9518529"><ele>778.4000000000001</ele><time>2026-05-01T13:46:55.494Z</time></trkpt><trkpt lat="42.638157" lon="12.9519389"><ele>779.0</ele><time>2026-05-01T13:46:56.503Z</time></trkpt><trkpt lat="42.6382309" lon="12.9519857"><ele>779.0</ele><time>2026-05-01T13:46:57.493Z</time></trkpt><trkpt lat="42.6383244" lon="12.9519968"><ele>779.0</ele><time>2026-05-01T13:46:58.494Z</time></trkpt><trkpt lat="42.6384227" lon="12.9519644"><ele>779.0</ele><time>2026-05-01T13:46:59.498Z</time></trkpt><trkpt lat="42.6385167" lon="12.9519193"><ele>779.0</ele><time>2026-05-01T13:47:00.495Z</time></trkpt><trkpt lat="42.6386129" lon="12.9518785"><ele>779.0</ele><time>2026-05-01T13:47:01.499Z</time></trkpt><trkpt lat="42.638703" lon="12.9518662"><ele>780.1666666666667</ele><time>2026-05-01T13:47:02.499Z</time></trkpt><trkpt lat="42.6387914" lon="12.9518888"><ele>781.3333333333334</ele><time>2026-05-01T13:47:03.497Z</time></trkpt><trkpt lat="42.6388623" lon="12.9519484"><ele>782.5</ele><time>2026-05-01T13:47:04.502Z</time></trkpt><trkpt lat="42.6389173" lon="12.9520138"><ele>783.6666666666667</ele><time>2026-05-01T13:47:05.494Z</time></trkpt><trkpt lat="42.6389677" lon="12.952084"><ele>784.8333333333334</ele><time>2026-05-01T13:47:06.5Z</time></trkpt><trkpt lat="42.6390058" lon="12.9521537"><ele>786.0</ele><time>2026-05-01T13:47:07.51Z</time></trkpt><trkpt lat="42.6390525" lon="12.9522783"><ele>786.0</ele><time>2026-05-01T13:47:09.496Z</time></trkpt><trkpt lat="42.6390028" lon="12.9523996"><ele>786.0</ele><time>2026-05-01T13:47:11.495Z</time></trkpt><trkpt lat="42.6389389" lon="12.9524457"><ele>786.0</ele><time>2026-05-01T13:47:12.498Z</time></trkpt><trkpt lat="42.638877" lon="12.9524988"><ele>786.0</ele><time>2026-05-01T13:47:13.504Z</time></trkpt><trkpt lat="42.6388127" lon="12.9525621"><ele>786.0</ele><time>2026-05-01T13:47:14.496Z</time></trkpt><trkpt lat="42.6387552" lon="12.9526423"><ele>786.0</ele><time>2026-05-01T13:47:15.504Z</time></trkpt><trkpt lat="42.6387005" lon="12.9527243"><ele>784.4</ele><time>2026-05-01T13:47:16.506Z</time></trkpt><trkpt lat="42.6386471" lon="12.9528122"><ele>782.8</ele><time>2026-05-01T13:47:17.505Z</time></trkpt><trkpt lat="42.6385904" lon="12.9529043"><ele>781.1999999999999</ele><time>2026-05-01T13:47:18.499Z</time></trkpt><trkpt lat="42.6385305" lon="12.9530009"><ele>779.5999999999999</ele><time>2026-05-01T13:47:19.498Z</time></trkpt><trkpt lat="42.6384722" lon="12.9530998"><ele>778.0</ele><time>2026-05-01T13:47:20.494Z</time></trkpt><trkpt lat="42.6384119" lon="12.9532008"><ele>778.0</ele><time>2026-05-01T13:47:21.503Z</time></trkpt><trkpt lat="42.6383471" lon="12.9533029"><ele>778.0</ele><time>2026-05-01T13:47:22.495Z</time></trkpt><trkpt lat="42.6382866" lon="12.9534084"><ele>778.0</ele><time>2026-05-01T13:47:23.498Z</time></trkpt><trkpt lat="42.6382293" lon="12.9535143"><ele>778.0</ele><time>2026-05-01T13:47:24.494Z</time></trkpt><trkpt lat="42.6381782" lon="12.9536162"><ele>778.0</ele><time>2026-05-01T13:47:25.499Z</time></trkpt><trkpt lat="42.6381185" lon="12.9537075"><ele>778.9999999999999</ele><time>2026-05-01T13:47:26.493Z</time></trkpt><trkpt lat="42.6380555" lon="12.9537883"><ele>780.0</ele><time>2026-05-01T13:47:27.503Z</time></trkpt><trkpt lat="42.6379851" lon="12.9538517"><ele>781.0</ele><time>2026-05-01T13:47:28.497Z</time></trkpt><trkpt lat="42.6379098" lon="12.9538954"><ele>782.0</ele><time>2026-05-01T13:47:29.497Z</time></trkpt><trkpt lat="42.6378304" lon="12.9539216"><ele>782.9999999999999</ele><time>2026-05-01T13:47:30.507Z</time></trkpt><trkpt lat="42.6377459" lon="12.9539371"><ele>784.0</ele><time>2026-05-01T13:47:31.506Z</time></trkpt><trkpt lat="42.6376594" lon="12.9539483"><ele>785.9999999999999</ele><time>2026-05-01T13:47:32.497Z</time></trkpt><trkpt lat="42.6375771" lon="12.9539541"><ele>788.0</ele><time>2026-05-01T13:47:33.5Z</time></trkpt><trkpt lat="42.6374932" lon="12.9539552"><ele>790.0</ele><time>2026-05-01T13:47:34.503Z</time></trkpt><trkpt lat="42.6374107" lon="12.9539547"><ele>792.0</ele><time>2026-05-01T13:47:35.501Z</time></trkpt><trkpt lat="42.6373229" lon="12.9539488"><ele>793.9999999999999</ele><time>2026-05-01T13:47:36.497Z</time></trkpt><trkpt lat="42.6372355" lon="12.9539434"><ele>796.0</ele><time>2026-05-01T13:47:37.499Z</time></trkpt><trkpt lat="42.637145" lon="12.9539387"><ele>796.0</ele><time>2026-05-01T13:47:38.497Z</time></trkpt><trkpt lat="42.6370432" lon="12.9539265"><ele>796.0</ele><time>2026-05-01T13:47:39.496Z</time></trkpt><trkpt lat="42.6369365" lon="12.9539096"><ele>796.0</ele><time>2026-05-01T13:47:40.497Z</time></trkpt><trkpt lat="42.6368364" lon="12.953902"><ele>796.0</ele><time>2026-05-01T13:47:41.497Z</time></trkpt><trkpt lat="42.6367436" lon="12.9538849"><ele>796.0</ele><time>2026-05-01T13:47:42.504Z</time></trkpt><trkpt lat="42.6366513" lon="12.9538677"><ele>796.5999999999999</ele><time>2026-05-01T13:47:43.499Z</time></trkpt><trkpt lat="42.6365605" lon="12.953846"><ele>797.2</ele><time>2026-05-01T13:47:44.495Z</time></trkpt><trkpt lat="42.6364686" lon="12.9538183"><ele>797.8</ele><time>2026-05-01T13:47:45.499Z</time></trkpt><trkpt lat="42.6363765" lon="12.9537957"><ele>798.4000000000001</ele><time>2026-05-01T13:47:46.498Z</time></trkpt><trkpt lat="42.6362863" lon="12.9537825"><ele>799.0</ele><time>2026-05-01T13:47:47.505Z</time></trkpt><trkpt lat="42.6361936" lon="12.953775"><ele>800.4000000000001</ele><time>2026-05-01T13:47:48.507Z</time></trkpt><trkpt lat="42.6361029" lon="12.9537672"><ele>801.8</ele><time>2026-05-01T13:47:49.497Z</time></trkpt><trkpt lat="42.6360146" lon="12.9537572"><ele>803.2</ele><time>2026-05-01T13:47:50.495Z</time></trkpt><trkpt lat="42.6359223" lon="12.9537536"><ele>804.5999999999999</ele><time>2026-05-01T13:47:51.502Z</time></trkpt><trkpt lat="42.6358263" lon="12.953747"><ele>806.0</ele><time>2026-05-01T13:47:52.495Z</time></trkpt><trkpt lat="42.635728" lon="12.9537411"><ele>806.0</ele><time>2026-05-01T13:47:53.503Z</time></trkpt><trkpt lat="42.6356279" lon="12.9537312"><ele>806.0</ele><time>2026-05-01T13:47:54.496Z</time></trkpt><trkpt lat="42.6355318" lon="12.9537253"><ele>806.0</ele><time>2026-05-01T13:47:55.497Z</time></trkpt><trkpt lat="42.6354323" lon="12.9537179"><ele>806.0</ele><time>2026-05-01T13:47:56.497Z</time></trkpt><trkpt lat="42.6353279" lon="12.9537105"><ele>806.0</ele><time>2026-05-01T13:47:57.498Z</time></trkpt><trkpt lat="42.6352174" lon="12.9537021"><ele>807.0</ele><time>2026-05-01T13:47:58.496Z</time></trkpt><trkpt lat="42.6351056" lon="12.9536844"><ele>808.0</ele><time>2026-05-01T13:47:59.5Z</time></trkpt><trkpt lat="42.634985" lon="12.9536542"><ele>809.0</ele><time>2026-05-01T13:48:00.499Z</time></trkpt><trkpt lat="42.6348678" lon="12.9536032"><ele>810.0</ele><time>2026-05-01T13:48:01.499Z</time></trkpt><trkpt lat="42.634746" lon="12.9535388"><ele>810.0</ele><time>2026-05-01T13:48:02.501Z</time></trkpt><trkpt lat="42.63461" lon="12.953469"><ele>810.0</ele><time>2026-05-01T13:48:03.495Z</time></trkpt><trkpt lat="42.6344691" lon="12.9533943"><ele>810.0</ele><time>2026-05-01T13:48:04.5Z</time></trkpt><trkpt lat="42.6343302" lon="12.9533217"><ele>810.0</ele><time>2026-05-01T13:48:05.506Z</time></trkpt><trkpt lat="42.6341836" lon="12.9532401"><ele>807.5</ele><time>2026-05-01T13:48:06.496Z</time></trkpt><trkpt lat="42.6340479" lon="12.9531592"><ele>805.0</ele><time>2026-05-01T13:48:07.504Z</time></trkpt><trkpt lat="42.6339123" lon="12.9530808"><ele>802.5</ele><time>2026-05-01T13:48:08.496Z</time></trkpt><trkpt lat="42.6337809" lon="12.9530005"><ele>800.0</ele><time>2026-05-01T13:48:09.494Z</time></trkpt><trkpt lat="42.6336457" lon="12.9529264"><ele>804.25</ele><time>2026-05-01T13:48:10.499Z</time></trkpt><trkpt lat="42.6335048" lon="12.9528475"><ele>808.5</ele><time>2026-05-01T13:48:11.5Z</time></trkpt><trkpt lat="42.633366" lon="12.9527805"><ele>812.75</ele><time>2026-05-01T13:48:12.507Z</time></trkpt><trkpt lat="42.6332353" lon="12.9527024"><ele>817.0</ele><time>2026-05-01T13:48:13.496Z</time></trkpt><trkpt lat="42.6331128" lon="12.9526178"><ele>816.0</ele><time>2026-05-01T13:48:14.501Z</time></trkpt><trkpt lat="42.6330066" lon="12.9525013"><ele>815.0</ele><time>2026-05-01T13:48:15.496Z</time></trkpt><trkpt lat="42.6329067" lon="12.9523386"><ele>814.0</ele><time>2026-05-01T13:48:16.495Z</time></trkpt><trkpt lat="42.6328155" lon="12.9521871"><ele>813.0</ele><time>2026-05-01T13:48:17.503Z</time></trkpt><trkpt lat="42.6327221" lon="12.9520588"><ele>813.0</ele><time>2026-05-01T13:48:18.496Z</time></trkpt><trkpt lat="42.6326012" lon="12.9519842"><ele>813.0</ele><time>2026-05-01T13:48:19.497Z</time></trkpt><trkpt lat="42.6324644" lon="12.9519635"><ele>813.0</ele><time>2026-05-01T13:48:20.494Z</time></trkpt><trkpt lat="42.6323266" lon="12.9519976"><ele>813.0</ele><time>2026-05-01T13:48:21.501Z</time></trkpt><trkpt lat="42.6321878" lon="12.9520688"><ele>813.0</ele><time>2026-05-01T13:48:22.5Z</time></trkpt><trkpt lat="42.6320727" lon="12.9521659"><ele>813.0</ele><time>2026-05-01T13:48:23.491Z</time></trkpt><trkpt lat="42.6319666" lon="12.9522322"><ele>813.0</ele><time>2026-05-01T13:48:24.507Z</time></trkpt><trkpt lat="42.6318591" lon="12.9522914"><ele>813.0</ele><time>2026-05-01T13:48:25.492Z</time></trkpt><trkpt lat="42.6317428" lon="12.9523092"><ele>812.5</ele><time>2026-05-01T13:48:26.499Z</time></trkpt><trkpt lat="42.6316163" lon="12.9522799"><ele>812.0</ele><time>2026-05-01T13:48:27.495Z</time></trkpt><trkpt lat="42.6314918" lon="12.9521935"><ele>811.5</ele><time>2026-05-01T13:48:28.506Z</time></trkpt><trkpt lat="42.6313695" lon="12.9520537"><ele>811.0</ele><time>2026-05-01T13:48:29.493Z</time></trkpt><trkpt lat="42.6312508" lon="12.9518744"><ele>806.0</ele><time>2026-05-01T13:48:30.507Z</time></trkpt><trkpt lat="42.6311635" lon="12.9516829"><ele>801.0</ele><time>2026-05-01T13:48:31.495Z</time></trkpt><trkpt lat="42.6311079" lon="12.9514637"><ele>796.0</ele><time>2026-05-01T13:48:32.502Z</time></trkpt><trkpt lat="42.631095" lon="12.9511945"><ele>803.3333333333333</ele><time>2026-05-01T13:48:33.497Z</time></trkpt><trkpt lat="42.6310638" lon="12.9509424"><ele>810.6666666666667</ele><time>2026-05-01T13:48:34.496Z</time></trkpt><trkpt lat="42.6310308" lon="12.9507311"><ele>818.0</ele><time>2026-05-01T13:48:35.495Z</time></trkpt><trkpt lat="42.6309873" lon="12.9505429"><ele>818.0</ele><time>2026-05-01T13:48:36.498Z</time></trkpt><trkpt lat="42.6309208" lon="12.9503748"><ele>818.0</ele><time>2026-05-01T13:48:37.497Z</time></trkpt><trkpt lat="42.6308113" lon="12.9502328"><ele>818.0</ele><time>2026-05-01T13:48:38.496Z</time></trkpt><trkpt lat="42.6306748" lon="12.9500968"><ele>813.0</ele><time>2026-05-01T13:48:39.494Z</time></trkpt><trkpt lat="42.6305443" lon="12.9499765"><ele>808.0</ele><time>2026-05-01T13:48:40.507Z</time></trkpt><trkpt lat="42.6304428" lon="12.9498132"><ele>803.0</ele><time>2026-05-01T13:48:41.503Z</time></trkpt><trkpt lat="42.6303682" lon="12.9496125"><ele>803.0</ele><time>2026-05-01T13:48:42.503Z</time></trkpt><trkpt lat="42.6303129" lon="12.949392"><ele>803.0</ele><time>2026-05-01T13:48:43.504Z</time></trkpt><trkpt lat="42.6302542" lon="12.9491623"><ele>803.0</ele><time>2026-05-01T13:48:44.496Z</time></trkpt><trkpt lat="42.6301853" lon="12.9489653"><ele>808.0</ele><time>2026-05-01T13:48:45.496Z</time></trkpt><trkpt lat="42.6301018" lon="12.9487839"><ele>813.0</ele><time>2026-05-01T13:48:46.501Z</time></trkpt><trkpt lat="42.629984" lon="12.9486122"><ele>818.0</ele><time>2026-05-01T13:48:47.502Z</time></trkpt><trkpt lat="42.6298668" lon="12.9484534"><ele>817.6666666666667</ele><time>2026-05-01T13:48:48.499Z</time></trkpt><trkpt lat="42.6297271" lon="12.9483281"><ele>817.3333333333333</ele><time>2026-05-01T13:48:49.505Z</time></trkpt><trkpt lat="42.629572" lon="12.9482139"><ele>817.0</ele><time>2026-05-01T13:48:50.502Z</time></trkpt><trkpt lat="42.629406" lon="12.9481218"><ele>817.0</ele><time>2026-05-01T13:48:51.5Z</time></trkpt><trkpt lat="42.6292292" lon="12.9480666"><ele>817.0</ele><time>2026-05-01T13:48:52.505Z</time></trkpt><trkpt lat="42.629058" lon="12.9480576"><ele>817.0</ele><time>2026-05-01T13:48:53.502Z</time></trkpt><trkpt lat="42.6288877" lon="12.9480846"><ele>817.0</ele><time>2026-05-01T13:48:54.502Z</time></trkpt><trkpt lat="42.6287117" lon="12.9481484"><ele>817.0</ele><time>2026-05-01T13:48:55.508Z</time></trkpt><trkpt lat="42.6285346" lon="12.9482339"><ele>817.0</ele><time>2026-05-01T13:48:56.498Z</time></trkpt><trkpt lat="42.6283701" lon="12.948339"><ele>823.6666666666666</ele><time>2026-05-01T13:48:57.499Z</time></trkpt><trkpt lat="42.6282252" lon="12.9484292"><ele>830.3333333333333</ele><time>2026-05-01T13:48:58.5Z</time></trkpt><trkpt lat="42.6280866" lon="12.9484833"><ele>837.0</ele><time>2026-05-01T13:48:59.495Z</time></trkpt><trkpt lat="42.6279349" lon="12.9485156"><ele>839.3333333333333</ele><time>2026-05-01T13:49:00.497Z</time></trkpt><trkpt lat="42.6277766" lon="12.9485165"><ele>841.6666666666666</ele><time>2026-05-01T13:49:01.494Z</time></trkpt><trkpt lat="42.6276113" lon="12.9484864"><ele>844.0</ele><time>2026-05-01T13:49:02.496Z</time></trkpt><trkpt lat="42.6274386" lon="12.9484324"><ele>840.0</ele><time>2026-05-01T13:49:03.492Z</time></trkpt><trkpt lat="42.627259" lon="12.9483425"><ele>836.0</ele><time>2026-05-01T13:49:04.504Z</time></trkpt><trkpt lat="42.6270866" lon="12.9482519"><ele>832.0</ele><time>2026-05-01T13:49:05.495Z</time></trkpt><trkpt lat="42.626908" lon="12.9481521"><ele>832.0</ele><time>2026-05-01T13:49:06.506Z</time></trkpt><trkpt lat="42.6267186" lon="12.948084"><ele>832.0</ele><time>2026-05-01T13:49:07.494Z</time></trkpt><trkpt lat="42.626533" lon="12.9480697"><ele>832.0</ele><time>2026-05-01T13:49:08.495Z</time></trkpt><trkpt lat="42.6263222" lon="12.9480868"><ele>834.3333333333333</ele><time>2026-05-01T13:49:09.493Z</time></trkpt><trkpt lat="42.6261056" lon="12.9481226"><ele>836.6666666666667</ele><time>2026-05-01T13:49:10.5Z</time></trkpt><trkpt lat="42.625901" lon="12.9481653"><ele>839.0</ele><time>2026-05-01T13:49:11.501Z</time></trkpt><trkpt lat="42.625702" lon="12.9482117"><ele>839.0</ele><time>2026-05-01T13:49:12.496Z</time></trkpt><trkpt lat="42.6255172" lon="12.9482364"><ele>839.0</ele><time>2026-05-01T13:49:13.508Z</time></trkpt><trkpt lat="42.6253285" lon="12.9482422"><ele>839.0</ele><time>2026-05-01T13:49:14.5Z</time></trkpt><trkpt lat="42.6251372" lon="12.9482085"><ele>839.0</ele><time>2026-05-01T13:49:15.5Z</time></trkpt><trkpt lat="42.6249329" lon="12.9481684"><ele>839.0</ele><time>2026-05-01T13:49:16.501Z</time></trkpt><trkpt lat="42.6247156" lon="12.9481105"><ele>839.0</ele><time>2026-05-01T13:49:17.497Z</time></trkpt><trkpt lat="42.6244896" lon="12.9480537"><ele>841.5</ele><time>2026-05-01T13:49:18.496Z</time></trkpt><trkpt lat="42.6242632" lon="12.9479971"><ele>844.0</ele><time>2026-05-01T13:49:19.496Z</time></trkpt><trkpt lat="42.6240439" lon="12.9479544"><ele>844.0</ele><time>2026-05-01T13:49:20.505Z</time></trkpt><trkpt lat="42.623838" lon="12.9479046"><ele>844.0</ele><time>2026-05-01T13:49:21.493Z</time></trkpt><trkpt lat="42.6236318" lon="12.9478557"><ele>844.0</ele><time>2026-05-01T13:49:22.499Z</time></trkpt><trkpt lat="42.6234232" lon="12.9478213"><ele>847.0</ele><time>2026-05-01T13:49:23.495Z</time></trkpt><trkpt lat="42.623198" lon="12.9478112"><ele>850.0</ele><time>2026-05-01T13:49:24.502Z</time></trkpt><trkpt lat="42.6229587" lon="12.9478134"><ele>850.0</ele><time>2026-05-01T13:49:25.5Z</time></trkpt><trkpt lat="42.6227288" lon="12.9478283"><ele>850.0</ele><time>2026-05-01T13:49:26.499Z</time></trkpt><trkpt lat="42.6225184" lon="12.9478436"><ele>850.0</ele><time>2026-05-01T13:49:27.505Z</time></trkpt><trkpt lat="42.622312" lon="12.9478484"><ele>850.0</ele><time>2026-05-01T13:49:28.499Z</time></trkpt><trkpt lat="42.6220995" lon="12.947864"><ele>850.0</ele><time>2026-05-01T13:49:29.496Z</time></trkpt><trkpt lat="42.6218767" lon="12.9478945"><ele>850.0</ele><time>2026-05-01T13:49:30.496Z</time></trkpt><trkpt lat="42.6216533" lon="12.9479864"><ele>849.5</ele><time>2026-05-01T13:49:31.491Z</time></trkpt><trkpt lat="42.6214148" lon="12.9480894"><ele>849.0</ele><time>2026-05-01T13:49:32.513Z</time></trkpt><trkpt lat="42.6211825" lon="12.9482001"><ele>846.5</ele><time>2026-05-01T13:49:33.498Z</time></trkpt><trkpt lat="42.6209602" lon="12.9483021"><ele>844.0</ele><time>2026-05-01T13:49:34.495Z</time></trkpt><trkpt lat="42.6207464" lon="12.9484091"><ele>854.0</ele><time>2026-05-01T13:49:35.493Z</time></trkpt><trkpt lat="42.6205276" lon="12.9485029"><ele>864.0</ele><time>2026-05-01T13:49:36.509Z</time></trkpt><trkpt lat="42.6203095" lon="12.9485828"><ele>864.0</ele><time>2026-05-01T13:49:37.5Z</time></trkpt><trkpt lat="42.6200719" lon="12.9486231"><ele>864.0</ele><time>2026-05-01T13:49:38.506Z</time></trkpt><trkpt lat="42.6198432" lon="12.948656"><ele>864.0</ele><time>2026-05-01T13:49:39.488Z</time></trkpt><trkpt lat="42.6196525" lon="12.9486568"><ele>864.0</ele><time>2026-05-01T13:49:40.499Z</time></trkpt><trkpt lat="42.6194583" lon="12.9486835"><ele>864.0</ele><time>2026-05-01T13:49:41.496Z</time></trkpt><trkpt lat="42.6192629" lon="12.9487454"><ele>861.6666666666667</ele><time>2026-05-01T13:49:42.502Z</time></trkpt><trkpt lat="42.6190779" lon="12.9488419"><ele>859.3333333333334</ele><time>2026-05-01T13:49:43.499Z</time></trkpt><trkpt lat="42.6189102" lon="12.948979"><ele>857.0</ele><time>2026-05-01T13:49:44.5Z</time></trkpt><trkpt lat="42.6187235" lon="12.94913"><ele>858.3333333333334</ele><time>2026-05-01T13:49:45.491Z</time></trkpt><trkpt lat="42.6185389" lon="12.9492777"><ele>859.6666666666667</ele><time>2026-05-01T13:49:46.495Z</time></trkpt><trkpt lat="42.6183623" lon="12.949427"><ele>861.0</ele><time>2026-05-01T13:49:47.497Z</time></trkpt><trkpt lat="42.6182009" lon="12.9495699"><ele>861.0</ele><time>2026-05-01T13:49:48.497Z</time></trkpt><trkpt lat="42.6180581" lon="12.949679"><ele>861.0</ele><time>2026-05-01T13:49:49.506Z</time></trkpt><trkpt lat="42.6179098" lon="12.9497416"><ele>861.0</ele><time>2026-05-01T13:49:50.497Z</time></trkpt><trkpt lat="42.6177431" lon="12.9497432"><ele>859.0</ele><time>2026-05-01T13:49:51.502Z</time></trkpt><trkpt lat="42.6175714" lon="12.9497443"><ele>857.0</ele><time>2026-05-01T13:49:52.507Z</time></trkpt><trkpt lat="42.6173716" lon="12.9497389"><ele>855.0</ele><time>2026-05-01T13:49:53.497Z</time></trkpt><trkpt lat="42.6171677" lon="12.9497501"><ele>855.3333333333333</ele><time>2026-05-01T13:49:54.5Z</time></trkpt><trkpt lat="42.616958" lon="12.9497597"><ele>855.6666666666666</ele><time>2026-05-01T13:49:55.492Z</time></trkpt><trkpt lat="42.6167602" lon="12.9497873"><ele>856.0</ele><time>2026-05-01T13:49:56.498Z</time></trkpt><trkpt lat="42.6165719" lon="12.9498185"><ele>856.0</ele><time>2026-05-01T13:49:57.496Z</time></trkpt><trkpt lat="42.6163938" lon="12.9498673"><ele>856.0</ele><time>2026-05-01T13:49:58.511Z</time></trkpt><trkpt lat="42.6162164" lon="12.9499406"><ele>856.0</ele><time>2026-05-01T13:49:59.49Z</time></trkpt><trkpt lat="42.6160485" lon="12.9500355"><ele>864.0</ele><time>2026-05-01T13:50:00.497Z</time></trkpt><trkpt lat="42.6158699" lon="12.950117"><ele>872.0</ele><time>2026-05-01T13:50:01.504Z</time></trkpt><trkpt lat="42.6156648" lon="12.9501609"><ele>880.0</ele><time>2026-05-01T13:50:02.496Z</time></trkpt><trkpt lat="42.6154498" lon="12.9501856"><ele>881.3333333333333</ele><time>2026-05-01T13:50:03.497Z</time></trkpt><trkpt lat="42.615231" lon="12.9502173"><ele>882.6666666666667</ele><time>2026-05-01T13:50:04.49Z</time></trkpt><trkpt lat="42.6150094" lon="12.9502616"><ele>884.0</ele><time>2026-05-01T13:50:05.493Z</time></trkpt><trkpt lat="42.6148085" lon="12.9502804"><ele>884.0</ele><time>2026-05-01T13:50:06.501Z</time></trkpt><trkpt lat="42.6146287" lon="12.9503141"><ele>884.0</ele><time>2026-05-01T13:50:07.498Z</time></trkpt><trkpt lat="42.614466" lon="12.9503225"><ele>884.0</ele><time>2026-05-01T13:50:08.504Z</time></trkpt><trkpt lat="42.6143075" lon="12.9503288"><ele>883.6666666666667</ele><time>2026-05-01T13:50:09.492Z</time></trkpt><trkpt lat="42.6141396" lon="12.9503564"><ele>883.3333333333333</ele><time>2026-05-01T13:50:10.495Z</time></trkpt><trkpt lat="42.6139584" lon="12.9503851"><ele>883.0</ele><time>2026-05-01T13:50:11.488Z</time></trkpt><trkpt lat="42.6137768" lon="12.9504078"><ele>882.3333333333333</ele><time>2026-05-01T13:50:12.512Z</time></trkpt><trkpt lat="42.6136164" lon="12.9504401"><ele>881.6666666666667</ele><time>2026-05-01T13:50:13.493Z</time></trkpt><trkpt lat="42.6134673" lon="12.95046"><ele>881.0</ele><time>2026-05-01T13:50:14.5Z</time></trkpt><trkpt lat="42.6133008" lon="12.9504653"><ele>881.0</ele><time>2026-05-01T13:50:15.497Z</time></trkpt><trkpt lat="42.6131236" lon="12.9504802"><ele>881.0</ele><time>2026-05-01T13:50:16.496Z</time></trkpt><trkpt lat="42.612954" lon="12.9504801"><ele>881.0</ele><time>2026-05-01T13:50:17.499Z</time></trkpt><trkpt lat="42.6127836" lon="12.9504827"><ele>881.0</ele><time>2026-05-01T13:50:18.499Z</time></trkpt><trkpt lat="42.6126126" lon="12.9504788"><ele>881.0</ele><time>2026-05-01T13:50:19.494Z</time></trkpt><trkpt lat="42.6124403" lon="12.9504339"><ele>881.0</ele><time>2026-05-01T13:50:20.501Z</time></trkpt><trkpt lat="42.6122624" lon="12.9503685"><ele>881.0</ele><time>2026-05-01T13:50:21.502Z</time></trkpt><trkpt lat="42.6120929" lon="12.9502748"><ele>881.0</ele><time>2026-05-01T13:50:22.499Z</time></trkpt><trkpt lat="42.6119372" lon="12.9501243"><ele>881.0</ele><time>2026-05-01T13:50:23.498Z</time></trkpt><trkpt lat="42.6118162" lon="12.9499575"><ele>880.0</ele><time>2026-05-01T13:50:24.499Z</time></trkpt><trkpt lat="42.6116946" lon="12.9498116"><ele>879.0</ele><time>2026-05-01T13:50:25.493Z</time></trkpt><trkpt lat="42.6115505" lon="12.9497097"><ele>878.0</ele><time>2026-05-01T13:50:26.503Z</time></trkpt><trkpt lat="42.6113828" lon="12.9496716"><ele>878.0</ele><time>2026-05-01T13:50:27.496Z</time></trkpt><trkpt lat="42.6112089" lon="12.9496467"><ele>878.0</ele><time>2026-05-01T13:50:28.499Z</time></trkpt><trkpt lat="42.6110479" lon="12.9496152"><ele>878.0</ele><time>2026-05-01T13:50:29.49Z</time></trkpt><trkpt lat="42.6108831" lon="12.9495761"><ele>879.3333333333334</ele><time>2026-05-01T13:50:30.489Z</time></trkpt><trkpt lat="42.6107267" lon="12.9494803"><ele>880.6666666666667</ele><time>2026-05-01T13:50:31.512Z</time></trkpt><trkpt lat="42.6105785" lon="12.9493581"><ele>882.0</ele><time>2026-05-01T13:50:32.5Z</time></trkpt><trkpt lat="42.6104424" lon="12.9492143"><ele>881.75</ele><time>2026-05-01T13:50:33.498Z</time></trkpt><trkpt lat="42.6103196" lon="12.9490807"><ele>881.5</ele><time>2026-05-01T13:50:34.496Z</time></trkpt><trkpt lat="42.6101977" lon="12.9489705"><ele>881.25</ele><time>2026-05-01T13:50:35.5Z</time></trkpt><trkpt lat="42.6100821" lon="12.9488742"><ele>881.0</ele><time>2026-05-01T13:50:36.503Z</time></trkpt><trkpt lat="42.6099604" lon="12.9487876"><ele>881.0</ele><time>2026-05-01T13:50:37.496Z</time></trkpt><trkpt lat="42.6098346" lon="12.9487493"><ele>881.0</ele><time>2026-05-01T13:50:38.51Z</time></trkpt><trkpt lat="42.6097024" lon="12.948768"><ele>881.0</ele><time>2026-05-01T13:50:39.495Z</time></trkpt><trkpt lat="42.60957" lon="12.9488155"><ele>881.0</ele><time>2026-05-01T13:50:40.492Z</time></trkpt><trkpt lat="42.60943" lon="12.9489122"><ele>881.0</ele><time>2026-05-01T13:50:41.495Z</time></trkpt><trkpt lat="42.6092683" lon="12.9490092"><ele>881.0</ele><time>2026-05-01T13:50:42.499Z</time></trkpt><trkpt lat="42.6091004" lon="12.949102"><ele>881.0</ele><time>2026-05-01T13:50:43.507Z</time></trkpt><trkpt lat="42.6089238" lon="12.9491947"><ele>887.0</ele><time>2026-05-01T13:50:44.504Z</time></trkpt><trkpt lat="42.6087377" lon="12.9492658"><ele>893.0</ele><time>2026-05-01T13:50:45.496Z</time></trkpt><trkpt lat="42.6085535" lon="12.9493218"><ele>899.0</ele><time>2026-05-01T13:50:46.5Z</time></trkpt><trkpt lat="42.6083902" lon="12.9493722"><ele>899.0</ele><time>2026-05-01T13:50:47.498Z</time></trkpt><trkpt lat="42.60823" lon="12.9493808"><ele>899.0</ele><time>2026-05-01T13:50:48.5Z</time></trkpt><trkpt lat="42.6080885" lon="12.9493565"><ele>899.0</ele><time>2026-05-01T13:50:49.493Z</time></trkpt><trkpt lat="42.6079799" lon="12.9492683"><ele>899.0</ele><time>2026-05-01T13:50:50.497Z</time></trkpt><trkpt lat="42.607902" lon="12.9491516"><ele>895.25</ele><time>2026-05-01T13:50:51.505Z</time></trkpt><trkpt lat="42.6077921" lon="12.9490819"><ele>891.5</ele><time>2026-05-01T13:50:52.491Z</time></trkpt><trkpt lat="42.6076655" lon="12.9490755"><ele>887.75</ele><time>2026-05-01T13:50:53.499Z</time></trkpt><trkpt lat="42.6075203" lon="12.9490992"><ele>884.0</ele><time>2026-05-01T13:50:54.501Z</time></trkpt><trkpt lat="42.6073712" lon="12.9491473"><ele>884.0</ele><time>2026-05-01T13:50:55.505Z</time></trkpt><trkpt lat="42.6072174" lon="12.9491945"><ele>884.0</ele><time>2026-05-01T13:50:56.501Z</time></trkpt><trkpt lat="42.6070482" lon="12.9492279"><ele>884.0</ele><time>2026-05-01T13:50:57.5Z</time></trkpt><trkpt lat="42.6068844" lon="12.949268"><ele>890.3333333333334</ele><time>2026-05-01T13:50:58.494Z</time></trkpt><trkpt lat="42.6067258" lon="12.9492926"><ele>896.6666666666667</ele><time>2026-05-01T13:50:59.5Z</time></trkpt><trkpt lat="42.6065627" lon="12.9493166"><ele>903.0</ele><time>2026-05-01T13:51:00.499Z</time></trkpt><trkpt lat="42.606397" lon="12.9493073"><ele>903.0</ele><time>2026-05-01T13:51:01.502Z</time></trkpt><trkpt lat="42.6062429" lon="12.9492871"><ele>903.0</ele><time>2026-05-01T13:51:02.503Z</time></trkpt><trkpt lat="42.6060822" lon="12.9492725"><ele>903.0</ele><time>2026-05-01T13:51:03.493Z</time></trkpt><trkpt lat="42.6059143" lon="12.9492956"><ele>903.3333333333333</ele><time>2026-05-01T13:51:04.494Z</time></trkpt><trkpt lat="42.6057437" lon="12.9493074"><ele>903.6666666666666</ele><time>2026-05-01T13:51:05.499Z</time></trkpt><trkpt lat="42.6055651" lon="12.9493391"><ele>904.0</ele><time>2026-05-01T13:51:06.497Z</time></trkpt><trkpt lat="42.6053881" lon="12.949362"><ele>903.3333333333333</ele><time>2026-05-01T13:51:07.495Z</time></trkpt><trkpt lat="42.6052021" lon="12.9493681"><ele>902.6666666666667</ele><time>2026-05-01T13:51:08.497Z</time></trkpt><trkpt lat="42.6050174" lon="12.949369"><ele>902.0</ele><time>2026-05-01T13:51:09.505Z</time></trkpt><trkpt lat="42.6048325" lon="12.949376"><ele>902.0</ele><time>2026-05-01T13:51:10.492Z</time></trkpt><trkpt lat="42.6046455" lon="12.9493926"><ele>902.0</ele><time>2026-05-01T13:51:11.493Z</time></trkpt><trkpt lat="42.6044566" lon="12.9494252"><ele>902.0</ele><time>2026-05-01T13:51:12.501Z</time></trkpt><trkpt lat="42.6042772" lon="12.9494739"><ele>900.6666666666667</ele><time>2026-05-01T13:51:13.501Z</time></trkpt><trkpt lat="42.6040891" lon="12.9495609"><ele>899.3333333333333</ele><time>2026-05-01T13:51:14.497Z</time></trkpt><trkpt lat="42.6038991" lon="12.9496654"><ele>898.0</ele><time>2026-05-01T13:51:15.495Z</time></trkpt><trkpt lat="42.6037099" lon="12.9497874"><ele>896.3333333333333</ele><time>2026-05-01T13:51:16.495Z</time></trkpt><trkpt lat="42.6035295" lon="12.949914"><ele>894.6666666666667</ele><time>2026-05-01T13:51:17.495Z</time></trkpt><trkpt lat="42.6033535" lon="12.9500689"><ele>893.0</ele><time>2026-05-01T13:51:18.502Z</time></trkpt><trkpt lat="42.6031752" lon="12.9502342"><ele>894.0</ele><time>2026-05-01T13:51:19.493Z</time></trkpt><trkpt lat="42.6029943" lon="12.9503855"><ele>895.0</ele><time>2026-05-01T13:51:20.495Z</time></trkpt><trkpt lat="42.6028084" lon="12.9505367"><ele>896.0</ele><time>2026-05-01T13:51:21.507Z</time></trkpt><trkpt lat="42.6026401" lon="12.9506825"><ele>896.0</ele><time>2026-05-01T13:51:22.5Z</time></trkpt><trkpt lat="42.602491" lon="12.9508356"><ele>896.0</ele><time>2026-05-01T13:51:23.496Z</time></trkpt><trkpt lat="42.6023738" lon="12.950995"><ele>896.0</ele><time>2026-05-01T13:51:24.502Z</time></trkpt><trkpt lat="42.6022538" lon="12.951176"><ele>901.6666666666667</ele><time>2026-05-01T13:51:25.511Z</time></trkpt><trkpt lat="42.60213" lon="12.9513715"><ele>907.3333333333333</ele><time>2026-05-01T13:51:26.494Z</time></trkpt><trkpt lat="42.602005" lon="12.9515729"><ele>913.0</ele><time>2026-05-01T13:51:27.491Z</time></trkpt><trkpt lat="42.6018581" lon="12.9517647"><ele>913.0</ele><time>2026-05-01T13:51:28.502Z</time></trkpt><trkpt lat="42.6016949" lon="12.9519459"><ele>913.0</ele><time>2026-05-01T13:51:29.502Z</time></trkpt><trkpt lat="42.6015219" lon="12.9521069"><ele>913.0</ele><time>2026-05-01T13:51:30.494Z</time></trkpt><trkpt lat="42.6013446" lon="12.9522559"><ele>915.0</ele><time>2026-05-01T13:51:31.496Z</time></trkpt><trkpt lat="42.6011639" lon="12.9524032"><ele>917.0</ele><time>2026-05-01T13:51:32.504Z</time></trkpt><trkpt lat="42.6009894" lon="12.9525348"><ele>919.0</ele><time>2026-05-01T13:51:33.497Z</time></trkpt><trkpt lat="42.6008124" lon="12.9526624"><ele>919.0</ele><time>2026-05-01T13:51:34.508Z</time></trkpt><trkpt lat="42.6006417" lon="12.9528091"><ele>919.0</ele><time>2026-05-01T13:51:35.493Z</time></trkpt><trkpt lat="42.6004793" lon="12.9529756"><ele>919.0</ele><time>2026-05-01T13:51:36.496Z</time></trkpt><trkpt lat="42.6003105" lon="12.9531492"><ele>918.0</ele><time>2026-05-01T13:51:37.495Z</time></trkpt><trkpt lat="42.600153" lon="12.9533354"><ele>917.0</ele><time>2026-05-01T13:51:38.496Z</time></trkpt><trkpt lat="42.5999978" lon="12.9535132"><ele>916.0</ele><time>2026-05-01T13:51:39.503Z</time></trkpt><trkpt lat="42.5998418" lon="12.9537028"><ele>916.0</ele><time>2026-05-01T13:51:40.492Z</time></trkpt><trkpt lat="42.5996907" lon="12.9538967"><ele>916.0</ele><time>2026-05-01T13:51:41.5Z</time></trkpt><trkpt lat="42.5995408" lon="12.9540873"><ele>916.0</ele><time>2026-05-01T13:51:42.504Z</time></trkpt><trkpt lat="42.5994048" lon="12.9542678"><ele>911.6666666666666</ele><time>2026-05-01T13:51:43.502Z</time></trkpt><trkpt lat="42.5992758" lon="12.9544267"><ele>907.3333333333333</ele><time>2026-05-01T13:51:44.508Z</time></trkpt><trkpt lat="42.5991457" lon="12.9545613"><ele>903.0</ele><time>2026-05-01T13:51:45.495Z</time></trkpt><trkpt lat="42.5990046" lon="12.9546578"><ele>903.0</ele><time>2026-05-01T13:51:46.504Z</time></trkpt><trkpt lat="42.5988583" lon="12.9547138"><ele>903.0</ele><time>2026-05-01T13:51:47.501Z</time></trkpt><trkpt lat="42.5987021" lon="12.9547551"><ele>903.0</ele><time>2026-05-01T13:51:48.497Z</time></trkpt><trkpt lat="42.5985385" lon="12.954786"><ele>902.0</ele><time>2026-05-01T13:51:49.503Z</time></trkpt><trkpt lat="42.5983609" lon="12.9547809"><ele>901.0</ele><time>2026-05-01T13:51:50.505Z</time></trkpt><trkpt lat="42.59818" lon="12.9547848"><ele>900.0</ele><time>2026-05-01T13:51:51.506Z</time></trkpt><trkpt lat="42.5979926" lon="12.9547734"><ele>900.3333333333333</ele><time>2026-05-01T13:51:52.495Z</time></trkpt><trkpt lat="42.5978084" lon="12.9547397"><ele>900.6666666666666</ele><time>2026-05-01T13:51:53.496Z</time></trkpt><trkpt lat="42.5976222" lon="12.9547072"><ele>901.0</ele><time>2026-05-01T13:51:54.492Z</time></trkpt><trkpt lat="42.5974416" lon="12.9546676"><ele>901.0</ele><time>2026-05-01T13:51:55.501Z</time></trkpt><trkpt lat="42.5972678" lon="12.9546272"><ele>901.0</ele><time>2026-05-01T13:51:56.496Z</time></trkpt><trkpt lat="42.5970892" lon="12.9546196"><ele>901.0</ele><time>2026-05-01T13:51:57.506Z</time></trkpt><trkpt lat="42.5969048" lon="12.9546372"><ele>901.3333333333333</ele><time>2026-05-01T13:51:58.501Z</time></trkpt><trkpt lat="42.5967176" lon="12.9546666"><ele>901.6666666666667</ele><time>2026-05-01T13:51:59.495Z</time></trkpt><trkpt lat="42.5965376" lon="12.954721"><ele>902.0</ele><time>2026-05-01T13:52:00.495Z</time></trkpt><trkpt lat="42.5963592" lon="12.9547738"><ele>902.0</ele><time>2026-05-01T13:52:01.498Z</time></trkpt><trkpt lat="42.5961714" lon="12.9548256"><ele>902.0</ele><time>2026-05-01T13:52:02.502Z</time></trkpt><trkpt lat="42.5959848" lon="12.9548727"><ele>902.0</ele><time>2026-05-01T13:52:03.498Z</time></trkpt><trkpt lat="42.5958034" lon="12.9549174"><ele>902.6666666666667</ele><time>2026-05-01T13:52:04.497Z</time></trkpt><trkpt lat="42.5956214" lon="12.9549644"><ele>903.3333333333333</ele><time>2026-05-01T13:52:05.492Z</time></trkpt><trkpt lat="42.5954344" lon="12.9550214"><ele>904.0</ele><time>2026-05-01T13:52:06.508Z</time></trkpt><trkpt lat="42.5952478" lon="12.9550806"><ele>904.3333333333333</ele><time>2026-05-01T13:52:07.495Z</time></trkpt><trkpt lat="42.5950608" lon="12.9551437"><ele>904.6666666666667</ele><time>2026-05-01T13:52:08.502Z</time></trkpt><trkpt lat="42.5948753" lon="12.9552098"><ele>905.0</ele><time>2026-05-01T13:52:09.506Z</time></trkpt><trkpt lat="42.5946891" lon="12.9552661"><ele>905.3333333333334</ele><time>2026-05-01T13:52:10.506Z</time></trkpt><trkpt lat="42.5944978" lon="12.9553142"><ele>905.6666666666667</ele><time>2026-05-01T13:52:11.502Z</time></trkpt><trkpt lat="42.5943173" lon="12.9553643"><ele>906.0</ele><time>2026-05-01T13:52:12.501Z</time></trkpt><trkpt lat="42.5941296" lon="12.9554011"><ele>906.0</ele><time>2026-05-01T13:52:13.504Z</time></trkpt><trkpt lat="42.5939356" lon="12.9554506"><ele>906.0</ele><time>2026-05-01T13:52:14.494Z</time></trkpt><trkpt lat="42.593749" lon="12.9555048"><ele>906.0</ele><time>2026-05-01T13:52:15.494Z</time></trkpt><trkpt lat="42.5935608" lon="12.9555612"><ele>906.0</ele><time>2026-05-01T13:52:16.494Z</time></trkpt><trkpt lat="42.5933762" lon="12.9556276"><ele>906.0</ele><time>2026-05-01T13:52:17.504Z</time></trkpt><trkpt lat="42.5931874" lon="12.9556855"><ele>906.0</ele><time>2026-05-01T13:52:18.504Z</time></trkpt><trkpt lat="42.5930048" lon="12.9557344"><ele>906.0</ele><time>2026-05-01T13:52:19.496Z</time></trkpt><trkpt lat="42.5928175" lon="12.9557866"><ele>906.0</ele><time>2026-05-01T13:52:20.5Z</time></trkpt><trkpt lat="42.5926377" lon="12.9558333"><ele>906.0</ele><time>2026-05-01T13:52:21.51Z</time></trkpt><trkpt lat="42.59246" lon="12.9558809"><ele>906.0</ele><time>2026-05-01T13:52:22.494Z</time></trkpt><trkpt lat="42.5922749" lon="12.9559404"><ele>906.0</ele><time>2026-05-01T13:52:23.497Z</time></trkpt><trkpt lat="42.5920959" lon="12.9559896"><ele>906.0</ele><time>2026-05-01T13:52:24.501Z</time></trkpt><trkpt lat="42.5919157" lon="12.9560489"><ele>907.0</ele><time>2026-05-01T13:52:25.503Z</time></trkpt><trkpt lat="42.5917332" lon="12.9561123"><ele>908.0</ele><time>2026-05-01T13:52:26.5Z</time></trkpt><trkpt lat="42.5915517" lon="12.956166"><ele>909.0</ele><time>2026-05-01T13:52:27.494Z</time></trkpt><trkpt lat="42.5913781" lon="12.9562134"><ele>909.0</ele><time>2026-05-01T13:52:28.515Z</time></trkpt><trkpt lat="42.591208" lon="12.9562567"><ele>909.0</ele><time>2026-05-01T13:52:29.498Z</time></trkpt><trkpt lat="42.5910391" lon="12.9562864"><ele>909.0</ele><time>2026-05-01T13:52:30.494Z</time></trkpt><trkpt lat="42.5908648" lon="12.9563331"><ele>909.6666666666667</ele><time>2026-05-01T13:52:31.498Z</time></trkpt><trkpt lat="42.5906919" lon="12.9563769"><ele>910.3333333333334</ele><time>2026-05-01T13:52:32.495Z</time></trkpt><trkpt lat="42.5905144" lon="12.9564225"><ele>911.0</ele><time>2026-05-01T13:52:33.5Z</time></trkpt><trkpt lat="42.5903315" lon="12.9564912"><ele>911.6666666666667</ele><time>2026-05-01T13:52:34.503Z</time></trkpt><trkpt lat="42.5901438" lon="12.9565474"><ele>912.3333333333333</ele><time>2026-05-01T13:52:35.501Z</time></trkpt><trkpt lat="42.589947" lon="12.9565965"><ele>913.0</ele><time>2026-05-01T13:52:36.499Z</time></trkpt><trkpt lat="42.5897541" lon="12.956647"><ele>913.0</ele><time>2026-05-01T13:52:37.494Z</time></trkpt><trkpt lat="42.5895726" lon="12.9566912"><ele>913.0</ele><time>2026-05-01T13:52:38.493Z</time></trkpt><trkpt lat="42.5893912" lon="12.9567292"><ele>913.0</ele><time>2026-05-01T13:52:39.495Z</time></trkpt><trkpt lat="42.5892042" lon="12.9567777"><ele>913.3333333333333</ele><time>2026-05-01T13:52:40.494Z</time></trkpt><trkpt lat="42.5890214" lon="12.9568311"><ele>913.6666666666667</ele><time>2026-05-01T13:52:41.496Z</time></trkpt><trkpt lat="42.5888354" lon="12.9568942"><ele>914.0</ele><time>2026-05-01T13:52:42.5Z</time></trkpt><trkpt lat="42.5886462" lon="12.9569573"><ele>914.6666666666667</ele><time>2026-05-01T13:52:43.5Z</time></trkpt><trkpt lat="42.5884557" lon="12.9570136"><ele>915.3333333333333</ele><time>2026-05-01T13:52:44.494Z</time></trkpt><trkpt lat="42.5882679" lon="12.9570673"><ele>916.0</ele><time>2026-05-01T13:52:45.498Z</time></trkpt><trkpt lat="42.5880788" lon="12.9571125"><ele>916.0</ele><time>2026-05-01T13:52:46.49Z</time></trkpt><trkpt lat="42.5878998" lon="12.9571554"><ele>916.0</ele><time>2026-05-01T13:52:47.49Z</time></trkpt><trkpt lat="42.5877183" lon="12.9572085"><ele>916.0</ele><time>2026-05-01T13:52:48.497Z</time></trkpt><trkpt lat="42.5875484" lon="12.9572621"><ele>916.6666666666666</ele><time>2026-05-01T13:52:49.495Z</time></trkpt><trkpt lat="42.5873794" lon="12.9573123"><ele>917.3333333333333</ele><time>2026-05-01T13:52:50.498Z</time></trkpt><trkpt lat="42.5872106" lon="12.9573634"><ele>918.0</ele><time>2026-05-01T13:52:51.502Z</time></trkpt><trkpt lat="42.5870437" lon="12.9574167"><ele>918.6666666666667</ele><time>2026-05-01T13:52:52.493Z</time></trkpt><trkpt lat="42.5868727" lon="12.95746"><ele>919.3333333333334</ele><time>2026-05-01T13:52:53.505Z</time></trkpt><trkpt lat="42.5867096" lon="12.9574991"><ele>920.0</ele><time>2026-05-01T13:52:54.498Z</time></trkpt><trkpt lat="42.5865454" lon="12.9575341"><ele>920.3333333333334</ele><time>2026-05-01T13:52:55.5Z</time></trkpt><trkpt lat="42.5863755" lon="12.9575824"><ele>920.6666666666667</ele><time>2026-05-01T13:52:56.491Z</time></trkpt><trkpt lat="42.5861976" lon="12.9576327"><ele>921.0</ele><time>2026-05-01T13:52:57.496Z</time></trkpt><trkpt lat="42.5860196" lon="12.9576895"><ele>922.0</ele><time>2026-05-01T13:52:58.505Z</time></trkpt><trkpt lat="42.5858401" lon="12.9577487"><ele>923.0</ele><time>2026-05-01T13:52:59.496Z</time></trkpt><trkpt lat="42.5856591" lon="12.957807"><ele>924.0</ele><time>2026-05-01T13:53:00.495Z</time></trkpt><trkpt lat="42.5854773" lon="12.9578612"><ele>924.3333333333333</ele><time>2026-05-01T13:53:01.487Z</time></trkpt><trkpt lat="42.5852874" lon="12.9579071"><ele>924.6666666666666</ele><time>2026-05-01T13:53:02.495Z</time></trkpt><trkpt lat="42.5850961" lon="12.9579537"><ele>925.0</ele><time>2026-05-01T13:53:03.504Z</time></trkpt><trkpt lat="42.5849034" lon="12.9579991"><ele>925.0</ele><time>2026-05-01T13:53:04.492Z</time></trkpt><trkpt lat="42.5847092" lon="12.9580505"><ele>925.0</ele><time>2026-05-01T13:53:05.501Z</time></trkpt><trkpt lat="42.5845274" lon="12.9581056"><ele>925.0</ele><time>2026-05-01T13:53:06.495Z</time></trkpt><trkpt lat="42.5843426" lon="12.9581576"><ele>925.6666666666666</ele><time>2026-05-01T13:53:07.505Z</time></trkpt><trkpt lat="42.5841675" lon="12.9582139"><ele>926.3333333333333</ele><time>2026-05-01T13:53:08.497Z</time></trkpt><trkpt lat="42.5839861" lon="12.9582668"><ele>927.0</ele><time>2026-05-01T13:53:09.495Z</time></trkpt><trkpt lat="42.583799" lon="12.9583113"><ele>927.0</ele><time>2026-05-01T13:53:10.493Z</time></trkpt><trkpt lat="42.5836086" lon="12.9583585"><ele>927.0</ele><time>2026-05-01T13:53:11.493Z</time></trkpt><trkpt lat="42.5834381" lon="12.9584006"><ele>927.0</ele><time>2026-05-01T13:53:12.504Z</time></trkpt><trkpt lat="42.5832587" lon="12.9584438"><ele>927.0</ele><time>2026-05-01T13:53:13.495Z</time></trkpt><trkpt lat="42.5830786" lon="12.9584983"><ele>927.0</ele><time>2026-05-01T13:53:14.495Z</time></trkpt><trkpt lat="42.5828991" lon="12.9585546"><ele>927.0</ele><time>2026-05-01T13:53:15.496Z</time></trkpt><trkpt lat="42.5827244" lon="12.9586072"><ele>927.6666666666667</ele><time>2026-05-01T13:53:16.497Z</time></trkpt><trkpt lat="42.582546" lon="12.9586667"><ele>928.3333333333334</ele><time>2026-05-01T13:53:17.497Z</time></trkpt><trkpt lat="42.5823745" lon="12.9587243"><ele>929.0</ele><time>2026-05-01T13:53:18.502Z</time></trkpt><trkpt lat="42.5822039" lon="12.9587692"><ele>929.0</ele><time>2026-05-01T13:53:19.49Z</time></trkpt><trkpt lat="42.5820319" lon="12.95881"><ele>929.0</ele><time>2026-05-01T13:53:20.497Z</time></trkpt><trkpt lat="42.5818515" lon="12.9588454"><ele>929.0</ele><time>2026-05-01T13:53:21.495Z</time></trkpt><trkpt lat="42.5816613" lon="12.9588968"><ele>929.6666666666667</ele><time>2026-05-01T13:53:22.496Z</time></trkpt><trkpt lat="42.581465" lon="12.9589545"><ele>930.3333333333333</ele><time>2026-05-01T13:53:23.508Z</time></trkpt><trkpt lat="42.5812724" lon="12.9590323"><ele>931.0</ele><time>2026-05-01T13:53:24.494Z</time></trkpt><trkpt lat="42.5810803" lon="12.9590979"><ele>931.6666666666666</ele><time>2026-05-01T13:53:25.498Z</time></trkpt><trkpt lat="42.5808939" lon="12.9591596"><ele>932.3333333333333</ele><time>2026-05-01T13:53:26.503Z</time></trkpt><trkpt lat="42.5807081" lon="12.9592072"><ele>933.0</ele><time>2026-05-01T13:53:27.497Z</time></trkpt><trkpt lat="42.5805219" lon="12.9592578"><ele>933.3333333333333</ele><time>2026-05-01T13:53:28.496Z</time></trkpt><trkpt lat="42.5803429" lon="12.9592971"><ele>933.6666666666666</ele><time>2026-05-01T13:53:29.491Z</time></trkpt><trkpt lat="42.580155" lon="12.9593295"><ele>934.0</ele><time>2026-05-01T13:53:30.494Z</time></trkpt><trkpt lat="42.5799708" lon="12.9593752"><ele>934.0</ele><time>2026-05-01T13:53:31.495Z</time></trkpt><trkpt lat="42.5797873" lon="12.959426"><ele>934.0</ele><time>2026-05-01T13:53:32.509Z</time></trkpt><trkpt lat="42.5796098" lon="12.9594814"><ele>934.0</ele><time>2026-05-01T13:53:33.504Z</time></trkpt><trkpt lat="42.5794351" lon="12.9595391"><ele>934.3333333333333</ele><time>2026-05-01T13:53:34.488Z</time></trkpt><trkpt lat="42.5792624" lon="12.9595912"><ele>934.6666666666667</ele><time>2026-05-01T13:53:35.492Z</time></trkpt><trkpt lat="42.5790863" lon="12.9596333"><ele>935.0</ele><time>2026-05-01T13:53:36.496Z</time></trkpt><trkpt lat="42.5789161" lon="12.9596692"><ele>935.0</ele><time>2026-05-01T13:53:37.496Z</time></trkpt><trkpt lat="42.5787457" lon="12.9597057"><ele>935.0</ele><time>2026-05-01T13:53:38.498Z</time></trkpt><trkpt lat="42.5785741" lon="12.9597568"><ele>935.0</ele><time>2026-05-01T13:53:39.494Z</time></trkpt><trkpt lat="42.578406" lon="12.95981"><ele>935.3333333333334</ele><time>2026-05-01T13:53:40.499Z</time></trkpt><trkpt lat="42.5782326" lon="12.9598667"><ele>935.6666666666667</ele><time>2026-05-01T13:53:41.503Z</time></trkpt><trkpt lat="42.5780643" lon="12.9599187"><ele>936.0</ele><time>2026-05-01T13:53:42.496Z</time></trkpt><trkpt lat="42.5778946" lon="12.9599752"><ele>936.3333333333333</ele><time>2026-05-01T13:53:43.497Z</time></trkpt><trkpt lat="42.5777216" lon="12.9600203"><ele>936.6666666666666</ele><time>2026-05-01T13:53:44.498Z</time></trkpt><trkpt lat="42.5775521" lon="12.9600693"><ele>937.0</ele><time>2026-05-01T13:53:45.487Z</time></trkpt><trkpt lat="42.5773844" lon="12.960113"><ele>937.0</ele><time>2026-05-01T13:53:46.498Z</time></trkpt><trkpt lat="42.57722" lon="12.9601578"><ele>937.0</ele><time>2026-05-01T13:53:47.493Z</time></trkpt><trkpt lat="42.577054" lon="12.9602043"><ele>937.0</ele><time>2026-05-01T13:53:48.491Z</time></trkpt><trkpt lat="42.576887" lon="12.960254"><ele>938.3333333333333</ele><time>2026-05-01T13:53:49.497Z</time></trkpt><trkpt lat="42.5767075" lon="12.9603048"><ele>939.6666666666667</ele><time>2026-05-01T13:53:50.497Z</time></trkpt><trkpt lat="42.5765293" lon="12.960361"><ele>941.0</ele><time>2026-05-01T13:53:51.494Z</time></trkpt><trkpt lat="42.5763524" lon="12.9604139"><ele>941.3333333333334</ele><time>2026-05-01T13:53:52.502Z</time></trkpt><trkpt lat="42.5761732" lon="12.9604579"><ele>941.6666666666667</ele><time>2026-05-01T13:53:53.496Z</time></trkpt><trkpt lat="42.5760053" lon="12.9605016"><ele>942.0</ele><time>2026-05-01T13:53:54.504Z</time></trkpt><trkpt lat="42.5758355" lon="12.9605419"><ele>942.0</ele><time>2026-05-01T13:53:55.497Z</time></trkpt><trkpt lat="42.5756676" lon="12.9605904"><ele>942.0</ele><time>2026-05-01T13:53:56.495Z</time></trkpt><trkpt lat="42.5754973" lon="12.9606382"><ele>942.0</ele><time>2026-05-01T13:53:57.494Z</time></trkpt><trkpt lat="42.5753221" lon="12.9606946"><ele>942.6666666666667</ele><time>2026-05-01T13:53:58.493Z</time></trkpt><trkpt lat="42.5751517" lon="12.960758"><ele>943.3333333333334</ele><time>2026-05-01T13:53:59.494Z</time></trkpt><trkpt lat="42.5749737" lon="12.960819"><ele>944.0</ele><time>2026-05-01T13:54:00.497Z</time></trkpt><trkpt lat="42.5747883" lon="12.9608625"><ele>944.3333333333334</ele><time>2026-05-01T13:54:01.494Z</time></trkpt><trkpt lat="42.5746119" lon="12.9609077"><ele>944.6666666666667</ele><time>2026-05-01T13:54:02.498Z</time></trkpt><trkpt lat="42.5744535" lon="12.9609454"><ele>945.0</ele><time>2026-05-01T13:54:03.492Z</time></trkpt><trkpt lat="42.5742848" lon="12.9609807"><ele>945.0</ele><time>2026-05-01T13:54:04.496Z</time></trkpt><trkpt lat="42.5741209" lon="12.9610203"><ele>945.0</ele><time>2026-05-01T13:54:05.497Z</time></trkpt><trkpt lat="42.5739641" lon="12.9610625"><ele>945.0</ele><time>2026-05-01T13:54:06.501Z</time></trkpt><trkpt lat="42.5737988" lon="12.9611142"><ele>945.3333333333333</ele><time>2026-05-01T13:54:07.494Z</time></trkpt><trkpt lat="42.5736275" lon="12.9611669"><ele>945.6666666666666</ele><time>2026-05-01T13:54:08.5Z</time></trkpt><trkpt lat="42.5734575" lon="12.9612221"><ele>946.0</ele><time>2026-05-01T13:54:09.496Z</time></trkpt><trkpt lat="42.5732868" lon="12.9612702"><ele>946.0</ele><time>2026-05-01T13:54:10.49Z</time></trkpt><trkpt lat="42.5731305" lon="12.9613127"><ele>946.0</ele><time>2026-05-01T13:54:11.489Z</time></trkpt><trkpt lat="42.572972" lon="12.9613426"><ele>946.0</ele><time>2026-05-01T13:54:12.494Z</time></trkpt><trkpt lat="42.5728205" lon="12.9613804"><ele>947.0</ele><time>2026-05-01T13:54:13.496Z</time></trkpt><trkpt lat="42.5726777" lon="12.9614168"><ele>948.0</ele><time>2026-05-01T13:54:14.489Z</time></trkpt><trkpt lat="42.572544" lon="12.9614625"><ele>949.0</ele><time>2026-05-01T13:54:15.495Z</time></trkpt><trkpt lat="42.5724186" lon="12.9615091"><ele>950.0</ele><time>2026-05-01T13:54:16.495Z</time></trkpt><trkpt lat="42.5723043" lon="12.9615466"><ele>950.0</ele><time>2026-05-01T13:54:17.501Z</time></trkpt><trkpt lat="42.5721958" lon="12.9615773"><ele>950.0</ele><time>2026-05-01T13:54:18.502Z</time></trkpt><trkpt lat="42.5721027" lon="12.9616018"><ele>950.0</ele><time>2026-05-01T13:54:19.49Z</time></trkpt><trkpt lat="42.5720088" lon="12.9615867"><ele>950.0</ele><time>2026-05-01T13:54:20.5Z</time></trkpt><trkpt lat="42.571919" lon="12.9615707"><ele>950.0</ele><time>2026-05-01T13:54:21.487Z</time></trkpt><trkpt lat="42.5718489" lon="12.9615266"><ele>950.1666666666667</ele><time>2026-05-01T13:54:22.498Z</time></trkpt><trkpt lat="42.5717905" lon="12.9614683"><ele>950.3333333333334</ele><time>2026-05-01T13:54:23.505Z</time></trkpt><trkpt lat="42.5717239" lon="12.9614236"><ele>950.5</ele><time>2026-05-01T13:54:24.495Z</time></trkpt><trkpt lat="42.5716551" lon="12.9613988"><ele>950.6666666666667</ele><time>2026-05-01T13:54:25.493Z</time></trkpt><trkpt lat="42.571576" lon="12.9613995"><ele>950.8333333333334</ele><time>2026-05-01T13:54:26.496Z</time></trkpt><trkpt lat="42.5714952" lon="12.9614285"><ele>951.0</ele><time>2026-05-01T13:54:27.504Z</time></trkpt><trkpt lat="42.5714235" lon="12.9614911"><ele>951.0</ele><time>2026-05-01T13:54:28.493Z</time></trkpt><trkpt lat="42.5713573" lon="12.9615718"><ele>950.9999999999999</ele><time>2026-05-01T13:54:29.493Z</time></trkpt><trkpt lat="42.5712845" lon="12.9616553"><ele>950.9999999999999</ele><time>2026-05-01T13:54:30.498Z</time></trkpt><trkpt lat="42.5712037" lon="12.9617363"><ele>951.0</ele><time>2026-05-01T13:54:31.49Z</time></trkpt><trkpt lat="42.5711123" lon="12.9618019"><ele>951.0</ele><time>2026-05-01T13:54:32.493Z</time></trkpt><trkpt lat="42.5710146" lon="12.9618397"><ele>950.8</ele><time>2026-05-01T13:54:33.494Z</time></trkpt><trkpt lat="42.5709137" lon="12.9618716"><ele>950.5999999999999</ele><time>2026-05-01T13:54:34.501Z</time></trkpt><trkpt lat="42.5708029" lon="12.9618953"><ele>950.4</ele><time>2026-05-01T13:54:35.494Z</time></trkpt><trkpt lat="42.5706898" lon="12.9619133"><ele>950.2</ele><time>2026-05-01T13:54:36.505Z</time></trkpt><trkpt lat="42.5705815" lon="12.9619215"><ele>950.0</ele><time>2026-05-01T13:54:37.494Z</time></trkpt><trkpt lat="42.5704782" lon="12.9619308"><ele>950.0000000000001</ele><time>2026-05-01T13:54:38.502Z</time></trkpt><trkpt lat="42.5703796" lon="12.9619422"><ele>950.0</ele><time>2026-05-01T13:54:39.49Z</time></trkpt><trkpt lat="42.5702868" lon="12.961953"><ele>950.0</ele><time>2026-05-01T13:54:40.499Z</time></trkpt><trkpt lat="42.5702061" lon="12.9619662"><ele>950.0</ele><time>2026-05-01T13:54:41.503Z</time></trkpt><trkpt lat="42.5701298" lon="12.9619808"><ele>950.0000000000001</ele><time>2026-05-01T13:54:42.506Z</time></trkpt><trkpt lat="42.5700562" lon="12.9619892"><ele>950.0</ele><time>2026-05-01T13:54:43.493Z</time></trkpt><trkpt lat="42.5699804" lon="12.9620016"><ele>950.5714285714287</ele><time>2026-05-01T13:54:44.494Z</time></trkpt><trkpt lat="42.5699107" lon="12.9620091"><ele>951.1428571428572</ele><time>2026-05-01T13:54:45.496Z</time></trkpt><trkpt lat="42.569842" lon="12.9620069"><ele>951.7142857142858</ele><time>2026-05-01T13:54:46.495Z</time></trkpt><trkpt lat="42.5697676" lon="12.9620071"><ele>952.2857142857142</ele><time>2026-05-01T13:54:47.503Z</time></trkpt><trkpt lat="42.5696956" lon="12.9620106"><ele>952.8571428571428</ele><time>2026-05-01T13:54:48.498Z</time></trkpt><trkpt lat="42.5696221" lon="12.9620282"><ele>953.4285714285713</ele><time>2026-05-01T13:54:49.495Z</time></trkpt><trkpt lat="42.5695512" lon="12.9620412"><ele>954.0</ele><time>2026-05-01T13:54:50.507Z</time></trkpt><trkpt lat="42.5694803" lon="12.9620539"><ele>954.2857142857142</ele><time>2026-05-01T13:54:51.5Z</time></trkpt><trkpt lat="42.569409" lon="12.9620611"><ele>954.5714285714284</ele><time>2026-05-01T13:54:52.499Z</time></trkpt><trkpt lat="42.5693432" lon="12.9620651"><ele>954.8571428571429</ele><time>2026-05-01T13:54:53.492Z</time></trkpt><trkpt lat="42.569268" lon="12.9620642"><ele>955.1428571428571</ele><time>2026-05-01T13:54:54.503Z</time></trkpt><trkpt lat="42.5691874" lon="12.9620697"><ele>955.4285714285714</ele><time>2026-05-01T13:54:55.497Z</time></trkpt><trkpt lat="42.5691141" lon="12.9620808"><ele>955.7142857142858</ele><time>2026-05-01T13:54:56.495Z</time></trkpt><trkpt lat="42.5690428" lon="12.962093"><ele>956.0000000000001</ele><time>2026-05-01T13:54:57.492Z</time></trkpt><trkpt lat="42.5689682" lon="12.9621065"><ele>956.0</ele><time>2026-05-01T13:54:58.492Z</time></trkpt><trkpt lat="42.5688841" lon="12.9621248"><ele>955.9999999999999</ele><time>2026-05-01T13:54:59.489Z</time></trkpt><trkpt lat="42.5687874" lon="12.9621379"><ele>955.9999999999999</ele><time>2026-05-01T13:55:00.499Z</time></trkpt><trkpt lat="42.5686929" lon="12.9621483"><ele>956.0</ele><time>2026-05-01T13:55:01.498Z</time></trkpt><trkpt lat="42.5685966" lon="12.9621569"><ele>956.0</ele><time>2026-05-01T13:55:02.498Z</time></trkpt><trkpt lat="42.5684953" lon="12.9621682"><ele>956.4</ele><time>2026-05-01T13:55:03.488Z</time></trkpt><trkpt lat="42.5683974" lon="12.9621834"><ele>956.8</ele><time>2026-05-01T13:55:04.494Z</time></trkpt><trkpt lat="42.568302" lon="12.9621956"><ele>957.1999999999999</ele><time>2026-05-01T13:55:05.504Z</time></trkpt><trkpt lat="42.5682102" lon="12.9622124"><ele>957.5999999999999</ele><time>2026-05-01T13:55:06.498Z</time></trkpt><trkpt lat="42.5681164" lon="12.962232"><ele>958.0</ele><time>2026-05-01T13:55:07.492Z</time></trkpt><trkpt lat="42.5680179" lon="12.9622503"><ele>958.0</ele><time>2026-05-01T13:55:08.493Z</time></trkpt><trkpt lat="42.5679164" lon="12.9622629"><ele>958.0</ele><time>2026-05-01T13:55:09.498Z</time></trkpt><trkpt lat="42.5678197" lon="12.9622717"><ele>958.0</ele><time>2026-05-01T13:55:10.503Z</time></trkpt><trkpt lat="42.5677234" lon="12.962279"><ele>958.0</ele><time>2026-05-01T13:55:11.498Z</time></trkpt><trkpt lat="42.5676249" lon="12.9622903"><ele>958.0</ele><time>2026-05-01T13:55:12.502Z</time></trkpt><trkpt lat="42.5675304" lon="12.9623057"><ele>958.4</ele><time>2026-05-01T13:55:13.493Z</time></trkpt><trkpt lat="42.5674337" lon="12.9623222"><ele>958.8</ele><time>2026-05-01T13:55:14.5Z</time></trkpt><trkpt lat="42.567335" lon="12.9623423"><ele>959.2</ele><time>2026-05-01T13:55:15.491Z</time></trkpt><trkpt lat="42.56723" lon="12.9623608"><ele>959.6</ele><time>2026-05-01T13:55:16.501Z</time></trkpt><trkpt lat="42.5671177" lon="12.9623767"><ele>960.0</ele><time>2026-05-01T13:55:17.498Z</time></trkpt><trkpt lat="42.5669989" lon="12.9623921"><ele>960.5</ele><time>2026-05-01T13:55:18.505Z</time></trkpt><trkpt lat="42.5668817" lon="12.9624095"><ele>961.0</ele><time>2026-05-01T13:55:19.494Z</time></trkpt><trkpt lat="42.5667635" lon="12.962421"><ele>961.5</ele><time>2026-05-01T13:55:20.488Z</time></trkpt><trkpt lat="42.5666514" lon="12.9624317"><ele>962.0</ele><time>2026-05-01T13:55:21.498Z</time></trkpt><trkpt lat="42.5665416" lon="12.9624464"><ele>962.0</ele><time>2026-05-01T13:55:22.497Z</time></trkpt><trkpt lat="42.5664344" lon="12.962468"><ele>962.0</ele><time>2026-05-01T13:55:23.496Z</time></trkpt><trkpt lat="42.5663263" lon="12.9624903"><ele>962.0</ele><time>2026-05-01T13:55:24.497Z</time></trkpt><trkpt lat="42.5662179" lon="12.9625139"><ele>962.0</ele><time>2026-05-01T13:55:25.506Z</time></trkpt><trkpt lat="42.5661106" lon="12.9625284"><ele>962.0</ele><time>2026-05-01T13:55:26.502Z</time></trkpt><trkpt lat="42.5660129" lon="12.9625372"><ele>962.4000000000001</ele><time>2026-05-01T13:55:27.505Z</time></trkpt><trkpt lat="42.5659134" lon="12.962543"><ele>962.8000000000001</ele><time>2026-05-01T13:55:28.494Z</time></trkpt><trkpt lat="42.5658151" lon="12.9625518"><ele>963.2</ele><time>2026-05-01T13:55:29.489Z</time></trkpt><trkpt lat="42.5657223" lon="12.9625632"><ele>963.6</ele><time>2026-05-01T13:55:30.493Z</time></trkpt><trkpt lat="42.5656318" lon="12.9625818"><ele>964.0</ele><time>2026-05-01T13:55:31.494Z</time></trkpt><trkpt lat="42.5655507" lon="12.9626017"><ele>963.9999999999999</ele><time>2026-05-01T13:55:32.504Z</time></trkpt><trkpt lat="42.5654777" lon="12.9626227"><ele>964.0</ele><time>2026-05-01T13:55:33.491Z</time></trkpt><trkpt lat="42.5654096" lon="12.962639"><ele>964.0</ele><time>2026-05-01T13:55:34.501Z</time></trkpt><trkpt lat="42.5653458" lon="12.9626516"><ele>964.0</ele><time>2026-05-01T13:55:35.506Z</time></trkpt><trkpt lat="42.5652274" lon="12.9626799"><ele>963.9999999999999</ele><time>2026-05-01T13:55:37.493Z</time></trkpt><trkpt lat="42.5651246" lon="12.9627172"><ele>964.0</ele><time>2026-05-01T13:55:39.494Z</time></trkpt><trkpt lat="42.5650017" lon="12.9627517"><ele>965.1666666666666</ele><time>2026-05-01T13:55:41.502Z</time></trkpt><trkpt lat="42.564935" lon="12.9627624"><ele>966.3333333333333</ele><time>2026-05-01T13:55:42.502Z</time></trkpt><trkpt lat="42.5648679" lon="12.962773"><ele>967.5</ele><time>2026-05-01T13:55:43.495Z</time></trkpt><trkpt lat="42.5647458" lon="12.9627801"><ele>968.6666666666667</ele><time>2026-05-01T13:55:45.492Z</time></trkpt><trkpt lat="42.5646493" lon="12.9627945"><ele>969.8333333333334</ele><time>2026-05-01T13:55:47.496Z</time></trkpt><trkpt lat="42.5645723" lon="12.9628201"><ele>971.0</ele><time>2026-05-01T13:55:49.494Z</time></trkpt><trkpt lat="42.5644871" lon="12.9628027"><ele>971.3333333333334</ele><time>2026-05-01T14:04:58.496Z</time></trkpt><trkpt lat="42.5644098" lon="12.9628397"><ele>971.6666666666667</ele><time>2026-05-01T14:05:00.491Z</time></trkpt><trkpt lat="42.5643477" lon="12.9628694"><ele>972.0</ele><time>2026-05-01T14:05:01.489Z</time></trkpt><trkpt lat="42.5642864" lon="12.9628938"><ele>972.3333333333333</ele><time>2026-05-01T14:05:02.49Z</time></trkpt><trkpt lat="42.5642061" lon="12.9629086"><ele>972.6666666666666</ele><time>2026-05-01T14:05:03.497Z</time></trkpt><trkpt lat="42.5641246" lon="12.9629383"><ele>973.0</ele><time>2026-05-01T14:05:04.491Z</time></trkpt><trkpt lat="42.564045" lon="12.9629758"><ele>972.9999999999999</ele><time>2026-05-01T14:05:05.498Z</time></trkpt><trkpt lat="42.5639662" lon="12.9630019"><ele>973.0</ele><time>2026-05-01T14:05:06.49Z</time></trkpt><trkpt lat="42.5638782" lon="12.96302"><ele>973.0</ele><time>2026-05-01T14:05:07.497Z</time></trkpt><trkpt lat="42.563796" lon="12.9630505"><ele>973.0</ele><time>2026-05-01T14:05:08.488Z</time></trkpt><trkpt lat="42.5637144" lon="12.9630821"><ele>972.9999999999999</ele><time>2026-05-01T14:05:09.494Z</time></trkpt><trkpt lat="42.5636301" lon="12.9631059"><ele>973.0</ele><time>2026-05-01T14:05:10.495Z</time></trkpt><trkpt lat="42.5635518" lon="12.9631352"><ele>973.9999999999999</ele><time>2026-05-01T14:05:11.491Z</time></trkpt><trkpt lat="42.5634719" lon="12.9631628"><ele>975.0</ele><time>2026-05-01T14:05:12.496Z</time></trkpt><trkpt lat="42.5633942" lon="12.9631972"><ele>976.0</ele><time>2026-05-01T14:05:13.49Z</time></trkpt><trkpt lat="42.5633189" lon="12.9632251"><ele>977.0</ele><time>2026-05-01T14:05:14.492Z</time></trkpt><trkpt lat="42.5632429" lon="12.9632506"><ele>977.9999999999999</ele><time>2026-05-01T14:05:15.49Z</time></trkpt><trkpt lat="42.5631753" lon="12.9632793"><ele>979.0</ele><time>2026-05-01T14:05:16.493Z</time></trkpt><trkpt lat="42.5631069" lon="12.9633124"><ele>978.9999999999999</ele><time>2026-05-01T14:05:17.492Z</time></trkpt><trkpt lat="42.5630322" lon="12.9633481"><ele>979.0</ele><time>2026-05-01T14:05:18.491Z</time></trkpt><trkpt lat="42.5629591" lon="12.9633869"><ele>979.0</ele><time>2026-05-01T14:05:19.506Z</time></trkpt><trkpt lat="42.5628921" lon="12.96342"><ele>979.0</ele><time>2026-05-01T14:05:20.495Z</time></trkpt><trkpt lat="42.5627878" lon="12.9634511"><ele>978.9999999999999</ele><time>2026-05-01T14:05:22.498Z</time></trkpt><trkpt lat="42.5627267" lon="12.963475"><ele>979.0</ele><time>2026-05-01T14:05:24.507Z</time></trkpt><trkpt lat="42.5626442" lon="12.9635297"><ele>979.1666666666666</ele><time>2026-05-01T14:05:27.488Z</time></trkpt><trkpt lat="42.5625668" lon="12.9635595"><ele>979.3333333333333</ele><time>2026-05-01T14:05:29.489Z</time></trkpt><trkpt lat="42.5624741" lon="12.963597"><ele>979.5</ele><time>2026-05-01T14:05:31.491Z</time></trkpt><trkpt lat="42.5623763" lon="12.9636249"><ele>979.6666666666667</ele><time>2026-05-01T14:05:33.491Z</time></trkpt><trkpt lat="42.562301" lon="12.9636613"><ele>979.8333333333334</ele><time>2026-05-01T14:05:35.491Z</time></trkpt><trkpt lat="42.5622378" lon="12.9636862"><ele>980.0</ele><time>2026-05-01T14:05:37.505Z</time></trkpt><trkpt lat="42.5621557" lon="12.9637136"><ele>980.0000000000001</ele><time>2026-05-01T14:05:39.493Z</time></trkpt><trkpt lat="42.5620664" lon="12.963745"><ele>980.0</ele><time>2026-05-01T14:05:41.488Z</time></trkpt><trkpt lat="42.5619862" lon="12.9637854"><ele>980.0</ele><time>2026-05-01T14:05:43.492Z</time></trkpt><trkpt lat="42.5619277" lon="12.9638226"><ele>980.0</ele><time>2026-05-01T14:05:45.493Z</time></trkpt><trkpt lat="42.5618578" lon="12.9638303"><ele>980.0000000000001</ele><time>2026-05-01T14:06:00.487Z</time></trkpt><trkpt lat="42.5618761" lon="12.9637015"><ele>980.0</ele><time>2026-05-01T14:06:04.503Z</time></trkpt><trkpt lat="42.5618642" lon="12.9635592"><ele>980.0000000000001</ele><time>2026-05-01T14:06:06.49Z</time></trkpt><trkpt lat="42.5618999" lon="12.9634674"><ele>980.0</ele><time>2026-05-01T14:06:08.501Z</time></trkpt><trkpt lat="42.5620051" lon="12.9634095"><ele>980.0</ele><time>2026-05-01T14:06:10.49Z</time></trkpt><trkpt lat="42.5620839" lon="12.9633743"><ele>980.0</ele><time>2026-05-01T14:06:11.496Z</time></trkpt><trkpt lat="42.5621642" lon="12.9633326"><ele>980.0000000000001</ele><time>2026-05-01T14:06:12.495Z</time></trkpt><trkpt lat="42.5622392" lon="12.9632917"><ele>980.0</ele><time>2026-05-01T14:06:13.497Z</time></trkpt><trkpt lat="42.5623288" lon="12.9632504"><ele>979.8</ele><time>2026-05-01T14:06:14.498Z</time></trkpt><trkpt lat="42.5624168" lon="12.9632105"><ele>979.6</ele><time>2026-05-01T14:06:15.496Z</time></trkpt><trkpt lat="42.5625177" lon="12.9631822"><ele>979.4000000000001</ele><time>2026-05-01T14:06:16.491Z</time></trkpt><trkpt lat="42.5626101" lon="12.9631448"><ele>979.2</ele><time>2026-05-01T14:06:17.485Z</time></trkpt><trkpt lat="42.5627038" lon="12.9631033"><ele>979.0</ele><time>2026-05-01T14:06:18.493Z</time></trkpt><trkpt lat="42.5627936" lon="12.96306"><ele>978.9999999999999</ele><time>2026-05-01T14:06:19.496Z</time></trkpt><trkpt lat="42.5628807" lon="12.9630192"><ele>979.0</ele><time>2026-05-01T14:06:20.491Z</time></trkpt><trkpt lat="42.5629623" lon="12.9629759"><ele>979.0</ele><time>2026-05-01T14:06:21.493Z</time></trkpt><trkpt lat="42.5630372" lon="12.9629402"><ele>979.0</ele><time>2026-05-01T14:06:22.501Z</time></trkpt><trkpt lat="42.5631085" lon="12.9629006"><ele>978.9999999999999</ele><time>2026-05-01T14:06:23.49Z</time></trkpt><trkpt lat="42.5631821" lon="12.9628621"><ele>979.0</ele><time>2026-05-01T14:06:24.498Z</time></trkpt><trkpt lat="42.5632547" lon="12.9628221"><ele>978.9999999999999</ele><time>2026-05-01T14:06:25.492Z</time></trkpt><trkpt lat="42.5633189" lon="12.9627865"><ele>979.0</ele><time>2026-05-01T14:06:26.485Z</time></trkpt><trkpt lat="42.563382" lon="12.96275"><ele>979.0</ele><time>2026-05-01T14:06:27.498Z</time></trkpt><trkpt lat="42.5634621" lon="12.9626832"><ele>979.0</ele><time>2026-05-01T14:06:29.486Z</time></trkpt><trkpt lat="42.5635019" lon="12.9625717"><ele>978.9999999999999</ele><time>2026-05-01T14:06:32.493Z</time></trkpt><trkpt lat="42.5634692" lon="12.9624824"><ele>979.0</ele><time>2026-05-01T14:06:34.505Z</time></trkpt><trkpt lat="42.5633935" lon="12.9624317"><ele>978.1666666666666</ele><time>2026-05-01T14:06:36.497Z</time></trkpt><trkpt lat="42.5633183" lon="12.9624168"><ele>977.3333333333333</ele><time>2026-05-01T14:06:37.492Z</time></trkpt><trkpt lat="42.5632394" lon="12.9623981"><ele>976.5</ele><time>2026-05-01T14:06:38.49Z</time></trkpt><trkpt lat="42.563151" lon="12.9623746"><ele>975.6666666666667</ele><time>2026-05-01T14:06:39.491Z</time></trkpt><trkpt lat="42.5630616" lon="12.9623383"><ele>974.8333333333334</ele><time>2026-05-01T14:06:40.492Z</time></trkpt><trkpt lat="42.5629673" lon="12.9622997"><ele>974.0</ele><time>2026-05-01T14:06:41.489Z</time></trkpt><trkpt lat="42.5628816" lon="12.9622414"><ele>974.3333333333334</ele><time>2026-05-01T14:06:42.502Z</time></trkpt><trkpt lat="42.5628045" lon="12.9621556"><ele>974.6666666666667</ele><time>2026-05-01T14:06:43.492Z</time></trkpt><trkpt lat="42.5627395" lon="12.9620614"><ele>975.0</ele><time>2026-05-01T14:06:44.484Z</time></trkpt><trkpt lat="42.5626989" lon="12.9619657"><ele>975.3333333333333</ele><time>2026-05-01T14:06:45.501Z</time></trkpt><trkpt lat="42.5626755" lon="12.9618669"><ele>975.6666666666666</ele><time>2026-05-01T14:06:46.492Z</time></trkpt><trkpt lat="42.5626864" lon="12.9617651"><ele>976.0</ele><time>2026-05-01T14:06:47.488Z</time></trkpt><trkpt lat="42.5627318" lon="12.9616493"><ele>976.1999999999999</ele><time>2026-05-01T14:06:48.489Z</time></trkpt><trkpt lat="42.5627945" lon="12.9615267"><ele>976.3999999999999</ele><time>2026-05-01T14:06:49.491Z</time></trkpt><trkpt lat="42.5628568" lon="12.9614045"><ele>976.6</ele><time>2026-05-01T14:06:50.49Z</time></trkpt><trkpt lat="42.5629211" lon="12.9612976"><ele>976.8</ele><time>2026-05-01T14:06:51.495Z</time></trkpt><trkpt lat="42.5629941" lon="12.961196"><ele>977.0</ele><time>2026-05-01T14:06:52.491Z</time></trkpt><trkpt lat="42.5630669" lon="12.9610897"><ele>976.8</ele><time>2026-05-01T14:06:53.497Z</time></trkpt><trkpt lat="42.5631419" lon="12.9609808"><ele>976.6</ele><time>2026-05-01T14:06:54.495Z</time></trkpt><trkpt lat="42.563222" lon="12.960881"><ele>976.3999999999999</ele><time>2026-05-01T14:06:55.485Z</time></trkpt><trkpt lat="42.5633088" lon="12.9608207"><ele>976.1999999999999</ele><time>2026-05-01T14:06:56.494Z</time></trkpt><trkpt lat="42.5634084" lon="12.9608094"><ele>976.0</ele><time>2026-05-01T14:06:57.497Z</time></trkpt><trkpt lat="42.5635094" lon="12.9608359"><ele>975.1999999999999</ele><time>2026-05-01T14:06:58.494Z</time></trkpt><trkpt lat="42.5636019" lon="12.9608837"><ele>974.3999999999999</ele><time>2026-05-01T14:06:59.487Z</time></trkpt><trkpt lat="42.5636919" lon="12.9609328"><ele>973.6</ele><time>2026-05-01T14:07:00.493Z</time></trkpt><trkpt lat="42.5637744" lon="12.9609783"><ele>972.8</ele><time>2026-05-01T14:07:01.495Z</time></trkpt><trkpt lat="42.5638653" lon="12.960997"><ele>972.0</ele><time>2026-05-01T14:07:02.488Z</time></trkpt><trkpt lat="42.5639473" lon="12.9609872"><ele>972.2</ele><time>2026-05-01T14:07:03.494Z</time></trkpt><trkpt lat="42.5640158" lon="12.9609444"><ele>972.4000000000001</ele><time>2026-05-01T14:07:04.499Z</time></trkpt><trkpt lat="42.5640711" lon="12.960862"><ele>972.5999999999999</ele><time>2026-05-01T14:07:05.491Z</time></trkpt><trkpt lat="42.5641075" lon="12.9607484"><ele>972.8</ele><time>2026-05-01T14:07:06.489Z</time></trkpt><trkpt lat="42.5641376" lon="12.9606177"><ele>973.0</ele><time>2026-05-01T14:07:07.491Z</time></trkpt><trkpt lat="42.5641673" lon="12.9604879"><ele>973.0</ele><time>2026-05-01T14:07:08.504Z</time></trkpt><trkpt lat="42.5642039" lon="12.9603569"><ele>973.0</ele><time>2026-05-01T14:07:09.49Z</time></trkpt><trkpt lat="42.5642526" lon="12.9602274"><ele>973.0</ele><time>2026-05-01T14:07:10.488Z</time></trkpt><trkpt lat="42.5643091" lon="12.9600978"><ele>973.0</ele><time>2026-05-01T14:07:11.491Z</time></trkpt><trkpt lat="42.5643825" lon="12.9600015"><ele>973.0</ele><time>2026-05-01T14:07:12.488Z</time></trkpt><trkpt lat="42.5644803" lon="12.9599412"><ele>973.4</ele><time>2026-05-01T14:07:13.491Z</time></trkpt><trkpt lat="42.5645905" lon="12.9599064"><ele>973.8</ele><time>2026-05-01T14:07:14.499Z</time></trkpt><trkpt lat="42.5646991" lon="12.9598781"><ele>974.2</ele><time>2026-05-01T14:07:15.491Z</time></trkpt><trkpt lat="42.5648087" lon="12.9598502"><ele>974.6</ele><time>2026-05-01T14:07:16.501Z</time></trkpt><trkpt lat="42.5649137" lon="12.9598171"><ele>975.0</ele><time>2026-05-01T14:07:17.488Z</time></trkpt><trkpt lat="42.565014" lon="12.9597685"><ele>975.0</ele><time>2026-05-01T14:07:18.496Z</time></trkpt><trkpt lat="42.565102" lon="12.9596958"><ele>975.0</ele><time>2026-05-01T14:07:19.487Z</time></trkpt><trkpt lat="42.5651834" lon="12.9596162"><ele>975.0</ele><time>2026-05-01T14:07:20.492Z</time></trkpt><trkpt lat="42.5652499" lon="12.9595395"><ele>975.0</ele><time>2026-05-01T14:07:21.496Z</time></trkpt><trkpt lat="42.5653009" lon="12.9594393"><ele>975.0</ele><time>2026-05-01T14:07:22.488Z</time></trkpt><trkpt lat="42.5653534" lon="12.9593159"><ele>973.5</ele><time>2026-05-01T14:07:23.506Z</time></trkpt><trkpt lat="42.5654116" lon="12.9591759"><ele>972.0</ele><time>2026-05-01T14:07:24.488Z</time></trkpt><trkpt lat="42.5654688" lon="12.9590259"><ele>970.5</ele><time>2026-05-01T14:07:25.495Z</time></trkpt><trkpt lat="42.5655304" lon="12.9588748"><ele>969.0</ele><time>2026-05-01T14:07:26.494Z</time></trkpt><trkpt lat="42.5656006" lon="12.9587114"><ele>969.0</ele><time>2026-05-01T14:07:27.488Z</time></trkpt><trkpt lat="42.5656724" lon="12.9585438"><ele>969.0</ele><time>2026-05-01T14:07:28.484Z</time></trkpt><trkpt lat="42.5657403" lon="12.9583787"><ele>969.0</ele><time>2026-05-01T14:07:29.486Z</time></trkpt><trkpt lat="42.5658017" lon="12.958215"><ele>969.0</ele><time>2026-05-01T14:07:30.491Z</time></trkpt><trkpt lat="42.5658566" lon="12.9580586"><ele>970.25</ele><time>2026-05-01T14:07:31.497Z</time></trkpt><trkpt lat="42.5659159" lon="12.9579107"><ele>971.5</ele><time>2026-05-01T14:07:32.485Z</time></trkpt><trkpt lat="42.5659816" lon="12.9577806"><ele>972.75</ele><time>2026-05-01T14:07:33.486Z</time></trkpt><trkpt lat="42.5660494" lon="12.9576612"><ele>974.0</ele><time>2026-05-01T14:07:34.489Z</time></trkpt><trkpt lat="42.5661282" lon="12.9575503"><ele>973.0</ele><time>2026-05-01T14:07:35.483Z</time></trkpt><trkpt lat="42.5662126" lon="12.9574484"><ele>972.0000000000001</ele><time>2026-05-01T14:07:36.487Z</time></trkpt><trkpt lat="42.5663025" lon="12.9573662"><ele>971.0000000000001</ele><time>2026-05-01T14:07:37.493Z</time></trkpt><trkpt lat="42.5663939" lon="12.9573098"><ele>970.0</ele><time>2026-05-01T14:07:38.503Z</time></trkpt><trkpt lat="42.5664839" lon="12.9572719"><ele>969.0</ele><time>2026-05-01T14:07:39.486Z</time></trkpt><trkpt lat="42.5665708" lon="12.9572215"><ele>969.0</ele><time>2026-05-01T14:07:40.496Z</time></trkpt><trkpt lat="42.5666524" lon="12.9571525"><ele>969.0</ele><time>2026-05-01T14:07:41.497Z</time></trkpt><trkpt lat="42.566725" lon="12.9570496"><ele>969.0</ele><time>2026-05-01T14:07:42.493Z</time></trkpt><trkpt lat="42.5667854" lon="12.9569051"><ele>969.0</ele><time>2026-05-01T14:07:43.492Z</time></trkpt><trkpt lat="42.5668354" lon="12.9567282"><ele>970.25</ele><time>2026-05-01T14:07:44.49Z</time></trkpt><trkpt lat="42.5668763" lon="12.9565454"><ele>971.5</ele><time>2026-05-01T14:07:45.487Z</time></trkpt><trkpt lat="42.5669022" lon="12.9563577"><ele>972.75</ele><time>2026-05-01T14:07:46.495Z</time></trkpt><trkpt lat="42.5668957" lon="12.956143"><ele>974.0</ele><time>2026-05-01T14:07:47.493Z</time></trkpt><trkpt lat="42.5668298" lon="12.9559165"><ele>974.6666666666667</ele><time>2026-05-01T14:07:48.49Z</time></trkpt><trkpt lat="42.5667696" lon="12.9556907"><ele>975.3333333333333</ele><time>2026-05-01T14:07:49.489Z</time></trkpt><trkpt lat="42.5667357" lon="12.9554701"><ele>976.0</ele><time>2026-05-01T14:07:50.487Z</time></trkpt><trkpt lat="42.5667373" lon="12.9552671"><ele>976.0</ele><time>2026-05-01T14:07:51.487Z</time></trkpt><trkpt lat="42.5667703" lon="12.9550607"><ele>976.0</ele><time>2026-05-01T14:07:52.502Z</time></trkpt><trkpt lat="42.566828" lon="12.9548529"><ele>976.0</ele><time>2026-05-01T14:07:53.493Z</time></trkpt><trkpt lat="42.5668966" lon="12.9546425"><ele>977.0</ele><time>2026-05-01T14:07:54.489Z</time></trkpt><trkpt lat="42.5669779" lon="12.9544469"><ele>978.0</ele><time>2026-05-01T14:07:55.486Z</time></trkpt><trkpt lat="42.5670485" lon="12.9542576"><ele>979.0</ele><time>2026-05-01T14:07:56.49Z</time></trkpt><trkpt lat="42.5671173" lon="12.9540653"><ele>977.0</ele><time>2026-05-01T14:07:57.494Z</time></trkpt><trkpt lat="42.5672026" lon="12.953909"><ele>975.0</ele><time>2026-05-01T14:07:58.494Z</time></trkpt><trkpt lat="42.5673086" lon="12.9537727"><ele>973.0</ele><time>2026-05-01T14:07:59.493Z</time></trkpt><trkpt lat="42.5674351" lon="12.9536573"><ele>971.0</ele><time>2026-05-01T14:08:00.49Z</time></trkpt><trkpt lat="42.5675772" lon="12.9535676"><ele>971.0</ele><time>2026-05-01T14:08:01.488Z</time></trkpt><trkpt lat="42.5677192" lon="12.9535046"><ele>971.0</ele><time>2026-05-01T14:08:02.487Z</time></trkpt><trkpt lat="42.5678553" lon="12.9534737"><ele>971.0</ele><time>2026-05-01T14:08:03.492Z</time></trkpt><trkpt lat="42.5679835" lon="12.9534677"><ele>971.0</ele><time>2026-05-01T14:08:04.497Z</time></trkpt><trkpt lat="42.5680992" lon="12.9534726"><ele>971.1999999999999</ele><time>2026-05-01T14:08:05.494Z</time></trkpt><trkpt lat="42.5681986" lon="12.9534558"><ele>971.3999999999999</ele><time>2026-05-01T14:08:06.493Z</time></trkpt><trkpt lat="42.568291" lon="12.953398"><ele>971.6</ele><time>2026-05-01T14:08:07.487Z</time></trkpt><trkpt lat="42.5683589" lon="12.9532823"><ele>971.8</ele><time>2026-05-01T14:08:08.496Z</time></trkpt><trkpt lat="42.5684009" lon="12.953134"><ele>972.0</ele><time>2026-05-01T14:08:09.497Z</time></trkpt><trkpt lat="42.5684089" lon="12.9529534"><ele>972.0</ele><time>2026-05-01T14:08:10.499Z</time></trkpt><trkpt lat="42.5684072" lon="12.952757"><ele>972.0</ele><time>2026-05-01T14:08:11.49Z</time></trkpt><trkpt lat="42.5684174" lon="12.9525535"><ele>972.0</ele><time>2026-05-01T14:08:12.489Z</time></trkpt><trkpt lat="42.5684565" lon="12.9523391"><ele>973.25</ele><time>2026-05-01T14:08:13.49Z</time></trkpt><trkpt lat="42.5685134" lon="12.9521625"><ele>974.5</ele><time>2026-05-01T14:08:14.492Z</time></trkpt><trkpt lat="42.5685844" lon="12.9520135"><ele>975.75</ele><time>2026-05-01T14:08:15.492Z</time></trkpt><trkpt lat="42.5686636" lon="12.9518729"><ele>977.0</ele><time>2026-05-01T14:08:16.487Z</time></trkpt><trkpt lat="42.5687613" lon="12.9517259"><ele>975.0</ele><time>2026-05-01T14:08:17.489Z</time></trkpt><trkpt lat="42.5688702" lon="12.9515577"><ele>973.0</ele><time>2026-05-01T14:08:18.49Z</time></trkpt><trkpt lat="42.5689721" lon="12.9513963"><ele>971.0</ele><time>2026-05-01T14:08:19.489Z</time></trkpt><trkpt lat="42.5690717" lon="12.9512418"><ele>971.0</ele><time>2026-05-01T14:08:20.495Z</time></trkpt><trkpt lat="42.5691586" lon="12.9510911"><ele>971.0</ele><time>2026-05-01T14:08:21.494Z</time></trkpt><trkpt lat="42.5692395" lon="12.950951"><ele>971.0</ele><time>2026-05-01T14:08:22.495Z</time></trkpt><trkpt lat="42.5693239" lon="12.9508234"><ele>971.0</ele><time>2026-05-01T14:08:23.486Z</time></trkpt><trkpt lat="42.5693993" lon="12.9507153"><ele>969.75</ele><time>2026-05-01T14:08:24.492Z</time></trkpt><trkpt lat="42.5694772" lon="12.9506044"><ele>968.5</ele><time>2026-05-01T14:08:25.49Z</time></trkpt><trkpt lat="42.5695581" lon="12.9504959"><ele>967.25</ele><time>2026-05-01T14:08:26.489Z</time></trkpt><trkpt lat="42.569639" lon="12.9503764"><ele>966.0</ele><time>2026-05-01T14:08:27.494Z</time></trkpt><trkpt lat="42.5697198" lon="12.9502581"><ele>966.0</ele><time>2026-05-01T14:08:28.494Z</time></trkpt><trkpt lat="42.5697989" lon="12.9501413"><ele>966.0</ele><time>2026-05-01T14:08:29.493Z</time></trkpt><trkpt lat="42.5698779" lon="12.9500214"><ele>966.0</ele><time>2026-05-01T14:08:30.496Z</time></trkpt><trkpt lat="42.5699585" lon="12.9499056"><ele>966.0</ele><time>2026-05-01T14:08:31.489Z</time></trkpt><trkpt lat="42.5700451" lon="12.9497972"><ele>965.75</ele><time>2026-05-01T14:08:32.493Z</time></trkpt><trkpt lat="42.5701433" lon="12.9496897"><ele>965.5</ele><time>2026-05-01T14:08:33.496Z</time></trkpt><trkpt lat="42.5702525" lon="12.9495695"><ele>965.25</ele><time>2026-05-01T14:08:34.485Z</time></trkpt><trkpt lat="42.5703752" lon="12.9494335"><ele>965.0</ele><time>2026-05-01T14:08:35.493Z</time></trkpt><trkpt lat="42.5705207" lon="12.9492718"><ele>968.0</ele><time>2026-05-01T14:08:36.491Z</time></trkpt><trkpt lat="42.5706715" lon="12.9491155"><ele>971.0</ele><time>2026-05-01T14:08:37.492Z</time></trkpt><trkpt lat="42.5707969" lon="12.9489525"><ele>974.0</ele><time>2026-05-01T14:08:38.487Z</time></trkpt><trkpt lat="42.5709061" lon="12.9488213"><ele>974.0</ele><time>2026-05-01T14:08:39.508Z</time></trkpt><trkpt lat="42.5710172" lon="12.9486931"><ele>974.0</ele><time>2026-05-01T14:08:40.501Z</time></trkpt><trkpt lat="42.5711196" lon="12.9485602"><ele>974.0</ele><time>2026-05-01T14:08:41.495Z</time></trkpt><trkpt lat="42.5712144" lon="12.9484301"><ele>974.0</ele><time>2026-05-01T14:08:42.496Z</time></trkpt><trkpt lat="42.5713189" lon="12.9482799"><ele>973.5</ele><time>2026-05-01T14:08:43.508Z</time></trkpt><trkpt lat="42.5714114" lon="12.9481208"><ele>973.0</ele><time>2026-05-01T14:08:44.499Z</time></trkpt><trkpt lat="42.5715019" lon="12.9479661"><ele>972.5</ele><time>2026-05-01T14:08:45.489Z</time></trkpt><trkpt lat="42.5715744" lon="12.947815"><ele>972.0</ele><time>2026-05-01T14:08:46.493Z</time></trkpt><trkpt lat="42.5716188" lon="12.947642"><ele>973.25</ele><time>2026-05-01T14:08:47.497Z</time></trkpt><trkpt lat="42.571654" lon="12.9474592"><ele>974.5</ele><time>2026-05-01T14:08:48.493Z</time></trkpt><trkpt lat="42.5716636" lon="12.9472746"><ele>975.75</ele><time>2026-05-01T14:08:49.484Z</time></trkpt><trkpt lat="42.5716756" lon="12.9470884"><ele>977.0</ele><time>2026-05-01T14:08:50.495Z</time></trkpt><trkpt lat="42.5717081" lon="12.946902"><ele>978.0</ele><time>2026-05-01T14:08:51.499Z</time></trkpt><trkpt lat="42.5717534" lon="12.9467006"><ele>979.0</ele><time>2026-05-01T14:08:52.498Z</time></trkpt><trkpt lat="42.5718104" lon="12.9464854"><ele>980.0</ele><time>2026-05-01T14:08:53.494Z</time></trkpt><trkpt lat="42.5718616" lon="12.9462742"><ele>980.0</ele><time>2026-05-01T14:08:54.491Z</time></trkpt><trkpt lat="42.5719059" lon="12.9460656"><ele>980.0</ele><time>2026-05-01T14:08:55.496Z</time></trkpt><trkpt lat="42.571947" lon="12.9458683"><ele>980.0</ele><time>2026-05-01T14:08:56.496Z</time></trkpt><trkpt lat="42.5719861" lon="12.9456909"><ele>980.0</ele><time>2026-05-01T14:08:57.494Z</time></trkpt><trkpt lat="42.5720143" lon="12.9455212"><ele>981.0</ele><time>2026-05-01T14:08:58.493Z</time></trkpt><trkpt lat="42.5720216" lon="12.9453494"><ele>982.0</ele><time>2026-05-01T14:08:59.494Z</time></trkpt><trkpt lat="42.5719983" lon="12.9451811"><ele>983.0</ele><time>2026-05-01T14:09:00.499Z</time></trkpt><trkpt lat="42.5719552" lon="12.9450034"><ele>984.0</ele><time>2026-05-01T14:09:01.499Z</time></trkpt><trkpt lat="42.5718956" lon="12.9448176"><ele>984.0</ele><time>2026-05-01T14:09:02.487Z</time></trkpt><trkpt lat="42.5718284" lon="12.9446428"><ele>984.0</ele><time>2026-05-01T14:09:03.489Z</time></trkpt><trkpt lat="42.5717682" lon="12.9444784"><ele>984.0</ele><time>2026-05-01T14:09:04.487Z</time></trkpt><trkpt lat="42.5717263" lon="12.9443343"><ele>984.0</ele><time>2026-05-01T14:09:05.488Z</time></trkpt><trkpt lat="42.5716927" lon="12.9442107"><ele>983.8000000000001</ele><time>2026-05-01T14:09:06.5Z</time></trkpt><trkpt lat="42.5716715" lon="12.9441004"><ele>983.6000000000001</ele><time>2026-05-01T14:09:07.49Z</time></trkpt><trkpt lat="42.571655" lon="12.9439878"><ele>983.4</ele><time>2026-05-01T14:09:08.485Z</time></trkpt><trkpt lat="42.5716489" lon="12.9438593"><ele>983.2</ele><time>2026-05-01T14:09:09.487Z</time></trkpt><trkpt lat="42.571663" lon="12.9437118"><ele>983.0</ele><time>2026-05-01T14:09:10.504Z</time></trkpt><trkpt lat="42.5716904" lon="12.9435582"><ele>983.0</ele><time>2026-05-01T14:09:11.499Z</time></trkpt><trkpt lat="42.5717233" lon="12.9433923"><ele>983.0</ele><time>2026-05-01T14:09:12.492Z</time></trkpt><trkpt lat="42.5717566" lon="12.9432277"><ele>983.0</ele><time>2026-05-01T14:09:13.503Z</time></trkpt><trkpt lat="42.5717891" lon="12.9430602"><ele>983.0</ele><time>2026-05-01T14:09:14.497Z</time></trkpt><trkpt lat="42.5718204" lon="12.9428864"><ele>983.5</ele><time>2026-05-01T14:09:15.489Z</time></trkpt><trkpt lat="42.5718566" lon="12.9427157"><ele>984.0</ele><time>2026-05-01T14:09:16.497Z</time></trkpt><trkpt lat="42.5719006" lon="12.9425494"><ele>984.5</ele><time>2026-05-01T14:09:17.498Z</time></trkpt><trkpt lat="42.5719485" lon="12.9423811"><ele>985.0</ele><time>2026-05-01T14:09:18.489Z</time></trkpt><trkpt lat="42.5719974" lon="12.9422057"><ele>983.0</ele><time>2026-05-01T14:09:19.496Z</time></trkpt><trkpt lat="42.5720516" lon="12.9420406"><ele>981.0</ele><time>2026-05-01T14:09:20.498Z</time></trkpt><trkpt lat="42.5721048" lon="12.9418831"><ele>979.0</ele><time>2026-05-01T14:09:21.486Z</time></trkpt><trkpt lat="42.5721633" lon="12.941739"><ele>977.0</ele><time>2026-05-01T14:09:22.496Z</time></trkpt><trkpt lat="42.5722363" lon="12.9416125"><ele>977.0</ele><time>2026-05-01T14:09:23.489Z</time></trkpt><trkpt lat="42.5723132" lon="12.9414923"><ele>977.0</ele><time>2026-05-01T14:09:24.489Z</time></trkpt><trkpt lat="42.5723923" lon="12.9413698"><ele>977.0</ele><time>2026-05-01T14:09:25.493Z</time></trkpt><trkpt lat="42.5724702" lon="12.941244"><ele>977.0</ele><time>2026-05-01T14:09:26.495Z</time></trkpt><trkpt lat="42.5725374" lon="12.9411158"><ele>977.0</ele><time>2026-05-01T14:09:27.495Z</time></trkpt><trkpt lat="42.572585" lon="12.9409834"><ele>977.0</ele><time>2026-05-01T14:09:28.497Z</time></trkpt><trkpt lat="42.5726153" lon="12.9408406"><ele>977.0</ele><time>2026-05-01T14:09:29.488Z</time></trkpt><trkpt lat="42.5726262" lon="12.9406859"><ele>977.0</ele><time>2026-05-01T14:09:30.485Z</time></trkpt><trkpt lat="42.5726327" lon="12.9405186"><ele>979.0</ele><time>2026-05-01T14:09:31.494Z</time></trkpt><trkpt lat="42.572632" lon="12.9403416"><ele>981.0</ele><time>2026-05-01T14:09:32.496Z</time></trkpt><trkpt lat="42.5726261" lon="12.9401688"><ele>983.0</ele><time>2026-05-01T14:09:33.498Z</time></trkpt><trkpt lat="42.5726242" lon="12.9400153"><ele>985.0</ele><time>2026-05-01T14:09:34.493Z</time></trkpt><trkpt lat="42.5726313" lon="12.9398638"><ele>986.75</ele><time>2026-05-01T14:09:35.493Z</time></trkpt><trkpt lat="42.5726507" lon="12.9397052"><ele>988.5</ele><time>2026-05-01T14:09:36.493Z</time></trkpt><trkpt lat="42.5726931" lon="12.9395475"><ele>990.25</ele><time>2026-05-01T14:09:37.488Z</time></trkpt><trkpt lat="42.5727629" lon="12.9393928"><ele>992.0</ele><time>2026-05-01T14:09:38.497Z</time></trkpt><trkpt lat="42.5728483" lon="12.9392388"><ele>988.0</ele><time>2026-05-01T14:09:39.49Z</time></trkpt><trkpt lat="42.5729442" lon="12.9390876"><ele>984.0</ele><time>2026-05-01T14:09:40.495Z</time></trkpt><trkpt lat="42.5730609" lon="12.93896"><ele>980.0</ele><time>2026-05-01T14:09:41.485Z</time></trkpt><trkpt lat="42.5731993" lon="12.9388596"><ele>980.0</ele><time>2026-05-01T14:09:42.495Z</time></trkpt><trkpt lat="42.5733299" lon="12.9387559"><ele>980.0</ele><time>2026-05-01T14:09:43.488Z</time></trkpt><trkpt lat="42.573449" lon="12.9386454"><ele>980.0</ele><time>2026-05-01T14:09:44.483Z</time></trkpt><trkpt lat="42.5735447" lon="12.9385098"><ele>980.0</ele><time>2026-05-01T14:09:45.492Z</time></trkpt><trkpt lat="42.5736052" lon="12.938334"><ele>978.25</ele><time>2026-05-01T14:09:46.488Z</time></trkpt><trkpt lat="42.5736475" lon="12.9381321"><ele>976.5</ele><time>2026-05-01T14:09:47.497Z</time></trkpt><trkpt lat="42.5736646" lon="12.9379227"><ele>974.75</ele><time>2026-05-01T14:09:48.486Z</time></trkpt><trkpt lat="42.5736768" lon="12.9377414"><ele>973.0</ele><time>2026-05-01T14:09:49.488Z</time></trkpt><trkpt lat="42.5736963" lon="12.9375867"><ele>974.2</ele><time>2026-05-01T14:09:50.492Z</time></trkpt><trkpt lat="42.5737287" lon="12.9374542"><ele>975.4</ele><time>2026-05-01T14:09:51.492Z</time></trkpt><trkpt lat="42.5737638" lon="12.9373332"><ele>976.6000000000001</ele><time>2026-05-01T14:09:52.503Z</time></trkpt><trkpt lat="42.5738128" lon="12.9372218"><ele>977.8000000000001</ele><time>2026-05-01T14:09:53.493Z</time></trkpt><trkpt lat="42.5738918" lon="12.9371468"><ele>979.0</ele><time>2026-05-01T14:09:54.499Z</time></trkpt><trkpt lat="42.5739912" lon="12.9371201"><ele>979.0</ele><time>2026-05-01T14:09:55.498Z</time></trkpt><trkpt lat="42.5741105" lon="12.9371106"><ele>979.0</ele><time>2026-05-01T14:09:56.491Z</time></trkpt><trkpt lat="42.5742275" lon="12.9370879"><ele>979.0</ele><time>2026-05-01T14:09:57.492Z</time></trkpt><trkpt lat="42.5743404" lon="12.9370422"><ele>979.0</ele><time>2026-05-01T14:09:58.491Z</time></trkpt><trkpt lat="42.57445" lon="12.9369598"><ele>978.75</ele><time>2026-05-01T14:09:59.482Z</time></trkpt><trkpt lat="42.5745541" lon="12.9368374"><ele>978.5</ele><time>2026-05-01T14:10:00.487Z</time></trkpt><trkpt lat="42.574655" lon="12.9367071"><ele>978.25</ele><time>2026-05-01T14:10:01.498Z</time></trkpt><trkpt lat="42.5747445" lon="12.9365837"><ele>978.0</ele><time>2026-05-01T14:10:02.497Z</time></trkpt><trkpt lat="42.5748085" lon="12.9364669"><ele>978.0</ele><time>2026-05-01T14:10:03.488Z</time></trkpt><trkpt lat="42.5748428" lon="12.9363684"><ele>978.0</ele><time>2026-05-01T14:10:04.495Z</time></trkpt><trkpt lat="42.5748706" lon="12.9362446"><ele>978.0</ele><time>2026-05-01T14:10:06.49Z</time></trkpt><trkpt lat="42.5748951" lon="12.9361493"><ele>978.0</ele><time>2026-05-01T14:10:08.492Z</time></trkpt><trkpt lat="42.5749064" lon="12.9360511"><ele>978.0</ele><time>2026-05-01T14:10:10.502Z</time></trkpt><trkpt lat="42.5749002" lon="12.9359494"><ele>978.0</ele><time>2026-05-01T14:10:12.489Z</time></trkpt><trkpt lat="42.5748788" lon="12.9358366"><ele>979.0</ele><time>2026-05-01T14:10:14.491Z</time></trkpt><trkpt lat="42.574867" lon="12.9357495"><ele>980.0</ele><time>2026-05-01T14:10:15.491Z</time></trkpt><trkpt lat="42.5748677" lon="12.9356424"><ele>981.0</ele><time>2026-05-01T14:10:16.499Z</time></trkpt><trkpt lat="42.5748813" lon="12.935529"><ele>982.0</ele><time>2026-05-01T14:10:17.488Z</time></trkpt><trkpt lat="42.5749089" lon="12.9354098"><ele>983.0</ele><time>2026-05-01T14:10:18.484Z</time></trkpt><trkpt lat="42.5749519" lon="12.9352807"><ele>984.0</ele><time>2026-05-01T14:10:19.502Z</time></trkpt><trkpt lat="42.5750082" lon="12.9351388"><ele>986.25</ele><time>2026-05-01T14:10:20.491Z</time></trkpt><trkpt lat="42.5750755" lon="12.9349896"><ele>988.5</ele><time>2026-05-01T14:10:21.489Z</time></trkpt><trkpt lat="42.5751422" lon="12.9348289"><ele>990.75</ele><time>2026-05-01T14:10:22.497Z</time></trkpt><trkpt lat="42.5752054" lon="12.9346729"><ele>993.0</ele><time>2026-05-01T14:10:23.494Z</time></trkpt><trkpt lat="42.5752656" lon="12.9345265"><ele>993.0</ele><time>2026-05-01T14:10:24.493Z</time></trkpt><trkpt lat="42.575322" lon="12.934378"><ele>993.0</ele><time>2026-05-01T14:10:25.485Z</time></trkpt><trkpt lat="42.5753701" lon="12.9342272"><ele>993.0</ele><time>2026-05-01T14:10:26.488Z</time></trkpt><trkpt lat="42.5754087" lon="12.9340758"><ele>993.0</ele><time>2026-05-01T14:10:27.491Z</time></trkpt><trkpt lat="42.5754267" lon="12.9339172"><ele>995.0</ele><time>2026-05-01T14:10:28.499Z</time></trkpt><trkpt lat="42.5754197" lon="12.9337552"><ele>997.0</ele><time>2026-05-01T14:10:29.487Z</time></trkpt><trkpt lat="42.5753869" lon="12.9335973"><ele>999.0</ele><time>2026-05-01T14:10:30.49Z</time></trkpt><trkpt lat="42.5753414" lon="12.9334514"><ele>1001.0</ele><time>2026-05-01T14:10:31.488Z</time></trkpt><trkpt lat="42.5753007" lon="12.9333091"><ele>1002.4</ele><time>2026-05-01T14:10:32.499Z</time></trkpt><trkpt lat="42.5752828" lon="12.9331813"><ele>1003.8</ele><time>2026-05-01T14:10:33.492Z</time></trkpt><trkpt lat="42.5752822" lon="12.9330514"><ele>1005.1999999999999</ele><time>2026-05-01T14:10:34.493Z</time></trkpt><trkpt lat="42.5753059" lon="12.9329172"><ele>1006.5999999999999</ele><time>2026-05-01T14:10:35.487Z</time></trkpt><trkpt lat="42.575354" lon="12.9327841"><ele>1008.0</ele><time>2026-05-01T14:10:36.498Z</time></trkpt><trkpt lat="42.5754023" lon="12.9326533"><ele>1003.4</ele><time>2026-05-01T14:10:37.49Z</time></trkpt><trkpt lat="42.5754351" lon="12.9325213"><ele>998.8</ele><time>2026-05-01T14:10:38.494Z</time></trkpt><trkpt lat="42.5754398" lon="12.9323793"><ele>994.2</ele><time>2026-05-01T14:10:39.485Z</time></trkpt><trkpt lat="42.5754167" lon="12.9322278"><ele>989.6</ele><time>2026-05-01T14:10:40.483Z</time></trkpt><trkpt lat="42.575398" lon="12.9320698"><ele>985.0</ele><time>2026-05-01T14:10:41.497Z</time></trkpt><trkpt lat="42.5753886" lon="12.9319156"><ele>985.0</ele><time>2026-05-01T14:10:42.488Z</time></trkpt><trkpt lat="42.5753997" lon="12.9317632"><ele>985.0</ele><time>2026-05-01T14:10:43.487Z</time></trkpt><trkpt lat="42.5754217" lon="12.9316044"><ele>985.0</ele><time>2026-05-01T14:10:44.49Z</time></trkpt><trkpt lat="42.5754621" lon="12.9314283"><ele>985.0</ele><time>2026-05-01T14:10:45.485Z</time></trkpt><trkpt lat="42.5755162" lon="12.9312365"><ele>987.0</ele><time>2026-05-01T14:10:46.493Z</time></trkpt><trkpt lat="42.5755887" lon="12.9310431"><ele>989.0</ele><time>2026-05-01T14:10:47.484Z</time></trkpt><trkpt lat="42.5756634" lon="12.9308646"><ele>991.0</ele><time>2026-05-01T14:10:48.487Z</time></trkpt><trkpt lat="42.575731" lon="12.9306904"><ele>994.0</ele><time>2026-05-01T14:10:49.488Z</time></trkpt><trkpt lat="42.5757992" lon="12.930513"><ele>997.0</ele><time>2026-05-01T14:10:50.488Z</time></trkpt><trkpt lat="42.5758712" lon="12.9303441"><ele>1000.0</ele><time>2026-05-01T14:10:51.5Z</time></trkpt><trkpt lat="42.5759501" lon="12.9301836"><ele>1003.0</ele><time>2026-05-01T14:10:52.498Z</time></trkpt><trkpt lat="42.5760332" lon="12.9300288"><ele>999.0</ele><time>2026-05-01T14:10:53.492Z</time></trkpt><trkpt lat="42.5761075" lon="12.9298709"><ele>995.0</ele><time>2026-05-01T14:10:54.487Z</time></trkpt><trkpt lat="42.5761812" lon="12.9297063"><ele>991.0</ele><time>2026-05-01T14:10:55.49Z</time></trkpt><trkpt lat="42.5762405" lon="12.9295171"><ele>987.0</ele><time>2026-05-01T14:10:56.483Z</time></trkpt><trkpt lat="42.5762908" lon="12.9293117"><ele>991.3333333333333</ele><time>2026-05-01T14:10:57.488Z</time></trkpt><trkpt lat="42.5763414" lon="12.9291104"><ele>995.6666666666666</ele><time>2026-05-01T14:10:58.504Z</time></trkpt><trkpt lat="42.5763983" lon="12.928913"><ele>1000.0</ele><time>2026-05-01T14:10:59.488Z</time></trkpt><trkpt lat="42.5764688" lon="12.9287226"><ele>1000.0</ele><time>2026-05-01T14:11:00.489Z</time></trkpt><trkpt lat="42.576542" lon="12.928539"><ele>1000.0</ele><time>2026-05-01T14:11:01.487Z</time></trkpt><trkpt lat="42.5766233" lon="12.9283518"><ele>1000.0</ele><time>2026-05-01T14:11:02.493Z</time></trkpt><trkpt lat="42.5767074" lon="12.9281669"><ele>1006.3333333333333</ele><time>2026-05-01T14:11:03.494Z</time></trkpt><trkpt lat="42.5768054" lon="12.9279791"><ele>1012.6666666666667</ele><time>2026-05-01T14:11:04.488Z</time></trkpt><trkpt lat="42.5768967" lon="12.927795"><ele>1019.0</ele><time>2026-05-01T14:11:05.49Z</time></trkpt><trkpt lat="42.5769778" lon="12.9276162"><ele>1012.75</ele><time>2026-05-01T14:11:06.495Z</time></trkpt><trkpt lat="42.5770498" lon="12.9274515"><ele>1006.5</ele><time>2026-05-01T14:11:07.487Z</time></trkpt><trkpt lat="42.5771088" lon="12.927294"><ele>1000.25</ele><time>2026-05-01T14:11:08.491Z</time></trkpt><trkpt lat="42.5771557" lon="12.9271477"><ele>994.0</ele><time>2026-05-01T14:11:09.505Z</time></trkpt><trkpt lat="42.5771886" lon="12.9269954"><ele>994.0</ele><time>2026-05-01T14:11:10.493Z</time></trkpt><trkpt lat="42.5772113" lon="12.9268193"><ele>994.0</ele><time>2026-05-01T14:11:11.49Z</time></trkpt><trkpt lat="42.5772281" lon="12.9266261"><ele>994.0</ele><time>2026-05-01T14:11:12.487Z</time></trkpt><trkpt lat="42.5772435" lon="12.9264297"><ele>994.0</ele><time>2026-05-01T14:11:13.487Z</time></trkpt><trkpt lat="42.5772681" lon="12.9262557"><ele>998.25</ele><time>2026-05-01T14:11:14.489Z</time></trkpt><trkpt lat="42.577291" lon="12.9261056"><ele>1002.5</ele><time>2026-05-01T14:11:15.497Z</time></trkpt><trkpt lat="42.5773136" lon="12.9259701"><ele>1006.75</ele><time>2026-05-01T14:11:16.493Z</time></trkpt><trkpt lat="42.5773677" lon="12.9258362"><ele>1011.0</ele><time>2026-05-01T14:11:17.491Z</time></trkpt><trkpt lat="42.5774409" lon="12.9257038"><ele>1014.8</ele><time>2026-05-01T14:11:18.494Z</time></trkpt><trkpt lat="42.5775113" lon="12.9255753"><ele>1018.5999999999999</ele><time>2026-05-01T14:11:19.487Z</time></trkpt><trkpt lat="42.577584" lon="12.9254557"><ele>1022.4</ele><time>2026-05-01T14:11:20.495Z</time></trkpt><trkpt lat="42.5776509" lon="12.925348"><ele>1026.2</ele><time>2026-05-01T14:11:21.493Z</time></trkpt><trkpt lat="42.5777113" lon="12.9252453"><ele>1030.0</ele><time>2026-05-01T14:11:22.491Z</time></trkpt><trkpt lat="42.5777655" lon="12.9251363"><ele>1032.8</ele><time>2026-05-01T14:11:23.485Z</time></trkpt><trkpt lat="42.5778097" lon="12.9250055"><ele>1035.6</ele><time>2026-05-01T14:11:24.485Z</time></trkpt><trkpt lat="42.5778279" lon="12.9248634"><ele>1038.4</ele><time>2026-05-01T14:11:25.49Z</time></trkpt><trkpt lat="42.5778276" lon="12.9247271"><ele>1041.2</ele><time>2026-05-01T14:11:26.494Z</time></trkpt><trkpt lat="42.5778284" lon="12.9246026"><ele>1044.0</ele><time>2026-05-01T14:11:27.49Z</time></trkpt><trkpt lat="42.5778415" lon="12.9244841"><ele>1038.4</ele><time>2026-05-01T14:11:28.494Z</time></trkpt><trkpt lat="42.5778693" lon="12.9243808"><ele>1032.8000000000002</ele><time>2026-05-01T14:11:29.493Z</time></trkpt><trkpt lat="42.5779592" lon="12.9243226"><ele>1027.1999999999998</ele><time>2026-05-01T14:11:30.488Z</time></trkpt><trkpt lat="42.5780821" lon="12.9243055"><ele>1021.5999999999999</ele><time>2026-05-01T14:11:31.482Z</time></trkpt><trkpt lat="42.5782148" lon="12.9242996"><ele>1016.0</ele><time>2026-05-01T14:11:32.491Z</time></trkpt><trkpt lat="42.5783441" lon="12.924283"><ele>1016.0</ele><time>2026-05-01T14:11:33.494Z</time></trkpt><trkpt lat="42.5784653" lon="12.9242461"><ele>1016.0</ele><time>2026-05-01T14:11:34.488Z</time></trkpt><trkpt lat="42.5785782" lon="12.9241833"><ele>1016.0</ele><time>2026-05-01T14:11:35.498Z</time></trkpt><trkpt lat="42.5786798" lon="12.924094"><ele>1016.0</ele><time>2026-05-01T14:11:36.488Z</time></trkpt><trkpt lat="42.5787708" lon="12.9239769"><ele>1017.25</ele><time>2026-05-01T14:11:37.493Z</time></trkpt><trkpt lat="42.5788549" lon="12.9238388"><ele>1018.5</ele><time>2026-05-01T14:11:38.496Z</time></trkpt><trkpt lat="42.5789382" lon="12.9236902"><ele>1019.75</ele><time>2026-05-01T14:11:39.499Z</time></trkpt><trkpt lat="42.5790249" lon="12.9235383"><ele>1021.0</ele><time>2026-05-01T14:11:40.49Z</time></trkpt><trkpt lat="42.5791089" lon="12.9233798"><ele>1026.75</ele><time>2026-05-01T14:11:41.497Z</time></trkpt><trkpt lat="42.5791794" lon="12.9232071"><ele>1032.5</ele><time>2026-05-01T14:11:42.49Z</time></trkpt><trkpt lat="42.5792426" lon="12.9230283"><ele>1038.25</ele><time>2026-05-01T14:11:43.487Z</time></trkpt><trkpt lat="42.5792939" lon="12.9228467"><ele>1044.0</ele><time>2026-05-01T14:11:44.488Z</time></trkpt><trkpt lat="42.5793339" lon="12.9226715"><ele>1046.0</ele><time>2026-05-01T14:11:45.488Z</time></trkpt><trkpt lat="42.5793732" lon="12.9225305"><ele>1048.0</ele><time>2026-05-01T14:11:46.496Z</time></trkpt><trkpt lat="42.579403" lon="12.9223986"><ele>1050.0</ele><time>2026-05-01T14:11:47.488Z</time></trkpt><trkpt lat="42.5794236" lon="12.9222655"><ele>1052.0</ele><time>2026-05-01T14:11:48.489Z</time></trkpt><trkpt lat="42.5794207" lon="12.9221359"><ele>1054.0</ele><time>2026-05-01T14:11:49.498Z</time></trkpt><trkpt lat="42.5793827" lon="12.9220097"><ele>1054.0</ele><time>2026-05-01T14:11:50.491Z</time></trkpt><trkpt lat="42.5793363" lon="12.9218893"><ele>1054.0</ele><time>2026-05-01T14:11:51.487Z</time></trkpt><trkpt lat="42.5792842" lon="12.9217734"><ele>1054.0</ele><time>2026-05-01T14:11:52.487Z</time></trkpt><trkpt lat="42.5792199" lon="12.921666"><ele>1054.0</ele><time>2026-05-01T14:11:53.495Z</time></trkpt><trkpt lat="42.5791509" lon="12.9215759"><ele>1054.0</ele><time>2026-05-01T14:11:54.494Z</time></trkpt><trkpt lat="42.5790747" lon="12.9215056"><ele>1055.2</ele><time>2026-05-01T14:11:55.493Z</time></trkpt><trkpt lat="42.5789939" lon="12.9214522"><ele>1056.4</ele><time>2026-05-01T14:11:56.493Z</time></trkpt><trkpt lat="42.5789039" lon="12.9214118"><ele>1057.6</ele><time>2026-05-01T14:11:57.487Z</time></trkpt><trkpt lat="42.5788026" lon="12.9213866"><ele>1058.8</ele><time>2026-05-01T14:11:58.485Z</time></trkpt><trkpt lat="42.5786903" lon="12.9213674"><ele>1060.0</ele><time>2026-05-01T14:11:59.483Z</time></trkpt><trkpt lat="42.5785685" lon="12.9213535"><ele>1060.0</ele><time>2026-05-01T14:12:00.493Z</time></trkpt><trkpt lat="42.5784411" lon="12.9213436"><ele>1060.0</ele><time>2026-05-01T14:12:01.485Z</time></trkpt><trkpt lat="42.578307" lon="12.9213316"><ele>1060.0</ele><time>2026-05-01T14:12:02.491Z</time></trkpt><trkpt lat="42.5781695" lon="12.9213229"><ele>1060.0</ele><time>2026-05-01T14:12:03.5Z</time></trkpt><trkpt lat="42.5780311" lon="12.9213137"><ele>1060.0</ele><time>2026-05-01T14:12:04.496Z</time></trkpt><trkpt lat="42.5778953" lon="12.9213023"><ele>1060.0</ele><time>2026-05-01T14:12:05.494Z</time></trkpt><trkpt lat="42.5777639" lon="12.9212899"><ele>1060.0</ele><time>2026-05-01T14:12:06.487Z</time></trkpt><trkpt lat="42.5776374" lon="12.9212831"><ele>1060.0</ele><time>2026-05-01T14:12:07.488Z</time></trkpt><trkpt lat="42.5775099" lon="12.9212936"><ele>1060.75</ele><time>2026-05-01T14:12:08.496Z</time></trkpt><trkpt lat="42.5773775" lon="12.9213201"><ele>1061.5</ele><time>2026-05-01T14:12:09.497Z</time></trkpt><trkpt lat="42.5772387" lon="12.9213622"><ele>1062.25</ele><time>2026-05-01T14:12:10.493Z</time></trkpt><trkpt lat="42.5770958" lon="12.9214331"><ele>1063.0</ele><time>2026-05-01T14:12:11.498Z</time></trkpt><trkpt lat="42.5769599" lon="12.9215186"><ele>1060.75</ele><time>2026-05-01T14:12:12.492Z</time></trkpt><trkpt lat="42.5768216" lon="12.9215955"><ele>1058.5</ele><time>2026-05-01T14:12:13.49Z</time></trkpt><trkpt lat="42.5767004" lon="12.921667"><ele>1056.25</ele><time>2026-05-01T14:12:14.487Z</time></trkpt><trkpt lat="42.5765838" lon="12.921735"><ele>1054.0</ele><time>2026-05-01T14:12:15.483Z</time></trkpt><trkpt lat="42.5764728" lon="12.9218045"><ele>1058.4</ele><time>2026-05-01T14:12:16.487Z</time></trkpt><trkpt lat="42.5763765" lon="12.9218865"><ele>1062.8000000000002</ele><time>2026-05-01T14:12:17.492Z</time></trkpt><trkpt lat="42.5762977" lon="12.9219589"><ele>1067.1999999999998</ele><time>2026-05-01T14:12:18.498Z</time></trkpt><trkpt lat="42.5762275" lon="12.922015"><ele>1071.6</ele><time>2026-05-01T14:12:19.49Z</time></trkpt><trkpt lat="42.5761706" lon="12.9220543"><ele>1076.0</ele><time>2026-05-01T14:12:20.487Z</time></trkpt><trkpt lat="42.5762658" lon="12.9219964"><ele>1076.0</ele><time>2026-05-01T14:12:29.49Z</time></trkpt><trkpt lat="42.5763262" lon="12.9219169"><ele>1076.0</ele><time>2026-05-01T14:12:30.486Z</time></trkpt><trkpt lat="42.5763914" lon="12.9218486"><ele>1076.0</ele><time>2026-05-01T14:12:31.486Z</time></trkpt><trkpt lat="42.5764539" lon="12.9217933"><ele>1076.0</ele><time>2026-05-01T14:12:32.487Z</time></trkpt><trkpt lat="42.5765491" lon="12.9217306"><ele>1076.0</ele><time>2026-05-01T14:12:34.487Z</time></trkpt><trkpt lat="42.5766139" lon="12.9217129"><ele>1076.0</ele><time>2026-05-01T14:12:37.493Z</time></trkpt><trkpt lat="42.5765795" lon="12.9217974"><ele>1076.0</ele><time>2026-05-01T14:12:55.498Z</time></trkpt><trkpt lat="42.5765008" lon="12.9218211"><ele>1076.0</ele><time>2026-05-01T14:12:59.493Z</time></trkpt><trkpt lat="42.5764124" lon="12.9218459"><ele>1076.0</ele><time>2026-05-01T14:13:02.489Z</time></trkpt><trkpt lat="42.5763495" lon="12.9219467"><ele>1076.0</ele><time>2026-05-01T14:14:06.482Z</time></trkpt><trkpt lat="42.5762911" lon="12.9220118"><ele>1076.0</ele><time>2026-05-01T14:14:07.487Z</time></trkpt><trkpt lat="42.576226" lon="12.9220776"><ele>1076.0</ele><time>2026-05-01T14:14:08.492Z</time></trkpt><trkpt lat="42.5761411" lon="12.9221275"><ele>1076.2</ele><time>2026-05-01T14:14:09.48Z</time></trkpt><trkpt lat="42.5760493" lon="12.9221347"><ele>1076.3999999999999</ele><time>2026-05-01T14:14:10.49Z</time></trkpt><trkpt lat="42.5759608" lon="12.9221147"><ele>1076.6</ele><time>2026-05-01T14:14:11.491Z</time></trkpt><trkpt lat="42.5758834" lon="12.9220552"><ele>1076.8</ele><time>2026-05-01T14:14:12.487Z</time></trkpt><trkpt lat="42.5758175" lon="12.9219538"><ele>1077.0</ele><time>2026-05-01T14:14:13.49Z</time></trkpt><trkpt lat="42.5757411" lon="12.9218496"><ele>1077.0</ele><time>2026-05-01T14:14:14.489Z</time></trkpt><trkpt lat="42.5756561" lon="12.921767"><ele>1077.0</ele><time>2026-05-01T14:14:15.488Z</time></trkpt><trkpt lat="42.5755596" lon="12.9217166"><ele>1077.0</ele><time>2026-05-01T14:14:16.495Z</time></trkpt><trkpt lat="42.5754502" lon="12.9217042"><ele>1077.0</ele><time>2026-05-01T14:14:17.484Z</time></trkpt><trkpt lat="42.5753411" lon="12.9217354"><ele>1077.0</ele><time>2026-05-01T14:14:18.489Z</time></trkpt><trkpt lat="42.5752406" lon="12.921806"><ele>1075.1666666666667</ele><time>2026-05-01T14:14:19.49Z</time></trkpt><trkpt lat="42.5751478" lon="12.9218642"><ele>1073.3333333333333</ele><time>2026-05-01T14:14:20.494Z</time></trkpt><trkpt lat="42.5750642" lon="12.9218855"><ele>1071.5</ele><time>2026-05-01T14:14:21.489Z</time></trkpt><trkpt lat="42.5749915" lon="12.9218679"><ele>1069.6666666666665</ele><time>2026-05-01T14:14:22.504Z</time></trkpt><trkpt lat="42.5749384" lon="12.9217885"><ele>1067.8333333333333</ele><time>2026-05-01T14:14:23.493Z</time></trkpt><trkpt lat="42.5748986" lon="12.92166"><ele>1066.0</ele><time>2026-05-01T14:14:24.491Z</time></trkpt><trkpt lat="42.57486" lon="12.9215241"><ele>1066.0</ele><time>2026-05-01T14:14:25.485Z</time></trkpt><trkpt lat="42.5748128" lon="12.9213942"><ele>1066.0</ele><time>2026-05-01T14:14:26.49Z</time></trkpt><trkpt lat="42.5747494" lon="12.9212778"><ele>1066.0</ele><time>2026-05-01T14:14:27.489Z</time></trkpt><trkpt lat="42.574666" lon="12.9211793"><ele>1066.0</ele><time>2026-05-01T14:14:28.486Z</time></trkpt><trkpt lat="42.5745673" lon="12.921109"><ele>1066.0</ele><time>2026-05-01T14:14:29.488Z</time></trkpt><trkpt lat="42.5744522" lon="12.9210696"><ele>1070.25</ele><time>2026-05-01T14:14:30.497Z</time></trkpt><trkpt lat="42.5743241" lon="12.9210513"><ele>1074.5</ele><time>2026-05-01T14:14:31.488Z</time></trkpt><trkpt lat="42.5741969" lon="12.9210338"><ele>1078.75</ele><time>2026-05-01T14:14:32.491Z</time></trkpt><trkpt lat="42.5740637" lon="12.9210159"><ele>1083.0</ele><time>2026-05-01T14:14:33.49Z</time></trkpt><trkpt lat="42.5739255" lon="12.9209966"><ele>1083.0</ele><time>2026-05-01T14:14:34.488Z</time></trkpt><trkpt lat="42.5737839" lon="12.9209767"><ele>1083.0</ele><time>2026-05-01T14:14:35.498Z</time></trkpt><trkpt lat="42.5736345" lon="12.9209695"><ele>1083.0</ele><time>2026-05-01T14:14:36.486Z</time></trkpt><trkpt lat="42.5734712" lon="12.9209991"><ele>1085.3333333333333</ele><time>2026-05-01T14:14:37.486Z</time></trkpt><trkpt lat="42.5733112" lon="12.9210371"><ele>1087.6666666666665</ele><time>2026-05-01T14:14:38.483Z</time></trkpt><trkpt lat="42.5731562" lon="12.9210778"><ele>1090.0</ele><time>2026-05-01T14:14:39.494Z</time></trkpt><trkpt lat="42.5730046" lon="12.9210941"><ele>1090.0</ele><time>2026-05-01T14:14:40.491Z</time></trkpt><trkpt lat="42.5728615" lon="12.9211174"><ele>1090.0</ele><time>2026-05-01T14:14:41.493Z</time></trkpt><trkpt lat="42.5727335" lon="12.9211449"><ele>1090.0</ele><time>2026-05-01T14:14:42.491Z</time></trkpt><trkpt lat="42.5725969" lon="12.9211664"><ele>1090.0</ele><time>2026-05-01T14:14:43.495Z</time></trkpt><trkpt lat="42.5724577" lon="12.9212079"><ele>1089.2</ele><time>2026-05-01T14:14:44.487Z</time></trkpt><trkpt lat="42.5723389" lon="12.9212763"><ele>1088.4</ele><time>2026-05-01T14:14:45.489Z</time></trkpt><trkpt lat="42.5722438" lon="12.9213362"><ele>1087.6</ele><time>2026-05-01T14:14:46.491Z</time></trkpt><trkpt lat="42.5721435" lon="12.9213846"><ele>1086.8</ele><time>2026-05-01T14:14:47.49Z</time></trkpt><trkpt lat="42.5720589" lon="12.9213904"><ele>1086.0</ele><time>2026-05-01T14:14:48.488Z</time></trkpt><trkpt lat="42.5719827" lon="12.9213871"><ele>1087.5</ele><time>2026-05-01T14:14:49.491Z</time></trkpt><trkpt lat="42.5719183" lon="12.9213605"><ele>1089.0</ele><time>2026-05-01T14:14:50.485Z</time></trkpt><trkpt lat="42.571888" lon="12.9212817"><ele>1090.5</ele><time>2026-05-01T14:14:51.49Z</time></trkpt><trkpt lat="42.5718696" lon="12.9211623"><ele>1092.0</ele><time>2026-05-01T14:14:52.494Z</time></trkpt><trkpt lat="42.5718515" lon="12.9210394"><ele>1093.5</ele><time>2026-05-01T14:14:53.491Z</time></trkpt><trkpt lat="42.5718254" lon="12.9209041"><ele>1095.0</ele><time>2026-05-01T14:14:54.488Z</time></trkpt><trkpt lat="42.5717904" lon="12.9207668"><ele>1090.25</ele><time>2026-05-01T14:14:55.49Z</time></trkpt><trkpt lat="42.5717274" lon="12.9206447"><ele>1085.5</ele><time>2026-05-01T14:14:56.49Z</time></trkpt><trkpt lat="42.5716344" lon="12.9205568"><ele>1080.75</ele><time>2026-05-01T14:14:57.496Z</time></trkpt><trkpt lat="42.5715178" lon="12.9205129"><ele>1076.0</ele><time>2026-05-01T14:14:58.489Z</time></trkpt><trkpt lat="42.57139" lon="12.9204887"><ele>1076.0</ele><time>2026-05-01T14:14:59.488Z</time></trkpt><trkpt lat="42.5712617" lon="12.9204553"><ele>1076.0</ele><time>2026-05-01T14:15:00.487Z</time></trkpt><trkpt lat="42.571145" lon="12.9204033"><ele>1076.0</ele><time>2026-05-01T14:15:01.491Z</time></trkpt><trkpt lat="42.5710392" lon="12.9203314"><ele>1076.0</ele><time>2026-05-01T14:15:02.488Z</time></trkpt><trkpt lat="42.5709555" lon="12.9202021"><ele>1076.5</ele><time>2026-05-01T14:15:03.486Z</time></trkpt><trkpt lat="42.5708777" lon="12.9200598"><ele>1077.0</ele><time>2026-05-01T14:15:04.492Z</time></trkpt><trkpt lat="42.5707988" lon="12.9199226"><ele>1077.5</ele><time>2026-05-01T14:15:05.491Z</time></trkpt><trkpt lat="42.570718" lon="12.9198023"><ele>1078.0</ele><time>2026-05-01T14:15:06.497Z</time></trkpt><trkpt lat="42.5706377" lon="12.9197075"><ele>1078.0</ele><time>2026-05-01T14:15:07.487Z</time></trkpt><trkpt lat="42.570539" lon="12.9196504"><ele>1078.0</ele><time>2026-05-01T14:15:08.488Z</time></trkpt><trkpt lat="42.5704238" lon="12.9196185"><ele>1078.0</ele><time>2026-05-01T14:15:09.491Z</time></trkpt><trkpt lat="42.5703116" lon="12.9196201"><ele>1078.0</ele><time>2026-05-01T14:15:10.494Z</time></trkpt><trkpt lat="42.5702041" lon="12.9196309"><ele>1078.0</ele><time>2026-05-01T14:15:11.489Z</time></trkpt><trkpt lat="42.5701065" lon="12.9196239"><ele>1077.8</ele><time>2026-05-01T14:15:12.495Z</time></trkpt><trkpt lat="42.5700177" lon="12.9195989"><ele>1077.6</ele><time>2026-05-01T14:15:13.496Z</time></trkpt><trkpt lat="42.5699489" lon="12.9195274"><ele>1077.4</ele><time>2026-05-01T14:15:14.487Z</time></trkpt><trkpt lat="42.5699067" lon="12.9194157"><ele>1077.2</ele><time>2026-05-01T14:15:15.488Z</time></trkpt><trkpt lat="42.5698901" lon="12.9192888"><ele>1077.0</ele><time>2026-05-01T14:15:16.486Z</time></trkpt><trkpt lat="42.5698719" lon="12.9191623"><ele>1077.0</ele><time>2026-05-01T14:15:17.486Z</time></trkpt><trkpt lat="42.5698298" lon="12.919049"><ele>1077.0</ele><time>2026-05-01T14:15:18.495Z</time></trkpt><trkpt lat="42.5697511" lon="12.9189623"><ele>1077.0</ele><time>2026-05-01T14:15:19.491Z</time></trkpt><trkpt lat="42.5696508" lon="12.9189011"><ele>1077.0</ele><time>2026-05-01T14:15:20.49Z</time></trkpt><trkpt lat="42.5695355" lon="12.9188601"><ele>1077.0</ele><time>2026-05-01T14:15:21.489Z</time></trkpt><trkpt lat="42.5694073" lon="12.9188258"><ele>1080.5</ele><time>2026-05-01T14:15:22.492Z</time></trkpt><trkpt lat="42.569266" lon="12.9187984"><ele>1084.0</ele><time>2026-05-01T14:15:23.494Z</time></trkpt><trkpt lat="42.5691179" lon="12.9187746"><ele>1087.5</ele><time>2026-05-01T14:15:24.493Z</time></trkpt><trkpt lat="42.5689675" lon="12.9187453"><ele>1091.0</ele><time>2026-05-01T14:15:25.484Z</time></trkpt><trkpt lat="42.5688086" lon="12.9187215"><ele>1094.0</ele><time>2026-05-01T14:15:26.498Z</time></trkpt><trkpt lat="42.5686394" lon="12.9187232"><ele>1097.0</ele><time>2026-05-01T14:15:27.489Z</time></trkpt><trkpt lat="42.5684688" lon="12.9187434"><ele>1100.0</ele><time>2026-05-01T14:15:28.494Z</time></trkpt><trkpt lat="42.5683002" lon="12.9187489"><ele>1100.0</ele><time>2026-05-01T14:15:29.499Z</time></trkpt><trkpt lat="42.5681405" lon="12.9187676"><ele>1100.0</ele><time>2026-05-01T14:15:30.483Z</time></trkpt><trkpt lat="42.5679992" lon="12.9187713"><ele>1100.0</ele><time>2026-05-01T14:15:31.485Z</time></trkpt><trkpt lat="42.5678712" lon="12.9187783"><ele>1100.0</ele><time>2026-05-01T14:15:32.486Z</time></trkpt><trkpt lat="42.5677554" lon="12.9187957"><ele>1101.6</ele><time>2026-05-01T14:15:33.489Z</time></trkpt><trkpt lat="42.56764" lon="12.9187641"><ele>1103.2</ele><time>2026-05-01T14:15:34.496Z</time></trkpt><trkpt lat="42.5675466" lon="12.9187224"><ele>1104.8</ele><time>2026-05-01T14:15:35.492Z</time></trkpt><trkpt lat="42.5674829" lon="12.918674"><ele>1106.4</ele><time>2026-05-01T14:15:36.488Z</time></trkpt><trkpt lat="42.5674432" lon="12.9185341"><ele>1108.0</ele><time>2026-05-01T14:15:38.484Z</time></trkpt><trkpt lat="42.5674723" lon="12.9184459"><ele>1105.1666666666665</ele><time>2026-05-01T14:15:39.502Z</time></trkpt><trkpt lat="42.5675304" lon="12.9183469"><ele>1102.3333333333333</ele><time>2026-05-01T14:15:40.486Z</time></trkpt><trkpt lat="42.5675896" lon="12.9182547"><ele>1099.5</ele><time>2026-05-01T14:15:41.485Z</time></trkpt><trkpt lat="42.5676385" lon="12.9181556"><ele>1096.6666666666667</ele><time>2026-05-01T14:15:42.488Z</time></trkpt><trkpt lat="42.5676605" lon="12.9180747"><ele>1093.8333333333335</ele><time>2026-05-01T14:15:43.493Z</time></trkpt><trkpt lat="42.5676739" lon="12.9179568"><ele>1091.0</ele><time>2026-05-01T14:15:45.484Z</time></trkpt><trkpt lat="42.5675937" lon="12.9179448"><ele>1091.0</ele><time>2026-05-01T14:19:26.495Z</time></trkpt><trkpt lat="42.5675523" lon="12.9178488"><ele>1091.0</ele><time>2026-05-01T14:19:29.485Z</time></trkpt><trkpt lat="42.567425" lon="12.917769"><ele>1091.0</ele><time>2026-05-01T14:19:31.483Z</time></trkpt><trkpt lat="42.5673323" lon="12.9177142"><ele>1091.0</ele><time>2026-05-01T14:19:32.487Z</time></trkpt><trkpt lat="42.5672291" lon="12.9176537"><ele>1091.0</ele><time>2026-05-01T14:19:33.484Z</time></trkpt><trkpt lat="42.5671319" lon="12.9175891"><ele>1089.25</ele><time>2026-05-01T14:19:34.487Z</time></trkpt><trkpt lat="42.5670316" lon="12.917517"><ele>1087.5</ele><time>2026-05-01T14:19:35.491Z</time></trkpt><trkpt lat="42.5669285" lon="12.9174306"><ele>1085.75</ele><time>2026-05-01T14:19:36.496Z</time></trkpt><trkpt lat="42.5668269" lon="12.9173517"><ele>1084.0</ele><time>2026-05-01T14:19:37.494Z</time></trkpt><trkpt lat="42.5667187" lon="12.9172802"><ele>1087.6000000000001</ele><time>2026-05-01T14:19:38.49Z</time></trkpt><trkpt lat="42.5666112" lon="12.9172149"><ele>1091.2</ele><time>2026-05-01T14:19:39.494Z</time></trkpt><trkpt lat="42.5665084" lon="12.9171458"><ele>1094.8000000000002</ele><time>2026-05-01T14:19:40.489Z</time></trkpt><trkpt lat="42.5664132" lon="12.917082"><ele>1098.4</ele><time>2026-05-01T14:19:41.491Z</time></trkpt><trkpt lat="42.5663219" lon="12.9170265"><ele>1102.0</ele><time>2026-05-01T14:19:42.487Z</time></trkpt><trkpt lat="42.5662436" lon="12.9169753"><ele>1102.5714285714284</ele><time>2026-05-01T14:19:43.493Z</time></trkpt><trkpt lat="42.5661723" lon="12.916924"><ele>1103.142857142857</ele><time>2026-05-01T14:19:44.489Z</time></trkpt><trkpt lat="42.5661142" lon="12.9168757"><ele>1103.7142857142858</ele><time>2026-05-01T14:19:45.49Z</time></trkpt><trkpt lat="42.5660576" lon="12.9168365"><ele>1104.2857142857142</ele><time>2026-05-01T14:19:46.488Z</time></trkpt><trkpt lat="42.5659998" lon="12.9167933"><ele>1104.857142857143</ele><time>2026-05-01T14:19:47.492Z</time></trkpt><trkpt lat="42.5659356" lon="12.9167475"><ele>1105.4285714285713</ele><time>2026-05-01T14:19:48.485Z</time></trkpt><trkpt lat="42.5658762" lon="12.9166804"><ele>1106.0</ele><time>2026-05-01T14:19:49.489Z</time></trkpt><trkpt lat="42.5658331" lon="12.9166083"><ele>1106.0</ele><time>2026-05-01T14:19:50.485Z</time></trkpt><trkpt lat="42.5658078" lon="12.9165239"><ele>1106.0</ele><time>2026-05-01T14:19:51.486Z</time></trkpt><trkpt lat="42.5657904" lon="12.9164271"><ele>1106.0</ele><time>2026-05-01T14:19:52.495Z</time></trkpt><trkpt lat="42.565778" lon="12.9163226"><ele>1106.0</ele><time>2026-05-01T14:19:53.485Z</time></trkpt><trkpt lat="42.5657529" lon="12.9162245"><ele>1106.0</ele><time>2026-05-01T14:19:54.486Z</time></trkpt><trkpt lat="42.5657093" lon="12.9161382"><ele>1106.0</ele><time>2026-05-01T14:19:55.495Z</time></trkpt><trkpt lat="42.5656565" lon="12.9160634"><ele>1106.0</ele><time>2026-05-01T14:19:56.493Z</time></trkpt><trkpt lat="42.5655765" lon="12.9160048"><ele>1106.0</ele><time>2026-05-01T14:19:57.489Z</time></trkpt><trkpt lat="42.5654743" lon="12.9159654"><ele>1106.0</ele><time>2026-05-01T14:19:58.495Z</time></trkpt><trkpt lat="42.5653749" lon="12.9159235"><ele>1106.0</ele><time>2026-05-01T14:19:59.491Z</time></trkpt><trkpt lat="42.5652851" lon="12.9158635"><ele>1106.0</ele><time>2026-05-01T14:20:00.488Z</time></trkpt><trkpt lat="42.5651979" lon="12.9157956"><ele>1106.0</ele><time>2026-05-01T14:20:01.488Z</time></trkpt><trkpt lat="42.5651204" lon="12.9157005"><ele>1107.2</ele><time>2026-05-01T14:20:02.49Z</time></trkpt><trkpt lat="42.5650502" lon="12.9156057"><ele>1108.3999999999999</ele><time>2026-05-01T14:20:03.486Z</time></trkpt><trkpt lat="42.5649729" lon="12.9155136"><ele>1109.6</ele><time>2026-05-01T14:20:04.494Z</time></trkpt><trkpt lat="42.564883" lon="12.9154304"><ele>1110.8</ele><time>2026-05-01T14:20:05.499Z</time></trkpt><trkpt lat="42.5647878" lon="12.9153676"><ele>1112.0</ele><time>2026-05-01T14:20:06.49Z</time></trkpt><trkpt lat="42.5647019" lon="12.91532"><ele>1112.0</ele><time>2026-05-01T14:20:07.482Z</time></trkpt><trkpt lat="42.5646268" lon="12.9152777"><ele>1112.0</ele><time>2026-05-01T14:20:08.492Z</time></trkpt><trkpt lat="42.5645415" lon="12.9152435"><ele>1112.0</ele><time>2026-05-01T14:20:09.493Z</time></trkpt><trkpt lat="42.5644591" lon="12.9152068"><ele>1112.0</ele><time>2026-05-01T14:20:10.489Z</time></trkpt><trkpt lat="42.5643781" lon="12.9151594"><ele>1112.0</ele><time>2026-05-01T14:20:11.484Z</time></trkpt><trkpt lat="42.5643018" lon="12.9151166"><ele>1112.0</ele><time>2026-05-01T14:20:12.489Z</time></trkpt><trkpt lat="42.5642339" lon="12.9150831"><ele>1112.2</ele><time>2026-05-01T14:20:13.49Z</time></trkpt><trkpt lat="42.5641409" lon="12.915027"><ele>1112.4</ele><time>2026-05-01T14:20:15.49Z</time></trkpt><trkpt lat="42.564079" lon="12.9149393"><ele>1112.6</ele><time>2026-05-01T14:21:23.492Z</time></trkpt><trkpt lat="42.5640287" lon="12.9148475"><ele>1112.8</ele><time>2026-05-01T14:21:25.492Z</time></trkpt><trkpt lat="42.5640325" lon="12.9146954"><ele>1113.0</ele><time>2026-05-01T14:21:27.484Z</time></trkpt><trkpt lat="42.5640687" lon="12.9145539"><ele>1113.0</ele><time>2026-05-01T14:21:29.486Z</time></trkpt><trkpt lat="42.5641137" lon="12.9144275"><ele>1113.0</ele><time>2026-05-01T14:21:31.487Z</time></trkpt><trkpt lat="42.5641687" lon="12.9143456"><ele>1113.0</ele><time>2026-05-01T14:21:33.491Z</time></trkpt><trkpt lat="42.5642094" lon="12.9142636"><ele>1113.0</ele><time>2026-05-01T14:21:35.483Z</time></trkpt><trkpt lat="42.5642201" lon="12.914157"><ele>1113.0</ele><time>2026-05-01T14:21:37.489Z</time></trkpt><trkpt lat="42.5642191" lon="12.9140357"><ele>1113.0</ele><time>2026-05-01T14:21:39.487Z</time></trkpt><trkpt lat="42.5642367" lon="12.9139334"><ele>1112.0</ele><time>2026-05-01T14:21:41.484Z</time></trkpt><trkpt lat="42.5642299" lon="12.9138429"><ele>1111.0</ele><time>2026-05-01T14:21:44.489Z</time></trkpt><trkpt lat="42.5641628" lon="12.9138491"><ele>1110.0</ele><time>2026-05-01T14:21:50.485Z</time></trkpt><trkpt lat="42.564108" lon="12.9138992"><ele>1109.0</ele><time>2026-05-01T14:21:52.49Z</time></trkpt><trkpt lat="42.5640306" lon="12.9139443"><ele>1108.0</ele><time>2026-05-01T14:21:54.489Z</time></trkpt><trkpt lat="42.5639462" lon="12.9139805"><ele>1107.0</ele><time>2026-05-01T14:21:56.492Z</time></trkpt><trkpt lat="42.5638828" lon="12.914014"><ele>1106.0</ele><time>2026-05-01T14:21:58.486Z</time></trkpt><trkpt lat="42.5638046" lon="12.9140655"><ele>1106.0</ele><time>2026-05-01T14:22:01.485Z</time></trkpt><trkpt lat="42.5637452" lon="12.9140962"><ele>1106.0</ele><time>2026-05-01T14:22:03.487Z</time></trkpt><trkpt lat="42.5636778" lon="12.9141129"><ele>1106.0</ele><time>2026-05-01T14:22:06.485Z</time></trkpt><trkpt lat="42.5636152" lon="12.914151"><ele>1106.0</ele><time>2026-05-01T14:22:18.48Z</time></trkpt><trkpt lat="42.5635124" lon="12.9141873"><ele>1106.0</ele><time>2026-05-01T14:22:21.485Z</time></trkpt><trkpt lat="42.5634245" lon="12.9142359"><ele>1106.0</ele><time>2026-05-01T14:22:23.488Z</time></trkpt><trkpt lat="42.5633603" lon="12.9142579"><ele>1105.1666666666667</ele><time>2026-05-01T14:22:25.497Z</time></trkpt><trkpt lat="42.5632912" lon="12.914307"><ele>1104.3333333333335</ele><time>2026-05-01T14:22:27.483Z</time></trkpt><trkpt lat="42.5632272" lon="12.9143626"><ele>1103.5</ele><time>2026-05-01T14:22:29.483Z</time></trkpt><trkpt lat="42.5631477" lon="12.9144129"><ele>1102.6666666666667</ele><time>2026-05-01T14:22:31.49Z</time></trkpt><trkpt lat="42.5630616" lon="12.9144281"><ele>1101.8333333333333</ele><time>2026-05-01T14:22:33.485Z</time></trkpt><trkpt lat="42.5629775" lon="12.9144202"><ele>1101.0</ele><time>2026-05-01T14:22:35.491Z</time></trkpt><trkpt lat="42.5628884" lon="12.9143974"><ele>1098.8333333333333</ele><time>2026-05-01T14:22:37.48Z</time></trkpt><trkpt lat="42.5628074" lon="12.9143573"><ele>1096.6666666666667</ele><time>2026-05-01T14:22:39.482Z</time></trkpt><trkpt lat="42.5627373" lon="12.9143243"><ele>1094.5</ele><time>2026-05-01T14:22:41.489Z</time></trkpt><trkpt lat="42.562669" lon="12.9143066"><ele>1092.3333333333335</ele><time>2026-05-01T14:22:43.488Z</time></trkpt><trkpt lat="42.562652" lon="12.9141989"><ele>1090.1666666666667</ele><time>2026-05-01T14:22:53.483Z</time></trkpt><trkpt lat="42.5626779" lon="12.9140692"><ele>1088.0</ele><time>2026-05-01T14:22:56.494Z</time></trkpt><trkpt lat="42.5627304" lon="12.913951"><ele>1087.6666666666667</ele><time>2026-05-01T14:22:58.48Z</time></trkpt><trkpt lat="42.5628246" lon="12.9138228"><ele>1087.3333333333335</ele><time>2026-05-01T14:23:00.483Z</time></trkpt><trkpt lat="42.562879" lon="12.9137568"><ele>1087.0</ele><time>2026-05-01T14:23:01.483Z</time></trkpt><trkpt lat="42.56293" lon="12.9136966"><ele>1086.6666666666667</ele><time>2026-05-01T14:23:02.484Z</time></trkpt><trkpt lat="42.5629785" lon="12.9136344"><ele>1086.3333333333333</ele><time>2026-05-01T14:23:03.484Z</time></trkpt><trkpt lat="42.5630153" lon="12.9135649"><ele>1086.0</ele><time>2026-05-01T14:23:04.487Z</time></trkpt><trkpt lat="42.5630476" lon="12.9134909"><ele>1086.0</ele><time>2026-05-01T14:23:05.487Z</time></trkpt><trkpt lat="42.5630794" lon="12.9134117"><ele>1086.0</ele><time>2026-05-01T14:23:06.489Z</time></trkpt><trkpt lat="42.5631122" lon="12.913323"><ele>1086.0</ele><time>2026-05-01T14:23:07.493Z</time></trkpt><trkpt lat="42.5631456" lon="12.9132354"><ele>1086.0</ele><time>2026-05-01T14:23:08.483Z</time></trkpt><trkpt lat="42.5631778" lon="12.9131479"><ele>1086.0</ele><time>2026-05-01T14:23:09.487Z</time></trkpt><trkpt lat="42.5632003" lon="12.913068"><ele>1086.0</ele><time>2026-05-01T14:23:10.488Z</time></trkpt><trkpt lat="42.5632058" lon="12.912894"><ele>1084.0</ele><time>2026-05-01T14:23:12.485Z</time></trkpt><trkpt lat="42.5632076" lon="12.9127966"><ele>1082.0</ele><time>2026-05-01T14:23:13.496Z</time></trkpt><trkpt lat="42.5632188" lon="12.9127024"><ele>1080.0</ele><time>2026-05-01T14:23:14.487Z</time></trkpt><trkpt lat="42.5632329" lon="12.9126151"><ele>1078.0</ele><time>2026-05-01T14:23:15.502Z</time></trkpt><trkpt lat="42.5632549" lon="12.9125326"><ele>1076.0</ele><time>2026-05-01T14:23:16.486Z</time></trkpt><trkpt lat="42.5633138" lon="12.9123893"><ele>1074.0</ele><time>2026-05-01T14:23:18.481Z</time></trkpt><trkpt lat="42.5633439" lon="12.9123109"><ele>1073.3333333333333</ele><time>2026-05-01T14:23:19.489Z</time></trkpt><trkpt lat="42.5633777" lon="12.912222"><ele>1072.6666666666667</ele><time>2026-05-01T14:23:20.482Z</time></trkpt><trkpt lat="42.5634083" lon="12.9121276"><ele>1072.0</ele><time>2026-05-01T14:23:21.495Z</time></trkpt><trkpt lat="42.5634377" lon="12.9120342"><ele>1071.3333333333335</ele><time>2026-05-01T14:23:22.481Z</time></trkpt><trkpt lat="42.5634718" lon="12.9119385"><ele>1070.6666666666667</ele><time>2026-05-01T14:23:23.49Z</time></trkpt><trkpt lat="42.5635065" lon="12.9118416"><ele>1070.0</ele><time>2026-05-01T14:23:24.48Z</time></trkpt><trkpt lat="42.5635346" lon="12.9117439"><ele>1069.3333333333335</ele><time>2026-05-01T14:23:25.483Z</time></trkpt><trkpt lat="42.5635573" lon="12.9116307"><ele>1068.6666666666667</ele><time>2026-05-01T14:23:26.487Z</time></trkpt><trkpt lat="42.5635743" lon="12.9115218"><ele>1068.0</ele><time>2026-05-01T14:23:27.486Z</time></trkpt><trkpt lat="42.5635817" lon="12.911422"><ele>1067.3333333333333</ele><time>2026-05-01T14:23:28.484Z</time></trkpt><trkpt lat="42.5635773" lon="12.9113206"><ele>1066.6666666666665</ele><time>2026-05-01T14:23:29.494Z</time></trkpt><trkpt lat="42.5635546" lon="12.9111629"><ele>1066.0</ele><time>2026-05-01T14:23:31.49Z</time></trkpt><trkpt lat="42.563503" lon="12.911054"><ele>1066.0</ele><time>2026-05-01T14:23:33.481Z</time></trkpt><trkpt lat="42.5634651" lon="12.9109546"><ele>1066.0</ele><time>2026-05-01T14:23:35.484Z</time></trkpt><trkpt lat="42.5634681" lon="12.9108234"><ele>1066.0</ele><time>2026-05-01T14:23:37.486Z</time></trkpt><trkpt lat="42.5635282" lon="12.9106697"><ele>1066.0</ele><time>2026-05-01T14:23:39.478Z</time></trkpt><trkpt lat="42.5635794" lon="12.9105915"><ele>1066.0</ele><time>2026-05-01T14:23:40.492Z</time></trkpt><trkpt lat="42.5636363" lon="12.9105123"><ele>1065.5</ele><time>2026-05-01T14:23:41.484Z</time></trkpt><trkpt lat="42.5636913" lon="12.910428"><ele>1065.0</ele><time>2026-05-01T14:23:42.487Z</time></trkpt><trkpt lat="42.5637362" lon="12.9103365"><ele>1064.5</ele><time>2026-05-01T14:23:43.489Z</time></trkpt><trkpt lat="42.5637771" lon="12.9102447"><ele>1064.0</ele><time>2026-05-01T14:23:44.486Z</time></trkpt><trkpt lat="42.5638075" lon="12.9101505"><ele>1063.5</ele><time>2026-05-01T14:23:45.483Z</time></trkpt><trkpt lat="42.5638299" lon="12.910044"><ele>1063.0</ele><time>2026-05-01T14:23:46.481Z</time></trkpt><trkpt lat="42.5638509" lon="12.9099314"><ele>1062.3333333333333</ele><time>2026-05-01T14:23:47.49Z</time></trkpt><trkpt lat="42.5638848" lon="12.9098253"><ele>1061.6666666666665</ele><time>2026-05-01T14:23:48.485Z</time></trkpt><trkpt lat="42.5639206" lon="12.9097232"><ele>1061.0</ele><time>2026-05-01T14:23:49.487Z</time></trkpt><trkpt lat="42.5639627" lon="12.9096388"><ele>1060.3333333333333</ele><time>2026-05-01T14:23:50.488Z</time></trkpt><trkpt lat="42.564" lon="12.9095621"><ele>1059.6666666666667</ele><time>2026-05-01T14:23:51.494Z</time></trkpt><trkpt lat="42.5640989" lon="12.909452"><ele>1059.0</ele><time>2026-05-01T14:23:53.484Z</time></trkpt><trkpt lat="42.5641465" lon="12.9093855"><ele>1059.0</ele><time>2026-05-01T14:23:54.487Z</time></trkpt><trkpt lat="42.5641826" lon="12.9093013"><ele>1059.0</ele><time>2026-05-01T14:23:55.493Z</time></trkpt><trkpt lat="42.5642041" lon="12.9091998"><ele>1059.0</ele><time>2026-05-01T14:23:56.486Z</time></trkpt><trkpt lat="42.5642185" lon="12.9090831"><ele>1059.0</ele><time>2026-05-01T14:23:57.49Z</time></trkpt><trkpt lat="42.5642181" lon="12.9089687"><ele>1059.0</ele><time>2026-05-01T14:23:58.493Z</time></trkpt><trkpt lat="42.5642042" lon="12.9088644"><ele>1059.0</ele><time>2026-05-01T14:23:59.489Z</time></trkpt><trkpt lat="42.5641746" lon="12.9087702"><ele>1059.0</ele><time>2026-05-01T14:24:00.483Z</time></trkpt><trkpt lat="42.5641401" lon="12.9086862"><ele>1059.0</ele><time>2026-05-01T14:24:01.484Z</time></trkpt><trkpt lat="42.5641129" lon="12.9086007"><ele>1059.0</ele><time>2026-05-01T14:24:02.48Z</time></trkpt><trkpt lat="42.564084" lon="12.9085077"><ele>1059.0</ele><time>2026-05-01T14:24:03.493Z</time></trkpt><trkpt lat="42.564102" lon="12.9083425"><ele>1059.0</ele><time>2026-05-01T14:24:05.49Z</time></trkpt><trkpt lat="42.5641415" lon="12.9082636"><ele>1059.0</ele><time>2026-05-01T14:24:06.485Z</time></trkpt><trkpt lat="42.5641901" lon="12.9081813"><ele>1058.5</ele><time>2026-05-01T14:24:07.485Z</time></trkpt><trkpt lat="42.5642466" lon="12.9081015"><ele>1058.0</ele><time>2026-05-01T14:24:08.48Z</time></trkpt><trkpt lat="42.5643005" lon="12.9080236"><ele>1057.5</ele><time>2026-05-01T14:24:09.488Z</time></trkpt><trkpt lat="42.5643551" lon="12.9079526"><ele>1057.0</ele><time>2026-05-01T14:24:10.486Z</time></trkpt><trkpt lat="42.5644129" lon="12.9078806"><ele>1056.5</ele><time>2026-05-01T14:24:11.486Z</time></trkpt><trkpt lat="42.5644588" lon="12.907795"><ele>1056.0</ele><time>2026-05-01T14:24:12.479Z</time></trkpt><trkpt lat="42.5645006" lon="12.9076964"><ele>1059.3999999999999</ele><time>2026-05-01T14:24:13.493Z</time></trkpt><trkpt lat="42.5645452" lon="12.9075769"><ele>1062.8</ele><time>2026-05-01T14:24:14.495Z</time></trkpt><trkpt lat="42.5645888" lon="12.9074504"><ele>1066.1999999999998</ele><time>2026-05-01T14:24:15.492Z</time></trkpt><trkpt lat="42.5646207" lon="12.9073183"><ele>1069.6</ele><time>2026-05-01T14:24:16.488Z</time></trkpt><trkpt lat="42.5646491" lon="12.9071817"><ele>1073.0</ele><time>2026-05-01T14:24:17.481Z</time></trkpt><trkpt lat="42.5646696" lon="12.9070413"><ele>1073.0</ele><time>2026-05-01T14:24:18.485Z</time></trkpt><trkpt lat="42.564688" lon="12.9069063"><ele>1073.0</ele><time>2026-05-01T14:24:19.499Z</time></trkpt><trkpt lat="42.5647003" lon="12.9067598"><ele>1073.0</ele><time>2026-05-01T14:24:20.481Z</time></trkpt><trkpt lat="42.5647038" lon="12.9066105"><ele>1073.0</ele><time>2026-05-01T14:24:21.483Z</time></trkpt><trkpt lat="42.5647143" lon="12.9064545"><ele>1073.0</ele><time>2026-05-01T14:24:22.484Z</time></trkpt><trkpt lat="42.564728" lon="12.9063051"><ele>1072.6</ele><time>2026-05-01T14:24:23.485Z</time></trkpt><trkpt lat="42.5647456" lon="12.9061645"><ele>1072.1999999999998</ele><time>2026-05-01T14:24:24.491Z</time></trkpt><trkpt lat="42.5647708" lon="12.9060278"><ele>1071.8</ele><time>2026-05-01T14:24:25.501Z</time></trkpt><trkpt lat="42.5647946" lon="12.9058975"><ele>1071.3999999999999</ele><time>2026-05-01T14:24:26.483Z</time></trkpt><trkpt lat="42.5648106" lon="12.9057752"><ele>1071.0</ele><time>2026-05-01T14:24:27.481Z</time></trkpt><trkpt lat="42.564817" lon="12.9056522"><ele>1070.8</ele><time>2026-05-01T14:24:28.484Z</time></trkpt><trkpt lat="42.5648161" lon="12.905521"><ele>1070.6</ele><time>2026-05-01T14:24:29.483Z</time></trkpt><trkpt lat="42.5648195" lon="12.9053804"><ele>1070.4</ele><time>2026-05-01T14:24:30.489Z</time></trkpt><trkpt lat="42.5648241" lon="12.9052483"><ele>1070.2</ele><time>2026-05-01T14:24:31.48Z</time></trkpt><trkpt lat="42.5648158" lon="12.9051221"><ele>1070.0</ele><time>2026-05-01T14:24:32.496Z</time></trkpt><trkpt lat="42.5648075" lon="12.9050063"><ele>1069.6666666666667</ele><time>2026-05-01T14:24:33.486Z</time></trkpt><trkpt lat="42.5647944" lon="12.9048949"><ele>1069.3333333333335</ele><time>2026-05-01T14:24:34.491Z</time></trkpt><trkpt lat="42.5647857" lon="12.9048062"><ele>1069.0</ele><time>2026-05-01T14:24:35.488Z</time></trkpt><trkpt lat="42.5647696" lon="12.9046879"><ele>1068.6666666666667</ele><time>2026-05-01T14:24:37.488Z</time></trkpt><trkpt lat="42.5647744" lon="12.904596"><ele>1068.3333333333333</ele><time>2026-05-01T14:24:39.491Z</time></trkpt><trkpt lat="42.5647872" lon="12.9044542"><ele>1068.0</ele><time>2026-05-01T14:24:41.479Z</time></trkpt><trkpt lat="42.5647709" lon="12.9043341"><ele>1067.4</ele><time>2026-05-01T14:24:42.487Z</time></trkpt><trkpt lat="42.5647432" lon="12.9041974"><ele>1066.8</ele><time>2026-05-01T14:24:43.484Z</time></trkpt><trkpt lat="42.5647025" lon="12.9040598"><ele>1066.2</ele><time>2026-05-01T14:24:44.483Z</time></trkpt><trkpt lat="42.5646541" lon="12.9039358"><ele>1065.6</ele><time>2026-05-01T14:24:45.487Z</time></trkpt><trkpt lat="42.5645925" lon="12.9038177"><ele>1065.0</ele><time>2026-05-01T14:24:46.488Z</time></trkpt><trkpt lat="42.5645321" lon="12.9037144"><ele>1062.5</ele><time>2026-05-01T14:24:47.486Z</time></trkpt><trkpt lat="42.5644914" lon="12.9036233"><ele>1060.0</ele><time>2026-05-01T14:24:48.484Z</time></trkpt><trkpt lat="42.5644522" lon="12.9035407"><ele>1057.5</ele><time>2026-05-01T14:24:49.487Z</time></trkpt><trkpt lat="42.564423" lon="12.9034602"><ele>1055.0</ele><time>2026-05-01T14:24:50.486Z</time></trkpt><trkpt lat="42.5643917" lon="12.9033831"><ele>1052.5</ele><time>2026-05-01T14:24:51.488Z</time></trkpt><trkpt lat="42.5643376" lon="12.9032257"><ele>1050.0</ele><time>2026-05-01T14:24:53.489Z</time></trkpt><trkpt lat="42.5643151" lon="12.9031281"><ele>1050.0</ele><time>2026-05-01T14:24:54.482Z</time></trkpt><trkpt lat="42.5643015" lon="12.9030181"><ele>1050.0</ele><time>2026-05-01T14:24:55.488Z</time></trkpt><trkpt lat="42.5642934" lon="12.9029117"><ele>1050.0</ele><time>2026-05-01T14:24:56.485Z</time></trkpt><trkpt lat="42.5642843" lon="12.902803"><ele>1050.0</ele><time>2026-05-01T14:24:57.488Z</time></trkpt><trkpt lat="42.5642569" lon="12.9027055"><ele>1050.0</ele><time>2026-05-01T14:24:58.482Z</time></trkpt><trkpt lat="42.5641999" lon="12.9026142"><ele>1050.0</ele><time>2026-05-01T14:24:59.487Z</time></trkpt><trkpt lat="42.5641149" lon="12.9025334"><ele>1049.8</ele><time>2026-05-01T14:25:00.491Z</time></trkpt><trkpt lat="42.5640184" lon="12.9024617"><ele>1049.6</ele><time>2026-05-01T14:25:01.483Z</time></trkpt><trkpt lat="42.5639307" lon="12.9023686"><ele>1049.4</ele><time>2026-05-01T14:25:02.488Z</time></trkpt><trkpt lat="42.563858" lon="12.9022494"><ele>1049.2</ele><time>2026-05-01T14:25:03.482Z</time></trkpt><trkpt lat="42.5638337" lon="12.9021262"><ele>1049.0</ele><time>2026-05-01T14:25:04.488Z</time></trkpt><trkpt lat="42.5638504" lon="12.9020058"><ele>1049.0</ele><time>2026-05-01T14:25:05.486Z</time></trkpt><trkpt lat="42.5638832" lon="12.9018857"><ele>1049.0</ele><time>2026-05-01T14:25:06.489Z</time></trkpt><trkpt lat="42.563928" lon="12.9017653"><ele>1049.0</ele><time>2026-05-01T14:25:07.495Z</time></trkpt><trkpt lat="42.5639583" lon="12.9016398"><ele>1049.0</ele><time>2026-05-01T14:25:08.489Z</time></trkpt><trkpt lat="42.5639765" lon="12.9015147"><ele>1049.0</ele><time>2026-05-01T14:25:09.484Z</time></trkpt><trkpt lat="42.5639784" lon="12.9013866"><ele>1048.0</ele><time>2026-05-01T14:25:10.485Z</time></trkpt><trkpt lat="42.5639571" lon="12.9012491"><ele>1047.0</ele><time>2026-05-01T14:25:11.49Z</time></trkpt><trkpt lat="42.5639216" lon="12.9011185"><ele>1046.0</ele><time>2026-05-01T14:25:12.485Z</time></trkpt><trkpt lat="42.5638818" lon="12.9009921"><ele>1045.0</ele><time>2026-05-01T14:25:13.491Z</time></trkpt><trkpt lat="42.5638358" lon="12.9008762"><ele>1044.0</ele><time>2026-05-01T14:25:14.482Z</time></trkpt><trkpt lat="42.5637774" lon="12.9007642"><ele>1042.75</ele><time>2026-05-01T14:25:15.482Z</time></trkpt><trkpt lat="42.5637013" lon="12.9006452"><ele>1041.5</ele><time>2026-05-01T14:25:16.484Z</time></trkpt><trkpt lat="42.5636243" lon="12.9005325"><ele>1040.25</ele><time>2026-05-01T14:25:17.486Z</time></trkpt><trkpt lat="42.563547" lon="12.9004199"><ele>1039.0</ele><time>2026-05-01T14:25:18.494Z</time></trkpt><trkpt lat="42.5634694" lon="12.9003118"><ele>1041.8</ele><time>2026-05-01T14:25:19.491Z</time></trkpt><trkpt lat="42.5634008" lon="12.9002107"><ele>1044.6000000000001</ele><time>2026-05-01T14:25:20.499Z</time></trkpt><trkpt lat="42.5633464" lon="12.9001215"><ele>1047.4</ele><time>2026-05-01T14:25:21.493Z</time></trkpt><trkpt lat="42.5633023" lon="12.9000319"><ele>1050.2</ele><time>2026-05-01T14:25:22.481Z</time></trkpt><trkpt lat="42.5632529" lon="12.8999408"><ele>1053.0</ele><time>2026-05-01T14:25:23.481Z</time></trkpt><trkpt lat="42.5631624" lon="12.8997434"><ele>1053.0</ele><time>2026-05-01T14:25:25.49Z</time></trkpt><trkpt lat="42.5631343" lon="12.8996219"><ele>1053.0</ele><time>2026-05-01T14:25:26.488Z</time></trkpt><trkpt lat="42.5631295" lon="12.8994786"><ele>1053.0</ele><time>2026-05-01T14:25:27.489Z</time></trkpt><trkpt lat="42.5632209" lon="12.8991568"><ele>1050.5</ele><time>2026-05-01T14:25:29.489Z</time></trkpt><trkpt lat="42.5632791" lon="12.8989978"><ele>1048.0</ele><time>2026-05-01T14:25:30.496Z</time></trkpt><trkpt lat="42.5633558" lon="12.8985153"><ele>1047.6666666666665</ele><time>2026-05-01T14:25:33.478Z</time></trkpt><trkpt lat="42.5633282" lon="12.8983508"><ele>1047.3333333333333</ele><time>2026-05-01T14:25:34.483Z</time></trkpt><trkpt lat="42.5632848" lon="12.8981865"><ele>1047.0</ele><time>2026-05-01T14:25:35.486Z</time></trkpt><trkpt lat="42.5630374" lon="12.8975686"><ele>1057.5</ele><time>2026-05-01T14:25:39.487Z</time></trkpt><trkpt lat="42.5627926" lon="12.8971937"><ele>1068.0</ele><time>2026-05-01T14:25:42.484Z</time></trkpt><trkpt lat="42.562695" lon="12.8970881"><ele>1068.0</ele><time>2026-05-01T14:25:43.484Z</time></trkpt><trkpt lat="42.5624424" lon="12.8968005"><ele>1068.0</ele><time>2026-05-01T14:25:46.488Z</time></trkpt><trkpt lat="42.5624037" lon="12.8966718"><ele>1068.0</ele><time>2026-05-01T14:25:47.492Z</time></trkpt><trkpt lat="42.5623967" lon="12.8965259"><ele>1065.0</ele><time>2026-05-01T14:25:48.494Z</time></trkpt><trkpt lat="42.5623942" lon="12.8962427"><ele>1062.0</ele><time>2026-05-01T14:25:50.483Z</time></trkpt><trkpt lat="42.5624013" lon="12.8960894"><ele>1059.0</ele><time>2026-05-01T14:25:51.489Z</time></trkpt><trkpt lat="42.5624138" lon="12.8959348"><ele>1056.0</ele><time>2026-05-01T14:25:52.482Z</time></trkpt><trkpt lat="42.562445" lon="12.8956281"><ele>1055.6666666666667</ele><time>2026-05-01T14:25:54.483Z</time></trkpt><trkpt lat="42.5624606" lon="12.895474"><ele>1055.3333333333335</ele><time>2026-05-01T14:25:55.485Z</time></trkpt><trkpt lat="42.5624528" lon="12.8950277"><ele>1055.0</ele><time>2026-05-01T14:25:58.49Z</time></trkpt><trkpt lat="42.5624376" lon="12.8948865"><ele>1055.0</ele><time>2026-05-01T14:25:59.491Z</time></trkpt><trkpt lat="42.5624255" lon="12.8947413"><ele>1055.0</ele><time>2026-05-01T14:26:00.484Z</time></trkpt><trkpt lat="42.5624334" lon="12.8945937"><ele>1055.0</ele><time>2026-05-01T14:26:01.486Z</time></trkpt><trkpt lat="42.5624691" lon="12.8944563"><ele>1055.0</ele><time>2026-05-01T14:26:02.494Z</time></trkpt><trkpt lat="42.56261" lon="12.8940136"><ele>1054.6666666666667</ele><time>2026-05-01T14:26:05.499Z</time></trkpt><trkpt lat="42.5626543" lon="12.8938371"><ele>1054.3333333333333</ele><time>2026-05-01T14:26:06.488Z</time></trkpt><trkpt lat="42.5627071" lon="12.8934933"><ele>1054.0</ele><time>2026-05-01T14:26:08.5Z</time></trkpt><trkpt lat="42.56272" lon="12.8933387"><ele>1053.0</ele><time>2026-05-01T14:26:09.494Z</time></trkpt><trkpt lat="42.5626236" lon="12.8930113"><ele>1052.0</ele><time>2026-05-01T14:26:12.497Z</time></trkpt><trkpt lat="42.5625367" lon="12.892987"><ele>1051.0</ele><time>2026-05-01T14:26:13.483Z</time></trkpt><trkpt lat="42.5623288" lon="12.8930013"><ele>1051.0</ele><time>2026-05-01T14:26:15.484Z</time></trkpt><trkpt lat="42.5622221" lon="12.8929808"><ele>1051.0</ele><time>2026-05-01T14:26:16.492Z</time></trkpt><trkpt lat="42.5620538" lon="12.8928319"><ele>1051.0</ele><time>2026-05-01T14:26:18.486Z</time></trkpt><trkpt lat="42.5620967" lon="12.8924231"><ele>1047.0</ele><time>2026-05-01T14:26:21.48Z</time></trkpt><trkpt lat="42.562175" lon="12.8923086"><ele>1043.0</ele><time>2026-05-01T14:26:22.483Z</time></trkpt><trkpt lat="42.5622448" lon="12.8922058"><ele>1039.0</ele><time>2026-05-01T14:26:23.485Z</time></trkpt><trkpt lat="42.5623084" lon="12.8915979"><ele>1037.5</ele><time>2026-05-01T14:26:27.488Z</time></trkpt><trkpt lat="42.5622294" lon="12.8911214"><ele>1036.0</ele><time>2026-05-01T14:26:30.483Z</time></trkpt><trkpt lat="42.562168" lon="12.8909934"><ele>1044.5</ele><time>2026-05-01T14:26:31.484Z</time></trkpt><trkpt lat="42.5619222" lon="12.8906432"><ele>1053.0</ele><time>2026-05-01T14:26:34.491Z</time></trkpt><trkpt lat="42.5618365" lon="12.8905164"><ele>1053.0</ele><time>2026-05-01T14:26:35.486Z</time></trkpt><trkpt lat="42.561773" lon="12.8903461"><ele>1053.0</ele><time>2026-05-01T14:26:36.484Z</time></trkpt><trkpt lat="42.5617213" lon="12.8899307"><ele>1049.5</ele><time>2026-05-01T14:26:38.486Z</time></trkpt><trkpt lat="42.5617012" lon="12.8897268"><ele>1046.0</ele><time>2026-05-01T14:26:39.489Z</time></trkpt><trkpt lat="42.5616356" lon="12.8891616"><ele>1043.5</ele><time>2026-05-01T14:26:42.483Z</time></trkpt><trkpt lat="42.5615591" lon="12.8887648"><ele>1041.0</ele><time>2026-05-01T14:26:44.488Z</time></trkpt><trkpt lat="42.5615111" lon="12.8885655"><ele>1033.0</ele><time>2026-05-01T14:26:45.497Z</time></trkpt><trkpt lat="42.5614136" lon="12.8878568"><ele>1030.6666666666665</ele><time>2026-05-01T14:26:49.482Z</time></trkpt><trkpt lat="42.5613534" lon="12.8875024"><ele>1028.3333333333333</ele><time>2026-05-01T14:26:51.486Z</time></trkpt><trkpt lat="42.5613294" lon="12.8873164"><ele>1026.0</ele><time>2026-05-01T14:26:52.493Z</time></trkpt><trkpt lat="42.5612034" lon="12.8867659"><ele>1033.0</ele><time>2026-05-01T14:26:55.487Z</time></trkpt><trkpt lat="42.5609587" lon="12.886298"><ele>1040.0</ele><time>2026-05-01T14:26:58.487Z</time></trkpt><trkpt lat="42.5608533" lon="12.8861435"><ele>1031.0</ele><time>2026-05-01T14:26:59.487Z</time></trkpt><trkpt lat="42.5605401" lon="12.8857121"><ele>1022.0</ele><time>2026-05-01T14:27:02.478Z</time></trkpt><trkpt lat="42.5604156" lon="12.8855937"><ele>1022.6666666666667</ele><time>2026-05-01T14:27:03.485Z</time></trkpt><trkpt lat="42.5601696" lon="12.885366"><ele>1023.3333333333333</ele><time>2026-05-01T14:27:05.482Z</time></trkpt><trkpt lat="42.5600573" lon="12.8852338"><ele>1024.0</ele><time>2026-05-01T14:27:06.484Z</time></trkpt><trkpt lat="42.5598172" lon="12.8849654"><ele>1043.0</ele><time>2026-05-01T14:27:08.494Z</time></trkpt><trkpt lat="42.5594657" lon="12.8846084"><ele>1062.0</ele><time>2026-05-01T14:27:11.481Z</time></trkpt><trkpt lat="42.5594236" lon="12.8844753"><ele>1058.5</ele><time>2026-05-01T14:27:12.495Z</time></trkpt><trkpt lat="42.5594966" lon="12.8841856"><ele>1055.0</ele><time>2026-05-01T14:27:14.49Z</time></trkpt><trkpt lat="42.5596452" lon="12.8839384"><ele>1037.6666666666667</ele><time>2026-05-01T14:27:16.491Z</time></trkpt><trkpt lat="42.5597174" lon="12.8838427"><ele>1020.3333333333333</ele><time>2026-05-01T14:27:17.481Z</time></trkpt><trkpt lat="42.5598626" lon="12.8835526"><ele>1003.0</ele><time>2026-05-01T14:27:21.48Z</time></trkpt><trkpt lat="42.5598869" lon="12.883309"><ele>1003.0</ele><time>2026-05-01T14:27:26.485Z</time></trkpt><trkpt lat="42.5598052" lon="12.8832651"><ele>1003.0</ele><time>2026-05-01T14:27:33.489Z</time></trkpt><trkpt lat="42.5597945" lon="12.8833786"><ele>1003.0</ele><time>2026-05-01T14:27:35.495Z</time></trkpt><trkpt lat="42.5597814" lon="12.8834678"><ele>1003.0</ele><time>2026-05-01T14:27:36.485Z</time></trkpt><trkpt lat="42.5596665" lon="12.8838508"><ele>1003.0</ele><time>2026-05-01T14:27:39.488Z</time></trkpt><trkpt lat="42.5595702" lon="12.884041"><ele>1003.0</ele><time>2026-05-01T14:27:41.48Z</time></trkpt><trkpt lat="42.5595381" lon="12.8841181"><ele>1003.0</ele><time>2026-05-01T14:27:42.486Z</time></trkpt><trkpt lat="42.5594577" lon="12.8843175"><ele>1003.0</ele><time>2026-05-01T14:27:45.479Z</time></trkpt><trkpt lat="42.5594459" lon="12.8844901"><ele>1003.0</ele><time>2026-05-01T14:27:48.486Z</time></trkpt><trkpt lat="42.5594543" lon="12.8846465"><ele>1003.0</ele><time>2026-05-01T14:27:52.486Z</time></trkpt><trkpt lat="42.5595533" lon="12.8844033"><ele>1003.0</ele><time>2026-05-01T14:29:35.488Z</time></trkpt><trkpt lat="42.5595714" lon="12.884269"><ele>1003.0</ele><time>2026-05-01T14:29:36.492Z</time></trkpt><trkpt lat="42.5596655" lon="12.8839852"><ele>1003.0</ele><time>2026-05-01T14:29:38.484Z</time></trkpt><trkpt lat="42.5597846" lon="12.8837219"><ele>1003.0</ele><time>2026-05-01T14:29:40.483Z</time></trkpt><trkpt lat="42.5598432" lon="12.8835959"><ele>1003.0</ele><time>2026-05-01T14:29:41.491Z</time></trkpt><trkpt lat="42.5599062" lon="12.8830231"><ele>1002.0</ele><time>2026-05-01T14:29:45.486Z</time></trkpt><trkpt lat="42.5597985" lon="12.8827211"><ele>1001.0</ele><time>2026-05-01T14:29:47.489Z</time></trkpt><trkpt lat="42.5596852" lon="12.8824185"><ele>1054.0</ele><time>2026-05-01T14:29:49.477Z</time></trkpt><trkpt lat="42.5594816" lon="12.8817718"><ele>1046.5</ele><time>2026-05-01T14:29:53.489Z</time></trkpt><trkpt lat="42.5593746" lon="12.8812951"><ele>1039.0</ele><time>2026-05-01T14:29:56.5Z</time></trkpt><trkpt lat="42.5593466" lon="12.8811434"><ele>1036.5</ele><time>2026-05-01T14:29:57.488Z</time></trkpt><trkpt lat="42.5593072" lon="12.8808165"><ele>1034.0</ele><time>2026-05-01T14:29:59.478Z</time></trkpt><trkpt lat="42.5593242" lon="12.88029"><ele>1034.0</ele><time>2026-05-01T14:30:02.477Z</time></trkpt><trkpt lat="42.5593549" lon="12.880122"><ele>1034.0</ele><time>2026-05-01T14:30:03.488Z</time></trkpt><trkpt lat="42.5593843" lon="12.8795614"><ele>1031.0</ele><time>2026-05-01T14:30:06.483Z</time></trkpt><trkpt lat="42.5593594" lon="12.8793481"><ele>1028.0</ele><time>2026-05-01T14:30:07.492Z</time></trkpt><trkpt lat="42.5591767" lon="12.8786539"><ele>1013.0</ele><time>2026-05-01T14:30:10.484Z</time></trkpt><trkpt lat="42.5591083" lon="12.8782836"><ele>998.0</ele><time>2026-05-01T14:30:12.491Z</time></trkpt><trkpt lat="42.5590232" lon="12.8779268"><ele>998.0</ele><time>2026-05-01T14:30:14.483Z</time></trkpt><trkpt lat="42.5589622" lon="12.8777677"><ele>998.0</ele><time>2026-05-01T14:30:15.484Z</time></trkpt><trkpt lat="42.5588822" lon="12.8775989"><ele>998.0</ele><time>2026-05-01T14:30:16.482Z</time></trkpt><trkpt lat="42.5587681" lon="12.8770424"><ele>995.3333333333334</ele><time>2026-05-01T14:30:19.481Z</time></trkpt><trkpt lat="42.5586913" lon="12.8767253"><ele>992.6666666666667</ele><time>2026-05-01T14:30:21.482Z</time></trkpt><trkpt lat="42.5586138" lon="12.8765986"><ele>990.0</ele><time>2026-05-01T14:30:22.485Z</time></trkpt><trkpt lat="42.558335" lon="12.8764838"><ele>990.0</ele><time>2026-05-01T14:30:24.484Z</time></trkpt><trkpt lat="42.5581873" lon="12.8764705"><ele>990.0</ele><time>2026-05-01T14:30:25.485Z</time></trkpt><trkpt lat="42.558036" lon="12.8764959"><ele>990.0</ele><time>2026-05-01T14:30:26.482Z</time></trkpt><trkpt lat="42.5575494" lon="12.8766061"><ele>986.5</ele><time>2026-05-01T14:30:29.486Z</time></trkpt><trkpt lat="42.5572147" lon="12.8766446"><ele>983.0</ele><time>2026-05-01T14:30:31.484Z</time></trkpt><trkpt lat="42.5570567" lon="12.8766621"><ele>976.0</ele><time>2026-05-01T14:30:32.483Z</time></trkpt><trkpt lat="42.5567458" lon="12.8767283"><ele>969.0</ele><time>2026-05-01T14:30:34.483Z</time></trkpt><trkpt lat="42.5565978" lon="12.8767494"><ele>975.6666666666667</ele><time>2026-05-01T14:30:35.484Z</time></trkpt><trkpt lat="42.5563265" lon="12.8768605"><ele>982.3333333333334</ele><time>2026-05-01T14:30:37.484Z</time></trkpt><trkpt lat="42.556225" lon="12.8769222"><ele>989.0</ele><time>2026-05-01T14:30:38.487Z</time></trkpt><trkpt lat="42.5561246" lon="12.8769899"><ele>989.0</ele><time>2026-05-01T14:30:39.49Z</time></trkpt><trkpt lat="42.5558455" lon="12.8771156"><ele>989.0</ele><time>2026-05-01T14:30:42.488Z</time></trkpt><trkpt lat="42.5556431" lon="12.8769803"><ele>983.0</ele><time>2026-05-01T14:30:45.479Z</time></trkpt><trkpt lat="42.5555915" lon="12.8765352"><ele>977.0</ele><time>2026-05-01T14:30:49.487Z</time></trkpt><trkpt lat="42.5557808" lon="12.8760717"><ele>977.0</ele><time>2026-05-01T14:30:52.485Z</time></trkpt><trkpt lat="42.555878" lon="12.8759444"><ele>977.0</ele><time>2026-05-01T14:30:53.485Z</time></trkpt><trkpt lat="42.5561128" lon="12.8757247"><ele>977.0</ele><time>2026-05-01T14:30:55.48Z</time></trkpt><trkpt lat="42.5566214" lon="12.875288"><ele>975.0</ele><time>2026-05-01T14:30:59.487Z</time></trkpt><trkpt lat="42.5569658" lon="12.8749641"><ele>973.0</ele><time>2026-05-01T14:31:02.485Z</time></trkpt><trkpt lat="42.557094" lon="12.8748621"><ele>965.0</ele><time>2026-05-01T14:31:03.483Z</time></trkpt><trkpt lat="42.5572149" lon="12.8747625"><ele>957.0</ele><time>2026-05-01T14:31:04.485Z</time></trkpt><trkpt lat="42.5573433" lon="12.8746597"><ele>949.0</ele><time>2026-05-01T14:31:05.481Z</time></trkpt><trkpt lat="42.5577013" lon="12.8743679"><ele>944.5</ele><time>2026-05-01T14:31:08.484Z</time></trkpt><trkpt lat="42.5580556" lon="12.8742324"><ele>940.0</ele><time>2026-05-01T14:31:11.486Z</time></trkpt><trkpt lat="42.5581415" lon="12.8742141"><ele>940.0</ele><time>2026-05-01T14:31:12.484Z</time></trkpt><trkpt lat="42.5582874" lon="12.8741205"><ele>940.0</ele><time>2026-05-01T14:31:14.494Z</time></trkpt><trkpt lat="42.5583517" lon="12.8740501"><ele>940.0</ele><time>2026-05-01T14:31:15.487Z</time></trkpt><trkpt lat="42.558413" lon="12.8739548"><ele>940.0</ele><time>2026-05-01T14:31:16.485Z</time></trkpt><trkpt lat="42.5584738" lon="12.8738435"><ele>940.0</ele><time>2026-05-01T14:31:17.478Z</time></trkpt><trkpt lat="42.5585311" lon="12.8737049"><ele>948.0</ele><time>2026-05-01T14:31:18.481Z</time></trkpt><trkpt lat="42.5586966" lon="12.8732249"><ele>956.0</ele><time>2026-05-01T14:31:21.486Z</time></trkpt><trkpt lat="42.5587584" lon="12.872867"><ele>909.0</ele><time>2026-05-01T14:31:23.479Z</time></trkpt><trkpt lat="42.5588657" lon="12.8722043"><ele>909.0</ele><time>2026-05-01T14:31:27.479Z</time></trkpt><trkpt lat="42.5589453" lon="12.8718535"><ele>909.0</ele><time>2026-05-01T14:31:30.485Z</time></trkpt><trkpt lat="42.5589574" lon="12.8717489"><ele>909.0</ele><time>2026-05-01T14:31:31.481Z</time></trkpt><trkpt lat="42.5589007" lon="12.8715787"><ele>909.6666666666667</ele><time>2026-05-01T14:31:33.48Z</time></trkpt><trkpt lat="42.5588439" lon="12.8715034"><ele>910.3333333333334</ele><time>2026-05-01T14:31:34.49Z</time></trkpt><trkpt lat="42.5585992" lon="12.8713222"><ele>911.0</ele><time>2026-05-01T14:31:37.482Z</time></trkpt><trkpt lat="42.5585133" lon="12.8712645"><ele>916.0</ele><time>2026-05-01T14:31:38.485Z</time></trkpt><trkpt lat="42.558341" lon="12.8710945"><ele>921.0</ele><time>2026-05-01T14:31:40.496Z</time></trkpt><trkpt lat="42.5582555" lon="12.8709704"><ele>926.0</ele><time>2026-05-01T14:31:41.482Z</time></trkpt><trkpt lat="42.5581026" lon="12.870668"><ele>926.0</ele><time>2026-05-01T14:31:43.482Z</time></trkpt><trkpt lat="42.5579707" lon="12.8703498"><ele>926.0</ele><time>2026-05-01T14:31:45.48Z</time></trkpt><trkpt lat="42.5579175" lon="12.8701903"><ele>926.0</ele><time>2026-05-01T14:31:46.487Z</time></trkpt><trkpt lat="42.5578619" lon="12.8700261"><ele>933.0</ele><time>2026-05-01T14:31:47.484Z</time></trkpt><trkpt lat="42.5578094" lon="12.8698695"><ele>940.0</ele><time>2026-05-01T14:31:48.486Z</time></trkpt><trkpt lat="42.5576714" lon="12.8695951"><ele>947.0</ele><time>2026-05-01T14:31:50.486Z</time></trkpt><trkpt lat="42.5575039" lon="12.8694169"><ele>947.0</ele><time>2026-05-01T14:31:52.49Z</time></trkpt><trkpt lat="42.5574108" lon="12.869355"><ele>947.0</ele><time>2026-05-01T14:31:53.477Z</time></trkpt><trkpt lat="42.5571554" lon="12.8689993"><ele>937.0</ele><time>2026-05-01T14:31:57.484Z</time></trkpt><trkpt lat="42.557196" lon="12.8686076"><ele>927.0</ele><time>2026-05-01T14:32:00.495Z</time></trkpt><trkpt lat="42.55721" lon="12.8684863"><ele>917.0</ele><time>2026-05-01T14:32:01.483Z</time></trkpt><trkpt lat="42.5572206" lon="12.8683757"><ele>922.6666666666667</ele><time>2026-05-01T14:32:02.486Z</time></trkpt><trkpt lat="42.5572358" lon="12.8682496"><ele>928.3333333333333</ele><time>2026-05-01T14:32:03.486Z</time></trkpt><trkpt lat="42.5569918" lon="12.8679311"><ele>934.0</ele><time>2026-05-01T14:32:07.491Z</time></trkpt><trkpt lat="42.5565475" lon="12.8676386"><ele>918.5</ele><time>2026-05-01T14:32:12.484Z</time></trkpt><trkpt lat="42.5564856" lon="12.8675292"><ele>903.0</ele><time>2026-05-01T14:32:13.491Z</time></trkpt><trkpt lat="42.5562584" lon="12.8671535"><ele>913.0</ele><time>2026-05-01T14:32:17.481Z</time></trkpt><trkpt lat="42.5557945" lon="12.8672386"><ele>913.0</ele><time>2026-05-01T14:32:22.483Z</time></trkpt><trkpt lat="42.5555734" lon="12.867333"><ele>913.0</ele><time>2026-05-01T14:32:24.488Z</time></trkpt><trkpt lat="42.5554602" lon="12.8673645"><ele>913.0</ele><time>2026-05-01T14:32:25.479Z</time></trkpt><trkpt lat="42.5549968" lon="12.8674376"><ele>912.5</ele><time>2026-05-01T14:32:29.487Z</time></trkpt><trkpt lat="42.5547474" lon="12.8674374"><ele>912.0</ele><time>2026-05-01T14:32:32.483Z</time></trkpt><trkpt lat="42.554702" lon="12.8670928"><ele>903.0</ele><time>2026-05-01T14:32:36.484Z</time></trkpt><trkpt lat="42.5548584" lon="12.8667762"><ele>894.0</ele><time>2026-05-01T14:32:39.481Z</time></trkpt><trkpt lat="42.5550163" lon="12.8662613"><ele>883.5</ele><time>2026-05-01T14:32:43.483Z</time></trkpt><trkpt lat="42.5548673" lon="12.8659238"><ele>873.0</ele><time>2026-05-01T14:32:47.482Z</time></trkpt><trkpt lat="42.5545319" lon="12.8659638"><ele>896.0</ele><time>2026-05-01T14:32:50.479Z</time></trkpt><trkpt lat="42.5541458" lon="12.8660294"><ele>919.0</ele><time>2026-05-01T14:32:53.489Z</time></trkpt><trkpt lat="42.5540295" lon="12.8660257"><ele>919.0</ele><time>2026-05-01T14:32:54.484Z</time></trkpt><trkpt lat="42.553911" lon="12.8660166"><ele>919.0</ele><time>2026-05-01T14:32:55.503Z</time></trkpt><trkpt lat="42.5537918" lon="12.8660055"><ele>919.0</ele><time>2026-05-01T14:32:56.483Z</time></trkpt><trkpt lat="42.5534675" lon="12.8659166"><ele>917.6</ele><time>2026-05-01T14:32:59.474Z</time></trkpt><trkpt lat="42.5533844" lon="12.8658495"><ele>916.2</ele><time>2026-05-01T14:33:00.482Z</time></trkpt><trkpt lat="42.5533328" lon="12.8657764"><ele>914.8000000000001</ele><time>2026-05-01T14:33:01.486Z</time></trkpt><trkpt lat="42.5533368" lon="12.8656906"><ele>913.4000000000001</ele><time>2026-05-01T14:33:02.485Z</time></trkpt><trkpt lat="42.5534142" lon="12.8654768"><ele>912.0</ele><time>2026-05-01T14:33:04.489Z</time></trkpt><trkpt lat="42.5534491" lon="12.865361"><ele>912.0</ele><time>2026-05-01T14:33:05.475Z</time></trkpt><trkpt lat="42.5534878" lon="12.8652292"><ele>912.0</ele><time>2026-05-01T14:33:06.489Z</time></trkpt><trkpt lat="42.5535346" lon="12.865101"><ele>912.0</ele><time>2026-05-01T14:33:07.484Z</time></trkpt><trkpt lat="42.5535825" lon="12.8649692"><ele>912.0</ele><time>2026-05-01T14:33:08.49Z</time></trkpt><trkpt lat="42.5536343" lon="12.8647277"><ele>909.3333333333333</ele><time>2026-05-01T14:33:10.489Z</time></trkpt><trkpt lat="42.5536232" lon="12.864609"><ele>906.6666666666666</ele><time>2026-05-01T14:33:11.479Z</time></trkpt><trkpt lat="42.5534479" lon="12.8642915"><ele>904.0</ele><time>2026-05-01T14:33:14.485Z</time></trkpt><trkpt lat="42.5533822" lon="12.864195"><ele>912.5</ele><time>2026-05-01T14:33:15.493Z</time></trkpt><trkpt lat="42.5532287" lon="12.8640201"><ele>921.0</ele><time>2026-05-01T14:33:17.488Z</time></trkpt><trkpt lat="42.5527869" lon="12.8636595"><ele>910.0</ele><time>2026-05-01T14:33:21.485Z</time></trkpt><trkpt lat="42.5525691" lon="12.8634468"><ele>899.0</ele><time>2026-05-01T14:33:23.476Z</time></trkpt><trkpt lat="42.5524712" lon="12.8633042"><ele>888.0</ele><time>2026-05-01T14:33:24.491Z</time></trkpt><trkpt lat="42.5522671" lon="12.8628401"><ele>858.0</ele><time>2026-05-01T14:33:27.486Z</time></trkpt><trkpt lat="42.5521357" lon="12.8622543"><ele>864.3333333333333</ele><time>2026-05-01T14:33:31.486Z</time></trkpt><trkpt lat="42.5518789" lon="12.8619827"><ele>870.6666666666666</ele><time>2026-05-01T14:33:35.477Z</time></trkpt><trkpt lat="42.5517787" lon="12.8620105"><ele>877.0</ele><time>2026-05-01T14:33:36.486Z</time></trkpt><trkpt lat="42.5514646" lon="12.8622587"><ele>877.0</ele><time>2026-05-01T14:33:39.491Z</time></trkpt><trkpt lat="42.5512574" lon="12.8624446"><ele>877.0</ele><time>2026-05-01T14:33:41.484Z</time></trkpt><trkpt lat="42.5511527" lon="12.8625339"><ele>877.0</ele><time>2026-05-01T14:33:42.484Z</time></trkpt><trkpt lat="42.5508765" lon="12.862698"><ele>877.0</ele><time>2026-05-01T14:33:45.485Z</time></trkpt><trkpt lat="42.5507148" lon="12.8624645"><ele>877.0</ele><time>2026-05-01T14:33:49.485Z</time></trkpt><trkpt lat="42.5508872" lon="12.8616764"><ele>875.6666666666666</ele><time>2026-05-01T14:33:53.482Z</time></trkpt><trkpt lat="42.5509761" lon="12.8612845"><ele>874.3333333333333</ele><time>2026-05-01T14:33:55.486Z</time></trkpt><trkpt lat="42.5510313" lon="12.8611264"><ele>873.0</ele><time>2026-05-01T14:33:56.489Z</time></trkpt><trkpt lat="42.551062" lon="12.8609607"><ele>871.0</ele><time>2026-05-01T14:33:57.482Z</time></trkpt><trkpt lat="42.551073" lon="12.8608083"><ele>869.0</ele><time>2026-05-01T14:33:58.482Z</time></trkpt><trkpt lat="42.5509797" lon="12.8603687"><ele>844.0</ele><time>2026-05-01T14:34:01.48Z</time></trkpt><trkpt lat="42.5506806" lon="12.8598476"><ele>869.0</ele><time>2026-05-01T14:34:05.478Z</time></trkpt><trkpt lat="42.5503039" lon="12.8594142"><ele>869.0</ele><time>2026-05-01T14:34:09.483Z</time></trkpt><trkpt lat="42.5499252" lon="12.8593025"><ele>869.0</ele><time>2026-05-01T14:34:12.483Z</time></trkpt><trkpt lat="42.5497875" lon="12.8593124"><ele>871.5</ele><time>2026-05-01T14:34:13.484Z</time></trkpt><trkpt lat="42.5494315" lon="12.8593549"><ele>874.0</ele><time>2026-05-01T14:34:16.494Z</time></trkpt><trkpt lat="42.5493227" lon="12.8593835"><ele>874.0</ele><time>2026-05-01T14:34:17.489Z</time></trkpt><trkpt lat="42.5492205" lon="12.8593982"><ele>874.0000000000001</ele><time>2026-05-01T14:34:18.479Z</time></trkpt><trkpt lat="42.5491237" lon="12.859409"><ele>874.0000000000001</ele><time>2026-05-01T14:34:19.487Z</time></trkpt><trkpt lat="42.5490364" lon="12.8594123"><ele>874.0</ele><time>2026-05-01T14:34:20.48Z</time></trkpt><trkpt lat="42.5489624" lon="12.8594169"><ele>874.0</ele><time>2026-05-01T14:34:21.481Z</time></trkpt><trkpt lat="42.5488618" lon="12.8594218"><ele>874.0</ele><time>2026-05-01T14:34:24.489Z</time></trkpt><trkpt lat="42.5487443" lon="12.8594453"><ele>874.0</ele><time>2026-05-01T14:34:59.483Z</time></trkpt><trkpt lat="42.5485728" lon="12.8593807"><ele>874.0</ele><time>2026-05-01T14:35:01.482Z</time></trkpt><trkpt lat="42.5484523" lon="12.8589872"><ele>869.0</ele><time>2026-05-01T14:35:04.482Z</time></trkpt><trkpt lat="42.5484843" lon="12.8588309"><ele>864.0</ele><time>2026-05-01T14:35:05.483Z</time></trkpt><trkpt lat="42.548649" lon="12.858263"><ele>860.5</ele><time>2026-05-01T14:35:08.489Z</time></trkpt><trkpt lat="42.5486971" lon="12.8577709"><ele>857.0</ele><time>2026-05-01T14:35:11.489Z</time></trkpt><trkpt lat="42.5486376" lon="12.8576543"><ele>848.0</ele><time>2026-05-01T14:35:12.484Z</time></trkpt><trkpt lat="42.5483071" lon="12.8573191"><ele>839.0</ele><time>2026-05-01T14:35:15.481Z</time></trkpt><trkpt lat="42.5481144" lon="12.8570872"><ele>818.0</ele><time>2026-05-01T14:35:17.488Z</time></trkpt><trkpt lat="42.5479724" lon="12.8564697"><ele>818.0</ele><time>2026-05-01T14:35:20.485Z</time></trkpt><trkpt lat="42.5478866" lon="12.8562579"><ele>818.0</ele><time>2026-05-01T14:35:21.479Z</time></trkpt><trkpt lat="42.5476869" lon="12.8559154"><ele>821.0</ele><time>2026-05-01T14:35:23.483Z</time></trkpt><trkpt lat="42.5470683" lon="12.8559283"><ele>821.6666666666667</ele><time>2026-05-01T14:35:28.488Z</time></trkpt><trkpt lat="42.5469299" lon="12.8559856"><ele>822.3333333333333</ele><time>2026-05-01T14:35:29.481Z</time></trkpt><trkpt lat="42.5466453" lon="12.8558746"><ele>823.0</ele><time>2026-05-01T14:35:31.491Z</time></trkpt><trkpt lat="42.5461303" lon="12.8552716"><ele>823.0</ele><time>2026-05-01T14:35:35.479Z</time></trkpt><trkpt lat="42.5460131" lon="12.8550959"><ele>823.0</ele><time>2026-05-01T14:35:36.482Z</time></trkpt><trkpt lat="42.5458111" lon="12.8546722"><ele>811.0</ele><time>2026-05-01T14:35:38.488Z</time></trkpt><trkpt lat="42.5456028" lon="12.8542201"><ele>799.0</ele><time>2026-05-01T14:35:40.493Z</time></trkpt><trkpt lat="42.5454638" lon="12.8540486"><ele>797.3333333333333</ele><time>2026-05-01T14:35:41.482Z</time></trkpt><trkpt lat="42.5453322" lon="12.8539014"><ele>795.6666666666667</ele><time>2026-05-01T14:35:42.494Z</time></trkpt><trkpt lat="42.5452204" lon="12.853747"><ele>794.0</ele><time>2026-05-01T14:35:43.484Z</time></trkpt><trkpt lat="42.544863" lon="12.853445"><ele>803.0</ele><time>2026-05-01T14:35:46.486Z</time></trkpt><trkpt lat="42.5442299" lon="12.8533176"><ele>803.0</ele><time>2026-05-01T14:35:49.483Z</time></trkpt><trkpt lat="42.544031" lon="12.8532803"><ele>803.0</ele><time>2026-05-01T14:35:50.49Z</time></trkpt><trkpt lat="42.5435189" lon="12.8531401"><ele>810.5</ele><time>2026-05-01T14:35:53.479Z</time></trkpt><trkpt lat="42.5433701" lon="12.8530832"><ele>818.0</ele><time>2026-05-01T14:35:54.484Z</time></trkpt><trkpt lat="42.5429937" lon="12.8527223"><ele>817.0</ele><time>2026-05-01T14:35:57.492Z</time></trkpt><trkpt lat="42.5428687" lon="12.8525252"><ele>816.0</ele><time>2026-05-01T14:35:58.485Z</time></trkpt><trkpt lat="42.5427316" lon="12.852335"><ele>815.0</ele><time>2026-05-01T14:35:59.482Z</time></trkpt><trkpt lat="42.5425159" lon="12.851885"><ele>792.0</ele><time>2026-05-01T14:36:01.479Z</time></trkpt><trkpt lat="42.5421804" lon="12.8512001"><ele>792.0</ele><time>2026-05-01T14:36:04.483Z</time></trkpt><trkpt lat="42.5420491" lon="12.8509906"><ele>792.0</ele><time>2026-05-01T14:36:05.481Z</time></trkpt><trkpt lat="42.5419154" lon="12.8508151"><ele>792.0</ele><time>2026-05-01T14:36:06.482Z</time></trkpt><trkpt lat="42.5417756" lon="12.8506753"><ele>791.5</ele><time>2026-05-01T14:36:07.486Z</time></trkpt><trkpt lat="42.5416133" lon="12.8505626"><ele>791.0</ele><time>2026-05-01T14:36:08.486Z</time></trkpt><trkpt lat="42.5408225" lon="12.8501212"><ele>787.5</ele><time>2026-05-01T14:36:12.486Z</time></trkpt><trkpt lat="42.5405167" lon="12.849852"><ele>784.0</ele><time>2026-05-01T14:36:14.488Z</time></trkpt><trkpt lat="42.5403926" lon="12.849704"><ele>798.0</ele><time>2026-05-01T14:36:15.482Z</time></trkpt><trkpt lat="42.5400204" lon="12.8493392"><ele>798.0</ele><time>2026-05-01T14:36:18.499Z</time></trkpt><trkpt lat="42.5398333" lon="12.8492962"><ele>798.0</ele><time>2026-05-01T14:36:19.483Z</time></trkpt><trkpt lat="42.5395325" lon="12.8493429"><ele>787.3333333333334</ele><time>2026-05-01T14:36:21.484Z</time></trkpt><trkpt lat="42.5394235" lon="12.8494444"><ele>776.6666666666667</ele><time>2026-05-01T14:36:22.491Z</time></trkpt><trkpt lat="42.5392449" lon="12.8497903"><ele>766.0</ele><time>2026-05-01T14:36:24.477Z</time></trkpt><trkpt lat="42.5391693" lon="12.8499637"><ele>773.0</ele><time>2026-05-01T14:36:25.484Z</time></trkpt><trkpt lat="42.5391136" lon="12.8501843"><ele>780.0</ele><time>2026-05-01T14:36:26.479Z</time></trkpt><trkpt lat="42.5390034" lon="12.8507052"><ele>787.5</ele><time>2026-05-01T14:36:28.486Z</time></trkpt><trkpt lat="42.5388542" lon="12.8512663"><ele>795.0</ele><time>2026-05-01T14:36:30.481Z</time></trkpt><trkpt lat="42.5387619" lon="12.8515344"><ele>751.0</ele><time>2026-05-01T14:36:31.493Z</time></trkpt><trkpt lat="42.5385588" lon="12.8521121"><ele>751.0</ele><time>2026-05-01T14:36:33.477Z</time></trkpt><trkpt lat="42.5384789" lon="12.8523948"><ele>751.0</ele><time>2026-05-01T14:36:34.486Z</time></trkpt><trkpt lat="42.5383123" lon="12.8531664"><ele>756.3333333333334</ele><time>2026-05-01T14:36:37.481Z</time></trkpt><trkpt lat="42.5382685" lon="12.8533773"><ele>761.6666666666666</ele><time>2026-05-01T14:36:38.5Z</time></trkpt><trkpt lat="42.5382277" lon="12.8535438"><ele>767.0</ele><time>2026-05-01T14:36:39.483Z</time></trkpt><trkpt lat="42.5381074" lon="12.8538175"><ele>763.3333333333333</ele><time>2026-05-01T14:36:41.482Z</time></trkpt><trkpt lat="42.5379977" lon="12.8539042"><ele>759.6666666666666</ele><time>2026-05-01T14:36:42.482Z</time></trkpt><trkpt lat="42.537749" lon="12.8541631"><ele>756.0</ele><time>2026-05-01T14:36:44.482Z</time></trkpt><trkpt lat="42.5375564" lon="12.8545476"><ele>756.0</ele><time>2026-05-01T14:36:46.492Z</time></trkpt><trkpt lat="42.5375096" lon="12.8547632"><ele>756.0</ele><time>2026-05-01T14:36:47.488Z</time></trkpt><trkpt lat="42.5374294" lon="12.855135"><ele>736.0</ele><time>2026-05-01T14:36:49.484Z</time></trkpt><trkpt lat="42.5370013" lon="12.8557207"><ele>752.0</ele><time>2026-05-01T14:36:53.479Z</time></trkpt><trkpt lat="42.5367522" lon="12.8562286"><ele>752.0</ele><time>2026-05-01T14:36:56.48Z</time></trkpt><trkpt lat="42.5367014" lon="12.8566109"><ele>752.0</ele><time>2026-05-01T14:36:58.476Z</time></trkpt><trkpt lat="42.5363142" lon="12.857208"><ele>758.0</ele><time>2026-05-01T14:37:02.478Z</time></trkpt><trkpt lat="42.536201" lon="12.8573116"><ele>764.0</ele><time>2026-05-01T14:37:03.489Z</time></trkpt><trkpt lat="42.535884" lon="12.8573654"><ele>764.0</ele><time>2026-05-01T14:37:06.479Z</time></trkpt><trkpt lat="42.535808" lon="12.8573189"><ele>764.0</ele><time>2026-05-01T14:37:07.485Z</time></trkpt><trkpt lat="42.5357637" lon="12.8572234"><ele>764.0</ele><time>2026-05-01T14:37:08.482Z</time></trkpt><trkpt lat="42.5357578" lon="12.857088"><ele>764.0</ele><time>2026-05-01T14:37:09.483Z</time></trkpt><trkpt lat="42.535879" lon="12.8566429"><ele>762.0</ele><time>2026-05-01T14:37:12.496Z</time></trkpt><trkpt lat="42.535921" lon="12.8562196"><ele>760.0</ele><time>2026-05-01T14:37:14.483Z</time></trkpt><trkpt lat="42.5358997" lon="12.856007"><ele>760.0</ele><time>2026-05-01T14:37:15.485Z</time></trkpt><trkpt lat="42.5359207" lon="12.8553539"><ele>760.0</ele><time>2026-05-01T14:37:18.481Z</time></trkpt><trkpt lat="42.5359535" lon="12.8551191"><ele>760.0</ele><time>2026-05-01T14:37:19.477Z</time></trkpt><trkpt lat="42.5359879" lon="12.8545978"><ele>760.0</ele><time>2026-05-01T14:37:21.481Z</time></trkpt><trkpt lat="42.5359681" lon="12.8543122"><ele>760.0</ele><time>2026-05-01T14:37:22.483Z</time></trkpt><trkpt lat="42.5359847" lon="12.8535046"><ele>761.5</ele><time>2026-05-01T14:37:25.486Z</time></trkpt><trkpt lat="42.5360102" lon="12.8532507"><ele>763.0</ele><time>2026-05-01T14:37:26.486Z</time></trkpt><trkpt lat="42.5360093" lon="12.8527269"><ele>761.0</ele><time>2026-05-01T14:37:28.482Z</time></trkpt><trkpt lat="42.5359819" lon="12.8524236"><ele>759.0</ele><time>2026-05-01T14:37:29.48Z</time></trkpt><trkpt lat="42.5359652" lon="12.8521346"><ele>757.0</ele><time>2026-05-01T14:37:30.492Z</time></trkpt><trkpt lat="42.535915" lon="12.8514236"><ele>756.3333333333334</ele><time>2026-05-01T14:37:33.486Z</time></trkpt><trkpt lat="42.5358845" lon="12.8511998"><ele>755.6666666666666</ele><time>2026-05-01T14:37:34.476Z</time></trkpt><trkpt lat="42.535835" lon="12.8509705"><ele>755.0</ele><time>2026-05-01T14:37:35.485Z</time></trkpt><trkpt lat="42.53579" lon="12.8507063"><ele>752.0</ele><time>2026-05-01T14:37:36.481Z</time></trkpt><trkpt lat="42.5357328" lon="12.8501462"><ele>749.0</ele><time>2026-05-01T14:37:38.484Z</time></trkpt><trkpt lat="42.5357359" lon="12.8498576"><ele>747.5</ele><time>2026-05-01T14:37:39.479Z</time></trkpt><trkpt lat="42.5357106" lon="12.8493568"><ele>746.0</ele><time>2026-05-01T14:37:41.489Z</time></trkpt><trkpt lat="42.5355569" lon="12.8483245"><ele>733.0</ele><time>2026-05-01T14:37:45.478Z</time></trkpt><trkpt lat="42.5355475" lon="12.8476124"><ele>733.0</ele><time>2026-05-01T14:37:48.486Z</time></trkpt><trkpt lat="42.5355826" lon="12.847359"><ele>733.0</ele><time>2026-05-01T14:37:49.48Z</time></trkpt><trkpt lat="42.5356878" lon="12.8464252"><ele>738.0</ele><time>2026-05-01T14:37:53.478Z</time></trkpt><trkpt lat="42.5356229" lon="12.8455459"><ele>738.0</ele><time>2026-05-01T14:37:57.483Z</time></trkpt><trkpt lat="42.5356412" lon="12.8453571"><ele>738.0</ele><time>2026-05-01T14:37:58.486Z</time></trkpt><trkpt lat="42.5356401" lon="12.8450545"><ele>738.0</ele><time>2026-05-01T14:38:00.487Z</time></trkpt><trkpt lat="42.5353738" lon="12.8448668"><ele>742.0</ele><time>2026-05-01T14:38:03.481Z</time></trkpt><trkpt lat="42.5352276" lon="12.8449087"><ele>746.0</ele><time>2026-05-01T14:38:04.479Z</time></trkpt><trkpt lat="42.5345394" lon="12.845184"><ele>755.5</ele><time>2026-05-01T14:38:08.491Z</time></trkpt><trkpt lat="42.5343337" lon="12.8452805"><ele>765.0</ele><time>2026-05-01T14:38:09.494Z</time></trkpt><trkpt lat="42.5337769" lon="12.8455947"><ele>764.0</ele><time>2026-05-01T14:38:12.487Z</time></trkpt><trkpt lat="42.5336615" lon="12.8456561"><ele>763.0</ele><time>2026-05-01T14:38:13.481Z</time></trkpt><trkpt lat="42.5333356" lon="12.845492"><ele>763.0</ele><time>2026-05-01T14:38:16.492Z</time></trkpt><trkpt lat="42.5330548" lon="12.8451885"><ele>763.0</ele><time>2026-05-01T14:38:18.488Z</time></trkpt><trkpt lat="42.5328949" lon="12.8450449"><ele>749.0</ele><time>2026-05-01T14:38:19.484Z</time></trkpt><trkpt lat="42.5323595" lon="12.8442422"><ele>749.0</ele><time>2026-05-01T14:38:23.486Z</time></trkpt><trkpt lat="42.5322497" lon="12.8440611"><ele>749.0</ele><time>2026-05-01T14:38:24.485Z</time></trkpt><trkpt lat="42.5321747" lon="12.8438795"><ele>749.0</ele><time>2026-05-01T14:38:25.478Z</time></trkpt><trkpt lat="42.5320654" lon="12.8432398"><ele>758.0</ele><time>2026-05-01T14:38:28.483Z</time></trkpt><trkpt lat="42.5320056" lon="12.8430513"><ele>767.0</ele><time>2026-05-01T14:38:29.492Z</time></trkpt><trkpt lat="42.5316753" lon="12.842677"><ele>756.5</ele><time>2026-05-01T14:38:32.487Z</time></trkpt><trkpt lat="42.5313739" lon="12.8425994"><ele>746.0</ele><time>2026-05-01T14:38:34.477Z</time></trkpt><trkpt lat="42.5311919" lon="12.8426122"><ele>763.0</ele><time>2026-05-01T14:38:35.479Z</time></trkpt><trkpt lat="42.5310079" lon="12.8426705"><ele>780.0</ele><time>2026-05-01T14:38:36.475Z</time></trkpt><trkpt lat="42.5306767" lon="12.8428618"><ele>780.0</ele><time>2026-05-01T14:38:38.481Z</time></trkpt><trkpt lat="42.5305264" lon="12.8429535"><ele>780.0</ele><time>2026-05-01T14:38:39.484Z</time></trkpt><trkpt lat="42.5300662" lon="12.8428561"><ele>777.5</ele><time>2026-05-01T14:38:42.481Z</time></trkpt><trkpt lat="42.5299331" lon="12.8427816"><ele>775.0</ele><time>2026-05-01T14:38:43.477Z</time></trkpt><trkpt lat="42.5295236" lon="12.8430512"><ele>775.5</ele><time>2026-05-01T14:38:46.48Z</time></trkpt><trkpt lat="42.5294038" lon="12.8432044"><ele>776.0</ele><time>2026-05-01T14:38:47.476Z</time></trkpt><trkpt lat="42.5292124" lon="12.8435889"><ele>776.0</ele><time>2026-05-01T14:38:49.487Z</time></trkpt><trkpt lat="42.5291314" lon="12.8437502"><ele>776.0</ele><time>2026-05-01T14:38:50.478Z</time></trkpt><trkpt lat="42.5289367" lon="12.8440185"><ele>776.0</ele><time>2026-05-01T14:38:53.485Z</time></trkpt><trkpt lat="42.5288616" lon="12.8440024"><ele>776.0</ele><time>2026-05-01T14:38:54.484Z</time></trkpt><trkpt lat="42.5287793" lon="12.8437762"><ele>776.0</ele><time>2026-05-01T14:38:57.48Z</time></trkpt><trkpt lat="42.5287976" lon="12.8436306"><ele>776.0</ele><time>2026-05-01T14:38:58.478Z</time></trkpt><trkpt lat="42.5288645" lon="12.8432106"><ele>770.0</ele><time>2026-05-01T14:39:00.484Z</time></trkpt><trkpt lat="42.5288901" lon="12.842952"><ele>764.0</ele><time>2026-05-01T14:39:01.485Z</time></trkpt><trkpt lat="42.5289057" lon="12.8426837"><ele>758.0</ele><time>2026-05-01T14:39:02.481Z</time></trkpt><trkpt lat="42.5288001" lon="12.8419774"><ele>764.5</ele><time>2026-05-01T14:39:05.481Z</time></trkpt><trkpt lat="42.5286365" lon="12.8415217"><ele>771.0</ele><time>2026-05-01T14:39:07.483Z</time></trkpt><trkpt lat="42.5285413" lon="12.8413125"><ele>771.0</ele><time>2026-05-01T14:39:08.48Z</time></trkpt><trkpt lat="42.5282448" lon="12.8409757"><ele>771.0</ele><time>2026-05-01T14:39:10.49Z</time></trkpt><trkpt lat="42.5279326" lon="12.8408087"><ele>765.0</ele><time>2026-05-01T14:39:12.481Z</time></trkpt><trkpt lat="42.5278235" lon="12.8407906"><ele>759.0</ele><time>2026-05-01T14:39:13.48Z</time></trkpt><trkpt lat="42.5277206" lon="12.8408086"><ele>753.0</ele><time>2026-05-01T14:39:14.48Z</time></trkpt><trkpt lat="42.5275189" lon="12.8411847"><ele>764.0</ele><time>2026-05-01T14:39:17.491Z</time></trkpt><trkpt lat="42.5275207" lon="12.8420601"><ele>764.0</ele><time>2026-05-01T14:39:21.478Z</time></trkpt><trkpt lat="42.5274833" lon="12.8422646"><ele>764.0</ele><time>2026-05-01T14:39:22.493Z</time></trkpt><trkpt lat="42.527142" lon="12.8429517"><ele>764.25</ele><time>2026-05-01T14:39:26.483Z</time></trkpt><trkpt lat="42.5270386" lon="12.8430531"><ele>764.5</ele><time>2026-05-01T14:39:27.489Z</time></trkpt><trkpt lat="42.5269103" lon="12.8431292"><ele>764.75</ele><time>2026-05-01T14:39:28.493Z</time></trkpt><trkpt lat="42.5267854" lon="12.8432171"><ele>765.0</ele><time>2026-05-01T14:39:29.48Z</time></trkpt><trkpt lat="42.5265512" lon="12.843275"><ele>765.0</ele><time>2026-05-01T14:39:31.476Z</time></trkpt><trkpt lat="42.5263213" lon="12.8426846"><ele>759.0</ele><time>2026-05-01T14:39:35.482Z</time></trkpt><trkpt lat="42.5262388" lon="12.8422309"><ele>753.0</ele><time>2026-05-01T14:39:37.485Z</time></trkpt><trkpt lat="42.5258862" lon="12.8415976"><ele>753.0</ele><time>2026-05-01T14:39:40.481Z</time></trkpt><trkpt lat="42.5257859" lon="12.841376"><ele>753.0</ele><time>2026-05-01T14:39:41.48Z</time></trkpt><trkpt lat="42.5253472" lon="12.8407685"><ele>749.0</ele><time>2026-05-01T14:39:45.482Z</time></trkpt><trkpt lat="42.5248453" lon="12.8408634"><ele>749.0</ele><time>2026-05-01T14:39:48.478Z</time></trkpt><trkpt lat="42.5246731" lon="12.8409158"><ele>749.0</ele><time>2026-05-01T14:39:49.49Z</time></trkpt><trkpt lat="42.5244633" lon="12.8409605"><ele>749.0</ele><time>2026-05-01T14:39:50.484Z</time></trkpt><trkpt lat="42.5242408" lon="12.8410076"><ele>754.0</ele><time>2026-05-01T14:39:51.484Z</time></trkpt><trkpt lat="42.5234306" lon="12.8412082"><ele>754.0</ele><time>2026-05-01T14:39:55.484Z</time></trkpt><trkpt lat="42.5229206" lon="12.8412322"><ele>754.0</ele><time>2026-05-01T14:39:58.498Z</time></trkpt><trkpt lat="42.5227584" lon="12.8411785"><ele>754.0</ele><time>2026-05-01T14:39:59.476Z</time></trkpt><trkpt lat="42.522337" lon="12.8408237"><ele>753.3333333333334</ele><time>2026-05-01T14:40:02.479Z</time></trkpt><trkpt lat="42.5221314" lon="12.8405724"><ele>752.6666666666666</ele><time>2026-05-01T14:40:04.484Z</time></trkpt><trkpt lat="42.5220678" lon="12.8404421"><ele>752.0</ele><time>2026-05-01T14:40:05.482Z</time></trkpt><trkpt lat="42.5220207" lon="12.8403149"><ele>748.5</ele><time>2026-05-01T14:40:06.482Z</time></trkpt><trkpt lat="42.5219334" lon="12.8398726"><ele>745.0</ele><time>2026-05-01T14:40:09.491Z</time></trkpt><trkpt lat="42.5219893" lon="12.8394208"><ele>744.3333333333334</ele><time>2026-05-01T14:40:12.479Z</time></trkpt><trkpt lat="42.5220449" lon="12.8392846"><ele>743.6666666666666</ele><time>2026-05-01T14:40:13.487Z</time></trkpt><trkpt lat="42.5222638" lon="12.8389436"><ele>743.0</ele><time>2026-05-01T14:40:16.486Z</time></trkpt><trkpt lat="42.5223316" lon="12.8388372"><ele>744.0</ele><time>2026-05-01T14:40:17.478Z</time></trkpt><trkpt lat="42.5224159" lon="12.8383182"><ele>745.0</ele><time>2026-05-01T14:40:21.476Z</time></trkpt><trkpt lat="42.5224523" lon="12.8376632"><ele>746.0</ele><time>2026-05-01T14:40:25.477Z</time></trkpt><trkpt lat="42.5224906" lon="12.8375175"><ele>747.0</ele><time>2026-05-01T14:40:26.481Z</time></trkpt><trkpt lat="42.5226268" lon="12.8372944"><ele>748.0</ele><time>2026-05-01T14:40:28.48Z</time></trkpt><trkpt lat="42.5231552" lon="12.8371905"><ele>745.5</ele><time>2026-05-01T14:40:32.484Z</time></trkpt><trkpt lat="42.5235453" lon="12.8371183"><ele>743.0</ele><time>2026-05-01T14:40:35.481Z</time></trkpt><trkpt lat="42.5238571" lon="12.8366174"><ele>743.0</ele><time>2026-05-01T14:40:39.484Z</time></trkpt><trkpt lat="42.524092" lon="12.8363994"><ele>743.0</ele><time>2026-05-01T14:40:42.484Z</time></trkpt><trkpt lat="42.52419" lon="12.8364338"><ele>743.0</ele><time>2026-05-01T14:40:43.487Z</time></trkpt><trkpt lat="42.5242936" lon="12.8365209"><ele>743.0</ele><time>2026-05-01T14:40:44.493Z</time></trkpt><trkpt lat="42.5245231" lon="12.8366311"><ele>743.0</ele><time>2026-05-01T14:40:46.483Z</time></trkpt><trkpt lat="42.5246385" lon="12.8366198"><ele>743.0</ele><time>2026-05-01T14:40:47.487Z</time></trkpt><trkpt lat="42.5247535" lon="12.8365523"><ele>737.5</ele><time>2026-05-01T14:40:48.476Z</time></trkpt><trkpt lat="42.5248627" lon="12.8364534"><ele>732.0</ele><time>2026-05-01T14:40:49.478Z</time></trkpt><trkpt lat="42.525161" lon="12.8360387"><ele>739.0</ele><time>2026-05-01T14:40:52.486Z</time></trkpt><trkpt lat="42.5252111" lon="12.8357837"><ele>746.0</ele><time>2026-05-01T14:40:53.48Z</time></trkpt><trkpt lat="42.5252831" lon="12.8351766"><ele>746.6666666666666</ele><time>2026-05-01T14:40:56.487Z</time></trkpt><trkpt lat="42.5252962" lon="12.834959"><ele>747.3333333333334</ele><time>2026-05-01T14:40:57.479Z</time></trkpt><trkpt lat="42.5252987" lon="12.8347372"><ele>748.0</ele><time>2026-05-01T14:40:58.484Z</time></trkpt><trkpt lat="42.5252925" lon="12.8343222"><ele>751.3333333333334</ele><time>2026-05-01T14:41:00.485Z</time></trkpt><trkpt lat="42.5253544" lon="12.8340192"><ele>754.6666666666666</ele><time>2026-05-01T14:41:02.487Z</time></trkpt><trkpt lat="42.5254459" lon="12.8338973"><ele>758.0</ele><time>2026-05-01T14:41:03.485Z</time></trkpt><trkpt lat="42.5258997" lon="12.8334861"><ele>751.5</ele><time>2026-05-01T14:41:07.486Z</time></trkpt><trkpt lat="42.5260343" lon="12.8333728"><ele>745.0</ele><time>2026-05-01T14:41:08.479Z</time></trkpt><trkpt lat="42.5263727" lon="12.833041"><ele>742.6666666666667</ele><time>2026-05-01T14:41:11.472Z</time></trkpt><trkpt lat="42.5265723" lon="12.8327897"><ele>740.3333333333334</ele><time>2026-05-01T14:41:14.488Z</time></trkpt><trkpt lat="42.5266016" lon="12.8326837"><ele>738.0</ele><time>2026-05-01T14:41:15.479Z</time></trkpt><trkpt lat="42.5265475" lon="12.8323887"><ele>738.0</ele><time>2026-05-01T14:41:18.482Z</time></trkpt><trkpt lat="42.5264808" lon="12.8323031"><ele>738.0</ele><time>2026-05-01T14:41:19.48Z</time></trkpt><trkpt lat="42.5263835" lon="12.8322298"><ele>738.0</ele><time>2026-05-01T14:41:20.478Z</time></trkpt><trkpt lat="42.5262817" lon="12.8321524"><ele>738.0</ele><time>2026-05-01T14:41:21.475Z</time></trkpt><trkpt lat="42.5259836" lon="12.8319838"><ele>740.25</ele><time>2026-05-01T14:41:24.479Z</time></trkpt><trkpt lat="42.5258749" lon="12.8319969"><ele>742.5</ele><time>2026-05-01T14:41:25.479Z</time></trkpt><trkpt lat="42.5257594" lon="12.8320498"><ele>744.75</ele><time>2026-05-01T14:41:26.479Z</time></trkpt><trkpt lat="42.525674" lon="12.8321506"><ele>747.0</ele><time>2026-05-01T14:41:27.479Z</time></trkpt><trkpt lat="42.5255043" lon="12.8324432"><ele>747.0</ele><time>2026-05-01T14:41:29.484Z</time></trkpt><trkpt lat="42.5254008" lon="12.832578"><ele>747.0</ele><time>2026-05-01T14:41:30.481Z</time></trkpt><trkpt lat="42.524831" lon="12.8328901"><ele>751.0</ele><time>2026-05-01T14:41:34.491Z</time></trkpt><trkpt lat="42.5246876" lon="12.8329387"><ele>755.0</ele><time>2026-05-01T14:41:35.48Z</time></trkpt><trkpt lat="42.5245571" lon="12.8329645"><ele>759.0</ele><time>2026-05-01T14:41:36.482Z</time></trkpt><trkpt lat="42.5243117" lon="12.8328409"><ele>761.0</ele><time>2026-05-01T14:41:38.487Z</time></trkpt><trkpt lat="42.5239075" lon="12.8326258"><ele>763.0</ele><time>2026-05-01T14:41:42.487Z</time></trkpt><trkpt lat="42.5237835" lon="12.8326661"><ele>762.0</ele><time>2026-05-01T14:41:43.485Z</time></trkpt><trkpt lat="42.5233381" lon="12.8331291"><ele>762.0</ele><time>2026-05-01T14:41:47.479Z</time></trkpt><trkpt lat="42.5231716" lon="12.8334481"><ele>762.0</ele><time>2026-05-01T14:41:49.48Z</time></trkpt><trkpt lat="42.5227335" lon="12.8334423"><ele>769.0</ele><time>2026-05-01T14:41:53.477Z</time></trkpt><trkpt lat="42.5222721" lon="12.83349"><ele>766.0</ele><time>2026-05-01T14:41:57.475Z</time></trkpt><trkpt lat="42.5218023" lon="12.833663"><ele>766.0</ele><time>2026-05-01T14:42:01.488Z</time></trkpt><trkpt lat="42.5215399" lon="12.8336027"><ele>766.0</ele><time>2026-05-01T14:42:04.476Z</time></trkpt><trkpt lat="42.5214829" lon="12.8335309"><ele>766.0</ele><time>2026-05-01T14:42:05.477Z</time></trkpt><trkpt lat="42.5213911" lon="12.8332041"><ele>763.6666666666667</ele><time>2026-05-01T14:42:08.487Z</time></trkpt><trkpt lat="42.5214066" lon="12.8329093"><ele>761.3333333333334</ele><time>2026-05-01T14:42:10.499Z</time></trkpt><trkpt lat="42.5214239" lon="12.832767"><ele>759.0</ele><time>2026-05-01T14:42:11.48Z</time></trkpt><trkpt lat="42.5214533" lon="12.832473"><ele>758.0</ele><time>2026-05-01T14:42:13.481Z</time></trkpt><trkpt lat="42.5214564" lon="12.832322"><ele>757.0</ele><time>2026-05-01T14:42:14.48Z</time></trkpt><trkpt lat="42.5214124" lon="12.8320113"><ele>756.0</ele><time>2026-05-01T14:42:16.482Z</time></trkpt><trkpt lat="42.5213395" lon="12.8318623"><ele>755.6666666666666</ele><time>2026-05-01T14:42:17.482Z</time></trkpt><trkpt lat="42.5212335" lon="12.8317195"><ele>755.3333333333333</ele><time>2026-05-01T14:42:18.48Z</time></trkpt><trkpt lat="42.5210266" lon="12.8314834"><ele>755.0</ele><time>2026-05-01T14:42:20.494Z</time></trkpt><trkpt lat="42.5207433" lon="12.8311485"><ele>751.5</ele><time>2026-05-01T14:42:23.481Z</time></trkpt><trkpt lat="42.5206569" lon="12.8310357"><ele>748.0</ele><time>2026-05-01T14:42:24.488Z</time></trkpt><trkpt lat="42.5204171" lon="12.83071"><ele>744.75</ele><time>2026-05-01T14:42:27.477Z</time></trkpt><trkpt lat="42.520337" lon="12.8306159"><ele>741.5</ele><time>2026-05-01T14:42:28.484Z</time></trkpt><trkpt lat="42.5201765" lon="12.830426"><ele>738.25</ele><time>2026-05-01T14:42:30.481Z</time></trkpt><trkpt lat="42.5200977" lon="12.8303252"><ele>735.0</ele><time>2026-05-01T14:42:31.478Z</time></trkpt><trkpt lat="42.5199403" lon="12.8299821"><ele>734.5</ele><time>2026-05-01T14:42:34.487Z</time></trkpt><trkpt lat="42.520075" lon="12.8297372"><ele>734.0</ele><time>2026-05-01T14:42:37.475Z</time></trkpt><trkpt lat="42.5203607" lon="12.8299277"><ele>732.5</ele><time>2026-05-01T14:42:40.485Z</time></trkpt><trkpt lat="42.5204636" lon="12.8300558"><ele>731.0</ele><time>2026-05-01T14:42:41.477Z</time></trkpt><trkpt lat="42.5207797" lon="12.8304461"><ele>735.0</ele><time>2026-05-01T14:42:44.486Z</time></trkpt><trkpt lat="42.5209652" lon="12.8305737"><ele>739.0</ele><time>2026-05-01T14:42:46.487Z</time></trkpt><trkpt lat="42.5210444" lon="12.8305555"><ele>743.0</ele><time>2026-05-01T14:42:47.479Z</time></trkpt><trkpt lat="42.5211479" lon="12.8303495"><ele>739.0</ele><time>2026-05-01T14:42:49.476Z</time></trkpt><trkpt lat="42.5211896" lon="12.8300018"><ele>735.0</ele><time>2026-05-01T14:42:51.487Z</time></trkpt><trkpt lat="42.5212075" lon="12.8298191"><ele>731.0</ele><time>2026-05-01T14:42:52.48Z</time></trkpt><trkpt lat="42.5212281" lon="12.8296382"><ele>734.5</ele><time>2026-05-01T14:42:53.478Z</time></trkpt><trkpt lat="42.5212512" lon="12.8291522"><ele>738.0</ele><time>2026-05-01T14:42:56.479Z</time></trkpt><trkpt lat="42.5212169" lon="12.8289762"><ele>732.3333333333334</ele><time>2026-05-01T14:42:57.477Z</time></trkpt><trkpt lat="42.5211829" lon="12.8287996"><ele>726.6666666666667</ele><time>2026-05-01T14:42:58.488Z</time></trkpt><trkpt lat="42.5211181" lon="12.8284271"><ele>721.0</ele><time>2026-05-01T14:43:00.478Z</time></trkpt><trkpt lat="42.5210801" lon="12.8282446"><ele>719.0</ele><time>2026-05-01T14:43:01.473Z</time></trkpt><trkpt lat="42.5210425" lon="12.8280687"><ele>717.0</ele><time>2026-05-01T14:43:02.48Z</time></trkpt><trkpt lat="42.5209471" lon="12.8275609"><ele>717.0</ele><time>2026-05-01T14:43:05.472Z</time></trkpt><trkpt lat="42.5207138" lon="12.8272825"><ele>717.0</ele><time>2026-05-01T14:43:08.479Z</time></trkpt><trkpt lat="42.5203881" lon="12.8271117"><ele>715.3333333333334</ele><time>2026-05-01T14:43:11.484Z</time></trkpt><trkpt lat="42.5202977" lon="12.8270134"><ele>713.6666666666667</ele><time>2026-05-01T14:43:12.481Z</time></trkpt><trkpt lat="42.5202522" lon="12.8268808"><ele>712.0</ele><time>2026-05-01T14:43:13.482Z</time></trkpt><trkpt lat="42.5204006" lon="12.8263422"><ele>712.0</ele><time>2026-05-01T14:43:17.48Z</time></trkpt><trkpt lat="42.5207139" lon="12.8262741"><ele>712.0</ele><time>2026-05-01T14:43:20.483Z</time></trkpt><trkpt lat="42.5208956" lon="12.8261579"><ele>712.0</ele><time>2026-05-01T14:43:22.477Z</time></trkpt><trkpt lat="42.5209314" lon="12.8260396"><ele>712.0</ele><time>2026-05-01T14:43:23.489Z</time></trkpt><trkpt lat="42.5207726" lon="12.8254126"><ele>706.5</ele><time>2026-05-01T14:43:27.489Z</time></trkpt><trkpt lat="42.5206801" lon="12.82507"><ele>701.0</ele><time>2026-05-01T14:43:29.489Z</time></trkpt><trkpt lat="42.5206505" lon="12.824582"><ele>703.0</ele><time>2026-05-01T14:43:32.48Z</time></trkpt><trkpt lat="42.5205817" lon="12.8243017"><ele>705.0</ele><time>2026-05-01T14:43:34.48Z</time></trkpt><trkpt lat="42.5204982" lon="12.824195"><ele>707.0</ele><time>2026-05-01T14:43:35.478Z</time></trkpt><trkpt lat="42.5201013" lon="12.8237536"><ele>705.5</ele><time>2026-05-01T14:43:39.479Z</time></trkpt><trkpt lat="42.5200189" lon="12.82365"><ele>704.0</ele><time>2026-05-01T14:43:40.482Z</time></trkpt><trkpt lat="42.5198815" lon="12.8234875"><ele>702.5</ele><time>2026-05-01T14:43:42.485Z</time></trkpt><trkpt lat="42.5198151" lon="12.8234222"><ele>701.0</ele><time>2026-05-01T14:43:43.481Z</time></trkpt><trkpt lat="42.519611" lon="12.8232754"><ele>694.0</ele><time>2026-05-01T14:43:46.478Z</time></trkpt><trkpt lat="42.5195464" lon="12.8232293"><ele>687.0</ele><time>2026-05-01T14:43:47.485Z</time></trkpt><trkpt lat="42.5193289" lon="12.8229754"><ele>680.0</ele><time>2026-05-01T14:43:51.482Z</time></trkpt><trkpt lat="42.519162" lon="12.8224016"><ele>680.0</ele><time>2026-05-01T14:43:55.482Z</time></trkpt><trkpt lat="42.5191313" lon="12.8219935"><ele>680.0</ele><time>2026-05-01T14:43:57.481Z</time></trkpt><trkpt lat="42.519168" lon="12.8216018"><ele>679.3333333333333</ele><time>2026-05-01T14:43:59.482Z</time></trkpt><trkpt lat="42.519248" lon="12.8213052"><ele>678.6666666666666</ele><time>2026-05-01T14:44:01.474Z</time></trkpt><trkpt lat="42.5193142" lon="12.8211997"><ele>678.0</ele><time>2026-05-01T14:44:02.478Z</time></trkpt><trkpt lat="42.5194258" lon="12.821098"><ele>679.0</ele><time>2026-05-01T14:44:03.486Z</time></trkpt><trkpt lat="42.5195255" lon="12.8209722"><ele>680.0</ele><time>2026-05-01T14:44:04.477Z</time></trkpt><trkpt lat="42.5197041" lon="12.8206941"><ele>681.0</ele><time>2026-05-01T14:44:06.486Z</time></trkpt><trkpt lat="42.5198019" lon="12.8205854"><ele>681.0</ele><time>2026-05-01T14:44:07.473Z</time></trkpt><trkpt lat="42.5199103" lon="12.8205057"><ele>681.0</ele><time>2026-05-01T14:44:08.478Z</time></trkpt><trkpt lat="42.5202039" lon="12.8204685"><ele>681.0</ele><time>2026-05-01T14:44:11.477Z</time></trkpt><trkpt lat="42.5203692" lon="12.8202743"><ele>681.0</ele><time>2026-05-01T14:44:15.487Z</time></trkpt><trkpt lat="42.5203289" lon="12.8201764"><ele>681.0</ele><time>2026-05-01T14:44:16.48Z</time></trkpt><trkpt lat="42.5200231" lon="12.8198426"><ele>679.5</ele><time>2026-05-01T14:44:19.479Z</time></trkpt><trkpt lat="42.5199227" lon="12.8197323"><ele>678.0</ele><time>2026-05-01T14:44:20.479Z</time></trkpt><trkpt lat="42.5198051" lon="12.8196407"><ele>676.5</ele><time>2026-05-01T14:44:21.482Z</time></trkpt><trkpt lat="42.5196741" lon="12.8195468"><ele>675.0</ele><time>2026-05-01T14:44:22.477Z</time></trkpt><trkpt lat="42.5193721" lon="12.8194292"><ele>672.0</ele><time>2026-05-01T14:44:24.489Z</time></trkpt><trkpt lat="42.5192057" lon="12.8193732"><ele>669.0</ele><time>2026-05-01T14:44:25.48Z</time></trkpt><trkpt lat="42.5189099" lon="12.8192181"><ele>669.0</ele><time>2026-05-01T14:44:27.474Z</time></trkpt><trkpt lat="42.5187989" lon="12.8191062"><ele>669.0</ele><time>2026-05-01T14:44:28.478Z</time></trkpt><trkpt lat="42.5186734" lon="12.8187287"><ele>669.0</ele><time>2026-05-01T14:44:30.479Z</time></trkpt><trkpt lat="42.518687" lon="12.8178231"><ele>653.5</ele><time>2026-05-01T14:44:34.486Z</time></trkpt><trkpt lat="42.5187038" lon="12.8176372"><ele>638.0</ele><time>2026-05-01T14:44:35.482Z</time></trkpt><trkpt lat="42.5186695" lon="12.8168826"><ele>636.5</ele><time>2026-05-01T14:44:39.479Z</time></trkpt><trkpt lat="42.518627" lon="12.8166673"><ele>635.0</ele><time>2026-05-01T14:44:40.49Z</time></trkpt><trkpt lat="42.5184224" lon="12.8157885"><ele>633.0</ele><time>2026-05-01T14:44:44.479Z</time></trkpt><trkpt lat="42.5184022" lon="12.8151294"><ele>633.0</ele><time>2026-05-01T14:44:47.478Z</time></trkpt><trkpt lat="42.5184121" lon="12.8148948"><ele>633.0</ele><time>2026-05-01T14:44:48.495Z</time></trkpt><trkpt lat="42.5184257" lon="12.8146487"><ele>633.0</ele><time>2026-05-01T14:44:49.478Z</time></trkpt><trkpt lat="42.518448" lon="12.8144149"><ele>630.0</ele><time>2026-05-01T14:44:50.481Z</time></trkpt><trkpt lat="42.5184657" lon="12.813778"><ele>626.0</ele><time>2026-05-01T14:44:53.484Z</time></trkpt><trkpt lat="42.5185866" lon="12.8130009"><ele>628.0</ele><time>2026-05-01T14:44:57.479Z</time></trkpt><trkpt lat="42.5189746" lon="12.8125741"><ele>628.0</ele><time>2026-05-01T14:45:01.475Z</time></trkpt><trkpt lat="42.5193568" lon="12.8123589"><ele>628.0</ele><time>2026-05-01T14:45:04.482Z</time></trkpt><trkpt lat="42.5194794" lon="12.8123256"><ele>624.6666666666667</ele><time>2026-05-01T14:45:05.485Z</time></trkpt><trkpt lat="42.5196117" lon="12.8122885"><ele>621.3333333333334</ele><time>2026-05-01T14:45:06.491Z</time></trkpt><trkpt lat="42.5198731" lon="12.8121244"><ele>618.0</ele><time>2026-05-01T14:45:08.48Z</time></trkpt><trkpt lat="42.5199872" lon="12.8119997"><ele>618.0</ele><time>2026-05-01T14:45:09.479Z</time></trkpt><trkpt lat="42.5200985" lon="12.8118881"><ele>618.0</ele><time>2026-05-01T14:45:10.487Z</time></trkpt><trkpt lat="42.5204161" lon="12.8114988"><ele>615.6666666666666</ele><time>2026-05-01T14:45:13.487Z</time></trkpt><trkpt lat="42.520496" lon="12.8113316"><ele>613.3333333333333</ele><time>2026-05-01T14:45:14.483Z</time></trkpt><trkpt lat="42.5205567" lon="12.811163"><ele>611.0</ele><time>2026-05-01T14:45:15.478Z</time></trkpt><trkpt lat="42.5205408" lon="12.8106123"><ele>611.0</ele><time>2026-05-01T14:45:19.487Z</time></trkpt><trkpt lat="42.5204847" lon="12.8104626"><ele>611.0</ele><time>2026-05-01T14:45:20.486Z</time></trkpt><trkpt lat="42.5204851" lon="12.8098347"><ele>612.6666666666666</ele><time>2026-05-01T14:45:24.478Z</time></trkpt><trkpt lat="42.5205414" lon="12.8097326"><ele>614.3333333333334</ele><time>2026-05-01T14:45:25.483Z</time></trkpt><trkpt lat="42.5206158" lon="12.8096763"><ele>616.0</ele><time>2026-05-01T14:45:26.483Z</time></trkpt><trkpt lat="42.5209773" lon="12.8097285"><ele>605.0</ele><time>2026-05-01T14:45:29.488Z</time></trkpt><trkpt lat="42.5215989" lon="12.8098275"><ele>605.0</ele><time>2026-05-01T14:45:33.485Z</time></trkpt><trkpt lat="42.5220083" lon="12.8098007"><ele>605.0</ele><time>2026-05-01T14:45:36.493Z</time></trkpt><trkpt lat="42.5220906" lon="12.8097063"><ele>599.0</ele><time>2026-05-01T14:45:37.48Z</time></trkpt><trkpt lat="42.5221261" lon="12.8093601"><ele>593.0</ele><time>2026-05-01T14:45:39.487Z</time></trkpt><trkpt lat="42.5221527" lon="12.808713"><ele>590.0</ele><time>2026-05-01T14:45:43.487Z</time></trkpt><trkpt lat="42.522083" lon="12.8084443"><ele>587.0</ele><time>2026-05-01T14:45:45.481Z</time></trkpt><trkpt lat="42.5219903" lon="12.8083461"><ele>584.0</ele><time>2026-05-01T14:45:46.483Z</time></trkpt><trkpt lat="42.5217151" lon="12.8080779"><ele>591.0</ele><time>2026-05-01T14:45:49.476Z</time></trkpt><trkpt lat="42.5216796" lon="12.8078087"><ele>598.0</ele><time>2026-05-01T14:45:51.479Z</time></trkpt><trkpt lat="42.521707" lon="12.8076665"><ele>605.0</ele><time>2026-05-01T14:45:52.477Z</time></trkpt><trkpt lat="42.5219264" lon="12.8072405"><ele>605.0</ele><time>2026-05-01T14:45:55.476Z</time></trkpt><trkpt lat="42.5220328" lon="12.8071121"><ele>605.0</ele><time>2026-05-01T14:45:56.483Z</time></trkpt><trkpt lat="42.5222944" lon="12.806896"><ele>605.0</ele><time>2026-05-01T14:45:58.5Z</time></trkpt><trkpt lat="42.5224617" lon="12.806803"><ele>601.5</ele><time>2026-05-01T14:45:59.48Z</time></trkpt><trkpt lat="42.5227765" lon="12.806582"><ele>598.0</ele><time>2026-05-01T14:46:01.483Z</time></trkpt><trkpt lat="42.5231417" lon="12.806147"><ele>594.3333333333334</ele><time>2026-05-01T14:46:04.476Z</time></trkpt><trkpt lat="42.5232575" lon="12.806003"><ele>590.6666666666666</ele><time>2026-05-01T14:46:05.474Z</time></trkpt><trkpt lat="42.5234708" lon="12.8057557"><ele>587.0</ele><time>2026-05-01T14:46:07.477Z</time></trkpt><trkpt lat="42.5235697" lon="12.8056438"><ele>585.3333333333333</ele><time>2026-05-01T14:46:08.488Z</time></trkpt><trkpt lat="42.5237917" lon="12.8053792"><ele>583.6666666666666</ele><time>2026-05-01T14:46:11.478Z</time></trkpt><trkpt lat="42.5238398" lon="12.805301"><ele>582.0</ele><time>2026-05-01T14:46:12.472Z</time></trkpt><trkpt lat="42.5238679" lon="12.8050424"><ele>583.3333333333334</ele><time>2026-05-01T14:46:15.483Z</time></trkpt><trkpt lat="42.5236515" lon="12.8047608"><ele>584.6666666666667</ele><time>2026-05-01T14:46:18.478Z</time></trkpt><trkpt lat="42.5235634" lon="12.8046237"><ele>586.0</ele><time>2026-05-01T14:46:19.48Z</time></trkpt><trkpt lat="42.5233282" lon="12.8040839"><ele>583.3333333333334</ele><time>2026-05-01T14:46:22.478Z</time></trkpt><trkpt lat="42.5232623" lon="12.8038694"><ele>580.6666666666666</ele><time>2026-05-01T14:46:23.486Z</time></trkpt><trkpt lat="42.523201" lon="12.8036684"><ele>578.0</ele><time>2026-05-01T14:46:24.481Z</time></trkpt><trkpt lat="42.5230524" lon="12.8031207"><ele>561.0</ele><time>2026-05-01T14:46:27.48Z</time></trkpt><trkpt lat="42.5229446" lon="12.8021932"><ele>570.0</ele><time>2026-05-01T14:46:31.475Z</time></trkpt><trkpt lat="42.5227988" lon="12.8016198"><ele>579.0</ele><time>2026-05-01T14:46:34.486Z</time></trkpt><trkpt lat="42.5227383" lon="12.8014472"><ele>579.0</ele><time>2026-05-01T14:46:35.482Z</time></trkpt><trkpt lat="42.5226454" lon="12.80126"><ele>579.0</ele><time>2026-05-01T14:46:36.477Z</time></trkpt><trkpt lat="42.5222472" lon="12.8005341"><ele>578.5</ele><time>2026-05-01T14:46:40.479Z</time></trkpt><trkpt lat="42.5220097" lon="12.8001234"><ele>578.0</ele><time>2026-05-01T14:46:43.47Z</time></trkpt><trkpt lat="42.5219968" lon="12.7994911"><ele>548.0</ele><time>2026-05-01T14:46:47.485Z</time></trkpt><trkpt lat="42.5221234" lon="12.7988777"><ele>548.0</ele><time>2026-05-01T14:46:50.484Z</time></trkpt><trkpt lat="42.5221558" lon="12.7986988"><ele>548.0</ele><time>2026-05-01T14:46:51.479Z</time></trkpt><trkpt lat="42.5222479" lon="12.797976"><ele>549.0</ele><time>2026-05-01T14:46:55.486Z</time></trkpt><trkpt lat="42.5223944" lon="12.7971743"><ele>549.0</ele><time>2026-05-01T14:47:00.485Z</time></trkpt><trkpt lat="42.5225002" lon="12.7970626"><ele>549.0</ele><time>2026-05-01T14:47:01.474Z</time></trkpt><trkpt lat="42.5228128" lon="12.7966961"><ele>550.0</ele><time>2026-05-01T14:47:04.479Z</time></trkpt><trkpt lat="42.5229075" lon="12.796606"><ele>551.0</ele><time>2026-05-01T14:47:05.478Z</time></trkpt><trkpt lat="42.5232515" lon="12.796662"><ele>551.0</ele><time>2026-05-01T14:47:08.482Z</time></trkpt><trkpt lat="42.5233702" lon="12.7967345"><ele>551.0</ele><time>2026-05-01T14:47:09.479Z</time></trkpt><trkpt lat="42.5234962" lon="12.7967842"><ele>551.0</ele><time>2026-05-01T14:47:10.48Z</time></trkpt><trkpt lat="42.5236216" lon="12.7968172"><ele>551.0</ele><time>2026-05-01T14:47:11.474Z</time></trkpt><trkpt lat="42.52374" lon="12.7967968"><ele>532.0</ele><time>2026-05-01T14:47:12.482Z</time></trkpt><trkpt lat="42.5241158" lon="12.7964514"><ele>518.0</ele><time>2026-05-01T14:47:15.484Z</time></trkpt><trkpt lat="42.5246386" lon="12.795839"><ele>518.0</ele><time>2026-05-01T14:47:19.478Z</time></trkpt><trkpt lat="42.5247125" lon="12.7957185"><ele>518.0</ele><time>2026-05-01T14:47:20.482Z</time></trkpt><trkpt lat="42.5246927" lon="12.7952497"><ele>519.0</ele><time>2026-05-01T14:47:23.48Z</time></trkpt><trkpt lat="42.524633" lon="12.7950774"><ele>520.0</ele><time>2026-05-01T14:47:24.479Z</time></trkpt><trkpt lat="42.5244404" lon="12.794582"><ele>528.3333333333334</ele><time>2026-05-01T14:47:27.483Z</time></trkpt><trkpt lat="42.5243741" lon="12.7944316"><ele>536.6666666666666</ele><time>2026-05-01T14:47:28.488Z</time></trkpt><trkpt lat="42.524375" lon="12.7940375"><ele>545.0</ele><time>2026-05-01T14:47:31.475Z</time></trkpt><trkpt lat="42.524445" lon="12.7939227"><ele>533.0</ele><time>2026-05-01T14:47:32.486Z</time></trkpt><trkpt lat="42.5246291" lon="12.7936306"><ele>521.0</ele><time>2026-05-01T14:47:34.479Z</time></trkpt><trkpt lat="42.5248424" lon="12.7932784"><ele>521.0</ele><time>2026-05-01T14:47:36.485Z</time></trkpt><trkpt lat="42.5249401" lon="12.7930626"><ele>521.0</ele><time>2026-05-01T14:47:37.481Z</time></trkpt><trkpt lat="42.5253651" lon="12.7923257"><ele>518.0</ele><time>2026-05-01T14:47:41.475Z</time></trkpt><trkpt lat="42.5256691" lon="12.7918148"><ele>518.0</ele><time>2026-05-01T14:47:44.485Z</time></trkpt><trkpt lat="42.525777" lon="12.7916331"><ele>518.0</ele><time>2026-05-01T14:47:45.475Z</time></trkpt><trkpt lat="42.5260335" lon="12.7910383"><ele>526.0</ele><time>2026-05-01T14:47:48.478Z</time></trkpt><trkpt lat="42.526115" lon="12.7908462"><ele>534.0</ele><time>2026-05-01T14:47:49.477Z</time></trkpt><trkpt lat="42.5262673" lon="12.7904908"><ele>525.0</ele><time>2026-05-01T14:47:51.485Z</time></trkpt><trkpt lat="42.5263463" lon="12.7903153"><ele>516.0</ele><time>2026-05-01T14:47:52.485Z</time></trkpt><trkpt lat="42.5264698" lon="12.7899631"><ele>507.0</ele><time>2026-05-01T14:47:54.478Z</time></trkpt><trkpt lat="42.526542" lon="12.7898173"><ele>507.0</ele><time>2026-05-01T14:47:55.481Z</time></trkpt><trkpt lat="42.5267193" lon="12.7895661"><ele>507.0</ele><time>2026-05-01T14:47:57.476Z</time></trkpt><trkpt lat="42.5268331" lon="12.7894568"><ele>507.0</ele><time>2026-05-01T14:47:58.475Z</time></trkpt><trkpt lat="42.5271506" lon="12.7891566"><ele>504.0</ele><time>2026-05-01T14:48:01.485Z</time></trkpt><trkpt lat="42.5272408" lon="12.7890604"><ele>501.0</ele><time>2026-05-01T14:48:02.481Z</time></trkpt><trkpt lat="42.5273117" lon="12.7889352"><ele>498.0</ele><time>2026-05-01T14:48:03.471Z</time></trkpt><trkpt lat="42.5273937" lon="12.7883875"><ele>498.0</ele><time>2026-05-01T14:48:07.478Z</time></trkpt><trkpt lat="42.5273716" lon="12.7882422"><ele>498.0</ele><time>2026-05-01T14:48:08.477Z</time></trkpt><trkpt lat="42.5273628" lon="12.7880992"><ele>498.0</ele><time>2026-05-01T14:48:09.482Z</time></trkpt><trkpt lat="42.5273961" lon="12.7875458"><ele>501.0</ele><time>2026-05-01T14:48:13.479Z</time></trkpt><trkpt lat="42.5276276" lon="12.7873667"><ele>504.0</ele><time>2026-05-01T14:48:16.48Z</time></trkpt><trkpt lat="42.5277254" lon="12.7873268"><ele>507.0</ele><time>2026-05-01T14:48:17.479Z</time></trkpt><trkpt lat="42.5278947" lon="12.7871734"><ele>496.33333333333337</ele><time>2026-05-01T14:48:19.486Z</time></trkpt><trkpt lat="42.5279678" lon="12.786897"><ele>485.6666666666667</ele><time>2026-05-01T14:48:21.483Z</time></trkpt><trkpt lat="42.5279952" lon="12.7867395"><ele>475.0</ele><time>2026-05-01T14:48:22.478Z</time></trkpt><trkpt lat="42.5280687" lon="12.7863206"><ele>475.0</ele><time>2026-05-01T14:48:25.486Z</time></trkpt><trkpt lat="42.5281302" lon="12.7860381"><ele>475.0</ele><time>2026-05-01T14:48:27.478Z</time></trkpt><trkpt lat="42.5281329" lon="12.7856334"><ele>476.25</ele><time>2026-05-01T14:48:30.479Z</time></trkpt><trkpt lat="42.5281242" lon="12.7855015"><ele>477.5</ele><time>2026-05-01T14:48:31.481Z</time></trkpt><trkpt lat="42.5281501" lon="12.785235"><ele>478.75</ele><time>2026-05-01T14:48:33.485Z</time></trkpt><trkpt lat="42.528185" lon="12.7851045"><ele>480.0</ele><time>2026-05-01T14:48:34.48Z</time></trkpt><trkpt lat="42.5282341" lon="12.7847595"><ele>480.25</ele><time>2026-05-01T14:48:37.479Z</time></trkpt><trkpt lat="42.5281265" lon="12.7846181"><ele>480.5</ele><time>2026-05-01T14:48:39.475Z</time></trkpt><trkpt lat="42.5280353" lon="12.7845728"><ele>480.75</ele><time>2026-05-01T14:48:40.477Z</time></trkpt><trkpt lat="42.5279252" lon="12.784541"><ele>481.0</ele><time>2026-05-01T14:48:41.483Z</time></trkpt><trkpt lat="42.5278251" lon="12.7845125"><ele>479.33333333333337</ele><time>2026-05-01T14:48:42.478Z</time></trkpt><trkpt lat="42.5276252" lon="12.7844514"><ele>477.66666666666663</ele><time>2026-05-01T14:48:44.487Z</time></trkpt><trkpt lat="42.527519" lon="12.7844192"><ele>476.0</ele><time>2026-05-01T14:48:45.495Z</time></trkpt><trkpt lat="42.5272203" lon="12.7843258"><ele>478.66666666666663</ele><time>2026-05-01T14:48:48.481Z</time></trkpt><trkpt lat="42.5269028" lon="12.7842507"><ele>481.33333333333337</ele><time>2026-05-01T14:48:51.476Z</time></trkpt><trkpt lat="42.5268004" lon="12.7842228"><ele>484.0</ele><time>2026-05-01T14:48:52.478Z</time></trkpt><trkpt lat="42.5267048" lon="12.7841949"><ele>484.0</ele><time>2026-05-01T14:48:53.48Z</time></trkpt><trkpt lat="42.5266137" lon="12.784161"><ele>484.0</ele><time>2026-05-01T14:48:54.48Z</time></trkpt><trkpt lat="42.5265069" lon="12.7840918"><ele>484.0</ele><time>2026-05-01T14:48:56.49Z</time></trkpt><trkpt lat="42.5264672" lon="12.783971"><ele>484.0</ele><time>2026-05-01T14:48:59.477Z</time></trkpt><trkpt lat="42.5264683" lon="12.7837017"><ele>484.0</ele><time>2026-05-01T14:49:03.475Z</time></trkpt><trkpt lat="42.5264908" lon="12.783616"><ele>484.0</ele><time>2026-05-01T14:49:04.48Z</time></trkpt><trkpt lat="42.526525" lon="12.7835326"><ele>484.0</ele><time>2026-05-01T14:49:05.482Z</time></trkpt><trkpt lat="42.5265644" lon="12.7834527"><ele>484.0</ele><time>2026-05-01T14:49:06.476Z</time></trkpt><trkpt lat="42.5266774" lon="12.7832861"><ele>484.0</ele><time>2026-05-01T14:49:08.474Z</time></trkpt><trkpt lat="42.5269141" lon="12.7829865"><ele>483.0</ele><time>2026-05-01T14:49:11.486Z</time></trkpt><trkpt lat="42.5270102" lon="12.7829198"><ele>482.0</ele><time>2026-05-01T14:49:12.476Z</time></trkpt><trkpt lat="42.5275361" lon="12.7826017"><ele>456.0</ele><time>2026-05-01T14:49:17.475Z</time></trkpt><trkpt lat="42.5280382" lon="12.7824342"><ele>456.0</ele><time>2026-05-01T14:49:21.481Z</time></trkpt><trkpt lat="42.528163" lon="12.7824095"><ele>456.0</ele><time>2026-05-01T14:49:22.474Z</time></trkpt><trkpt lat="42.5285144" lon="12.7823853"><ele>456.0</ele><time>2026-05-01T14:49:26.485Z</time></trkpt><trkpt lat="42.5286006" lon="12.7823586"><ele>456.0</ele><time>2026-05-01T14:49:29.484Z</time></trkpt><trkpt lat="42.528706" lon="12.7823171"><ele>456.0</ele><time>2026-05-01T14:49:36.482Z</time></trkpt><trkpt lat="42.5288022" lon="12.782331"><ele>456.0</ele><time>2026-05-01T14:49:39.481Z</time></trkpt><trkpt lat="42.5290551" lon="12.7824258"><ele>453.0</ele><time>2026-05-01T14:49:44.482Z</time></trkpt><trkpt lat="42.5292232" lon="12.7824781"><ele>450.0</ele><time>2026-05-01T14:49:47.481Z</time></trkpt><trkpt lat="42.5294984" lon="12.7824867"><ele>447.0</ele><time>2026-05-01T14:49:52.483Z</time></trkpt><trkpt lat="42.5295507" lon="12.7824242"><ele>442.33333333333337</ele><time>2026-05-01T14:49:53.476Z</time></trkpt><trkpt lat="42.529606" lon="12.7823391"><ele>437.6666666666667</ele><time>2026-05-01T14:49:54.487Z</time></trkpt><trkpt lat="42.5297277" lon="12.782144"><ele>433.0</ele><time>2026-05-01T14:49:56.478Z</time></trkpt><trkpt lat="42.5300217" lon="12.7820566"><ele>433.0</ele><time>2026-05-01T14:50:00.487Z</time></trkpt><trkpt lat="42.5301069" lon="12.782059"><ele>433.0</ele><time>2026-05-01T14:50:01.477Z</time></trkpt><trkpt lat="42.5304013" lon="12.7821887"><ele>433.0</ele><time>2026-05-01T14:50:05.476Z</time></trkpt><trkpt lat="42.5305373" lon="12.7823214"><ele>427.75</ele><time>2026-05-01T14:50:07.48Z</time></trkpt><trkpt lat="42.5306049" lon="12.7823786"><ele>422.5</ele><time>2026-05-01T14:50:08.491Z</time></trkpt><trkpt lat="42.5307333" lon="12.7824507"><ele>417.25</ele><time>2026-05-01T14:50:10.479Z</time></trkpt><trkpt lat="42.530797" lon="12.7824501"><ele>412.0</ele><time>2026-05-01T14:50:11.483Z</time></trkpt><trkpt lat="42.5309849" lon="12.7823946"><ele>412.0</ele><time>2026-05-01T14:50:14.476Z</time></trkpt><trkpt lat="42.5310486" lon="12.7823658"><ele>412.0</ele><time>2026-05-01T14:50:15.478Z</time></trkpt><trkpt lat="42.5313061" lon="12.7822497"><ele>412.0</ele><time>2026-05-01T14:50:19.477Z</time></trkpt><trkpt lat="42.5313759" lon="12.7823325"><ele>412.0</ele><time>2026-05-01T14:50:22.477Z</time></trkpt><trkpt lat="42.531304" lon="12.782554"><ele>406.25</ele><time>2026-05-01T14:50:27.486Z</time></trkpt><trkpt lat="42.5313131" lon="12.7826407"><ele>400.5</ele><time>2026-05-01T14:50:31.478Z</time></trkpt><trkpt lat="42.5315157" lon="12.782581"><ele>394.75</ele><time>2026-05-01T14:50:35.475Z</time></trkpt><trkpt lat="42.5316013" lon="12.7824882"><ele>389.0</ele><time>2026-05-01T14:50:36.483Z</time></trkpt><trkpt lat="42.5317847" lon="12.7823387"><ele>389.0</ele><time>2026-05-01T14:50:38.492Z</time></trkpt><trkpt lat="42.5318892" lon="12.7822805"><ele>389.0</ele><time>2026-05-01T14:50:39.488Z</time></trkpt><trkpt lat="42.5320241" lon="12.782238"><ele>389.0</ele><time>2026-05-01T14:50:40.486Z</time></trkpt><trkpt lat="42.5326047" lon="12.7821723"><ele>386.0</ele><time>2026-05-01T14:50:43.479Z</time></trkpt><trkpt lat="42.5333379" lon="12.7820573"><ele>385.5</ele><time>2026-05-01T14:50:47.476Z</time></trkpt><trkpt lat="42.5336082" lon="12.7816298"><ele>385.0</ele><time>2026-05-01T14:50:50.486Z</time></trkpt><trkpt lat="42.5336613" lon="12.7814031"><ele>389.0</ele><time>2026-05-01T14:50:51.473Z</time></trkpt><trkpt lat="42.5338049" lon="12.7808766"><ele>393.0</ele><time>2026-05-01T14:50:53.484Z</time></trkpt><trkpt lat="42.5338797" lon="12.7806207"><ele>389.5</ele><time>2026-05-01T14:50:54.49Z</time></trkpt><trkpt lat="42.5340553" lon="12.7800803"><ele>386.0</ele><time>2026-05-01T14:50:56.486Z</time></trkpt><trkpt lat="42.534153" lon="12.7798084"><ele>386.0</ele><time>2026-05-01T14:50:57.475Z</time></trkpt><trkpt lat="42.5342407" lon="12.7795349"><ele>386.0</ele><time>2026-05-01T14:50:58.475Z</time></trkpt><trkpt lat="42.5343174" lon="12.7792439"><ele>386.0</ele><time>2026-05-01T14:50:59.486Z</time></trkpt><trkpt lat="42.5345406" lon="12.7783119"><ele>386.0</ele><time>2026-05-01T14:51:02.469Z</time></trkpt><trkpt lat="42.534617" lon="12.778002"><ele>386.0</ele><time>2026-05-01T14:51:03.477Z</time></trkpt><trkpt lat="42.534809" lon="12.7771031"><ele>381.0</ele><time>2026-05-01T14:51:06.483Z</time></trkpt><trkpt lat="42.5350346" lon="12.7762833"><ele>379.5</ele><time>2026-05-01T14:51:09.475Z</time></trkpt><trkpt lat="42.5351833" lon="12.7757609"><ele>378.0</ele><time>2026-05-01T14:51:11.485Z</time></trkpt><trkpt lat="42.535277" lon="12.7755442"><ele>379.0</ele><time>2026-05-01T14:51:12.478Z</time></trkpt><trkpt lat="42.535478" lon="12.7751505"><ele>380.0</ele><time>2026-05-01T14:51:14.482Z</time></trkpt><trkpt lat="42.5355808" lon="12.7749859"><ele>380.0</ele><time>2026-05-01T14:51:15.481Z</time></trkpt><trkpt lat="42.5357701" lon="12.7746866"><ele>380.0</ele><time>2026-05-01T14:51:17.487Z</time></trkpt><trkpt lat="42.5361581" lon="12.7741439"><ele>380.0</ele><time>2026-05-01T14:51:21.476Z</time></trkpt><trkpt lat="42.5365128" lon="12.773791"><ele>380.0</ele><time>2026-05-01T14:51:24.486Z</time></trkpt><trkpt lat="42.5366492" lon="12.7736842"><ele>379.5</ele><time>2026-05-01T14:51:25.481Z</time></trkpt><trkpt lat="42.5369236" lon="12.773431"><ele>379.0</ele><time>2026-05-01T14:51:27.479Z</time></trkpt><trkpt lat="42.53707" lon="12.7732943"><ele>377.0</ele><time>2026-05-01T14:51:28.473Z</time></trkpt><trkpt lat="42.5377287" lon="12.7729365"><ele>377.0</ele><time>2026-05-01T14:51:32.485Z</time></trkpt><trkpt lat="42.5379054" lon="12.7728519"><ele>377.0</ele><time>2026-05-01T14:51:33.473Z</time></trkpt><trkpt lat="42.5384065" lon="12.7725751"><ele>378.0</ele><time>2026-05-01T14:51:36.476Z</time></trkpt><trkpt lat="42.5385847" lon="12.7724751"><ele>379.0</ele><time>2026-05-01T14:51:37.484Z</time></trkpt><trkpt lat="42.5393862" lon="12.7720468"><ele>389.0</ele><time>2026-05-01T14:51:41.48Z</time></trkpt><trkpt lat="42.5402947" lon="12.7715673"><ele>399.0</ele><time>2026-05-01T14:51:45.48Z</time></trkpt><trkpt lat="42.5407273" lon="12.7713492"><ele>399.0</ele><time>2026-05-01T14:51:47.479Z</time></trkpt><trkpt lat="42.5409372" lon="12.771242"><ele>399.0</ele><time>2026-05-01T14:51:48.489Z</time></trkpt><trkpt lat="42.5415546" lon="12.7709059"><ele>403.0</ele><time>2026-05-01T14:51:51.478Z</time></trkpt><trkpt lat="42.5417442" lon="12.7707747"><ele>407.0</ele><time>2026-05-01T14:51:52.486Z</time></trkpt><trkpt lat="42.5421431" lon="12.7705293"><ele>407.3333333333333</ele><time>2026-05-01T14:51:54.482Z</time></trkpt><trkpt lat="42.5423123" lon="12.7703774"><ele>407.66666666666663</ele><time>2026-05-01T14:51:55.479Z</time></trkpt><trkpt lat="42.5424741" lon="12.7702336"><ele>408.0</ele><time>2026-05-01T14:51:56.479Z</time></trkpt><trkpt lat="42.5428073" lon="12.7699197"><ele>406.66666666666663</ele><time>2026-05-01T14:51:58.48Z</time></trkpt><trkpt lat="42.5429617" lon="12.7697271"><ele>405.3333333333333</ele><time>2026-05-01T14:51:59.483Z</time></trkpt><trkpt lat="42.5431062" lon="12.7695199"><ele>404.0</ele><time>2026-05-01T14:52:00.483Z</time></trkpt><trkpt lat="42.5434068" lon="12.7690639"><ele>404.0</ele><time>2026-05-01T14:52:02.472Z</time></trkpt><trkpt lat="42.5435341" lon="12.7688245"><ele>404.0</ele><time>2026-05-01T14:52:03.473Z</time></trkpt><trkpt lat="42.5436535" lon="12.7685842"><ele>404.0</ele><time>2026-05-01T14:52:04.477Z</time></trkpt><trkpt lat="42.5438868" lon="12.7680496"><ele>401.5</ele><time>2026-05-01T14:52:06.488Z</time></trkpt><trkpt lat="42.5440695" lon="12.7675097"><ele>399.0</ele><time>2026-05-01T14:52:08.485Z</time></trkpt><trkpt lat="42.5441312" lon="12.7672465"><ele>394.5</ele><time>2026-05-01T14:52:09.48Z</time></trkpt><trkpt lat="42.5442524" lon="12.7666821"><ele>390.0</ele><time>2026-05-01T14:52:11.476Z</time></trkpt><trkpt lat="42.5443768" lon="12.7654815"><ele>381.0</ele><time>2026-05-01T14:52:15.475Z</time></trkpt><trkpt lat="42.5444254" lon="12.7642823"><ele>377.0</ele><time>2026-05-01T14:52:19.474Z</time></trkpt><trkpt lat="42.5444401" lon="12.7634008"><ele>377.0</ele><time>2026-05-01T14:52:22.48Z</time></trkpt><trkpt lat="42.5444537" lon="12.7631153"><ele>377.0</ele><time>2026-05-01T14:52:23.474Z</time></trkpt><trkpt lat="42.5444683" lon="12.7628387"><ele>377.0</ele><time>2026-05-01T14:52:24.477Z</time></trkpt><trkpt lat="42.5444896" lon="12.7619937"><ele>376.5</ele><time>2026-05-01T14:52:27.482Z</time></trkpt><trkpt lat="42.5445043" lon="12.7614096"><ele>376.0</ele><time>2026-05-01T14:52:29.477Z</time></trkpt><trkpt lat="42.5445128" lon="12.7611525"><ele>375.5</ele><time>2026-05-01T14:52:30.48Z</time></trkpt><trkpt lat="42.5445313" lon="12.7606848"><ele>375.0</ele><time>2026-05-01T14:52:32.479Z</time></trkpt><trkpt lat="42.5445486" lon="12.7604708"><ele>376.0</ele><time>2026-05-01T14:52:33.484Z</time></trkpt><trkpt lat="42.5445639" lon="12.760236"><ele>377.0</ele><time>2026-05-01T14:52:34.481Z</time></trkpt><trkpt lat="42.5445332" lon="12.7594896"><ele>377.5</ele><time>2026-05-01T14:52:37.483Z</time></trkpt><trkpt lat="42.5444293" lon="12.75903"><ele>378.0</ele><time>2026-05-01T14:52:39.478Z</time></trkpt><trkpt lat="42.5443563" lon="12.7587969"><ele>378.5</ele><time>2026-05-01T14:52:40.477Z</time></trkpt><trkpt lat="42.5441719" lon="12.7583649"><ele>379.0</ele><time>2026-05-01T14:52:42.479Z</time></trkpt><trkpt lat="42.5440707" lon="12.7581744"><ele>375.0</ele><time>2026-05-01T14:52:43.472Z</time></trkpt><trkpt lat="42.5436525" lon="12.757613"><ele>375.0</ele><time>2026-05-01T14:52:47.476Z</time></trkpt><trkpt lat="42.5434392" lon="12.7573448"><ele>375.0</ele><time>2026-05-01T14:52:50.473Z</time></trkpt><trkpt lat="42.5434028" lon="12.7572729"><ele>375.0</ele><time>2026-05-01T14:52:51.474Z</time></trkpt><trkpt lat="42.5433739" lon="12.7570703"><ele>375.0</ele><time>2026-05-01T14:52:55.48Z</time></trkpt><trkpt lat="42.543398" lon="12.7569606"><ele>375.0</ele><time>2026-05-01T14:52:58.476Z</time></trkpt><trkpt lat="42.5432976" lon="12.7569983"><ele>375.0</ele><time>2026-05-01T14:54:32.481Z</time></trkpt><trkpt lat="42.5432184" lon="12.756962"><ele>375.0</ele><time>2026-05-01T14:54:41.481Z</time></trkpt><trkpt lat="42.5431434" lon="12.7568886"><ele>375.0</ele><time>2026-05-01T15:07:04.482Z</time></trkpt><trkpt lat="42.5430991" lon="12.7568232"><ele>375.0</ele><time>2026-05-01T15:07:05.47Z</time></trkpt><trkpt lat="42.5430405" lon="12.7567324"><ele>374.5</ele><time>2026-05-01T15:07:06.473Z</time></trkpt><trkpt lat="42.5429707" lon="12.7566311"><ele>374.0</ele><time>2026-05-01T15:07:07.476Z</time></trkpt><trkpt lat="42.5428909" lon="12.7565054"><ele>373.5</ele><time>2026-05-01T15:07:08.472Z</time></trkpt><trkpt lat="42.5428074" lon="12.7563775"><ele>373.0</ele><time>2026-05-01T15:07:09.481Z</time></trkpt><trkpt lat="42.5427212" lon="12.7562596"><ele>373.0</ele><time>2026-05-01T15:07:10.467Z</time></trkpt><trkpt lat="42.5426265" lon="12.7561327"><ele>373.0</ele><time>2026-05-01T15:07:11.47Z</time></trkpt><trkpt lat="42.5425323" lon="12.7560095"><ele>373.0</ele><time>2026-05-01T15:07:12.474Z</time></trkpt><trkpt lat="42.5424422" lon="12.7558768"><ele>373.0</ele><time>2026-05-01T15:07:13.481Z</time></trkpt><trkpt lat="42.5423509" lon="12.7557386"><ele>373.25</ele><time>2026-05-01T15:07:14.474Z</time></trkpt><trkpt lat="42.5422604" lon="12.7555909"><ele>373.5</ele><time>2026-05-01T15:07:15.479Z</time></trkpt><trkpt lat="42.5421769" lon="12.7554361"><ele>373.75</ele><time>2026-05-01T15:07:16.469Z</time></trkpt><trkpt lat="42.5421026" lon="12.7552457"><ele>374.0</ele><time>2026-05-01T15:07:17.468Z</time></trkpt><trkpt lat="42.5420437" lon="12.7550515"><ele>374.0</ele><time>2026-05-01T15:07:18.471Z</time></trkpt><trkpt lat="42.5419933" lon="12.7548548"><ele>374.0</ele><time>2026-05-01T15:07:19.482Z</time></trkpt><trkpt lat="42.5419322" lon="12.7546829"><ele>374.0</ele><time>2026-05-01T15:07:20.474Z</time></trkpt><trkpt lat="42.5418739" lon="12.7545095"><ele>374.0</ele><time>2026-05-01T15:07:21.471Z</time></trkpt><trkpt lat="42.5418244" lon="12.7543256"><ele>374.75</ele><time>2026-05-01T15:07:22.47Z</time></trkpt><trkpt lat="42.5417689" lon="12.7541459"><ele>375.5</ele><time>2026-05-01T15:07:23.475Z</time></trkpt><trkpt lat="42.5417015" lon="12.753976"><ele>376.25</ele><time>2026-05-01T15:07:24.478Z</time></trkpt><trkpt lat="42.5416292" lon="12.7537858"><ele>377.0</ele><time>2026-05-01T15:07:25.471Z</time></trkpt><trkpt lat="42.5415399" lon="12.7536277"><ele>376.25</ele><time>2026-05-01T15:07:26.47Z</time></trkpt><trkpt lat="42.541439" lon="12.7534669"><ele>375.5</ele><time>2026-05-01T15:07:27.472Z</time></trkpt><trkpt lat="42.5413404" lon="12.7533274"><ele>374.75</ele><time>2026-05-01T15:07:28.475Z</time></trkpt><trkpt lat="42.541231" lon="12.7532023"><ele>374.0</ele><time>2026-05-01T15:07:29.467Z</time></trkpt><trkpt lat="42.5411146" lon="12.7531007"><ele>374.0</ele><time>2026-05-01T15:07:30.472Z</time></trkpt><trkpt lat="42.5409957" lon="12.753007"><ele>374.0</ele><time>2026-05-01T15:07:31.47Z</time></trkpt><trkpt lat="42.5408699" lon="12.7529267"><ele>374.0</ele><time>2026-05-01T15:07:32.469Z</time></trkpt><trkpt lat="42.5407431" lon="12.7528501"><ele>374.0</ele><time>2026-05-01T15:07:33.473Z</time></trkpt><trkpt lat="42.5406211" lon="12.7527624"><ele>375.5</ele><time>2026-05-01T15:07:34.471Z</time></trkpt><trkpt lat="42.5404899" lon="12.7526752"><ele>377.0</ele><time>2026-05-01T15:07:35.472Z</time></trkpt><trkpt lat="42.5403687" lon="12.752614"><ele>378.5</ele><time>2026-05-01T15:07:36.474Z</time></trkpt><trkpt lat="42.5402607" lon="12.7525659"><ele>380.0</ele><time>2026-05-01T15:07:37.475Z</time></trkpt><trkpt lat="42.5401561" lon="12.7525226"><ele>380.0</ele><time>2026-05-01T15:07:38.481Z</time></trkpt><trkpt lat="42.5400601" lon="12.7524476"><ele>380.0</ele><time>2026-05-01T15:07:39.466Z</time></trkpt><trkpt lat="42.5399652" lon="12.7523758"><ele>380.0</ele><time>2026-05-01T15:07:40.469Z</time></trkpt><trkpt lat="42.5398748" lon="12.7522991"><ele>380.0</ele><time>2026-05-01T15:07:41.469Z</time></trkpt><trkpt lat="42.5397819" lon="12.7522056"><ele>380.0</ele><time>2026-05-01T15:07:42.476Z</time></trkpt><trkpt lat="42.5396909" lon="12.7521252"><ele>380.0</ele><time>2026-05-01T15:07:43.482Z</time></trkpt><trkpt lat="42.5396034" lon="12.7520503"><ele>380.0</ele><time>2026-05-01T15:07:44.47Z</time></trkpt><trkpt lat="42.5395095" lon="12.7519733"><ele>380.0</ele><time>2026-05-01T15:07:45.476Z</time></trkpt><trkpt lat="42.5394135" lon="12.7518947"><ele>380.0</ele><time>2026-05-01T15:07:46.47Z</time></trkpt><trkpt lat="42.5393197" lon="12.7518111"><ele>380.0</ele><time>2026-05-01T15:07:47.469Z</time></trkpt><trkpt lat="42.5392217" lon="12.7517183"><ele>380.33333333333337</ele><time>2026-05-01T15:07:48.474Z</time></trkpt><trkpt lat="42.5391188" lon="12.7516228"><ele>380.6666666666667</ele><time>2026-05-01T15:07:49.471Z</time></trkpt><trkpt lat="42.5389972" lon="12.7514959"><ele>381.0</ele><time>2026-05-01T15:07:50.467Z</time></trkpt><trkpt lat="42.5388544" lon="12.7512872"><ele>380.3333333333333</ele><time>2026-05-01T15:07:51.47Z</time></trkpt><trkpt lat="42.538715" lon="12.7510898"><ele>379.66666666666663</ele><time>2026-05-01T15:07:52.478Z</time></trkpt><trkpt lat="42.5385863" lon="12.7509289"><ele>379.0</ele><time>2026-05-01T15:07:53.476Z</time></trkpt><trkpt lat="42.538449" lon="12.7508005"><ele>379.0</ele><time>2026-05-01T15:07:54.468Z</time></trkpt><trkpt lat="42.5382902" lon="12.7507067"><ele>379.0</ele><time>2026-05-01T15:07:55.482Z</time></trkpt><trkpt lat="42.538142" lon="12.7506263"><ele>379.0</ele><time>2026-05-01T15:07:56.476Z</time></trkpt><trkpt lat="42.5380081" lon="12.7505607"><ele>378.5</ele><time>2026-05-01T15:07:57.466Z</time></trkpt><trkpt lat="42.5378754" lon="12.7504876"><ele>378.0</ele><time>2026-05-01T15:07:58.473Z</time></trkpt><trkpt lat="42.5377519" lon="12.7503748"><ele>377.5</ele><time>2026-05-01T15:07:59.471Z</time></trkpt><trkpt lat="42.5376465" lon="12.7502562"><ele>377.0</ele><time>2026-05-01T15:08:00.474Z</time></trkpt><trkpt lat="42.5375376" lon="12.7501362"><ele>378.25</ele><time>2026-05-01T15:08:01.476Z</time></trkpt><trkpt lat="42.5374312" lon="12.7500312"><ele>379.5</ele><time>2026-05-01T15:08:02.475Z</time></trkpt><trkpt lat="42.5373264" lon="12.7499341"><ele>380.75</ele><time>2026-05-01T15:08:03.472Z</time></trkpt><trkpt lat="42.5372306" lon="12.7498283"><ele>382.0</ele><time>2026-05-01T15:08:04.468Z</time></trkpt><trkpt lat="42.5371451" lon="12.7497214"><ele>382.0</ele><time>2026-05-01T15:08:05.47Z</time></trkpt><trkpt lat="42.5370619" lon="12.7496243"><ele>382.0</ele><time>2026-05-01T15:08:06.468Z</time></trkpt><trkpt lat="42.5369852" lon="12.7495122"><ele>382.0</ele><time>2026-05-01T15:08:07.476Z</time></trkpt><trkpt lat="42.5369238" lon="12.7493772"><ele>382.0</ele><time>2026-05-01T15:08:08.475Z</time></trkpt><trkpt lat="42.5368843" lon="12.7492197"><ele>380.25</ele><time>2026-05-01T15:08:09.479Z</time></trkpt><trkpt lat="42.5368573" lon="12.7490557"><ele>378.5</ele><time>2026-05-01T15:08:10.476Z</time></trkpt><trkpt lat="42.5368385" lon="12.7488902"><ele>376.75</ele><time>2026-05-01T15:08:11.478Z</time></trkpt><trkpt lat="42.5368421" lon="12.7487353"><ele>375.0</ele><time>2026-05-01T15:08:12.464Z</time></trkpt><trkpt lat="42.5368685" lon="12.7485947"><ele>374.25</ele><time>2026-05-01T15:08:13.47Z</time></trkpt><trkpt lat="42.5369185" lon="12.7484633"><ele>373.5</ele><time>2026-05-01T15:08:14.474Z</time></trkpt><trkpt lat="42.5369957" lon="12.7483727"><ele>372.75</ele><time>2026-05-01T15:08:15.471Z</time></trkpt><trkpt lat="42.5371053" lon="12.7483061"><ele>372.0</ele><time>2026-05-01T15:08:16.467Z</time></trkpt><trkpt lat="42.5372436" lon="12.7482799"><ele>374.3333333333333</ele><time>2026-05-01T15:08:17.468Z</time></trkpt><trkpt lat="42.5373896" lon="12.7482579"><ele>376.66666666666663</ele><time>2026-05-01T15:08:18.47Z</time></trkpt><trkpt lat="42.5375463" lon="12.7482474"><ele>379.0</ele><time>2026-05-01T15:08:19.475Z</time></trkpt><trkpt lat="42.5377017" lon="12.7482576"><ele>379.0</ele><time>2026-05-01T15:08:20.482Z</time></trkpt><trkpt lat="42.5378654" lon="12.7482749"><ele>379.0</ele><time>2026-05-01T15:08:21.474Z</time></trkpt><trkpt lat="42.5380201" lon="12.7482973"><ele>379.0</ele><time>2026-05-01T15:08:22.474Z</time></trkpt><trkpt lat="42.5381631" lon="12.7483079"><ele>378.0</ele><time>2026-05-01T15:08:23.473Z</time></trkpt><trkpt lat="42.5382927" lon="12.748311"><ele>377.0</ele><time>2026-05-01T15:08:24.48Z</time></trkpt><trkpt lat="42.538429" lon="12.7483194"><ele>376.0</ele><time>2026-05-01T15:08:25.468Z</time></trkpt><trkpt lat="42.538569" lon="12.7483268"><ele>375.0</ele><time>2026-05-01T15:08:26.47Z</time></trkpt><trkpt lat="42.5387088" lon="12.7483334"><ele>375.5</ele><time>2026-05-01T15:08:27.471Z</time></trkpt><trkpt lat="42.538845" lon="12.7483388"><ele>376.0</ele><time>2026-05-01T15:08:28.47Z</time></trkpt><trkpt lat="42.5389726" lon="12.7483432"><ele>376.5</ele><time>2026-05-01T15:08:29.471Z</time></trkpt><trkpt lat="42.5391008" lon="12.7483468"><ele>377.0</ele><time>2026-05-01T15:08:30.47Z</time></trkpt><trkpt lat="42.5392287" lon="12.7483574"><ele>377.0</ele><time>2026-05-01T15:08:31.467Z</time></trkpt><trkpt lat="42.5393504" lon="12.7483742"><ele>377.0</ele><time>2026-05-01T15:08:32.472Z</time></trkpt><trkpt lat="42.5394658" lon="12.74838"><ele>377.0</ele><time>2026-05-01T15:08:33.475Z</time></trkpt><trkpt lat="42.5395735" lon="12.7483875"><ele>377.0</ele><time>2026-05-01T15:08:34.474Z</time></trkpt><trkpt lat="42.539678" lon="12.7483878"><ele>377.20000000000005</ele><time>2026-05-01T15:08:35.469Z</time></trkpt><trkpt lat="42.5397759" lon="12.7483674"><ele>377.4</ele><time>2026-05-01T15:08:36.471Z</time></trkpt><trkpt lat="42.5398571" lon="12.7483285"><ele>377.6</ele><time>2026-05-01T15:08:37.465Z</time></trkpt><trkpt lat="42.5399262" lon="12.7482422"><ele>377.79999999999995</ele><time>2026-05-01T15:08:38.469Z</time></trkpt><trkpt lat="42.5399766" lon="12.7481235"><ele>378.0</ele><time>2026-05-01T15:08:39.474Z</time></trkpt><trkpt lat="42.5400175" lon="12.7479826"><ele>378.0</ele><time>2026-05-01T15:08:40.49Z</time></trkpt><trkpt lat="42.5400588" lon="12.7478282"><ele>378.0</ele><time>2026-05-01T15:08:41.474Z</time></trkpt><trkpt lat="42.5401066" lon="12.7476892"><ele>378.0</ele><time>2026-05-01T15:08:42.473Z</time></trkpt><trkpt lat="42.540151" lon="12.7475554"><ele>378.0</ele><time>2026-05-01T15:08:43.47Z</time></trkpt><trkpt lat="42.5401877" lon="12.7474371"><ele>378.0</ele><time>2026-05-01T15:08:44.478Z</time></trkpt><trkpt lat="42.5402095" lon="12.7473206"><ele>378.0</ele><time>2026-05-01T15:08:45.478Z</time></trkpt><trkpt lat="42.5402138" lon="12.7472035"><ele>378.0</ele><time>2026-05-01T15:08:46.47Z</time></trkpt><trkpt lat="42.5402095" lon="12.7470896"><ele>378.0</ele><time>2026-05-01T15:08:47.47Z</time></trkpt><trkpt lat="42.5401824" lon="12.7469773"><ele>378.0</ele><time>2026-05-01T15:08:48.472Z</time></trkpt><trkpt lat="42.5401408" lon="12.7468716"><ele>378.0</ele><time>2026-05-01T15:08:49.477Z</time></trkpt><trkpt lat="42.5400852" lon="12.7467667"><ele>378.0</ele><time>2026-05-01T15:08:50.477Z</time></trkpt><trkpt lat="42.5400204" lon="12.7466651"><ele>378.0</ele><time>2026-05-01T15:08:51.479Z</time></trkpt><trkpt lat="42.539948" lon="12.746563"><ele>378.0</ele><time>2026-05-01T15:08:52.466Z</time></trkpt><trkpt lat="42.5398665" lon="12.7464628"><ele>378.0</ele><time>2026-05-01T15:08:53.471Z</time></trkpt><trkpt lat="42.5397786" lon="12.7463654"><ele>378.0</ele><time>2026-05-01T15:08:54.472Z</time></trkpt><trkpt lat="42.5396908" lon="12.746273"><ele>378.0</ele><time>2026-05-01T15:08:55.473Z</time></trkpt><trkpt lat="42.5396057" lon="12.7461837"><ele>376.75</ele><time>2026-05-01T15:08:56.466Z</time></trkpt><trkpt lat="42.5395157" lon="12.746101"><ele>375.5</ele><time>2026-05-01T15:08:57.468Z</time></trkpt><trkpt lat="42.5394167" lon="12.7460166"><ele>374.25</ele><time>2026-05-01T15:08:58.476Z</time></trkpt><trkpt lat="42.5393095" lon="12.7459389"><ele>373.0</ele><time>2026-05-01T15:08:59.482Z</time></trkpt><trkpt lat="42.5391923" lon="12.7458651"><ele>376.75</ele><time>2026-05-01T15:09:00.464Z</time></trkpt><trkpt lat="42.5390737" lon="12.7457941"><ele>380.5</ele><time>2026-05-01T15:09:01.472Z</time></trkpt><trkpt lat="42.5389548" lon="12.7457274"><ele>384.25</ele><time>2026-05-01T15:09:02.476Z</time></trkpt><trkpt lat="42.538839" lon="12.7456655"><ele>388.0</ele><time>2026-05-01T15:09:03.473Z</time></trkpt><trkpt lat="42.5387307" lon="12.7456031"><ele>385.4</ele><time>2026-05-01T15:09:04.465Z</time></trkpt><trkpt lat="42.5386234" lon="12.7455504"><ele>382.79999999999995</ele><time>2026-05-01T15:09:05.47Z</time></trkpt><trkpt lat="42.5385197" lon="12.7455069"><ele>380.2</ele><time>2026-05-01T15:09:06.474Z</time></trkpt><trkpt lat="42.5384138" lon="12.7454686"><ele>377.6</ele><time>2026-05-01T15:09:07.484Z</time></trkpt><trkpt lat="42.5383108" lon="12.7454351"><ele>375.0</ele><time>2026-05-01T15:09:08.471Z</time></trkpt><trkpt lat="42.5382075" lon="12.7453959"><ele>375.0</ele><time>2026-05-01T15:09:09.469Z</time></trkpt><trkpt lat="42.5381002" lon="12.7453547"><ele>375.0</ele><time>2026-05-01T15:09:10.474Z</time></trkpt><trkpt lat="42.5379912" lon="12.7453091"><ele>375.0</ele><time>2026-05-01T15:09:11.468Z</time></trkpt><trkpt lat="42.5378789" lon="12.7452551"><ele>375.0</ele><time>2026-05-01T15:09:12.486Z</time></trkpt><trkpt lat="42.5377663" lon="12.7451894"><ele>377.0</ele><time>2026-05-01T15:09:13.472Z</time></trkpt><trkpt lat="42.5376482" lon="12.745112"><ele>379.0</ele><time>2026-05-01T15:09:14.467Z</time></trkpt><trkpt lat="42.5375271" lon="12.7450282"><ele>381.0</ele><time>2026-05-01T15:09:15.474Z</time></trkpt><trkpt lat="42.537409" lon="12.744938"><ele>383.0</ele><time>2026-05-01T15:09:16.473Z</time></trkpt><trkpt lat="42.5372974" lon="12.7448612"><ele>383.0</ele><time>2026-05-01T15:09:17.476Z</time></trkpt><trkpt lat="42.5371963" lon="12.744788"><ele>383.0</ele><time>2026-05-01T15:09:18.482Z</time></trkpt><trkpt lat="42.5370993" lon="12.7447297"><ele>383.0</ele><time>2026-05-01T15:09:19.467Z</time></trkpt><trkpt lat="42.5370125" lon="12.7446672"><ele>383.0</ele><time>2026-05-01T15:09:20.469Z</time></trkpt><trkpt lat="42.5369401" lon="12.7445975"><ele>383.0</ele><time>2026-05-01T15:09:21.474Z</time></trkpt><trkpt lat="42.5368758" lon="12.744513"><ele>380.5</ele><time>2026-05-01T15:09:22.475Z</time></trkpt><trkpt lat="42.5368304" lon="12.7444081"><ele>378.0</ele><time>2026-05-01T15:09:23.469Z</time></trkpt><trkpt lat="42.5368201" lon="12.7442781"><ele>375.5</ele><time>2026-05-01T15:09:24.47Z</time></trkpt><trkpt lat="42.5368468" lon="12.7441096"><ele>373.0</ele><time>2026-05-01T15:09:25.473Z</time></trkpt><trkpt lat="42.536893" lon="12.7439139"><ele>373.0</ele><time>2026-05-01T15:09:26.477Z</time></trkpt><trkpt lat="42.5369446" lon="12.7437296"><ele>373.0</ele><time>2026-05-01T15:09:27.471Z</time></trkpt><trkpt lat="42.5369924" lon="12.7435378"><ele>373.0</ele><time>2026-05-01T15:09:28.473Z</time></trkpt><trkpt lat="42.5370341" lon="12.7433599"><ele>373.0</ele><time>2026-05-01T15:09:29.481Z</time></trkpt><trkpt lat="42.5370671" lon="12.7431906"><ele>381.25</ele><time>2026-05-01T15:09:30.477Z</time></trkpt><trkpt lat="42.5370898" lon="12.7430248"><ele>389.5</ele><time>2026-05-01T15:09:31.482Z</time></trkpt><trkpt lat="42.5371" lon="12.7428664"><ele>397.75</ele><time>2026-05-01T15:09:32.474Z</time></trkpt><trkpt lat="42.5371117" lon="12.7427068"><ele>406.0</ele><time>2026-05-01T15:09:33.468Z</time></trkpt><trkpt lat="42.5371183" lon="12.7425546"><ele>406.0</ele><time>2026-05-01T15:09:34.466Z</time></trkpt><trkpt lat="42.5371075" lon="12.742396"><ele>406.0</ele><time>2026-05-01T15:09:35.47Z</time></trkpt><trkpt lat="42.5371016" lon="12.7422438"><ele>406.0</ele><time>2026-05-01T15:09:36.471Z</time></trkpt><trkpt lat="42.5370958" lon="12.7420864"><ele>406.0</ele><time>2026-05-01T15:09:37.481Z</time></trkpt><trkpt lat="42.5370991" lon="12.7419223"><ele>405.0</ele><time>2026-05-01T15:09:38.478Z</time></trkpt><trkpt lat="42.5370965" lon="12.7417623"><ele>404.0</ele><time>2026-05-01T15:09:39.468Z</time></trkpt><trkpt lat="42.5370924" lon="12.7416111"><ele>403.0</ele><time>2026-05-01T15:09:40.477Z</time></trkpt><trkpt lat="42.5370639" lon="12.7414511"><ele>402.0</ele><time>2026-05-01T15:09:41.471Z</time></trkpt><trkpt lat="42.5370241" lon="12.7413052"><ele>395.75</ele><time>2026-05-01T15:09:42.473Z</time></trkpt><trkpt lat="42.5369783" lon="12.7411656"><ele>389.5</ele><time>2026-05-01T15:09:43.47Z</time></trkpt><trkpt lat="42.5369279" lon="12.7410341"><ele>383.25</ele><time>2026-05-01T15:09:44.468Z</time></trkpt><trkpt lat="42.5368685" lon="12.7408855"><ele>377.0</ele><time>2026-05-01T15:09:45.472Z</time></trkpt><trkpt lat="42.5368159" lon="12.740724"><ele>377.0</ele><time>2026-05-01T15:09:46.471Z</time></trkpt><trkpt lat="42.5367624" lon="12.7405565"><ele>377.0</ele><time>2026-05-01T15:09:47.476Z</time></trkpt><trkpt lat="42.5367093" lon="12.7403982"><ele>377.0</ele><time>2026-05-01T15:09:48.468Z</time></trkpt><trkpt lat="42.5366508" lon="12.7402384"><ele>377.0</ele><time>2026-05-01T15:09:49.472Z</time></trkpt><trkpt lat="42.5365947" lon="12.7400715"><ele>380.25</ele><time>2026-05-01T15:09:50.469Z</time></trkpt><trkpt lat="42.5365383" lon="12.7399039"><ele>383.5</ele><time>2026-05-01T15:09:51.469Z</time></trkpt><trkpt lat="42.5364784" lon="12.7397412"><ele>386.75</ele><time>2026-05-01T15:09:52.477Z</time></trkpt><trkpt lat="42.5364186" lon="12.7395837"><ele>390.0</ele><time>2026-05-01T15:09:53.476Z</time></trkpt><trkpt lat="42.5363657" lon="12.73943"><ele>385.75</ele><time>2026-05-01T15:09:54.472Z</time></trkpt><trkpt lat="42.5363198" lon="12.7392708"><ele>381.5</ele><time>2026-05-01T15:09:55.479Z</time></trkpt><trkpt lat="42.5362729" lon="12.7391162"><ele>377.25</ele><time>2026-05-01T15:09:56.473Z</time></trkpt><trkpt lat="42.5362185" lon="12.7389656"><ele>373.0</ele><time>2026-05-01T15:09:57.469Z</time></trkpt><trkpt lat="42.5361498" lon="12.7388056"><ele>373.0</ele><time>2026-05-01T15:09:58.468Z</time></trkpt><trkpt lat="42.5360703" lon="12.7386627"><ele>373.0</ele><time>2026-05-01T15:09:59.469Z</time></trkpt><trkpt lat="42.5359812" lon="12.7385268"><ele>373.0</ele><time>2026-05-01T15:10:00.474Z</time></trkpt><trkpt lat="42.5358802" lon="12.7384011"><ele>373.0</ele><time>2026-05-01T15:10:01.471Z</time></trkpt><trkpt lat="42.5357789" lon="12.7382847"><ele>376.25</ele><time>2026-05-01T15:10:02.466Z</time></trkpt><trkpt lat="42.5356858" lon="12.7381685"><ele>379.5</ele><time>2026-05-01T15:10:03.48Z</time></trkpt><trkpt lat="42.5355871" lon="12.7380658"><ele>382.75</ele><time>2026-05-01T15:10:04.471Z</time></trkpt><trkpt lat="42.5354898" lon="12.7379757"><ele>386.0</ele><time>2026-05-01T15:10:05.481Z</time></trkpt><trkpt lat="42.5353964" lon="12.7378931"><ele>383.8</ele><time>2026-05-01T15:10:06.477Z</time></trkpt><trkpt lat="42.535309" lon="12.7378132"><ele>381.6</ele><time>2026-05-01T15:10:07.478Z</time></trkpt><trkpt lat="42.5352297" lon="12.7377359"><ele>379.4</ele><time>2026-05-01T15:10:08.476Z</time></trkpt><trkpt lat="42.5351565" lon="12.737657"><ele>377.2</ele><time>2026-05-01T15:10:09.485Z</time></trkpt><trkpt lat="42.5350898" lon="12.7375743"><ele>375.0</ele><time>2026-05-01T15:10:10.466Z</time></trkpt><trkpt lat="42.5350343" lon="12.7374827"><ele>375.0</ele><time>2026-05-01T15:10:11.464Z</time></trkpt><trkpt lat="42.5349859" lon="12.7373836"><ele>375.0</ele><time>2026-05-01T15:10:12.468Z</time></trkpt><trkpt lat="42.5349499" lon="12.7372717"><ele>375.0</ele><time>2026-05-01T15:10:13.471Z</time></trkpt><trkpt lat="42.5349276" lon="12.737134"><ele>375.0</ele><time>2026-05-01T15:10:14.481Z</time></trkpt><trkpt lat="42.5349414" lon="12.7369675"><ele>375.0</ele><time>2026-05-01T15:10:15.473Z</time></trkpt><trkpt lat="42.5349783" lon="12.7368062"><ele>374.75</ele><time>2026-05-01T15:10:16.47Z</time></trkpt><trkpt lat="42.5350443" lon="12.7366728"><ele>374.5</ele><time>2026-05-01T15:10:17.467Z</time></trkpt><trkpt lat="42.5351383" lon="12.7365669"><ele>374.25</ele><time>2026-05-01T15:10:18.475Z</time></trkpt><trkpt lat="42.5352606" lon="12.7364847"><ele>374.0</ele><time>2026-05-01T15:10:19.469Z</time></trkpt><trkpt lat="42.5354001" lon="12.7364046"><ele>375.0</ele><time>2026-05-01T15:10:20.482Z</time></trkpt><trkpt lat="42.5355368" lon="12.7363282"><ele>376.0</ele><time>2026-05-01T15:10:21.469Z</time></trkpt><trkpt lat="42.5356689" lon="12.7362439"><ele>377.0</ele><time>2026-05-01T15:10:22.485Z</time></trkpt><trkpt lat="42.5358001" lon="12.7361395"><ele>378.0</ele><time>2026-05-01T15:10:23.469Z</time></trkpt><trkpt lat="42.5359525" lon="12.7360503"><ele>378.0</ele><time>2026-05-01T15:10:24.47Z</time></trkpt><trkpt lat="42.5361096" lon="12.7359963"><ele>378.0</ele><time>2026-05-01T15:10:25.473Z</time></trkpt><trkpt lat="42.5362575" lon="12.7359499"><ele>378.0</ele><time>2026-05-01T15:10:26.477Z</time></trkpt><trkpt lat="42.5364018" lon="12.7358838"><ele>382.0</ele><time>2026-05-01T15:10:27.477Z</time></trkpt><trkpt lat="42.5365469" lon="12.7357978"><ele>386.0</ele><time>2026-05-01T15:10:28.465Z</time></trkpt><trkpt lat="42.5366854" lon="12.7357108"><ele>390.0</ele><time>2026-05-01T15:10:29.477Z</time></trkpt><trkpt lat="42.5368151" lon="12.7356191"><ele>390.0</ele><time>2026-05-01T15:10:30.47Z</time></trkpt><trkpt lat="42.5369407" lon="12.7355314"><ele>390.0</ele><time>2026-05-01T15:10:31.483Z</time></trkpt><trkpt lat="42.537062" lon="12.7353994"><ele>390.0</ele><time>2026-05-01T15:10:32.473Z</time></trkpt><trkpt lat="42.5371703" lon="12.735274"><ele>390.0</ele><time>2026-05-01T15:10:33.477Z</time></trkpt><trkpt lat="42.5372813" lon="12.7351434"><ele>389.25</ele><time>2026-05-01T15:10:34.472Z</time></trkpt><trkpt lat="42.5373789" lon="12.7350315"><ele>388.5</ele><time>2026-05-01T15:10:35.464Z</time></trkpt><trkpt lat="42.5374771" lon="12.7349183"><ele>387.75</ele><time>2026-05-01T15:10:36.47Z</time></trkpt><trkpt lat="42.5375837" lon="12.7347978"><ele>387.0</ele><time>2026-05-01T15:10:37.476Z</time></trkpt><trkpt lat="42.5377106" lon="12.7346909"><ele>387.0</ele><time>2026-05-01T15:10:38.477Z</time></trkpt><trkpt lat="42.5378441" lon="12.7346219"><ele>387.0</ele><time>2026-05-01T15:10:39.472Z</time></trkpt><trkpt lat="42.5379928" lon="12.7345503"><ele>387.0</ele><time>2026-05-01T15:10:40.474Z</time></trkpt><trkpt lat="42.5381309" lon="12.7344938"><ele>387.0</ele><time>2026-05-01T15:10:41.468Z</time></trkpt><trkpt lat="42.5382648" lon="12.7344499"><ele>387.5</ele><time>2026-05-01T15:10:42.467Z</time></trkpt><trkpt lat="42.5383985" lon="12.7344039"><ele>388.0</ele><time>2026-05-01T15:10:43.468Z</time></trkpt><trkpt lat="42.5385185" lon="12.7343432"><ele>388.5</ele><time>2026-05-01T15:10:44.472Z</time></trkpt><trkpt lat="42.5386367" lon="12.7342651"><ele>389.0</ele><time>2026-05-01T15:10:45.47Z</time></trkpt><trkpt lat="42.5387658" lon="12.7342011"><ele>389.0</ele><time>2026-05-01T15:10:46.466Z</time></trkpt><trkpt lat="42.5389039" lon="12.7341413"><ele>389.0</ele><time>2026-05-01T15:10:47.464Z</time></trkpt><trkpt lat="42.5390481" lon="12.734084"><ele>389.0</ele><time>2026-05-01T15:10:48.471Z</time></trkpt><trkpt lat="42.5392011" lon="12.7339951"><ele>389.0</ele><time>2026-05-01T15:10:49.468Z</time></trkpt><trkpt lat="42.5393574" lon="12.7339231"><ele>389.0</ele><time>2026-05-01T15:10:50.465Z</time></trkpt><trkpt lat="42.5395066" lon="12.7338635"><ele>389.0</ele><time>2026-05-01T15:10:51.474Z</time></trkpt><trkpt lat="42.5396634" lon="12.7338135"><ele>394.3333333333333</ele><time>2026-05-01T15:10:52.473Z</time></trkpt><trkpt lat="42.5398194" lon="12.7337481"><ele>399.66666666666663</ele><time>2026-05-01T15:10:53.48Z</time></trkpt><trkpt lat="42.5399901" lon="12.733658"><ele>405.0</ele><time>2026-05-01T15:10:54.47Z</time></trkpt><trkpt lat="42.5401945" lon="12.7335679"><ele>402.0</ele><time>2026-05-01T15:10:55.473Z</time></trkpt><trkpt lat="42.5403834" lon="12.7334773"><ele>399.0</ele><time>2026-05-01T15:10:56.469Z</time></trkpt><trkpt lat="42.5405688" lon="12.7333575"><ele>396.0</ele><time>2026-05-01T15:10:57.466Z</time></trkpt><trkpt lat="42.5407404" lon="12.7332607"><ele>396.0</ele><time>2026-05-01T15:10:58.478Z</time></trkpt><trkpt lat="42.5408999" lon="12.7331871"><ele>396.0</ele><time>2026-05-01T15:10:59.471Z</time></trkpt><trkpt lat="42.5410503" lon="12.7331099"><ele>396.0</ele><time>2026-05-01T15:11:00.476Z</time></trkpt><trkpt lat="42.5412097" lon="12.7330418"><ele>394.66666666666663</ele><time>2026-05-01T15:11:01.477Z</time></trkpt><trkpt lat="42.5413585" lon="12.7329413"><ele>393.3333333333333</ele><time>2026-05-01T15:11:02.473Z</time></trkpt><trkpt lat="42.541506" lon="12.7328021"><ele>392.0</ele><time>2026-05-01T15:11:03.476Z</time></trkpt><trkpt lat="42.5416264" lon="12.7326216"><ele>392.0</ele><time>2026-05-01T15:11:04.468Z</time></trkpt><trkpt lat="42.5417463" lon="12.732434"><ele>392.0</ele><time>2026-05-01T15:11:05.476Z</time></trkpt><trkpt lat="42.5418654" lon="12.7322218"><ele>392.0</ele><time>2026-05-01T15:11:06.481Z</time></trkpt><trkpt lat="42.5419858" lon="12.7320252"><ele>394.3333333333333</ele><time>2026-05-01T15:11:07.469Z</time></trkpt><trkpt lat="42.542094" lon="12.7318496"><ele>396.66666666666663</ele><time>2026-05-01T15:11:08.475Z</time></trkpt><trkpt lat="42.5422027" lon="12.7317014"><ele>399.0</ele><time>2026-05-01T15:11:09.475Z</time></trkpt><trkpt lat="42.5423073" lon="12.731561"><ele>399.0</ele><time>2026-05-01T15:11:10.472Z</time></trkpt><trkpt lat="42.5424175" lon="12.7313987"><ele>399.0</ele><time>2026-05-01T15:11:11.467Z</time></trkpt><trkpt lat="42.5425224" lon="12.7312236"><ele>399.0</ele><time>2026-05-01T15:11:12.465Z</time></trkpt><trkpt lat="42.5426114" lon="12.7310542"><ele>395.75</ele><time>2026-05-01T15:11:13.473Z</time></trkpt><trkpt lat="42.5426931" lon="12.7308581"><ele>392.5</ele><time>2026-05-01T15:11:14.472Z</time></trkpt><trkpt lat="42.542746" lon="12.7306735"><ele>389.25</ele><time>2026-05-01T15:11:15.468Z</time></trkpt><trkpt lat="42.5427785" lon="12.7304953"><ele>386.0</ele><time>2026-05-01T15:11:16.472Z</time></trkpt><trkpt lat="42.5427946" lon="12.7303287"><ele>385.75</ele><time>2026-05-01T15:11:17.466Z</time></trkpt><trkpt lat="42.5428108" lon="12.7301611"><ele>385.5</ele><time>2026-05-01T15:11:18.468Z</time></trkpt><trkpt lat="42.5428318" lon="12.7299702"><ele>385.25</ele><time>2026-05-01T15:11:19.463Z</time></trkpt><trkpt lat="42.5428867" lon="12.729811"><ele>385.0</ele><time>2026-05-01T15:11:20.475Z</time></trkpt><trkpt lat="42.5429783" lon="12.7296779"><ele>390.75</ele><time>2026-05-01T15:11:21.474Z</time></trkpt><trkpt lat="42.5430538" lon="12.7295251"><ele>396.5</ele><time>2026-05-01T15:11:22.48Z</time></trkpt><trkpt lat="42.5431363" lon="12.729351"><ele>402.25</ele><time>2026-05-01T15:11:23.465Z</time></trkpt><trkpt lat="42.5431833" lon="12.7291973"><ele>408.0</ele><time>2026-05-01T15:11:24.469Z</time></trkpt><trkpt lat="42.5432024" lon="12.7290446"><ele>408.0</ele><time>2026-05-01T15:11:25.47Z</time></trkpt><trkpt lat="42.5432064" lon="12.728903"><ele>408.0</ele><time>2026-05-01T15:11:26.472Z</time></trkpt><trkpt lat="42.5431965" lon="12.7287628"><ele>408.0</ele><time>2026-05-01T15:11:27.476Z</time></trkpt><trkpt lat="42.5431863" lon="12.7285922"><ele>408.0</ele><time>2026-05-01T15:11:28.481Z</time></trkpt><trkpt lat="42.5431777" lon="12.7284228"><ele>407.0</ele><time>2026-05-01T15:11:29.48Z</time></trkpt><trkpt lat="42.5431876" lon="12.7282528"><ele>406.0</ele><time>2026-05-01T15:11:30.467Z</time></trkpt><trkpt lat="42.543213" lon="12.7280668"><ele>405.0</ele><time>2026-05-01T15:11:31.468Z</time></trkpt><trkpt lat="42.5432268" lon="12.7278857"><ele>404.0</ele><time>2026-05-01T15:11:32.468Z</time></trkpt><trkpt lat="42.5432217" lon="12.727713"><ele>403.0</ele><time>2026-05-01T15:11:33.471Z</time></trkpt><trkpt lat="42.54322" lon="12.7275418"><ele>402.0</ele><time>2026-05-01T15:11:34.464Z</time></trkpt><trkpt lat="42.5432291" lon="12.727374"><ele>401.0</ele><time>2026-05-01T15:11:35.47Z</time></trkpt><trkpt lat="42.5432455" lon="12.7272019"><ele>400.0</ele><time>2026-05-01T15:11:36.477Z</time></trkpt><trkpt lat="42.5432615" lon="12.7270222"><ele>398.5</ele><time>2026-05-01T15:11:37.471Z</time></trkpt><trkpt lat="42.5432868" lon="12.7268377"><ele>397.0</ele><time>2026-05-01T15:11:38.462Z</time></trkpt><trkpt lat="42.5433146" lon="12.7266581"><ele>395.5</ele><time>2026-05-01T15:11:39.477Z</time></trkpt><trkpt lat="42.5433572" lon="12.7264751"><ele>394.0</ele><time>2026-05-01T15:11:40.47Z</time></trkpt><trkpt lat="42.5433887" lon="12.7263038"><ele>394.0</ele><time>2026-05-01T15:11:41.47Z</time></trkpt><trkpt lat="42.5433872" lon="12.7261153"><ele>394.0</ele><time>2026-05-01T15:11:42.477Z</time></trkpt><trkpt lat="42.5433633" lon="12.7259317"><ele>394.0</ele><time>2026-05-01T15:11:43.47Z</time></trkpt><trkpt lat="42.5433322" lon="12.7257701"><ele>394.0</ele><time>2026-05-01T15:11:44.478Z</time></trkpt><trkpt lat="42.5433264" lon="12.7256014"><ele>393.0</ele><time>2026-05-01T15:11:45.48Z</time></trkpt><trkpt lat="42.5433242" lon="12.7254392"><ele>392.0</ele><time>2026-05-01T15:11:46.469Z</time></trkpt><trkpt lat="42.5433268" lon="12.725282"><ele>391.0</ele><time>2026-05-01T15:11:47.466Z</time></trkpt><trkpt lat="42.5433396" lon="12.7251074"><ele>390.0</ele><time>2026-05-01T15:11:48.473Z</time></trkpt><trkpt lat="42.5433653" lon="12.7249284"><ele>389.5</ele><time>2026-05-01T15:11:49.475Z</time></trkpt><trkpt lat="42.5434005" lon="12.7247422"><ele>389.0</ele><time>2026-05-01T15:11:50.466Z</time></trkpt><trkpt lat="42.5434448" lon="12.7245574"><ele>388.5</ele><time>2026-05-01T15:11:51.469Z</time></trkpt><trkpt lat="42.5435154" lon="12.7243765"><ele>388.0</ele><time>2026-05-01T15:11:52.476Z</time></trkpt><trkpt lat="42.543648" lon="12.7242321"><ele>391.25</ele><time>2026-05-01T15:11:53.464Z</time></trkpt><trkpt lat="42.5437636" lon="12.7241179"><ele>394.5</ele><time>2026-05-01T15:11:54.469Z</time></trkpt><trkpt lat="42.5438702" lon="12.7240106"><ele>397.75</ele><time>2026-05-01T15:11:55.468Z</time></trkpt><trkpt lat="42.5439673" lon="12.7239003"><ele>401.0</ele><time>2026-05-01T15:11:56.468Z</time></trkpt><trkpt lat="42.5440577" lon="12.7237476"><ele>401.0</ele><time>2026-05-01T15:11:57.474Z</time></trkpt><trkpt lat="42.5441502" lon="12.7235879"><ele>401.0</ele><time>2026-05-01T15:11:58.472Z</time></trkpt><trkpt lat="42.5442354" lon="12.7234373"><ele>401.0</ele><time>2026-05-01T15:11:59.473Z</time></trkpt><trkpt lat="42.544314" lon="12.7232964"><ele>401.0</ele><time>2026-05-01T15:12:00.473Z</time></trkpt><trkpt lat="42.5443926" lon="12.7231699"><ele>403.5</ele><time>2026-05-01T15:12:01.471Z</time></trkpt><trkpt lat="42.5444653" lon="12.7230471"><ele>406.0</ele><time>2026-05-01T15:12:02.467Z</time></trkpt><trkpt lat="42.5445354" lon="12.7229212"><ele>408.5</ele><time>2026-05-01T15:12:03.474Z</time></trkpt><trkpt lat="42.5446108" lon="12.7227892"><ele>411.0</ele><time>2026-05-01T15:12:04.472Z</time></trkpt><trkpt lat="42.544684" lon="12.7226176"><ele>405.5</ele><time>2026-05-01T15:12:05.468Z</time></trkpt><trkpt lat="42.5447569" lon="12.7224765"><ele>400.0</ele><time>2026-05-01T15:12:06.467Z</time></trkpt><trkpt lat="42.5448269" lon="12.7223602"><ele>394.5</ele><time>2026-05-01T15:12:07.472Z</time></trkpt><trkpt lat="42.5448978" lon="12.7222346"><ele>389.0</ele><time>2026-05-01T15:12:08.472Z</time></trkpt><trkpt lat="42.5449732" lon="12.7221113"><ele>389.0</ele><time>2026-05-01T15:12:09.467Z</time></trkpt><trkpt lat="42.5450464" lon="12.7219814"><ele>389.0</ele><time>2026-05-01T15:12:10.471Z</time></trkpt><trkpt lat="42.5451247" lon="12.7218568"><ele>389.0</ele><time>2026-05-01T15:12:11.471Z</time></trkpt><trkpt lat="42.5452061" lon="12.7217323"><ele>389.0</ele><time>2026-05-01T15:12:12.473Z</time></trkpt><trkpt lat="42.5452893" lon="12.7216069"><ele>391.0</ele><time>2026-05-01T15:12:13.472Z</time></trkpt><trkpt lat="42.5453745" lon="12.7214764"><ele>393.0</ele><time>2026-05-01T15:12:14.466Z</time></trkpt><trkpt lat="42.5454596" lon="12.7213421"><ele>395.0</ele><time>2026-05-01T15:12:15.481Z</time></trkpt><trkpt lat="42.5455507" lon="12.7212221"><ele>397.0</ele><time>2026-05-01T15:12:16.488Z</time></trkpt><trkpt lat="42.5456317" lon="12.7211098"><ele>394.0</ele><time>2026-05-01T15:12:17.468Z</time></trkpt><trkpt lat="42.545714" lon="12.7210068"><ele>391.0</ele><time>2026-05-01T15:12:18.479Z</time></trkpt><trkpt lat="42.5457914" lon="12.7208925"><ele>388.0</ele><time>2026-05-01T15:12:19.469Z</time></trkpt><trkpt lat="42.5458654" lon="12.720779"><ele>385.0</ele><time>2026-05-01T15:12:20.467Z</time></trkpt><trkpt lat="42.5459363" lon="12.7206727"><ele>382.0</ele><time>2026-05-01T15:12:21.466Z</time></trkpt><trkpt lat="42.546008" lon="12.7205594"><ele>382.0</ele><time>2026-05-01T15:12:22.477Z</time></trkpt><trkpt lat="42.5460871" lon="12.7204627"><ele>382.0</ele><time>2026-05-01T15:12:23.474Z</time></trkpt><trkpt lat="42.5461616" lon="12.7203726"><ele>382.0</ele><time>2026-05-01T15:12:24.47Z</time></trkpt><trkpt lat="42.5462397" lon="12.7202853"><ele>382.0</ele><time>2026-05-01T15:12:25.478Z</time></trkpt><trkpt lat="42.5463205" lon="12.7202052"><ele>382.0</ele><time>2026-05-01T15:12:26.469Z</time></trkpt><trkpt lat="42.5464001" lon="12.7201293"><ele>382.20000000000005</ele><time>2026-05-01T15:12:27.47Z</time></trkpt><trkpt lat="42.5464765" lon="12.7200589"><ele>382.4</ele><time>2026-05-01T15:12:28.466Z</time></trkpt><trkpt lat="42.5465596" lon="12.7199934"><ele>382.6</ele><time>2026-05-01T15:12:29.475Z</time></trkpt><trkpt lat="42.5466495" lon="12.7199389"><ele>382.79999999999995</ele><time>2026-05-01T15:12:30.482Z</time></trkpt><trkpt lat="42.5467352" lon="12.7198862"><ele>383.0</ele><time>2026-05-01T15:12:31.473Z</time></trkpt><trkpt lat="42.5468151" lon="12.7198382"><ele>383.0</ele><time>2026-05-01T15:12:32.472Z</time></trkpt><trkpt lat="42.5468964" lon="12.7197996"><ele>383.0</ele><time>2026-05-01T15:12:33.477Z</time></trkpt><trkpt lat="42.5469785" lon="12.719759"><ele>383.0</ele><time>2026-05-01T15:12:34.47Z</time></trkpt><trkpt lat="42.5470603" lon="12.7197193"><ele>383.0</ele><time>2026-05-01T15:12:35.474Z</time></trkpt><trkpt lat="42.5471373" lon="12.7196668"><ele>383.0</ele><time>2026-05-01T15:12:36.47Z</time></trkpt><trkpt lat="42.5472148" lon="12.7196151"><ele>383.0</ele><time>2026-05-01T15:12:37.468Z</time></trkpt><trkpt lat="42.5472943" lon="12.7195695"><ele>383.33333333333337</ele><time>2026-05-01T15:12:38.472Z</time></trkpt><trkpt lat="42.5473735" lon="12.7195173"><ele>383.6666666666667</ele><time>2026-05-01T15:12:39.464Z</time></trkpt><trkpt lat="42.5474472" lon="12.7194719"><ele>384.0</ele><time>2026-05-01T15:12:40.471Z</time></trkpt><trkpt lat="42.5475215" lon="12.7194336"><ele>384.33333333333337</ele><time>2026-05-01T15:12:41.474Z</time></trkpt><trkpt lat="42.5475887" lon="12.7193952"><ele>384.6666666666667</ele><time>2026-05-01T15:12:42.474Z</time></trkpt><trkpt lat="42.5476514" lon="12.7193555"><ele>385.0</ele><time>2026-05-01T15:12:43.476Z</time></trkpt><trkpt lat="42.547716" lon="12.7193111"><ele>383.83333333333337</ele><time>2026-05-01T15:12:44.465Z</time></trkpt><trkpt lat="42.5477853" lon="12.7192716"><ele>382.6666666666667</ele><time>2026-05-01T15:12:45.474Z</time></trkpt><trkpt lat="42.5478538" lon="12.7192334"><ele>381.5</ele><time>2026-05-01T15:12:46.468Z</time></trkpt><trkpt lat="42.5479216" lon="12.7191877"><ele>380.33333333333337</ele><time>2026-05-01T15:12:47.474Z</time></trkpt><trkpt lat="42.5479873" lon="12.7191297"><ele>379.1666666666667</ele><time>2026-05-01T15:12:48.469Z</time></trkpt><trkpt lat="42.5480403" lon="12.7190636"><ele>378.0</ele><time>2026-05-01T15:12:49.474Z</time></trkpt><trkpt lat="42.5481025" lon="12.7189336"><ele>378.0</ele><time>2026-05-01T15:12:51.468Z</time></trkpt><trkpt lat="42.548104" lon="12.7187884"><ele>378.0</ele><time>2026-05-01T15:12:53.471Z</time></trkpt><trkpt lat="42.5480871" lon="12.7186694"><ele>378.0</ele><time>2026-05-01T15:12:55.471Z</time></trkpt><trkpt lat="42.5480223" lon="12.7185474"><ele>378.0</ele><time>2026-05-01T15:12:57.469Z</time></trkpt><trkpt lat="42.5479593" lon="12.7184166"><ele>378.0</ele><time>2026-05-01T15:12:59.47Z</time></trkpt><trkpt lat="42.5479245" lon="12.7183352"><ele>378.2</ele><time>2026-05-01T15:13:00.478Z</time></trkpt><trkpt lat="42.5479094" lon="12.7182294"><ele>378.4</ele><time>2026-05-01T15:13:01.469Z</time></trkpt><trkpt lat="42.5479076" lon="12.7181142"><ele>378.59999999999997</ele><time>2026-05-01T15:13:02.467Z</time></trkpt><trkpt lat="42.5479103" lon="12.7179844"><ele>378.79999999999995</ele><time>2026-05-01T15:13:03.475Z</time></trkpt><trkpt lat="42.5479242" lon="12.7178536"><ele>379.0</ele><time>2026-05-01T15:13:04.468Z</time></trkpt><trkpt lat="42.5479333" lon="12.7177128"><ele>378.6</ele><time>2026-05-01T15:13:05.467Z</time></trkpt><trkpt lat="42.5479506" lon="12.7175784"><ele>378.2</ele><time>2026-05-01T15:13:06.469Z</time></trkpt><trkpt lat="42.5479696" lon="12.7174468"><ele>377.8</ele><time>2026-05-01T15:13:07.48Z</time></trkpt><trkpt lat="42.5479869" lon="12.7173048"><ele>377.40000000000003</ele><time>2026-05-01T15:13:08.481Z</time></trkpt><trkpt lat="42.5480015" lon="12.7171607"><ele>377.0</ele><time>2026-05-01T15:13:09.471Z</time></trkpt><trkpt lat="42.5480172" lon="12.7170093"><ele>377.0</ele><time>2026-05-01T15:13:10.464Z</time></trkpt><trkpt lat="42.5480349" lon="12.7168578"><ele>377.0</ele><time>2026-05-01T15:13:11.474Z</time></trkpt><trkpt lat="42.5480511" lon="12.7166961"><ele>377.0</ele><time>2026-05-01T15:13:12.481Z</time></trkpt><trkpt lat="42.5480604" lon="12.7165244"><ele>377.0</ele><time>2026-05-01T15:13:13.47Z</time></trkpt><trkpt lat="42.5480748" lon="12.7163591"><ele>377.0</ele><time>2026-05-01T15:13:14.471Z</time></trkpt><trkpt lat="42.5480909" lon="12.7162035"><ele>377.0</ele><time>2026-05-01T15:13:15.47Z</time></trkpt><trkpt lat="42.5481" lon="12.7160526"><ele>377.0</ele><time>2026-05-01T15:13:16.475Z</time></trkpt><trkpt lat="42.5481071" lon="12.7159007"><ele>377.0</ele><time>2026-05-01T15:13:17.474Z</time></trkpt><trkpt lat="42.5481173" lon="12.7157421"><ele>376.25</ele><time>2026-05-01T15:13:18.471Z</time></trkpt><trkpt lat="42.5481255" lon="12.7155823"><ele>375.5</ele><time>2026-05-01T15:13:19.466Z</time></trkpt><trkpt lat="42.548136" lon="12.7154268"><ele>374.75</ele><time>2026-05-01T15:13:20.468Z</time></trkpt><trkpt lat="42.548143" lon="12.7152574"><ele>374.0</ele><time>2026-05-01T15:13:21.473Z</time></trkpt><trkpt lat="42.5481549" lon="12.7150894"><ele>374.0</ele><time>2026-05-01T15:13:22.485Z</time></trkpt><trkpt lat="42.5481691" lon="12.714921"><ele>374.0</ele><time>2026-05-01T15:13:23.476Z</time></trkpt><trkpt lat="42.5481754" lon="12.7147645"><ele>374.0</ele><time>2026-05-01T15:13:24.466Z</time></trkpt><trkpt lat="42.5481773" lon="12.7146187"><ele>374.0</ele><time>2026-05-01T15:13:25.473Z</time></trkpt><trkpt lat="42.5481785" lon="12.7144848"><ele>374.0</ele><time>2026-05-01T15:13:26.465Z</time></trkpt><trkpt lat="42.5481793" lon="12.7143589"><ele>374.1666666666667</ele><time>2026-05-01T15:13:27.475Z</time></trkpt><trkpt lat="42.5481827" lon="12.7142481"><ele>374.33333333333337</ele><time>2026-05-01T15:13:28.474Z</time></trkpt><trkpt lat="42.5481806" lon="12.7141384"><ele>374.5</ele><time>2026-05-01T15:13:29.47Z</time></trkpt><trkpt lat="42.5481837" lon="12.7140216"><ele>374.6666666666667</ele><time>2026-05-01T15:13:30.471Z</time></trkpt><trkpt lat="42.5481862" lon="12.7139122"><ele>374.8333333333333</ele><time>2026-05-01T15:13:31.465Z</time></trkpt><trkpt lat="42.5481845" lon="12.7138147"><ele>375.0</ele><time>2026-05-01T15:13:32.472Z</time></trkpt><trkpt lat="42.5481881" lon="12.7137211"><ele>375.0</ele><time>2026-05-01T15:13:33.47Z</time></trkpt><trkpt lat="42.5481902" lon="12.7136234"><ele>375.0</ele><time>2026-05-01T15:13:34.467Z</time></trkpt><trkpt lat="42.5482009" lon="12.7135212"><ele>375.0</ele><time>2026-05-01T15:13:35.469Z</time></trkpt><trkpt lat="42.5482155" lon="12.7134115"><ele>375.0</ele><time>2026-05-01T15:13:36.47Z</time></trkpt><trkpt lat="42.5482428" lon="12.7132953"><ele>375.0</ele><time>2026-05-01T15:13:37.477Z</time></trkpt><trkpt lat="42.5482855" lon="12.7131733"><ele>375.0</ele><time>2026-05-01T15:13:38.469Z</time></trkpt><trkpt lat="42.5483161" lon="12.7130488"><ele>375.0</ele><time>2026-05-01T15:13:39.463Z</time></trkpt><trkpt lat="42.548348" lon="12.7129242"><ele>375.0</ele><time>2026-05-01T15:13:40.473Z</time></trkpt><trkpt lat="42.548381" lon="12.7128076"><ele>375.0</ele><time>2026-05-01T15:13:41.469Z</time></trkpt><trkpt lat="42.5484127" lon="12.7126966"><ele>375.0</ele><time>2026-05-01T15:13:42.475Z</time></trkpt><trkpt lat="42.5484533" lon="12.7125907"><ele>375.0</ele><time>2026-05-01T15:13:43.47Z</time></trkpt><trkpt lat="42.5484934" lon="12.7124925"><ele>375.0</ele><time>2026-05-01T15:13:44.486Z</time></trkpt><trkpt lat="42.548539" lon="12.712402"><ele>374.8333333333333</ele><time>2026-05-01T15:13:45.469Z</time></trkpt><trkpt lat="42.5485795" lon="12.7123053"><ele>374.6666666666667</ele><time>2026-05-01T15:13:46.476Z</time></trkpt><trkpt lat="42.5486223" lon="12.7121986"><ele>374.5</ele><time>2026-05-01T15:13:47.477Z</time></trkpt><trkpt lat="42.5486709" lon="12.712091"><ele>374.33333333333337</ele><time>2026-05-01T15:13:48.473Z</time></trkpt><trkpt lat="42.5487182" lon="12.7119968"><ele>374.1666666666667</ele><time>2026-05-01T15:13:49.468Z</time></trkpt><trkpt lat="42.5487569" lon="12.7119137"><ele>374.0</ele><time>2026-05-01T15:13:50.466Z</time></trkpt><trkpt lat="42.5487929" lon="12.7117961"><ele>374.0</ele><time>2026-05-01T15:13:52.466Z</time></trkpt><trkpt lat="42.5488363" lon="12.711703"><ele>374.0</ele><time>2026-05-01T15:13:55.466Z</time></trkpt><trkpt lat="42.5488852" lon="12.7116053"><ele>374.0</ele><time>2026-05-01T15:13:57.47Z</time></trkpt><trkpt lat="42.5489359" lon="12.7114872"><ele>374.0</ele><time>2026-05-01T15:13:59.469Z</time></trkpt><trkpt lat="42.5489694" lon="12.7114143"><ele>374.0</ele><time>2026-05-01T15:14:00.471Z</time></trkpt><trkpt lat="42.5490146" lon="12.7113467"><ele>374.0</ele><time>2026-05-01T15:14:01.481Z</time></trkpt><trkpt lat="42.5490537" lon="12.7112629"><ele>374.0</ele><time>2026-05-01T15:14:02.473Z</time></trkpt><trkpt lat="42.5490913" lon="12.7111718"><ele>374.0</ele><time>2026-05-01T15:14:03.471Z</time></trkpt><trkpt lat="42.5491283" lon="12.7110698"><ele>374.0</ele><time>2026-05-01T15:14:04.47Z</time></trkpt><trkpt lat="42.5491703" lon="12.7109727"><ele>374.0</ele><time>2026-05-01T15:14:05.466Z</time></trkpt><trkpt lat="42.5492032" lon="12.7108799"><ele>374.0</ele><time>2026-05-01T15:14:06.471Z</time></trkpt><trkpt lat="42.5492303" lon="12.7107991"><ele>374.0</ele><time>2026-05-01T15:14:07.469Z</time></trkpt><trkpt lat="42.5492899" lon="12.71065"><ele>374.6</ele><time>2026-05-01T15:14:09.475Z</time></trkpt><trkpt lat="42.5493523" lon="12.7105127"><ele>375.2</ele><time>2026-05-01T15:14:11.473Z</time></trkpt><trkpt lat="42.5493653" lon="12.7103858"><ele>375.8</ele><time>2026-05-01T15:14:13.477Z</time></trkpt><trkpt lat="42.5493" lon="12.7103414"><ele>376.40000000000003</ele><time>2026-05-01T15:14:15.472Z</time></trkpt><trkpt lat="42.5491623" lon="12.7103591"><ele>377.0</ele><time>2026-05-01T15:14:17.461Z</time></trkpt><trkpt lat="42.5490812" lon="12.710375"><ele>377.0</ele><time>2026-05-01T15:14:18.475Z</time></trkpt><trkpt lat="42.549003" lon="12.7103789"><ele>377.0</ele><time>2026-05-01T15:14:19.482Z</time></trkpt><trkpt lat="42.548928" lon="12.7103741"><ele>377.0</ele><time>2026-05-01T15:14:20.469Z</time></trkpt><trkpt lat="42.5488595" lon="12.7103687"><ele>377.0</ele><time>2026-05-01T15:14:21.466Z</time></trkpt><trkpt lat="42.5487553" lon="12.7103709"><ele>377.0</ele><time>2026-05-01T15:14:23.471Z</time></trkpt><trkpt lat="42.5486956" lon="12.7103372"><ele>377.0</ele><time>2026-05-01T15:14:26.473Z</time></trkpt><trkpt lat="42.5487374" lon="12.7102702"><ele>377.0</ele><time>2026-05-01T15:14:29.466Z</time></trkpt><trkpt lat="42.5487395" lon="12.7101843"><ele>377.0</ele><time>2026-05-01T15:14:33.475Z</time></trkpt><trkpt lat="42.5486575" lon="12.7101856"><ele>377.0</ele><time>2026-05-01T15:14:36.471Z</time></trkpt><trkpt lat="42.5485822" lon="12.7101805"><ele>377.0</ele><time>2026-05-01T15:14:37.038Z</time></trkpt><trkpt lat="42.5485126" lon="12.7101822"><ele>377.0</ele><time>2026-05-01T15:14:40.017Z</time></trkpt><trkpt lat="42.548441" lon="12.7101871"><ele>377.0</ele><time>2026-05-01T15:14:43.01Z</time></trkpt><trkpt lat="42.5485818" lon="12.7104246"><ele>377.0</ele><time>2026-05-01T15:15:07.152Z</time></trkpt></trkseg></trk></gpx>